<?xml version="1.0" encoding="UTF-8"?>
<gpx version="1.1" creator="https://www.youtrack.es" xsi:schemaLocation="http://www.topografix.com/GPX/1/1 http://www.topografix.com/GPX/1/1/gpx.xsd http://www.garmin.com/xmlschemas/GpxExtensions/v3 http://www.garmin.com/xmlschemas/GpxExtensionsv3.xsd http://www.garmin.com/xmlschemas/TrackPointExtension/v1 http://www.garmin.com/xmlschemas/TrackPointExtensionv1.xsd" xmlns:gpxtpx="http://www.garmin.com/xmlschemas/TrackPointExtension/v1" xmlns:gpxx="http://www.garmin.com/xmlschemas/GpxExtensions/v3" xmlns:xsi="http://www.w3.org/2001/XMLSchema-instance">
  <metadata>
    <author>
      <name>jairo beltran</name>
      <email id="jaibega" domain="gmail.com"/>
    </author>
    <link href="https://www.youtrack.es">
      <text>YouTrack.es</text>
    </link>
    <time>2026-05-10T17:13:37Z</time>
  </metadata>
  <trk>
    <src>https://www.youtrack.es</src>
    <link href="https://www.youtrack.es/ruta/1614-11">
      <text>YouTrack.es</text>
    </link>
    <trkseg>
      <trkpt lat="4.5749280" lon="-74.2185500">
        <ele>2557.5</ele>
        <time>2018-08-11T15:31:31Z</time>
      </trkpt>
      <trkpt lat="4.5749570" lon="-74.2185000">
        <ele>2558.0</ele>
        <time>2018-08-11T15:31:32Z</time>
      </trkpt>
      <trkpt lat="4.5749920" lon="-74.2184970">
        <ele>2558.0</ele>
        <time>2018-08-11T15:31:34Z</time>
      </trkpt>
      <trkpt lat="4.5750270" lon="-74.2185100">
        <ele>2558.0</ele>
        <time>2018-08-11T15:31:36Z</time>
      </trkpt>
      <trkpt lat="4.5750580" lon="-74.2185330">
        <ele>2558.0</ele>
        <time>2018-08-11T15:31:38Z</time>
      </trkpt>
      <trkpt lat="4.5750970" lon="-74.2185450">
        <ele>2558.0</ele>
        <time>2018-08-11T15:31:40Z</time>
      </trkpt>
      <trkpt lat="4.5751480" lon="-74.2185500">
        <ele>2558.0</ele>
        <time>2018-08-11T15:31:42Z</time>
      </trkpt>
      <trkpt lat="4.5751850" lon="-74.2185480">
        <ele>2558.0</ele>
        <time>2018-08-11T15:31:44Z</time>
      </trkpt>
      <trkpt lat="4.5752180" lon="-74.2185630">
        <ele>2558.0</ele>
        <time>2018-08-11T15:31:47Z</time>
      </trkpt>
      <trkpt lat="4.5752200" lon="-74.2185970">
        <ele>2558.0</ele>
        <time>2018-08-11T15:31:49Z</time>
      </trkpt>
      <trkpt lat="4.5752050" lon="-74.2186300">
        <ele>2558.0</ele>
        <time>2018-08-11T15:31:51Z</time>
      </trkpt>
      <trkpt lat="4.5751920" lon="-74.2186730">
        <ele>2558.0</ele>
        <time>2018-08-11T15:31:53Z</time>
      </trkpt>
      <trkpt lat="4.5751680" lon="-74.2186930">
        <ele>2558.0</ele>
        <time>2018-08-11T15:31:55Z</time>
      </trkpt>
      <trkpt lat="4.5751430" lon="-74.2187050">
        <ele>2558.0</ele>
        <time>2018-08-11T15:31:56Z</time>
      </trkpt>
      <trkpt lat="4.5751320" lon="-74.2187370">
        <ele>2558.0</ele>
        <time>2018-08-11T15:31:58Z</time>
      </trkpt>
      <trkpt lat="4.5751270" lon="-74.2187680">
        <ele>2558.0</ele>
        <time>2018-08-11T15:32:15Z</time>
      </trkpt>
      <trkpt lat="4.5751480" lon="-74.2187870">
        <ele>2558.0</ele>
        <time>2018-08-11T15:32:18Z</time>
      </trkpt>
      <trkpt lat="4.5751670" lon="-74.2188120">
        <ele>2558.0</ele>
        <time>2018-08-11T15:32:20Z</time>
      </trkpt>
      <trkpt lat="4.5752020" lon="-74.2188400">
        <ele>2558.0</ele>
        <time>2018-08-11T15:32:22Z</time>
      </trkpt>
      <trkpt lat="4.5752230" lon="-74.2188580">
        <ele>2558.0</ele>
        <time>2018-08-11T15:32:23Z</time>
      </trkpt>
      <trkpt lat="4.5752620" lon="-74.2188900">
        <ele>2558.0</ele>
        <time>2018-08-11T15:32:25Z</time>
      </trkpt>
      <trkpt lat="4.5752980" lon="-74.2189250">
        <ele>2558.0</ele>
        <time>2018-08-11T15:32:27Z</time>
      </trkpt>
      <trkpt lat="4.5753400" lon="-74.2189520">
        <ele>2558.0</ele>
        <time>2018-08-11T15:32:29Z</time>
      </trkpt>
      <trkpt lat="4.5753650" lon="-74.2189700">
        <ele>2558.0</ele>
        <time>2018-08-11T15:32:30Z</time>
      </trkpt>
      <trkpt lat="4.5753920" lon="-74.2189830">
        <ele>2558.0</ele>
        <time>2018-08-11T15:32:31Z</time>
      </trkpt>
      <trkpt lat="4.5754120" lon="-74.2190070">
        <ele>2558.0</ele>
        <time>2018-08-11T15:32:32Z</time>
      </trkpt>
      <trkpt lat="4.5754280" lon="-74.2190330">
        <ele>2558.0</ele>
        <time>2018-08-11T15:32:33Z</time>
      </trkpt>
      <trkpt lat="4.5754470" lon="-74.2190570">
        <ele>2558.0</ele>
        <time>2018-08-11T15:32:34Z</time>
      </trkpt>
      <trkpt lat="4.5754630" lon="-74.2190850">
        <ele>2558.0</ele>
        <time>2018-08-11T15:32:35Z</time>
      </trkpt>
      <trkpt lat="4.5754770" lon="-74.2191170">
        <ele>2558.0</ele>
        <time>2018-08-11T15:32:36Z</time>
      </trkpt>
      <trkpt lat="4.5754920" lon="-74.2191430">
        <ele>2558.0</ele>
        <time>2018-08-11T15:32:37Z</time>
      </trkpt>
      <trkpt lat="4.5755100" lon="-74.2191630">
        <ele>2558.0</ele>
        <time>2018-08-11T15:32:38Z</time>
      </trkpt>
      <trkpt lat="4.5755430" lon="-74.2192000">
        <ele>2558.1</ele>
        <time>2018-08-11T15:32:40Z</time>
      </trkpt>
      <trkpt lat="4.5755620" lon="-74.2192200">
        <ele>2558.1</ele>
        <time>2018-08-11T15:32:41Z</time>
      </trkpt>
      <trkpt lat="4.5755820" lon="-74.2192380">
        <ele>2558.1</ele>
        <time>2018-08-11T15:32:42Z</time>
      </trkpt>
      <trkpt lat="4.5756130" lon="-74.2192770">
        <ele>2558.1</ele>
        <time>2018-08-11T15:32:44Z</time>
      </trkpt>
      <trkpt lat="4.5756370" lon="-74.2193170">
        <ele>2558.1</ele>
        <time>2018-08-11T15:32:46Z</time>
      </trkpt>
      <trkpt lat="4.5756680" lon="-74.2193580">
        <ele>2558.1</ele>
        <time>2018-08-11T15:32:48Z</time>
      </trkpt>
      <trkpt lat="4.5756920" lon="-74.2193820">
        <ele>2558.1</ele>
        <time>2018-08-11T15:32:49Z</time>
      </trkpt>
      <trkpt lat="4.5757150" lon="-74.2194030">
        <ele>2558.1</ele>
        <time>2018-08-11T15:32:50Z</time>
      </trkpt>
      <trkpt lat="4.5757330" lon="-74.2194300">
        <ele>2558.1</ele>
        <time>2018-08-11T15:32:51Z</time>
      </trkpt>
      <trkpt lat="4.5757520" lon="-74.2194570">
        <ele>2558.2</ele>
        <time>2018-08-11T15:32:52Z</time>
      </trkpt>
      <trkpt lat="4.5757730" lon="-74.2194850">
        <ele>2558.2</ele>
        <time>2018-08-11T15:32:53Z</time>
      </trkpt>
      <trkpt lat="4.5758020" lon="-74.2195130">
        <ele>2558.2</ele>
        <time>2018-08-11T15:32:54Z</time>
      </trkpt>
      <trkpt lat="4.5758270" lon="-74.2195450">
        <ele>2558.2</ele>
        <time>2018-08-11T15:32:55Z</time>
      </trkpt>
      <trkpt lat="4.5758480" lon="-74.2195750">
        <ele>2558.2</ele>
        <time>2018-08-11T15:32:56Z</time>
      </trkpt>
      <trkpt lat="4.5758680" lon="-74.2196050">
        <ele>2558.2</ele>
        <time>2018-08-11T15:32:57Z</time>
      </trkpt>
      <trkpt lat="4.5758850" lon="-74.2196370">
        <ele>2558.2</ele>
        <time>2018-08-11T15:32:58Z</time>
      </trkpt>
      <trkpt lat="4.5759020" lon="-74.2196680">
        <ele>2558.2</ele>
        <time>2018-08-11T15:32:59Z</time>
      </trkpt>
      <trkpt lat="4.5759180" lon="-74.2197000">
        <ele>2558.2</ele>
        <time>2018-08-11T15:33:00Z</time>
      </trkpt>
      <trkpt lat="4.5759350" lon="-74.2197330">
        <ele>2558.3</ele>
        <time>2018-08-11T15:33:01Z</time>
      </trkpt>
      <trkpt lat="4.5759500" lon="-74.2197680">
        <ele>2558.3</ele>
        <time>2018-08-11T15:33:02Z</time>
      </trkpt>
      <trkpt lat="4.5759630" lon="-74.2198020">
        <ele>2558.3</ele>
        <time>2018-08-11T15:33:03Z</time>
      </trkpt>
      <trkpt lat="4.5759780" lon="-74.2198330">
        <ele>2558.3</ele>
        <time>2018-08-11T15:33:04Z</time>
      </trkpt>
      <trkpt lat="4.5759930" lon="-74.2198670">
        <ele>2558.3</ele>
        <time>2018-08-11T15:33:05Z</time>
      </trkpt>
      <trkpt lat="4.5760050" lon="-74.2199000">
        <ele>2558.3</ele>
        <time>2018-08-11T15:33:06Z</time>
      </trkpt>
      <trkpt lat="4.5760150" lon="-74.2199330">
        <ele>2558.3</ele>
        <time>2018-08-11T15:33:07Z</time>
      </trkpt>
      <trkpt lat="4.5760300" lon="-74.2199670">
        <ele>2558.3</ele>
        <time>2018-08-11T15:33:08Z</time>
      </trkpt>
      <trkpt lat="4.5760450" lon="-74.2199950">
        <ele>2558.4</ele>
        <time>2018-08-11T15:33:09Z</time>
      </trkpt>
      <trkpt lat="4.5760570" lon="-74.2200230">
        <ele>2558.4</ele>
        <time>2018-08-11T15:33:10Z</time>
      </trkpt>
      <trkpt lat="4.5760700" lon="-74.2200520">
        <ele>2558.4</ele>
        <time>2018-08-11T15:33:11Z</time>
      </trkpt>
      <trkpt lat="4.5760880" lon="-74.2200750">
        <ele>2558.4</ele>
        <time>2018-08-11T15:33:12Z</time>
      </trkpt>
      <trkpt lat="4.5761070" lon="-74.2200950">
        <ele>2558.5</ele>
        <time>2018-08-11T15:33:13Z</time>
      </trkpt>
      <trkpt lat="4.5761450" lon="-74.2201350">
        <ele>2558.6</ele>
        <time>2018-08-11T15:33:15Z</time>
      </trkpt>
      <trkpt lat="4.5761650" lon="-74.2201650">
        <ele>2558.6</ele>
        <time>2018-08-11T15:33:16Z</time>
      </trkpt>
      <trkpt lat="4.5761920" lon="-74.2201900">
        <ele>2558.7</ele>
        <time>2018-08-11T15:33:17Z</time>
      </trkpt>
      <trkpt lat="4.5762120" lon="-74.2202230">
        <ele>2558.9</ele>
        <time>2018-08-11T15:33:18Z</time>
      </trkpt>
      <trkpt lat="4.5762300" lon="-74.2202550">
        <ele>2559.0</ele>
        <time>2018-08-11T15:33:19Z</time>
      </trkpt>
      <trkpt lat="4.5762450" lon="-74.2202830">
        <ele>2559.1</ele>
        <time>2018-08-11T15:33:20Z</time>
      </trkpt>
      <trkpt lat="4.5762580" lon="-74.2203120">
        <ele>2559.2</ele>
        <time>2018-08-11T15:33:21Z</time>
      </trkpt>
      <trkpt lat="4.5762780" lon="-74.2203400">
        <ele>2559.4</ele>
        <time>2018-08-11T15:33:22Z</time>
      </trkpt>
      <trkpt lat="4.5763000" lon="-74.2203680">
        <ele>2559.5</ele>
        <time>2018-08-11T15:33:23Z</time>
      </trkpt>
      <trkpt lat="4.5763180" lon="-74.2203980">
        <ele>2559.7</ele>
        <time>2018-08-11T15:33:24Z</time>
      </trkpt>
      <trkpt lat="4.5763350" lon="-74.2204230">
        <ele>2559.8</ele>
        <time>2018-08-11T15:33:25Z</time>
      </trkpt>
      <trkpt lat="4.5763570" lon="-74.2204480">
        <ele>2559.9</ele>
        <time>2018-08-11T15:33:26Z</time>
      </trkpt>
      <trkpt lat="4.5763820" lon="-74.2204750">
        <ele>2560.0</ele>
        <time>2018-08-11T15:33:27Z</time>
      </trkpt>
      <trkpt lat="4.5764070" lon="-74.2205050">
        <ele>2560.2</ele>
        <time>2018-08-11T15:33:28Z</time>
      </trkpt>
      <trkpt lat="4.5764270" lon="-74.2205320">
        <ele>2560.2</ele>
        <time>2018-08-11T15:33:29Z</time>
      </trkpt>
      <trkpt lat="4.5764500" lon="-74.2205570">
        <ele>2560.3</ele>
        <time>2018-08-11T15:33:30Z</time>
      </trkpt>
      <trkpt lat="4.5764730" lon="-74.2205750">
        <ele>2560.4</ele>
        <time>2018-08-11T15:33:31Z</time>
      </trkpt>
      <trkpt lat="4.5764980" lon="-74.2205950">
        <ele>2560.4</ele>
        <time>2018-08-11T15:33:32Z</time>
      </trkpt>
      <trkpt lat="4.5765270" lon="-74.2206170">
        <ele>2560.5</ele>
        <time>2018-08-11T15:33:33Z</time>
      </trkpt>
      <trkpt lat="4.5765520" lon="-74.2206330">
        <ele>2560.5</ele>
        <time>2018-08-11T15:33:34Z</time>
      </trkpt>
      <trkpt lat="4.5765780" lon="-74.2206480">
        <ele>2560.5</ele>
        <time>2018-08-11T15:33:35Z</time>
      </trkpt>
      <trkpt lat="4.5766050" lon="-74.2206620">
        <ele>2560.5</ele>
        <time>2018-08-11T15:33:36Z</time>
      </trkpt>
      <trkpt lat="4.5766330" lon="-74.2206720">
        <ele>2560.6</ele>
        <time>2018-08-11T15:33:37Z</time>
      </trkpt>
      <trkpt lat="4.5766650" lon="-74.2206800">
        <ele>2560.6</ele>
        <time>2018-08-11T15:33:38Z</time>
      </trkpt>
      <trkpt lat="4.5766930" lon="-74.2206900">
        <ele>2560.6</ele>
        <time>2018-08-11T15:33:39Z</time>
      </trkpt>
      <trkpt lat="4.5767230" lon="-74.2207020">
        <ele>2560.6</ele>
        <time>2018-08-11T15:33:40Z</time>
      </trkpt>
      <trkpt lat="4.5767530" lon="-74.2207200">
        <ele>2560.6</ele>
        <time>2018-08-11T15:33:41Z</time>
      </trkpt>
      <trkpt lat="4.5767830" lon="-74.2207430">
        <ele>2560.6</ele>
        <time>2018-08-11T15:33:42Z</time>
      </trkpt>
      <trkpt lat="4.5768150" lon="-74.2207680">
        <ele>2560.6</ele>
        <time>2018-08-11T15:33:43Z</time>
      </trkpt>
      <trkpt lat="4.5768500" lon="-74.2208020">
        <ele>2560.7</ele>
        <time>2018-08-11T15:33:44Z</time>
      </trkpt>
      <trkpt lat="4.5768880" lon="-74.2208280">
        <ele>2560.7</ele>
        <time>2018-08-11T15:33:45Z</time>
      </trkpt>
      <trkpt lat="4.5769280" lon="-74.2208530">
        <ele>2560.7</ele>
        <time>2018-08-11T15:33:46Z</time>
      </trkpt>
      <trkpt lat="4.5769600" lon="-74.2208750">
        <ele>2560.7</ele>
        <time>2018-08-11T15:33:47Z</time>
      </trkpt>
      <trkpt lat="4.5769970" lon="-74.2208950">
        <ele>2560.7</ele>
        <time>2018-08-11T15:33:49Z</time>
      </trkpt>
      <trkpt lat="4.5770420" lon="-74.2209670">
        <ele>2560.7</ele>
        <time>2018-08-11T15:35:34Z</time>
      </trkpt>
      <trkpt lat="4.5769400" lon="-74.2211600">
        <ele>2560.8</ele>
        <time>2018-08-11T15:37:35Z</time>
      </trkpt>
      <trkpt lat="4.5769580" lon="-74.2211180">
        <ele>2560.8</ele>
        <time>2018-08-11T15:37:37Z</time>
      </trkpt>
      <trkpt lat="4.5769800" lon="-74.2210300">
        <ele>2560.8</ele>
        <time>2018-08-11T15:38:10Z</time>
      </trkpt>
      <trkpt lat="4.5770100" lon="-74.2209780">
        <ele>2560.8</ele>
        <time>2018-08-11T15:38:44Z</time>
      </trkpt>
      <trkpt lat="4.5770420" lon="-74.2209770">
        <ele>2560.8</ele>
        <time>2018-08-11T15:39:14Z</time>
      </trkpt>
      <trkpt lat="4.5770750" lon="-74.2210050">
        <ele>2560.9</ele>
        <time>2018-08-11T15:40:17Z</time>
      </trkpt>
      <trkpt lat="4.5771150" lon="-74.2210070">
        <ele>2560.9</ele>
        <time>2018-08-11T15:40:20Z</time>
      </trkpt>
      <trkpt lat="4.5771450" lon="-74.2210100">
        <ele>2560.9</ele>
        <time>2018-08-11T15:40:22Z</time>
      </trkpt>
      <trkpt lat="4.5771930" lon="-74.2210200">
        <ele>2560.9</ele>
        <time>2018-08-11T15:40:25Z</time>
      </trkpt>
      <trkpt lat="4.5772230" lon="-74.2210180">
        <ele>2560.9</ele>
        <time>2018-08-11T15:40:28Z</time>
      </trkpt>
      <trkpt lat="4.5772570" lon="-74.2210230">
        <ele>2560.9</ele>
        <time>2018-08-11T15:40:30Z</time>
      </trkpt>
      <trkpt lat="4.5772900" lon="-74.2210330">
        <ele>2560.9</ele>
        <time>2018-08-11T15:40:32Z</time>
      </trkpt>
      <trkpt lat="4.5773230" lon="-74.2210450">
        <ele>2560.9</ele>
        <time>2018-08-11T15:40:34Z</time>
      </trkpt>
      <trkpt lat="4.5773450" lon="-74.2210650">
        <ele>2561.0</ele>
        <time>2018-08-11T15:40:36Z</time>
      </trkpt>
      <trkpt lat="4.5773730" lon="-74.2210830">
        <ele>2561.0</ele>
        <time>2018-08-11T15:40:51Z</time>
      </trkpt>
      <trkpt lat="4.5773780" lon="-74.2211120">
        <ele>2561.0</ele>
        <time>2018-08-11T15:41:11Z</time>
      </trkpt>
      <trkpt lat="4.5773600" lon="-74.2211370">
        <ele>2561.0</ele>
        <time>2018-08-11T15:41:16Z</time>
      </trkpt>
      <trkpt lat="4.5773580" lon="-74.2211750">
        <ele>2561.0</ele>
        <time>2018-08-11T15:41:18Z</time>
      </trkpt>
      <trkpt lat="4.5773680" lon="-74.2212070">
        <ele>2561.0</ele>
        <time>2018-08-11T15:41:20Z</time>
      </trkpt>
      <trkpt lat="4.5773950" lon="-74.2212120">
        <ele>2561.0</ele>
        <time>2018-08-11T15:41:22Z</time>
      </trkpt>
      <trkpt lat="4.5774220" lon="-74.2212070">
        <ele>2561.0</ele>
        <time>2018-08-11T15:41:24Z</time>
      </trkpt>
      <trkpt lat="4.5774520" lon="-74.2211920">
        <ele>2561.3</ele>
        <time>2018-08-11T15:41:27Z</time>
      </trkpt>
      <trkpt lat="4.5774820" lon="-74.2212070">
        <ele>2561.4</ele>
        <time>2018-08-11T15:41:33Z</time>
      </trkpt>
      <trkpt lat="4.5775050" lon="-74.2212300">
        <ele>2561.3</ele>
        <time>2018-08-11T15:41:34Z</time>
      </trkpt>
      <trkpt lat="4.5775250" lon="-74.2212580">
        <ele>2561.2</ele>
        <time>2018-08-11T15:41:35Z</time>
      </trkpt>
      <trkpt lat="4.5775380" lon="-74.2213020">
        <ele>2561.0</ele>
        <time>2018-08-11T15:41:37Z</time>
      </trkpt>
      <trkpt lat="4.5775170" lon="-74.2213530">
        <ele>2561.0</ele>
        <time>2018-08-11T15:41:39Z</time>
      </trkpt>
      <trkpt lat="4.5774980" lon="-74.2213800">
        <ele>2561.0</ele>
        <time>2018-08-11T15:41:40Z</time>
      </trkpt>
      <trkpt lat="4.5774780" lon="-74.2214070">
        <ele>2561.0</ele>
        <time>2018-08-11T15:41:41Z</time>
      </trkpt>
      <trkpt lat="4.5774580" lon="-74.2214330">
        <ele>2561.0</ele>
        <time>2018-08-11T15:41:42Z</time>
      </trkpt>
      <trkpt lat="4.5774400" lon="-74.2214620">
        <ele>2561.0</ele>
        <time>2018-08-11T15:41:43Z</time>
      </trkpt>
      <trkpt lat="4.5774230" lon="-74.2214900">
        <ele>2561.0</ele>
        <time>2018-08-11T15:41:44Z</time>
      </trkpt>
      <trkpt lat="4.5774050" lon="-74.2215170">
        <ele>2561.1</ele>
        <time>2018-08-11T15:41:45Z</time>
      </trkpt>
      <trkpt lat="4.5773870" lon="-74.2215430">
        <ele>2561.1</ele>
        <time>2018-08-11T15:41:46Z</time>
      </trkpt>
      <trkpt lat="4.5773700" lon="-74.2215700">
        <ele>2561.1</ele>
        <time>2018-08-11T15:41:47Z</time>
      </trkpt>
      <trkpt lat="4.5773550" lon="-74.2215980">
        <ele>2561.2</ele>
        <time>2018-08-11T15:41:48Z</time>
      </trkpt>
      <trkpt lat="4.5773420" lon="-74.2216250">
        <ele>2561.2</ele>
        <time>2018-08-11T15:41:49Z</time>
      </trkpt>
      <trkpt lat="4.5773270" lon="-74.2216550">
        <ele>2561.2</ele>
        <time>2018-08-11T15:41:50Z</time>
      </trkpt>
      <trkpt lat="4.5773080" lon="-74.2216830">
        <ele>2561.3</ele>
        <time>2018-08-11T15:41:51Z</time>
      </trkpt>
      <trkpt lat="4.5772920" lon="-74.2217100">
        <ele>2561.3</ele>
        <time>2018-08-11T15:41:52Z</time>
      </trkpt>
      <trkpt lat="4.5772770" lon="-74.2217350">
        <ele>2561.3</ele>
        <time>2018-08-11T15:41:53Z</time>
      </trkpt>
      <trkpt lat="4.5772630" lon="-74.2217650">
        <ele>2561.4</ele>
        <time>2018-08-11T15:41:54Z</time>
      </trkpt>
      <trkpt lat="4.5772500" lon="-74.2217920">
        <ele>2561.4</ele>
        <time>2018-08-11T15:41:55Z</time>
      </trkpt>
      <trkpt lat="4.5772270" lon="-74.2218330">
        <ele>2561.5</ele>
        <time>2018-08-11T15:41:57Z</time>
      </trkpt>
      <trkpt lat="4.5772030" lon="-74.2218650">
        <ele>2561.5</ele>
        <time>2018-08-11T15:41:59Z</time>
      </trkpt>
      <trkpt lat="4.5771780" lon="-74.2219000">
        <ele>2561.6</ele>
        <time>2018-08-11T15:42:01Z</time>
      </trkpt>
      <trkpt lat="4.5771550" lon="-74.2219380">
        <ele>2561.6</ele>
        <time>2018-08-11T15:42:03Z</time>
      </trkpt>
      <trkpt lat="4.5771270" lon="-74.2219880">
        <ele>2561.7</ele>
        <time>2018-08-11T15:42:05Z</time>
      </trkpt>
      <trkpt lat="4.5771080" lon="-74.2220170">
        <ele>2561.7</ele>
        <time>2018-08-11T15:42:06Z</time>
      </trkpt>
      <trkpt lat="4.5770900" lon="-74.2220470">
        <ele>2561.7</ele>
        <time>2018-08-11T15:42:07Z</time>
      </trkpt>
      <trkpt lat="4.5770770" lon="-74.2220780">
        <ele>2561.8</ele>
        <time>2018-08-11T15:42:08Z</time>
      </trkpt>
      <trkpt lat="4.5770600" lon="-74.2221070">
        <ele>2561.8</ele>
        <time>2018-08-11T15:42:09Z</time>
      </trkpt>
      <trkpt lat="4.5770400" lon="-74.2221350">
        <ele>2561.8</ele>
        <time>2018-08-11T15:42:10Z</time>
      </trkpt>
      <trkpt lat="4.5770270" lon="-74.2221650">
        <ele>2561.9</ele>
        <time>2018-08-11T15:42:11Z</time>
      </trkpt>
      <trkpt lat="4.5770070" lon="-74.2221880">
        <ele>2561.9</ele>
        <time>2018-08-11T15:42:12Z</time>
      </trkpt>
      <trkpt lat="4.5769880" lon="-74.2222100">
        <ele>2561.9</ele>
        <time>2018-08-11T15:42:13Z</time>
      </trkpt>
      <trkpt lat="4.5769720" lon="-74.2222330">
        <ele>2562.0</ele>
        <time>2018-08-11T15:42:14Z</time>
      </trkpt>
      <trkpt lat="4.5769530" lon="-74.2222600">
        <ele>2562.0</ele>
        <time>2018-08-11T15:42:15Z</time>
      </trkpt>
      <trkpt lat="4.5769350" lon="-74.2222850">
        <ele>2562.0</ele>
        <time>2018-08-11T15:42:16Z</time>
      </trkpt>
      <trkpt lat="4.5769270" lon="-74.2223250">
        <ele>2562.1</ele>
        <time>2018-08-11T15:42:17Z</time>
      </trkpt>
      <trkpt lat="4.5769200" lon="-74.2223620">
        <ele>2562.1</ele>
        <time>2018-08-11T15:42:18Z</time>
      </trkpt>
      <trkpt lat="4.5769000" lon="-74.2223970">
        <ele>2562.2</ele>
        <time>2018-08-11T15:42:19Z</time>
      </trkpt>
      <trkpt lat="4.5768880" lon="-74.2224380">
        <ele>2562.3</ele>
        <time>2018-08-11T15:42:20Z</time>
      </trkpt>
      <trkpt lat="4.5768730" lon="-74.2224750">
        <ele>2562.4</ele>
        <time>2018-08-11T15:42:21Z</time>
      </trkpt>
      <trkpt lat="4.5768570" lon="-74.2225100">
        <ele>2562.5</ele>
        <time>2018-08-11T15:42:22Z</time>
      </trkpt>
      <trkpt lat="4.5768380" lon="-74.2225420">
        <ele>2562.6</ele>
        <time>2018-08-11T15:42:23Z</time>
      </trkpt>
      <trkpt lat="4.5768220" lon="-74.2225720">
        <ele>2562.6</ele>
        <time>2018-08-11T15:42:24Z</time>
      </trkpt>
      <trkpt lat="4.5768030" lon="-74.2226030">
        <ele>2562.7</ele>
        <time>2018-08-11T15:42:25Z</time>
      </trkpt>
      <trkpt lat="4.5767800" lon="-74.2226350">
        <ele>2562.7</ele>
        <time>2018-08-11T15:42:26Z</time>
      </trkpt>
      <trkpt lat="4.5767580" lon="-74.2226680">
        <ele>2562.8</ele>
        <time>2018-08-11T15:42:27Z</time>
      </trkpt>
      <trkpt lat="4.5767370" lon="-74.2226980">
        <ele>2562.9</ele>
        <time>2018-08-11T15:42:28Z</time>
      </trkpt>
      <trkpt lat="4.5767180" lon="-74.2227320">
        <ele>2562.9</ele>
        <time>2018-08-11T15:42:29Z</time>
      </trkpt>
      <trkpt lat="4.5767000" lon="-74.2227670">
        <ele>2563.0</ele>
        <time>2018-08-11T15:42:30Z</time>
      </trkpt>
      <trkpt lat="4.5766820" lon="-74.2227980">
        <ele>2563.1</ele>
        <time>2018-08-11T15:42:31Z</time>
      </trkpt>
      <trkpt lat="4.5766600" lon="-74.2228280">
        <ele>2563.1</ele>
        <time>2018-08-11T15:42:32Z</time>
      </trkpt>
      <trkpt lat="4.5766420" lon="-74.2228600">
        <ele>2563.2</ele>
        <time>2018-08-11T15:42:33Z</time>
      </trkpt>
      <trkpt lat="4.5766250" lon="-74.2228900">
        <ele>2563.3</ele>
        <time>2018-08-11T15:42:34Z</time>
      </trkpt>
      <trkpt lat="4.5766080" lon="-74.2229220">
        <ele>2563.3</ele>
        <time>2018-08-11T15:42:35Z</time>
      </trkpt>
      <trkpt lat="4.5765950" lon="-74.2229480">
        <ele>2563.4</ele>
        <time>2018-08-11T15:42:36Z</time>
      </trkpt>
      <trkpt lat="4.5765820" lon="-74.2229780">
        <ele>2563.5</ele>
        <time>2018-08-11T15:42:37Z</time>
      </trkpt>
      <trkpt lat="4.5765680" lon="-74.2230080">
        <ele>2563.5</ele>
        <time>2018-08-11T15:42:38Z</time>
      </trkpt>
      <trkpt lat="4.5765530" lon="-74.2230350">
        <ele>2563.6</ele>
        <time>2018-08-11T15:42:39Z</time>
      </trkpt>
      <trkpt lat="4.5765380" lon="-74.2230620">
        <ele>2563.7</ele>
        <time>2018-08-11T15:42:40Z</time>
      </trkpt>
      <trkpt lat="4.5765220" lon="-74.2230880">
        <ele>2563.7</ele>
        <time>2018-08-11T15:42:41Z</time>
      </trkpt>
      <trkpt lat="4.5765020" lon="-74.2231150">
        <ele>2563.8</ele>
        <time>2018-08-11T15:42:42Z</time>
      </trkpt>
      <trkpt lat="4.5764830" lon="-74.2231400">
        <ele>2563.9</ele>
        <time>2018-08-11T15:42:43Z</time>
      </trkpt>
      <trkpt lat="4.5764620" lon="-74.2231620">
        <ele>2563.9</ele>
        <time>2018-08-11T15:42:44Z</time>
      </trkpt>
      <trkpt lat="4.5764430" lon="-74.2231880">
        <ele>2564.0</ele>
        <time>2018-08-11T15:42:45Z</time>
      </trkpt>
      <trkpt lat="4.5764230" lon="-74.2232120">
        <ele>2563.9</ele>
        <time>2018-08-11T15:42:46Z</time>
      </trkpt>
      <trkpt lat="4.5764030" lon="-74.2232380">
        <ele>2563.8</ele>
        <time>2018-08-11T15:42:47Z</time>
      </trkpt>
      <trkpt lat="4.5763830" lon="-74.2232630">
        <ele>2563.7</ele>
        <time>2018-08-11T15:42:48Z</time>
      </trkpt>
      <trkpt lat="4.5763650" lon="-74.2232880">
        <ele>2563.5</ele>
        <time>2018-08-11T15:42:49Z</time>
      </trkpt>
      <trkpt lat="4.5763420" lon="-74.2233120">
        <ele>2563.4</ele>
        <time>2018-08-11T15:42:50Z</time>
      </trkpt>
      <trkpt lat="4.5763180" lon="-74.2233330">
        <ele>2563.3</ele>
        <time>2018-08-11T15:42:51Z</time>
      </trkpt>
      <trkpt lat="4.5762920" lon="-74.2233550">
        <ele>2563.2</ele>
        <time>2018-08-11T15:42:52Z</time>
      </trkpt>
      <trkpt lat="4.5762700" lon="-74.2233820">
        <ele>2563.2</ele>
        <time>2018-08-11T15:42:53Z</time>
      </trkpt>
      <trkpt lat="4.5762450" lon="-74.2234030">
        <ele>2563.2</ele>
        <time>2018-08-11T15:42:54Z</time>
      </trkpt>
      <trkpt lat="4.5762200" lon="-74.2234250">
        <ele>2563.4</ele>
        <time>2018-08-11T15:42:55Z</time>
      </trkpt>
      <trkpt lat="4.5761970" lon="-74.2234450">
        <ele>2563.5</ele>
        <time>2018-08-11T15:42:56Z</time>
      </trkpt>
      <trkpt lat="4.5761820" lon="-74.2234730">
        <ele>2563.7</ele>
        <time>2018-08-11T15:42:57Z</time>
      </trkpt>
      <trkpt lat="4.5761630" lon="-74.2235000">
        <ele>2563.9</ele>
        <time>2018-08-11T15:42:58Z</time>
      </trkpt>
      <trkpt lat="4.5761480" lon="-74.2235250">
        <ele>2564.0</ele>
        <time>2018-08-11T15:42:59Z</time>
      </trkpt>
      <trkpt lat="4.5761250" lon="-74.2235470">
        <ele>2564.0</ele>
        <time>2018-08-11T15:43:00Z</time>
      </trkpt>
      <trkpt lat="4.5761000" lon="-74.2235670">
        <ele>2564.4</ele>
        <time>2018-08-11T15:43:01Z</time>
      </trkpt>
      <trkpt lat="4.5760750" lon="-74.2235880">
        <ele>2564.7</ele>
        <time>2018-08-11T15:43:02Z</time>
      </trkpt>
      <trkpt lat="4.5760480" lon="-74.2236120">
        <ele>2565.0</ele>
        <time>2018-08-11T15:43:03Z</time>
      </trkpt>
      <trkpt lat="4.5760220" lon="-74.2236400">
        <ele>2565.4</ele>
        <time>2018-08-11T15:43:04Z</time>
      </trkpt>
      <trkpt lat="4.5760030" lon="-74.2236720">
        <ele>2565.8</ele>
        <time>2018-08-11T15:43:05Z</time>
      </trkpt>
      <trkpt lat="4.5759830" lon="-74.2236980">
        <ele>2566.1</ele>
        <time>2018-08-11T15:43:06Z</time>
      </trkpt>
      <trkpt lat="4.5759600" lon="-74.2237230">
        <ele>2566.4</ele>
        <time>2018-08-11T15:43:07Z</time>
      </trkpt>
      <trkpt lat="4.5759370" lon="-74.2237480">
        <ele>2566.7</ele>
        <time>2018-08-11T15:43:08Z</time>
      </trkpt>
      <trkpt lat="4.5759120" lon="-74.2237780">
        <ele>2567.1</ele>
        <time>2018-08-11T15:43:09Z</time>
      </trkpt>
      <trkpt lat="4.5758930" lon="-74.2238080">
        <ele>2567.5</ele>
        <time>2018-08-11T15:43:10Z</time>
      </trkpt>
      <trkpt lat="4.5758680" lon="-74.2238300">
        <ele>2567.8</ele>
        <time>2018-08-11T15:43:11Z</time>
      </trkpt>
      <trkpt lat="4.5758370" lon="-74.2238520">
        <ele>2568.0</ele>
        <time>2018-08-11T15:43:12Z</time>
      </trkpt>
      <trkpt lat="4.5758120" lon="-74.2238750">
        <ele>2568.0</ele>
        <time>2018-08-11T15:43:13Z</time>
      </trkpt>
      <trkpt lat="4.5757870" lon="-74.2238980">
        <ele>2568.0</ele>
        <time>2018-08-11T15:43:14Z</time>
      </trkpt>
      <trkpt lat="4.5757650" lon="-74.2239200">
        <ele>2568.0</ele>
        <time>2018-08-11T15:43:15Z</time>
      </trkpt>
      <trkpt lat="4.5757400" lon="-74.2239420">
        <ele>2568.0</ele>
        <time>2018-08-11T15:43:16Z</time>
      </trkpt>
      <trkpt lat="4.5757130" lon="-74.2239600">
        <ele>2568.0</ele>
        <time>2018-08-11T15:43:17Z</time>
      </trkpt>
      <trkpt lat="4.5756850" lon="-74.2239800">
        <ele>2567.9</ele>
        <time>2018-08-11T15:43:18Z</time>
      </trkpt>
      <trkpt lat="4.5756570" lon="-74.2239970">
        <ele>2567.9</ele>
        <time>2018-08-11T15:43:19Z</time>
      </trkpt>
      <trkpt lat="4.5756250" lon="-74.2240170">
        <ele>2567.9</ele>
        <time>2018-08-11T15:43:20Z</time>
      </trkpt>
      <trkpt lat="4.5756000" lon="-74.2240400">
        <ele>2567.9</ele>
        <time>2018-08-11T15:43:21Z</time>
      </trkpt>
      <trkpt lat="4.5755730" lon="-74.2240630">
        <ele>2567.9</ele>
        <time>2018-08-11T15:43:22Z</time>
      </trkpt>
      <trkpt lat="4.5755420" lon="-74.2240850">
        <ele>2567.9</ele>
        <time>2018-08-11T15:43:23Z</time>
      </trkpt>
      <trkpt lat="4.5755100" lon="-74.2241030">
        <ele>2567.9</ele>
        <time>2018-08-11T15:43:24Z</time>
      </trkpt>
      <trkpt lat="4.5754820" lon="-74.2241220">
        <ele>2567.9</ele>
        <time>2018-08-11T15:43:25Z</time>
      </trkpt>
      <trkpt lat="4.5754550" lon="-74.2241420">
        <ele>2567.9</ele>
        <time>2018-08-11T15:43:26Z</time>
      </trkpt>
      <trkpt lat="4.5754120" lon="-74.2241750">
        <ele>2567.9</ele>
        <time>2018-08-11T15:43:27Z</time>
      </trkpt>
      <trkpt lat="4.5753720" lon="-74.2242030">
        <ele>2567.8</ele>
        <time>2018-08-11T15:43:28Z</time>
      </trkpt>
      <trkpt lat="4.5753350" lon="-74.2242320">
        <ele>2567.8</ele>
        <time>2018-08-11T15:43:29Z</time>
      </trkpt>
      <trkpt lat="4.5752920" lon="-74.2242630">
        <ele>2567.8</ele>
        <time>2018-08-11T15:43:30Z</time>
      </trkpt>
      <trkpt lat="4.5752400" lon="-74.2242920">
        <ele>2567.8</ele>
        <time>2018-08-11T15:43:31Z</time>
      </trkpt>
      <trkpt lat="4.5751900" lon="-74.2243230">
        <ele>2567.8</ele>
        <time>2018-08-11T15:43:32Z</time>
      </trkpt>
      <trkpt lat="4.5751400" lon="-74.2243470">
        <ele>2567.8</ele>
        <time>2018-08-11T15:43:33Z</time>
      </trkpt>
      <trkpt lat="4.5750930" lon="-74.2243700">
        <ele>2567.8</ele>
        <time>2018-08-11T15:43:34Z</time>
      </trkpt>
      <trkpt lat="4.5750480" lon="-74.2243970">
        <ele>2567.8</ele>
        <time>2018-08-11T15:43:35Z</time>
      </trkpt>
      <trkpt lat="4.5749980" lon="-74.2244230">
        <ele>2567.7</ele>
        <time>2018-08-11T15:43:36Z</time>
      </trkpt>
      <trkpt lat="4.5749450" lon="-74.2244470">
        <ele>2567.7</ele>
        <time>2018-08-11T15:43:37Z</time>
      </trkpt>
      <trkpt lat="4.5748950" lon="-74.2244700">
        <ele>2567.7</ele>
        <time>2018-08-11T15:43:38Z</time>
      </trkpt>
      <trkpt lat="4.5747580" lon="-74.2245430">
        <ele>2567.7</ele>
        <time>2018-08-11T15:43:39Z</time>
      </trkpt>
      <trkpt lat="4.5747130" lon="-74.2245670">
        <ele>2567.7</ele>
        <time>2018-08-11T15:43:40Z</time>
      </trkpt>
      <trkpt lat="4.5746700" lon="-74.2245920">
        <ele>2567.7</ele>
        <time>2018-08-11T15:43:41Z</time>
      </trkpt>
      <trkpt lat="4.5746270" lon="-74.2246170">
        <ele>2567.7</ele>
        <time>2018-08-11T15:43:42Z</time>
      </trkpt>
      <trkpt lat="4.5745830" lon="-74.2246400">
        <ele>2567.7</ele>
        <time>2018-08-11T15:43:43Z</time>
      </trkpt>
      <trkpt lat="4.5745380" lon="-74.2246630">
        <ele>2567.6</ele>
        <time>2018-08-11T15:43:44Z</time>
      </trkpt>
      <trkpt lat="4.5744930" lon="-74.2246900">
        <ele>2567.6</ele>
        <time>2018-08-11T15:43:45Z</time>
      </trkpt>
      <trkpt lat="4.5744500" lon="-74.2247170">
        <ele>2567.6</ele>
        <time>2018-08-11T15:43:46Z</time>
      </trkpt>
      <trkpt lat="4.5744050" lon="-74.2247420">
        <ele>2567.6</ele>
        <time>2018-08-11T15:43:47Z</time>
      </trkpt>
      <trkpt lat="4.5743580" lon="-74.2247630">
        <ele>2567.6</ele>
        <time>2018-08-11T15:43:48Z</time>
      </trkpt>
      <trkpt lat="4.5743170" lon="-74.2247880">
        <ele>2567.6</ele>
        <time>2018-08-11T15:43:49Z</time>
      </trkpt>
      <trkpt lat="4.5742720" lon="-74.2248130">
        <ele>2567.6</ele>
        <time>2018-08-11T15:43:50Z</time>
      </trkpt>
      <trkpt lat="4.5742270" lon="-74.2248400">
        <ele>2567.6</ele>
        <time>2018-08-11T15:43:51Z</time>
      </trkpt>
      <trkpt lat="4.5741800" lon="-74.2248650">
        <ele>2567.6</ele>
        <time>2018-08-11T15:43:52Z</time>
      </trkpt>
      <trkpt lat="4.5741300" lon="-74.2248880">
        <ele>2567.5</ele>
        <time>2018-08-11T15:43:53Z</time>
      </trkpt>
      <trkpt lat="4.5740800" lon="-74.2249120">
        <ele>2567.5</ele>
        <time>2018-08-11T15:43:54Z</time>
      </trkpt>
      <trkpt lat="4.5740520" lon="-74.2249050">
        <ele>2567.5</ele>
        <time>2018-08-11T15:43:55Z</time>
      </trkpt>
      <trkpt lat="4.5739820" lon="-74.2249420">
        <ele>2567.5</ele>
        <time>2018-08-11T15:43:56Z</time>
      </trkpt>
      <trkpt lat="4.5739300" lon="-74.2249720">
        <ele>2567.5</ele>
        <time>2018-08-11T15:43:57Z</time>
      </trkpt>
      <trkpt lat="4.5738780" lon="-74.2250050">
        <ele>2567.5</ele>
        <time>2018-08-11T15:43:58Z</time>
      </trkpt>
      <trkpt lat="4.5738250" lon="-74.2250350">
        <ele>2567.4</ele>
        <time>2018-08-11T15:43:59Z</time>
      </trkpt>
      <trkpt lat="4.5737720" lon="-74.2250680">
        <ele>2567.4</ele>
        <time>2018-08-11T15:44:00Z</time>
      </trkpt>
      <trkpt lat="4.5737170" lon="-74.2251000">
        <ele>2567.4</ele>
        <time>2018-08-11T15:44:01Z</time>
      </trkpt>
      <trkpt lat="4.5736630" lon="-74.2251320">
        <ele>2567.4</ele>
        <time>2018-08-11T15:44:02Z</time>
      </trkpt>
      <trkpt lat="4.5736050" lon="-74.2251620">
        <ele>2567.3</ele>
        <time>2018-08-11T15:44:03Z</time>
      </trkpt>
      <trkpt lat="4.5735480" lon="-74.2251920">
        <ele>2567.3</ele>
        <time>2018-08-11T15:44:04Z</time>
      </trkpt>
      <trkpt lat="4.5734900" lon="-74.2252250">
        <ele>2567.3</ele>
        <time>2018-08-11T15:44:05Z</time>
      </trkpt>
      <trkpt lat="4.5734320" lon="-74.2252570">
        <ele>2567.2</ele>
        <time>2018-08-11T15:44:06Z</time>
      </trkpt>
      <trkpt lat="4.5733780" lon="-74.2252970">
        <ele>2567.2</ele>
        <time>2018-08-11T15:44:07Z</time>
      </trkpt>
      <trkpt lat="4.5733230" lon="-74.2253300">
        <ele>2567.2</ele>
        <time>2018-08-11T15:44:08Z</time>
      </trkpt>
      <trkpt lat="4.5732630" lon="-74.2253630">
        <ele>2567.2</ele>
        <time>2018-08-11T15:44:09Z</time>
      </trkpt>
      <trkpt lat="4.5732000" lon="-74.2253920">
        <ele>2567.1</ele>
        <time>2018-08-11T15:44:10Z</time>
      </trkpt>
      <trkpt lat="4.5731370" lon="-74.2254220">
        <ele>2567.1</ele>
        <time>2018-08-11T15:44:11Z</time>
      </trkpt>
      <trkpt lat="4.5730800" lon="-74.2254500">
        <ele>2567.0</ele>
        <time>2018-08-11T15:44:12Z</time>
      </trkpt>
      <trkpt lat="4.5730300" lon="-74.2254800">
        <ele>2566.9</ele>
        <time>2018-08-11T15:44:13Z</time>
      </trkpt>
      <trkpt lat="4.5729830" lon="-74.2255030">
        <ele>2566.8</ele>
        <time>2018-08-11T15:44:14Z</time>
      </trkpt>
      <trkpt lat="4.5729430" lon="-74.2255250">
        <ele>2566.8</ele>
        <time>2018-08-11T15:44:15Z</time>
      </trkpt>
      <trkpt lat="4.5729070" lon="-74.2255470">
        <ele>2566.7</ele>
        <time>2018-08-11T15:44:16Z</time>
      </trkpt>
      <trkpt lat="4.5728770" lon="-74.2255670">
        <ele>2566.5</ele>
        <time>2018-08-11T15:44:17Z</time>
      </trkpt>
      <trkpt lat="4.5728500" lon="-74.2255800">
        <ele>2566.4</ele>
        <time>2018-08-11T15:44:18Z</time>
      </trkpt>
      <trkpt lat="4.5728230" lon="-74.2255920">
        <ele>2566.3</ele>
        <time>2018-08-11T15:44:19Z</time>
      </trkpt>
      <trkpt lat="4.5727780" lon="-74.2256130">
        <ele>2566.0</ele>
        <time>2018-08-11T15:44:21Z</time>
      </trkpt>
      <trkpt lat="4.5727380" lon="-74.2256380">
        <ele>2565.8</ele>
        <time>2018-08-11T15:44:23Z</time>
      </trkpt>
      <trkpt lat="4.5727050" lon="-74.2256620">
        <ele>2565.6</ele>
        <time>2018-08-11T15:44:25Z</time>
      </trkpt>
      <trkpt lat="4.5726750" lon="-74.2256750">
        <ele>2565.4</ele>
        <time>2018-08-11T15:44:27Z</time>
      </trkpt>
      <trkpt lat="4.5726350" lon="-74.2256870">
        <ele>2565.2</ele>
        <time>2018-08-11T15:44:29Z</time>
      </trkpt>
      <trkpt lat="4.5726030" lon="-74.2256900">
        <ele>2565.1</ele>
        <time>2018-08-11T15:44:30Z</time>
      </trkpt>
      <trkpt lat="4.5725750" lon="-74.2256950">
        <ele>2565.0</ele>
        <time>2018-08-11T15:44:31Z</time>
      </trkpt>
      <trkpt lat="4.5725270" lon="-74.2257100">
        <ele>2564.8</ele>
        <time>2018-08-11T15:44:33Z</time>
      </trkpt>
      <trkpt lat="4.5724970" lon="-74.2257180">
        <ele>2564.8</ele>
        <time>2018-08-11T15:44:34Z</time>
      </trkpt>
      <trkpt lat="4.5724650" lon="-74.2257320">
        <ele>2564.7</ele>
        <time>2018-08-11T15:44:35Z</time>
      </trkpt>
      <trkpt lat="4.5724270" lon="-74.2257400">
        <ele>2564.7</ele>
        <time>2018-08-11T15:44:36Z</time>
      </trkpt>
      <trkpt lat="4.5723920" lon="-74.2257570">
        <ele>2564.6</ele>
        <time>2018-08-11T15:44:37Z</time>
      </trkpt>
      <trkpt lat="4.5723530" lon="-74.2257770">
        <ele>2564.6</ele>
        <time>2018-08-11T15:44:38Z</time>
      </trkpt>
      <trkpt lat="4.5723150" lon="-74.2258000">
        <ele>2564.5</ele>
        <time>2018-08-11T15:44:39Z</time>
      </trkpt>
      <trkpt lat="4.5722700" lon="-74.2258180">
        <ele>2564.4</ele>
        <time>2018-08-11T15:44:40Z</time>
      </trkpt>
      <trkpt lat="4.5722280" lon="-74.2258400">
        <ele>2564.4</ele>
        <time>2018-08-11T15:44:41Z</time>
      </trkpt>
      <trkpt lat="4.5721850" lon="-74.2258650">
        <ele>2564.3</ele>
        <time>2018-08-11T15:44:42Z</time>
      </trkpt>
      <trkpt lat="4.5721470" lon="-74.2258930">
        <ele>2564.2</ele>
        <time>2018-08-11T15:44:43Z</time>
      </trkpt>
      <trkpt lat="4.5721030" lon="-74.2259200">
        <ele>2564.1</ele>
        <time>2018-08-11T15:44:44Z</time>
      </trkpt>
      <trkpt lat="4.5720570" lon="-74.2259450">
        <ele>2564.1</ele>
        <time>2018-08-11T15:44:45Z</time>
      </trkpt>
      <trkpt lat="4.5720080" lon="-74.2259720">
        <ele>2564.0</ele>
        <time>2018-08-11T15:44:46Z</time>
      </trkpt>
      <trkpt lat="4.5719600" lon="-74.2259970">
        <ele>2563.9</ele>
        <time>2018-08-11T15:44:47Z</time>
      </trkpt>
      <trkpt lat="4.5719120" lon="-74.2260180">
        <ele>2563.8</ele>
        <time>2018-08-11T15:44:48Z</time>
      </trkpt>
      <trkpt lat="4.5718650" lon="-74.2260430">
        <ele>2563.8</ele>
        <time>2018-08-11T15:44:49Z</time>
      </trkpt>
      <trkpt lat="4.5718150" lon="-74.2260680">
        <ele>2563.7</ele>
        <time>2018-08-11T15:44:50Z</time>
      </trkpt>
      <trkpt lat="4.5717630" lon="-74.2260920">
        <ele>2563.6</ele>
        <time>2018-08-11T15:44:51Z</time>
      </trkpt>
      <trkpt lat="4.5717100" lon="-74.2261200">
        <ele>2563.4</ele>
        <time>2018-08-11T15:44:52Z</time>
      </trkpt>
      <trkpt lat="4.5716550" lon="-74.2261430">
        <ele>2563.2</ele>
        <time>2018-08-11T15:44:53Z</time>
      </trkpt>
      <trkpt lat="4.5716030" lon="-74.2261680">
        <ele>2562.9</ele>
        <time>2018-08-11T15:44:54Z</time>
      </trkpt>
      <trkpt lat="4.5715480" lon="-74.2261900">
        <ele>2562.7</ele>
        <time>2018-08-11T15:44:55Z</time>
      </trkpt>
      <trkpt lat="4.5714950" lon="-74.2262120">
        <ele>2562.5</ele>
        <time>2018-08-11T15:44:56Z</time>
      </trkpt>
      <trkpt lat="4.5714400" lon="-74.2262350">
        <ele>2562.2</ele>
        <time>2018-08-11T15:44:57Z</time>
      </trkpt>
      <trkpt lat="4.5713750" lon="-74.2262550">
        <ele>2562.1</ele>
        <time>2018-08-11T15:44:58Z</time>
      </trkpt>
      <trkpt lat="4.5713180" lon="-74.2262800">
        <ele>2562.1</ele>
        <time>2018-08-11T15:44:59Z</time>
      </trkpt>
      <trkpt lat="4.5712620" lon="-74.2263000">
        <ele>2562.0</ele>
        <time>2018-08-11T15:45:00Z</time>
      </trkpt>
      <trkpt lat="4.5712050" lon="-74.2263250">
        <ele>2561.9</ele>
        <time>2018-08-11T15:45:01Z</time>
      </trkpt>
      <trkpt lat="4.5711480" lon="-74.2263480">
        <ele>2561.8</ele>
        <time>2018-08-11T15:45:02Z</time>
      </trkpt>
      <trkpt lat="4.5710920" lon="-74.2263730">
        <ele>2561.8</ele>
        <time>2018-08-11T15:45:03Z</time>
      </trkpt>
      <trkpt lat="4.5710320" lon="-74.2263950">
        <ele>2561.7</ele>
        <time>2018-08-11T15:45:04Z</time>
      </trkpt>
      <trkpt lat="4.5709780" lon="-74.2264170">
        <ele>2561.6</ele>
        <time>2018-08-11T15:45:05Z</time>
      </trkpt>
      <trkpt lat="4.5709220" lon="-74.2264420">
        <ele>2561.6</ele>
        <time>2018-08-11T15:45:06Z</time>
      </trkpt>
      <trkpt lat="4.5708630" lon="-74.2264600">
        <ele>2561.5</ele>
        <time>2018-08-11T15:45:07Z</time>
      </trkpt>
      <trkpt lat="4.5708070" lon="-74.2264770">
        <ele>2561.4</ele>
        <time>2018-08-11T15:45:08Z</time>
      </trkpt>
      <trkpt lat="4.5707520" lon="-74.2264950">
        <ele>2561.3</ele>
        <time>2018-08-11T15:45:09Z</time>
      </trkpt>
      <trkpt lat="4.5706970" lon="-74.2265130">
        <ele>2561.3</ele>
        <time>2018-08-11T15:45:10Z</time>
      </trkpt>
      <trkpt lat="4.5706380" lon="-74.2265380">
        <ele>2561.2</ele>
        <time>2018-08-11T15:45:11Z</time>
      </trkpt>
      <trkpt lat="4.5705800" lon="-74.2265600">
        <ele>2561.1</ele>
        <time>2018-08-11T15:45:12Z</time>
      </trkpt>
      <trkpt lat="4.5705230" lon="-74.2265820">
        <ele>2561.1</ele>
        <time>2018-08-11T15:45:13Z</time>
      </trkpt>
      <trkpt lat="4.5704680" lon="-74.2266000">
        <ele>2560.9</ele>
        <time>2018-08-11T15:45:14Z</time>
      </trkpt>
      <trkpt lat="4.5704150" lon="-74.2266250">
        <ele>2560.7</ele>
        <time>2018-08-11T15:45:15Z</time>
      </trkpt>
      <trkpt lat="4.5703570" lon="-74.2266430">
        <ele>2560.4</ele>
        <time>2018-08-11T15:45:16Z</time>
      </trkpt>
      <trkpt lat="4.5702980" lon="-74.2266650">
        <ele>2560.1</ele>
        <time>2018-08-11T15:45:17Z</time>
      </trkpt>
      <trkpt lat="4.5702400" lon="-74.2266900">
        <ele>2559.8</ele>
        <time>2018-08-11T15:45:18Z</time>
      </trkpt>
      <trkpt lat="4.5701830" lon="-74.2267130">
        <ele>2559.6</ele>
        <time>2018-08-11T15:45:19Z</time>
      </trkpt>
      <trkpt lat="4.5701250" lon="-74.2267330">
        <ele>2559.5</ele>
        <time>2018-08-11T15:45:20Z</time>
      </trkpt>
      <trkpt lat="4.5700680" lon="-74.2267550">
        <ele>2559.5</ele>
        <time>2018-08-11T15:45:21Z</time>
      </trkpt>
      <trkpt lat="4.5700120" lon="-74.2267800">
        <ele>2559.4</ele>
        <time>2018-08-11T15:45:22Z</time>
      </trkpt>
      <trkpt lat="4.5699530" lon="-74.2268020">
        <ele>2559.3</ele>
        <time>2018-08-11T15:45:23Z</time>
      </trkpt>
      <trkpt lat="4.5698920" lon="-74.2268250">
        <ele>2559.2</ele>
        <time>2018-08-11T15:45:24Z</time>
      </trkpt>
      <trkpt lat="4.5698280" lon="-74.2268470">
        <ele>2559.1</ele>
        <time>2018-08-11T15:45:25Z</time>
      </trkpt>
      <trkpt lat="4.5697600" lon="-74.2268670">
        <ele>2559.1</ele>
        <time>2018-08-11T15:45:26Z</time>
      </trkpt>
      <trkpt lat="4.5696920" lon="-74.2268880">
        <ele>2559.0</ele>
        <time>2018-08-11T15:45:27Z</time>
      </trkpt>
      <trkpt lat="4.5696280" lon="-74.2269150">
        <ele>2558.9</ele>
        <time>2018-08-11T15:45:28Z</time>
      </trkpt>
      <trkpt lat="4.5695530" lon="-74.2269370">
        <ele>2558.9</ele>
        <time>2018-08-11T15:45:29Z</time>
      </trkpt>
      <trkpt lat="4.5694800" lon="-74.2269570">
        <ele>2558.8</ele>
        <time>2018-08-11T15:45:30Z</time>
      </trkpt>
      <trkpt lat="4.5694130" lon="-74.2269800">
        <ele>2558.7</ele>
        <time>2018-08-11T15:45:31Z</time>
      </trkpt>
      <trkpt lat="4.5693500" lon="-74.2270020">
        <ele>2558.7</ele>
        <time>2018-08-11T15:45:32Z</time>
      </trkpt>
      <trkpt lat="4.5692800" lon="-74.2270250">
        <ele>2558.5</ele>
        <time>2018-08-11T15:45:33Z</time>
      </trkpt>
      <trkpt lat="4.5692100" lon="-74.2270450">
        <ele>2558.2</ele>
        <time>2018-08-11T15:45:34Z</time>
      </trkpt>
      <trkpt lat="4.5691430" lon="-74.2270630">
        <ele>2557.9</ele>
        <time>2018-08-11T15:45:35Z</time>
      </trkpt>
      <trkpt lat="4.5690780" lon="-74.2270880">
        <ele>2557.6</ele>
        <time>2018-08-11T15:45:36Z</time>
      </trkpt>
      <trkpt lat="4.5690080" lon="-74.2271070">
        <ele>2557.2</ele>
        <time>2018-08-11T15:45:37Z</time>
      </trkpt>
      <trkpt lat="4.5689420" lon="-74.2271280">
        <ele>2556.9</ele>
        <time>2018-08-11T15:45:38Z</time>
      </trkpt>
      <trkpt lat="4.5688750" lon="-74.2271520">
        <ele>2556.8</ele>
        <time>2018-08-11T15:45:39Z</time>
      </trkpt>
      <trkpt lat="4.5688130" lon="-74.2271750">
        <ele>2556.7</ele>
        <time>2018-08-11T15:45:40Z</time>
      </trkpt>
      <trkpt lat="4.5687520" lon="-74.2272000">
        <ele>2556.6</ele>
        <time>2018-08-11T15:45:41Z</time>
      </trkpt>
      <trkpt lat="4.5686880" lon="-74.2272230">
        <ele>2556.5</ele>
        <time>2018-08-11T15:45:42Z</time>
      </trkpt>
      <trkpt lat="4.5686300" lon="-74.2272480">
        <ele>2556.4</ele>
        <time>2018-08-11T15:45:43Z</time>
      </trkpt>
      <trkpt lat="4.5685670" lon="-74.2272680">
        <ele>2556.3</ele>
        <time>2018-08-11T15:45:44Z</time>
      </trkpt>
      <trkpt lat="4.5685080" lon="-74.2272930">
        <ele>2556.3</ele>
        <time>2018-08-11T15:45:45Z</time>
      </trkpt>
      <trkpt lat="4.5684500" lon="-74.2273120">
        <ele>2556.3</ele>
        <time>2018-08-11T15:45:46Z</time>
      </trkpt>
      <trkpt lat="4.5683980" lon="-74.2273370">
        <ele>2556.2</ele>
        <time>2018-08-11T15:45:47Z</time>
      </trkpt>
      <trkpt lat="4.5683430" lon="-74.2273580">
        <ele>2556.2</ele>
        <time>2018-08-11T15:45:48Z</time>
      </trkpt>
      <trkpt lat="4.5682870" lon="-74.2273770">
        <ele>2556.1</ele>
        <time>2018-08-11T15:45:49Z</time>
      </trkpt>
      <trkpt lat="4.5682370" lon="-74.2273950">
        <ele>2556.1</ele>
        <time>2018-08-11T15:45:50Z</time>
      </trkpt>
      <trkpt lat="4.5681900" lon="-74.2274120">
        <ele>2556.1</ele>
        <time>2018-08-11T15:45:51Z</time>
      </trkpt>
      <trkpt lat="4.5681500" lon="-74.2274330">
        <ele>2556.0</ele>
        <time>2018-08-11T15:45:52Z</time>
      </trkpt>
      <trkpt lat="4.5681100" lon="-74.2274500">
        <ele>2556.0</ele>
        <time>2018-08-11T15:45:53Z</time>
      </trkpt>
      <trkpt lat="4.5680750" lon="-74.2274680">
        <ele>2555.9</ele>
        <time>2018-08-11T15:45:54Z</time>
      </trkpt>
      <trkpt lat="4.5680450" lon="-74.2274830">
        <ele>2555.7</ele>
        <time>2018-08-11T15:45:55Z</time>
      </trkpt>
      <trkpt lat="4.5680100" lon="-74.2274930">
        <ele>2555.5</ele>
        <time>2018-08-11T15:45:56Z</time>
      </trkpt>
      <trkpt lat="4.5679770" lon="-74.2275050">
        <ele>2555.2</ele>
        <time>2018-08-11T15:45:57Z</time>
      </trkpt>
      <trkpt lat="4.5679420" lon="-74.2275150">
        <ele>2554.9</ele>
        <time>2018-08-11T15:45:58Z</time>
      </trkpt>
      <trkpt lat="4.5679080" lon="-74.2275220">
        <ele>2554.6</ele>
        <time>2018-08-11T15:45:59Z</time>
      </trkpt>
      <trkpt lat="4.5678480" lon="-74.2275200">
        <ele>2554.2</ele>
        <time>2018-08-11T15:46:00Z</time>
      </trkpt>
      <trkpt lat="4.5678230" lon="-74.2275350">
        <ele>2554.0</ele>
        <time>2018-08-11T15:46:01Z</time>
      </trkpt>
      <trkpt lat="4.5677680" lon="-74.2275500">
        <ele>2554.0</ele>
        <time>2018-08-11T15:46:02Z</time>
      </trkpt>
      <trkpt lat="4.5677280" lon="-74.2275630">
        <ele>2554.0</ele>
        <time>2018-08-11T15:46:03Z</time>
      </trkpt>
      <trkpt lat="4.5677070" lon="-74.2275850">
        <ele>2554.0</ele>
        <time>2018-08-11T15:46:04Z</time>
      </trkpt>
      <trkpt lat="4.5676700" lon="-74.2275970">
        <ele>2554.0</ele>
        <time>2018-08-11T15:46:05Z</time>
      </trkpt>
      <trkpt lat="4.5676380" lon="-74.2276180">
        <ele>2554.0</ele>
        <time>2018-08-11T15:46:06Z</time>
      </trkpt>
      <trkpt lat="4.5676050" lon="-74.2276350">
        <ele>2554.0</ele>
        <time>2018-08-11T15:46:07Z</time>
      </trkpt>
      <trkpt lat="4.5675730" lon="-74.2276550">
        <ele>2554.0</ele>
        <time>2018-08-11T15:46:08Z</time>
      </trkpt>
      <trkpt lat="4.5675320" lon="-74.2276670">
        <ele>2554.0</ele>
        <time>2018-08-11T15:46:09Z</time>
      </trkpt>
      <trkpt lat="4.5674900" lon="-74.2276800">
        <ele>2554.0</ele>
        <time>2018-08-11T15:46:10Z</time>
      </trkpt>
      <trkpt lat="4.5674530" lon="-74.2277020">
        <ele>2554.0</ele>
        <time>2018-08-11T15:46:11Z</time>
      </trkpt>
      <trkpt lat="4.5673950" lon="-74.2277120">
        <ele>2554.0</ele>
        <time>2018-08-11T15:46:12Z</time>
      </trkpt>
      <trkpt lat="4.5673420" lon="-74.2277250">
        <ele>2553.9</ele>
        <time>2018-08-11T15:46:13Z</time>
      </trkpt>
      <trkpt lat="4.5672870" lon="-74.2277420">
        <ele>2553.9</ele>
        <time>2018-08-11T15:46:14Z</time>
      </trkpt>
      <trkpt lat="4.5672320" lon="-74.2277580">
        <ele>2553.9</ele>
        <time>2018-08-11T15:46:15Z</time>
      </trkpt>
      <trkpt lat="4.5671730" lon="-74.2277680">
        <ele>2553.9</ele>
        <time>2018-08-11T15:46:16Z</time>
      </trkpt>
      <trkpt lat="4.5671180" lon="-74.2277850">
        <ele>2553.8</ele>
        <time>2018-08-11T15:46:17Z</time>
      </trkpt>
      <trkpt lat="4.5670620" lon="-74.2278020">
        <ele>2553.8</ele>
        <time>2018-08-11T15:46:18Z</time>
      </trkpt>
      <trkpt lat="4.5670030" lon="-74.2278200">
        <ele>2553.8</ele>
        <time>2018-08-11T15:46:19Z</time>
      </trkpt>
      <trkpt lat="4.5669470" lon="-74.2278400">
        <ele>2553.8</ele>
        <time>2018-08-11T15:46:20Z</time>
      </trkpt>
      <trkpt lat="4.5668870" lon="-74.2278580">
        <ele>2553.7</ele>
        <time>2018-08-11T15:46:21Z</time>
      </trkpt>
      <trkpt lat="4.5668280" lon="-74.2278780">
        <ele>2553.6</ele>
        <time>2018-08-11T15:46:22Z</time>
      </trkpt>
      <trkpt lat="4.5667720" lon="-74.2278950">
        <ele>2553.4</ele>
        <time>2018-08-11T15:46:23Z</time>
      </trkpt>
      <trkpt lat="4.5667180" lon="-74.2279130">
        <ele>2553.3</ele>
        <time>2018-08-11T15:46:24Z</time>
      </trkpt>
      <trkpt lat="4.5666630" lon="-74.2279350">
        <ele>2553.2</ele>
        <time>2018-08-11T15:46:25Z</time>
      </trkpt>
      <trkpt lat="4.5666080" lon="-74.2279530">
        <ele>2553.1</ele>
        <time>2018-08-11T15:46:26Z</time>
      </trkpt>
      <trkpt lat="4.5665520" lon="-74.2279720">
        <ele>2553.0</ele>
        <time>2018-08-11T15:46:27Z</time>
      </trkpt>
      <trkpt lat="4.5664930" lon="-74.2279880">
        <ele>2553.0</ele>
        <time>2018-08-11T15:46:28Z</time>
      </trkpt>
      <trkpt lat="4.5664400" lon="-74.2280050">
        <ele>2553.0</ele>
        <time>2018-08-11T15:46:29Z</time>
      </trkpt>
      <trkpt lat="4.5663880" lon="-74.2280250">
        <ele>2553.0</ele>
        <time>2018-08-11T15:46:30Z</time>
      </trkpt>
      <trkpt lat="4.5663420" lon="-74.2280420">
        <ele>2553.0</ele>
        <time>2018-08-11T15:46:31Z</time>
      </trkpt>
      <trkpt lat="4.5662980" lon="-74.2280530">
        <ele>2553.0</ele>
        <time>2018-08-11T15:46:32Z</time>
      </trkpt>
      <trkpt lat="4.5662550" lon="-74.2280680">
        <ele>2553.0</ele>
        <time>2018-08-11T15:46:33Z</time>
      </trkpt>
      <trkpt lat="4.5662030" lon="-74.2280780">
        <ele>2553.0</ele>
        <time>2018-08-11T15:46:34Z</time>
      </trkpt>
      <trkpt lat="4.5661530" lon="-74.2280900">
        <ele>2553.0</ele>
        <time>2018-08-11T15:46:35Z</time>
      </trkpt>
      <trkpt lat="4.5661250" lon="-74.2281170">
        <ele>2553.0</ele>
        <time>2018-08-11T15:46:36Z</time>
      </trkpt>
      <trkpt lat="4.5660880" lon="-74.2281270">
        <ele>2553.0</ele>
        <time>2018-08-11T15:46:37Z</time>
      </trkpt>
      <trkpt lat="4.5660600" lon="-74.2281350">
        <ele>2553.0</ele>
        <time>2018-08-11T15:46:38Z</time>
      </trkpt>
      <trkpt lat="4.5660120" lon="-74.2281530">
        <ele>2553.0</ele>
        <time>2018-08-11T15:46:40Z</time>
      </trkpt>
      <trkpt lat="4.5659850" lon="-74.2281600">
        <ele>2553.0</ele>
        <time>2018-08-11T15:46:41Z</time>
      </trkpt>
      <trkpt lat="4.5659400" lon="-74.2281730">
        <ele>2553.0</ele>
        <time>2018-08-11T15:46:43Z</time>
      </trkpt>
      <trkpt lat="4.5659100" lon="-74.2281820">
        <ele>2553.0</ele>
        <time>2018-08-11T15:46:44Z</time>
      </trkpt>
      <trkpt lat="4.5658780" lon="-74.2281880">
        <ele>2553.0</ele>
        <time>2018-08-11T15:46:45Z</time>
      </trkpt>
      <trkpt lat="4.5658450" lon="-74.2281980">
        <ele>2553.0</ele>
        <time>2018-08-11T15:46:46Z</time>
      </trkpt>
      <trkpt lat="4.5658080" lon="-74.2282100">
        <ele>2553.1</ele>
        <time>2018-08-11T15:46:47Z</time>
      </trkpt>
      <trkpt lat="4.5657680" lon="-74.2282220">
        <ele>2553.1</ele>
        <time>2018-08-11T15:46:48Z</time>
      </trkpt>
      <trkpt lat="4.5657320" lon="-74.2282370">
        <ele>2553.1</ele>
        <time>2018-08-11T15:46:49Z</time>
      </trkpt>
      <trkpt lat="4.5656830" lon="-74.2282470">
        <ele>2553.1</ele>
        <time>2018-08-11T15:46:50Z</time>
      </trkpt>
      <trkpt lat="4.5656370" lon="-74.2282600">
        <ele>2553.1</ele>
        <time>2018-08-11T15:46:51Z</time>
      </trkpt>
      <trkpt lat="4.5655880" lon="-74.2282750">
        <ele>2553.1</ele>
        <time>2018-08-11T15:46:52Z</time>
      </trkpt>
      <trkpt lat="4.5655370" lon="-74.2282950">
        <ele>2553.2</ele>
        <time>2018-08-11T15:46:53Z</time>
      </trkpt>
      <trkpt lat="4.5654820" lon="-74.2283130">
        <ele>2553.2</ele>
        <time>2018-08-11T15:46:54Z</time>
      </trkpt>
      <trkpt lat="4.5654280" lon="-74.2283300">
        <ele>2553.2</ele>
        <time>2018-08-11T15:46:55Z</time>
      </trkpt>
      <trkpt lat="4.5653750" lon="-74.2283470">
        <ele>2553.2</ele>
        <time>2018-08-11T15:46:56Z</time>
      </trkpt>
      <trkpt lat="4.5653200" lon="-74.2283620">
        <ele>2553.2</ele>
        <time>2018-08-11T15:46:57Z</time>
      </trkpt>
      <trkpt lat="4.5652630" lon="-74.2283750">
        <ele>2553.2</ele>
        <time>2018-08-11T15:46:58Z</time>
      </trkpt>
      <trkpt lat="4.5652100" lon="-74.2283930">
        <ele>2553.3</ele>
        <time>2018-08-11T15:46:59Z</time>
      </trkpt>
      <trkpt lat="4.5651570" lon="-74.2284120">
        <ele>2553.3</ele>
        <time>2018-08-11T15:47:00Z</time>
      </trkpt>
      <trkpt lat="4.5650970" lon="-74.2284300">
        <ele>2553.3</ele>
        <time>2018-08-11T15:47:01Z</time>
      </trkpt>
      <trkpt lat="4.5650250" lon="-74.2284530">
        <ele>2553.3</ele>
        <time>2018-08-11T15:47:02Z</time>
      </trkpt>
      <trkpt lat="4.5649670" lon="-74.2284780">
        <ele>2553.3</ele>
        <time>2018-08-11T15:47:03Z</time>
      </trkpt>
      <trkpt lat="4.5649050" lon="-74.2284930">
        <ele>2553.3</ele>
        <time>2018-08-11T15:47:04Z</time>
      </trkpt>
      <trkpt lat="4.5648370" lon="-74.2285050">
        <ele>2553.4</ele>
        <time>2018-08-11T15:47:05Z</time>
      </trkpt>
      <trkpt lat="4.5647750" lon="-74.2285180">
        <ele>2553.4</ele>
        <time>2018-08-11T15:47:06Z</time>
      </trkpt>
      <trkpt lat="4.5647120" lon="-74.2285300">
        <ele>2553.4</ele>
        <time>2018-08-11T15:47:07Z</time>
      </trkpt>
      <trkpt lat="4.5646530" lon="-74.2285450">
        <ele>2553.4</ele>
        <time>2018-08-11T15:47:08Z</time>
      </trkpt>
      <trkpt lat="4.5645980" lon="-74.2285620">
        <ele>2553.4</ele>
        <time>2018-08-11T15:47:09Z</time>
      </trkpt>
      <trkpt lat="4.5645470" lon="-74.2285770">
        <ele>2553.5</ele>
        <time>2018-08-11T15:47:10Z</time>
      </trkpt>
      <trkpt lat="4.5644950" lon="-74.2285930">
        <ele>2553.5</ele>
        <time>2018-08-11T15:47:11Z</time>
      </trkpt>
      <trkpt lat="4.5644400" lon="-74.2286070">
        <ele>2553.5</ele>
        <time>2018-08-11T15:47:12Z</time>
      </trkpt>
      <trkpt lat="4.5643870" lon="-74.2286200">
        <ele>2553.6</ele>
        <time>2018-08-11T15:47:13Z</time>
      </trkpt>
      <trkpt lat="4.5643320" lon="-74.2286350">
        <ele>2553.6</ele>
        <time>2018-08-11T15:47:14Z</time>
      </trkpt>
      <trkpt lat="4.5642770" lon="-74.2286470">
        <ele>2553.6</ele>
        <time>2018-08-11T15:47:15Z</time>
      </trkpt>
      <trkpt lat="4.5642200" lon="-74.2286550">
        <ele>2553.6</ele>
        <time>2018-08-11T15:47:16Z</time>
      </trkpt>
      <trkpt lat="4.5641720" lon="-74.2286770">
        <ele>2553.6</ele>
        <time>2018-08-11T15:47:17Z</time>
      </trkpt>
      <trkpt lat="4.5641200" lon="-74.2286930">
        <ele>2553.7</ele>
        <time>2018-08-11T15:47:18Z</time>
      </trkpt>
      <trkpt lat="4.5640720" lon="-74.2287150">
        <ele>2553.7</ele>
        <time>2018-08-11T15:47:19Z</time>
      </trkpt>
      <trkpt lat="4.5640200" lon="-74.2287350">
        <ele>2553.7</ele>
        <time>2018-08-11T15:47:20Z</time>
      </trkpt>
      <trkpt lat="4.5639670" lon="-74.2287530">
        <ele>2553.7</ele>
        <time>2018-08-11T15:47:21Z</time>
      </trkpt>
      <trkpt lat="4.5639170" lon="-74.2287770">
        <ele>2553.7</ele>
        <time>2018-08-11T15:47:22Z</time>
      </trkpt>
      <trkpt lat="4.5638720" lon="-74.2287970">
        <ele>2553.8</ele>
        <time>2018-08-11T15:47:23Z</time>
      </trkpt>
      <trkpt lat="4.5638250" lon="-74.2288170">
        <ele>2553.8</ele>
        <time>2018-08-11T15:47:24Z</time>
      </trkpt>
      <trkpt lat="4.5637750" lon="-74.2288370">
        <ele>2553.8</ele>
        <time>2018-08-11T15:47:25Z</time>
      </trkpt>
      <trkpt lat="4.5637300" lon="-74.2288620">
        <ele>2553.8</ele>
        <time>2018-08-11T15:47:26Z</time>
      </trkpt>
      <trkpt lat="4.5636870" lon="-74.2288870">
        <ele>2553.9</ele>
        <time>2018-08-11T15:47:27Z</time>
      </trkpt>
      <trkpt lat="4.5636470" lon="-74.2289120">
        <ele>2553.9</ele>
        <time>2018-08-11T15:47:28Z</time>
      </trkpt>
      <trkpt lat="4.5636050" lon="-74.2289330">
        <ele>2553.9</ele>
        <time>2018-08-11T15:47:29Z</time>
      </trkpt>
      <trkpt lat="4.5635650" lon="-74.2289580">
        <ele>2553.9</ele>
        <time>2018-08-11T15:47:30Z</time>
      </trkpt>
      <trkpt lat="4.5635250" lon="-74.2289820">
        <ele>2553.9</ele>
        <time>2018-08-11T15:47:31Z</time>
      </trkpt>
      <trkpt lat="4.5634830" lon="-74.2290050">
        <ele>2554.0</ele>
        <time>2018-08-11T15:47:32Z</time>
      </trkpt>
      <trkpt lat="4.5634450" lon="-74.2290300">
        <ele>2554.0</ele>
        <time>2018-08-11T15:47:33Z</time>
      </trkpt>
      <trkpt lat="4.5634030" lon="-74.2290570">
        <ele>2554.0</ele>
        <time>2018-08-11T15:47:34Z</time>
      </trkpt>
      <trkpt lat="4.5633620" lon="-74.2290950">
        <ele>2553.8</ele>
        <time>2018-08-11T15:47:35Z</time>
      </trkpt>
      <trkpt lat="4.5633420" lon="-74.2291500">
        <ele>2553.7</ele>
        <time>2018-08-11T15:47:36Z</time>
      </trkpt>
      <trkpt lat="4.5633000" lon="-74.2291820">
        <ele>2553.5</ele>
        <time>2018-08-11T15:47:37Z</time>
      </trkpt>
      <trkpt lat="4.5632570" lon="-74.2292120">
        <ele>2553.4</ele>
        <time>2018-08-11T15:47:38Z</time>
      </trkpt>
      <trkpt lat="4.5632070" lon="-74.2292370">
        <ele>2553.2</ele>
        <time>2018-08-11T15:47:39Z</time>
      </trkpt>
      <trkpt lat="4.5631630" lon="-74.2292700">
        <ele>2553.1</ele>
        <time>2018-08-11T15:47:40Z</time>
      </trkpt>
      <trkpt lat="4.5631200" lon="-74.2293030">
        <ele>2553.0</ele>
        <time>2018-08-11T15:47:41Z</time>
      </trkpt>
      <trkpt lat="4.5630730" lon="-74.2293330">
        <ele>2552.8</ele>
        <time>2018-08-11T15:47:42Z</time>
      </trkpt>
      <trkpt lat="4.5630300" lon="-74.2293680">
        <ele>2552.7</ele>
        <time>2018-08-11T15:47:43Z</time>
      </trkpt>
      <trkpt lat="4.5629900" lon="-74.2294020">
        <ele>2552.6</ele>
        <time>2018-08-11T15:47:44Z</time>
      </trkpt>
      <trkpt lat="4.5629500" lon="-74.2294370">
        <ele>2552.4</ele>
        <time>2018-08-11T15:47:45Z</time>
      </trkpt>
      <trkpt lat="4.5629080" lon="-74.2294700">
        <ele>2552.3</ele>
        <time>2018-08-11T15:47:46Z</time>
      </trkpt>
      <trkpt lat="4.5628670" lon="-74.2295020">
        <ele>2552.2</ele>
        <time>2018-08-11T15:47:47Z</time>
      </trkpt>
      <trkpt lat="4.5628250" lon="-74.2295350">
        <ele>2552.1</ele>
        <time>2018-08-11T15:47:48Z</time>
      </trkpt>
      <trkpt lat="4.5627820" lon="-74.2295700">
        <ele>2552.1</ele>
        <time>2018-08-11T15:47:49Z</time>
      </trkpt>
      <trkpt lat="4.5627380" lon="-74.2296070">
        <ele>2552.2</ele>
        <time>2018-08-11T15:47:50Z</time>
      </trkpt>
      <trkpt lat="4.5626930" lon="-74.2296450">
        <ele>2552.4</ele>
        <time>2018-08-11T15:47:51Z</time>
      </trkpt>
      <trkpt lat="4.5626500" lon="-74.2296800">
        <ele>2552.6</ele>
        <time>2018-08-11T15:47:52Z</time>
      </trkpt>
      <trkpt lat="4.5626050" lon="-74.2297150">
        <ele>2552.7</ele>
        <time>2018-08-11T15:47:53Z</time>
      </trkpt>
      <trkpt lat="4.5625650" lon="-74.2297500">
        <ele>2552.9</ele>
        <time>2018-08-11T15:47:54Z</time>
      </trkpt>
      <trkpt lat="4.5625220" lon="-74.2297850">
        <ele>2553.0</ele>
        <time>2018-08-11T15:47:55Z</time>
      </trkpt>
      <trkpt lat="4.5624780" lon="-74.2298180">
        <ele>2553.1</ele>
        <time>2018-08-11T15:47:56Z</time>
      </trkpt>
      <trkpt lat="4.5624320" lon="-74.2298520">
        <ele>2553.2</ele>
        <time>2018-08-11T15:47:57Z</time>
      </trkpt>
      <trkpt lat="4.5623870" lon="-74.2298870">
        <ele>2553.4</ele>
        <time>2018-08-11T15:47:58Z</time>
      </trkpt>
      <trkpt lat="4.5623420" lon="-74.2299270">
        <ele>2553.5</ele>
        <time>2018-08-11T15:47:59Z</time>
      </trkpt>
      <trkpt lat="4.5622970" lon="-74.2299670">
        <ele>2553.6</ele>
        <time>2018-08-11T15:48:00Z</time>
      </trkpt>
      <trkpt lat="4.5622480" lon="-74.2300050">
        <ele>2553.7</ele>
        <time>2018-08-11T15:48:01Z</time>
      </trkpt>
      <trkpt lat="4.5622000" lon="-74.2300450">
        <ele>2553.9</ele>
        <time>2018-08-11T15:48:02Z</time>
      </trkpt>
      <trkpt lat="4.5621550" lon="-74.2300830">
        <ele>2554.0</ele>
        <time>2018-08-11T15:48:03Z</time>
      </trkpt>
      <trkpt lat="4.5621070" lon="-74.2301220">
        <ele>2553.9</ele>
        <time>2018-08-11T15:48:04Z</time>
      </trkpt>
      <trkpt lat="4.5620570" lon="-74.2301570">
        <ele>2553.9</ele>
        <time>2018-08-11T15:48:05Z</time>
      </trkpt>
      <trkpt lat="4.5620080" lon="-74.2302000">
        <ele>2553.8</ele>
        <time>2018-08-11T15:48:06Z</time>
      </trkpt>
      <trkpt lat="4.5619570" lon="-74.2302370">
        <ele>2553.7</ele>
        <time>2018-08-11T15:48:07Z</time>
      </trkpt>
      <trkpt lat="4.5619070" lon="-74.2302800">
        <ele>2553.7</ele>
        <time>2018-08-11T15:48:08Z</time>
      </trkpt>
      <trkpt lat="4.5618570" lon="-74.2303220">
        <ele>2553.6</ele>
        <time>2018-08-11T15:48:09Z</time>
      </trkpt>
      <trkpt lat="4.5618100" lon="-74.2303620">
        <ele>2553.6</ele>
        <time>2018-08-11T15:48:10Z</time>
      </trkpt>
      <trkpt lat="4.5617700" lon="-74.2304070">
        <ele>2553.6</ele>
        <time>2018-08-11T15:48:11Z</time>
      </trkpt>
      <trkpt lat="4.5617250" lon="-74.2304520">
        <ele>2553.5</ele>
        <time>2018-08-11T15:48:12Z</time>
      </trkpt>
      <trkpt lat="4.5616770" lon="-74.2304950">
        <ele>2553.5</ele>
        <time>2018-08-11T15:48:13Z</time>
      </trkpt>
      <trkpt lat="4.5616300" lon="-74.2305380">
        <ele>2553.4</ele>
        <time>2018-08-11T15:48:14Z</time>
      </trkpt>
      <trkpt lat="4.5615820" lon="-74.2305830">
        <ele>2553.4</ele>
        <time>2018-08-11T15:48:15Z</time>
      </trkpt>
      <trkpt lat="4.5615300" lon="-74.2306230">
        <ele>2553.3</ele>
        <time>2018-08-11T15:48:16Z</time>
      </trkpt>
      <trkpt lat="4.5614770" lon="-74.2306650">
        <ele>2553.3</ele>
        <time>2018-08-11T15:48:17Z</time>
      </trkpt>
      <trkpt lat="4.5614250" lon="-74.2307070">
        <ele>2553.2</ele>
        <time>2018-08-11T15:48:18Z</time>
      </trkpt>
      <trkpt lat="4.5613750" lon="-74.2307500">
        <ele>2553.2</ele>
        <time>2018-08-11T15:48:19Z</time>
      </trkpt>
      <trkpt lat="4.5613270" lon="-74.2307950">
        <ele>2553.1</ele>
        <time>2018-08-11T15:48:20Z</time>
      </trkpt>
      <trkpt lat="4.5612800" lon="-74.2308370">
        <ele>2553.1</ele>
        <time>2018-08-11T15:48:21Z</time>
      </trkpt>
      <trkpt lat="4.5612320" lon="-74.2308750">
        <ele>2553.0</ele>
        <time>2018-08-11T15:48:22Z</time>
      </trkpt>
      <trkpt lat="4.5611870" lon="-74.2309120">
        <ele>2553.0</ele>
        <time>2018-08-11T15:48:23Z</time>
      </trkpt>
      <trkpt lat="4.5611430" lon="-74.2309450">
        <ele>2552.9</ele>
        <time>2018-08-11T15:48:24Z</time>
      </trkpt>
      <trkpt lat="4.5611080" lon="-74.2309730">
        <ele>2552.9</ele>
        <time>2018-08-11T15:48:25Z</time>
      </trkpt>
      <trkpt lat="4.5610820" lon="-74.2309970">
        <ele>2552.9</ele>
        <time>2018-08-11T15:48:26Z</time>
      </trkpt>
      <trkpt lat="4.5610570" lon="-74.2310150">
        <ele>2552.9</ele>
        <time>2018-08-11T15:48:27Z</time>
      </trkpt>
      <trkpt lat="4.5610330" lon="-74.2310300">
        <ele>2552.8</ele>
        <time>2018-08-11T15:48:28Z</time>
      </trkpt>
      <trkpt lat="4.5610130" lon="-74.2310500">
        <ele>2552.8</ele>
        <time>2018-08-11T15:48:29Z</time>
      </trkpt>
      <trkpt lat="4.5609900" lon="-74.2310680">
        <ele>2552.7</ele>
        <time>2018-08-11T15:48:30Z</time>
      </trkpt>
      <trkpt lat="4.5609720" lon="-74.2310880">
        <ele>2552.7</ele>
        <time>2018-08-11T15:48:31Z</time>
      </trkpt>
      <trkpt lat="4.5609470" lon="-74.2311180">
        <ele>2552.6</ele>
        <time>2018-08-11T15:48:33Z</time>
      </trkpt>
      <trkpt lat="4.5609250" lon="-74.2311550">
        <ele>2552.5</ele>
        <time>2018-08-11T15:48:35Z</time>
      </trkpt>
      <trkpt lat="4.5608850" lon="-74.2311820">
        <ele>2552.5</ele>
        <time>2018-08-11T15:48:37Z</time>
      </trkpt>
      <trkpt lat="4.5608330" lon="-74.2312120">
        <ele>2552.4</ele>
        <time>2018-08-11T15:48:39Z</time>
      </trkpt>
      <trkpt lat="4.5608080" lon="-74.2312330">
        <ele>2552.4</ele>
        <time>2018-08-11T15:48:40Z</time>
      </trkpt>
      <trkpt lat="4.5607820" lon="-74.2312600">
        <ele>2552.3</ele>
        <time>2018-08-11T15:48:41Z</time>
      </trkpt>
      <trkpt lat="4.5607500" lon="-74.2312900">
        <ele>2552.3</ele>
        <time>2018-08-11T15:48:42Z</time>
      </trkpt>
      <trkpt lat="4.5607100" lon="-74.2313200">
        <ele>2552.2</ele>
        <time>2018-08-11T15:48:43Z</time>
      </trkpt>
      <trkpt lat="4.5606700" lon="-74.2313520">
        <ele>2552.2</ele>
        <time>2018-08-11T15:48:44Z</time>
      </trkpt>
      <trkpt lat="4.5606280" lon="-74.2313830">
        <ele>2552.1</ele>
        <time>2018-08-11T15:48:45Z</time>
      </trkpt>
      <trkpt lat="4.5605850" lon="-74.2314230">
        <ele>2552.1</ele>
        <time>2018-08-11T15:48:46Z</time>
      </trkpt>
      <trkpt lat="4.5605370" lon="-74.2314650">
        <ele>2552.0</ele>
        <time>2018-08-11T15:48:47Z</time>
      </trkpt>
      <trkpt lat="4.5604870" lon="-74.2315050">
        <ele>2552.0</ele>
        <time>2018-08-11T15:48:48Z</time>
      </trkpt>
      <trkpt lat="4.5604370" lon="-74.2315420">
        <ele>2552.0</ele>
        <time>2018-08-11T15:48:49Z</time>
      </trkpt>
      <trkpt lat="4.5603850" lon="-74.2315800">
        <ele>2552.0</ele>
        <time>2018-08-11T15:48:50Z</time>
      </trkpt>
      <trkpt lat="4.5603330" lon="-74.2316170">
        <ele>2552.0</ele>
        <time>2018-08-11T15:48:51Z</time>
      </trkpt>
      <trkpt lat="4.5602830" lon="-74.2316570">
        <ele>2552.2</ele>
        <time>2018-08-11T15:48:52Z</time>
      </trkpt>
      <trkpt lat="4.5602380" lon="-74.2316980">
        <ele>2552.4</ele>
        <time>2018-08-11T15:48:53Z</time>
      </trkpt>
      <trkpt lat="4.5601930" lon="-74.2317400">
        <ele>2552.6</ele>
        <time>2018-08-11T15:48:54Z</time>
      </trkpt>
      <trkpt lat="4.5601480" lon="-74.2317800">
        <ele>2552.8</ele>
        <time>2018-08-11T15:48:55Z</time>
      </trkpt>
      <trkpt lat="4.5601030" lon="-74.2318200">
        <ele>2553.0</ele>
        <time>2018-08-11T15:48:56Z</time>
      </trkpt>
      <trkpt lat="4.5600600" lon="-74.2318630">
        <ele>2553.0</ele>
        <time>2018-08-11T15:48:57Z</time>
      </trkpt>
      <trkpt lat="4.5600150" lon="-74.2319070">
        <ele>2553.0</ele>
        <time>2018-08-11T15:48:58Z</time>
      </trkpt>
      <trkpt lat="4.5599680" lon="-74.2319470">
        <ele>2552.9</ele>
        <time>2018-08-11T15:48:59Z</time>
      </trkpt>
      <trkpt lat="4.5599250" lon="-74.2319870">
        <ele>2552.9</ele>
        <time>2018-08-11T15:49:00Z</time>
      </trkpt>
      <trkpt lat="4.5598780" lon="-74.2320250">
        <ele>2552.9</ele>
        <time>2018-08-11T15:49:01Z</time>
      </trkpt>
      <trkpt lat="4.5598330" lon="-74.2320630">
        <ele>2552.9</ele>
        <time>2018-08-11T15:49:02Z</time>
      </trkpt>
      <trkpt lat="4.5597830" lon="-74.2321000">
        <ele>2552.9</ele>
        <time>2018-08-11T15:49:03Z</time>
      </trkpt>
      <trkpt lat="4.5597370" lon="-74.2321380">
        <ele>2552.9</ele>
        <time>2018-08-11T15:49:04Z</time>
      </trkpt>
      <trkpt lat="4.5596920" lon="-74.2321780">
        <ele>2552.8</ele>
        <time>2018-08-11T15:49:05Z</time>
      </trkpt>
      <trkpt lat="4.5596350" lon="-74.2322170">
        <ele>2552.8</ele>
        <time>2018-08-11T15:49:06Z</time>
      </trkpt>
      <trkpt lat="4.5595880" lon="-74.2322550">
        <ele>2552.8</ele>
        <time>2018-08-11T15:49:07Z</time>
      </trkpt>
      <trkpt lat="4.5595370" lon="-74.2322930">
        <ele>2552.8</ele>
        <time>2018-08-11T15:49:08Z</time>
      </trkpt>
      <trkpt lat="4.5594870" lon="-74.2323320">
        <ele>2552.7</ele>
        <time>2018-08-11T15:49:09Z</time>
      </trkpt>
      <trkpt lat="4.5594380" lon="-74.2323720">
        <ele>2552.7</ele>
        <time>2018-08-11T15:49:10Z</time>
      </trkpt>
      <trkpt lat="4.5593920" lon="-74.2324100">
        <ele>2552.7</ele>
        <time>2018-08-11T15:49:11Z</time>
      </trkpt>
      <trkpt lat="4.5593430" lon="-74.2324500">
        <ele>2552.7</ele>
        <time>2018-08-11T15:49:12Z</time>
      </trkpt>
      <trkpt lat="4.5592950" lon="-74.2324900">
        <ele>2552.7</ele>
        <time>2018-08-11T15:49:13Z</time>
      </trkpt>
      <trkpt lat="4.5592480" lon="-74.2325270">
        <ele>2552.6</ele>
        <time>2018-08-11T15:49:14Z</time>
      </trkpt>
      <trkpt lat="4.5591980" lon="-74.2325670">
        <ele>2552.6</ele>
        <time>2018-08-11T15:49:15Z</time>
      </trkpt>
      <trkpt lat="4.5591470" lon="-74.2326100">
        <ele>2552.6</ele>
        <time>2018-08-11T15:49:16Z</time>
      </trkpt>
      <trkpt lat="4.5590930" lon="-74.2326480">
        <ele>2552.6</ele>
        <time>2018-08-11T15:49:17Z</time>
      </trkpt>
      <trkpt lat="4.5590420" lon="-74.2326920">
        <ele>2552.6</ele>
        <time>2018-08-11T15:49:18Z</time>
      </trkpt>
      <trkpt lat="4.5589870" lon="-74.2327280">
        <ele>2552.6</ele>
        <time>2018-08-11T15:49:19Z</time>
      </trkpt>
      <trkpt lat="4.5589350" lon="-74.2327730">
        <ele>2552.5</ele>
        <time>2018-08-11T15:49:20Z</time>
      </trkpt>
      <trkpt lat="4.5588820" lon="-74.2328170">
        <ele>2552.5</ele>
        <time>2018-08-11T15:49:21Z</time>
      </trkpt>
      <trkpt lat="4.5588280" lon="-74.2328620">
        <ele>2552.5</ele>
        <time>2018-08-11T15:49:22Z</time>
      </trkpt>
      <trkpt lat="4.5587800" lon="-74.2329070">
        <ele>2552.5</ele>
        <time>2018-08-11T15:49:23Z</time>
      </trkpt>
      <trkpt lat="4.5587300" lon="-74.2329500">
        <ele>2552.4</ele>
        <time>2018-08-11T15:49:24Z</time>
      </trkpt>
      <trkpt lat="4.5586780" lon="-74.2329930">
        <ele>2552.4</ele>
        <time>2018-08-11T15:49:25Z</time>
      </trkpt>
      <trkpt lat="4.5586300" lon="-74.2330370">
        <ele>2552.4</ele>
        <time>2018-08-11T15:49:26Z</time>
      </trkpt>
      <trkpt lat="4.5585820" lon="-74.2330820">
        <ele>2552.4</ele>
        <time>2018-08-11T15:49:27Z</time>
      </trkpt>
      <trkpt lat="4.5585350" lon="-74.2331270">
        <ele>2552.4</ele>
        <time>2018-08-11T15:49:28Z</time>
      </trkpt>
      <trkpt lat="4.5584880" lon="-74.2331750">
        <ele>2552.3</ele>
        <time>2018-08-11T15:49:29Z</time>
      </trkpt>
      <trkpt lat="4.5584380" lon="-74.2332220">
        <ele>2552.3</ele>
        <time>2018-08-11T15:49:30Z</time>
      </trkpt>
      <trkpt lat="4.5583870" lon="-74.2332650">
        <ele>2552.3</ele>
        <time>2018-08-11T15:49:31Z</time>
      </trkpt>
      <trkpt lat="4.5583350" lon="-74.2333050">
        <ele>2552.3</ele>
        <time>2018-08-11T15:49:32Z</time>
      </trkpt>
      <trkpt lat="4.5582850" lon="-74.2333480">
        <ele>2552.2</ele>
        <time>2018-08-11T15:49:33Z</time>
      </trkpt>
      <trkpt lat="4.5582330" lon="-74.2333920">
        <ele>2552.2</ele>
        <time>2018-08-11T15:49:34Z</time>
      </trkpt>
      <trkpt lat="4.5581820" lon="-74.2334330">
        <ele>2552.2</ele>
        <time>2018-08-11T15:49:35Z</time>
      </trkpt>
      <trkpt lat="4.5581300" lon="-74.2334750">
        <ele>2552.2</ele>
        <time>2018-08-11T15:49:36Z</time>
      </trkpt>
      <trkpt lat="4.5580650" lon="-74.2335100">
        <ele>2552.1</ele>
        <time>2018-08-11T15:49:37Z</time>
      </trkpt>
      <trkpt lat="4.5580120" lon="-74.2335500">
        <ele>2552.1</ele>
        <time>2018-08-11T15:49:38Z</time>
      </trkpt>
      <trkpt lat="4.5579600" lon="-74.2335880">
        <ele>2552.1</ele>
        <time>2018-08-11T15:49:39Z</time>
      </trkpt>
      <trkpt lat="4.5579120" lon="-74.2336300">
        <ele>2552.1</ele>
        <time>2018-08-11T15:49:40Z</time>
      </trkpt>
      <trkpt lat="4.5578630" lon="-74.2336770">
        <ele>2552.0</ele>
        <time>2018-08-11T15:49:41Z</time>
      </trkpt>
      <trkpt lat="4.5578170" lon="-74.2337270">
        <ele>2552.0</ele>
        <time>2018-08-11T15:49:42Z</time>
      </trkpt>
      <trkpt lat="4.5577680" lon="-74.2337720">
        <ele>2552.0</ele>
        <time>2018-08-11T15:49:43Z</time>
      </trkpt>
      <trkpt lat="4.5577150" lon="-74.2338170">
        <ele>2552.1</ele>
        <time>2018-08-11T15:49:44Z</time>
      </trkpt>
      <trkpt lat="4.5576600" lon="-74.2338580">
        <ele>2552.1</ele>
        <time>2018-08-11T15:49:45Z</time>
      </trkpt>
      <trkpt lat="4.5576050" lon="-74.2339050">
        <ele>2552.2</ele>
        <time>2018-08-11T15:49:46Z</time>
      </trkpt>
      <trkpt lat="4.5575520" lon="-74.2339450">
        <ele>2552.2</ele>
        <time>2018-08-11T15:49:47Z</time>
      </trkpt>
      <trkpt lat="4.5575000" lon="-74.2339870">
        <ele>2552.3</ele>
        <time>2018-08-11T15:49:48Z</time>
      </trkpt>
      <trkpt lat="4.5574480" lon="-74.2340270">
        <ele>2552.5</ele>
        <time>2018-08-11T15:49:49Z</time>
      </trkpt>
      <trkpt lat="4.5573980" lon="-74.2340680">
        <ele>2552.6</ele>
        <time>2018-08-11T15:49:50Z</time>
      </trkpt>
      <trkpt lat="4.5573470" lon="-74.2341080">
        <ele>2552.7</ele>
        <time>2018-08-11T15:49:51Z</time>
      </trkpt>
      <trkpt lat="4.5572950" lon="-74.2341500">
        <ele>2552.7</ele>
        <time>2018-08-11T15:49:52Z</time>
      </trkpt>
      <trkpt lat="4.5572450" lon="-74.2341900">
        <ele>2552.7</ele>
        <time>2018-08-11T15:49:53Z</time>
      </trkpt>
      <trkpt lat="4.5571950" lon="-74.2342320">
        <ele>2552.6</ele>
        <time>2018-08-11T15:49:54Z</time>
      </trkpt>
      <trkpt lat="4.5571430" lon="-74.2342770">
        <ele>2552.5</ele>
        <time>2018-08-11T15:49:55Z</time>
      </trkpt>
      <trkpt lat="4.5570930" lon="-74.2343200">
        <ele>2552.4</ele>
        <time>2018-08-11T15:49:56Z</time>
      </trkpt>
      <trkpt lat="4.5570380" lon="-74.2343650">
        <ele>2552.3</ele>
        <time>2018-08-11T15:49:57Z</time>
      </trkpt>
      <trkpt lat="4.5569830" lon="-74.2344080">
        <ele>2552.2</ele>
        <time>2018-08-11T15:49:58Z</time>
      </trkpt>
      <trkpt lat="4.5569280" lon="-74.2344530">
        <ele>2552.2</ele>
        <time>2018-08-11T15:49:59Z</time>
      </trkpt>
      <trkpt lat="4.5568730" lon="-74.2345000">
        <ele>2552.2</ele>
        <time>2018-08-11T15:50:00Z</time>
      </trkpt>
      <trkpt lat="4.5568180" lon="-74.2345470">
        <ele>2552.3</ele>
        <time>2018-08-11T15:50:01Z</time>
      </trkpt>
      <trkpt lat="4.5567630" lon="-74.2345950">
        <ele>2552.4</ele>
        <time>2018-08-11T15:50:02Z</time>
      </trkpt>
      <trkpt lat="4.5567130" lon="-74.2346480">
        <ele>2552.6</ele>
        <time>2018-08-11T15:50:03Z</time>
      </trkpt>
      <trkpt lat="4.5566600" lon="-74.2346950">
        <ele>2552.7</ele>
        <time>2018-08-11T15:50:04Z</time>
      </trkpt>
      <trkpt lat="4.5566020" lon="-74.2347400">
        <ele>2552.9</ele>
        <time>2018-08-11T15:50:05Z</time>
      </trkpt>
      <trkpt lat="4.5565500" lon="-74.2347900">
        <ele>2553.0</ele>
        <time>2018-08-11T15:50:06Z</time>
      </trkpt>
      <trkpt lat="4.5564980" lon="-74.2348370">
        <ele>2553.1</ele>
        <time>2018-08-11T15:50:07Z</time>
      </trkpt>
      <trkpt lat="4.5564400" lon="-74.2348870">
        <ele>2553.3</ele>
        <time>2018-08-11T15:50:08Z</time>
      </trkpt>
      <trkpt lat="4.5563880" lon="-74.2349320">
        <ele>2553.3</ele>
        <time>2018-08-11T15:50:09Z</time>
      </trkpt>
      <trkpt lat="4.5563400" lon="-74.2349770">
        <ele>2553.4</ele>
        <time>2018-08-11T15:50:10Z</time>
      </trkpt>
      <trkpt lat="4.5562920" lon="-74.2350250">
        <ele>2553.5</ele>
        <time>2018-08-11T15:50:11Z</time>
      </trkpt>
      <trkpt lat="4.5562420" lon="-74.2350730">
        <ele>2553.5</ele>
        <time>2018-08-11T15:50:12Z</time>
      </trkpt>
      <trkpt lat="4.5561880" lon="-74.2351220">
        <ele>2553.5</ele>
        <time>2018-08-11T15:50:13Z</time>
      </trkpt>
      <trkpt lat="4.5561380" lon="-74.2351680">
        <ele>2553.5</ele>
        <time>2018-08-11T15:50:14Z</time>
      </trkpt>
      <trkpt lat="4.5560870" lon="-74.2352150">
        <ele>2553.5</ele>
        <time>2018-08-11T15:50:15Z</time>
      </trkpt>
      <trkpt lat="4.5560350" lon="-74.2352600">
        <ele>2553.6</ele>
        <time>2018-08-11T15:50:16Z</time>
      </trkpt>
      <trkpt lat="4.5559780" lon="-74.2353020">
        <ele>2553.7</ele>
        <time>2018-08-11T15:50:17Z</time>
      </trkpt>
      <trkpt lat="4.5559270" lon="-74.2353430">
        <ele>2553.8</ele>
        <time>2018-08-11T15:50:18Z</time>
      </trkpt>
      <trkpt lat="4.5558770" lon="-74.2353900">
        <ele>2553.8</ele>
        <time>2018-08-11T15:50:19Z</time>
      </trkpt>
      <trkpt lat="4.5558270" lon="-74.2354380">
        <ele>2553.8</ele>
        <time>2018-08-11T15:50:20Z</time>
      </trkpt>
      <trkpt lat="4.5557730" lon="-74.2354820">
        <ele>2553.9</ele>
        <time>2018-08-11T15:50:21Z</time>
      </trkpt>
      <trkpt lat="4.5557170" lon="-74.2355270">
        <ele>2553.9</ele>
        <time>2018-08-11T15:50:22Z</time>
      </trkpt>
      <trkpt lat="4.5556620" lon="-74.2355720">
        <ele>2553.9</ele>
        <time>2018-08-11T15:50:23Z</time>
      </trkpt>
      <trkpt lat="4.5556070" lon="-74.2356150">
        <ele>2553.9</ele>
        <time>2018-08-11T15:50:24Z</time>
      </trkpt>
      <trkpt lat="4.5555530" lon="-74.2356620">
        <ele>2554.0</ele>
        <time>2018-08-11T15:50:25Z</time>
      </trkpt>
      <trkpt lat="4.5554980" lon="-74.2357070">
        <ele>2554.0</ele>
        <time>2018-08-11T15:50:26Z</time>
      </trkpt>
      <trkpt lat="4.5554450" lon="-74.2357520">
        <ele>2554.1</ele>
        <time>2018-08-11T15:50:27Z</time>
      </trkpt>
      <trkpt lat="4.5553880" lon="-74.2357950">
        <ele>2554.3</ele>
        <time>2018-08-11T15:50:28Z</time>
      </trkpt>
      <trkpt lat="4.5553350" lon="-74.2358400">
        <ele>2554.4</ele>
        <time>2018-08-11T15:50:29Z</time>
      </trkpt>
      <trkpt lat="4.5552820" lon="-74.2358820">
        <ele>2554.5</ele>
        <time>2018-08-11T15:50:30Z</time>
      </trkpt>
      <trkpt lat="4.5552280" lon="-74.2359220">
        <ele>2554.6</ele>
        <time>2018-08-11T15:50:31Z</time>
      </trkpt>
      <trkpt lat="4.5551750" lon="-74.2359620">
        <ele>2554.7</ele>
        <time>2018-08-11T15:50:32Z</time>
      </trkpt>
      <trkpt lat="4.5551220" lon="-74.2360050">
        <ele>2554.8</ele>
        <time>2018-08-11T15:50:33Z</time>
      </trkpt>
      <trkpt lat="4.5550700" lon="-74.2360500">
        <ele>2554.8</ele>
        <time>2018-08-11T15:50:34Z</time>
      </trkpt>
      <trkpt lat="4.5550220" lon="-74.2360980">
        <ele>2554.9</ele>
        <time>2018-08-11T15:50:35Z</time>
      </trkpt>
      <trkpt lat="4.5549730" lon="-74.2361450">
        <ele>2555.0</ele>
        <time>2018-08-11T15:50:36Z</time>
      </trkpt>
      <trkpt lat="4.5549250" lon="-74.2361880">
        <ele>2555.1</ele>
        <time>2018-08-11T15:50:37Z</time>
      </trkpt>
      <trkpt lat="4.5548730" lon="-74.2362320">
        <ele>2555.2</ele>
        <time>2018-08-11T15:50:38Z</time>
      </trkpt>
      <trkpt lat="4.5548150" lon="-74.2362700">
        <ele>2555.3</ele>
        <time>2018-08-11T15:50:39Z</time>
      </trkpt>
      <trkpt lat="4.5547570" lon="-74.2363120">
        <ele>2555.4</ele>
        <time>2018-08-11T15:50:40Z</time>
      </trkpt>
      <trkpt lat="4.5547050" lon="-74.2363570">
        <ele>2555.5</ele>
        <time>2018-08-11T15:50:41Z</time>
      </trkpt>
      <trkpt lat="4.5546520" lon="-74.2364030">
        <ele>2555.5</ele>
        <time>2018-08-11T15:50:42Z</time>
      </trkpt>
      <trkpt lat="4.5545970" lon="-74.2364450">
        <ele>2555.5</ele>
        <time>2018-08-11T15:50:43Z</time>
      </trkpt>
      <trkpt lat="4.5545470" lon="-74.2364850">
        <ele>2555.5</ele>
        <time>2018-08-11T15:50:44Z</time>
      </trkpt>
      <trkpt lat="4.5544950" lon="-74.2365250">
        <ele>2555.6</ele>
        <time>2018-08-11T15:50:45Z</time>
      </trkpt>
      <trkpt lat="4.5544430" lon="-74.2365670">
        <ele>2555.6</ele>
        <time>2018-08-11T15:50:46Z</time>
      </trkpt>
      <trkpt lat="4.5543920" lon="-74.2366080">
        <ele>2555.8</ele>
        <time>2018-08-11T15:50:47Z</time>
      </trkpt>
      <trkpt lat="4.5543370" lon="-74.2366470">
        <ele>2555.9</ele>
        <time>2018-08-11T15:50:48Z</time>
      </trkpt>
      <trkpt lat="4.5542830" lon="-74.2366870">
        <ele>2556.1</ele>
        <time>2018-08-11T15:50:49Z</time>
      </trkpt>
      <trkpt lat="4.5542350" lon="-74.2367250">
        <ele>2556.3</ele>
        <time>2018-08-11T15:50:50Z</time>
      </trkpt>
      <trkpt lat="4.5541930" lon="-74.2367650">
        <ele>2556.4</ele>
        <time>2018-08-11T15:50:51Z</time>
      </trkpt>
      <trkpt lat="4.5541620" lon="-74.2368220">
        <ele>2556.5</ele>
        <time>2018-08-11T15:50:52Z</time>
      </trkpt>
      <trkpt lat="4.5541170" lon="-74.2368630">
        <ele>2556.6</ele>
        <time>2018-08-11T15:50:53Z</time>
      </trkpt>
      <trkpt lat="4.5540700" lon="-74.2369020">
        <ele>2556.7</ele>
        <time>2018-08-11T15:50:54Z</time>
      </trkpt>
      <trkpt lat="4.5540320" lon="-74.2369500">
        <ele>2556.7</ele>
        <time>2018-08-11T15:50:55Z</time>
      </trkpt>
      <trkpt lat="4.5539850" lon="-74.2369930">
        <ele>2556.8</ele>
        <time>2018-08-11T15:50:56Z</time>
      </trkpt>
      <trkpt lat="4.5539350" lon="-74.2370320">
        <ele>2556.9</ele>
        <time>2018-08-11T15:50:57Z</time>
      </trkpt>
      <trkpt lat="4.5538870" lon="-74.2370670">
        <ele>2556.9</ele>
        <time>2018-08-11T15:50:58Z</time>
      </trkpt>
      <trkpt lat="4.5538370" lon="-74.2371030">
        <ele>2557.0</ele>
        <time>2018-08-11T15:50:59Z</time>
      </trkpt>
      <trkpt lat="4.5537900" lon="-74.2371380">
        <ele>2557.0</ele>
        <time>2018-08-11T15:51:00Z</time>
      </trkpt>
      <trkpt lat="4.5537430" lon="-74.2371730">
        <ele>2557.1</ele>
        <time>2018-08-11T15:51:01Z</time>
      </trkpt>
      <trkpt lat="4.5536920" lon="-74.2372080">
        <ele>2557.1</ele>
        <time>2018-08-11T15:51:02Z</time>
      </trkpt>
      <trkpt lat="4.5536420" lon="-74.2372470">
        <ele>2557.1</ele>
        <time>2018-08-11T15:51:03Z</time>
      </trkpt>
      <trkpt lat="4.5536020" lon="-74.2372870">
        <ele>2557.1</ele>
        <time>2018-08-11T15:51:04Z</time>
      </trkpt>
      <trkpt lat="4.5535550" lon="-74.2373300">
        <ele>2557.2</ele>
        <time>2018-08-11T15:51:05Z</time>
      </trkpt>
      <trkpt lat="4.5535050" lon="-74.2373750">
        <ele>2557.2</ele>
        <time>2018-08-11T15:51:06Z</time>
      </trkpt>
      <trkpt lat="4.5534550" lon="-74.2374230">
        <ele>2557.2</ele>
        <time>2018-08-11T15:51:07Z</time>
      </trkpt>
      <trkpt lat="4.5534000" lon="-74.2374650">
        <ele>2557.3</ele>
        <time>2018-08-11T15:51:08Z</time>
      </trkpt>
      <trkpt lat="4.5533450" lon="-74.2375070">
        <ele>2557.3</ele>
        <time>2018-08-11T15:51:09Z</time>
      </trkpt>
      <trkpt lat="4.5532770" lon="-74.2375420">
        <ele>2557.4</ele>
        <time>2018-08-11T15:51:10Z</time>
      </trkpt>
      <trkpt lat="4.5532220" lon="-74.2375820">
        <ele>2557.4</ele>
        <time>2018-08-11T15:51:11Z</time>
      </trkpt>
      <trkpt lat="4.5531680" lon="-74.2376200">
        <ele>2557.4</ele>
        <time>2018-08-11T15:51:12Z</time>
      </trkpt>
      <trkpt lat="4.5531150" lon="-74.2376570">
        <ele>2557.4</ele>
        <time>2018-08-11T15:51:13Z</time>
      </trkpt>
      <trkpt lat="4.5530670" lon="-74.2376980">
        <ele>2557.4</ele>
        <time>2018-08-11T15:51:14Z</time>
      </trkpt>
      <trkpt lat="4.5530180" lon="-74.2377400">
        <ele>2557.5</ele>
        <time>2018-08-11T15:51:15Z</time>
      </trkpt>
      <trkpt lat="4.5529700" lon="-74.2377800">
        <ele>2557.6</ele>
        <time>2018-08-11T15:51:16Z</time>
      </trkpt>
      <trkpt lat="4.5529230" lon="-74.2378180">
        <ele>2557.7</ele>
        <time>2018-08-11T15:51:17Z</time>
      </trkpt>
      <trkpt lat="4.5528730" lon="-74.2378620">
        <ele>2557.8</ele>
        <time>2018-08-11T15:51:18Z</time>
      </trkpt>
      <trkpt lat="4.5528270" lon="-74.2379050">
        <ele>2557.8</ele>
        <time>2018-08-11T15:51:19Z</time>
      </trkpt>
      <trkpt lat="4.5527780" lon="-74.2379470">
        <ele>2557.9</ele>
        <time>2018-08-11T15:51:20Z</time>
      </trkpt>
      <trkpt lat="4.5527250" lon="-74.2379870">
        <ele>2558.0</ele>
        <time>2018-08-11T15:51:21Z</time>
      </trkpt>
      <trkpt lat="4.5526750" lon="-74.2380270">
        <ele>2558.1</ele>
        <time>2018-08-11T15:51:22Z</time>
      </trkpt>
      <trkpt lat="4.5526200" lon="-74.2380630">
        <ele>2558.1</ele>
        <time>2018-08-11T15:51:23Z</time>
      </trkpt>
      <trkpt lat="4.5525650" lon="-74.2381020">
        <ele>2558.2</ele>
        <time>2018-08-11T15:51:24Z</time>
      </trkpt>
      <trkpt lat="4.5525120" lon="-74.2381400">
        <ele>2558.2</ele>
        <time>2018-08-11T15:51:25Z</time>
      </trkpt>
      <trkpt lat="4.5524600" lon="-74.2381780">
        <ele>2558.3</ele>
        <time>2018-08-11T15:51:26Z</time>
      </trkpt>
      <trkpt lat="4.5524050" lon="-74.2382130">
        <ele>2558.3</ele>
        <time>2018-08-11T15:51:27Z</time>
      </trkpt>
      <trkpt lat="4.5523530" lon="-74.2382530">
        <ele>2558.4</ele>
        <time>2018-08-11T15:51:28Z</time>
      </trkpt>
      <trkpt lat="4.5523030" lon="-74.2382950">
        <ele>2558.5</ele>
        <time>2018-08-11T15:51:29Z</time>
      </trkpt>
      <trkpt lat="4.5522550" lon="-74.2383400">
        <ele>2558.6</ele>
        <time>2018-08-11T15:51:30Z</time>
      </trkpt>
      <trkpt lat="4.5522080" lon="-74.2383830">
        <ele>2558.8</ele>
        <time>2018-08-11T15:51:31Z</time>
      </trkpt>
      <trkpt lat="4.5521600" lon="-74.2384280">
        <ele>2559.1</ele>
        <time>2018-08-11T15:51:32Z</time>
      </trkpt>
      <trkpt lat="4.5521100" lon="-74.2384730">
        <ele>2559.3</ele>
        <time>2018-08-11T15:51:33Z</time>
      </trkpt>
      <trkpt lat="4.5520620" lon="-74.2385130">
        <ele>2559.5</ele>
        <time>2018-08-11T15:51:34Z</time>
      </trkpt>
      <trkpt lat="4.5520130" lon="-74.2385570">
        <ele>2559.6</ele>
        <time>2018-08-11T15:51:35Z</time>
      </trkpt>
      <trkpt lat="4.5519630" lon="-74.2385980">
        <ele>2559.7</ele>
        <time>2018-08-11T15:51:36Z</time>
      </trkpt>
      <trkpt lat="4.5519180" lon="-74.2386430">
        <ele>2559.8</ele>
        <time>2018-08-11T15:51:37Z</time>
      </trkpt>
      <trkpt lat="4.5518730" lon="-74.2386850">
        <ele>2559.9</ele>
        <time>2018-08-11T15:51:38Z</time>
      </trkpt>
      <trkpt lat="4.5518300" lon="-74.2387300">
        <ele>2560.0</ele>
        <time>2018-08-11T15:51:39Z</time>
      </trkpt>
      <trkpt lat="4.5517820" lon="-74.2387680">
        <ele>2560.0</ele>
        <time>2018-08-11T15:51:40Z</time>
      </trkpt>
      <trkpt lat="4.5517270" lon="-74.2388030">
        <ele>2560.1</ele>
        <time>2018-08-11T15:51:41Z</time>
      </trkpt>
      <trkpt lat="4.5516750" lon="-74.2388420">
        <ele>2560.2</ele>
        <time>2018-08-11T15:51:42Z</time>
      </trkpt>
      <trkpt lat="4.5516250" lon="-74.2388870">
        <ele>2560.3</ele>
        <time>2018-08-11T15:51:43Z</time>
      </trkpt>
      <trkpt lat="4.5515800" lon="-74.2389330">
        <ele>2560.4</ele>
        <time>2018-08-11T15:51:44Z</time>
      </trkpt>
      <trkpt lat="4.5515330" lon="-74.2389730">
        <ele>2560.5</ele>
        <time>2018-08-11T15:51:45Z</time>
      </trkpt>
      <trkpt lat="4.5514850" lon="-74.2390130">
        <ele>2560.6</ele>
        <time>2018-08-11T15:51:46Z</time>
      </trkpt>
      <trkpt lat="4.5514380" lon="-74.2390520">
        <ele>2560.6</ele>
        <time>2018-08-11T15:51:47Z</time>
      </trkpt>
      <trkpt lat="4.5513900" lon="-74.2390880">
        <ele>2560.7</ele>
        <time>2018-08-11T15:51:48Z</time>
      </trkpt>
      <trkpt lat="4.5513450" lon="-74.2391280">
        <ele>2560.8</ele>
        <time>2018-08-11T15:51:49Z</time>
      </trkpt>
      <trkpt lat="4.5512930" lon="-74.2391650">
        <ele>2560.8</ele>
        <time>2018-08-11T15:51:50Z</time>
      </trkpt>
      <trkpt lat="4.5512450" lon="-74.2392050">
        <ele>2560.9</ele>
        <time>2018-08-11T15:51:51Z</time>
      </trkpt>
      <trkpt lat="4.5511930" lon="-74.2392430">
        <ele>2560.9</ele>
        <time>2018-08-11T15:51:52Z</time>
      </trkpt>
      <trkpt lat="4.5511450" lon="-74.2392830">
        <ele>2561.0</ele>
        <time>2018-08-11T15:51:53Z</time>
      </trkpt>
      <trkpt lat="4.5510930" lon="-74.2393230">
        <ele>2560.7</ele>
        <time>2018-08-11T15:51:54Z</time>
      </trkpt>
      <trkpt lat="4.5510470" lon="-74.2393670">
        <ele>2560.4</ele>
        <time>2018-08-11T15:51:55Z</time>
      </trkpt>
      <trkpt lat="4.5509970" lon="-74.2394080">
        <ele>2560.2</ele>
        <time>2018-08-11T15:51:56Z</time>
      </trkpt>
      <trkpt lat="4.5509470" lon="-74.2394520">
        <ele>2559.9</ele>
        <time>2018-08-11T15:51:57Z</time>
      </trkpt>
      <trkpt lat="4.5508970" lon="-74.2394970">
        <ele>2559.7</ele>
        <time>2018-08-11T15:51:58Z</time>
      </trkpt>
      <trkpt lat="4.5508500" lon="-74.2395430">
        <ele>2559.4</ele>
        <time>2018-08-11T15:51:59Z</time>
      </trkpt>
      <trkpt lat="4.5508020" lon="-74.2395880">
        <ele>2559.1</ele>
        <time>2018-08-11T15:52:00Z</time>
      </trkpt>
      <trkpt lat="4.5507520" lon="-74.2396300">
        <ele>2558.8</ele>
        <time>2018-08-11T15:52:01Z</time>
      </trkpt>
      <trkpt lat="4.5507020" lon="-74.2396700">
        <ele>2558.5</ele>
        <time>2018-08-11T15:52:02Z</time>
      </trkpt>
      <trkpt lat="4.5506520" lon="-74.2397100">
        <ele>2558.2</ele>
        <time>2018-08-11T15:52:03Z</time>
      </trkpt>
      <trkpt lat="4.5506050" lon="-74.2397520">
        <ele>2558.0</ele>
        <time>2018-08-11T15:52:04Z</time>
      </trkpt>
      <trkpt lat="4.5505550" lon="-74.2397900">
        <ele>2557.7</ele>
        <time>2018-08-11T15:52:05Z</time>
      </trkpt>
      <trkpt lat="4.5505080" lon="-74.2398300">
        <ele>2557.4</ele>
        <time>2018-08-11T15:52:06Z</time>
      </trkpt>
      <trkpt lat="4.5504600" lon="-74.2398700">
        <ele>2557.1</ele>
        <time>2018-08-11T15:52:07Z</time>
      </trkpt>
      <trkpt lat="4.5504080" lon="-74.2399120">
        <ele>2556.7</ele>
        <time>2018-08-11T15:52:08Z</time>
      </trkpt>
      <trkpt lat="4.5503630" lon="-74.2399570">
        <ele>2556.3</ele>
        <time>2018-08-11T15:52:09Z</time>
      </trkpt>
      <trkpt lat="4.5503120" lon="-74.2399950">
        <ele>2556.0</ele>
        <time>2018-08-11T15:52:10Z</time>
      </trkpt>
      <trkpt lat="4.5502620" lon="-74.2400350">
        <ele>2556.1</ele>
        <time>2018-08-11T15:52:11Z</time>
      </trkpt>
      <trkpt lat="4.5502080" lon="-74.2400700">
        <ele>2556.2</ele>
        <time>2018-08-11T15:52:12Z</time>
      </trkpt>
      <trkpt lat="4.5501600" lon="-74.2401080">
        <ele>2556.3</ele>
        <time>2018-08-11T15:52:13Z</time>
      </trkpt>
      <trkpt lat="4.5501100" lon="-74.2401500">
        <ele>2556.4</ele>
        <time>2018-08-11T15:52:14Z</time>
      </trkpt>
      <trkpt lat="4.5500600" lon="-74.2401880">
        <ele>2556.4</ele>
        <time>2018-08-11T15:52:15Z</time>
      </trkpt>
      <trkpt lat="4.5500120" lon="-74.2402280">
        <ele>2556.3</ele>
        <time>2018-08-11T15:52:16Z</time>
      </trkpt>
      <trkpt lat="4.5499670" lon="-74.2402670">
        <ele>2556.3</ele>
        <time>2018-08-11T15:52:17Z</time>
      </trkpt>
      <trkpt lat="4.5499180" lon="-74.2403050">
        <ele>2556.2</ele>
        <time>2018-08-11T15:52:18Z</time>
      </trkpt>
      <trkpt lat="4.5498680" lon="-74.2403470">
        <ele>2556.2</ele>
        <time>2018-08-11T15:52:19Z</time>
      </trkpt>
      <trkpt lat="4.5498200" lon="-74.2403870">
        <ele>2556.1</ele>
        <time>2018-08-11T15:52:20Z</time>
      </trkpt>
      <trkpt lat="4.5497700" lon="-74.2404300">
        <ele>2556.1</ele>
        <time>2018-08-11T15:52:21Z</time>
      </trkpt>
      <trkpt lat="4.5497220" lon="-74.2404750">
        <ele>2556.2</ele>
        <time>2018-08-11T15:52:22Z</time>
      </trkpt>
      <trkpt lat="4.5496700" lon="-74.2405150">
        <ele>2556.2</ele>
        <time>2018-08-11T15:52:23Z</time>
      </trkpt>
      <trkpt lat="4.5496230" lon="-74.2405600">
        <ele>2556.2</ele>
        <time>2018-08-11T15:52:24Z</time>
      </trkpt>
      <trkpt lat="4.5495750" lon="-74.2406030">
        <ele>2556.3</ele>
        <time>2018-08-11T15:52:25Z</time>
      </trkpt>
      <trkpt lat="4.5495230" lon="-74.2406420">
        <ele>2556.3</ele>
        <time>2018-08-11T15:52:26Z</time>
      </trkpt>
      <trkpt lat="4.5494750" lon="-74.2406800">
        <ele>2556.3</ele>
        <time>2018-08-11T15:52:27Z</time>
      </trkpt>
      <trkpt lat="4.5494230" lon="-74.2407180">
        <ele>2556.3</ele>
        <time>2018-08-11T15:52:28Z</time>
      </trkpt>
      <trkpt lat="4.5493750" lon="-74.2407580">
        <ele>2556.2</ele>
        <time>2018-08-11T15:52:29Z</time>
      </trkpt>
      <trkpt lat="4.5493280" lon="-74.2408000">
        <ele>2556.2</ele>
        <time>2018-08-11T15:52:30Z</time>
      </trkpt>
      <trkpt lat="4.5492820" lon="-74.2408430">
        <ele>2556.2</ele>
        <time>2018-08-11T15:52:31Z</time>
      </trkpt>
      <trkpt lat="4.5492280" lon="-74.2408780">
        <ele>2556.2</ele>
        <time>2018-08-11T15:52:32Z</time>
      </trkpt>
      <trkpt lat="4.5491750" lon="-74.2409100">
        <ele>2556.2</ele>
        <time>2018-08-11T15:52:33Z</time>
      </trkpt>
      <trkpt lat="4.5491250" lon="-74.2409450">
        <ele>2556.2</ele>
        <time>2018-08-11T15:52:34Z</time>
      </trkpt>
      <trkpt lat="4.5490780" lon="-74.2409830">
        <ele>2556.2</ele>
        <time>2018-08-11T15:52:35Z</time>
      </trkpt>
      <trkpt lat="4.5490350" lon="-74.2410200">
        <ele>2556.2</ele>
        <time>2018-08-11T15:52:36Z</time>
      </trkpt>
      <trkpt lat="4.5489900" lon="-74.2410570">
        <ele>2556.2</ele>
        <time>2018-08-11T15:52:37Z</time>
      </trkpt>
      <trkpt lat="4.5489470" lon="-74.2410930">
        <ele>2556.2</ele>
        <time>2018-08-11T15:52:38Z</time>
      </trkpt>
      <trkpt lat="4.5489020" lon="-74.2411250">
        <ele>2556.2</ele>
        <time>2018-08-11T15:52:39Z</time>
      </trkpt>
      <trkpt lat="4.5488720" lon="-74.2411700">
        <ele>2556.1</ele>
        <time>2018-08-11T15:52:40Z</time>
      </trkpt>
      <trkpt lat="4.5488400" lon="-74.2412050">
        <ele>2556.1</ele>
        <time>2018-08-11T15:52:41Z</time>
      </trkpt>
      <trkpt lat="4.5488050" lon="-74.2412400">
        <ele>2556.1</ele>
        <time>2018-08-11T15:52:42Z</time>
      </trkpt>
      <trkpt lat="4.5487680" lon="-74.2412750">
        <ele>2556.1</ele>
        <time>2018-08-11T15:52:43Z</time>
      </trkpt>
      <trkpt lat="4.5487270" lon="-74.2413120">
        <ele>2556.0</ele>
        <time>2018-08-11T15:52:44Z</time>
      </trkpt>
      <trkpt lat="4.5486870" lon="-74.2413450">
        <ele>2556.0</ele>
        <time>2018-08-11T15:52:45Z</time>
      </trkpt>
      <trkpt lat="4.5486480" lon="-74.2413800">
        <ele>2556.0</ele>
        <time>2018-08-11T15:52:46Z</time>
      </trkpt>
      <trkpt lat="4.5486100" lon="-74.2414170">
        <ele>2555.9</ele>
        <time>2018-08-11T15:52:47Z</time>
      </trkpt>
      <trkpt lat="4.5485700" lon="-74.2414530">
        <ele>2555.9</ele>
        <time>2018-08-11T15:52:48Z</time>
      </trkpt>
      <trkpt lat="4.5485280" lon="-74.2414920">
        <ele>2555.9</ele>
        <time>2018-08-11T15:52:49Z</time>
      </trkpt>
      <trkpt lat="4.5484850" lon="-74.2415250">
        <ele>2555.9</ele>
        <time>2018-08-11T15:52:50Z</time>
      </trkpt>
      <trkpt lat="4.5484380" lon="-74.2415600">
        <ele>2555.9</ele>
        <time>2018-08-11T15:52:51Z</time>
      </trkpt>
      <trkpt lat="4.5483930" lon="-74.2415920">
        <ele>2555.9</ele>
        <time>2018-08-11T15:52:52Z</time>
      </trkpt>
      <trkpt lat="4.5483520" lon="-74.2416230">
        <ele>2556.0</ele>
        <time>2018-08-11T15:52:53Z</time>
      </trkpt>
      <trkpt lat="4.5483120" lon="-74.2416600">
        <ele>2556.0</ele>
        <time>2018-08-11T15:52:54Z</time>
      </trkpt>
      <trkpt lat="4.5482720" lon="-74.2416950">
        <ele>2556.0</ele>
        <time>2018-08-11T15:52:55Z</time>
      </trkpt>
      <trkpt lat="4.5482330" lon="-74.2417300">
        <ele>2556.0</ele>
        <time>2018-08-11T15:52:56Z</time>
      </trkpt>
      <trkpt lat="4.5481970" lon="-74.2417620">
        <ele>2555.9</ele>
        <time>2018-08-11T15:52:57Z</time>
      </trkpt>
      <trkpt lat="4.5481580" lon="-74.2417970">
        <ele>2555.9</ele>
        <time>2018-08-11T15:52:58Z</time>
      </trkpt>
      <trkpt lat="4.5481200" lon="-74.2418280">
        <ele>2555.9</ele>
        <time>2018-08-11T15:52:59Z</time>
      </trkpt>
      <trkpt lat="4.5480770" lon="-74.2418600">
        <ele>2555.9</ele>
        <time>2018-08-11T15:53:00Z</time>
      </trkpt>
      <trkpt lat="4.5480400" lon="-74.2418980">
        <ele>2555.9</ele>
        <time>2018-08-11T15:53:01Z</time>
      </trkpt>
      <trkpt lat="4.5479980" lon="-74.2419330">
        <ele>2555.9</ele>
        <time>2018-08-11T15:53:02Z</time>
      </trkpt>
      <trkpt lat="4.5479600" lon="-74.2419720">
        <ele>2555.9</ele>
        <time>2018-08-11T15:53:03Z</time>
      </trkpt>
      <trkpt lat="4.5479200" lon="-74.2420080">
        <ele>2555.8</ele>
        <time>2018-08-11T15:53:04Z</time>
      </trkpt>
      <trkpt lat="4.5478800" lon="-74.2420430">
        <ele>2555.7</ele>
        <time>2018-08-11T15:53:05Z</time>
      </trkpt>
      <trkpt lat="4.5478380" lon="-74.2420800">
        <ele>2555.6</ele>
        <time>2018-08-11T15:53:06Z</time>
      </trkpt>
      <trkpt lat="4.5477930" lon="-74.2421180">
        <ele>2555.5</ele>
        <time>2018-08-11T15:53:07Z</time>
      </trkpt>
      <trkpt lat="4.5477480" lon="-74.2421570">
        <ele>2555.4</ele>
        <time>2018-08-11T15:53:08Z</time>
      </trkpt>
      <trkpt lat="4.5477080" lon="-74.2421970">
        <ele>2555.4</ele>
        <time>2018-08-11T15:53:09Z</time>
      </trkpt>
      <trkpt lat="4.5476650" lon="-74.2422370">
        <ele>2555.3</ele>
        <time>2018-08-11T15:53:10Z</time>
      </trkpt>
      <trkpt lat="4.5476200" lon="-74.2422750">
        <ele>2555.3</ele>
        <time>2018-08-11T15:53:11Z</time>
      </trkpt>
      <trkpt lat="4.5475750" lon="-74.2423130">
        <ele>2555.3</ele>
        <time>2018-08-11T15:53:12Z</time>
      </trkpt>
      <trkpt lat="4.5475280" lon="-74.2423500">
        <ele>2555.3</ele>
        <time>2018-08-11T15:53:13Z</time>
      </trkpt>
      <trkpt lat="4.5474720" lon="-74.2423830">
        <ele>2555.2</ele>
        <time>2018-08-11T15:53:14Z</time>
      </trkpt>
      <trkpt lat="4.5474250" lon="-74.2424220">
        <ele>2555.2</ele>
        <time>2018-08-11T15:53:15Z</time>
      </trkpt>
      <trkpt lat="4.5473820" lon="-74.2424630">
        <ele>2555.2</ele>
        <time>2018-08-11T15:53:16Z</time>
      </trkpt>
      <trkpt lat="4.5473350" lon="-74.2425030">
        <ele>2555.2</ele>
        <time>2018-08-11T15:53:17Z</time>
      </trkpt>
      <trkpt lat="4.5472900" lon="-74.2425430">
        <ele>2555.2</ele>
        <time>2018-08-11T15:53:18Z</time>
      </trkpt>
      <trkpt lat="4.5472470" lon="-74.2425830">
        <ele>2555.2</ele>
        <time>2018-08-11T15:53:19Z</time>
      </trkpt>
      <trkpt lat="4.5472020" lon="-74.2426200">
        <ele>2555.2</ele>
        <time>2018-08-11T15:53:20Z</time>
      </trkpt>
      <trkpt lat="4.5471530" lon="-74.2426600">
        <ele>2555.2</ele>
        <time>2018-08-11T15:53:21Z</time>
      </trkpt>
      <trkpt lat="4.5471050" lon="-74.2426980">
        <ele>2555.1</ele>
        <time>2018-08-11T15:53:22Z</time>
      </trkpt>
      <trkpt lat="4.5470550" lon="-74.2427350">
        <ele>2555.0</ele>
        <time>2018-08-11T15:53:23Z</time>
      </trkpt>
      <trkpt lat="4.5470080" lon="-74.2427730">
        <ele>2554.9</ele>
        <time>2018-08-11T15:53:24Z</time>
      </trkpt>
      <trkpt lat="4.5469670" lon="-74.2428130">
        <ele>2554.8</ele>
        <time>2018-08-11T15:53:25Z</time>
      </trkpt>
      <trkpt lat="4.5469220" lon="-74.2428520">
        <ele>2554.7</ele>
        <time>2018-08-11T15:53:26Z</time>
      </trkpt>
      <trkpt lat="4.5468780" lon="-74.2428930">
        <ele>2554.5</ele>
        <time>2018-08-11T15:53:27Z</time>
      </trkpt>
      <trkpt lat="4.5468330" lon="-74.2429330">
        <ele>2554.4</ele>
        <time>2018-08-11T15:53:28Z</time>
      </trkpt>
      <trkpt lat="4.5467870" lon="-74.2429720">
        <ele>2554.3</ele>
        <time>2018-08-11T15:53:29Z</time>
      </trkpt>
      <trkpt lat="4.5467380" lon="-74.2430120">
        <ele>2554.2</ele>
        <time>2018-08-11T15:53:30Z</time>
      </trkpt>
      <trkpt lat="4.5466900" lon="-74.2430530">
        <ele>2554.1</ele>
        <time>2018-08-11T15:53:31Z</time>
      </trkpt>
      <trkpt lat="4.5466420" lon="-74.2430970">
        <ele>2554.0</ele>
        <time>2018-08-11T15:53:32Z</time>
      </trkpt>
      <trkpt lat="4.5465950" lon="-74.2431400">
        <ele>2553.9</ele>
        <time>2018-08-11T15:53:33Z</time>
      </trkpt>
      <trkpt lat="4.5465480" lon="-74.2431820">
        <ele>2553.7</ele>
        <time>2018-08-11T15:53:34Z</time>
      </trkpt>
      <trkpt lat="4.5465020" lon="-74.2432220">
        <ele>2553.6</ele>
        <time>2018-08-11T15:53:35Z</time>
      </trkpt>
      <trkpt lat="4.5464550" lon="-74.2432630">
        <ele>2553.5</ele>
        <time>2018-08-11T15:53:36Z</time>
      </trkpt>
      <trkpt lat="4.5464080" lon="-74.2433020">
        <ele>2553.4</ele>
        <time>2018-08-11T15:53:37Z</time>
      </trkpt>
      <trkpt lat="4.5463650" lon="-74.2433420">
        <ele>2553.3</ele>
        <time>2018-08-11T15:53:38Z</time>
      </trkpt>
      <trkpt lat="4.5463170" lon="-74.2433820">
        <ele>2553.2</ele>
        <time>2018-08-11T15:53:39Z</time>
      </trkpt>
      <trkpt lat="4.5462700" lon="-74.2434180">
        <ele>2553.2</ele>
        <time>2018-08-11T15:53:40Z</time>
      </trkpt>
      <trkpt lat="4.5462230" lon="-74.2434570">
        <ele>2553.1</ele>
        <time>2018-08-11T15:53:41Z</time>
      </trkpt>
      <trkpt lat="4.5461750" lon="-74.2434980">
        <ele>2553.1</ele>
        <time>2018-08-11T15:53:42Z</time>
      </trkpt>
      <trkpt lat="4.5461250" lon="-74.2435400">
        <ele>2553.0</ele>
        <time>2018-08-11T15:53:43Z</time>
      </trkpt>
      <trkpt lat="4.5460770" lon="-74.2435800">
        <ele>2553.0</ele>
        <time>2018-08-11T15:53:44Z</time>
      </trkpt>
      <trkpt lat="4.5460150" lon="-74.2436100">
        <ele>2552.9</ele>
        <time>2018-08-11T15:53:45Z</time>
      </trkpt>
      <trkpt lat="4.5459630" lon="-74.2436450">
        <ele>2552.9</ele>
        <time>2018-08-11T15:53:46Z</time>
      </trkpt>
      <trkpt lat="4.5459130" lon="-74.2436830">
        <ele>2552.8</ele>
        <time>2018-08-11T15:53:47Z</time>
      </trkpt>
      <trkpt lat="4.5458620" lon="-74.2437200">
        <ele>2552.7</ele>
        <time>2018-08-11T15:53:48Z</time>
      </trkpt>
      <trkpt lat="4.5458130" lon="-74.2437570">
        <ele>2552.6</ele>
        <time>2018-08-11T15:53:49Z</time>
      </trkpt>
      <trkpt lat="4.5457620" lon="-74.2437950">
        <ele>2552.4</ele>
        <time>2018-08-11T15:53:50Z</time>
      </trkpt>
      <trkpt lat="4.5457070" lon="-74.2438320">
        <ele>2552.3</ele>
        <time>2018-08-11T15:53:51Z</time>
      </trkpt>
      <trkpt lat="4.5456550" lon="-74.2438720">
        <ele>2552.2</ele>
        <time>2018-08-11T15:53:52Z</time>
      </trkpt>
      <trkpt lat="4.5456000" lon="-74.2439130">
        <ele>2552.1</ele>
        <time>2018-08-11T15:53:53Z</time>
      </trkpt>
      <trkpt lat="4.5455450" lon="-74.2439550">
        <ele>2552.0</ele>
        <time>2018-08-11T15:53:54Z</time>
      </trkpt>
      <trkpt lat="4.5454880" lon="-74.2439950">
        <ele>2552.3</ele>
        <time>2018-08-11T15:53:55Z</time>
      </trkpt>
      <trkpt lat="4.5454300" lon="-74.2440350">
        <ele>2552.5</ele>
        <time>2018-08-11T15:53:56Z</time>
      </trkpt>
      <trkpt lat="4.5453750" lon="-74.2440770">
        <ele>2552.7</ele>
        <time>2018-08-11T15:53:57Z</time>
      </trkpt>
      <trkpt lat="4.5453270" lon="-74.2441170">
        <ele>2552.8</ele>
        <time>2018-08-11T15:53:58Z</time>
      </trkpt>
      <trkpt lat="4.5452780" lon="-74.2441570">
        <ele>2553.0</ele>
        <time>2018-08-11T15:53:59Z</time>
      </trkpt>
      <trkpt lat="4.5452350" lon="-74.2441980">
        <ele>2553.1</ele>
        <time>2018-08-11T15:54:00Z</time>
      </trkpt>
      <trkpt lat="4.5451900" lon="-74.2442380">
        <ele>2553.3</ele>
        <time>2018-08-11T15:54:01Z</time>
      </trkpt>
      <trkpt lat="4.5451430" lon="-74.2442750">
        <ele>2553.4</ele>
        <time>2018-08-11T15:54:02Z</time>
      </trkpt>
      <trkpt lat="4.5450920" lon="-74.2443120">
        <ele>2553.5</ele>
        <time>2018-08-11T15:54:03Z</time>
      </trkpt>
      <trkpt lat="4.5450420" lon="-74.2443520">
        <ele>2553.7</ele>
        <time>2018-08-11T15:54:04Z</time>
      </trkpt>
      <trkpt lat="4.5449980" lon="-74.2443880">
        <ele>2553.8</ele>
        <time>2018-08-11T15:54:05Z</time>
      </trkpt>
      <trkpt lat="4.5449550" lon="-74.2444220">
        <ele>2553.8</ele>
        <time>2018-08-11T15:54:06Z</time>
      </trkpt>
      <trkpt lat="4.5449100" lon="-74.2444570">
        <ele>2553.9</ele>
        <time>2018-08-11T15:54:07Z</time>
      </trkpt>
      <trkpt lat="4.5448620" lon="-74.2444920">
        <ele>2554.1</ele>
        <time>2018-08-11T15:54:08Z</time>
      </trkpt>
      <trkpt lat="4.5448150" lon="-74.2445280">
        <ele>2554.2</ele>
        <time>2018-08-11T15:54:09Z</time>
      </trkpt>
      <trkpt lat="4.5447670" lon="-74.2445670">
        <ele>2554.3</ele>
        <time>2018-08-11T15:54:10Z</time>
      </trkpt>
      <trkpt lat="4.5447200" lon="-74.2446070">
        <ele>2554.5</ele>
        <time>2018-08-11T15:54:11Z</time>
      </trkpt>
      <trkpt lat="4.5446700" lon="-74.2446430">
        <ele>2554.7</ele>
        <time>2018-08-11T15:54:12Z</time>
      </trkpt>
      <trkpt lat="4.5446220" lon="-74.2446850">
        <ele>2554.9</ele>
        <time>2018-08-11T15:54:13Z</time>
      </trkpt>
      <trkpt lat="4.5445750" lon="-74.2447250">
        <ele>2555.0</ele>
        <time>2018-08-11T15:54:14Z</time>
      </trkpt>
      <trkpt lat="4.5445320" lon="-74.2447700">
        <ele>2555.2</ele>
        <time>2018-08-11T15:54:15Z</time>
      </trkpt>
      <trkpt lat="4.5444700" lon="-74.2448000">
        <ele>2555.4</ele>
        <time>2018-08-11T15:54:16Z</time>
      </trkpt>
      <trkpt lat="4.5444170" lon="-74.2448350">
        <ele>2555.5</ele>
        <time>2018-08-11T15:54:17Z</time>
      </trkpt>
      <trkpt lat="4.5443680" lon="-74.2448750">
        <ele>2555.7</ele>
        <time>2018-08-11T15:54:18Z</time>
      </trkpt>
      <trkpt lat="4.5443170" lon="-74.2449130">
        <ele>2555.8</ele>
        <time>2018-08-11T15:54:19Z</time>
      </trkpt>
      <trkpt lat="4.5442780" lon="-74.2449620">
        <ele>2555.9</ele>
        <time>2018-08-11T15:54:20Z</time>
      </trkpt>
      <trkpt lat="4.5442280" lon="-74.2450050">
        <ele>2556.0</ele>
        <time>2018-08-11T15:54:21Z</time>
      </trkpt>
      <trkpt lat="4.5441800" lon="-74.2450470">
        <ele>2556.2</ele>
        <time>2018-08-11T15:54:22Z</time>
      </trkpt>
      <trkpt lat="4.5441270" lon="-74.2450880">
        <ele>2556.3</ele>
        <time>2018-08-11T15:54:23Z</time>
      </trkpt>
      <trkpt lat="4.5440730" lon="-74.2451280">
        <ele>2556.5</ele>
        <time>2018-08-11T15:54:24Z</time>
      </trkpt>
      <trkpt lat="4.5440200" lon="-74.2451680">
        <ele>2556.6</ele>
        <time>2018-08-11T15:54:25Z</time>
      </trkpt>
      <trkpt lat="4.5439650" lon="-74.2452050">
        <ele>2556.8</ele>
        <time>2018-08-11T15:54:26Z</time>
      </trkpt>
      <trkpt lat="4.5439130" lon="-74.2452450">
        <ele>2556.9</ele>
        <time>2018-08-11T15:54:27Z</time>
      </trkpt>
      <trkpt lat="4.5438600" lon="-74.2452880">
        <ele>2557.0</ele>
        <time>2018-08-11T15:54:28Z</time>
      </trkpt>
      <trkpt lat="4.5438080" lon="-74.2453300">
        <ele>2557.1</ele>
        <time>2018-08-11T15:54:29Z</time>
      </trkpt>
      <trkpt lat="4.5437500" lon="-74.2453680">
        <ele>2557.2</ele>
        <time>2018-08-11T15:54:30Z</time>
      </trkpt>
      <trkpt lat="4.5436950" lon="-74.2454070">
        <ele>2557.3</ele>
        <time>2018-08-11T15:54:31Z</time>
      </trkpt>
      <trkpt lat="4.5436400" lon="-74.2454470">
        <ele>2557.5</ele>
        <time>2018-08-11T15:54:32Z</time>
      </trkpt>
      <trkpt lat="4.5435880" lon="-74.2454900">
        <ele>2557.6</ele>
        <time>2018-08-11T15:54:33Z</time>
      </trkpt>
      <trkpt lat="4.5435300" lon="-74.2455270">
        <ele>2557.7</ele>
        <time>2018-08-11T15:54:34Z</time>
      </trkpt>
      <trkpt lat="4.5434730" lon="-74.2455680">
        <ele>2557.8</ele>
        <time>2018-08-11T15:54:35Z</time>
      </trkpt>
      <trkpt lat="4.5434200" lon="-74.2456100">
        <ele>2557.9</ele>
        <time>2018-08-11T15:54:36Z</time>
      </trkpt>
      <trkpt lat="4.5433680" lon="-74.2456530">
        <ele>2558.0</ele>
        <time>2018-08-11T15:54:37Z</time>
      </trkpt>
      <trkpt lat="4.5433150" lon="-74.2456950">
        <ele>2558.0</ele>
        <time>2018-08-11T15:54:38Z</time>
      </trkpt>
      <trkpt lat="4.5432600" lon="-74.2457420">
        <ele>2558.2</ele>
        <time>2018-08-11T15:54:39Z</time>
      </trkpt>
      <trkpt lat="4.5432050" lon="-74.2457830">
        <ele>2558.3</ele>
        <time>2018-08-11T15:54:40Z</time>
      </trkpt>
      <trkpt lat="4.5431480" lon="-74.2458270">
        <ele>2558.4</ele>
        <time>2018-08-11T15:54:41Z</time>
      </trkpt>
      <trkpt lat="4.5430900" lon="-74.2458670">
        <ele>2558.5</ele>
        <time>2018-08-11T15:54:42Z</time>
      </trkpt>
      <trkpt lat="4.5430330" lon="-74.2459100">
        <ele>2558.6</ele>
        <time>2018-08-11T15:54:43Z</time>
      </trkpt>
      <trkpt lat="4.5429800" lon="-74.2459550">
        <ele>2558.7</ele>
        <time>2018-08-11T15:54:44Z</time>
      </trkpt>
      <trkpt lat="4.5429270" lon="-74.2460000">
        <ele>2558.8</ele>
        <time>2018-08-11T15:54:45Z</time>
      </trkpt>
      <trkpt lat="4.5428750" lon="-74.2460430">
        <ele>2558.9</ele>
        <time>2018-08-11T15:54:46Z</time>
      </trkpt>
      <trkpt lat="4.5428180" lon="-74.2460800">
        <ele>2559.0</ele>
        <time>2018-08-11T15:54:47Z</time>
      </trkpt>
      <trkpt lat="4.5427670" lon="-74.2461230">
        <ele>2559.2</ele>
        <time>2018-08-11T15:54:48Z</time>
      </trkpt>
      <trkpt lat="4.5427150" lon="-74.2461670">
        <ele>2559.4</ele>
        <time>2018-08-11T15:54:49Z</time>
      </trkpt>
      <trkpt lat="4.5426650" lon="-74.2462130">
        <ele>2559.7</ele>
        <time>2018-08-11T15:54:50Z</time>
      </trkpt>
      <trkpt lat="4.5426180" lon="-74.2462600">
        <ele>2560.0</ele>
        <time>2018-08-11T15:54:51Z</time>
      </trkpt>
      <trkpt lat="4.5425720" lon="-74.2463070">
        <ele>2560.2</ele>
        <time>2018-08-11T15:54:52Z</time>
      </trkpt>
      <trkpt lat="4.5425280" lon="-74.2463520">
        <ele>2560.5</ele>
        <time>2018-08-11T15:54:53Z</time>
      </trkpt>
      <trkpt lat="4.5424880" lon="-74.2464020">
        <ele>2560.8</ele>
        <time>2018-08-11T15:54:54Z</time>
      </trkpt>
      <trkpt lat="4.5424520" lon="-74.2464530">
        <ele>2561.2</ele>
        <time>2018-08-11T15:54:55Z</time>
      </trkpt>
      <trkpt lat="4.5424150" lon="-74.2465080">
        <ele>2561.5</ele>
        <time>2018-08-11T15:54:56Z</time>
      </trkpt>
      <trkpt lat="4.5423720" lon="-74.2465630">
        <ele>2561.7</ele>
        <time>2018-08-11T15:54:57Z</time>
      </trkpt>
      <trkpt lat="4.5423300" lon="-74.2466180">
        <ele>2562.0</ele>
        <time>2018-08-11T15:54:58Z</time>
      </trkpt>
      <trkpt lat="4.5422930" lon="-74.2466720">
        <ele>2562.3</ele>
        <time>2018-08-11T15:54:59Z</time>
      </trkpt>
      <trkpt lat="4.5422550" lon="-74.2467250">
        <ele>2562.6</ele>
        <time>2018-08-11T15:55:00Z</time>
      </trkpt>
      <trkpt lat="4.5422180" lon="-74.2467800">
        <ele>2563.0</ele>
        <time>2018-08-11T15:55:01Z</time>
      </trkpt>
      <trkpt lat="4.5421820" lon="-74.2468370">
        <ele>2562.9</ele>
        <time>2018-08-11T15:55:02Z</time>
      </trkpt>
      <trkpt lat="4.5421470" lon="-74.2468950">
        <ele>2562.9</ele>
        <time>2018-08-11T15:55:03Z</time>
      </trkpt>
      <trkpt lat="4.5421100" lon="-74.2469520">
        <ele>2562.9</ele>
        <time>2018-08-11T15:55:04Z</time>
      </trkpt>
      <trkpt lat="4.5420730" lon="-74.2470120">
        <ele>2562.8</ele>
        <time>2018-08-11T15:55:05Z</time>
      </trkpt>
      <trkpt lat="4.5420380" lon="-74.2470700">
        <ele>2562.8</ele>
        <time>2018-08-11T15:55:06Z</time>
      </trkpt>
      <trkpt lat="4.5420080" lon="-74.2471300">
        <ele>2562.9</ele>
        <time>2018-08-11T15:55:07Z</time>
      </trkpt>
      <trkpt lat="4.5419770" lon="-74.2471880">
        <ele>2562.9</ele>
        <time>2018-08-11T15:55:08Z</time>
      </trkpt>
      <trkpt lat="4.5419450" lon="-74.2472480">
        <ele>2563.1</ele>
        <time>2018-08-11T15:55:09Z</time>
      </trkpt>
      <trkpt lat="4.5419180" lon="-74.2473050">
        <ele>2563.2</ele>
        <time>2018-08-11T15:55:10Z</time>
      </trkpt>
      <trkpt lat="4.5418880" lon="-74.2473620">
        <ele>2563.3</ele>
        <time>2018-08-11T15:55:11Z</time>
      </trkpt>
      <trkpt lat="4.5418600" lon="-74.2474220">
        <ele>2563.5</ele>
        <time>2018-08-11T15:55:12Z</time>
      </trkpt>
      <trkpt lat="4.5418380" lon="-74.2474820">
        <ele>2563.6</ele>
        <time>2018-08-11T15:55:13Z</time>
      </trkpt>
      <trkpt lat="4.5418170" lon="-74.2475420">
        <ele>2563.7</ele>
        <time>2018-08-11T15:55:14Z</time>
      </trkpt>
      <trkpt lat="4.5417970" lon="-74.2476050">
        <ele>2563.8</ele>
        <time>2018-08-11T15:55:15Z</time>
      </trkpt>
      <trkpt lat="4.5417770" lon="-74.2476680">
        <ele>2563.9</ele>
        <time>2018-08-11T15:55:16Z</time>
      </trkpt>
      <trkpt lat="4.5417600" lon="-74.2477300">
        <ele>2563.9</ele>
        <time>2018-08-11T15:55:17Z</time>
      </trkpt>
      <trkpt lat="4.5417370" lon="-74.2477880">
        <ele>2564.0</ele>
        <time>2018-08-11T15:55:18Z</time>
      </trkpt>
      <trkpt lat="4.5417230" lon="-74.2478520">
        <ele>2564.0</ele>
        <time>2018-08-11T15:55:19Z</time>
      </trkpt>
      <trkpt lat="4.5417120" lon="-74.2479130">
        <ele>2564.1</ele>
        <time>2018-08-11T15:55:20Z</time>
      </trkpt>
      <trkpt lat="4.5416970" lon="-74.2479770">
        <ele>2564.2</ele>
        <time>2018-08-11T15:55:21Z</time>
      </trkpt>
      <trkpt lat="4.5416880" lon="-74.2480380">
        <ele>2564.3</ele>
        <time>2018-08-11T15:55:22Z</time>
      </trkpt>
      <trkpt lat="4.5416780" lon="-74.2481020">
        <ele>2564.4</ele>
        <time>2018-08-11T15:55:23Z</time>
      </trkpt>
      <trkpt lat="4.5416650" lon="-74.2481680">
        <ele>2564.5</ele>
        <time>2018-08-11T15:55:24Z</time>
      </trkpt>
      <trkpt lat="4.5416550" lon="-74.2482320">
        <ele>2564.6</ele>
        <time>2018-08-11T15:55:25Z</time>
      </trkpt>
      <trkpt lat="4.5416500" lon="-74.2482970">
        <ele>2564.7</ele>
        <time>2018-08-11T15:55:26Z</time>
      </trkpt>
      <trkpt lat="4.5416450" lon="-74.2483580">
        <ele>2564.7</ele>
        <time>2018-08-11T15:55:27Z</time>
      </trkpt>
      <trkpt lat="4.5416370" lon="-74.2484220">
        <ele>2564.8</ele>
        <time>2018-08-11T15:55:28Z</time>
      </trkpt>
      <trkpt lat="4.5416330" lon="-74.2484880">
        <ele>2564.9</ele>
        <time>2018-08-11T15:55:29Z</time>
      </trkpt>
      <trkpt lat="4.5416300" lon="-74.2485530">
        <ele>2565.0</ele>
        <time>2018-08-11T15:55:30Z</time>
      </trkpt>
      <trkpt lat="4.5416300" lon="-74.2486200">
        <ele>2565.1</ele>
        <time>2018-08-11T15:55:31Z</time>
      </trkpt>
      <trkpt lat="4.5416320" lon="-74.2486870">
        <ele>2565.2</ele>
        <time>2018-08-11T15:55:32Z</time>
      </trkpt>
      <trkpt lat="4.5416320" lon="-74.2487550">
        <ele>2565.4</ele>
        <time>2018-08-11T15:55:33Z</time>
      </trkpt>
      <trkpt lat="4.5416320" lon="-74.2488230">
        <ele>2565.4</ele>
        <time>2018-08-11T15:55:34Z</time>
      </trkpt>
      <trkpt lat="4.5416300" lon="-74.2488920">
        <ele>2565.5</ele>
        <time>2018-08-11T15:55:35Z</time>
      </trkpt>
      <trkpt lat="4.5416280" lon="-74.2489620">
        <ele>2565.6</ele>
        <time>2018-08-11T15:55:36Z</time>
      </trkpt>
      <trkpt lat="4.5416270" lon="-74.2490320">
        <ele>2565.6</ele>
        <time>2018-08-11T15:55:37Z</time>
      </trkpt>
      <trkpt lat="4.5416270" lon="-74.2491020">
        <ele>2565.7</ele>
        <time>2018-08-11T15:55:38Z</time>
      </trkpt>
      <trkpt lat="4.5416250" lon="-74.2491720">
        <ele>2565.7</ele>
        <time>2018-08-11T15:55:39Z</time>
      </trkpt>
      <trkpt lat="4.5416230" lon="-74.2492370">
        <ele>2565.8</ele>
        <time>2018-08-11T15:55:40Z</time>
      </trkpt>
      <trkpt lat="4.5416220" lon="-74.2493030">
        <ele>2565.9</ele>
        <time>2018-08-11T15:55:41Z</time>
      </trkpt>
      <trkpt lat="4.5416220" lon="-74.2493700">
        <ele>2565.9</ele>
        <time>2018-08-11T15:55:42Z</time>
      </trkpt>
      <trkpt lat="4.5416200" lon="-74.2494370">
        <ele>2566.1</ele>
        <time>2018-08-11T15:55:43Z</time>
      </trkpt>
      <trkpt lat="4.5416170" lon="-74.2495050">
        <ele>2566.2</ele>
        <time>2018-08-11T15:55:44Z</time>
      </trkpt>
      <trkpt lat="4.5416150" lon="-74.2495730">
        <ele>2566.3</ele>
        <time>2018-08-11T15:55:45Z</time>
      </trkpt>
      <trkpt lat="4.5416130" lon="-74.2496380">
        <ele>2566.4</ele>
        <time>2018-08-11T15:55:46Z</time>
      </trkpt>
      <trkpt lat="4.5416130" lon="-74.2497070">
        <ele>2566.5</ele>
        <time>2018-08-11T15:55:47Z</time>
      </trkpt>
      <trkpt lat="4.5416120" lon="-74.2497720">
        <ele>2566.6</ele>
        <time>2018-08-11T15:55:48Z</time>
      </trkpt>
      <trkpt lat="4.5416100" lon="-74.2498370">
        <ele>2566.7</ele>
        <time>2018-08-11T15:55:49Z</time>
      </trkpt>
      <trkpt lat="4.5416120" lon="-74.2498980">
        <ele>2566.7</ele>
        <time>2018-08-11T15:55:50Z</time>
      </trkpt>
      <trkpt lat="4.5416120" lon="-74.2499600">
        <ele>2566.8</ele>
        <time>2018-08-11T15:55:51Z</time>
      </trkpt>
      <trkpt lat="4.5416100" lon="-74.2500230">
        <ele>2566.9</ele>
        <time>2018-08-11T15:55:52Z</time>
      </trkpt>
      <trkpt lat="4.5416070" lon="-74.2500870">
        <ele>2566.9</ele>
        <time>2018-08-11T15:55:53Z</time>
      </trkpt>
      <trkpt lat="4.5416020" lon="-74.2501520">
        <ele>2567.0</ele>
        <time>2018-08-11T15:55:54Z</time>
      </trkpt>
      <trkpt lat="4.5415970" lon="-74.2502130">
        <ele>2567.0</ele>
        <time>2018-08-11T15:55:55Z</time>
      </trkpt>
      <trkpt lat="4.5415900" lon="-74.2502750">
        <ele>2567.1</ele>
        <time>2018-08-11T15:55:56Z</time>
      </trkpt>
      <trkpt lat="4.5415850" lon="-74.2503370">
        <ele>2567.2</ele>
        <time>2018-08-11T15:55:57Z</time>
      </trkpt>
      <trkpt lat="4.5415830" lon="-74.2503970">
        <ele>2567.2</ele>
        <time>2018-08-11T15:55:58Z</time>
      </trkpt>
      <trkpt lat="4.5415830" lon="-74.2504570">
        <ele>2567.2</ele>
        <time>2018-08-11T15:55:59Z</time>
      </trkpt>
      <trkpt lat="4.5415830" lon="-74.2505200">
        <ele>2567.2</ele>
        <time>2018-08-11T15:56:00Z</time>
      </trkpt>
      <trkpt lat="4.5415850" lon="-74.2505820">
        <ele>2567.2</ele>
        <time>2018-08-11T15:56:01Z</time>
      </trkpt>
      <trkpt lat="4.5415870" lon="-74.2506470">
        <ele>2567.2</ele>
        <time>2018-08-11T15:56:02Z</time>
      </trkpt>
      <trkpt lat="4.5415870" lon="-74.2507120">
        <ele>2567.3</ele>
        <time>2018-08-11T15:56:03Z</time>
      </trkpt>
      <trkpt lat="4.5415830" lon="-74.2507780">
        <ele>2567.4</ele>
        <time>2018-08-11T15:56:04Z</time>
      </trkpt>
      <trkpt lat="4.5415820" lon="-74.2508430">
        <ele>2567.5</ele>
        <time>2018-08-11T15:56:05Z</time>
      </trkpt>
      <trkpt lat="4.5415780" lon="-74.2509100">
        <ele>2567.6</ele>
        <time>2018-08-11T15:56:06Z</time>
      </trkpt>
      <trkpt lat="4.5415770" lon="-74.2509770">
        <ele>2567.7</ele>
        <time>2018-08-11T15:56:07Z</time>
      </trkpt>
      <trkpt lat="4.5415780" lon="-74.2510350">
        <ele>2567.7</ele>
        <time>2018-08-11T15:56:08Z</time>
      </trkpt>
      <trkpt lat="4.5415800" lon="-74.2511020">
        <ele>2567.7</ele>
        <time>2018-08-11T15:56:09Z</time>
      </trkpt>
      <trkpt lat="4.5415800" lon="-74.2511700">
        <ele>2567.7</ele>
        <time>2018-08-11T15:56:10Z</time>
      </trkpt>
      <trkpt lat="4.5415780" lon="-74.2512350">
        <ele>2567.7</ele>
        <time>2018-08-11T15:56:11Z</time>
      </trkpt>
      <trkpt lat="4.5415780" lon="-74.2512950">
        <ele>2567.7</ele>
        <time>2018-08-11T15:56:12Z</time>
      </trkpt>
      <trkpt lat="4.5415800" lon="-74.2513370">
        <ele>2567.7</ele>
        <time>2018-08-11T15:56:13Z</time>
      </trkpt>
      <trkpt lat="4.5415780" lon="-74.2513730">
        <ele>2567.7</ele>
        <time>2018-08-11T15:56:15Z</time>
      </trkpt>
      <trkpt lat="4.5415720" lon="-74.2513370">
        <ele>2567.7</ele>
        <time>2018-08-11T15:56:22Z</time>
      </trkpt>
      <trkpt lat="4.5415770" lon="-74.2513050">
        <ele>2567.6</ele>
        <time>2018-08-11T15:56:25Z</time>
      </trkpt>
      <trkpt lat="4.5415750" lon="-74.2513500">
        <ele>2567.6</ele>
        <time>2018-08-11T15:56:34Z</time>
      </trkpt>
      <trkpt lat="4.5415750" lon="-74.2514000">
        <ele>2567.6</ele>
        <time>2018-08-11T15:56:36Z</time>
      </trkpt>
      <trkpt lat="4.5415750" lon="-74.2514330">
        <ele>2567.6</ele>
        <time>2018-08-11T15:56:37Z</time>
      </trkpt>
      <trkpt lat="4.5415730" lon="-74.2514680">
        <ele>2567.6</ele>
        <time>2018-08-11T15:56:38Z</time>
      </trkpt>
      <trkpt lat="4.5415720" lon="-74.2515100">
        <ele>2567.6</ele>
        <time>2018-08-11T15:56:39Z</time>
      </trkpt>
      <trkpt lat="4.5415700" lon="-74.2515570">
        <ele>2567.6</ele>
        <time>2018-08-11T15:56:40Z</time>
      </trkpt>
      <trkpt lat="4.5415670" lon="-74.2516030">
        <ele>2567.6</ele>
        <time>2018-08-11T15:56:41Z</time>
      </trkpt>
      <trkpt lat="4.5415650" lon="-74.2516530">
        <ele>2567.6</ele>
        <time>2018-08-11T15:56:42Z</time>
      </trkpt>
      <trkpt lat="4.5415630" lon="-74.2517050">
        <ele>2567.7</ele>
        <time>2018-08-11T15:56:43Z</time>
      </trkpt>
      <trkpt lat="4.5415600" lon="-74.2517620">
        <ele>2567.7</ele>
        <time>2018-08-11T15:56:44Z</time>
      </trkpt>
      <trkpt lat="4.5415600" lon="-74.2518180">
        <ele>2567.7</ele>
        <time>2018-08-11T15:56:45Z</time>
      </trkpt>
      <trkpt lat="4.5415570" lon="-74.2518730">
        <ele>2567.8</ele>
        <time>2018-08-11T15:56:46Z</time>
      </trkpt>
      <trkpt lat="4.5415570" lon="-74.2519330">
        <ele>2567.8</ele>
        <time>2018-08-11T15:56:47Z</time>
      </trkpt>
      <trkpt lat="4.5415520" lon="-74.2519950">
        <ele>2567.9</ele>
        <time>2018-08-11T15:56:48Z</time>
      </trkpt>
      <trkpt lat="4.5415470" lon="-74.2520550">
        <ele>2567.9</ele>
        <time>2018-08-11T15:56:49Z</time>
      </trkpt>
      <trkpt lat="4.5415430" lon="-74.2521170">
        <ele>2567.9</ele>
        <time>2018-08-11T15:56:50Z</time>
      </trkpt>
      <trkpt lat="4.5415400" lon="-74.2521780">
        <ele>2567.9</ele>
        <time>2018-08-11T15:56:51Z</time>
      </trkpt>
      <trkpt lat="4.5415380" lon="-74.2522370">
        <ele>2567.9</ele>
        <time>2018-08-11T15:56:52Z</time>
      </trkpt>
      <trkpt lat="4.5415350" lon="-74.2522950">
        <ele>2567.9</ele>
        <time>2018-08-11T15:56:53Z</time>
      </trkpt>
      <trkpt lat="4.5415280" lon="-74.2523520">
        <ele>2567.9</ele>
        <time>2018-08-11T15:56:54Z</time>
      </trkpt>
      <trkpt lat="4.5415280" lon="-74.2524030">
        <ele>2567.8</ele>
        <time>2018-08-11T15:56:55Z</time>
      </trkpt>
      <trkpt lat="4.5415280" lon="-74.2524530">
        <ele>2567.8</ele>
        <time>2018-08-11T15:56:56Z</time>
      </trkpt>
      <trkpt lat="4.5415250" lon="-74.2525050">
        <ele>2567.8</ele>
        <time>2018-08-11T15:56:57Z</time>
      </trkpt>
      <trkpt lat="4.5415230" lon="-74.2525580">
        <ele>2567.8</ele>
        <time>2018-08-11T15:56:58Z</time>
      </trkpt>
      <trkpt lat="4.5415200" lon="-74.2526130">
        <ele>2567.8</ele>
        <time>2018-08-11T15:56:59Z</time>
      </trkpt>
      <trkpt lat="4.5415180" lon="-74.2526730">
        <ele>2567.8</ele>
        <time>2018-08-11T15:57:00Z</time>
      </trkpt>
      <trkpt lat="4.5415150" lon="-74.2527300">
        <ele>2567.8</ele>
        <time>2018-08-11T15:57:01Z</time>
      </trkpt>
      <trkpt lat="4.5415130" lon="-74.2527850">
        <ele>2567.8</ele>
        <time>2018-08-11T15:57:02Z</time>
      </trkpt>
      <trkpt lat="4.5415120" lon="-74.2528420">
        <ele>2567.8</ele>
        <time>2018-08-11T15:57:03Z</time>
      </trkpt>
      <trkpt lat="4.5415080" lon="-74.2529020">
        <ele>2567.7</ele>
        <time>2018-08-11T15:57:04Z</time>
      </trkpt>
      <trkpt lat="4.5415050" lon="-74.2529570">
        <ele>2567.7</ele>
        <time>2018-08-11T15:57:05Z</time>
      </trkpt>
      <trkpt lat="4.5414930" lon="-74.2530100">
        <ele>2567.7</ele>
        <time>2018-08-11T15:57:06Z</time>
      </trkpt>
      <trkpt lat="4.5414830" lon="-74.2530570">
        <ele>2567.7</ele>
        <time>2018-08-11T15:57:07Z</time>
      </trkpt>
      <trkpt lat="4.5414680" lon="-74.2531130">
        <ele>2567.6</ele>
        <time>2018-08-11T15:57:08Z</time>
      </trkpt>
      <trkpt lat="4.5414520" lon="-74.2531650">
        <ele>2567.6</ele>
        <time>2018-08-11T15:57:09Z</time>
      </trkpt>
      <trkpt lat="4.5414430" lon="-74.2532170">
        <ele>2567.6</ele>
        <time>2018-08-11T15:57:10Z</time>
      </trkpt>
      <trkpt lat="4.5414400" lon="-74.2532700">
        <ele>2567.6</ele>
        <time>2018-08-11T15:57:11Z</time>
      </trkpt>
      <trkpt lat="4.5414350" lon="-74.2533250">
        <ele>2567.6</ele>
        <time>2018-08-11T15:57:12Z</time>
      </trkpt>
      <trkpt lat="4.5414320" lon="-74.2533820">
        <ele>2567.6</ele>
        <time>2018-08-11T15:57:13Z</time>
      </trkpt>
      <trkpt lat="4.5414280" lon="-74.2534380">
        <ele>2567.5</ele>
        <time>2018-08-11T15:57:14Z</time>
      </trkpt>
      <trkpt lat="4.5414300" lon="-74.2534950">
        <ele>2567.5</ele>
        <time>2018-08-11T15:57:15Z</time>
      </trkpt>
      <trkpt lat="4.5414280" lon="-74.2535500">
        <ele>2567.4</ele>
        <time>2018-08-11T15:57:16Z</time>
      </trkpt>
      <trkpt lat="4.5414300" lon="-74.2536030">
        <ele>2567.4</ele>
        <time>2018-08-11T15:57:17Z</time>
      </trkpt>
      <trkpt lat="4.5414270" lon="-74.2536570">
        <ele>2567.4</ele>
        <time>2018-08-11T15:57:18Z</time>
      </trkpt>
      <trkpt lat="4.5414270" lon="-74.2537080">
        <ele>2567.3</ele>
        <time>2018-08-11T15:57:19Z</time>
      </trkpt>
      <trkpt lat="4.5414230" lon="-74.2537600">
        <ele>2567.3</ele>
        <time>2018-08-11T15:57:20Z</time>
      </trkpt>
      <trkpt lat="4.5414200" lon="-74.2538150">
        <ele>2567.3</ele>
        <time>2018-08-11T15:57:21Z</time>
      </trkpt>
      <trkpt lat="4.5414180" lon="-74.2538720">
        <ele>2567.3</ele>
        <time>2018-08-11T15:57:22Z</time>
      </trkpt>
      <trkpt lat="4.5414150" lon="-74.2539300">
        <ele>2567.3</ele>
        <time>2018-08-11T15:57:23Z</time>
      </trkpt>
      <trkpt lat="4.5414100" lon="-74.2539880">
        <ele>2567.3</ele>
        <time>2018-08-11T15:57:24Z</time>
      </trkpt>
      <trkpt lat="4.5414050" lon="-74.2540480">
        <ele>2567.3</ele>
        <time>2018-08-11T15:57:25Z</time>
      </trkpt>
      <trkpt lat="4.5414020" lon="-74.2541070">
        <ele>2567.2</ele>
        <time>2018-08-11T15:57:26Z</time>
      </trkpt>
      <trkpt lat="4.5413980" lon="-74.2541620">
        <ele>2567.2</ele>
        <time>2018-08-11T15:57:27Z</time>
      </trkpt>
      <trkpt lat="4.5413950" lon="-74.2542180">
        <ele>2567.2</ele>
        <time>2018-08-11T15:57:28Z</time>
      </trkpt>
      <trkpt lat="4.5413930" lon="-74.2542730">
        <ele>2567.1</ele>
        <time>2018-08-11T15:57:29Z</time>
      </trkpt>
      <trkpt lat="4.5413900" lon="-74.2543280">
        <ele>2567.1</ele>
        <time>2018-08-11T15:57:30Z</time>
      </trkpt>
      <trkpt lat="4.5413870" lon="-74.2543830">
        <ele>2567.0</ele>
        <time>2018-08-11T15:57:31Z</time>
      </trkpt>
      <trkpt lat="4.5413850" lon="-74.2544370">
        <ele>2566.9</ele>
        <time>2018-08-11T15:57:32Z</time>
      </trkpt>
      <trkpt lat="4.5413820" lon="-74.2544930">
        <ele>2566.9</ele>
        <time>2018-08-11T15:57:33Z</time>
      </trkpt>
      <trkpt lat="4.5413770" lon="-74.2545500">
        <ele>2566.9</ele>
        <time>2018-08-11T15:57:34Z</time>
      </trkpt>
      <trkpt lat="4.5413750" lon="-74.2546070">
        <ele>2566.8</ele>
        <time>2018-08-11T15:57:35Z</time>
      </trkpt>
      <trkpt lat="4.5413720" lon="-74.2546580">
        <ele>2566.8</ele>
        <time>2018-08-11T15:57:36Z</time>
      </trkpt>
      <trkpt lat="4.5413570" lon="-74.2547180">
        <ele>2566.7</ele>
        <time>2018-08-11T15:57:37Z</time>
      </trkpt>
      <trkpt lat="4.5413530" lon="-74.2547700">
        <ele>2566.7</ele>
        <time>2018-08-11T15:57:38Z</time>
      </trkpt>
      <trkpt lat="4.5413480" lon="-74.2548250">
        <ele>2566.6</ele>
        <time>2018-08-11T15:57:39Z</time>
      </trkpt>
      <trkpt lat="4.5413450" lon="-74.2548780">
        <ele>2566.6</ele>
        <time>2018-08-11T15:57:40Z</time>
      </trkpt>
      <trkpt lat="4.5413420" lon="-74.2549300">
        <ele>2566.5</ele>
        <time>2018-08-11T15:57:41Z</time>
      </trkpt>
      <trkpt lat="4.5413400" lon="-74.2549830">
        <ele>2566.5</ele>
        <time>2018-08-11T15:57:42Z</time>
      </trkpt>
      <trkpt lat="4.5413380" lon="-74.2550380">
        <ele>2566.5</ele>
        <time>2018-08-11T15:57:43Z</time>
      </trkpt>
      <trkpt lat="4.5413350" lon="-74.2550900">
        <ele>2566.4</ele>
        <time>2018-08-11T15:57:44Z</time>
      </trkpt>
      <trkpt lat="4.5413330" lon="-74.2551400">
        <ele>2566.4</ele>
        <time>2018-08-11T15:57:45Z</time>
      </trkpt>
      <trkpt lat="4.5413330" lon="-74.2551920">
        <ele>2566.3</ele>
        <time>2018-08-11T15:57:46Z</time>
      </trkpt>
      <trkpt lat="4.5413300" lon="-74.2552480">
        <ele>2566.2</ele>
        <time>2018-08-11T15:57:47Z</time>
      </trkpt>
      <trkpt lat="4.5413270" lon="-74.2553030">
        <ele>2566.1</ele>
        <time>2018-08-11T15:57:48Z</time>
      </trkpt>
      <trkpt lat="4.5413220" lon="-74.2553570">
        <ele>2566.1</ele>
        <time>2018-08-11T15:57:49Z</time>
      </trkpt>
      <trkpt lat="4.5413200" lon="-74.2554100">
        <ele>2566.0</ele>
        <time>2018-08-11T15:57:50Z</time>
      </trkpt>
      <trkpt lat="4.5413200" lon="-74.2554630">
        <ele>2566.2</ele>
        <time>2018-08-11T15:57:51Z</time>
      </trkpt>
      <trkpt lat="4.5413180" lon="-74.2555130">
        <ele>2566.3</ele>
        <time>2018-08-11T15:57:52Z</time>
      </trkpt>
      <trkpt lat="4.5413170" lon="-74.2555670">
        <ele>2566.5</ele>
        <time>2018-08-11T15:57:53Z</time>
      </trkpt>
      <trkpt lat="4.5413150" lon="-74.2556230">
        <ele>2566.8</ele>
        <time>2018-08-11T15:57:54Z</time>
      </trkpt>
      <trkpt lat="4.5413130" lon="-74.2556800">
        <ele>2567.0</ele>
        <time>2018-08-11T15:57:55Z</time>
      </trkpt>
      <trkpt lat="4.5413100" lon="-74.2557350">
        <ele>2567.3</ele>
        <time>2018-08-11T15:57:56Z</time>
      </trkpt>
      <trkpt lat="4.5413080" lon="-74.2557920">
        <ele>2567.5</ele>
        <time>2018-08-11T15:57:57Z</time>
      </trkpt>
      <trkpt lat="4.5413070" lon="-74.2558420">
        <ele>2567.7</ele>
        <time>2018-08-11T15:57:58Z</time>
      </trkpt>
      <trkpt lat="4.5413050" lon="-74.2558920">
        <ele>2567.9</ele>
        <time>2018-08-11T15:57:59Z</time>
      </trkpt>
      <trkpt lat="4.5413030" lon="-74.2559400">
        <ele>2568.0</ele>
        <time>2018-08-11T15:58:00Z</time>
      </trkpt>
      <trkpt lat="4.5413020" lon="-74.2559920">
        <ele>2568.1</ele>
        <time>2018-08-11T15:58:01Z</time>
      </trkpt>
      <trkpt lat="4.5412980" lon="-74.2560450">
        <ele>2568.2</ele>
        <time>2018-08-11T15:58:02Z</time>
      </trkpt>
      <trkpt lat="4.5412970" lon="-74.2560980">
        <ele>2568.3</ele>
        <time>2018-08-11T15:58:03Z</time>
      </trkpt>
      <trkpt lat="4.5412970" lon="-74.2561520">
        <ele>2568.3</ele>
        <time>2018-08-11T15:58:04Z</time>
      </trkpt>
      <trkpt lat="4.5412950" lon="-74.2562070">
        <ele>2568.4</ele>
        <time>2018-08-11T15:58:05Z</time>
      </trkpt>
      <trkpt lat="4.5412920" lon="-74.2562620">
        <ele>2568.5</ele>
        <time>2018-08-11T15:58:06Z</time>
      </trkpt>
      <trkpt lat="4.5412900" lon="-74.2563200">
        <ele>2568.8</ele>
        <time>2018-08-11T15:58:07Z</time>
      </trkpt>
      <trkpt lat="4.5412800" lon="-74.2563680">
        <ele>2568.9</ele>
        <time>2018-08-11T15:58:08Z</time>
      </trkpt>
      <trkpt lat="4.5412720" lon="-74.2564200">
        <ele>2569.0</ele>
        <time>2018-08-11T15:58:09Z</time>
      </trkpt>
      <trkpt lat="4.5412700" lon="-74.2564700">
        <ele>2569.1</ele>
        <time>2018-08-11T15:58:10Z</time>
      </trkpt>
      <trkpt lat="4.5412680" lon="-74.2565170">
        <ele>2569.1</ele>
        <time>2018-08-11T15:58:11Z</time>
      </trkpt>
      <trkpt lat="4.5412650" lon="-74.2565630">
        <ele>2569.1</ele>
        <time>2018-08-11T15:58:12Z</time>
      </trkpt>
      <trkpt lat="4.5412600" lon="-74.2566130">
        <ele>2569.2</ele>
        <time>2018-08-11T15:58:13Z</time>
      </trkpt>
      <trkpt lat="4.5412570" lon="-74.2566630">
        <ele>2569.2</ele>
        <time>2018-08-11T15:58:14Z</time>
      </trkpt>
      <trkpt lat="4.5412570" lon="-74.2567120">
        <ele>2569.3</ele>
        <time>2018-08-11T15:58:15Z</time>
      </trkpt>
      <trkpt lat="4.5412570" lon="-74.2567580">
        <ele>2569.3</ele>
        <time>2018-08-11T15:58:16Z</time>
      </trkpt>
      <trkpt lat="4.5412570" lon="-74.2568030">
        <ele>2569.3</ele>
        <time>2018-08-11T15:58:17Z</time>
      </trkpt>
      <trkpt lat="4.5412550" lon="-74.2568480">
        <ele>2569.4</ele>
        <time>2018-08-11T15:58:18Z</time>
      </trkpt>
      <trkpt lat="4.5412500" lon="-74.2568930">
        <ele>2569.4</ele>
        <time>2018-08-11T15:58:19Z</time>
      </trkpt>
      <trkpt lat="4.5412450" lon="-74.2569370">
        <ele>2569.4</ele>
        <time>2018-08-11T15:58:20Z</time>
      </trkpt>
      <trkpt lat="4.5412430" lon="-74.2569800">
        <ele>2569.5</ele>
        <time>2018-08-11T15:58:21Z</time>
      </trkpt>
      <trkpt lat="4.5412430" lon="-74.2570230">
        <ele>2569.5</ele>
        <time>2018-08-11T15:58:22Z</time>
      </trkpt>
      <trkpt lat="4.5412470" lon="-74.2570680">
        <ele>2569.5</ele>
        <time>2018-08-11T15:58:23Z</time>
      </trkpt>
      <trkpt lat="4.5412480" lon="-74.2571150">
        <ele>2569.6</ele>
        <time>2018-08-11T15:58:24Z</time>
      </trkpt>
      <trkpt lat="4.5412500" lon="-74.2571630">
        <ele>2569.6</ele>
        <time>2018-08-11T15:58:25Z</time>
      </trkpt>
      <trkpt lat="4.5412550" lon="-74.2572130">
        <ele>2569.7</ele>
        <time>2018-08-11T15:58:26Z</time>
      </trkpt>
      <trkpt lat="4.5412650" lon="-74.2572650">
        <ele>2569.7</ele>
        <time>2018-08-11T15:58:27Z</time>
      </trkpt>
      <trkpt lat="4.5412750" lon="-74.2573220">
        <ele>2569.8</ele>
        <time>2018-08-11T15:58:28Z</time>
      </trkpt>
      <trkpt lat="4.5412950" lon="-74.2573800">
        <ele>2569.8</ele>
        <time>2018-08-11T15:58:29Z</time>
      </trkpt>
      <trkpt lat="4.5413230" lon="-74.2574350">
        <ele>2569.9</ele>
        <time>2018-08-11T15:58:30Z</time>
      </trkpt>
      <trkpt lat="4.5413630" lon="-74.2574880">
        <ele>2570.0</ele>
        <time>2018-08-11T15:58:31Z</time>
      </trkpt>
      <trkpt lat="4.5414120" lon="-74.2575400">
        <ele>2569.2</ele>
        <time>2018-08-11T15:58:32Z</time>
      </trkpt>
      <trkpt lat="4.5414630" lon="-74.2575920">
        <ele>2567.7</ele>
        <time>2018-08-11T15:58:33Z</time>
      </trkpt>
      <trkpt lat="4.5415200" lon="-74.2576420">
        <ele>2566.2</ele>
        <time>2018-08-11T15:58:34Z</time>
      </trkpt>
      <trkpt lat="4.5415850" lon="-74.2576830">
        <ele>2564.6</ele>
        <time>2018-08-11T15:58:35Z</time>
      </trkpt>
      <trkpt lat="4.5416570" lon="-74.2577180">
        <ele>2563.0</ele>
        <time>2018-08-11T15:58:36Z</time>
      </trkpt>
      <trkpt lat="4.5417350" lon="-74.2577470">
        <ele>2561.2</ele>
        <time>2018-08-11T15:58:37Z</time>
      </trkpt>
      <trkpt lat="4.5418220" lon="-74.2577670">
        <ele>2559.9</ele>
        <time>2018-08-11T15:58:38Z</time>
      </trkpt>
      <trkpt lat="4.5419100" lon="-74.2577900">
        <ele>2559.6</ele>
        <time>2018-08-11T15:58:39Z</time>
      </trkpt>
      <trkpt lat="4.5420030" lon="-74.2578100">
        <ele>2559.3</ele>
        <time>2018-08-11T15:58:40Z</time>
      </trkpt>
      <trkpt lat="4.5421020" lon="-74.2578280">
        <ele>2558.9</ele>
        <time>2018-08-11T15:58:41Z</time>
      </trkpt>
      <trkpt lat="4.5422020" lon="-74.2578470">
        <ele>2558.6</ele>
        <time>2018-08-11T15:58:42Z</time>
      </trkpt>
      <trkpt lat="4.5423020" lon="-74.2578650">
        <ele>2558.3</ele>
        <time>2018-08-11T15:58:43Z</time>
      </trkpt>
      <trkpt lat="4.5424080" lon="-74.2578870">
        <ele>2558.0</ele>
        <time>2018-08-11T15:58:44Z</time>
      </trkpt>
      <trkpt lat="4.5425130" lon="-74.2579070">
        <ele>2557.8</ele>
        <time>2018-08-11T15:58:45Z</time>
      </trkpt>
      <trkpt lat="4.5426180" lon="-74.2579330">
        <ele>2557.7</ele>
        <time>2018-08-11T15:58:46Z</time>
      </trkpt>
      <trkpt lat="4.5427270" lon="-74.2579520">
        <ele>2557.6</ele>
        <time>2018-08-11T15:58:47Z</time>
      </trkpt>
      <trkpt lat="4.5428380" lon="-74.2579770">
        <ele>2557.5</ele>
        <time>2018-08-11T15:58:48Z</time>
      </trkpt>
      <trkpt lat="4.5429480" lon="-74.2579980">
        <ele>2557.5</ele>
        <time>2018-08-11T15:58:49Z</time>
      </trkpt>
      <trkpt lat="4.5430620" lon="-74.2580220">
        <ele>2557.5</ele>
        <time>2018-08-11T15:58:50Z</time>
      </trkpt>
      <trkpt lat="4.5431730" lon="-74.2580430">
        <ele>2557.6</ele>
        <time>2018-08-11T15:58:51Z</time>
      </trkpt>
      <trkpt lat="4.5432870" lon="-74.2580620">
        <ele>2557.6</ele>
        <time>2018-08-11T15:58:52Z</time>
      </trkpt>
      <trkpt lat="4.5433970" lon="-74.2580830">
        <ele>2557.6</ele>
        <time>2018-08-11T15:58:53Z</time>
      </trkpt>
      <trkpt lat="4.5435120" lon="-74.2581030">
        <ele>2557.4</ele>
        <time>2018-08-11T15:58:54Z</time>
      </trkpt>
      <trkpt lat="4.5436250" lon="-74.2581280">
        <ele>2557.2</ele>
        <time>2018-08-11T15:58:55Z</time>
      </trkpt>
      <trkpt lat="4.5437380" lon="-74.2581530">
        <ele>2557.0</ele>
        <time>2018-08-11T15:58:56Z</time>
      </trkpt>
      <trkpt lat="4.5438500" lon="-74.2581770">
        <ele>2556.8</ele>
        <time>2018-08-11T15:58:57Z</time>
      </trkpt>
      <trkpt lat="4.5439630" lon="-74.2582020">
        <ele>2556.7</ele>
        <time>2018-08-11T15:58:58Z</time>
      </trkpt>
      <trkpt lat="4.5440780" lon="-74.2582250">
        <ele>2556.6</ele>
        <time>2018-08-11T15:58:59Z</time>
      </trkpt>
      <trkpt lat="4.5441900" lon="-74.2582480">
        <ele>2556.7</ele>
        <time>2018-08-11T15:59:00Z</time>
      </trkpt>
      <trkpt lat="4.5442980" lon="-74.2582680">
        <ele>2556.7</ele>
        <time>2018-08-11T15:59:01Z</time>
      </trkpt>
      <trkpt lat="4.5444020" lon="-74.2582900">
        <ele>2556.7</ele>
        <time>2018-08-11T15:59:02Z</time>
      </trkpt>
      <trkpt lat="4.5445030" lon="-74.2583080">
        <ele>2556.8</ele>
        <time>2018-08-11T15:59:03Z</time>
      </trkpt>
      <trkpt lat="4.5446020" lon="-74.2583270">
        <ele>2556.9</ele>
        <time>2018-08-11T15:59:04Z</time>
      </trkpt>
      <trkpt lat="4.5447000" lon="-74.2583430">
        <ele>2555.9</ele>
        <time>2018-08-11T15:59:05Z</time>
      </trkpt>
      <trkpt lat="4.5448020" lon="-74.2583530">
        <ele>2554.0</ele>
        <time>2018-08-11T15:59:06Z</time>
      </trkpt>
      <trkpt lat="4.5448980" lon="-74.2583720">
        <ele>2552.1</ele>
        <time>2018-08-11T15:59:07Z</time>
      </trkpt>
      <trkpt lat="4.5449930" lon="-74.2583900">
        <ele>2550.1</ele>
        <time>2018-08-11T15:59:08Z</time>
      </trkpt>
      <trkpt lat="4.5450870" lon="-74.2584080">
        <ele>2547.9</ele>
        <time>2018-08-11T15:59:09Z</time>
      </trkpt>
      <trkpt lat="4.5451770" lon="-74.2584250">
        <ele>2546.0</ele>
        <time>2018-08-11T15:59:10Z</time>
      </trkpt>
      <trkpt lat="4.5452670" lon="-74.2584420">
        <ele>2545.9</ele>
        <time>2018-08-11T15:59:11Z</time>
      </trkpt>
      <trkpt lat="4.5453580" lon="-74.2584580">
        <ele>2545.8</ele>
        <time>2018-08-11T15:59:12Z</time>
      </trkpt>
      <trkpt lat="4.5454470" lon="-74.2584770">
        <ele>2545.7</ele>
        <time>2018-08-11T15:59:13Z</time>
      </trkpt>
      <trkpt lat="4.5455380" lon="-74.2584920">
        <ele>2545.6</ele>
        <time>2018-08-11T15:59:14Z</time>
      </trkpt>
      <trkpt lat="4.5456280" lon="-74.2585050">
        <ele>2545.5</ele>
        <time>2018-08-11T15:59:15Z</time>
      </trkpt>
      <trkpt lat="4.5457180" lon="-74.2585170">
        <ele>2545.4</ele>
        <time>2018-08-11T15:59:16Z</time>
      </trkpt>
      <trkpt lat="4.5458070" lon="-74.2585330">
        <ele>2545.3</ele>
        <time>2018-08-11T15:59:17Z</time>
      </trkpt>
      <trkpt lat="4.5458920" lon="-74.2585480">
        <ele>2545.0</ele>
        <time>2018-08-11T15:59:18Z</time>
      </trkpt>
      <trkpt lat="4.5459780" lon="-74.2585620">
        <ele>2544.8</ele>
        <time>2018-08-11T15:59:19Z</time>
      </trkpt>
      <trkpt lat="4.5460600" lon="-74.2585770">
        <ele>2544.7</ele>
        <time>2018-08-11T15:59:20Z</time>
      </trkpt>
      <trkpt lat="4.5461430" lon="-74.2585920">
        <ele>2544.7</ele>
        <time>2018-08-11T15:59:21Z</time>
      </trkpt>
      <trkpt lat="4.5462250" lon="-74.2586070">
        <ele>2544.7</ele>
        <time>2018-08-11T15:59:22Z</time>
      </trkpt>
      <trkpt lat="4.5463070" lon="-74.2586220">
        <ele>2544.6</ele>
        <time>2018-08-11T15:59:23Z</time>
      </trkpt>
      <trkpt lat="4.5463880" lon="-74.2586370">
        <ele>2544.5</ele>
        <time>2018-08-11T15:59:24Z</time>
      </trkpt>
      <trkpt lat="4.5464680" lon="-74.2586480">
        <ele>2544.4</ele>
        <time>2018-08-11T15:59:25Z</time>
      </trkpt>
      <trkpt lat="4.5465500" lon="-74.2586620">
        <ele>2544.4</ele>
        <time>2018-08-11T15:59:26Z</time>
      </trkpt>
      <trkpt lat="4.5466320" lon="-74.2586750">
        <ele>2544.4</ele>
        <time>2018-08-11T15:59:27Z</time>
      </trkpt>
      <trkpt lat="4.5467120" lon="-74.2586880">
        <ele>2544.3</ele>
        <time>2018-08-11T15:59:28Z</time>
      </trkpt>
      <trkpt lat="4.5467930" lon="-74.2587030">
        <ele>2544.3</ele>
        <time>2018-08-11T15:59:29Z</time>
      </trkpt>
      <trkpt lat="4.5468750" lon="-74.2587170">
        <ele>2544.4</ele>
        <time>2018-08-11T15:59:30Z</time>
      </trkpt>
      <trkpt lat="4.5469580" lon="-74.2587300">
        <ele>2544.4</ele>
        <time>2018-08-11T15:59:31Z</time>
      </trkpt>
      <trkpt lat="4.5470400" lon="-74.2587380">
        <ele>2544.5</ele>
        <time>2018-08-11T15:59:32Z</time>
      </trkpt>
      <trkpt lat="4.5471220" lon="-74.2587480">
        <ele>2544.6</ele>
        <time>2018-08-11T15:59:33Z</time>
      </trkpt>
      <trkpt lat="4.5472000" lon="-74.2587680">
        <ele>2544.6</ele>
        <time>2018-08-11T15:59:34Z</time>
      </trkpt>
      <trkpt lat="4.5472780" lon="-74.2587780">
        <ele>2544.6</ele>
        <time>2018-08-11T15:59:35Z</time>
      </trkpt>
      <trkpt lat="4.5473600" lon="-74.2587920">
        <ele>2544.6</ele>
        <time>2018-08-11T15:59:36Z</time>
      </trkpt>
      <trkpt lat="4.5474380" lon="-74.2588070">
        <ele>2544.5</ele>
        <time>2018-08-11T15:59:37Z</time>
      </trkpt>
      <trkpt lat="4.5475170" lon="-74.2588220">
        <ele>2544.5</ele>
        <time>2018-08-11T15:59:38Z</time>
      </trkpt>
      <trkpt lat="4.5475950" lon="-74.2588370">
        <ele>2544.5</ele>
        <time>2018-08-11T15:59:39Z</time>
      </trkpt>
      <trkpt lat="4.5476730" lon="-74.2588480">
        <ele>2544.6</ele>
        <time>2018-08-11T15:59:40Z</time>
      </trkpt>
      <trkpt lat="4.5477530" lon="-74.2588630">
        <ele>2544.6</ele>
        <time>2018-08-11T15:59:41Z</time>
      </trkpt>
      <trkpt lat="4.5478300" lon="-74.2588770">
        <ele>2544.7</ele>
        <time>2018-08-11T15:59:42Z</time>
      </trkpt>
      <trkpt lat="4.5479050" lon="-74.2588920">
        <ele>2544.9</ele>
        <time>2018-08-11T15:59:43Z</time>
      </trkpt>
      <trkpt lat="4.5479800" lon="-74.2589050">
        <ele>2545.0</ele>
        <time>2018-08-11T15:59:44Z</time>
      </trkpt>
      <trkpt lat="4.5480550" lon="-74.2589180">
        <ele>2545.2</ele>
        <time>2018-08-11T15:59:45Z</time>
      </trkpt>
      <trkpt lat="4.5481280" lon="-74.2589300">
        <ele>2545.4</ele>
        <time>2018-08-11T15:59:46Z</time>
      </trkpt>
      <trkpt lat="4.5481980" lon="-74.2589430">
        <ele>2545.5</ele>
        <time>2018-08-11T15:59:47Z</time>
      </trkpt>
      <trkpt lat="4.5482650" lon="-74.2589550">
        <ele>2545.7</ele>
        <time>2018-08-11T15:59:48Z</time>
      </trkpt>
      <trkpt lat="4.5483330" lon="-74.2589680">
        <ele>2545.8</ele>
        <time>2018-08-11T15:59:49Z</time>
      </trkpt>
      <trkpt lat="4.5483970" lon="-74.2589780">
        <ele>2546.0</ele>
        <time>2018-08-11T15:59:50Z</time>
      </trkpt>
      <trkpt lat="4.5484600" lon="-74.2589870">
        <ele>2546.2</ele>
        <time>2018-08-11T15:59:51Z</time>
      </trkpt>
      <trkpt lat="4.5485250" lon="-74.2589970">
        <ele>2546.4</ele>
        <time>2018-08-11T15:59:52Z</time>
      </trkpt>
      <trkpt lat="4.5485850" lon="-74.2590070">
        <ele>2546.6</ele>
        <time>2018-08-11T15:59:53Z</time>
      </trkpt>
      <trkpt lat="4.5486430" lon="-74.2590150">
        <ele>2546.8</ele>
        <time>2018-08-11T15:59:54Z</time>
      </trkpt>
      <trkpt lat="4.5487020" lon="-74.2590250">
        <ele>2547.1</ele>
        <time>2018-08-11T15:59:55Z</time>
      </trkpt>
      <trkpt lat="4.5487580" lon="-74.2590320">
        <ele>2547.3</ele>
        <time>2018-08-11T15:59:56Z</time>
      </trkpt>
      <trkpt lat="4.5488130" lon="-74.2590430">
        <ele>2547.6</ele>
        <time>2018-08-11T15:59:57Z</time>
      </trkpt>
      <trkpt lat="4.5488680" lon="-74.2590550">
        <ele>2547.8</ele>
        <time>2018-08-11T15:59:58Z</time>
      </trkpt>
      <trkpt lat="4.5489200" lon="-74.2590670">
        <ele>2548.0</ele>
        <time>2018-08-11T15:59:59Z</time>
      </trkpt>
      <trkpt lat="4.5489720" lon="-74.2590720">
        <ele>2548.3</ele>
        <time>2018-08-11T16:00:00Z</time>
      </trkpt>
      <trkpt lat="4.5490230" lon="-74.2590800">
        <ele>2548.5</ele>
        <time>2018-08-11T16:00:01Z</time>
      </trkpt>
      <trkpt lat="4.5490750" lon="-74.2590900">
        <ele>2548.7</ele>
        <time>2018-08-11T16:00:02Z</time>
      </trkpt>
      <trkpt lat="4.5491230" lon="-74.2590970">
        <ele>2548.9</ele>
        <time>2018-08-11T16:00:03Z</time>
      </trkpt>
      <trkpt lat="4.5491700" lon="-74.2591050">
        <ele>2549.1</ele>
        <time>2018-08-11T16:00:04Z</time>
      </trkpt>
      <trkpt lat="4.5492120" lon="-74.2591120">
        <ele>2549.3</ele>
        <time>2018-08-11T16:00:05Z</time>
      </trkpt>
      <trkpt lat="4.5492530" lon="-74.2591250">
        <ele>2549.4</ele>
        <time>2018-08-11T16:00:06Z</time>
      </trkpt>
      <trkpt lat="4.5492950" lon="-74.2591320">
        <ele>2549.6</ele>
        <time>2018-08-11T16:00:07Z</time>
      </trkpt>
      <trkpt lat="4.5493370" lon="-74.2591400">
        <ele>2549.8</ele>
        <time>2018-08-11T16:00:08Z</time>
      </trkpt>
      <trkpt lat="4.5493780" lon="-74.2591470">
        <ele>2550.0</ele>
        <time>2018-08-11T16:00:09Z</time>
      </trkpt>
      <trkpt lat="4.5494200" lon="-74.2591500">
        <ele>2550.2</ele>
        <time>2018-08-11T16:00:10Z</time>
      </trkpt>
      <trkpt lat="4.5494600" lon="-74.2591550">
        <ele>2550.4</ele>
        <time>2018-08-11T16:00:11Z</time>
      </trkpt>
      <trkpt lat="4.5495020" lon="-74.2591580">
        <ele>2550.7</ele>
        <time>2018-08-11T16:00:12Z</time>
      </trkpt>
      <trkpt lat="4.5495420" lon="-74.2591600">
        <ele>2550.9</ele>
        <time>2018-08-11T16:00:13Z</time>
      </trkpt>
      <trkpt lat="4.5495830" lon="-74.2591620">
        <ele>2551.1</ele>
        <time>2018-08-11T16:00:14Z</time>
      </trkpt>
      <trkpt lat="4.5496270" lon="-74.2591630">
        <ele>2551.4</ele>
        <time>2018-08-11T16:00:15Z</time>
      </trkpt>
      <trkpt lat="4.5496670" lon="-74.2591670">
        <ele>2551.7</ele>
        <time>2018-08-11T16:00:16Z</time>
      </trkpt>
      <trkpt lat="4.5497080" lon="-74.2591680">
        <ele>2551.9</ele>
        <time>2018-08-11T16:00:17Z</time>
      </trkpt>
      <trkpt lat="4.5497500" lon="-74.2591730">
        <ele>2552.2</ele>
        <time>2018-08-11T16:00:18Z</time>
      </trkpt>
      <trkpt lat="4.5497900" lon="-74.2591780">
        <ele>2552.4</ele>
        <time>2018-08-11T16:00:19Z</time>
      </trkpt>
      <trkpt lat="4.5498330" lon="-74.2591800">
        <ele>2552.6</ele>
        <time>2018-08-11T16:00:20Z</time>
      </trkpt>
      <trkpt lat="4.5498750" lon="-74.2591820">
        <ele>2552.8</ele>
        <time>2018-08-11T16:00:21Z</time>
      </trkpt>
      <trkpt lat="4.5499150" lon="-74.2591830">
        <ele>2553.0</ele>
        <time>2018-08-11T16:00:22Z</time>
      </trkpt>
      <trkpt lat="4.5499500" lon="-74.2591880">
        <ele>2553.2</ele>
        <time>2018-08-11T16:00:23Z</time>
      </trkpt>
      <trkpt lat="4.5499880" lon="-74.2591870">
        <ele>2553.4</ele>
        <time>2018-08-11T16:00:24Z</time>
      </trkpt>
      <trkpt lat="4.5500270" lon="-74.2591900">
        <ele>2553.6</ele>
        <time>2018-08-11T16:00:25Z</time>
      </trkpt>
      <trkpt lat="4.5500670" lon="-74.2591900">
        <ele>2553.8</ele>
        <time>2018-08-11T16:00:26Z</time>
      </trkpt>
      <trkpt lat="4.5501080" lon="-74.2591880">
        <ele>2554.0</ele>
        <time>2018-08-11T16:00:27Z</time>
      </trkpt>
      <trkpt lat="4.5501470" lon="-74.2591830">
        <ele>2554.2</ele>
        <time>2018-08-11T16:00:28Z</time>
      </trkpt>
      <trkpt lat="4.5501830" lon="-74.2591850">
        <ele>2554.4</ele>
        <time>2018-08-11T16:00:29Z</time>
      </trkpt>
      <trkpt lat="4.5502180" lon="-74.2591850">
        <ele>2554.5</ele>
        <time>2018-08-11T16:00:30Z</time>
      </trkpt>
      <trkpt lat="4.5502550" lon="-74.2591830">
        <ele>2554.7</ele>
        <time>2018-08-11T16:00:31Z</time>
      </trkpt>
      <trkpt lat="4.5502930" lon="-74.2591850">
        <ele>2554.9</ele>
        <time>2018-08-11T16:00:32Z</time>
      </trkpt>
      <trkpt lat="4.5503250" lon="-74.2591850">
        <ele>2555.1</ele>
        <time>2018-08-11T16:00:33Z</time>
      </trkpt>
      <trkpt lat="4.5503580" lon="-74.2591870">
        <ele>2555.2</ele>
        <time>2018-08-11T16:00:34Z</time>
      </trkpt>
      <trkpt lat="4.5503930" lon="-74.2591850">
        <ele>2555.4</ele>
        <time>2018-08-11T16:00:35Z</time>
      </trkpt>
      <trkpt lat="4.5504280" lon="-74.2591920">
        <ele>2555.5</ele>
        <time>2018-08-11T16:00:36Z</time>
      </trkpt>
      <trkpt lat="4.5504680" lon="-74.2591920">
        <ele>2555.7</ele>
        <time>2018-08-11T16:00:37Z</time>
      </trkpt>
      <trkpt lat="4.5505050" lon="-74.2591950">
        <ele>2555.9</ele>
        <time>2018-08-11T16:00:38Z</time>
      </trkpt>
      <trkpt lat="4.5505420" lon="-74.2591950">
        <ele>2556.0</ele>
        <time>2018-08-11T16:00:39Z</time>
      </trkpt>
      <trkpt lat="4.5505750" lon="-74.2591970">
        <ele>2556.2</ele>
        <time>2018-08-11T16:00:40Z</time>
      </trkpt>
      <trkpt lat="4.5506070" lon="-74.2591920">
        <ele>2556.4</ele>
        <time>2018-08-11T16:00:41Z</time>
      </trkpt>
      <trkpt lat="4.5506380" lon="-74.2591900">
        <ele>2556.6</ele>
        <time>2018-08-11T16:00:42Z</time>
      </trkpt>
      <trkpt lat="4.5506720" lon="-74.2591920">
        <ele>2556.7</ele>
        <time>2018-08-11T16:00:43Z</time>
      </trkpt>
      <trkpt lat="4.5507020" lon="-74.2591930">
        <ele>2556.9</ele>
        <time>2018-08-11T16:00:44Z</time>
      </trkpt>
      <trkpt lat="4.5507370" lon="-74.2591880">
        <ele>2557.1</ele>
        <time>2018-08-11T16:00:45Z</time>
      </trkpt>
      <trkpt lat="4.5507720" lon="-74.2591830">
        <ele>2557.3</ele>
        <time>2018-08-11T16:00:46Z</time>
      </trkpt>
      <trkpt lat="4.5508030" lon="-74.2591830">
        <ele>2557.5</ele>
        <time>2018-08-11T16:00:47Z</time>
      </trkpt>
      <trkpt lat="4.5508430" lon="-74.2591870">
        <ele>2557.7</ele>
        <time>2018-08-11T16:00:48Z</time>
      </trkpt>
      <trkpt lat="4.5508780" lon="-74.2591850">
        <ele>2557.9</ele>
        <time>2018-08-11T16:00:49Z</time>
      </trkpt>
      <trkpt lat="4.5509100" lon="-74.2591820">
        <ele>2558.0</ele>
        <time>2018-08-11T16:00:50Z</time>
      </trkpt>
      <trkpt lat="4.5509450" lon="-74.2591820">
        <ele>2558.2</ele>
        <time>2018-08-11T16:00:51Z</time>
      </trkpt>
      <trkpt lat="4.5509820" lon="-74.2591780">
        <ele>2558.3</ele>
        <time>2018-08-11T16:00:52Z</time>
      </trkpt>
      <trkpt lat="4.5510200" lon="-74.2591770">
        <ele>2558.5</ele>
        <time>2018-08-11T16:00:53Z</time>
      </trkpt>
      <trkpt lat="4.5510630" lon="-74.2591800">
        <ele>2558.7</ele>
        <time>2018-08-11T16:00:54Z</time>
      </trkpt>
      <trkpt lat="4.5511000" lon="-74.2591830">
        <ele>2558.8</ele>
        <time>2018-08-11T16:00:55Z</time>
      </trkpt>
      <trkpt lat="4.5511450" lon="-74.2591800">
        <ele>2559.0</ele>
        <time>2018-08-11T16:00:56Z</time>
      </trkpt>
      <trkpt lat="4.5511870" lon="-74.2591770">
        <ele>2559.2</ele>
        <time>2018-08-11T16:00:57Z</time>
      </trkpt>
      <trkpt lat="4.5512300" lon="-74.2591750">
        <ele>2559.3</ele>
        <time>2018-08-11T16:00:58Z</time>
      </trkpt>
      <trkpt lat="4.5512670" lon="-74.2591770">
        <ele>2559.5</ele>
        <time>2018-08-11T16:00:59Z</time>
      </trkpt>
      <trkpt lat="4.5513030" lon="-74.2591780">
        <ele>2559.6</ele>
        <time>2018-08-11T16:01:00Z</time>
      </trkpt>
      <trkpt lat="4.5513450" lon="-74.2591770">
        <ele>2559.8</ele>
        <time>2018-08-11T16:01:01Z</time>
      </trkpt>
      <trkpt lat="4.5513830" lon="-74.2591770">
        <ele>2559.9</ele>
        <time>2018-08-11T16:01:02Z</time>
      </trkpt>
      <trkpt lat="4.5514250" lon="-74.2591770">
        <ele>2560.1</ele>
        <time>2018-08-11T16:01:03Z</time>
      </trkpt>
      <trkpt lat="4.5514630" lon="-74.2591750">
        <ele>2560.3</ele>
        <time>2018-08-11T16:01:04Z</time>
      </trkpt>
      <trkpt lat="4.5515000" lon="-74.2591730">
        <ele>2560.4</ele>
        <time>2018-08-11T16:01:05Z</time>
      </trkpt>
      <trkpt lat="4.5515350" lon="-74.2591700">
        <ele>2560.6</ele>
        <time>2018-08-11T16:01:06Z</time>
      </trkpt>
      <trkpt lat="4.5515700" lon="-74.2591650">
        <ele>2560.7</ele>
        <time>2018-08-11T16:01:07Z</time>
      </trkpt>
      <trkpt lat="4.5516050" lon="-74.2591580">
        <ele>2560.8</ele>
        <time>2018-08-11T16:01:08Z</time>
      </trkpt>
      <trkpt lat="4.5516420" lon="-74.2591570">
        <ele>2561.0</ele>
        <time>2018-08-11T16:01:09Z</time>
      </trkpt>
      <trkpt lat="4.5516830" lon="-74.2591550">
        <ele>2561.1</ele>
        <time>2018-08-11T16:01:10Z</time>
      </trkpt>
      <trkpt lat="4.5517170" lon="-74.2591550">
        <ele>2561.2</ele>
        <time>2018-08-11T16:01:11Z</time>
      </trkpt>
      <trkpt lat="4.5517500" lon="-74.2591520">
        <ele>2561.3</ele>
        <time>2018-08-11T16:01:12Z</time>
      </trkpt>
      <trkpt lat="4.5517880" lon="-74.2591480">
        <ele>2561.5</ele>
        <time>2018-08-11T16:01:13Z</time>
      </trkpt>
      <trkpt lat="4.5518250" lon="-74.2591450">
        <ele>2561.6</ele>
        <time>2018-08-11T16:01:14Z</time>
      </trkpt>
      <trkpt lat="4.5518670" lon="-74.2591400">
        <ele>2561.8</ele>
        <time>2018-08-11T16:01:15Z</time>
      </trkpt>
      <trkpt lat="4.5519080" lon="-74.2591380">
        <ele>2562.0</ele>
        <time>2018-08-11T16:01:16Z</time>
      </trkpt>
      <trkpt lat="4.5519500" lon="-74.2591370">
        <ele>2562.2</ele>
        <time>2018-08-11T16:01:17Z</time>
      </trkpt>
      <trkpt lat="4.5519930" lon="-74.2591370">
        <ele>2562.5</ele>
        <time>2018-08-11T16:01:18Z</time>
      </trkpt>
      <trkpt lat="4.5520350" lon="-74.2591380">
        <ele>2562.6</ele>
        <time>2018-08-11T16:01:19Z</time>
      </trkpt>
      <trkpt lat="4.5520820" lon="-74.2591420">
        <ele>2562.8</ele>
        <time>2018-08-11T16:01:20Z</time>
      </trkpt>
      <trkpt lat="4.5521270" lon="-74.2591430">
        <ele>2562.9</ele>
        <time>2018-08-11T16:01:21Z</time>
      </trkpt>
      <trkpt lat="4.5521730" lon="-74.2591450">
        <ele>2563.1</ele>
        <time>2018-08-11T16:01:22Z</time>
      </trkpt>
      <trkpt lat="4.5522170" lon="-74.2591450">
        <ele>2563.2</ele>
        <time>2018-08-11T16:01:23Z</time>
      </trkpt>
      <trkpt lat="4.5522600" lon="-74.2591480">
        <ele>2563.3</ele>
        <time>2018-08-11T16:01:24Z</time>
      </trkpt>
      <trkpt lat="4.5523030" lon="-74.2591500">
        <ele>2563.4</ele>
        <time>2018-08-11T16:01:25Z</time>
      </trkpt>
      <trkpt lat="4.5523500" lon="-74.2591520">
        <ele>2563.5</ele>
        <time>2018-08-11T16:01:26Z</time>
      </trkpt>
      <trkpt lat="4.5523920" lon="-74.2591520">
        <ele>2563.6</ele>
        <time>2018-08-11T16:01:27Z</time>
      </trkpt>
      <trkpt lat="4.5524330" lon="-74.2591530">
        <ele>2563.6</ele>
        <time>2018-08-11T16:01:28Z</time>
      </trkpt>
      <trkpt lat="4.5524780" lon="-74.2591550">
        <ele>2563.7</ele>
        <time>2018-08-11T16:01:29Z</time>
      </trkpt>
      <trkpt lat="4.5525220" lon="-74.2591530">
        <ele>2563.8</ele>
        <time>2018-08-11T16:01:30Z</time>
      </trkpt>
      <trkpt lat="4.5525630" lon="-74.2591530">
        <ele>2563.9</ele>
        <time>2018-08-11T16:01:31Z</time>
      </trkpt>
      <trkpt lat="4.5526100" lon="-74.2591530">
        <ele>2564.0</ele>
        <time>2018-08-11T16:01:32Z</time>
      </trkpt>
      <trkpt lat="4.5526550" lon="-74.2591520">
        <ele>2564.1</ele>
        <time>2018-08-11T16:01:33Z</time>
      </trkpt>
      <trkpt lat="4.5527000" lon="-74.2591520">
        <ele>2564.2</ele>
        <time>2018-08-11T16:01:34Z</time>
      </trkpt>
      <trkpt lat="4.5527450" lon="-74.2591530">
        <ele>2564.3</ele>
        <time>2018-08-11T16:01:35Z</time>
      </trkpt>
      <trkpt lat="4.5527920" lon="-74.2591520">
        <ele>2564.5</ele>
        <time>2018-08-11T16:01:36Z</time>
      </trkpt>
      <trkpt lat="4.5528380" lon="-74.2591500">
        <ele>2564.6</ele>
        <time>2018-08-11T16:01:37Z</time>
      </trkpt>
      <trkpt lat="4.5528870" lon="-74.2591500">
        <ele>2564.7</ele>
        <time>2018-08-11T16:01:38Z</time>
      </trkpt>
      <trkpt lat="4.5529330" lon="-74.2591520">
        <ele>2564.7</ele>
        <time>2018-08-11T16:01:39Z</time>
      </trkpt>
      <trkpt lat="4.5529780" lon="-74.2591530">
        <ele>2564.8</ele>
        <time>2018-08-11T16:01:40Z</time>
      </trkpt>
      <trkpt lat="4.5530250" lon="-74.2591530">
        <ele>2564.8</ele>
        <time>2018-08-11T16:01:41Z</time>
      </trkpt>
      <trkpt lat="4.5530730" lon="-74.2591550">
        <ele>2564.9</ele>
        <time>2018-08-11T16:01:42Z</time>
      </trkpt>
      <trkpt lat="4.5531220" lon="-74.2591550">
        <ele>2564.9</ele>
        <time>2018-08-11T16:01:43Z</time>
      </trkpt>
      <trkpt lat="4.5531730" lon="-74.2591520">
        <ele>2565.0</ele>
        <time>2018-08-11T16:01:44Z</time>
      </trkpt>
      <trkpt lat="4.5532220" lon="-74.2591500">
        <ele>2565.1</ele>
        <time>2018-08-11T16:01:45Z</time>
      </trkpt>
      <trkpt lat="4.5532700" lon="-74.2591480">
        <ele>2565.2</ele>
        <time>2018-08-11T16:01:46Z</time>
      </trkpt>
      <trkpt lat="4.5533180" lon="-74.2591480">
        <ele>2565.2</ele>
        <time>2018-08-11T16:01:47Z</time>
      </trkpt>
      <trkpt lat="4.5533670" lon="-74.2591470">
        <ele>2565.3</ele>
        <time>2018-08-11T16:01:48Z</time>
      </trkpt>
      <trkpt lat="4.5534150" lon="-74.2591450">
        <ele>2565.3</ele>
        <time>2018-08-11T16:01:49Z</time>
      </trkpt>
      <trkpt lat="4.5534620" lon="-74.2591430">
        <ele>2565.4</ele>
        <time>2018-08-11T16:01:50Z</time>
      </trkpt>
      <trkpt lat="4.5535120" lon="-74.2591470">
        <ele>2565.5</ele>
        <time>2018-08-11T16:01:51Z</time>
      </trkpt>
      <trkpt lat="4.5535630" lon="-74.2591480">
        <ele>2565.5</ele>
        <time>2018-08-11T16:01:52Z</time>
      </trkpt>
      <trkpt lat="4.5536150" lon="-74.2591470">
        <ele>2565.6</ele>
        <time>2018-08-11T16:01:53Z</time>
      </trkpt>
      <trkpt lat="4.5536630" lon="-74.2591480">
        <ele>2565.7</ele>
        <time>2018-08-11T16:01:54Z</time>
      </trkpt>
      <trkpt lat="4.5537120" lon="-74.2591450">
        <ele>2565.8</ele>
        <time>2018-08-11T16:01:55Z</time>
      </trkpt>
      <trkpt lat="4.5537600" lon="-74.2591420">
        <ele>2565.9</ele>
        <time>2018-08-11T16:01:56Z</time>
      </trkpt>
      <trkpt lat="4.5538100" lon="-74.2591400">
        <ele>2565.9</ele>
        <time>2018-08-11T16:01:57Z</time>
      </trkpt>
      <trkpt lat="4.5538600" lon="-74.2591380">
        <ele>2566.0</ele>
        <time>2018-08-11T16:01:58Z</time>
      </trkpt>
      <trkpt lat="4.5539120" lon="-74.2591350">
        <ele>2566.0</ele>
        <time>2018-08-11T16:01:59Z</time>
      </trkpt>
      <trkpt lat="4.5539670" lon="-74.2591350">
        <ele>2565.7</ele>
        <time>2018-08-11T16:02:00Z</time>
      </trkpt>
      <trkpt lat="4.5540200" lon="-74.2591330">
        <ele>2565.5</ele>
        <time>2018-08-11T16:02:01Z</time>
      </trkpt>
      <trkpt lat="4.5540750" lon="-74.2591330">
        <ele>2565.2</ele>
        <time>2018-08-11T16:02:02Z</time>
      </trkpt>
      <trkpt lat="4.5541300" lon="-74.2591350">
        <ele>2565.0</ele>
        <time>2018-08-11T16:02:03Z</time>
      </trkpt>
      <trkpt lat="4.5541850" lon="-74.2591380">
        <ele>2564.8</ele>
        <time>2018-08-11T16:02:04Z</time>
      </trkpt>
      <trkpt lat="4.5542420" lon="-74.2591400">
        <ele>2564.7</ele>
        <time>2018-08-11T16:02:05Z</time>
      </trkpt>
      <trkpt lat="4.5543030" lon="-74.2591420">
        <ele>2564.5</ele>
        <time>2018-08-11T16:02:06Z</time>
      </trkpt>
      <trkpt lat="4.5543620" lon="-74.2591420">
        <ele>2564.3</ele>
        <time>2018-08-11T16:02:07Z</time>
      </trkpt>
      <trkpt lat="4.5544180" lon="-74.2591430">
        <ele>2564.1</ele>
        <time>2018-08-11T16:02:08Z</time>
      </trkpt>
      <trkpt lat="4.5544750" lon="-74.2591470">
        <ele>2563.9</ele>
        <time>2018-08-11T16:02:09Z</time>
      </trkpt>
      <trkpt lat="4.5545320" lon="-74.2591470">
        <ele>2563.8</ele>
        <time>2018-08-11T16:02:10Z</time>
      </trkpt>
      <trkpt lat="4.5545900" lon="-74.2591470">
        <ele>2563.6</ele>
        <time>2018-08-11T16:02:11Z</time>
      </trkpt>
      <trkpt lat="4.5546520" lon="-74.2591470">
        <ele>2563.5</ele>
        <time>2018-08-11T16:02:12Z</time>
      </trkpt>
      <trkpt lat="4.5547100" lon="-74.2591480">
        <ele>2563.5</ele>
        <time>2018-08-11T16:02:13Z</time>
      </trkpt>
      <trkpt lat="4.5547670" lon="-74.2591480">
        <ele>2563.4</ele>
        <time>2018-08-11T16:02:14Z</time>
      </trkpt>
      <trkpt lat="4.5548230" lon="-74.2591480">
        <ele>2563.3</ele>
        <time>2018-08-11T16:02:15Z</time>
      </trkpt>
      <trkpt lat="4.5548850" lon="-74.2591480">
        <ele>2563.2</ele>
        <time>2018-08-11T16:02:16Z</time>
      </trkpt>
      <trkpt lat="4.5549420" lon="-74.2591500">
        <ele>2563.1</ele>
        <time>2018-08-11T16:02:17Z</time>
      </trkpt>
      <trkpt lat="4.5549970" lon="-74.2591500">
        <ele>2563.0</ele>
        <time>2018-08-11T16:02:18Z</time>
      </trkpt>
      <trkpt lat="4.5550480" lon="-74.2591500">
        <ele>2563.0</ele>
        <time>2018-08-11T16:02:19Z</time>
      </trkpt>
      <trkpt lat="4.5551030" lon="-74.2591530">
        <ele>2562.9</ele>
        <time>2018-08-11T16:02:20Z</time>
      </trkpt>
      <trkpt lat="4.5551600" lon="-74.2591530">
        <ele>2562.9</ele>
        <time>2018-08-11T16:02:21Z</time>
      </trkpt>
      <trkpt lat="4.5552150" lon="-74.2591520">
        <ele>2562.8</ele>
        <time>2018-08-11T16:02:22Z</time>
      </trkpt>
      <trkpt lat="4.5552750" lon="-74.2591470">
        <ele>2562.8</ele>
        <time>2018-08-11T16:02:23Z</time>
      </trkpt>
      <trkpt lat="4.5553350" lon="-74.2591430">
        <ele>2562.8</ele>
        <time>2018-08-11T16:02:24Z</time>
      </trkpt>
      <trkpt lat="4.5553950" lon="-74.2591450">
        <ele>2562.7</ele>
        <time>2018-08-11T16:02:25Z</time>
      </trkpt>
      <trkpt lat="4.5554550" lon="-74.2591470">
        <ele>2562.7</ele>
        <time>2018-08-11T16:02:26Z</time>
      </trkpt>
      <trkpt lat="4.5555130" lon="-74.2591470">
        <ele>2562.7</ele>
        <time>2018-08-11T16:02:27Z</time>
      </trkpt>
      <trkpt lat="4.5555700" lon="-74.2591470">
        <ele>2562.7</ele>
        <time>2018-08-11T16:02:28Z</time>
      </trkpt>
      <trkpt lat="4.5556280" lon="-74.2591450">
        <ele>2562.6</ele>
        <time>2018-08-11T16:02:29Z</time>
      </trkpt>
      <trkpt lat="4.5556870" lon="-74.2591470">
        <ele>2562.6</ele>
        <time>2018-08-11T16:02:30Z</time>
      </trkpt>
      <trkpt lat="4.5557450" lon="-74.2591470">
        <ele>2562.5</ele>
        <time>2018-08-11T16:02:31Z</time>
      </trkpt>
      <trkpt lat="4.5558030" lon="-74.2591470">
        <ele>2562.4</ele>
        <time>2018-08-11T16:02:32Z</time>
      </trkpt>
      <trkpt lat="4.5558620" lon="-74.2591450">
        <ele>2562.2</ele>
        <time>2018-08-11T16:02:33Z</time>
      </trkpt>
      <trkpt lat="4.5559220" lon="-74.2591430">
        <ele>2562.0</ele>
        <time>2018-08-11T16:02:34Z</time>
      </trkpt>
      <trkpt lat="4.5559800" lon="-74.2591430">
        <ele>2561.8</ele>
        <time>2018-08-11T16:02:35Z</time>
      </trkpt>
      <trkpt lat="4.5560380" lon="-74.2591430">
        <ele>2561.7</ele>
        <time>2018-08-11T16:02:36Z</time>
      </trkpt>
      <trkpt lat="4.5560980" lon="-74.2591400">
        <ele>2561.5</ele>
        <time>2018-08-11T16:02:37Z</time>
      </trkpt>
      <trkpt lat="4.5561570" lon="-74.2591380">
        <ele>2561.4</ele>
        <time>2018-08-11T16:02:38Z</time>
      </trkpt>
      <trkpt lat="4.5562180" lon="-74.2591370">
        <ele>2561.2</ele>
        <time>2018-08-11T16:02:39Z</time>
      </trkpt>
      <trkpt lat="4.5562770" lon="-74.2591330">
        <ele>2561.1</ele>
        <time>2018-08-11T16:02:40Z</time>
      </trkpt>
      <trkpt lat="4.5563380" lon="-74.2591330">
        <ele>2561.0</ele>
        <time>2018-08-11T16:02:41Z</time>
      </trkpt>
      <trkpt lat="4.5564000" lon="-74.2591380">
        <ele>2560.8</ele>
        <time>2018-08-11T16:02:42Z</time>
      </trkpt>
      <trkpt lat="4.5564580" lon="-74.2591430">
        <ele>2560.7</ele>
        <time>2018-08-11T16:02:43Z</time>
      </trkpt>
      <trkpt lat="4.5565180" lon="-74.2591430">
        <ele>2560.5</ele>
        <time>2018-08-11T16:02:44Z</time>
      </trkpt>
      <trkpt lat="4.5565780" lon="-74.2591430">
        <ele>2560.3</ele>
        <time>2018-08-11T16:02:45Z</time>
      </trkpt>
      <trkpt lat="4.5566380" lon="-74.2591430">
        <ele>2560.1</ele>
        <time>2018-08-11T16:02:46Z</time>
      </trkpt>
      <trkpt lat="4.5566980" lon="-74.2591450">
        <ele>2560.0</ele>
        <time>2018-08-11T16:02:47Z</time>
      </trkpt>
      <trkpt lat="4.5567570" lon="-74.2591450">
        <ele>2560.1</ele>
        <time>2018-08-11T16:02:48Z</time>
      </trkpt>
      <trkpt lat="4.5568150" lon="-74.2591450">
        <ele>2560.2</ele>
        <time>2018-08-11T16:02:49Z</time>
      </trkpt>
      <trkpt lat="4.5568730" lon="-74.2591420">
        <ele>2560.3</ele>
        <time>2018-08-11T16:02:50Z</time>
      </trkpt>
      <trkpt lat="4.5569320" lon="-74.2591400">
        <ele>2560.4</ele>
        <time>2018-08-11T16:02:51Z</time>
      </trkpt>
      <trkpt lat="4.5569900" lon="-74.2591380">
        <ele>2560.5</ele>
        <time>2018-08-11T16:02:52Z</time>
      </trkpt>
      <trkpt lat="4.5570480" lon="-74.2591350">
        <ele>2560.6</ele>
        <time>2018-08-11T16:02:53Z</time>
      </trkpt>
      <trkpt lat="4.5571100" lon="-74.2591320">
        <ele>2560.7</ele>
        <time>2018-08-11T16:02:54Z</time>
      </trkpt>
      <trkpt lat="4.5571720" lon="-74.2591320">
        <ele>2560.7</ele>
        <time>2018-08-11T16:02:55Z</time>
      </trkpt>
      <trkpt lat="4.5572330" lon="-74.2591320">
        <ele>2560.8</ele>
        <time>2018-08-11T16:02:56Z</time>
      </trkpt>
      <trkpt lat="4.5572930" lon="-74.2591300">
        <ele>2560.8</ele>
        <time>2018-08-11T16:02:57Z</time>
      </trkpt>
      <trkpt lat="4.5573530" lon="-74.2591300">
        <ele>2560.9</ele>
        <time>2018-08-11T16:02:58Z</time>
      </trkpt>
      <trkpt lat="4.5574130" lon="-74.2591300">
        <ele>2560.9</ele>
        <time>2018-08-11T16:02:59Z</time>
      </trkpt>
      <trkpt lat="4.5574700" lon="-74.2591280">
        <ele>2561.0</ele>
        <time>2018-08-11T16:03:00Z</time>
      </trkpt>
      <trkpt lat="4.5575280" lon="-74.2591300">
        <ele>2561.1</ele>
        <time>2018-08-11T16:03:01Z</time>
      </trkpt>
      <trkpt lat="4.5575900" lon="-74.2591300">
        <ele>2561.1</ele>
        <time>2018-08-11T16:03:02Z</time>
      </trkpt>
      <trkpt lat="4.5576470" lon="-74.2591300">
        <ele>2561.1</ele>
        <time>2018-08-11T16:03:03Z</time>
      </trkpt>
      <trkpt lat="4.5577050" lon="-74.2591270">
        <ele>2561.2</ele>
        <time>2018-08-11T16:03:04Z</time>
      </trkpt>
      <trkpt lat="4.5577650" lon="-74.2591270">
        <ele>2561.2</ele>
        <time>2018-08-11T16:03:05Z</time>
      </trkpt>
      <trkpt lat="4.5578230" lon="-74.2591270">
        <ele>2561.2</ele>
        <time>2018-08-11T16:03:06Z</time>
      </trkpt>
      <trkpt lat="4.5578830" lon="-74.2591280">
        <ele>2561.2</ele>
        <time>2018-08-11T16:03:07Z</time>
      </trkpt>
      <trkpt lat="4.5579420" lon="-74.2591270">
        <ele>2561.2</ele>
        <time>2018-08-11T16:03:08Z</time>
      </trkpt>
      <trkpt lat="4.5580000" lon="-74.2591270">
        <ele>2561.3</ele>
        <time>2018-08-11T16:03:09Z</time>
      </trkpt>
      <trkpt lat="4.5580570" lon="-74.2591270">
        <ele>2561.3</ele>
        <time>2018-08-11T16:03:10Z</time>
      </trkpt>
      <trkpt lat="4.5581100" lon="-74.2591300">
        <ele>2561.3</ele>
        <time>2018-08-11T16:03:11Z</time>
      </trkpt>
      <trkpt lat="4.5581680" lon="-74.2591330">
        <ele>2561.4</ele>
        <time>2018-08-11T16:03:12Z</time>
      </trkpt>
      <trkpt lat="4.5582250" lon="-74.2591350">
        <ele>2561.5</ele>
        <time>2018-08-11T16:03:13Z</time>
      </trkpt>
      <trkpt lat="4.5582830" lon="-74.2591350">
        <ele>2561.6</ele>
        <time>2018-08-11T16:03:14Z</time>
      </trkpt>
      <trkpt lat="4.5583420" lon="-74.2591320">
        <ele>2561.7</ele>
        <time>2018-08-11T16:03:15Z</time>
      </trkpt>
      <trkpt lat="4.5584000" lon="-74.2591270">
        <ele>2561.8</ele>
        <time>2018-08-11T16:03:16Z</time>
      </trkpt>
      <trkpt lat="4.5584580" lon="-74.2591270">
        <ele>2561.9</ele>
        <time>2018-08-11T16:03:17Z</time>
      </trkpt>
      <trkpt lat="4.5585150" lon="-74.2591270">
        <ele>2562.0</ele>
        <time>2018-08-11T16:03:18Z</time>
      </trkpt>
      <trkpt lat="4.5585720" lon="-74.2591280">
        <ele>2562.1</ele>
        <time>2018-08-11T16:03:19Z</time>
      </trkpt>
      <trkpt lat="4.5586300" lon="-74.2591270">
        <ele>2562.2</ele>
        <time>2018-08-11T16:03:20Z</time>
      </trkpt>
      <trkpt lat="4.5586870" lon="-74.2591250">
        <ele>2562.3</ele>
        <time>2018-08-11T16:03:21Z</time>
      </trkpt>
      <trkpt lat="4.5587450" lon="-74.2591200">
        <ele>2562.3</ele>
        <time>2018-08-11T16:03:22Z</time>
      </trkpt>
      <trkpt lat="4.5588070" lon="-74.2591220">
        <ele>2562.4</ele>
        <time>2018-08-11T16:03:23Z</time>
      </trkpt>
      <trkpt lat="4.5588670" lon="-74.2591230">
        <ele>2562.4</ele>
        <time>2018-08-11T16:03:24Z</time>
      </trkpt>
      <trkpt lat="4.5589230" lon="-74.2591230">
        <ele>2562.5</ele>
        <time>2018-08-11T16:03:25Z</time>
      </trkpt>
      <trkpt lat="4.5589820" lon="-74.2591220">
        <ele>2562.5</ele>
        <time>2018-08-11T16:03:26Z</time>
      </trkpt>
      <trkpt lat="4.5590430" lon="-74.2591220">
        <ele>2562.6</ele>
        <time>2018-08-11T16:03:27Z</time>
      </trkpt>
      <trkpt lat="4.5591050" lon="-74.2591220">
        <ele>2562.6</ele>
        <time>2018-08-11T16:03:28Z</time>
      </trkpt>
      <trkpt lat="4.5591670" lon="-74.2591220">
        <ele>2562.7</ele>
        <time>2018-08-11T16:03:29Z</time>
      </trkpt>
      <trkpt lat="4.5592280" lon="-74.2591230">
        <ele>2562.7</ele>
        <time>2018-08-11T16:03:30Z</time>
      </trkpt>
      <trkpt lat="4.5592880" lon="-74.2591230">
        <ele>2562.7</ele>
        <time>2018-08-11T16:03:31Z</time>
      </trkpt>
      <trkpt lat="4.5593520" lon="-74.2591250">
        <ele>2562.7</ele>
        <time>2018-08-11T16:03:32Z</time>
      </trkpt>
      <trkpt lat="4.5594150" lon="-74.2591230">
        <ele>2562.7</ele>
        <time>2018-08-11T16:03:33Z</time>
      </trkpt>
      <trkpt lat="4.5594800" lon="-74.2591230">
        <ele>2562.7</ele>
        <time>2018-08-11T16:03:34Z</time>
      </trkpt>
      <trkpt lat="4.5595430" lon="-74.2591270">
        <ele>2562.7</ele>
        <time>2018-08-11T16:03:35Z</time>
      </trkpt>
      <trkpt lat="4.5596070" lon="-74.2591280">
        <ele>2562.8</ele>
        <time>2018-08-11T16:03:36Z</time>
      </trkpt>
      <trkpt lat="4.5596700" lon="-74.2591280">
        <ele>2562.8</ele>
        <time>2018-08-11T16:03:37Z</time>
      </trkpt>
      <trkpt lat="4.5597350" lon="-74.2591280">
        <ele>2562.9</ele>
        <time>2018-08-11T16:03:38Z</time>
      </trkpt>
      <trkpt lat="4.5598000" lon="-74.2591280">
        <ele>2562.9</ele>
        <time>2018-08-11T16:03:39Z</time>
      </trkpt>
      <trkpt lat="4.5598650" lon="-74.2591270">
        <ele>2563.0</ele>
        <time>2018-08-11T16:03:40Z</time>
      </trkpt>
      <trkpt lat="4.5599300" lon="-74.2591250">
        <ele>2563.1</ele>
        <time>2018-08-11T16:03:41Z</time>
      </trkpt>
      <trkpt lat="4.5599920" lon="-74.2591250">
        <ele>2563.2</ele>
        <time>2018-08-11T16:03:42Z</time>
      </trkpt>
      <trkpt lat="4.5600550" lon="-74.2591230">
        <ele>2563.3</ele>
        <time>2018-08-11T16:03:43Z</time>
      </trkpt>
      <trkpt lat="4.5601170" lon="-74.2591230">
        <ele>2563.4</ele>
        <time>2018-08-11T16:03:44Z</time>
      </trkpt>
      <trkpt lat="4.5601780" lon="-74.2591250">
        <ele>2563.5</ele>
        <time>2018-08-11T16:03:45Z</time>
      </trkpt>
      <trkpt lat="4.5602400" lon="-74.2591250">
        <ele>2563.6</ele>
        <time>2018-08-11T16:03:46Z</time>
      </trkpt>
      <trkpt lat="4.5603000" lon="-74.2591250">
        <ele>2563.6</ele>
        <time>2018-08-11T16:03:47Z</time>
      </trkpt>
      <trkpt lat="4.5603620" lon="-74.2591250">
        <ele>2563.7</ele>
        <time>2018-08-11T16:03:48Z</time>
      </trkpt>
      <trkpt lat="4.5604200" lon="-74.2591250">
        <ele>2563.8</ele>
        <time>2018-08-11T16:03:49Z</time>
      </trkpt>
      <trkpt lat="4.5604780" lon="-74.2591200">
        <ele>2563.9</ele>
        <time>2018-08-11T16:03:50Z</time>
      </trkpt>
      <trkpt lat="4.5605400" lon="-74.2591080">
        <ele>2564.0</ele>
        <time>2018-08-11T16:03:51Z</time>
      </trkpt>
      <trkpt lat="4.5606030" lon="-74.2590930">
        <ele>2564.1</ele>
        <time>2018-08-11T16:03:52Z</time>
      </trkpt>
      <trkpt lat="4.5606650" lon="-74.2590900">
        <ele>2564.1</ele>
        <time>2018-08-11T16:03:53Z</time>
      </trkpt>
      <trkpt lat="4.5607270" lon="-74.2590880">
        <ele>2564.2</ele>
        <time>2018-08-11T16:03:54Z</time>
      </trkpt>
      <trkpt lat="4.5607870" lon="-74.2590850">
        <ele>2564.3</ele>
        <time>2018-08-11T16:03:55Z</time>
      </trkpt>
      <trkpt lat="4.5608480" lon="-74.2590800">
        <ele>2564.3</ele>
        <time>2018-08-11T16:03:56Z</time>
      </trkpt>
      <trkpt lat="4.5609100" lon="-74.2590780">
        <ele>2564.4</ele>
        <time>2018-08-11T16:03:57Z</time>
      </trkpt>
      <trkpt lat="4.5609720" lon="-74.2590780">
        <ele>2564.5</ele>
        <time>2018-08-11T16:03:58Z</time>
      </trkpt>
      <trkpt lat="4.5610330" lon="-74.2590780">
        <ele>2564.6</ele>
        <time>2018-08-11T16:03:59Z</time>
      </trkpt>
      <trkpt lat="4.5610950" lon="-74.2590770">
        <ele>2564.7</ele>
        <time>2018-08-11T16:04:00Z</time>
      </trkpt>
      <trkpt lat="4.5611570" lon="-74.2590750">
        <ele>2564.7</ele>
        <time>2018-08-11T16:04:01Z</time>
      </trkpt>
      <trkpt lat="4.5612180" lon="-74.2590730">
        <ele>2564.8</ele>
        <time>2018-08-11T16:04:02Z</time>
      </trkpt>
      <trkpt lat="4.5612780" lon="-74.2590730">
        <ele>2564.9</ele>
        <time>2018-08-11T16:04:03Z</time>
      </trkpt>
      <trkpt lat="4.5613370" lon="-74.2590750">
        <ele>2564.9</ele>
        <time>2018-08-11T16:04:04Z</time>
      </trkpt>
      <trkpt lat="4.5613930" lon="-74.2590750">
        <ele>2564.9</ele>
        <time>2018-08-11T16:04:05Z</time>
      </trkpt>
      <trkpt lat="4.5614500" lon="-74.2590730">
        <ele>2565.0</ele>
        <time>2018-08-11T16:04:06Z</time>
      </trkpt>
      <trkpt lat="4.5615070" lon="-74.2590720">
        <ele>2565.0</ele>
        <time>2018-08-11T16:04:07Z</time>
      </trkpt>
      <trkpt lat="4.5615600" lon="-74.2590730">
        <ele>2565.1</ele>
        <time>2018-08-11T16:04:08Z</time>
      </trkpt>
      <trkpt lat="4.5616150" lon="-74.2590730">
        <ele>2565.1</ele>
        <time>2018-08-11T16:04:09Z</time>
      </trkpt>
      <trkpt lat="4.5616670" lon="-74.2590720">
        <ele>2565.1</ele>
        <time>2018-08-11T16:04:10Z</time>
      </trkpt>
      <trkpt lat="4.5617180" lon="-74.2590750">
        <ele>2565.2</ele>
        <time>2018-08-11T16:04:11Z</time>
      </trkpt>
      <trkpt lat="4.5617670" lon="-74.2590800">
        <ele>2565.2</ele>
        <time>2018-08-11T16:04:12Z</time>
      </trkpt>
      <trkpt lat="4.5618130" lon="-74.2590850">
        <ele>2565.2</ele>
        <time>2018-08-11T16:04:13Z</time>
      </trkpt>
      <trkpt lat="4.5618680" lon="-74.2590850">
        <ele>2565.2</ele>
        <time>2018-08-11T16:04:14Z</time>
      </trkpt>
      <trkpt lat="4.5619250" lon="-74.2590850">
        <ele>2565.3</ele>
        <time>2018-08-11T16:04:15Z</time>
      </trkpt>
      <trkpt lat="4.5619780" lon="-74.2590870">
        <ele>2565.3</ele>
        <time>2018-08-11T16:04:16Z</time>
      </trkpt>
      <trkpt lat="4.5620380" lon="-74.2590870">
        <ele>2565.3</ele>
        <time>2018-08-11T16:04:17Z</time>
      </trkpt>
      <trkpt lat="4.5620950" lon="-74.2590850">
        <ele>2565.3</ele>
        <time>2018-08-11T16:04:18Z</time>
      </trkpt>
      <trkpt lat="4.5621530" lon="-74.2590870">
        <ele>2565.3</ele>
        <time>2018-08-11T16:04:19Z</time>
      </trkpt>
      <trkpt lat="4.5622120" lon="-74.2590870">
        <ele>2565.3</ele>
        <time>2018-08-11T16:04:20Z</time>
      </trkpt>
      <trkpt lat="4.5622730" lon="-74.2590850">
        <ele>2565.3</ele>
        <time>2018-08-11T16:04:21Z</time>
      </trkpt>
      <trkpt lat="4.5623370" lon="-74.2590850">
        <ele>2565.3</ele>
        <time>2018-08-11T16:04:22Z</time>
      </trkpt>
      <trkpt lat="4.5623980" lon="-74.2590870">
        <ele>2565.3</ele>
        <time>2018-08-11T16:04:23Z</time>
      </trkpt>
      <trkpt lat="4.5624600" lon="-74.2590880">
        <ele>2565.3</ele>
        <time>2018-08-11T16:04:24Z</time>
      </trkpt>
      <trkpt lat="4.5625220" lon="-74.2590880">
        <ele>2565.3</ele>
        <time>2018-08-11T16:04:25Z</time>
      </trkpt>
      <trkpt lat="4.5625830" lon="-74.2590880">
        <ele>2565.2</ele>
        <time>2018-08-11T16:04:26Z</time>
      </trkpt>
      <trkpt lat="4.5626480" lon="-74.2590870">
        <ele>2565.2</ele>
        <time>2018-08-11T16:04:27Z</time>
      </trkpt>
      <trkpt lat="4.5627170" lon="-74.2590870">
        <ele>2565.1</ele>
        <time>2018-08-11T16:04:28Z</time>
      </trkpt>
      <trkpt lat="4.5627870" lon="-74.2590850">
        <ele>2565.1</ele>
        <time>2018-08-11T16:04:29Z</time>
      </trkpt>
      <trkpt lat="4.5628550" lon="-74.2590850">
        <ele>2565.0</ele>
        <time>2018-08-11T16:04:30Z</time>
      </trkpt>
      <trkpt lat="4.5629270" lon="-74.2590820">
        <ele>2564.9</ele>
        <time>2018-08-11T16:04:31Z</time>
      </trkpt>
      <trkpt lat="4.5630000" lon="-74.2590820">
        <ele>2564.7</ele>
        <time>2018-08-11T16:04:32Z</time>
      </trkpt>
      <trkpt lat="4.5630750" lon="-74.2590830">
        <ele>2564.6</ele>
        <time>2018-08-11T16:04:33Z</time>
      </trkpt>
      <trkpt lat="4.5631500" lon="-74.2590820">
        <ele>2564.5</ele>
        <time>2018-08-11T16:04:34Z</time>
      </trkpt>
      <trkpt lat="4.5632230" lon="-74.2590820">
        <ele>2564.4</ele>
        <time>2018-08-11T16:04:35Z</time>
      </trkpt>
      <trkpt lat="4.5632970" lon="-74.2590820">
        <ele>2564.4</ele>
        <time>2018-08-11T16:04:36Z</time>
      </trkpt>
      <trkpt lat="4.5633720" lon="-74.2590830">
        <ele>2564.3</ele>
        <time>2018-08-11T16:04:37Z</time>
      </trkpt>
      <trkpt lat="4.5634480" lon="-74.2590830">
        <ele>2564.2</ele>
        <time>2018-08-11T16:04:38Z</time>
      </trkpt>
      <trkpt lat="4.5635220" lon="-74.2590820">
        <ele>2564.1</ele>
        <time>2018-08-11T16:04:39Z</time>
      </trkpt>
      <trkpt lat="4.5635970" lon="-74.2590830">
        <ele>2564.0</ele>
        <time>2018-08-11T16:04:40Z</time>
      </trkpt>
      <trkpt lat="4.5636720" lon="-74.2590830">
        <ele>2563.9</ele>
        <time>2018-08-11T16:04:41Z</time>
      </trkpt>
      <trkpt lat="4.5637470" lon="-74.2590820">
        <ele>2563.8</ele>
        <time>2018-08-11T16:04:42Z</time>
      </trkpt>
      <trkpt lat="4.5638200" lon="-74.2590800">
        <ele>2563.7</ele>
        <time>2018-08-11T16:04:43Z</time>
      </trkpt>
      <trkpt lat="4.5638920" lon="-74.2590870">
        <ele>2563.6</ele>
        <time>2018-08-11T16:04:44Z</time>
      </trkpt>
      <trkpt lat="4.5639600" lon="-74.2590880">
        <ele>2563.5</ele>
        <time>2018-08-11T16:04:45Z</time>
      </trkpt>
      <trkpt lat="4.5640300" lon="-74.2590900">
        <ele>2563.4</ele>
        <time>2018-08-11T16:04:46Z</time>
      </trkpt>
      <trkpt lat="4.5641000" lon="-74.2590920">
        <ele>2563.3</ele>
        <time>2018-08-11T16:04:47Z</time>
      </trkpt>
      <trkpt lat="4.5641750" lon="-74.2590900">
        <ele>2563.2</ele>
        <time>2018-08-11T16:04:48Z</time>
      </trkpt>
      <trkpt lat="4.5642520" lon="-74.2590880">
        <ele>2563.1</ele>
        <time>2018-08-11T16:04:49Z</time>
      </trkpt>
      <trkpt lat="4.5643280" lon="-74.2590880">
        <ele>2563.1</ele>
        <time>2018-08-11T16:04:50Z</time>
      </trkpt>
      <trkpt lat="4.5644050" lon="-74.2590880">
        <ele>2563.0</ele>
        <time>2018-08-11T16:04:51Z</time>
      </trkpt>
      <trkpt lat="4.5644830" lon="-74.2590850">
        <ele>2563.0</ele>
        <time>2018-08-11T16:04:52Z</time>
      </trkpt>
      <trkpt lat="4.5645600" lon="-74.2590830">
        <ele>2563.0</ele>
        <time>2018-08-11T16:04:53Z</time>
      </trkpt>
      <trkpt lat="4.5646350" lon="-74.2590820">
        <ele>2563.0</ele>
        <time>2018-08-11T16:04:54Z</time>
      </trkpt>
      <trkpt lat="4.5647080" lon="-74.2590770">
        <ele>2563.0</ele>
        <time>2018-08-11T16:04:55Z</time>
      </trkpt>
      <trkpt lat="4.5647820" lon="-74.2590750">
        <ele>2562.9</ele>
        <time>2018-08-11T16:04:56Z</time>
      </trkpt>
      <trkpt lat="4.5648580" lon="-74.2590750">
        <ele>2562.8</ele>
        <time>2018-08-11T16:04:57Z</time>
      </trkpt>
      <trkpt lat="4.5649350" lon="-74.2590680">
        <ele>2562.7</ele>
        <time>2018-08-11T16:04:58Z</time>
      </trkpt>
      <trkpt lat="4.5650120" lon="-74.2590650">
        <ele>2562.7</ele>
        <time>2018-08-11T16:04:59Z</time>
      </trkpt>
      <trkpt lat="4.5650880" lon="-74.2590650">
        <ele>2562.6</ele>
        <time>2018-08-11T16:05:00Z</time>
      </trkpt>
      <trkpt lat="4.5651630" lon="-74.2590650">
        <ele>2562.5</ele>
        <time>2018-08-11T16:05:01Z</time>
      </trkpt>
      <trkpt lat="4.5652370" lon="-74.2590670">
        <ele>2562.5</ele>
        <time>2018-08-11T16:05:02Z</time>
      </trkpt>
      <trkpt lat="4.5653130" lon="-74.2590680">
        <ele>2562.4</ele>
        <time>2018-08-11T16:05:03Z</time>
      </trkpt>
      <trkpt lat="4.5653880" lon="-74.2590700">
        <ele>2562.4</ele>
        <time>2018-08-11T16:05:04Z</time>
      </trkpt>
      <trkpt lat="4.5654650" lon="-74.2590700">
        <ele>2562.4</ele>
        <time>2018-08-11T16:05:05Z</time>
      </trkpt>
      <trkpt lat="4.5655380" lon="-74.2590680">
        <ele>2562.4</ele>
        <time>2018-08-11T16:05:06Z</time>
      </trkpt>
      <trkpt lat="4.5656120" lon="-74.2590650">
        <ele>2562.3</ele>
        <time>2018-08-11T16:05:07Z</time>
      </trkpt>
      <trkpt lat="4.5656870" lon="-74.2590630">
        <ele>2562.3</ele>
        <time>2018-08-11T16:05:08Z</time>
      </trkpt>
      <trkpt lat="4.5657620" lon="-74.2590650">
        <ele>2562.2</ele>
        <time>2018-08-11T16:05:09Z</time>
      </trkpt>
      <trkpt lat="4.5658350" lon="-74.2590680">
        <ele>2562.2</ele>
        <time>2018-08-11T16:05:10Z</time>
      </trkpt>
      <trkpt lat="4.5659080" lon="-74.2590680">
        <ele>2562.1</ele>
        <time>2018-08-11T16:05:11Z</time>
      </trkpt>
      <trkpt lat="4.5659780" lon="-74.2590680">
        <ele>2562.1</ele>
        <time>2018-08-11T16:05:12Z</time>
      </trkpt>
      <trkpt lat="4.5660480" lon="-74.2590670">
        <ele>2562.0</ele>
        <time>2018-08-11T16:05:13Z</time>
      </trkpt>
      <trkpt lat="4.5661200" lon="-74.2590650">
        <ele>2561.9</ele>
        <time>2018-08-11T16:05:14Z</time>
      </trkpt>
      <trkpt lat="4.5661850" lon="-74.2590700">
        <ele>2561.8</ele>
        <time>2018-08-11T16:05:15Z</time>
      </trkpt>
      <trkpt lat="4.5662530" lon="-74.2590650">
        <ele>2561.6</ele>
        <time>2018-08-11T16:05:16Z</time>
      </trkpt>
      <trkpt lat="4.5663230" lon="-74.2590630">
        <ele>2561.5</ele>
        <time>2018-08-11T16:05:17Z</time>
      </trkpt>
      <trkpt lat="4.5663970" lon="-74.2590600">
        <ele>2561.4</ele>
        <time>2018-08-11T16:05:18Z</time>
      </trkpt>
      <trkpt lat="4.5664680" lon="-74.2590570">
        <ele>2561.2</ele>
        <time>2018-08-11T16:05:19Z</time>
      </trkpt>
      <trkpt lat="4.5665420" lon="-74.2590570">
        <ele>2561.2</ele>
        <time>2018-08-11T16:05:20Z</time>
      </trkpt>
      <trkpt lat="4.5666150" lon="-74.2590530">
        <ele>2561.1</ele>
        <time>2018-08-11T16:05:21Z</time>
      </trkpt>
      <trkpt lat="4.5666870" lon="-74.2590530">
        <ele>2561.0</ele>
        <time>2018-08-11T16:05:22Z</time>
      </trkpt>
      <trkpt lat="4.5667570" lon="-74.2590520">
        <ele>2560.9</ele>
        <time>2018-08-11T16:05:23Z</time>
      </trkpt>
      <trkpt lat="4.5668280" lon="-74.2590500">
        <ele>2560.8</ele>
        <time>2018-08-11T16:05:24Z</time>
      </trkpt>
      <trkpt lat="4.5669020" lon="-74.2590520">
        <ele>2560.7</ele>
        <time>2018-08-11T16:05:25Z</time>
      </trkpt>
      <trkpt lat="4.5669730" lon="-74.2590530">
        <ele>2560.5</ele>
        <time>2018-08-11T16:05:26Z</time>
      </trkpt>
      <trkpt lat="4.5670430" lon="-74.2590530">
        <ele>2560.4</ele>
        <time>2018-08-11T16:05:27Z</time>
      </trkpt>
      <trkpt lat="4.5671150" lon="-74.2590520">
        <ele>2560.3</ele>
        <time>2018-08-11T16:05:28Z</time>
      </trkpt>
      <trkpt lat="4.5671850" lon="-74.2590520">
        <ele>2560.2</ele>
        <time>2018-08-11T16:05:29Z</time>
      </trkpt>
      <trkpt lat="4.5672570" lon="-74.2590500">
        <ele>2560.1</ele>
        <time>2018-08-11T16:05:30Z</time>
      </trkpt>
      <trkpt lat="4.5673250" lon="-74.2590480">
        <ele>2560.0</ele>
        <time>2018-08-11T16:05:31Z</time>
      </trkpt>
      <trkpt lat="4.5673970" lon="-74.2590480">
        <ele>2559.9</ele>
        <time>2018-08-11T16:05:32Z</time>
      </trkpt>
      <trkpt lat="4.5674650" lon="-74.2590500">
        <ele>2559.9</ele>
        <time>2018-08-11T16:05:33Z</time>
      </trkpt>
      <trkpt lat="4.5675350" lon="-74.2590470">
        <ele>2559.8</ele>
        <time>2018-08-11T16:05:34Z</time>
      </trkpt>
      <trkpt lat="4.5676050" lon="-74.2590450">
        <ele>2559.7</ele>
        <time>2018-08-11T16:05:35Z</time>
      </trkpt>
      <trkpt lat="4.5676750" lon="-74.2590450">
        <ele>2559.6</ele>
        <time>2018-08-11T16:05:36Z</time>
      </trkpt>
      <trkpt lat="4.5677450" lon="-74.2590450">
        <ele>2559.5</ele>
        <time>2018-08-11T16:05:37Z</time>
      </trkpt>
      <trkpt lat="4.5678150" lon="-74.2590450">
        <ele>2559.5</ele>
        <time>2018-08-11T16:05:38Z</time>
      </trkpt>
      <trkpt lat="4.5678850" lon="-74.2590470">
        <ele>2559.4</ele>
        <time>2018-08-11T16:05:39Z</time>
      </trkpt>
      <trkpt lat="4.5679550" lon="-74.2590480">
        <ele>2559.3</ele>
        <time>2018-08-11T16:05:40Z</time>
      </trkpt>
      <trkpt lat="4.5680250" lon="-74.2590480">
        <ele>2559.2</ele>
        <time>2018-08-11T16:05:41Z</time>
      </trkpt>
      <trkpt lat="4.5680950" lon="-74.2590480">
        <ele>2559.2</ele>
        <time>2018-08-11T16:05:42Z</time>
      </trkpt>
      <trkpt lat="4.5681680" lon="-74.2590480">
        <ele>2559.0</ele>
        <time>2018-08-11T16:05:43Z</time>
      </trkpt>
      <trkpt lat="4.5682400" lon="-74.2590480">
        <ele>2558.9</ele>
        <time>2018-08-11T16:05:44Z</time>
      </trkpt>
      <trkpt lat="4.5683100" lon="-74.2590520">
        <ele>2558.8</ele>
        <time>2018-08-11T16:05:45Z</time>
      </trkpt>
      <trkpt lat="4.5683750" lon="-74.2590650">
        <ele>2558.6</ele>
        <time>2018-08-11T16:05:46Z</time>
      </trkpt>
      <trkpt lat="4.5684430" lon="-74.2590650">
        <ele>2558.5</ele>
        <time>2018-08-11T16:05:47Z</time>
      </trkpt>
      <trkpt lat="4.5685120" lon="-74.2590680">
        <ele>2558.4</ele>
        <time>2018-08-11T16:05:48Z</time>
      </trkpt>
      <trkpt lat="4.5685830" lon="-74.2590720">
        <ele>2558.4</ele>
        <time>2018-08-11T16:05:49Z</time>
      </trkpt>
      <trkpt lat="4.5686530" lon="-74.2590820">
        <ele>2558.3</ele>
        <time>2018-08-11T16:05:50Z</time>
      </trkpt>
      <trkpt lat="4.5687270" lon="-74.2590880">
        <ele>2558.2</ele>
        <time>2018-08-11T16:05:51Z</time>
      </trkpt>
      <trkpt lat="4.5688000" lon="-74.2590930">
        <ele>2558.1</ele>
        <time>2018-08-11T16:05:52Z</time>
      </trkpt>
      <trkpt lat="4.5688720" lon="-74.2590970">
        <ele>2558.0</ele>
        <time>2018-08-11T16:05:53Z</time>
      </trkpt>
      <trkpt lat="4.5689450" lon="-74.2591030">
        <ele>2557.9</ele>
        <time>2018-08-11T16:05:54Z</time>
      </trkpt>
      <trkpt lat="4.5690180" lon="-74.2591080">
        <ele>2557.7</ele>
        <time>2018-08-11T16:05:55Z</time>
      </trkpt>
      <trkpt lat="4.5690930" lon="-74.2591170">
        <ele>2557.6</ele>
        <time>2018-08-11T16:05:56Z</time>
      </trkpt>
      <trkpt lat="4.5691650" lon="-74.2591230">
        <ele>2557.5</ele>
        <time>2018-08-11T16:05:57Z</time>
      </trkpt>
      <trkpt lat="4.5692370" lon="-74.2591350">
        <ele>2557.4</ele>
        <time>2018-08-11T16:05:58Z</time>
      </trkpt>
      <trkpt lat="4.5693100" lon="-74.2591470">
        <ele>2557.3</ele>
        <time>2018-08-11T16:05:59Z</time>
      </trkpt>
      <trkpt lat="4.5693820" lon="-74.2591620">
        <ele>2557.2</ele>
        <time>2018-08-11T16:06:00Z</time>
      </trkpt>
      <trkpt lat="4.5694550" lon="-74.2591770">
        <ele>2557.1</ele>
        <time>2018-08-11T16:06:01Z</time>
      </trkpt>
      <trkpt lat="4.5695270" lon="-74.2591920">
        <ele>2556.9</ele>
        <time>2018-08-11T16:06:02Z</time>
      </trkpt>
      <trkpt lat="4.5696000" lon="-74.2592080">
        <ele>2556.7</ele>
        <time>2018-08-11T16:06:03Z</time>
      </trkpt>
      <trkpt lat="4.5696720" lon="-74.2592250">
        <ele>2556.5</ele>
        <time>2018-08-11T16:06:04Z</time>
      </trkpt>
      <trkpt lat="4.5697430" lon="-74.2592430">
        <ele>2556.4</ele>
        <time>2018-08-11T16:06:05Z</time>
      </trkpt>
      <trkpt lat="4.5698080" lon="-74.2592680">
        <ele>2556.4</ele>
        <time>2018-08-11T16:06:06Z</time>
      </trkpt>
      <trkpt lat="4.5698750" lon="-74.2592930">
        <ele>2556.4</ele>
        <time>2018-08-11T16:06:07Z</time>
      </trkpt>
      <trkpt lat="4.5699380" lon="-74.2593170">
        <ele>2556.5</ele>
        <time>2018-08-11T16:06:08Z</time>
      </trkpt>
      <trkpt lat="4.5700050" lon="-74.2593350">
        <ele>2556.6</ele>
        <time>2018-08-11T16:06:09Z</time>
      </trkpt>
      <trkpt lat="4.5700770" lon="-74.2593480">
        <ele>2556.6</ele>
        <time>2018-08-11T16:06:10Z</time>
      </trkpt>
      <trkpt lat="4.5701470" lon="-74.2593650">
        <ele>2556.7</ele>
        <time>2018-08-11T16:06:11Z</time>
      </trkpt>
      <trkpt lat="4.5702180" lon="-74.2593850">
        <ele>2556.6</ele>
        <time>2018-08-11T16:06:12Z</time>
      </trkpt>
      <trkpt lat="4.5702880" lon="-74.2594080">
        <ele>2556.6</ele>
        <time>2018-08-11T16:06:13Z</time>
      </trkpt>
      <trkpt lat="4.5703570" lon="-74.2594320">
        <ele>2556.5</ele>
        <time>2018-08-11T16:06:14Z</time>
      </trkpt>
      <trkpt lat="4.5704250" lon="-74.2594550">
        <ele>2556.4</ele>
        <time>2018-08-11T16:06:15Z</time>
      </trkpt>
      <trkpt lat="4.5704950" lon="-74.2594830">
        <ele>2556.4</ele>
        <time>2018-08-11T16:06:16Z</time>
      </trkpt>
      <trkpt lat="4.5705650" lon="-74.2595080">
        <ele>2556.3</ele>
        <time>2018-08-11T16:06:17Z</time>
      </trkpt>
      <trkpt lat="4.5706330" lon="-74.2595300">
        <ele>2556.3</ele>
        <time>2018-08-11T16:06:18Z</time>
      </trkpt>
      <trkpt lat="4.5707050" lon="-74.2595600">
        <ele>2556.3</ele>
        <time>2018-08-11T16:06:19Z</time>
      </trkpt>
      <trkpt lat="4.5707720" lon="-74.2595900">
        <ele>2556.2</ele>
        <time>2018-08-11T16:06:20Z</time>
      </trkpt>
      <trkpt lat="4.5708400" lon="-74.2596200">
        <ele>2556.1</ele>
        <time>2018-08-11T16:06:21Z</time>
      </trkpt>
      <trkpt lat="4.5709100" lon="-74.2596470">
        <ele>2556.1</ele>
        <time>2018-08-11T16:06:22Z</time>
      </trkpt>
      <trkpt lat="4.5709820" lon="-74.2596700">
        <ele>2556.0</ele>
        <time>2018-08-11T16:06:23Z</time>
      </trkpt>
      <trkpt lat="4.5710530" lon="-74.2596980">
        <ele>2555.9</ele>
        <time>2018-08-11T16:06:24Z</time>
      </trkpt>
      <trkpt lat="4.5711250" lon="-74.2597280">
        <ele>2555.9</ele>
        <time>2018-08-11T16:06:25Z</time>
      </trkpt>
      <trkpt lat="4.5711950" lon="-74.2597600">
        <ele>2555.9</ele>
        <time>2018-08-11T16:06:26Z</time>
      </trkpt>
      <trkpt lat="4.5712620" lon="-74.2597920">
        <ele>2555.9</ele>
        <time>2018-08-11T16:06:27Z</time>
      </trkpt>
      <trkpt lat="4.5713320" lon="-74.2598170">
        <ele>2555.9</ele>
        <time>2018-08-11T16:06:28Z</time>
      </trkpt>
      <trkpt lat="4.5714020" lon="-74.2598430">
        <ele>2555.8</ele>
        <time>2018-08-11T16:06:29Z</time>
      </trkpt>
      <trkpt lat="4.5714730" lon="-74.2598680">
        <ele>2555.8</ele>
        <time>2018-08-11T16:06:30Z</time>
      </trkpt>
      <trkpt lat="4.5715470" lon="-74.2598950">
        <ele>2555.7</ele>
        <time>2018-08-11T16:06:31Z</time>
      </trkpt>
      <trkpt lat="4.5716220" lon="-74.2599250">
        <ele>2555.6</ele>
        <time>2018-08-11T16:06:32Z</time>
      </trkpt>
      <trkpt lat="4.5716980" lon="-74.2599530">
        <ele>2555.5</ele>
        <time>2018-08-11T16:06:33Z</time>
      </trkpt>
      <trkpt lat="4.5717730" lon="-74.2599820">
        <ele>2555.5</ele>
        <time>2018-08-11T16:06:34Z</time>
      </trkpt>
      <trkpt lat="4.5718470" lon="-74.2600080">
        <ele>2555.5</ele>
        <time>2018-08-11T16:06:35Z</time>
      </trkpt>
      <trkpt lat="4.5719180" lon="-74.2600350">
        <ele>2555.5</ele>
        <time>2018-08-11T16:06:36Z</time>
      </trkpt>
      <trkpt lat="4.5719880" lon="-74.2600600">
        <ele>2555.5</ele>
        <time>2018-08-11T16:06:37Z</time>
      </trkpt>
      <trkpt lat="4.5720600" lon="-74.2600870">
        <ele>2555.5</ele>
        <time>2018-08-11T16:06:38Z</time>
      </trkpt>
      <trkpt lat="4.5721320" lon="-74.2601170">
        <ele>2555.5</ele>
        <time>2018-08-11T16:06:39Z</time>
      </trkpt>
      <trkpt lat="4.5722070" lon="-74.2601500">
        <ele>2555.6</ele>
        <time>2018-08-11T16:06:40Z</time>
      </trkpt>
      <trkpt lat="4.5722820" lon="-74.2601800">
        <ele>2555.6</ele>
        <time>2018-08-11T16:06:41Z</time>
      </trkpt>
      <trkpt lat="4.5723580" lon="-74.2602080">
        <ele>2555.6</ele>
        <time>2018-08-11T16:06:42Z</time>
      </trkpt>
      <trkpt lat="4.5724350" lon="-74.2602380">
        <ele>2555.5</ele>
        <time>2018-08-11T16:06:43Z</time>
      </trkpt>
      <trkpt lat="4.5725130" lon="-74.2602680">
        <ele>2555.4</ele>
        <time>2018-08-11T16:06:44Z</time>
      </trkpt>
      <trkpt lat="4.5725880" lon="-74.2603020">
        <ele>2555.2</ele>
        <time>2018-08-11T16:06:45Z</time>
      </trkpt>
      <trkpt lat="4.5726670" lon="-74.2603330">
        <ele>2555.1</ele>
        <time>2018-08-11T16:06:46Z</time>
      </trkpt>
      <trkpt lat="4.5727470" lon="-74.2603630">
        <ele>2555.0</ele>
        <time>2018-08-11T16:06:47Z</time>
      </trkpt>
      <trkpt lat="4.5728250" lon="-74.2603920">
        <ele>2554.9</ele>
        <time>2018-08-11T16:06:48Z</time>
      </trkpt>
      <trkpt lat="4.5729030" lon="-74.2604180">
        <ele>2554.9</ele>
        <time>2018-08-11T16:06:49Z</time>
      </trkpt>
      <trkpt lat="4.5729800" lon="-74.2604480">
        <ele>2554.8</ele>
        <time>2018-08-11T16:06:50Z</time>
      </trkpt>
      <trkpt lat="4.5730530" lon="-74.2604750">
        <ele>2554.8</ele>
        <time>2018-08-11T16:06:51Z</time>
      </trkpt>
      <trkpt lat="4.5731270" lon="-74.2605000">
        <ele>2554.8</ele>
        <time>2018-08-11T16:06:52Z</time>
      </trkpt>
      <trkpt lat="4.5731980" lon="-74.2605270">
        <ele>2554.8</ele>
        <time>2018-08-11T16:06:53Z</time>
      </trkpt>
      <trkpt lat="4.5732720" lon="-74.2605530">
        <ele>2554.8</ele>
        <time>2018-08-11T16:06:54Z</time>
      </trkpt>
      <trkpt lat="4.5733420" lon="-74.2605780">
        <ele>2554.8</ele>
        <time>2018-08-11T16:06:55Z</time>
      </trkpt>
      <trkpt lat="4.5734120" lon="-74.2606070">
        <ele>2554.9</ele>
        <time>2018-08-11T16:06:56Z</time>
      </trkpt>
      <trkpt lat="4.5734780" lon="-74.2606300">
        <ele>2554.9</ele>
        <time>2018-08-11T16:06:57Z</time>
      </trkpt>
      <trkpt lat="4.5735480" lon="-74.2606550">
        <ele>2554.9</ele>
        <time>2018-08-11T16:06:58Z</time>
      </trkpt>
      <trkpt lat="4.5736180" lon="-74.2606830">
        <ele>2555.0</ele>
        <time>2018-08-11T16:06:59Z</time>
      </trkpt>
      <trkpt lat="4.5736870" lon="-74.2607130">
        <ele>2555.0</ele>
        <time>2018-08-11T16:07:00Z</time>
      </trkpt>
      <trkpt lat="4.5737550" lon="-74.2607400">
        <ele>2555.0</ele>
        <time>2018-08-11T16:07:01Z</time>
      </trkpt>
      <trkpt lat="4.5738230" lon="-74.2607680">
        <ele>2555.1</ele>
        <time>2018-08-11T16:07:02Z</time>
      </trkpt>
      <trkpt lat="4.5738920" lon="-74.2607950">
        <ele>2555.2</ele>
        <time>2018-08-11T16:07:03Z</time>
      </trkpt>
      <trkpt lat="4.5739600" lon="-74.2608220">
        <ele>2555.2</ele>
        <time>2018-08-11T16:07:04Z</time>
      </trkpt>
      <trkpt lat="4.5740280" lon="-74.2608480">
        <ele>2555.3</ele>
        <time>2018-08-11T16:07:05Z</time>
      </trkpt>
      <trkpt lat="4.5740970" lon="-74.2608770">
        <ele>2555.4</ele>
        <time>2018-08-11T16:07:06Z</time>
      </trkpt>
      <trkpt lat="4.5741630" lon="-74.2609030">
        <ele>2555.4</ele>
        <time>2018-08-11T16:07:07Z</time>
      </trkpt>
      <trkpt lat="4.5742300" lon="-74.2609300">
        <ele>2555.4</ele>
        <time>2018-08-11T16:07:08Z</time>
      </trkpt>
      <trkpt lat="4.5742980" lon="-74.2609550">
        <ele>2555.4</ele>
        <time>2018-08-11T16:07:09Z</time>
      </trkpt>
      <trkpt lat="4.5743630" lon="-74.2609830">
        <ele>2555.5</ele>
        <time>2018-08-11T16:07:10Z</time>
      </trkpt>
      <trkpt lat="4.5744300" lon="-74.2610070">
        <ele>2555.5</ele>
        <time>2018-08-11T16:07:11Z</time>
      </trkpt>
      <trkpt lat="4.5744970" lon="-74.2610280">
        <ele>2555.4</ele>
        <time>2018-08-11T16:07:12Z</time>
      </trkpt>
      <trkpt lat="4.5745620" lon="-74.2610500">
        <ele>2555.4</ele>
        <time>2018-08-11T16:07:13Z</time>
      </trkpt>
      <trkpt lat="4.5746270" lon="-74.2610720">
        <ele>2555.4</ele>
        <time>2018-08-11T16:07:14Z</time>
      </trkpt>
      <trkpt lat="4.5746920" lon="-74.2610930">
        <ele>2555.3</ele>
        <time>2018-08-11T16:07:15Z</time>
      </trkpt>
      <trkpt lat="4.5747580" lon="-74.2611200">
        <ele>2555.3</ele>
        <time>2018-08-11T16:07:16Z</time>
      </trkpt>
      <trkpt lat="4.5748250" lon="-74.2611480">
        <ele>2555.2</ele>
        <time>2018-08-11T16:07:17Z</time>
      </trkpt>
      <trkpt lat="4.5748950" lon="-74.2611750">
        <ele>2555.1</ele>
        <time>2018-08-11T16:07:18Z</time>
      </trkpt>
      <trkpt lat="4.5749630" lon="-74.2611980">
        <ele>2555.1</ele>
        <time>2018-08-11T16:07:19Z</time>
      </trkpt>
      <trkpt lat="4.5750330" lon="-74.2612220">
        <ele>2555.0</ele>
        <time>2018-08-11T16:07:20Z</time>
      </trkpt>
      <trkpt lat="4.5751020" lon="-74.2612520">
        <ele>2555.0</ele>
        <time>2018-08-11T16:07:21Z</time>
      </trkpt>
      <trkpt lat="4.5751670" lon="-74.2612780">
        <ele>2555.0</ele>
        <time>2018-08-11T16:07:22Z</time>
      </trkpt>
      <trkpt lat="4.5752330" lon="-74.2612950">
        <ele>2554.9</ele>
        <time>2018-08-11T16:07:23Z</time>
      </trkpt>
      <trkpt lat="4.5752970" lon="-74.2613200">
        <ele>2554.9</ele>
        <time>2018-08-11T16:07:24Z</time>
      </trkpt>
      <trkpt lat="4.5753620" lon="-74.2613450">
        <ele>2555.0</ele>
        <time>2018-08-11T16:07:25Z</time>
      </trkpt>
      <trkpt lat="4.5754280" lon="-74.2613670">
        <ele>2555.0</ele>
        <time>2018-08-11T16:07:26Z</time>
      </trkpt>
      <trkpt lat="4.5754920" lon="-74.2613950">
        <ele>2555.0</ele>
        <time>2018-08-11T16:07:27Z</time>
      </trkpt>
      <trkpt lat="4.5755580" lon="-74.2614230">
        <ele>2555.0</ele>
        <time>2018-08-11T16:07:28Z</time>
      </trkpt>
      <trkpt lat="4.5756230" lon="-74.2614480">
        <ele>2555.0</ele>
        <time>2018-08-11T16:07:29Z</time>
      </trkpt>
      <trkpt lat="4.5756870" lon="-74.2614730">
        <ele>2555.0</ele>
        <time>2018-08-11T16:07:30Z</time>
      </trkpt>
      <trkpt lat="4.5757520" lon="-74.2614980">
        <ele>2554.9</ele>
        <time>2018-08-11T16:07:31Z</time>
      </trkpt>
      <trkpt lat="4.5758200" lon="-74.2615230">
        <ele>2554.9</ele>
        <time>2018-08-11T16:07:32Z</time>
      </trkpt>
      <trkpt lat="4.5758850" lon="-74.2615480">
        <ele>2554.8</ele>
        <time>2018-08-11T16:07:33Z</time>
      </trkpt>
      <trkpt lat="4.5759500" lon="-74.2615770">
        <ele>2554.8</ele>
        <time>2018-08-11T16:07:34Z</time>
      </trkpt>
      <trkpt lat="4.5760170" lon="-74.2616030">
        <ele>2554.8</ele>
        <time>2018-08-11T16:07:35Z</time>
      </trkpt>
      <trkpt lat="4.5760830" lon="-74.2616300">
        <ele>2554.9</ele>
        <time>2018-08-11T16:07:36Z</time>
      </trkpt>
      <trkpt lat="4.5761520" lon="-74.2616530">
        <ele>2555.0</ele>
        <time>2018-08-11T16:07:37Z</time>
      </trkpt>
      <trkpt lat="4.5762200" lon="-74.2616780">
        <ele>2555.0</ele>
        <time>2018-08-11T16:07:38Z</time>
      </trkpt>
      <trkpt lat="4.5762850" lon="-74.2617030">
        <ele>2555.0</ele>
        <time>2018-08-11T16:07:39Z</time>
      </trkpt>
      <trkpt lat="4.5763480" lon="-74.2617270">
        <ele>2555.1</ele>
        <time>2018-08-11T16:07:40Z</time>
      </trkpt>
      <trkpt lat="4.5764120" lon="-74.2617500">
        <ele>2555.2</ele>
        <time>2018-08-11T16:07:41Z</time>
      </trkpt>
      <trkpt lat="4.5764730" lon="-74.2617750">
        <ele>2555.3</ele>
        <time>2018-08-11T16:07:42Z</time>
      </trkpt>
      <trkpt lat="4.5765370" lon="-74.2618000">
        <ele>2555.4</ele>
        <time>2018-08-11T16:07:43Z</time>
      </trkpt>
      <trkpt lat="4.5766020" lon="-74.2618270">
        <ele>2555.4</ele>
        <time>2018-08-11T16:07:44Z</time>
      </trkpt>
      <trkpt lat="4.5766700" lon="-74.2618520">
        <ele>2555.4</ele>
        <time>2018-08-11T16:07:45Z</time>
      </trkpt>
      <trkpt lat="4.5767380" lon="-74.2618750">
        <ele>2555.4</ele>
        <time>2018-08-11T16:07:46Z</time>
      </trkpt>
      <trkpt lat="4.5768070" lon="-74.2619000">
        <ele>2555.5</ele>
        <time>2018-08-11T16:07:47Z</time>
      </trkpt>
      <trkpt lat="4.5768780" lon="-74.2619230">
        <ele>2555.6</ele>
        <time>2018-08-11T16:07:48Z</time>
      </trkpt>
      <trkpt lat="4.5769520" lon="-74.2619520">
        <ele>2555.8</ele>
        <time>2018-08-11T16:07:49Z</time>
      </trkpt>
      <trkpt lat="4.5770220" lon="-74.2619800">
        <ele>2556.0</ele>
        <time>2018-08-11T16:07:50Z</time>
      </trkpt>
      <trkpt lat="4.5770930" lon="-74.2620050">
        <ele>2556.1</ele>
        <time>2018-08-11T16:07:51Z</time>
      </trkpt>
      <trkpt lat="4.5771600" lon="-74.2620370">
        <ele>2556.2</ele>
        <time>2018-08-11T16:07:52Z</time>
      </trkpt>
      <trkpt lat="4.5772300" lon="-74.2620680">
        <ele>2556.2</ele>
        <time>2018-08-11T16:07:53Z</time>
      </trkpt>
      <trkpt lat="4.5773000" lon="-74.2620950">
        <ele>2556.3</ele>
        <time>2018-08-11T16:07:54Z</time>
      </trkpt>
      <trkpt lat="4.5773720" lon="-74.2621200">
        <ele>2556.4</ele>
        <time>2018-08-11T16:07:55Z</time>
      </trkpt>
      <trkpt lat="4.5774420" lon="-74.2621430">
        <ele>2556.4</ele>
        <time>2018-08-11T16:07:56Z</time>
      </trkpt>
      <trkpt lat="4.5775100" lon="-74.2621750">
        <ele>2556.5</ele>
        <time>2018-08-11T16:07:57Z</time>
      </trkpt>
      <trkpt lat="4.5775820" lon="-74.2622020">
        <ele>2556.6</ele>
        <time>2018-08-11T16:07:58Z</time>
      </trkpt>
      <trkpt lat="4.5776530" lon="-74.2622270">
        <ele>2556.7</ele>
        <time>2018-08-11T16:07:59Z</time>
      </trkpt>
      <trkpt lat="4.5777280" lon="-74.2622530">
        <ele>2556.8</ele>
        <time>2018-08-11T16:08:00Z</time>
      </trkpt>
      <trkpt lat="4.5778030" lon="-74.2622770">
        <ele>2556.9</ele>
        <time>2018-08-11T16:08:01Z</time>
      </trkpt>
      <trkpt lat="4.5778820" lon="-74.2623030">
        <ele>2557.0</ele>
        <time>2018-08-11T16:08:02Z</time>
      </trkpt>
      <trkpt lat="4.5779580" lon="-74.2623270">
        <ele>2557.1</ele>
        <time>2018-08-11T16:08:03Z</time>
      </trkpt>
      <trkpt lat="4.5780330" lon="-74.2623520">
        <ele>2557.2</ele>
        <time>2018-08-11T16:08:04Z</time>
      </trkpt>
      <trkpt lat="4.5781080" lon="-74.2623750">
        <ele>2557.2</ele>
        <time>2018-08-11T16:08:05Z</time>
      </trkpt>
      <trkpt lat="4.5781830" lon="-74.2623970">
        <ele>2557.3</ele>
        <time>2018-08-11T16:08:06Z</time>
      </trkpt>
      <trkpt lat="4.5782630" lon="-74.2624150">
        <ele>2557.3</ele>
        <time>2018-08-11T16:08:07Z</time>
      </trkpt>
      <trkpt lat="4.5783400" lon="-74.2624250">
        <ele>2557.3</ele>
        <time>2018-08-11T16:08:08Z</time>
      </trkpt>
      <trkpt lat="4.5784180" lon="-74.2624370">
        <ele>2557.3</ele>
        <time>2018-08-11T16:08:09Z</time>
      </trkpt>
      <trkpt lat="4.5784970" lon="-74.2624520">
        <ele>2557.2</ele>
        <time>2018-08-11T16:08:10Z</time>
      </trkpt>
      <trkpt lat="4.5785750" lon="-74.2624650">
        <ele>2557.2</ele>
        <time>2018-08-11T16:08:11Z</time>
      </trkpt>
      <trkpt lat="4.5786530" lon="-74.2624780">
        <ele>2557.1</ele>
        <time>2018-08-11T16:08:12Z</time>
      </trkpt>
      <trkpt lat="4.5787300" lon="-74.2624900">
        <ele>2557.1</ele>
        <time>2018-08-11T16:08:13Z</time>
      </trkpt>
      <trkpt lat="4.5788130" lon="-74.2625000">
        <ele>2557.1</ele>
        <time>2018-08-11T16:08:14Z</time>
      </trkpt>
      <trkpt lat="4.5788970" lon="-74.2625120">
        <ele>2557.1</ele>
        <time>2018-08-11T16:08:15Z</time>
      </trkpt>
      <trkpt lat="4.5789770" lon="-74.2625200">
        <ele>2557.2</ele>
        <time>2018-08-11T16:08:16Z</time>
      </trkpt>
      <trkpt lat="4.5790570" lon="-74.2625230">
        <ele>2557.2</ele>
        <time>2018-08-11T16:08:17Z</time>
      </trkpt>
      <trkpt lat="4.5791370" lon="-74.2625250">
        <ele>2557.3</ele>
        <time>2018-08-11T16:08:18Z</time>
      </trkpt>
      <trkpt lat="4.5792120" lon="-74.2625320">
        <ele>2557.4</ele>
        <time>2018-08-11T16:08:19Z</time>
      </trkpt>
      <trkpt lat="4.5792880" lon="-74.2625350">
        <ele>2557.5</ele>
        <time>2018-08-11T16:08:20Z</time>
      </trkpt>
      <trkpt lat="4.5793650" lon="-74.2625370">
        <ele>2557.5</ele>
        <time>2018-08-11T16:08:21Z</time>
      </trkpt>
      <trkpt lat="4.5794400" lon="-74.2625330">
        <ele>2557.6</ele>
        <time>2018-08-11T16:08:22Z</time>
      </trkpt>
      <trkpt lat="4.5795120" lon="-74.2625380">
        <ele>2557.6</ele>
        <time>2018-08-11T16:08:23Z</time>
      </trkpt>
      <trkpt lat="4.5795850" lon="-74.2625380">
        <ele>2557.6</ele>
        <time>2018-08-11T16:08:24Z</time>
      </trkpt>
      <trkpt lat="4.5796580" lon="-74.2625330">
        <ele>2557.6</ele>
        <time>2018-08-11T16:08:25Z</time>
      </trkpt>
      <trkpt lat="4.5797380" lon="-74.2625280">
        <ele>2557.7</ele>
        <time>2018-08-11T16:08:26Z</time>
      </trkpt>
      <trkpt lat="4.5798130" lon="-74.2625150">
        <ele>2557.8</ele>
        <time>2018-08-11T16:08:27Z</time>
      </trkpt>
      <trkpt lat="4.5798920" lon="-74.2625020">
        <ele>2557.9</ele>
        <time>2018-08-11T16:08:28Z</time>
      </trkpt>
      <trkpt lat="4.5799650" lon="-74.2624880">
        <ele>2558.0</ele>
        <time>2018-08-11T16:08:29Z</time>
      </trkpt>
      <trkpt lat="4.5800400" lon="-74.2624730">
        <ele>2557.6</ele>
        <time>2018-08-11T16:08:30Z</time>
      </trkpt>
      <trkpt lat="4.5801120" lon="-74.2624570">
        <ele>2557.3</ele>
        <time>2018-08-11T16:08:31Z</time>
      </trkpt>
      <trkpt lat="4.5801800" lon="-74.2624420">
        <ele>2556.9</ele>
        <time>2018-08-11T16:08:32Z</time>
      </trkpt>
      <trkpt lat="4.5802500" lon="-74.2624280">
        <ele>2556.5</ele>
        <time>2018-08-11T16:08:33Z</time>
      </trkpt>
      <trkpt lat="4.5803200" lon="-74.2624100">
        <ele>2556.1</ele>
        <time>2018-08-11T16:08:34Z</time>
      </trkpt>
      <trkpt lat="4.5803900" lon="-74.2623920">
        <ele>2555.8</ele>
        <time>2018-08-11T16:08:35Z</time>
      </trkpt>
      <trkpt lat="4.5804600" lon="-74.2623750">
        <ele>2555.5</ele>
        <time>2018-08-11T16:08:36Z</time>
      </trkpt>
      <trkpt lat="4.5805300" lon="-74.2623550">
        <ele>2555.1</ele>
        <time>2018-08-11T16:08:37Z</time>
      </trkpt>
      <trkpt lat="4.5806000" lon="-74.2623350">
        <ele>2554.8</ele>
        <time>2018-08-11T16:08:38Z</time>
      </trkpt>
      <trkpt lat="4.5806650" lon="-74.2623130">
        <ele>2554.4</ele>
        <time>2018-08-11T16:08:39Z</time>
      </trkpt>
      <trkpt lat="4.5807280" lon="-74.2622950">
        <ele>2554.1</ele>
        <time>2018-08-11T16:08:40Z</time>
      </trkpt>
      <trkpt lat="4.5807880" lon="-74.2622750">
        <ele>2553.8</ele>
        <time>2018-08-11T16:08:41Z</time>
      </trkpt>
      <trkpt lat="4.5808480" lon="-74.2622550">
        <ele>2553.4</ele>
        <time>2018-08-11T16:08:42Z</time>
      </trkpt>
      <trkpt lat="4.5809050" lon="-74.2622420">
        <ele>2553.1</ele>
        <time>2018-08-11T16:08:43Z</time>
      </trkpt>
      <trkpt lat="4.5809620" lon="-74.2622300">
        <ele>2552.7</ele>
        <time>2018-08-11T16:08:44Z</time>
      </trkpt>
      <trkpt lat="4.5810180" lon="-74.2622150">
        <ele>2552.4</ele>
        <time>2018-08-11T16:08:45Z</time>
      </trkpt>
      <trkpt lat="4.5810720" lon="-74.2621980">
        <ele>2552.0</ele>
        <time>2018-08-11T16:08:46Z</time>
      </trkpt>
      <trkpt lat="4.5811220" lon="-74.2621800">
        <ele>2552.0</ele>
        <time>2018-08-11T16:08:47Z</time>
      </trkpt>
      <trkpt lat="4.5811720" lon="-74.2621620">
        <ele>2552.0</ele>
        <time>2018-08-11T16:08:48Z</time>
      </trkpt>
      <trkpt lat="4.5812180" lon="-74.2621450">
        <ele>2552.0</ele>
        <time>2018-08-11T16:08:49Z</time>
      </trkpt>
      <trkpt lat="4.5812650" lon="-74.2621300">
        <ele>2552.0</ele>
        <time>2018-08-11T16:08:50Z</time>
      </trkpt>
      <trkpt lat="4.5813100" lon="-74.2621130">
        <ele>2552.0</ele>
        <time>2018-08-11T16:08:51Z</time>
      </trkpt>
      <trkpt lat="4.5813520" lon="-74.2620930">
        <ele>2552.0</ele>
        <time>2018-08-11T16:08:52Z</time>
      </trkpt>
      <trkpt lat="4.5813950" lon="-74.2620750">
        <ele>2552.0</ele>
        <time>2018-08-11T16:08:53Z</time>
      </trkpt>
      <trkpt lat="4.5814370" lon="-74.2620570">
        <ele>2552.0</ele>
        <time>2018-08-11T16:08:54Z</time>
      </trkpt>
      <trkpt lat="4.5814770" lon="-74.2620450">
        <ele>2552.0</ele>
        <time>2018-08-11T16:08:55Z</time>
      </trkpt>
      <trkpt lat="4.5815170" lon="-74.2620350">
        <ele>2552.0</ele>
        <time>2018-08-11T16:08:56Z</time>
      </trkpt>
      <trkpt lat="4.5815570" lon="-74.2620280">
        <ele>2552.0</ele>
        <time>2018-08-11T16:08:57Z</time>
      </trkpt>
      <trkpt lat="4.5815920" lon="-74.2620220">
        <ele>2552.0</ele>
        <time>2018-08-11T16:08:58Z</time>
      </trkpt>
      <trkpt lat="4.5816270" lon="-74.2620180">
        <ele>2552.0</ele>
        <time>2018-08-11T16:08:59Z</time>
      </trkpt>
      <trkpt lat="4.5816620" lon="-74.2620170">
        <ele>2552.0</ele>
        <time>2018-08-11T16:09:00Z</time>
      </trkpt>
      <trkpt lat="4.5816970" lon="-74.2620180">
        <ele>2552.0</ele>
        <time>2018-08-11T16:09:01Z</time>
      </trkpt>
      <trkpt lat="4.5817280" lon="-74.2620230">
        <ele>2552.0</ele>
        <time>2018-08-11T16:09:02Z</time>
      </trkpt>
      <trkpt lat="4.5817570" lon="-74.2620250">
        <ele>2552.0</ele>
        <time>2018-08-11T16:09:03Z</time>
      </trkpt>
      <trkpt lat="4.5817930" lon="-74.2620130">
        <ele>2552.0</ele>
        <time>2018-08-11T16:09:05Z</time>
      </trkpt>
      <trkpt lat="4.5818120" lon="-74.2619920">
        <ele>2552.0</ele>
        <time>2018-08-11T16:09:08Z</time>
      </trkpt>
      <trkpt lat="4.5818080" lon="-74.2619580">
        <ele>2552.0</ele>
        <time>2018-08-11T16:09:16Z</time>
      </trkpt>
      <trkpt lat="4.5818280" lon="-74.2619320">
        <ele>2552.0</ele>
        <time>2018-08-11T16:09:18Z</time>
      </trkpt>
      <trkpt lat="4.5818780" lon="-74.2619170">
        <ele>2552.0</ele>
        <time>2018-08-11T16:09:20Z</time>
      </trkpt>
      <trkpt lat="4.5819100" lon="-74.2619080">
        <ele>2552.9</ele>
        <time>2018-08-11T16:09:21Z</time>
      </trkpt>
      <trkpt lat="4.5819430" lon="-74.2618950">
        <ele>2552.9</ele>
        <time>2018-08-11T16:09:22Z</time>
      </trkpt>
      <trkpt lat="4.5819800" lon="-74.2618820">
        <ele>2553.2</ele>
        <time>2018-08-11T16:09:23Z</time>
      </trkpt>
      <trkpt lat="4.5820220" lon="-74.2618620">
        <ele>2554.0</ele>
        <time>2018-08-11T16:09:24Z</time>
      </trkpt>
      <trkpt lat="4.5820670" lon="-74.2618430">
        <ele>2554.1</ele>
        <time>2018-08-11T16:09:25Z</time>
      </trkpt>
      <trkpt lat="4.5821150" lon="-74.2618250">
        <ele>2554.5</ele>
        <time>2018-08-11T16:09:26Z</time>
      </trkpt>
      <trkpt lat="4.5821650" lon="-74.2618070">
        <ele>2554.3</ele>
        <time>2018-08-11T16:09:27Z</time>
      </trkpt>
      <trkpt lat="4.5822200" lon="-74.2617880">
        <ele>2554.2</ele>
        <time>2018-08-11T16:09:28Z</time>
      </trkpt>
      <trkpt lat="4.5822680" lon="-74.2617680">
        <ele>2554.3</ele>
        <time>2018-08-11T16:09:29Z</time>
      </trkpt>
      <trkpt lat="4.5823180" lon="-74.2617470">
        <ele>2554.3</ele>
        <time>2018-08-11T16:09:30Z</time>
      </trkpt>
      <trkpt lat="4.5823720" lon="-74.2617270">
        <ele>2554.9</ele>
        <time>2018-08-11T16:09:31Z</time>
      </trkpt>
      <trkpt lat="4.5824250" lon="-74.2617050">
        <ele>2555.1</ele>
        <time>2018-08-11T16:09:32Z</time>
      </trkpt>
      <trkpt lat="4.5824780" lon="-74.2616780">
        <ele>2555.2</ele>
        <time>2018-08-11T16:09:33Z</time>
      </trkpt>
      <trkpt lat="4.5825320" lon="-74.2616550">
        <ele>2555.2</ele>
        <time>2018-08-11T16:09:34Z</time>
      </trkpt>
      <trkpt lat="4.5825820" lon="-74.2616320">
        <ele>2555.2</ele>
        <time>2018-08-11T16:09:35Z</time>
      </trkpt>
      <trkpt lat="4.5826370" lon="-74.2616100">
        <ele>2555.2</ele>
        <time>2018-08-11T16:09:36Z</time>
      </trkpt>
      <trkpt lat="4.5826920" lon="-74.2615900">
        <ele>2555.2</ele>
        <time>2018-08-11T16:09:37Z</time>
      </trkpt>
      <trkpt lat="4.5827470" lon="-74.2615700">
        <ele>2555.2</ele>
        <time>2018-08-11T16:09:38Z</time>
      </trkpt>
      <trkpt lat="4.5828020" lon="-74.2615520">
        <ele>2555.1</ele>
        <time>2018-08-11T16:09:39Z</time>
      </trkpt>
      <trkpt lat="4.5828580" lon="-74.2615300">
        <ele>2555.2</ele>
        <time>2018-08-11T16:09:40Z</time>
      </trkpt>
      <trkpt lat="4.5829120" lon="-74.2615100">
        <ele>2555.5</ele>
        <time>2018-08-11T16:09:41Z</time>
      </trkpt>
      <trkpt lat="4.5829650" lon="-74.2614900">
        <ele>2555.8</ele>
        <time>2018-08-11T16:09:42Z</time>
      </trkpt>
      <trkpt lat="4.5830200" lon="-74.2614720">
        <ele>2556.3</ele>
        <time>2018-08-11T16:09:43Z</time>
      </trkpt>
      <trkpt lat="4.5830770" lon="-74.2614570">
        <ele>2556.4</ele>
        <time>2018-08-11T16:09:44Z</time>
      </trkpt>
      <trkpt lat="4.5831320" lon="-74.2614380">
        <ele>2556.3</ele>
        <time>2018-08-11T16:09:45Z</time>
      </trkpt>
      <trkpt lat="4.5831870" lon="-74.2614180">
        <ele>2555.8</ele>
        <time>2018-08-11T16:09:46Z</time>
      </trkpt>
      <trkpt lat="4.5832430" lon="-74.2614020">
        <ele>2555.5</ele>
        <time>2018-08-11T16:09:47Z</time>
      </trkpt>
      <trkpt lat="4.5833020" lon="-74.2613780">
        <ele>2554.9</ele>
        <time>2018-08-11T16:09:48Z</time>
      </trkpt>
      <trkpt lat="4.5833600" lon="-74.2613580">
        <ele>2554.4</ele>
        <time>2018-08-11T16:09:49Z</time>
      </trkpt>
      <trkpt lat="4.5834180" lon="-74.2613400">
        <ele>2554.0</ele>
        <time>2018-08-11T16:09:50Z</time>
      </trkpt>
      <trkpt lat="4.5834750" lon="-74.2613220">
        <ele>2553.7</ele>
        <time>2018-08-11T16:09:51Z</time>
      </trkpt>
      <trkpt lat="4.5835370" lon="-74.2613030">
        <ele>2553.1</ele>
        <time>2018-08-11T16:09:52Z</time>
      </trkpt>
      <trkpt lat="4.5835970" lon="-74.2612830">
        <ele>2552.8</ele>
        <time>2018-08-11T16:09:53Z</time>
      </trkpt>
      <trkpt lat="4.5836570" lon="-74.2612630">
        <ele>2552.0</ele>
        <time>2018-08-11T16:09:54Z</time>
      </trkpt>
      <trkpt lat="4.5837150" lon="-74.2612430">
        <ele>2551.7</ele>
        <time>2018-08-11T16:09:55Z</time>
      </trkpt>
      <trkpt lat="4.5837750" lon="-74.2612250">
        <ele>2551.2</ele>
        <time>2018-08-11T16:09:56Z</time>
      </trkpt>
      <trkpt lat="4.5838300" lon="-74.2612050">
        <ele>2551.1</ele>
        <time>2018-08-11T16:09:57Z</time>
      </trkpt>
      <trkpt lat="4.5838880" lon="-74.2611830">
        <ele>2551.2</ele>
        <time>2018-08-11T16:09:58Z</time>
      </trkpt>
      <trkpt lat="4.5839470" lon="-74.2611630">
        <ele>2551.3</ele>
        <time>2018-08-11T16:09:59Z</time>
      </trkpt>
      <trkpt lat="4.5840050" lon="-74.2611420">
        <ele>2551.3</ele>
        <time>2018-08-11T16:10:00Z</time>
      </trkpt>
      <trkpt lat="4.5840650" lon="-74.2611250">
        <ele>2551.2</ele>
        <time>2018-08-11T16:10:01Z</time>
      </trkpt>
      <trkpt lat="4.5841230" lon="-74.2611070">
        <ele>2551.3</ele>
        <time>2018-08-11T16:10:02Z</time>
      </trkpt>
      <trkpt lat="4.5841820" lon="-74.2610870">
        <ele>2551.9</ele>
        <time>2018-08-11T16:10:03Z</time>
      </trkpt>
      <trkpt lat="4.5842400" lon="-74.2610630">
        <ele>2552.3</ele>
        <time>2018-08-11T16:10:04Z</time>
      </trkpt>
      <trkpt lat="4.5842980" lon="-74.2610430">
        <ele>2553.1</ele>
        <time>2018-08-11T16:10:05Z</time>
      </trkpt>
      <trkpt lat="4.5843580" lon="-74.2610230">
        <ele>2553.4</ele>
        <time>2018-08-11T16:10:06Z</time>
      </trkpt>
      <trkpt lat="4.5844170" lon="-74.2610050">
        <ele>2553.5</ele>
        <time>2018-08-11T16:10:07Z</time>
      </trkpt>
      <trkpt lat="4.5844780" lon="-74.2609870">
        <ele>2554.0</ele>
        <time>2018-08-11T16:10:08Z</time>
      </trkpt>
      <trkpt lat="4.5845420" lon="-74.2609680">
        <ele>2554.0</ele>
        <time>2018-08-11T16:10:09Z</time>
      </trkpt>
      <trkpt lat="4.5846050" lon="-74.2609480">
        <ele>2554.2</ele>
        <time>2018-08-11T16:10:10Z</time>
      </trkpt>
      <trkpt lat="4.5846680" lon="-74.2609270">
        <ele>2554.3</ele>
        <time>2018-08-11T16:10:11Z</time>
      </trkpt>
      <trkpt lat="4.5847300" lon="-74.2609050">
        <ele>2554.2</ele>
        <time>2018-08-11T16:10:12Z</time>
      </trkpt>
      <trkpt lat="4.5847900" lon="-74.2608830">
        <ele>2554.3</ele>
        <time>2018-08-11T16:10:13Z</time>
      </trkpt>
      <trkpt lat="4.5848520" lon="-74.2608630">
        <ele>2554.3</ele>
        <time>2018-08-11T16:10:14Z</time>
      </trkpt>
      <trkpt lat="4.5849130" lon="-74.2608430">
        <ele>2554.3</ele>
        <time>2018-08-11T16:10:15Z</time>
      </trkpt>
      <trkpt lat="4.5849730" lon="-74.2608250">
        <ele>2554.3</ele>
        <time>2018-08-11T16:10:16Z</time>
      </trkpt>
      <trkpt lat="4.5850350" lon="-74.2608100">
        <ele>2554.4</ele>
        <time>2018-08-11T16:10:17Z</time>
      </trkpt>
      <trkpt lat="4.5850970" lon="-74.2607930">
        <ele>2554.1</ele>
        <time>2018-08-11T16:10:18Z</time>
      </trkpt>
      <trkpt lat="4.5851580" lon="-74.2607780">
        <ele>2553.7</ele>
        <time>2018-08-11T16:10:19Z</time>
      </trkpt>
      <trkpt lat="4.5852180" lon="-74.2607620">
        <ele>2553.4</ele>
        <time>2018-08-11T16:10:20Z</time>
      </trkpt>
      <trkpt lat="4.5852800" lon="-74.2607470">
        <ele>2553.1</ele>
        <time>2018-08-11T16:10:21Z</time>
      </trkpt>
      <trkpt lat="4.5853420" lon="-74.2607320">
        <ele>2552.7</ele>
        <time>2018-08-11T16:10:22Z</time>
      </trkpt>
      <trkpt lat="4.5854020" lon="-74.2607150">
        <ele>2552.6</ele>
        <time>2018-08-11T16:10:23Z</time>
      </trkpt>
      <trkpt lat="4.5854620" lon="-74.2607000">
        <ele>2552.7</ele>
        <time>2018-08-11T16:10:24Z</time>
      </trkpt>
      <trkpt lat="4.5855230" lon="-74.2606870">
        <ele>2552.6</ele>
        <time>2018-08-11T16:10:25Z</time>
      </trkpt>
      <trkpt lat="4.5855850" lon="-74.2606750">
        <ele>2552.2</ele>
        <time>2018-08-11T16:10:26Z</time>
      </trkpt>
      <trkpt lat="4.5856470" lon="-74.2606670">
        <ele>2551.8</ele>
        <time>2018-08-11T16:10:27Z</time>
      </trkpt>
      <trkpt lat="4.5857100" lon="-74.2606570">
        <ele>2551.3</ele>
        <time>2018-08-11T16:10:28Z</time>
      </trkpt>
      <trkpt lat="4.5857730" lon="-74.2606480">
        <ele>2551.1</ele>
        <time>2018-08-11T16:10:29Z</time>
      </trkpt>
      <trkpt lat="4.5858380" lon="-74.2606400">
        <ele>2551.1</ele>
        <time>2018-08-11T16:10:30Z</time>
      </trkpt>
      <trkpt lat="4.5859030" lon="-74.2606320">
        <ele>2551.2</ele>
        <time>2018-08-11T16:10:31Z</time>
      </trkpt>
      <trkpt lat="4.5859680" lon="-74.2606220">
        <ele>2551.2</ele>
        <time>2018-08-11T16:10:32Z</time>
      </trkpt>
      <trkpt lat="4.5860350" lon="-74.2606150">
        <ele>2551.2</ele>
        <time>2018-08-11T16:10:33Z</time>
      </trkpt>
      <trkpt lat="4.5861030" lon="-74.2606100">
        <ele>2551.2</ele>
        <time>2018-08-11T16:10:34Z</time>
      </trkpt>
      <trkpt lat="4.5861720" lon="-74.2606030">
        <ele>2551.2</ele>
        <time>2018-08-11T16:10:35Z</time>
      </trkpt>
      <trkpt lat="4.5862400" lon="-74.2605930">
        <ele>2551.2</ele>
        <time>2018-08-11T16:10:36Z</time>
      </trkpt>
      <trkpt lat="4.5863100" lon="-74.2605850">
        <ele>2551.2</ele>
        <time>2018-08-11T16:10:37Z</time>
      </trkpt>
      <trkpt lat="4.5863800" lon="-74.2605780">
        <ele>2551.4</ele>
        <time>2018-08-11T16:10:38Z</time>
      </trkpt>
      <trkpt lat="4.5864500" lon="-74.2605770">
        <ele>2551.6</ele>
        <time>2018-08-11T16:10:39Z</time>
      </trkpt>
      <trkpt lat="4.5865220" lon="-74.2605730">
        <ele>2551.7</ele>
        <time>2018-08-11T16:10:40Z</time>
      </trkpt>
      <trkpt lat="4.5865930" lon="-74.2605680">
        <ele>2551.7</ele>
        <time>2018-08-11T16:10:41Z</time>
      </trkpt>
      <trkpt lat="4.5866670" lon="-74.2605620">
        <ele>2551.5</ele>
        <time>2018-08-11T16:10:42Z</time>
      </trkpt>
      <trkpt lat="4.5867420" lon="-74.2605580">
        <ele>2551.0</ele>
        <time>2018-08-11T16:10:43Z</time>
      </trkpt>
      <trkpt lat="4.5868170" lon="-74.2605550">
        <ele>2550.7</ele>
        <time>2018-08-11T16:10:44Z</time>
      </trkpt>
      <trkpt lat="4.5868900" lon="-74.2605550">
        <ele>2550.1</ele>
        <time>2018-08-11T16:10:45Z</time>
      </trkpt>
      <trkpt lat="4.5869630" lon="-74.2605570">
        <ele>2549.3</ele>
        <time>2018-08-11T16:10:46Z</time>
      </trkpt>
      <trkpt lat="4.5870370" lon="-74.2605570">
        <ele>2548.4</ele>
        <time>2018-08-11T16:10:47Z</time>
      </trkpt>
      <trkpt lat="4.5871080" lon="-74.2605630">
        <ele>2548.0</ele>
        <time>2018-08-11T16:10:48Z</time>
      </trkpt>
      <trkpt lat="4.5871880" lon="-74.2605720">
        <ele>2547.2</ele>
        <time>2018-08-11T16:10:49Z</time>
      </trkpt>
      <trkpt lat="4.5872630" lon="-74.2605770">
        <ele>2546.6</ele>
        <time>2018-08-11T16:10:50Z</time>
      </trkpt>
      <trkpt lat="4.5873370" lon="-74.2605780">
        <ele>2546.4</ele>
        <time>2018-08-11T16:10:51Z</time>
      </trkpt>
      <trkpt lat="4.5874130" lon="-74.2605830">
        <ele>2546.3</ele>
        <time>2018-08-11T16:10:52Z</time>
      </trkpt>
      <trkpt lat="4.5874920" lon="-74.2605880">
        <ele>2546.3</ele>
        <time>2018-08-11T16:10:53Z</time>
      </trkpt>
      <trkpt lat="4.5875700" lon="-74.2605900">
        <ele>2546.3</ele>
        <time>2018-08-11T16:10:54Z</time>
      </trkpt>
      <trkpt lat="4.5876470" lon="-74.2605980">
        <ele>2546.3</ele>
        <time>2018-08-11T16:10:55Z</time>
      </trkpt>
      <trkpt lat="4.5877220" lon="-74.2606050">
        <ele>2546.4</ele>
        <time>2018-08-11T16:10:56Z</time>
      </trkpt>
      <trkpt lat="4.5877950" lon="-74.2606150">
        <ele>2546.3</ele>
        <time>2018-08-11T16:10:57Z</time>
      </trkpt>
      <trkpt lat="4.5878650" lon="-74.2606250">
        <ele>2546.1</ele>
        <time>2018-08-11T16:10:58Z</time>
      </trkpt>
      <trkpt lat="4.5879380" lon="-74.2606350">
        <ele>2546.3</ele>
        <time>2018-08-11T16:10:59Z</time>
      </trkpt>
      <trkpt lat="4.5880130" lon="-74.2606480">
        <ele>2546.5</ele>
        <time>2018-08-11T16:11:00Z</time>
      </trkpt>
      <trkpt lat="4.5880850" lon="-74.2606620">
        <ele>2547.4</ele>
        <time>2018-08-11T16:11:01Z</time>
      </trkpt>
      <trkpt lat="4.5881570" lon="-74.2606750">
        <ele>2548.2</ele>
        <time>2018-08-11T16:11:02Z</time>
      </trkpt>
      <trkpt lat="4.5882280" lon="-74.2606900">
        <ele>2548.7</ele>
        <time>2018-08-11T16:11:03Z</time>
      </trkpt>
      <trkpt lat="4.5883000" lon="-74.2607020">
        <ele>2549.5</ele>
        <time>2018-08-11T16:11:04Z</time>
      </trkpt>
      <trkpt lat="4.5883680" lon="-74.2607120">
        <ele>2549.6</ele>
        <time>2018-08-11T16:11:05Z</time>
      </trkpt>
      <trkpt lat="4.5884370" lon="-74.2607250">
        <ele>2549.9</ele>
        <time>2018-08-11T16:11:06Z</time>
      </trkpt>
      <trkpt lat="4.5885030" lon="-74.2607420">
        <ele>2550.5</ele>
        <time>2018-08-11T16:11:07Z</time>
      </trkpt>
      <trkpt lat="4.5885680" lon="-74.2607600">
        <ele>2550.9</ele>
        <time>2018-08-11T16:11:08Z</time>
      </trkpt>
      <trkpt lat="4.5886330" lon="-74.2607730">
        <ele>2551.3</ele>
        <time>2018-08-11T16:11:09Z</time>
      </trkpt>
      <trkpt lat="4.5886980" lon="-74.2607900">
        <ele>2551.3</ele>
        <time>2018-08-11T16:11:10Z</time>
      </trkpt>
      <trkpt lat="4.5887630" lon="-74.2608070">
        <ele>2551.2</ele>
        <time>2018-08-11T16:11:11Z</time>
      </trkpt>
      <trkpt lat="4.5888280" lon="-74.2608250">
        <ele>2551.2</ele>
        <time>2018-08-11T16:11:12Z</time>
      </trkpt>
      <trkpt lat="4.5888920" lon="-74.2608430">
        <ele>2551.3</ele>
        <time>2018-08-11T16:11:13Z</time>
      </trkpt>
      <trkpt lat="4.5889550" lon="-74.2608630">
        <ele>2551.3</ele>
        <time>2018-08-11T16:11:14Z</time>
      </trkpt>
      <trkpt lat="4.5890180" lon="-74.2608830">
        <ele>2551.5</ele>
        <time>2018-08-11T16:11:15Z</time>
      </trkpt>
      <trkpt lat="4.5890820" lon="-74.2609020">
        <ele>2551.1</ele>
        <time>2018-08-11T16:11:16Z</time>
      </trkpt>
      <trkpt lat="4.5891470" lon="-74.2609220">
        <ele>2551.5</ele>
        <time>2018-08-11T16:11:17Z</time>
      </trkpt>
      <trkpt lat="4.5892080" lon="-74.2609400">
        <ele>2551.5</ele>
        <time>2018-08-11T16:11:18Z</time>
      </trkpt>
      <trkpt lat="4.5892680" lon="-74.2609580">
        <ele>2551.4</ele>
        <time>2018-08-11T16:11:19Z</time>
      </trkpt>
      <trkpt lat="4.5893280" lon="-74.2609800">
        <ele>2551.1</ele>
        <time>2018-08-11T16:11:20Z</time>
      </trkpt>
      <trkpt lat="4.5893920" lon="-74.2610030">
        <ele>2551.0</ele>
        <time>2018-08-11T16:11:21Z</time>
      </trkpt>
      <trkpt lat="4.5894530" lon="-74.2610220">
        <ele>2550.7</ele>
        <time>2018-08-11T16:11:22Z</time>
      </trkpt>
      <trkpt lat="4.5895170" lon="-74.2610400">
        <ele>2551.0</ele>
        <time>2018-08-11T16:11:23Z</time>
      </trkpt>
      <trkpt lat="4.5895780" lon="-74.2610620">
        <ele>2551.0</ele>
        <time>2018-08-11T16:11:24Z</time>
      </trkpt>
      <trkpt lat="4.5896420" lon="-74.2610830">
        <ele>2551.3</ele>
        <time>2018-08-11T16:11:25Z</time>
      </trkpt>
      <trkpt lat="4.5897030" lon="-74.2611070">
        <ele>2551.4</ele>
        <time>2018-08-11T16:11:26Z</time>
      </trkpt>
      <trkpt lat="4.5897650" lon="-74.2611300">
        <ele>2551.3</ele>
        <time>2018-08-11T16:11:27Z</time>
      </trkpt>
      <trkpt lat="4.5898280" lon="-74.2611530">
        <ele>2551.2</ele>
        <time>2018-08-11T16:11:28Z</time>
      </trkpt>
      <trkpt lat="4.5898900" lon="-74.2611750">
        <ele>2551.3</ele>
        <time>2018-08-11T16:11:29Z</time>
      </trkpt>
      <trkpt lat="4.5899480" lon="-74.2611970">
        <ele>2551.7</ele>
        <time>2018-08-11T16:11:30Z</time>
      </trkpt>
      <trkpt lat="4.5900100" lon="-74.2612220">
        <ele>2551.9</ele>
        <time>2018-08-11T16:11:31Z</time>
      </trkpt>
      <trkpt lat="4.5900680" lon="-74.2612470">
        <ele>2552.2</ele>
        <time>2018-08-11T16:11:32Z</time>
      </trkpt>
      <trkpt lat="4.5901280" lon="-74.2612700">
        <ele>2552.9</ele>
        <time>2018-08-11T16:11:33Z</time>
      </trkpt>
      <trkpt lat="4.5901880" lon="-74.2612920">
        <ele>2553.2</ele>
        <time>2018-08-11T16:11:34Z</time>
      </trkpt>
      <trkpt lat="4.5902500" lon="-74.2613170">
        <ele>2553.1</ele>
        <time>2018-08-11T16:11:35Z</time>
      </trkpt>
      <trkpt lat="4.5903130" lon="-74.2613420">
        <ele>2552.8</ele>
        <time>2018-08-11T16:11:36Z</time>
      </trkpt>
      <trkpt lat="4.5903780" lon="-74.2613650">
        <ele>2552.2</ele>
        <time>2018-08-11T16:11:37Z</time>
      </trkpt>
      <trkpt lat="4.5904430" lon="-74.2613880">
        <ele>2551.7</ele>
        <time>2018-08-11T16:11:38Z</time>
      </trkpt>
      <trkpt lat="4.5905100" lon="-74.2614130">
        <ele>2551.1</ele>
        <time>2018-08-11T16:11:39Z</time>
      </trkpt>
      <trkpt lat="4.5905770" lon="-74.2614350">
        <ele>2550.9</ele>
        <time>2018-08-11T16:11:40Z</time>
      </trkpt>
      <trkpt lat="4.5906400" lon="-74.2614620">
        <ele>2551.1</ele>
        <time>2018-08-11T16:11:41Z</time>
      </trkpt>
      <trkpt lat="4.5907020" lon="-74.2614880">
        <ele>2551.3</ele>
        <time>2018-08-11T16:11:42Z</time>
      </trkpt>
      <trkpt lat="4.5907670" lon="-74.2615120">
        <ele>2551.2</ele>
        <time>2018-08-11T16:11:43Z</time>
      </trkpt>
      <trkpt lat="4.5908300" lon="-74.2615330">
        <ele>2551.2</ele>
        <time>2018-08-11T16:11:44Z</time>
      </trkpt>
      <trkpt lat="4.5908950" lon="-74.2615530">
        <ele>2551.2</ele>
        <time>2018-08-11T16:11:45Z</time>
      </trkpt>
      <trkpt lat="4.5909570" lon="-74.2615700">
        <ele>2551.4</ele>
        <time>2018-08-11T16:11:46Z</time>
      </trkpt>
      <trkpt lat="4.5910180" lon="-74.2615880">
        <ele>2552.0</ele>
        <time>2018-08-11T16:11:47Z</time>
      </trkpt>
      <trkpt lat="4.5910780" lon="-74.2616050">
        <ele>2552.4</ele>
        <time>2018-08-11T16:11:48Z</time>
      </trkpt>
      <trkpt lat="4.5911380" lon="-74.2616270">
        <ele>2553.0</ele>
        <time>2018-08-11T16:11:49Z</time>
      </trkpt>
      <trkpt lat="4.5911980" lon="-74.2616470">
        <ele>2554.0</ele>
        <time>2018-08-11T16:11:50Z</time>
      </trkpt>
      <trkpt lat="4.5912570" lon="-74.2616720">
        <ele>2554.5</ele>
        <time>2018-08-11T16:11:51Z</time>
      </trkpt>
      <trkpt lat="4.5913150" lon="-74.2616900">
        <ele>2554.6</ele>
        <time>2018-08-11T16:11:52Z</time>
      </trkpt>
      <trkpt lat="4.5913770" lon="-74.2617120">
        <ele>2554.8</ele>
        <time>2018-08-11T16:11:53Z</time>
      </trkpt>
      <trkpt lat="4.5914370" lon="-74.2617380">
        <ele>2554.6</ele>
        <time>2018-08-11T16:11:54Z</time>
      </trkpt>
      <trkpt lat="4.5915000" lon="-74.2617620">
        <ele>2554.1</ele>
        <time>2018-08-11T16:11:55Z</time>
      </trkpt>
      <trkpt lat="4.5915620" lon="-74.2617870">
        <ele>2553.5</ele>
        <time>2018-08-11T16:11:56Z</time>
      </trkpt>
      <trkpt lat="4.5916230" lon="-74.2618130">
        <ele>2552.8</ele>
        <time>2018-08-11T16:11:57Z</time>
      </trkpt>
      <trkpt lat="4.5916850" lon="-74.2618370">
        <ele>2552.2</ele>
        <time>2018-08-11T16:11:58Z</time>
      </trkpt>
      <trkpt lat="4.5917470" lon="-74.2618600">
        <ele>2552.0</ele>
        <time>2018-08-11T16:11:59Z</time>
      </trkpt>
      <trkpt lat="4.5918080" lon="-74.2618770">
        <ele>2551.5</ele>
        <time>2018-08-11T16:12:00Z</time>
      </trkpt>
      <trkpt lat="4.5918720" lon="-74.2618950">
        <ele>2551.6</ele>
        <time>2018-08-11T16:12:01Z</time>
      </trkpt>
      <trkpt lat="4.5919330" lon="-74.2619170">
        <ele>2551.4</ele>
        <time>2018-08-11T16:12:02Z</time>
      </trkpt>
      <trkpt lat="4.5919970" lon="-74.2619380">
        <ele>2551.5</ele>
        <time>2018-08-11T16:12:03Z</time>
      </trkpt>
      <trkpt lat="4.5920580" lon="-74.2619580">
        <ele>2551.3</ele>
        <time>2018-08-11T16:12:04Z</time>
      </trkpt>
      <trkpt lat="4.5921170" lon="-74.2619780">
        <ele>2551.2</ele>
        <time>2018-08-11T16:12:05Z</time>
      </trkpt>
      <trkpt lat="4.5921770" lon="-74.2619980">
        <ele>2551.0</ele>
        <time>2018-08-11T16:12:06Z</time>
      </trkpt>
      <trkpt lat="4.5922370" lon="-74.2620150">
        <ele>2551.3</ele>
        <time>2018-08-11T16:12:07Z</time>
      </trkpt>
      <trkpt lat="4.5922950" lon="-74.2620350">
        <ele>2551.7</ele>
        <time>2018-08-11T16:12:08Z</time>
      </trkpt>
      <trkpt lat="4.5923530" lon="-74.2620530">
        <ele>2553.5</ele>
        <time>2018-08-11T16:12:09Z</time>
      </trkpt>
      <trkpt lat="4.5924120" lon="-74.2620730">
        <ele>2553.9</ele>
        <time>2018-08-11T16:12:10Z</time>
      </trkpt>
      <trkpt lat="4.5924700" lon="-74.2620900">
        <ele>2554.6</ele>
        <time>2018-08-11T16:12:11Z</time>
      </trkpt>
      <trkpt lat="4.5925280" lon="-74.2621100">
        <ele>2554.4</ele>
        <time>2018-08-11T16:12:12Z</time>
      </trkpt>
      <trkpt lat="4.5925870" lon="-74.2621280">
        <ele>2554.3</ele>
        <time>2018-08-11T16:12:13Z</time>
      </trkpt>
      <trkpt lat="4.5926450" lon="-74.2621480">
        <ele>2553.6</ele>
        <time>2018-08-11T16:12:14Z</time>
      </trkpt>
      <trkpt lat="4.5927030" lon="-74.2621700">
        <ele>2553.3</ele>
        <time>2018-08-11T16:12:15Z</time>
      </trkpt>
      <trkpt lat="4.5927630" lon="-74.2621920">
        <ele>2553.3</ele>
        <time>2018-08-11T16:12:16Z</time>
      </trkpt>
      <trkpt lat="4.5928230" lon="-74.2622150">
        <ele>2553.5</ele>
        <time>2018-08-11T16:12:17Z</time>
      </trkpt>
      <trkpt lat="4.5928830" lon="-74.2622350">
        <ele>2553.7</ele>
        <time>2018-08-11T16:12:18Z</time>
      </trkpt>
      <trkpt lat="4.5929430" lon="-74.2622550">
        <ele>2554.3</ele>
        <time>2018-08-11T16:12:19Z</time>
      </trkpt>
      <trkpt lat="4.5930050" lon="-74.2622780">
        <ele>2554.6</ele>
        <time>2018-08-11T16:12:20Z</time>
      </trkpt>
      <trkpt lat="4.5930670" lon="-74.2622970">
        <ele>2555.4</ele>
        <time>2018-08-11T16:12:21Z</time>
      </trkpt>
      <trkpt lat="4.5931280" lon="-74.2623220">
        <ele>2556.4</ele>
        <time>2018-08-11T16:12:22Z</time>
      </trkpt>
      <trkpt lat="4.5931900" lon="-74.2623470">
        <ele>2557.6</ele>
        <time>2018-08-11T16:12:23Z</time>
      </trkpt>
      <trkpt lat="4.5932530" lon="-74.2623700">
        <ele>2559.2</ele>
        <time>2018-08-11T16:12:24Z</time>
      </trkpt>
      <trkpt lat="4.5933170" lon="-74.2623930">
        <ele>2560.6</ele>
        <time>2018-08-11T16:12:25Z</time>
      </trkpt>
      <trkpt lat="4.5933780" lon="-74.2624200">
        <ele>2561.9</ele>
        <time>2018-08-11T16:12:26Z</time>
      </trkpt>
      <trkpt lat="4.5934430" lon="-74.2624450">
        <ele>2563.5</ele>
        <time>2018-08-11T16:12:27Z</time>
      </trkpt>
      <trkpt lat="4.5935050" lon="-74.2624700">
        <ele>2564.2</ele>
        <time>2018-08-11T16:12:28Z</time>
      </trkpt>
      <trkpt lat="4.5935700" lon="-74.2624920">
        <ele>2565.1</ele>
        <time>2018-08-11T16:12:29Z</time>
      </trkpt>
      <trkpt lat="4.5936370" lon="-74.2625150">
        <ele>2565.5</ele>
        <time>2018-08-11T16:12:30Z</time>
      </trkpt>
      <trkpt lat="4.5937050" lon="-74.2625380">
        <ele>2565.0</ele>
        <time>2018-08-11T16:12:31Z</time>
      </trkpt>
      <trkpt lat="4.5937720" lon="-74.2625620">
        <ele>2564.9</ele>
        <time>2018-08-11T16:12:32Z</time>
      </trkpt>
      <trkpt lat="4.5938370" lon="-74.2625830">
        <ele>2564.1</ele>
        <time>2018-08-11T16:12:33Z</time>
      </trkpt>
      <trkpt lat="4.5939030" lon="-74.2626070">
        <ele>2564.8</ele>
        <time>2018-08-11T16:12:34Z</time>
      </trkpt>
      <trkpt lat="4.5939700" lon="-74.2626300">
        <ele>2564.7</ele>
        <time>2018-08-11T16:12:35Z</time>
      </trkpt>
      <trkpt lat="4.5940400" lon="-74.2626550">
        <ele>2566.0</ele>
        <time>2018-08-11T16:12:36Z</time>
      </trkpt>
      <trkpt lat="4.5941120" lon="-74.2626780">
        <ele>2566.5</ele>
        <time>2018-08-11T16:12:37Z</time>
      </trkpt>
      <trkpt lat="4.5941820" lon="-74.2627020">
        <ele>2567.9</ele>
        <time>2018-08-11T16:12:38Z</time>
      </trkpt>
      <trkpt lat="4.5942530" lon="-74.2627270">
        <ele>2567.8</ele>
        <time>2018-08-11T16:12:39Z</time>
      </trkpt>
      <trkpt lat="4.5943270" lon="-74.2627520">
        <ele>2568.5</ele>
        <time>2018-08-11T16:12:40Z</time>
      </trkpt>
      <trkpt lat="4.5944000" lon="-74.2627770">
        <ele>2568.6</ele>
        <time>2018-08-11T16:12:41Z</time>
      </trkpt>
      <trkpt lat="4.5944750" lon="-74.2628030">
        <ele>2568.2</ele>
        <time>2018-08-11T16:12:42Z</time>
      </trkpt>
      <trkpt lat="4.5945470" lon="-74.2628320">
        <ele>2568.1</ele>
        <time>2018-08-11T16:12:43Z</time>
      </trkpt>
      <trkpt lat="4.5946170" lon="-74.2628600">
        <ele>2568.3</ele>
        <time>2018-08-11T16:12:44Z</time>
      </trkpt>
      <trkpt lat="4.5946900" lon="-74.2628850">
        <ele>2568.2</ele>
        <time>2018-08-11T16:12:45Z</time>
      </trkpt>
      <trkpt lat="4.5947620" lon="-74.2629100">
        <ele>2567.5</ele>
        <time>2018-08-11T16:12:46Z</time>
      </trkpt>
      <trkpt lat="4.5948330" lon="-74.2629350">
        <ele>2566.9</ele>
        <time>2018-08-11T16:12:47Z</time>
      </trkpt>
      <trkpt lat="4.5949030" lon="-74.2629600">
        <ele>2566.4</ele>
        <time>2018-08-11T16:12:48Z</time>
      </trkpt>
      <trkpt lat="4.5949730" lon="-74.2629830">
        <ele>2566.1</ele>
        <time>2018-08-11T16:12:49Z</time>
      </trkpt>
      <trkpt lat="4.5950400" lon="-74.2630080">
        <ele>2565.3</ele>
        <time>2018-08-11T16:12:50Z</time>
      </trkpt>
      <trkpt lat="4.5951080" lon="-74.2630330">
        <ele>2564.5</ele>
        <time>2018-08-11T16:12:51Z</time>
      </trkpt>
      <trkpt lat="4.5951730" lon="-74.2630500">
        <ele>2563.7</ele>
        <time>2018-08-11T16:12:52Z</time>
      </trkpt>
      <trkpt lat="4.5952400" lon="-74.2630750">
        <ele>2562.2</ele>
        <time>2018-08-11T16:12:53Z</time>
      </trkpt>
      <trkpt lat="4.5953070" lon="-74.2630950">
        <ele>2561.1</ele>
        <time>2018-08-11T16:12:54Z</time>
      </trkpt>
      <trkpt lat="4.5953730" lon="-74.2631170">
        <ele>2560.0</ele>
        <time>2018-08-11T16:12:55Z</time>
      </trkpt>
      <trkpt lat="4.5954420" lon="-74.2631420">
        <ele>2559.7</ele>
        <time>2018-08-11T16:12:56Z</time>
      </trkpt>
      <trkpt lat="4.5955070" lon="-74.2631700">
        <ele>2558.6</ele>
        <time>2018-08-11T16:12:57Z</time>
      </trkpt>
      <trkpt lat="4.5955720" lon="-74.2631980">
        <ele>2558.3</ele>
        <time>2018-08-11T16:12:58Z</time>
      </trkpt>
      <trkpt lat="4.5956370" lon="-74.2632230">
        <ele>2557.2</ele>
        <time>2018-08-11T16:12:59Z</time>
      </trkpt>
      <trkpt lat="4.5957000" lon="-74.2632500">
        <ele>2556.8</ele>
        <time>2018-08-11T16:13:00Z</time>
      </trkpt>
      <trkpt lat="4.5957630" lon="-74.2632730">
        <ele>2556.4</ele>
        <time>2018-08-11T16:13:01Z</time>
      </trkpt>
      <trkpt lat="4.5958270" lon="-74.2632980">
        <ele>2556.1</ele>
        <time>2018-08-11T16:13:02Z</time>
      </trkpt>
      <trkpt lat="4.5958880" lon="-74.2633200">
        <ele>2555.9</ele>
        <time>2018-08-11T16:13:03Z</time>
      </trkpt>
      <trkpt lat="4.5959520" lon="-74.2633430">
        <ele>2555.9</ele>
        <time>2018-08-11T16:13:04Z</time>
      </trkpt>
      <trkpt lat="4.5960130" lon="-74.2633670">
        <ele>2556.0</ele>
        <time>2018-08-11T16:13:05Z</time>
      </trkpt>
      <trkpt lat="4.5960750" lon="-74.2633880">
        <ele>2556.6</ele>
        <time>2018-08-11T16:13:06Z</time>
      </trkpt>
      <trkpt lat="4.5961380" lon="-74.2634100">
        <ele>2556.9</ele>
        <time>2018-08-11T16:13:07Z</time>
      </trkpt>
      <trkpt lat="4.5962000" lon="-74.2634270">
        <ele>2557.8</ele>
        <time>2018-08-11T16:13:08Z</time>
      </trkpt>
      <trkpt lat="4.5962630" lon="-74.2634450">
        <ele>2558.1</ele>
        <time>2018-08-11T16:13:09Z</time>
      </trkpt>
      <trkpt lat="4.5963280" lon="-74.2634630">
        <ele>2558.9</ele>
        <time>2018-08-11T16:13:10Z</time>
      </trkpt>
      <trkpt lat="4.5963930" lon="-74.2634830">
        <ele>2559.0</ele>
        <time>2018-08-11T16:13:11Z</time>
      </trkpt>
      <trkpt lat="4.5964600" lon="-74.2635050">
        <ele>2559.2</ele>
        <time>2018-08-11T16:13:12Z</time>
      </trkpt>
      <trkpt lat="4.5965250" lon="-74.2635300">
        <ele>2559.1</ele>
        <time>2018-08-11T16:13:13Z</time>
      </trkpt>
      <trkpt lat="4.5965920" lon="-74.2635530">
        <ele>2559.6</ele>
        <time>2018-08-11T16:13:14Z</time>
      </trkpt>
      <trkpt lat="4.5966580" lon="-74.2635770">
        <ele>2559.9</ele>
        <time>2018-08-11T16:13:15Z</time>
      </trkpt>
      <trkpt lat="4.5967270" lon="-74.2636000">
        <ele>2560.3</ele>
        <time>2018-08-11T16:13:16Z</time>
      </trkpt>
      <trkpt lat="4.5967930" lon="-74.2636220">
        <ele>2560.6</ele>
        <time>2018-08-11T16:13:17Z</time>
      </trkpt>
      <trkpt lat="4.5968600" lon="-74.2636470">
        <ele>2560.8</ele>
        <time>2018-08-11T16:13:18Z</time>
      </trkpt>
      <trkpt lat="4.5969280" lon="-74.2636680">
        <ele>2560.9</ele>
        <time>2018-08-11T16:13:19Z</time>
      </trkpt>
      <trkpt lat="4.5969950" lon="-74.2636900">
        <ele>2561.2</ele>
        <time>2018-08-11T16:13:20Z</time>
      </trkpt>
      <trkpt lat="4.5970630" lon="-74.2637100">
        <ele>2561.1</ele>
        <time>2018-08-11T16:13:21Z</time>
      </trkpt>
      <trkpt lat="4.5971300" lon="-74.2637300">
        <ele>2560.8</ele>
        <time>2018-08-11T16:13:22Z</time>
      </trkpt>
      <trkpt lat="4.5971950" lon="-74.2637500">
        <ele>2560.5</ele>
        <time>2018-08-11T16:13:23Z</time>
      </trkpt>
      <trkpt lat="4.5972620" lon="-74.2637750">
        <ele>2559.6</ele>
        <time>2018-08-11T16:13:24Z</time>
      </trkpt>
      <trkpt lat="4.5973320" lon="-74.2637970">
        <ele>2559.2</ele>
        <time>2018-08-11T16:13:25Z</time>
      </trkpt>
      <trkpt lat="4.5974030" lon="-74.2638150">
        <ele>2558.9</ele>
        <time>2018-08-11T16:13:26Z</time>
      </trkpt>
      <trkpt lat="4.5974750" lon="-74.2638380">
        <ele>2558.4</ele>
        <time>2018-08-11T16:13:27Z</time>
      </trkpt>
      <trkpt lat="4.5975470" lon="-74.2638580">
        <ele>2558.4</ele>
        <time>2018-08-11T16:13:28Z</time>
      </trkpt>
      <trkpt lat="4.5976180" lon="-74.2638750">
        <ele>2557.5</ele>
        <time>2018-08-11T16:13:29Z</time>
      </trkpt>
      <trkpt lat="4.5976900" lon="-74.2638920">
        <ele>2556.7</ele>
        <time>2018-08-11T16:13:30Z</time>
      </trkpt>
      <trkpt lat="4.5977630" lon="-74.2639100">
        <ele>2556.3</ele>
        <time>2018-08-11T16:13:31Z</time>
      </trkpt>
      <trkpt lat="4.5978350" lon="-74.2639280">
        <ele>2555.7</ele>
        <time>2018-08-11T16:13:32Z</time>
      </trkpt>
      <trkpt lat="4.5979070" lon="-74.2639420">
        <ele>2555.8</ele>
        <time>2018-08-11T16:13:33Z</time>
      </trkpt>
      <trkpt lat="4.5979800" lon="-74.2639570">
        <ele>2555.7</ele>
        <time>2018-08-11T16:13:34Z</time>
      </trkpt>
      <trkpt lat="4.5980530" lon="-74.2639720">
        <ele>2555.6</ele>
        <time>2018-08-11T16:13:35Z</time>
      </trkpt>
      <trkpt lat="4.5981270" lon="-74.2639870">
        <ele>2555.8</ele>
        <time>2018-08-11T16:13:36Z</time>
      </trkpt>
      <trkpt lat="4.5981980" lon="-74.2640000">
        <ele>2555.9</ele>
        <time>2018-08-11T16:13:37Z</time>
      </trkpt>
      <trkpt lat="4.5982680" lon="-74.2640130">
        <ele>2555.8</ele>
        <time>2018-08-11T16:13:38Z</time>
      </trkpt>
      <trkpt lat="4.5983380" lon="-74.2640220">
        <ele>2555.4</ele>
        <time>2018-08-11T16:13:39Z</time>
      </trkpt>
      <trkpt lat="4.5984100" lon="-74.2640270">
        <ele>2555.2</ele>
        <time>2018-08-11T16:13:40Z</time>
      </trkpt>
      <trkpt lat="4.5984820" lon="-74.2640320">
        <ele>2555.4</ele>
        <time>2018-08-11T16:13:41Z</time>
      </trkpt>
      <trkpt lat="4.5985550" lon="-74.2640400">
        <ele>2556.1</ele>
        <time>2018-08-11T16:13:42Z</time>
      </trkpt>
      <trkpt lat="4.5986270" lon="-74.2640470">
        <ele>2557.0</ele>
        <time>2018-08-11T16:13:43Z</time>
      </trkpt>
      <trkpt lat="4.5986980" lon="-74.2640530">
        <ele>2557.5</ele>
        <time>2018-08-11T16:13:44Z</time>
      </trkpt>
      <trkpt lat="4.5987720" lon="-74.2640600">
        <ele>2558.8</ele>
        <time>2018-08-11T16:13:45Z</time>
      </trkpt>
      <trkpt lat="4.5988430" lon="-74.2640670">
        <ele>2559.9</ele>
        <time>2018-08-11T16:13:46Z</time>
      </trkpt>
      <trkpt lat="4.5989170" lon="-74.2640730">
        <ele>2560.3</ele>
        <time>2018-08-11T16:13:47Z</time>
      </trkpt>
      <trkpt lat="4.5989880" lon="-74.2640770">
        <ele>2560.6</ele>
        <time>2018-08-11T16:13:48Z</time>
      </trkpt>
      <trkpt lat="4.5990600" lon="-74.2640800">
        <ele>2560.4</ele>
        <time>2018-08-11T16:13:49Z</time>
      </trkpt>
      <trkpt lat="4.5991330" lon="-74.2640820">
        <ele>2560.2</ele>
        <time>2018-08-11T16:13:50Z</time>
      </trkpt>
      <trkpt lat="4.5992070" lon="-74.2640800">
        <ele>2559.7</ele>
        <time>2018-08-11T16:13:51Z</time>
      </trkpt>
      <trkpt lat="4.5992800" lon="-74.2640770">
        <ele>2559.0</ele>
        <time>2018-08-11T16:13:52Z</time>
      </trkpt>
      <trkpt lat="4.5993550" lon="-74.2640750">
        <ele>2558.0</ele>
        <time>2018-08-11T16:13:53Z</time>
      </trkpt>
      <trkpt lat="4.5994330" lon="-74.2640750">
        <ele>2557.5</ele>
        <time>2018-08-11T16:13:54Z</time>
      </trkpt>
      <trkpt lat="4.5995100" lon="-74.2640720">
        <ele>2556.4</ele>
        <time>2018-08-11T16:13:55Z</time>
      </trkpt>
      <trkpt lat="4.5995850" lon="-74.2640730">
        <ele>2555.5</ele>
        <time>2018-08-11T16:13:56Z</time>
      </trkpt>
      <trkpt lat="4.5996600" lon="-74.2640700">
        <ele>2555.0</ele>
        <time>2018-08-11T16:13:57Z</time>
      </trkpt>
      <trkpt lat="4.5997330" lon="-74.2640630">
        <ele>2554.8</ele>
        <time>2018-08-11T16:13:58Z</time>
      </trkpt>
      <trkpt lat="4.5998070" lon="-74.2640550">
        <ele>2553.6</ele>
        <time>2018-08-11T16:13:59Z</time>
      </trkpt>
      <trkpt lat="4.5998800" lon="-74.2640470">
        <ele>2552.5</ele>
        <time>2018-08-11T16:14:00Z</time>
      </trkpt>
      <trkpt lat="4.5999550" lon="-74.2640350">
        <ele>2552.0</ele>
        <time>2018-08-11T16:14:01Z</time>
      </trkpt>
      <trkpt lat="4.6000280" lon="-74.2640230">
        <ele>2552.0</ele>
        <time>2018-08-11T16:14:02Z</time>
      </trkpt>
      <trkpt lat="4.6001030" lon="-74.2640120">
        <ele>2551.9</ele>
        <time>2018-08-11T16:14:03Z</time>
      </trkpt>
      <trkpt lat="4.6001800" lon="-74.2640000">
        <ele>2551.3</ele>
        <time>2018-08-11T16:14:04Z</time>
      </trkpt>
      <trkpt lat="4.6002570" lon="-74.2639880">
        <ele>2550.4</ele>
        <time>2018-08-11T16:14:05Z</time>
      </trkpt>
      <trkpt lat="4.6003330" lon="-74.2639730">
        <ele>2550.1</ele>
        <time>2018-08-11T16:14:06Z</time>
      </trkpt>
      <trkpt lat="4.6004120" lon="-74.2639580">
        <ele>2549.4</ele>
        <time>2018-08-11T16:14:07Z</time>
      </trkpt>
      <trkpt lat="4.6004880" lon="-74.2639380">
        <ele>2549.1</ele>
        <time>2018-08-11T16:14:08Z</time>
      </trkpt>
      <trkpt lat="4.6005670" lon="-74.2639180">
        <ele>2549.2</ele>
        <time>2018-08-11T16:14:09Z</time>
      </trkpt>
      <trkpt lat="4.6006470" lon="-74.2638980">
        <ele>2549.1</ele>
        <time>2018-08-11T16:14:10Z</time>
      </trkpt>
      <trkpt lat="4.6007250" lon="-74.2638750">
        <ele>2548.6</ele>
        <time>2018-08-11T16:14:11Z</time>
      </trkpt>
      <trkpt lat="4.6008050" lon="-74.2638480">
        <ele>2548.3</ele>
        <time>2018-08-11T16:14:12Z</time>
      </trkpt>
      <trkpt lat="4.6008850" lon="-74.2638220">
        <ele>2548.0</ele>
        <time>2018-08-11T16:14:13Z</time>
      </trkpt>
      <trkpt lat="4.6009670" lon="-74.2637970">
        <ele>2548.2</ele>
        <time>2018-08-11T16:14:14Z</time>
      </trkpt>
      <trkpt lat="4.6010480" lon="-74.2637720">
        <ele>2548.7</ele>
        <time>2018-08-11T16:14:15Z</time>
      </trkpt>
      <trkpt lat="4.6011320" lon="-74.2637480">
        <ele>2549.2</ele>
        <time>2018-08-11T16:14:16Z</time>
      </trkpt>
      <trkpt lat="4.6012130" lon="-74.2637220">
        <ele>2549.3</ele>
        <time>2018-08-11T16:14:17Z</time>
      </trkpt>
      <trkpt lat="4.6012930" lon="-74.2636920">
        <ele>2549.0</ele>
        <time>2018-08-11T16:14:18Z</time>
      </trkpt>
      <trkpt lat="4.6013750" lon="-74.2636600">
        <ele>2549.3</ele>
        <time>2018-08-11T16:14:19Z</time>
      </trkpt>
      <trkpt lat="4.6014530" lon="-74.2636300">
        <ele>2550.3</ele>
        <time>2018-08-11T16:14:20Z</time>
      </trkpt>
      <trkpt lat="4.6015300" lon="-74.2636000">
        <ele>2550.2</ele>
        <time>2018-08-11T16:14:21Z</time>
      </trkpt>
      <trkpt lat="4.6016020" lon="-74.2635670">
        <ele>2550.8</ele>
        <time>2018-08-11T16:14:22Z</time>
      </trkpt>
      <trkpt lat="4.6016700" lon="-74.2635320">
        <ele>2551.2</ele>
        <time>2018-08-11T16:14:23Z</time>
      </trkpt>
      <trkpt lat="4.6017370" lon="-74.2634970">
        <ele>2551.0</ele>
        <time>2018-08-11T16:14:24Z</time>
      </trkpt>
      <trkpt lat="4.6018020" lon="-74.2634630">
        <ele>2551.4</ele>
        <time>2018-08-11T16:14:25Z</time>
      </trkpt>
      <trkpt lat="4.6018650" lon="-74.2634350">
        <ele>2551.1</ele>
        <time>2018-08-11T16:14:26Z</time>
      </trkpt>
      <trkpt lat="4.6019300" lon="-74.2634050">
        <ele>2551.6</ele>
        <time>2018-08-11T16:14:27Z</time>
      </trkpt>
      <trkpt lat="4.6019930" lon="-74.2633750">
        <ele>2552.2</ele>
        <time>2018-08-11T16:14:28Z</time>
      </trkpt>
      <trkpt lat="4.6020570" lon="-74.2633450">
        <ele>2552.7</ele>
        <time>2018-08-11T16:14:29Z</time>
      </trkpt>
      <trkpt lat="4.6021180" lon="-74.2633100">
        <ele>2552.6</ele>
        <time>2018-08-11T16:14:30Z</time>
      </trkpt>
      <trkpt lat="4.6021800" lon="-74.2632800">
        <ele>2553.3</ele>
        <time>2018-08-11T16:14:31Z</time>
      </trkpt>
      <trkpt lat="4.6022420" lon="-74.2632470">
        <ele>2554.0</ele>
        <time>2018-08-11T16:14:32Z</time>
      </trkpt>
      <trkpt lat="4.6023030" lon="-74.2632150">
        <ele>2554.5</ele>
        <time>2018-08-11T16:14:33Z</time>
      </trkpt>
      <trkpt lat="4.6023630" lon="-74.2631850">
        <ele>2555.3</ele>
        <time>2018-08-11T16:14:34Z</time>
      </trkpt>
      <trkpt lat="4.6024250" lon="-74.2631570">
        <ele>2555.3</ele>
        <time>2018-08-11T16:14:35Z</time>
      </trkpt>
      <trkpt lat="4.6024870" lon="-74.2631270">
        <ele>2555.8</ele>
        <time>2018-08-11T16:14:36Z</time>
      </trkpt>
      <trkpt lat="4.6025470" lon="-74.2630980">
        <ele>2555.8</ele>
        <time>2018-08-11T16:14:37Z</time>
      </trkpt>
      <trkpt lat="4.6026070" lon="-74.2630670">
        <ele>2556.1</ele>
        <time>2018-08-11T16:14:38Z</time>
      </trkpt>
      <trkpt lat="4.6026680" lon="-74.2630330">
        <ele>2556.2</ele>
        <time>2018-08-11T16:14:39Z</time>
      </trkpt>
      <trkpt lat="4.6027270" lon="-74.2629980">
        <ele>2556.3</ele>
        <time>2018-08-11T16:14:40Z</time>
      </trkpt>
      <trkpt lat="4.6027900" lon="-74.2629650">
        <ele>2556.4</ele>
        <time>2018-08-11T16:14:41Z</time>
      </trkpt>
      <trkpt lat="4.6028580" lon="-74.2629300">
        <ele>2556.7</ele>
        <time>2018-08-11T16:14:42Z</time>
      </trkpt>
      <trkpt lat="4.6029270" lon="-74.2628970">
        <ele>2557.9</ele>
        <time>2018-08-11T16:14:43Z</time>
      </trkpt>
      <trkpt lat="4.6029950" lon="-74.2628620">
        <ele>2559.0</ele>
        <time>2018-08-11T16:14:44Z</time>
      </trkpt>
      <trkpt lat="4.6030620" lon="-74.2628250">
        <ele>2559.4</ele>
        <time>2018-08-11T16:14:45Z</time>
      </trkpt>
      <trkpt lat="4.6031280" lon="-74.2627900">
        <ele>2559.2</ele>
        <time>2018-08-11T16:14:46Z</time>
      </trkpt>
      <trkpt lat="4.6031950" lon="-74.2627530">
        <ele>2559.2</ele>
        <time>2018-08-11T16:14:47Z</time>
      </trkpt>
      <trkpt lat="4.6032630" lon="-74.2627130">
        <ele>2559.3</ele>
        <time>2018-08-11T16:14:48Z</time>
      </trkpt>
      <trkpt lat="4.6033320" lon="-74.2626730">
        <ele>2559.2</ele>
        <time>2018-08-11T16:14:49Z</time>
      </trkpt>
      <trkpt lat="4.6034020" lon="-74.2626330">
        <ele>2559.1</ele>
        <time>2018-08-11T16:14:50Z</time>
      </trkpt>
      <trkpt lat="4.6034700" lon="-74.2625970">
        <ele>2559.5</ele>
        <time>2018-08-11T16:14:51Z</time>
      </trkpt>
      <trkpt lat="4.6035370" lon="-74.2625620">
        <ele>2559.8</ele>
        <time>2018-08-11T16:14:52Z</time>
      </trkpt>
      <trkpt lat="4.6036020" lon="-74.2625280">
        <ele>2560.7</ele>
        <time>2018-08-11T16:14:53Z</time>
      </trkpt>
      <trkpt lat="4.6036670" lon="-74.2624930">
        <ele>2560.9</ele>
        <time>2018-08-11T16:14:54Z</time>
      </trkpt>
      <trkpt lat="4.6037320" lon="-74.2624570">
        <ele>2561.0</ele>
        <time>2018-08-11T16:14:55Z</time>
      </trkpt>
      <trkpt lat="4.6037980" lon="-74.2624230">
        <ele>2560.8</ele>
        <time>2018-08-11T16:14:56Z</time>
      </trkpt>
      <trkpt lat="4.6038630" lon="-74.2623880">
        <ele>2560.6</ele>
        <time>2018-08-11T16:14:57Z</time>
      </trkpt>
      <trkpt lat="4.6039330" lon="-74.2623530">
        <ele>2560.3</ele>
        <time>2018-08-11T16:14:58Z</time>
      </trkpt>
      <trkpt lat="4.6040000" lon="-74.2623180">
        <ele>2560.1</ele>
        <time>2018-08-11T16:14:59Z</time>
      </trkpt>
      <trkpt lat="4.6040680" lon="-74.2622800">
        <ele>2560.1</ele>
        <time>2018-08-11T16:15:00Z</time>
      </trkpt>
      <trkpt lat="4.6041330" lon="-74.2622450">
        <ele>2560.1</ele>
        <time>2018-08-11T16:15:01Z</time>
      </trkpt>
      <trkpt lat="4.6041980" lon="-74.2622080">
        <ele>2560.2</ele>
        <time>2018-08-11T16:15:02Z</time>
      </trkpt>
      <trkpt lat="4.6042650" lon="-74.2621720">
        <ele>2560.1</ele>
        <time>2018-08-11T16:15:03Z</time>
      </trkpt>
      <trkpt lat="4.6043270" lon="-74.2621350">
        <ele>2559.8</ele>
        <time>2018-08-11T16:15:04Z</time>
      </trkpt>
      <trkpt lat="4.6043880" lon="-74.2621020">
        <ele>2559.5</ele>
        <time>2018-08-11T16:15:05Z</time>
      </trkpt>
      <trkpt lat="4.6044500" lon="-74.2620670">
        <ele>2558.7</ele>
        <time>2018-08-11T16:15:06Z</time>
      </trkpt>
      <trkpt lat="4.6045120" lon="-74.2620350">
        <ele>2558.1</ele>
        <time>2018-08-11T16:15:07Z</time>
      </trkpt>
      <trkpt lat="4.6045730" lon="-74.2620050">
        <ele>2557.1</ele>
        <time>2018-08-11T16:15:08Z</time>
      </trkpt>
      <trkpt lat="4.6046350" lon="-74.2619750">
        <ele>2556.3</ele>
        <time>2018-08-11T16:15:09Z</time>
      </trkpt>
      <trkpt lat="4.6047000" lon="-74.2619450">
        <ele>2555.6</ele>
        <time>2018-08-11T16:15:10Z</time>
      </trkpt>
      <trkpt lat="4.6047630" lon="-74.2619150">
        <ele>2555.0</ele>
        <time>2018-08-11T16:15:11Z</time>
      </trkpt>
      <trkpt lat="4.6048270" lon="-74.2618830">
        <ele>2555.0</ele>
        <time>2018-08-11T16:15:12Z</time>
      </trkpt>
      <trkpt lat="4.6048880" lon="-74.2618530">
        <ele>2555.2</ele>
        <time>2018-08-11T16:15:13Z</time>
      </trkpt>
      <trkpt lat="4.6049480" lon="-74.2618220">
        <ele>2555.3</ele>
        <time>2018-08-11T16:15:14Z</time>
      </trkpt>
      <trkpt lat="4.6050080" lon="-74.2617920">
        <ele>2555.3</ele>
        <time>2018-08-11T16:15:15Z</time>
      </trkpt>
      <trkpt lat="4.6050700" lon="-74.2617620">
        <ele>2555.3</ele>
        <time>2018-08-11T16:15:16Z</time>
      </trkpt>
      <trkpt lat="4.6051300" lon="-74.2617320">
        <ele>2555.3</ele>
        <time>2018-08-11T16:15:17Z</time>
      </trkpt>
      <trkpt lat="4.6051900" lon="-74.2617000">
        <ele>2555.3</ele>
        <time>2018-08-11T16:15:18Z</time>
      </trkpt>
      <trkpt lat="4.6052520" lon="-74.2616680">
        <ele>2555.3</ele>
        <time>2018-08-11T16:15:19Z</time>
      </trkpt>
      <trkpt lat="4.6053130" lon="-74.2616350">
        <ele>2555.1</ele>
        <time>2018-08-11T16:15:20Z</time>
      </trkpt>
      <trkpt lat="4.6053770" lon="-74.2616030">
        <ele>2554.8</ele>
        <time>2018-08-11T16:15:21Z</time>
      </trkpt>
      <trkpt lat="4.6054400" lon="-74.2615720">
        <ele>2554.5</ele>
        <time>2018-08-11T16:15:22Z</time>
      </trkpt>
      <trkpt lat="4.6055000" lon="-74.2615380">
        <ele>2553.8</ele>
        <time>2018-08-11T16:15:23Z</time>
      </trkpt>
      <trkpt lat="4.6055620" lon="-74.2615030">
        <ele>2552.7</ele>
        <time>2018-08-11T16:15:24Z</time>
      </trkpt>
      <trkpt lat="4.6056220" lon="-74.2614700">
        <ele>2551.9</ele>
        <time>2018-08-11T16:15:25Z</time>
      </trkpt>
      <trkpt lat="4.6056830" lon="-74.2614370">
        <ele>2551.2</ele>
        <time>2018-08-11T16:15:26Z</time>
      </trkpt>
      <trkpt lat="4.6057430" lon="-74.2614050">
        <ele>2551.2</ele>
        <time>2018-08-11T16:15:27Z</time>
      </trkpt>
      <trkpt lat="4.6058020" lon="-74.2613700">
        <ele>2550.8</ele>
        <time>2018-08-11T16:15:28Z</time>
      </trkpt>
      <trkpt lat="4.6058620" lon="-74.2613350">
        <ele>2550.8</ele>
        <time>2018-08-11T16:15:29Z</time>
      </trkpt>
      <trkpt lat="4.6059230" lon="-74.2613030">
        <ele>2551.1</ele>
        <time>2018-08-11T16:15:30Z</time>
      </trkpt>
      <trkpt lat="4.6059830" lon="-74.2612700">
        <ele>2551.4</ele>
        <time>2018-08-11T16:15:31Z</time>
      </trkpt>
      <trkpt lat="4.6060430" lon="-74.2612380">
        <ele>2551.7</ele>
        <time>2018-08-11T16:15:32Z</time>
      </trkpt>
      <trkpt lat="4.6061020" lon="-74.2612050">
        <ele>2551.6</ele>
        <time>2018-08-11T16:15:33Z</time>
      </trkpt>
      <trkpt lat="4.6061620" lon="-74.2611720">
        <ele>2551.4</ele>
        <time>2018-08-11T16:15:34Z</time>
      </trkpt>
      <trkpt lat="4.6062250" lon="-74.2611400">
        <ele>2551.2</ele>
        <time>2018-08-11T16:15:35Z</time>
      </trkpt>
      <trkpt lat="4.6062880" lon="-74.2611050">
        <ele>2551.0</ele>
        <time>2018-08-11T16:15:36Z</time>
      </trkpt>
      <trkpt lat="4.6063530" lon="-74.2610730">
        <ele>2550.3</ele>
        <time>2018-08-11T16:15:37Z</time>
      </trkpt>
      <trkpt lat="4.6064170" lon="-74.2610420">
        <ele>2549.6</ele>
        <time>2018-08-11T16:15:38Z</time>
      </trkpt>
      <trkpt lat="4.6064830" lon="-74.2610100">
        <ele>2549.4</ele>
        <time>2018-08-11T16:15:39Z</time>
      </trkpt>
      <trkpt lat="4.6065480" lon="-74.2609770">
        <ele>2549.8</ele>
        <time>2018-08-11T16:15:40Z</time>
      </trkpt>
      <trkpt lat="4.6066120" lon="-74.2609420">
        <ele>2550.1</ele>
        <time>2018-08-11T16:15:41Z</time>
      </trkpt>
      <trkpt lat="4.6066750" lon="-74.2609080">
        <ele>2550.8</ele>
        <time>2018-08-11T16:15:42Z</time>
      </trkpt>
      <trkpt lat="4.6067380" lon="-74.2608750">
        <ele>2551.3</ele>
        <time>2018-08-11T16:15:43Z</time>
      </trkpt>
      <trkpt lat="4.6068000" lon="-74.2608420">
        <ele>2551.9</ele>
        <time>2018-08-11T16:15:44Z</time>
      </trkpt>
      <trkpt lat="4.6068600" lon="-74.2608080">
        <ele>2552.5</ele>
        <time>2018-08-11T16:15:45Z</time>
      </trkpt>
      <trkpt lat="4.6069200" lon="-74.2607770">
        <ele>2552.9</ele>
        <time>2018-08-11T16:15:46Z</time>
      </trkpt>
      <trkpt lat="4.6069770" lon="-74.2607450">
        <ele>2553.2</ele>
        <time>2018-08-11T16:15:47Z</time>
      </trkpt>
      <trkpt lat="4.6070320" lon="-74.2607130">
        <ele>2553.3</ele>
        <time>2018-08-11T16:15:48Z</time>
      </trkpt>
      <trkpt lat="4.6070880" lon="-74.2606820">
        <ele>2553.3</ele>
        <time>2018-08-11T16:15:49Z</time>
      </trkpt>
      <trkpt lat="4.6071470" lon="-74.2606520">
        <ele>2553.2</ele>
        <time>2018-08-11T16:15:50Z</time>
      </trkpt>
      <trkpt lat="4.6072030" lon="-74.2606220">
        <ele>2553.2</ele>
        <time>2018-08-11T16:15:51Z</time>
      </trkpt>
      <trkpt lat="4.6072620" lon="-74.2605920">
        <ele>2553.2</ele>
        <time>2018-08-11T16:15:52Z</time>
      </trkpt>
      <trkpt lat="4.6073200" lon="-74.2605580">
        <ele>2553.4</ele>
        <time>2018-08-11T16:15:53Z</time>
      </trkpt>
      <trkpt lat="4.6073770" lon="-74.2605270">
        <ele>2553.6</ele>
        <time>2018-08-11T16:15:54Z</time>
      </trkpt>
      <trkpt lat="4.6074350" lon="-74.2604950">
        <ele>2553.9</ele>
        <time>2018-08-11T16:15:55Z</time>
      </trkpt>
      <trkpt lat="4.6074930" lon="-74.2604650">
        <ele>2554.3</ele>
        <time>2018-08-11T16:15:56Z</time>
      </trkpt>
      <trkpt lat="4.6075520" lon="-74.2604320">
        <ele>2554.3</ele>
        <time>2018-08-11T16:15:57Z</time>
      </trkpt>
      <trkpt lat="4.6076100" lon="-74.2603970">
        <ele>2554.3</ele>
        <time>2018-08-11T16:15:58Z</time>
      </trkpt>
      <trkpt lat="4.6076670" lon="-74.2603650">
        <ele>2554.4</ele>
        <time>2018-08-11T16:15:59Z</time>
      </trkpt>
      <trkpt lat="4.6077270" lon="-74.2603350">
        <ele>2554.5</ele>
        <time>2018-08-11T16:16:00Z</time>
      </trkpt>
      <trkpt lat="4.6077850" lon="-74.2603050">
        <ele>2554.4</ele>
        <time>2018-08-11T16:16:01Z</time>
      </trkpt>
      <trkpt lat="4.6078430" lon="-74.2602730">
        <ele>2554.1</ele>
        <time>2018-08-11T16:16:02Z</time>
      </trkpt>
      <trkpt lat="4.6078980" lon="-74.2602420">
        <ele>2553.9</ele>
        <time>2018-08-11T16:16:03Z</time>
      </trkpt>
      <trkpt lat="4.6079530" lon="-74.2602120">
        <ele>2553.2</ele>
        <time>2018-08-11T16:16:04Z</time>
      </trkpt>
      <trkpt lat="4.6080120" lon="-74.2601820">
        <ele>2553.1</ele>
        <time>2018-08-11T16:16:05Z</time>
      </trkpt>
      <trkpt lat="4.6080730" lon="-74.2601500">
        <ele>2553.1</ele>
        <time>2018-08-11T16:16:06Z</time>
      </trkpt>
      <trkpt lat="4.6081380" lon="-74.2601180">
        <ele>2553.1</ele>
        <time>2018-08-11T16:16:07Z</time>
      </trkpt>
      <trkpt lat="4.6082030" lon="-74.2600870">
        <ele>2553.3</ele>
        <time>2018-08-11T16:16:08Z</time>
      </trkpt>
      <trkpt lat="4.6082700" lon="-74.2600530">
        <ele>2553.9</ele>
        <time>2018-08-11T16:16:09Z</time>
      </trkpt>
      <trkpt lat="4.6083350" lon="-74.2600200">
        <ele>2554.3</ele>
        <time>2018-08-11T16:16:10Z</time>
      </trkpt>
      <trkpt lat="4.6084000" lon="-74.2599880">
        <ele>2554.6</ele>
        <time>2018-08-11T16:16:11Z</time>
      </trkpt>
      <trkpt lat="4.6084670" lon="-74.2599550">
        <ele>2554.3</ele>
        <time>2018-08-11T16:16:12Z</time>
      </trkpt>
      <trkpt lat="4.6085300" lon="-74.2599220">
        <ele>2554.3</ele>
        <time>2018-08-11T16:16:13Z</time>
      </trkpt>
      <trkpt lat="4.6085950" lon="-74.2598870">
        <ele>2555.0</ele>
        <time>2018-08-11T16:16:14Z</time>
      </trkpt>
      <trkpt lat="4.6086580" lon="-74.2598500">
        <ele>2555.3</ele>
        <time>2018-08-11T16:16:15Z</time>
      </trkpt>
      <trkpt lat="4.6087230" lon="-74.2598170">
        <ele>2555.5</ele>
        <time>2018-08-11T16:16:16Z</time>
      </trkpt>
      <trkpt lat="4.6087870" lon="-74.2597830">
        <ele>2555.4</ele>
        <time>2018-08-11T16:16:17Z</time>
      </trkpt>
      <trkpt lat="4.6088500" lon="-74.2597470">
        <ele>2555.2</ele>
        <time>2018-08-11T16:16:18Z</time>
      </trkpt>
      <trkpt lat="4.6089170" lon="-74.2597120">
        <ele>2555.0</ele>
        <time>2018-08-11T16:16:19Z</time>
      </trkpt>
      <trkpt lat="4.6089800" lon="-74.2596770">
        <ele>2555.2</ele>
        <time>2018-08-11T16:16:20Z</time>
      </trkpt>
      <trkpt lat="4.6090430" lon="-74.2596420">
        <ele>2555.3</ele>
        <time>2018-08-11T16:16:21Z</time>
      </trkpt>
      <trkpt lat="4.6091070" lon="-74.2596080">
        <ele>2555.3</ele>
        <time>2018-08-11T16:16:22Z</time>
      </trkpt>
      <trkpt lat="4.6091680" lon="-74.2595750">
        <ele>2555.2</ele>
        <time>2018-08-11T16:16:23Z</time>
      </trkpt>
      <trkpt lat="4.6092280" lon="-74.2595430">
        <ele>2555.0</ele>
        <time>2018-08-11T16:16:24Z</time>
      </trkpt>
      <trkpt lat="4.6092920" lon="-74.2595100">
        <ele>2554.8</ele>
        <time>2018-08-11T16:16:25Z</time>
      </trkpt>
      <trkpt lat="4.6093550" lon="-74.2594770">
        <ele>2554.7</ele>
        <time>2018-08-11T16:16:26Z</time>
      </trkpt>
      <trkpt lat="4.6094180" lon="-74.2594450">
        <ele>2554.5</ele>
        <time>2018-08-11T16:16:27Z</time>
      </trkpt>
      <trkpt lat="4.6094850" lon="-74.2594150">
        <ele>2554.2</ele>
        <time>2018-08-11T16:16:28Z</time>
      </trkpt>
      <trkpt lat="4.6095520" lon="-74.2593830">
        <ele>2554.0</ele>
        <time>2018-08-11T16:16:29Z</time>
      </trkpt>
      <trkpt lat="4.6096180" lon="-74.2593480">
        <ele>2553.1</ele>
        <time>2018-08-11T16:16:30Z</time>
      </trkpt>
      <trkpt lat="4.6096850" lon="-74.2593120">
        <ele>2552.0</ele>
        <time>2018-08-11T16:16:31Z</time>
      </trkpt>
      <trkpt lat="4.6097480" lon="-74.2592750">
        <ele>2551.6</ele>
        <time>2018-08-11T16:16:32Z</time>
      </trkpt>
      <trkpt lat="4.6098120" lon="-74.2592380">
        <ele>2551.8</ele>
        <time>2018-08-11T16:16:33Z</time>
      </trkpt>
      <trkpt lat="4.6098750" lon="-74.2592030">
        <ele>2551.8</ele>
        <time>2018-08-11T16:16:34Z</time>
      </trkpt>
      <trkpt lat="4.6099370" lon="-74.2591680">
        <ele>2552.1</ele>
        <time>2018-08-11T16:16:35Z</time>
      </trkpt>
      <trkpt lat="4.6099970" lon="-74.2591370">
        <ele>2552.1</ele>
        <time>2018-08-11T16:16:36Z</time>
      </trkpt>
      <trkpt lat="4.6100600" lon="-74.2591070">
        <ele>2552.3</ele>
        <time>2018-08-11T16:16:37Z</time>
      </trkpt>
      <trkpt lat="4.6101220" lon="-74.2590780">
        <ele>2552.3</ele>
        <time>2018-08-11T16:16:38Z</time>
      </trkpt>
      <trkpt lat="4.6101820" lon="-74.2590470">
        <ele>2552.2</ele>
        <time>2018-08-11T16:16:39Z</time>
      </trkpt>
      <trkpt lat="4.6102400" lon="-74.2590150">
        <ele>2552.3</ele>
        <time>2018-08-11T16:16:40Z</time>
      </trkpt>
      <trkpt lat="4.6102980" lon="-74.2589830">
        <ele>2552.3</ele>
        <time>2018-08-11T16:16:41Z</time>
      </trkpt>
      <trkpt lat="4.6103600" lon="-74.2589520">
        <ele>2552.4</ele>
        <time>2018-08-11T16:16:42Z</time>
      </trkpt>
      <trkpt lat="4.6104230" lon="-74.2589200">
        <ele>2552.2</ele>
        <time>2018-08-11T16:16:43Z</time>
      </trkpt>
      <trkpt lat="4.6104870" lon="-74.2588880">
        <ele>2551.6</ele>
        <time>2018-08-11T16:16:44Z</time>
      </trkpt>
      <trkpt lat="4.6105500" lon="-74.2588550">
        <ele>2551.3</ele>
        <time>2018-08-11T16:16:45Z</time>
      </trkpt>
      <trkpt lat="4.6106100" lon="-74.2588230">
        <ele>2550.7</ele>
        <time>2018-08-11T16:16:46Z</time>
      </trkpt>
      <trkpt lat="4.6106720" lon="-74.2587930">
        <ele>2550.4</ele>
        <time>2018-08-11T16:16:47Z</time>
      </trkpt>
      <trkpt lat="4.6107350" lon="-74.2587620">
        <ele>2549.9</ele>
        <time>2018-08-11T16:16:48Z</time>
      </trkpt>
      <trkpt lat="4.6107950" lon="-74.2587320">
        <ele>2549.8</ele>
        <time>2018-08-11T16:16:49Z</time>
      </trkpt>
      <trkpt lat="4.6108570" lon="-74.2587000">
        <ele>2549.5</ele>
        <time>2018-08-11T16:16:50Z</time>
      </trkpt>
      <trkpt lat="4.6109180" lon="-74.2586700">
        <ele>2549.3</ele>
        <time>2018-08-11T16:16:51Z</time>
      </trkpt>
      <trkpt lat="4.6109800" lon="-74.2586420">
        <ele>2549.4</ele>
        <time>2018-08-11T16:16:52Z</time>
      </trkpt>
      <trkpt lat="4.6110420" lon="-74.2586150">
        <ele>2549.2</ele>
        <time>2018-08-11T16:16:53Z</time>
      </trkpt>
      <trkpt lat="4.6111030" lon="-74.2585900">
        <ele>2549.2</ele>
        <time>2018-08-11T16:16:54Z</time>
      </trkpt>
      <trkpt lat="4.6111670" lon="-74.2585630">
        <ele>2549.1</ele>
        <time>2018-08-11T16:16:55Z</time>
      </trkpt>
      <trkpt lat="4.6112300" lon="-74.2585400">
        <ele>2549.2</ele>
        <time>2018-08-11T16:16:56Z</time>
      </trkpt>
      <trkpt lat="4.6112950" lon="-74.2585150">
        <ele>2549.2</ele>
        <time>2018-08-11T16:16:57Z</time>
      </trkpt>
      <trkpt lat="4.6113580" lon="-74.2584900">
        <ele>2549.1</ele>
        <time>2018-08-11T16:16:58Z</time>
      </trkpt>
      <trkpt lat="4.6114150" lon="-74.2584650">
        <ele>2548.7</ele>
        <time>2018-08-11T16:16:59Z</time>
      </trkpt>
      <trkpt lat="4.6114670" lon="-74.2584420">
        <ele>2547.7</ele>
        <time>2018-08-11T16:17:00Z</time>
      </trkpt>
      <trkpt lat="4.6115180" lon="-74.2584180">
        <ele>2547.0</ele>
        <time>2018-08-11T16:17:01Z</time>
      </trkpt>
      <trkpt lat="4.6115700" lon="-74.2583870">
        <ele>2546.4</ele>
        <time>2018-08-11T16:17:02Z</time>
      </trkpt>
      <trkpt lat="4.6116200" lon="-74.2583520">
        <ele>2546.0</ele>
        <time>2018-08-11T16:17:03Z</time>
      </trkpt>
      <trkpt lat="4.6116720" lon="-74.2583130">
        <ele>2545.6</ele>
        <time>2018-08-11T16:17:04Z</time>
      </trkpt>
      <trkpt lat="4.6117250" lon="-74.2582720">
        <ele>2545.1</ele>
        <time>2018-08-11T16:17:05Z</time>
      </trkpt>
      <trkpt lat="4.6117800" lon="-74.2582300">
        <ele>2545.0</ele>
        <time>2018-08-11T16:17:06Z</time>
      </trkpt>
      <trkpt lat="4.6118380" lon="-74.2581870">
        <ele>2545.0</ele>
        <time>2018-08-11T16:17:07Z</time>
      </trkpt>
      <trkpt lat="4.6119000" lon="-74.2581470">
        <ele>2545.6</ele>
        <time>2018-08-11T16:17:08Z</time>
      </trkpt>
      <trkpt lat="4.6119680" lon="-74.2581080">
        <ele>2546.7</ele>
        <time>2018-08-11T16:17:09Z</time>
      </trkpt>
      <trkpt lat="4.6120350" lon="-74.2580730">
        <ele>2548.9</ele>
        <time>2018-08-11T16:17:10Z</time>
      </trkpt>
      <trkpt lat="4.6121020" lon="-74.2580320">
        <ele>2550.7</ele>
        <time>2018-08-11T16:17:11Z</time>
      </trkpt>
      <trkpt lat="4.6121720" lon="-74.2579920">
        <ele>2551.7</ele>
        <time>2018-08-11T16:17:12Z</time>
      </trkpt>
      <trkpt lat="4.6122450" lon="-74.2579520">
        <ele>2553.0</ele>
        <time>2018-08-11T16:17:13Z</time>
      </trkpt>
      <trkpt lat="4.6123200" lon="-74.2579130">
        <ele>2553.4</ele>
        <time>2018-08-11T16:17:14Z</time>
      </trkpt>
      <trkpt lat="4.6123930" lon="-74.2578720">
        <ele>2553.4</ele>
        <time>2018-08-11T16:17:15Z</time>
      </trkpt>
      <trkpt lat="4.6124670" lon="-74.2578280">
        <ele>2552.2</ele>
        <time>2018-08-11T16:17:16Z</time>
      </trkpt>
      <trkpt lat="4.6125420" lon="-74.2577870">
        <ele>2551.2</ele>
        <time>2018-08-11T16:17:17Z</time>
      </trkpt>
      <trkpt lat="4.6126150" lon="-74.2577450">
        <ele>2550.7</ele>
        <time>2018-08-11T16:17:18Z</time>
      </trkpt>
      <trkpt lat="4.6126920" lon="-74.2577080">
        <ele>2550.2</ele>
        <time>2018-08-11T16:17:19Z</time>
      </trkpt>
      <trkpt lat="4.6127700" lon="-74.2576670">
        <ele>2549.6</ele>
        <time>2018-08-11T16:17:20Z</time>
      </trkpt>
      <trkpt lat="4.6128480" lon="-74.2576230">
        <ele>2548.5</ele>
        <time>2018-08-11T16:17:21Z</time>
      </trkpt>
      <trkpt lat="4.6129250" lon="-74.2575820">
        <ele>2547.1</ele>
        <time>2018-08-11T16:17:22Z</time>
      </trkpt>
      <trkpt lat="4.6130030" lon="-74.2575380">
        <ele>2546.0</ele>
        <time>2018-08-11T16:17:23Z</time>
      </trkpt>
      <trkpt lat="4.6130850" lon="-74.2574950">
        <ele>2545.9</ele>
        <time>2018-08-11T16:17:24Z</time>
      </trkpt>
      <trkpt lat="4.6131630" lon="-74.2574530">
        <ele>2545.6</ele>
        <time>2018-08-11T16:17:25Z</time>
      </trkpt>
      <trkpt lat="4.6132430" lon="-74.2574100">
        <ele>2545.6</ele>
        <time>2018-08-11T16:17:26Z</time>
      </trkpt>
      <trkpt lat="4.6133220" lon="-74.2573670">
        <ele>2545.7</ele>
        <time>2018-08-11T16:17:27Z</time>
      </trkpt>
      <trkpt lat="4.6134000" lon="-74.2573270">
        <ele>2546.2</ele>
        <time>2018-08-11T16:17:28Z</time>
      </trkpt>
      <trkpt lat="4.6134780" lon="-74.2572830">
        <ele>2547.8</ele>
        <time>2018-08-11T16:17:29Z</time>
      </trkpt>
      <trkpt lat="4.6135570" lon="-74.2572420">
        <ele>2550.1</ele>
        <time>2018-08-11T16:17:30Z</time>
      </trkpt>
      <trkpt lat="4.6136330" lon="-74.2572000">
        <ele>2551.5</ele>
        <time>2018-08-11T16:17:31Z</time>
      </trkpt>
      <trkpt lat="4.6137130" lon="-74.2571570">
        <ele>2552.7</ele>
        <time>2018-08-11T16:17:32Z</time>
      </trkpt>
      <trkpt lat="4.6137930" lon="-74.2571130">
        <ele>2553.5</ele>
        <time>2018-08-11T16:17:33Z</time>
      </trkpt>
      <trkpt lat="4.6138720" lon="-74.2570730">
        <ele>2553.5</ele>
        <time>2018-08-11T16:17:34Z</time>
      </trkpt>
      <trkpt lat="4.6139520" lon="-74.2570300">
        <ele>2552.4</ele>
        <time>2018-08-11T16:17:35Z</time>
      </trkpt>
      <trkpt lat="4.6140280" lon="-74.2569880">
        <ele>2550.9</ele>
        <time>2018-08-11T16:17:36Z</time>
      </trkpt>
      <trkpt lat="4.6141020" lon="-74.2569500">
        <ele>2550.2</ele>
        <time>2018-08-11T16:17:37Z</time>
      </trkpt>
      <trkpt lat="4.6141720" lon="-74.2569100">
        <ele>2548.3</ele>
        <time>2018-08-11T16:17:38Z</time>
      </trkpt>
      <trkpt lat="4.6142470" lon="-74.2568770">
        <ele>2546.7</ele>
        <time>2018-08-11T16:17:39Z</time>
      </trkpt>
      <trkpt lat="4.6143200" lon="-74.2568380">
        <ele>2546.7</ele>
        <time>2018-08-11T16:17:40Z</time>
      </trkpt>
      <trkpt lat="4.6143920" lon="-74.2568020">
        <ele>2547.0</ele>
        <time>2018-08-11T16:17:41Z</time>
      </trkpt>
      <trkpt lat="4.6144620" lon="-74.2567670">
        <ele>2547.5</ele>
        <time>2018-08-11T16:17:42Z</time>
      </trkpt>
      <trkpt lat="4.6145300" lon="-74.2567300">
        <ele>2549.3</ele>
        <time>2018-08-11T16:17:43Z</time>
      </trkpt>
      <trkpt lat="4.6145970" lon="-74.2566930">
        <ele>2551.7</ele>
        <time>2018-08-11T16:17:44Z</time>
      </trkpt>
      <trkpt lat="4.6146620" lon="-74.2566580">
        <ele>2553.2</ele>
        <time>2018-08-11T16:17:45Z</time>
      </trkpt>
      <trkpt lat="4.6147300" lon="-74.2566230">
        <ele>2554.9</ele>
        <time>2018-08-11T16:17:46Z</time>
      </trkpt>
      <trkpt lat="4.6147980" lon="-74.2565900">
        <ele>2556.0</ele>
        <time>2018-08-11T16:17:47Z</time>
      </trkpt>
      <trkpt lat="4.6148620" lon="-74.2565550">
        <ele>2555.7</ele>
        <time>2018-08-11T16:17:48Z</time>
      </trkpt>
      <trkpt lat="4.6149280" lon="-74.2565220">
        <ele>2554.9</ele>
        <time>2018-08-11T16:17:49Z</time>
      </trkpt>
      <trkpt lat="4.6149950" lon="-74.2564850">
        <ele>2554.7</ele>
        <time>2018-08-11T16:17:50Z</time>
      </trkpt>
      <trkpt lat="4.6150620" lon="-74.2564520">
        <ele>2554.4</ele>
        <time>2018-08-11T16:17:51Z</time>
      </trkpt>
      <trkpt lat="4.6151280" lon="-74.2564170">
        <ele>2554.4</ele>
        <time>2018-08-11T16:17:52Z</time>
      </trkpt>
      <trkpt lat="4.6151950" lon="-74.2563830">
        <ele>2553.8</ele>
        <time>2018-08-11T16:17:53Z</time>
      </trkpt>
      <trkpt lat="4.6152600" lon="-74.2563480">
        <ele>2553.7</ele>
        <time>2018-08-11T16:17:54Z</time>
      </trkpt>
      <trkpt lat="4.6153230" lon="-74.2563130">
        <ele>2553.7</ele>
        <time>2018-08-11T16:17:55Z</time>
      </trkpt>
      <trkpt lat="4.6153870" lon="-74.2562800">
        <ele>2554.2</ele>
        <time>2018-08-11T16:17:56Z</time>
      </trkpt>
      <trkpt lat="4.6154520" lon="-74.2562480">
        <ele>2555.2</ele>
        <time>2018-08-11T16:17:57Z</time>
      </trkpt>
      <trkpt lat="4.6155200" lon="-74.2562170">
        <ele>2555.4</ele>
        <time>2018-08-11T16:17:58Z</time>
      </trkpt>
      <trkpt lat="4.6155870" lon="-74.2561870">
        <ele>2555.6</ele>
        <time>2018-08-11T16:17:59Z</time>
      </trkpt>
      <trkpt lat="4.6156480" lon="-74.2561530">
        <ele>2555.4</ele>
        <time>2018-08-11T16:18:00Z</time>
      </trkpt>
      <trkpt lat="4.6157120" lon="-74.2561200">
        <ele>2553.9</ele>
        <time>2018-08-11T16:18:01Z</time>
      </trkpt>
      <trkpt lat="4.6157750" lon="-74.2560830">
        <ele>2553.4</ele>
        <time>2018-08-11T16:18:02Z</time>
      </trkpt>
      <trkpt lat="4.6158380" lon="-74.2560480">
        <ele>2551.9</ele>
        <time>2018-08-11T16:18:03Z</time>
      </trkpt>
      <trkpt lat="4.6159030" lon="-74.2560130">
        <ele>2551.5</ele>
        <time>2018-08-11T16:18:04Z</time>
      </trkpt>
      <trkpt lat="4.6159680" lon="-74.2559780">
        <ele>2551.2</ele>
        <time>2018-08-11T16:18:05Z</time>
      </trkpt>
      <trkpt lat="4.6160330" lon="-74.2559430">
        <ele>2551.2</ele>
        <time>2018-08-11T16:18:06Z</time>
      </trkpt>
      <trkpt lat="4.6160980" lon="-74.2559070">
        <ele>2550.7</ele>
        <time>2018-08-11T16:18:07Z</time>
      </trkpt>
      <trkpt lat="4.6161630" lon="-74.2558720">
        <ele>2551.0</ele>
        <time>2018-08-11T16:18:08Z</time>
      </trkpt>
      <trkpt lat="4.6162300" lon="-74.2558370">
        <ele>2551.1</ele>
        <time>2018-08-11T16:18:09Z</time>
      </trkpt>
      <trkpt lat="4.6162970" lon="-74.2558030">
        <ele>2550.7</ele>
        <time>2018-08-11T16:18:10Z</time>
      </trkpt>
      <trkpt lat="4.6163630" lon="-74.2557700">
        <ele>2550.9</ele>
        <time>2018-08-11T16:18:11Z</time>
      </trkpt>
      <trkpt lat="4.6164300" lon="-74.2557370">
        <ele>2550.0</ele>
        <time>2018-08-11T16:18:12Z</time>
      </trkpt>
      <trkpt lat="4.6164950" lon="-74.2557030">
        <ele>2550.3</ele>
        <time>2018-08-11T16:18:13Z</time>
      </trkpt>
      <trkpt lat="4.6165580" lon="-74.2556730">
        <ele>2549.4</ele>
        <time>2018-08-11T16:18:14Z</time>
      </trkpt>
      <trkpt lat="4.6166200" lon="-74.2556450">
        <ele>2548.8</ele>
        <time>2018-08-11T16:18:15Z</time>
      </trkpt>
      <trkpt lat="4.6166820" lon="-74.2556130">
        <ele>2546.6</ele>
        <time>2018-08-11T16:18:16Z</time>
      </trkpt>
      <trkpt lat="4.6167420" lon="-74.2555830">
        <ele>2545.8</ele>
        <time>2018-08-11T16:18:17Z</time>
      </trkpt>
      <trkpt lat="4.6168000" lon="-74.2555520">
        <ele>2545.1</ele>
        <time>2018-08-11T16:18:18Z</time>
      </trkpt>
      <trkpt lat="4.6168570" lon="-74.2555200">
        <ele>2543.8</ele>
        <time>2018-08-11T16:18:19Z</time>
      </trkpt>
      <trkpt lat="4.6169120" lon="-74.2554870">
        <ele>2544.0</ele>
        <time>2018-08-11T16:18:20Z</time>
      </trkpt>
      <trkpt lat="4.6169700" lon="-74.2554550">
        <ele>2544.7</ele>
        <time>2018-08-11T16:18:21Z</time>
      </trkpt>
      <trkpt lat="4.6170270" lon="-74.2554250">
        <ele>2545.3</ele>
        <time>2018-08-11T16:18:22Z</time>
      </trkpt>
      <trkpt lat="4.6170830" lon="-74.2553920">
        <ele>2544.8</ele>
        <time>2018-08-11T16:18:23Z</time>
      </trkpt>
      <trkpt lat="4.6171380" lon="-74.2553600">
        <ele>2545.4</ele>
        <time>2018-08-11T16:18:24Z</time>
      </trkpt>
      <trkpt lat="4.6171970" lon="-74.2553270">
        <ele>2545.8</ele>
        <time>2018-08-11T16:18:25Z</time>
      </trkpt>
      <trkpt lat="4.6172550" lon="-74.2552950">
        <ele>2546.5</ele>
        <time>2018-08-11T16:18:26Z</time>
      </trkpt>
      <trkpt lat="4.6173150" lon="-74.2552650">
        <ele>2546.4</ele>
        <time>2018-08-11T16:18:27Z</time>
      </trkpt>
      <trkpt lat="4.6173750" lon="-74.2552350">
        <ele>2547.1</ele>
        <time>2018-08-11T16:18:28Z</time>
      </trkpt>
      <trkpt lat="4.6174350" lon="-74.2552050">
        <ele>2547.7</ele>
        <time>2018-08-11T16:18:29Z</time>
      </trkpt>
      <trkpt lat="4.6174970" lon="-74.2551730">
        <ele>2547.3</ele>
        <time>2018-08-11T16:18:30Z</time>
      </trkpt>
      <trkpt lat="4.6175570" lon="-74.2551420">
        <ele>2546.7</ele>
        <time>2018-08-11T16:18:31Z</time>
      </trkpt>
      <trkpt lat="4.6176170" lon="-74.2551080">
        <ele>2546.5</ele>
        <time>2018-08-11T16:18:32Z</time>
      </trkpt>
      <trkpt lat="4.6176770" lon="-74.2550720">
        <ele>2546.1</ele>
        <time>2018-08-11T16:18:33Z</time>
      </trkpt>
      <trkpt lat="4.6177380" lon="-74.2550370">
        <ele>2546.0</ele>
        <time>2018-08-11T16:18:34Z</time>
      </trkpt>
      <trkpt lat="4.6178000" lon="-74.2550030">
        <ele>2545.7</ele>
        <time>2018-08-11T16:18:35Z</time>
      </trkpt>
      <trkpt lat="4.6178630" lon="-74.2549720">
        <ele>2545.3</ele>
        <time>2018-08-11T16:18:36Z</time>
      </trkpt>
      <trkpt lat="4.6179250" lon="-74.2549380">
        <ele>2545.6</ele>
        <time>2018-08-11T16:18:37Z</time>
      </trkpt>
      <trkpt lat="4.6179870" lon="-74.2549030">
        <ele>2546.4</ele>
        <time>2018-08-11T16:18:38Z</time>
      </trkpt>
      <trkpt lat="4.6180470" lon="-74.2548670">
        <ele>2547.4</ele>
        <time>2018-08-11T16:18:39Z</time>
      </trkpt>
      <trkpt lat="4.6181080" lon="-74.2548300">
        <ele>2548.4</ele>
        <time>2018-08-11T16:18:40Z</time>
      </trkpt>
      <trkpt lat="4.6181730" lon="-74.2547930">
        <ele>2548.1</ele>
        <time>2018-08-11T16:18:41Z</time>
      </trkpt>
      <trkpt lat="4.6182380" lon="-74.2547580">
        <ele>2548.7</ele>
        <time>2018-08-11T16:18:42Z</time>
      </trkpt>
      <trkpt lat="4.6183030" lon="-74.2547230">
        <ele>2549.4</ele>
        <time>2018-08-11T16:18:43Z</time>
      </trkpt>
      <trkpt lat="4.6183670" lon="-74.2546900">
        <ele>2549.7</ele>
        <time>2018-08-11T16:18:44Z</time>
      </trkpt>
      <trkpt lat="4.6184280" lon="-74.2546530">
        <ele>2550.3</ele>
        <time>2018-08-11T16:18:45Z</time>
      </trkpt>
      <trkpt lat="4.6184930" lon="-74.2546170">
        <ele>2550.1</ele>
        <time>2018-08-11T16:18:46Z</time>
      </trkpt>
      <trkpt lat="4.6185600" lon="-74.2545850">
        <ele>2549.5</ele>
        <time>2018-08-11T16:18:47Z</time>
      </trkpt>
      <trkpt lat="4.6186250" lon="-74.2545500">
        <ele>2549.4</ele>
        <time>2018-08-11T16:18:48Z</time>
      </trkpt>
      <trkpt lat="4.6186900" lon="-74.2545180">
        <ele>2549.6</ele>
        <time>2018-08-11T16:18:49Z</time>
      </trkpt>
      <trkpt lat="4.6187570" lon="-74.2544880">
        <ele>2549.9</ele>
        <time>2018-08-11T16:18:50Z</time>
      </trkpt>
      <trkpt lat="4.6188230" lon="-74.2544550">
        <ele>2548.8</ele>
        <time>2018-08-11T16:18:51Z</time>
      </trkpt>
      <trkpt lat="4.6188880" lon="-74.2544200">
        <ele>2548.6</ele>
        <time>2018-08-11T16:18:52Z</time>
      </trkpt>
      <trkpt lat="4.6189520" lon="-74.2543850">
        <ele>2547.5</ele>
        <time>2018-08-11T16:18:53Z</time>
      </trkpt>
      <trkpt lat="4.6190170" lon="-74.2543500">
        <ele>2547.1</ele>
        <time>2018-08-11T16:18:54Z</time>
      </trkpt>
      <trkpt lat="4.6190820" lon="-74.2543170">
        <ele>2545.2</ele>
        <time>2018-08-11T16:18:55Z</time>
      </trkpt>
      <trkpt lat="4.6191470" lon="-74.2542820">
        <ele>2543.9</ele>
        <time>2018-08-11T16:18:56Z</time>
      </trkpt>
      <trkpt lat="4.6192130" lon="-74.2542470">
        <ele>2542.5</ele>
        <time>2018-08-11T16:18:57Z</time>
      </trkpt>
      <trkpt lat="4.6192780" lon="-74.2542120">
        <ele>2542.4</ele>
        <time>2018-08-11T16:18:58Z</time>
      </trkpt>
      <trkpt lat="4.6193450" lon="-74.2541800">
        <ele>2542.1</ele>
        <time>2018-08-11T16:18:59Z</time>
      </trkpt>
      <trkpt lat="4.6194120" lon="-74.2541480">
        <ele>2541.7</ele>
        <time>2018-08-11T16:19:00Z</time>
      </trkpt>
      <trkpt lat="4.6194770" lon="-74.2541150">
        <ele>2542.5</ele>
        <time>2018-08-11T16:19:01Z</time>
      </trkpt>
      <trkpt lat="4.6195420" lon="-74.2540830">
        <ele>2543.8</ele>
        <time>2018-08-11T16:19:02Z</time>
      </trkpt>
      <trkpt lat="4.6196050" lon="-74.2540520">
        <ele>2545.2</ele>
        <time>2018-08-11T16:19:03Z</time>
      </trkpt>
      <trkpt lat="4.6196680" lon="-74.2540180">
        <ele>2545.2</ele>
        <time>2018-08-11T16:19:04Z</time>
      </trkpt>
      <trkpt lat="4.6197280" lon="-74.2539850">
        <ele>2545.6</ele>
        <time>2018-08-11T16:19:05Z</time>
      </trkpt>
      <trkpt lat="4.6197880" lon="-74.2539530">
        <ele>2545.6</ele>
        <time>2018-08-11T16:19:06Z</time>
      </trkpt>
      <trkpt lat="4.6198470" lon="-74.2539230">
        <ele>2545.1</ele>
        <time>2018-08-11T16:19:07Z</time>
      </trkpt>
      <trkpt lat="4.6199070" lon="-74.2538950">
        <ele>2544.6</ele>
        <time>2018-08-11T16:19:08Z</time>
      </trkpt>
      <trkpt lat="4.6199670" lon="-74.2538670">
        <ele>2544.6</ele>
        <time>2018-08-11T16:19:09Z</time>
      </trkpt>
      <trkpt lat="4.6200220" lon="-74.2538350">
        <ele>2544.4</ele>
        <time>2018-08-11T16:19:10Z</time>
      </trkpt>
      <trkpt lat="4.6200780" lon="-74.2538020">
        <ele>2544.5</ele>
        <time>2018-08-11T16:19:11Z</time>
      </trkpt>
      <trkpt lat="4.6201380" lon="-74.2537720">
        <ele>2544.1</ele>
        <time>2018-08-11T16:19:12Z</time>
      </trkpt>
      <trkpt lat="4.6201980" lon="-74.2537400">
        <ele>2543.5</ele>
        <time>2018-08-11T16:19:13Z</time>
      </trkpt>
      <trkpt lat="4.6202600" lon="-74.2537080">
        <ele>2543.2</ele>
        <time>2018-08-11T16:19:14Z</time>
      </trkpt>
      <trkpt lat="4.6203220" lon="-74.2536770">
        <ele>2542.4</ele>
        <time>2018-08-11T16:19:15Z</time>
      </trkpt>
      <trkpt lat="4.6203820" lon="-74.2536450">
        <ele>2542.3</ele>
        <time>2018-08-11T16:19:16Z</time>
      </trkpt>
      <trkpt lat="4.6204430" lon="-74.2536120">
        <ele>2541.5</ele>
        <time>2018-08-11T16:19:17Z</time>
      </trkpt>
      <trkpt lat="4.6205050" lon="-74.2535780">
        <ele>2541.5</ele>
        <time>2018-08-11T16:19:18Z</time>
      </trkpt>
      <trkpt lat="4.6205650" lon="-74.2535470">
        <ele>2541.0</ele>
        <time>2018-08-11T16:19:19Z</time>
      </trkpt>
      <trkpt lat="4.6206250" lon="-74.2535130">
        <ele>2540.8</ele>
        <time>2018-08-11T16:19:20Z</time>
      </trkpt>
      <trkpt lat="4.6206850" lon="-74.2534800">
        <ele>2540.8</ele>
        <time>2018-08-11T16:19:21Z</time>
      </trkpt>
      <trkpt lat="4.6207480" lon="-74.2534470">
        <ele>2540.4</ele>
        <time>2018-08-11T16:19:22Z</time>
      </trkpt>
      <trkpt lat="4.6208120" lon="-74.2534150">
        <ele>2540.8</ele>
        <time>2018-08-11T16:19:23Z</time>
      </trkpt>
      <trkpt lat="4.6208730" lon="-74.2533800">
        <ele>2540.0</ele>
        <time>2018-08-11T16:19:24Z</time>
      </trkpt>
      <trkpt lat="4.6209350" lon="-74.2533400">
        <ele>2540.5</ele>
        <time>2018-08-11T16:19:25Z</time>
      </trkpt>
      <trkpt lat="4.6209980" lon="-74.2533050">
        <ele>2540.9</ele>
        <time>2018-08-11T16:19:26Z</time>
      </trkpt>
      <trkpt lat="4.6210650" lon="-74.2532720">
        <ele>2541.0</ele>
        <time>2018-08-11T16:19:27Z</time>
      </trkpt>
      <trkpt lat="4.6211320" lon="-74.2532380">
        <ele>2541.1</ele>
        <time>2018-08-11T16:19:28Z</time>
      </trkpt>
      <trkpt lat="4.6211980" lon="-74.2532080">
        <ele>2540.7</ele>
        <time>2018-08-11T16:19:29Z</time>
      </trkpt>
      <trkpt lat="4.6212650" lon="-74.2531750">
        <ele>2540.5</ele>
        <time>2018-08-11T16:19:30Z</time>
      </trkpt>
      <trkpt lat="4.6213300" lon="-74.2531380">
        <ele>2540.6</ele>
        <time>2018-08-11T16:19:31Z</time>
      </trkpt>
      <trkpt lat="4.6213950" lon="-74.2531030">
        <ele>2540.1</ele>
        <time>2018-08-11T16:19:32Z</time>
      </trkpt>
      <trkpt lat="4.6214570" lon="-74.2530670">
        <ele>2540.1</ele>
        <time>2018-08-11T16:19:33Z</time>
      </trkpt>
      <trkpt lat="4.6215200" lon="-74.2530330">
        <ele>2539.2</ele>
        <time>2018-08-11T16:19:34Z</time>
      </trkpt>
      <trkpt lat="4.6215850" lon="-74.2530000">
        <ele>2539.6</ele>
        <time>2018-08-11T16:19:35Z</time>
      </trkpt>
      <trkpt lat="4.6216520" lon="-74.2529650">
        <ele>2539.5</ele>
        <time>2018-08-11T16:19:36Z</time>
      </trkpt>
      <trkpt lat="4.6217170" lon="-74.2529300">
        <ele>2539.5</ele>
        <time>2018-08-11T16:19:37Z</time>
      </trkpt>
      <trkpt lat="4.6217830" lon="-74.2528930">
        <ele>2539.1</ele>
        <time>2018-08-11T16:19:38Z</time>
      </trkpt>
      <trkpt lat="4.6218500" lon="-74.2528600">
        <ele>2538.9</ele>
        <time>2018-08-11T16:19:39Z</time>
      </trkpt>
      <trkpt lat="4.6219170" lon="-74.2528230">
        <ele>2539.0</ele>
        <time>2018-08-11T16:19:40Z</time>
      </trkpt>
      <trkpt lat="4.6219820" lon="-74.2527870">
        <ele>2539.4</ele>
        <time>2018-08-11T16:19:41Z</time>
      </trkpt>
      <trkpt lat="4.6220480" lon="-74.2527520">
        <ele>2539.5</ele>
        <time>2018-08-11T16:19:42Z</time>
      </trkpt>
      <trkpt lat="4.6221170" lon="-74.2527170">
        <ele>2539.2</ele>
        <time>2018-08-11T16:19:43Z</time>
      </trkpt>
      <trkpt lat="4.6221870" lon="-74.2526830">
        <ele>2539.0</ele>
        <time>2018-08-11T16:19:44Z</time>
      </trkpt>
      <trkpt lat="4.6222570" lon="-74.2526470">
        <ele>2538.3</ele>
        <time>2018-08-11T16:19:45Z</time>
      </trkpt>
      <trkpt lat="4.6223250" lon="-74.2526120">
        <ele>2537.2</ele>
        <time>2018-08-11T16:19:46Z</time>
      </trkpt>
      <trkpt lat="4.6223930" lon="-74.2525770">
        <ele>2536.5</ele>
        <time>2018-08-11T16:19:47Z</time>
      </trkpt>
      <trkpt lat="4.6224620" lon="-74.2525420">
        <ele>2535.9</ele>
        <time>2018-08-11T16:19:48Z</time>
      </trkpt>
      <trkpt lat="4.6225300" lon="-74.2525050">
        <ele>2536.1</ele>
        <time>2018-08-11T16:19:49Z</time>
      </trkpt>
      <trkpt lat="4.6225930" lon="-74.2524680">
        <ele>2536.4</ele>
        <time>2018-08-11T16:19:50Z</time>
      </trkpt>
      <trkpt lat="4.6226570" lon="-74.2524320">
        <ele>2536.4</ele>
        <time>2018-08-11T16:19:51Z</time>
      </trkpt>
      <trkpt lat="4.6227220" lon="-74.2523970">
        <ele>2536.6</ele>
        <time>2018-08-11T16:19:52Z</time>
      </trkpt>
      <trkpt lat="4.6227870" lon="-74.2523630">
        <ele>2537.0</ele>
        <time>2018-08-11T16:19:53Z</time>
      </trkpt>
      <trkpt lat="4.6228500" lon="-74.2523280">
        <ele>2537.2</ele>
        <time>2018-08-11T16:19:54Z</time>
      </trkpt>
      <trkpt lat="4.6229130" lon="-74.2522950">
        <ele>2537.4</ele>
        <time>2018-08-11T16:19:55Z</time>
      </trkpt>
      <trkpt lat="4.6229750" lon="-74.2522620">
        <ele>2537.1</ele>
        <time>2018-08-11T16:19:56Z</time>
      </trkpt>
      <trkpt lat="4.6230380" lon="-74.2522300">
        <ele>2537.5</ele>
        <time>2018-08-11T16:19:57Z</time>
      </trkpt>
      <trkpt lat="4.6231020" lon="-74.2521980">
        <ele>2538.2</ele>
        <time>2018-08-11T16:19:58Z</time>
      </trkpt>
      <trkpt lat="4.6231650" lon="-74.2521650">
        <ele>2538.8</ele>
        <time>2018-08-11T16:19:59Z</time>
      </trkpt>
      <trkpt lat="4.6232280" lon="-74.2521320">
        <ele>2538.7</ele>
        <time>2018-08-11T16:20:00Z</time>
      </trkpt>
      <trkpt lat="4.6232920" lon="-74.2520980">
        <ele>2538.9</ele>
        <time>2018-08-11T16:20:01Z</time>
      </trkpt>
      <trkpt lat="4.6233550" lon="-74.2520650">
        <ele>2538.7</ele>
        <time>2018-08-11T16:20:02Z</time>
      </trkpt>
      <trkpt lat="4.6234180" lon="-74.2520320">
        <ele>2538.8</ele>
        <time>2018-08-11T16:20:03Z</time>
      </trkpt>
      <trkpt lat="4.6234830" lon="-74.2519950">
        <ele>2538.9</ele>
        <time>2018-08-11T16:20:04Z</time>
      </trkpt>
      <trkpt lat="4.6235480" lon="-74.2519570">
        <ele>2538.8</ele>
        <time>2018-08-11T16:20:05Z</time>
      </trkpt>
      <trkpt lat="4.6236150" lon="-74.2519220">
        <ele>2538.9</ele>
        <time>2018-08-11T16:20:06Z</time>
      </trkpt>
      <trkpt lat="4.6236800" lon="-74.2518850">
        <ele>2539.0</ele>
        <time>2018-08-11T16:20:07Z</time>
      </trkpt>
      <trkpt lat="4.6237420" lon="-74.2518480">
        <ele>2538.8</ele>
        <time>2018-08-11T16:20:08Z</time>
      </trkpt>
      <trkpt lat="4.6238070" lon="-74.2518170">
        <ele>2538.9</ele>
        <time>2018-08-11T16:20:09Z</time>
      </trkpt>
      <trkpt lat="4.6238680" lon="-74.2517850">
        <ele>2538.6</ele>
        <time>2018-08-11T16:20:10Z</time>
      </trkpt>
      <trkpt lat="4.6239280" lon="-74.2517550">
        <ele>2538.3</ele>
        <time>2018-08-11T16:20:11Z</time>
      </trkpt>
      <trkpt lat="4.6239830" lon="-74.2517250">
        <ele>2538.2</ele>
        <time>2018-08-11T16:20:12Z</time>
      </trkpt>
      <trkpt lat="4.6240380" lon="-74.2516950">
        <ele>2538.1</ele>
        <time>2018-08-11T16:20:13Z</time>
      </trkpt>
      <trkpt lat="4.6240930" lon="-74.2516670">
        <ele>2537.9</ele>
        <time>2018-08-11T16:20:14Z</time>
      </trkpt>
      <trkpt lat="4.6241450" lon="-74.2516380">
        <ele>2538.1</ele>
        <time>2018-08-11T16:20:15Z</time>
      </trkpt>
      <trkpt lat="4.6241930" lon="-74.2516130">
        <ele>2538.1</ele>
        <time>2018-08-11T16:20:16Z</time>
      </trkpt>
      <trkpt lat="4.6242430" lon="-74.2515880">
        <ele>2537.8</ele>
        <time>2018-08-11T16:20:17Z</time>
      </trkpt>
      <trkpt lat="4.6242870" lon="-74.2515630">
        <ele>2537.5</ele>
        <time>2018-08-11T16:20:18Z</time>
      </trkpt>
      <trkpt lat="4.6243350" lon="-74.2515400">
        <ele>2537.0</ele>
        <time>2018-08-11T16:20:19Z</time>
      </trkpt>
      <trkpt lat="4.6243870" lon="-74.2515150">
        <ele>2535.8</ele>
        <time>2018-08-11T16:20:20Z</time>
      </trkpt>
      <trkpt lat="4.6244350" lon="-74.2514870">
        <ele>2535.4</ele>
        <time>2018-08-11T16:20:21Z</time>
      </trkpt>
      <trkpt lat="4.6244870" lon="-74.2514600">
        <ele>2534.8</ele>
        <time>2018-08-11T16:20:22Z</time>
      </trkpt>
      <trkpt lat="4.6245380" lon="-74.2514320">
        <ele>2534.6</ele>
        <time>2018-08-11T16:20:23Z</time>
      </trkpt>
      <trkpt lat="4.6245900" lon="-74.2514050">
        <ele>2534.6</ele>
        <time>2018-08-11T16:20:24Z</time>
      </trkpt>
      <trkpt lat="4.6246420" lon="-74.2513780">
        <ele>2534.8</ele>
        <time>2018-08-11T16:20:25Z</time>
      </trkpt>
      <trkpt lat="4.6246950" lon="-74.2513500">
        <ele>2534.8</ele>
        <time>2018-08-11T16:20:26Z</time>
      </trkpt>
      <trkpt lat="4.6247450" lon="-74.2513220">
        <ele>2534.7</ele>
        <time>2018-08-11T16:20:27Z</time>
      </trkpt>
      <trkpt lat="4.6247970" lon="-74.2512930">
        <ele>2534.6</ele>
        <time>2018-08-11T16:20:28Z</time>
      </trkpt>
      <trkpt lat="4.6248500" lon="-74.2512630">
        <ele>2534.7</ele>
        <time>2018-08-11T16:20:29Z</time>
      </trkpt>
      <trkpt lat="4.6249030" lon="-74.2512330">
        <ele>2534.7</ele>
        <time>2018-08-11T16:20:30Z</time>
      </trkpt>
      <trkpt lat="4.6249570" lon="-74.2512050">
        <ele>2534.8</ele>
        <time>2018-08-11T16:20:31Z</time>
      </trkpt>
      <trkpt lat="4.6250080" lon="-74.2511780">
        <ele>2534.8</ele>
        <time>2018-08-11T16:20:32Z</time>
      </trkpt>
      <trkpt lat="4.6250620" lon="-74.2511520">
        <ele>2534.9</ele>
        <time>2018-08-11T16:20:33Z</time>
      </trkpt>
      <trkpt lat="4.6251170" lon="-74.2511230">
        <ele>2534.7</ele>
        <time>2018-08-11T16:20:34Z</time>
      </trkpt>
      <trkpt lat="4.6251700" lon="-74.2510970">
        <ele>2534.4</ele>
        <time>2018-08-11T16:20:35Z</time>
      </trkpt>
      <trkpt lat="4.6252220" lon="-74.2510680">
        <ele>2534.0</ele>
        <time>2018-08-11T16:20:36Z</time>
      </trkpt>
      <trkpt lat="4.6252750" lon="-74.2510380">
        <ele>2533.8</ele>
        <time>2018-08-11T16:20:37Z</time>
      </trkpt>
      <trkpt lat="4.6253280" lon="-74.2510080">
        <ele>2533.7</ele>
        <time>2018-08-11T16:20:38Z</time>
      </trkpt>
      <trkpt lat="4.6253820" lon="-74.2509780">
        <ele>2533.7</ele>
        <time>2018-08-11T16:20:39Z</time>
      </trkpt>
      <trkpt lat="4.6254370" lon="-74.2509480">
        <ele>2534.1</ele>
        <time>2018-08-11T16:20:40Z</time>
      </trkpt>
      <trkpt lat="4.6254900" lon="-74.2509180">
        <ele>2534.4</ele>
        <time>2018-08-11T16:20:41Z</time>
      </trkpt>
      <trkpt lat="4.6255430" lon="-74.2508900">
        <ele>2534.4</ele>
        <time>2018-08-11T16:20:42Z</time>
      </trkpt>
      <trkpt lat="4.6255980" lon="-74.2508600">
        <ele>2534.6</ele>
        <time>2018-08-11T16:20:43Z</time>
      </trkpt>
      <trkpt lat="4.6256550" lon="-74.2508320">
        <ele>2534.8</ele>
        <time>2018-08-11T16:20:44Z</time>
      </trkpt>
      <trkpt lat="4.6257130" lon="-74.2508050">
        <ele>2535.2</ele>
        <time>2018-08-11T16:20:45Z</time>
      </trkpt>
      <trkpt lat="4.6257700" lon="-74.2507770">
        <ele>2535.3</ele>
        <time>2018-08-11T16:20:46Z</time>
      </trkpt>
      <trkpt lat="4.6258300" lon="-74.2507480">
        <ele>2535.1</ele>
        <time>2018-08-11T16:20:47Z</time>
      </trkpt>
      <trkpt lat="4.6258880" lon="-74.2507170">
        <ele>2535.3</ele>
        <time>2018-08-11T16:20:48Z</time>
      </trkpt>
      <trkpt lat="4.6259480" lon="-74.2506850">
        <ele>2534.9</ele>
        <time>2018-08-11T16:20:49Z</time>
      </trkpt>
      <trkpt lat="4.6260050" lon="-74.2506520">
        <ele>2534.9</ele>
        <time>2018-08-11T16:20:50Z</time>
      </trkpt>
      <trkpt lat="4.6260620" lon="-74.2506170">
        <ele>2534.9</ele>
        <time>2018-08-11T16:20:51Z</time>
      </trkpt>
      <trkpt lat="4.6261220" lon="-74.2505850">
        <ele>2535.2</ele>
        <time>2018-08-11T16:20:52Z</time>
      </trkpt>
      <trkpt lat="4.6261820" lon="-74.2505520">
        <ele>2535.3</ele>
        <time>2018-08-11T16:20:53Z</time>
      </trkpt>
      <trkpt lat="4.6262400" lon="-74.2505180">
        <ele>2535.1</ele>
        <time>2018-08-11T16:20:54Z</time>
      </trkpt>
      <trkpt lat="4.6263000" lon="-74.2504870">
        <ele>2534.7</ele>
        <time>2018-08-11T16:20:55Z</time>
      </trkpt>
      <trkpt lat="4.6263620" lon="-74.2504550">
        <ele>2534.3</ele>
        <time>2018-08-11T16:20:56Z</time>
      </trkpt>
      <trkpt lat="4.6264200" lon="-74.2504270">
        <ele>2533.9</ele>
        <time>2018-08-11T16:20:57Z</time>
      </trkpt>
      <trkpt lat="4.6264780" lon="-74.2503970">
        <ele>2533.7</ele>
        <time>2018-08-11T16:20:58Z</time>
      </trkpt>
      <trkpt lat="4.6265370" lon="-74.2503670">
        <ele>2533.7</ele>
        <time>2018-08-11T16:20:59Z</time>
      </trkpt>
      <trkpt lat="4.6265930" lon="-74.2503370">
        <ele>2533.8</ele>
        <time>2018-08-11T16:21:00Z</time>
      </trkpt>
      <trkpt lat="4.6266520" lon="-74.2503070">
        <ele>2533.7</ele>
        <time>2018-08-11T16:21:01Z</time>
      </trkpt>
      <trkpt lat="4.6267080" lon="-74.2502770">
        <ele>2533.8</ele>
        <time>2018-08-11T16:21:02Z</time>
      </trkpt>
      <trkpt lat="4.6267630" lon="-74.2502470">
        <ele>2533.9</ele>
        <time>2018-08-11T16:21:03Z</time>
      </trkpt>
      <trkpt lat="4.6268180" lon="-74.2502180">
        <ele>2534.3</ele>
        <time>2018-08-11T16:21:04Z</time>
      </trkpt>
      <trkpt lat="4.6268750" lon="-74.2501920">
        <ele>2534.6</ele>
        <time>2018-08-11T16:21:05Z</time>
      </trkpt>
      <trkpt lat="4.6269300" lon="-74.2501650">
        <ele>2534.6</ele>
        <time>2018-08-11T16:21:06Z</time>
      </trkpt>
      <trkpt lat="4.6269870" lon="-74.2501370">
        <ele>2534.9</ele>
        <time>2018-08-11T16:21:07Z</time>
      </trkpt>
      <trkpt lat="4.6270420" lon="-74.2501080">
        <ele>2535.0</ele>
        <time>2018-08-11T16:21:08Z</time>
      </trkpt>
      <trkpt lat="4.6270970" lon="-74.2500820">
        <ele>2534.9</ele>
        <time>2018-08-11T16:21:09Z</time>
      </trkpt>
      <trkpt lat="4.6271500" lon="-74.2500550">
        <ele>2534.7</ele>
        <time>2018-08-11T16:21:10Z</time>
      </trkpt>
      <trkpt lat="4.6272020" lon="-74.2500280">
        <ele>2534.6</ele>
        <time>2018-08-11T16:21:11Z</time>
      </trkpt>
      <trkpt lat="4.6272520" lon="-74.2500000">
        <ele>2534.7</ele>
        <time>2018-08-11T16:21:12Z</time>
      </trkpt>
      <trkpt lat="4.6273030" lon="-74.2499720">
        <ele>2534.9</ele>
        <time>2018-08-11T16:21:13Z</time>
      </trkpt>
      <trkpt lat="4.6273550" lon="-74.2499470">
        <ele>2534.8</ele>
        <time>2018-08-11T16:21:14Z</time>
      </trkpt>
      <trkpt lat="4.6274030" lon="-74.2499200">
        <ele>2534.5</ele>
        <time>2018-08-11T16:21:15Z</time>
      </trkpt>
      <trkpt lat="4.6274580" lon="-74.2498930">
        <ele>2533.9</ele>
        <time>2018-08-11T16:21:16Z</time>
      </trkpt>
      <trkpt lat="4.6275050" lon="-74.2498670">
        <ele>2533.8</ele>
        <time>2018-08-11T16:21:17Z</time>
      </trkpt>
      <trkpt lat="4.6275550" lon="-74.2498420">
        <ele>2534.0</ele>
        <time>2018-08-11T16:21:18Z</time>
      </trkpt>
      <trkpt lat="4.6276000" lon="-74.2498130">
        <ele>2534.3</ele>
        <time>2018-08-11T16:21:19Z</time>
      </trkpt>
      <trkpt lat="4.6276450" lon="-74.2497870">
        <ele>2534.6</ele>
        <time>2018-08-11T16:21:20Z</time>
      </trkpt>
      <trkpt lat="4.6276900" lon="-74.2497630">
        <ele>2534.6</ele>
        <time>2018-08-11T16:21:21Z</time>
      </trkpt>
      <trkpt lat="4.6277330" lon="-74.2497400">
        <ele>2534.6</ele>
        <time>2018-08-11T16:21:22Z</time>
      </trkpt>
      <trkpt lat="4.6277800" lon="-74.2497200">
        <ele>2534.3</ele>
        <time>2018-08-11T16:21:23Z</time>
      </trkpt>
      <trkpt lat="4.6278230" lon="-74.2496980">
        <ele>2534.3</ele>
        <time>2018-08-11T16:21:24Z</time>
      </trkpt>
      <trkpt lat="4.6278670" lon="-74.2496750">
        <ele>2533.9</ele>
        <time>2018-08-11T16:21:25Z</time>
      </trkpt>
      <trkpt lat="4.6279100" lon="-74.2496530">
        <ele>2533.9</ele>
        <time>2018-08-11T16:21:26Z</time>
      </trkpt>
      <trkpt lat="4.6279520" lon="-74.2496300">
        <ele>2533.5</ele>
        <time>2018-08-11T16:21:27Z</time>
      </trkpt>
      <trkpt lat="4.6279920" lon="-74.2496080">
        <ele>2533.5</ele>
        <time>2018-08-11T16:21:28Z</time>
      </trkpt>
      <trkpt lat="4.6280330" lon="-74.2495850">
        <ele>2533.1</ele>
        <time>2018-08-11T16:21:29Z</time>
      </trkpt>
      <trkpt lat="4.6280750" lon="-74.2495630">
        <ele>2533.3</ele>
        <time>2018-08-11T16:21:30Z</time>
      </trkpt>
      <trkpt lat="4.6281180" lon="-74.2495450">
        <ele>2533.2</ele>
        <time>2018-08-11T16:21:31Z</time>
      </trkpt>
      <trkpt lat="4.6281600" lon="-74.2495230">
        <ele>2533.5</ele>
        <time>2018-08-11T16:21:32Z</time>
      </trkpt>
      <trkpt lat="4.6282000" lon="-74.2495000">
        <ele>2533.2</ele>
        <time>2018-08-11T16:21:33Z</time>
      </trkpt>
      <trkpt lat="4.6282420" lon="-74.2494800">
        <ele>2533.3</ele>
        <time>2018-08-11T16:21:34Z</time>
      </trkpt>
      <trkpt lat="4.6282850" lon="-74.2494600">
        <ele>2532.4</ele>
        <time>2018-08-11T16:21:35Z</time>
      </trkpt>
      <trkpt lat="4.6283270" lon="-74.2494380">
        <ele>2532.4</ele>
        <time>2018-08-11T16:21:36Z</time>
      </trkpt>
      <trkpt lat="4.6283700" lon="-74.2494170">
        <ele>2531.9</ele>
        <time>2018-08-11T16:21:37Z</time>
      </trkpt>
      <trkpt lat="4.6284130" lon="-74.2493980">
        <ele>2532.2</ele>
        <time>2018-08-11T16:21:38Z</time>
      </trkpt>
      <trkpt lat="4.6284520" lon="-74.2493750">
        <ele>2532.1</ele>
        <time>2018-08-11T16:21:39Z</time>
      </trkpt>
      <trkpt lat="4.6284900" lon="-74.2493550">
        <ele>2532.5</ele>
        <time>2018-08-11T16:21:40Z</time>
      </trkpt>
      <trkpt lat="4.6285280" lon="-74.2493320">
        <ele>2532.2</ele>
        <time>2018-08-11T16:21:41Z</time>
      </trkpt>
      <trkpt lat="4.6285650" lon="-74.2493100">
        <ele>2532.2</ele>
        <time>2018-08-11T16:21:42Z</time>
      </trkpt>
      <trkpt lat="4.6286030" lon="-74.2492880">
        <ele>2531.9</ele>
        <time>2018-08-11T16:21:43Z</time>
      </trkpt>
      <trkpt lat="4.6286400" lon="-74.2492650">
        <ele>2532.1</ele>
        <time>2018-08-11T16:21:44Z</time>
      </trkpt>
      <trkpt lat="4.6286770" lon="-74.2492430">
        <ele>2531.8</ele>
        <time>2018-08-11T16:21:45Z</time>
      </trkpt>
      <trkpt lat="4.6287130" lon="-74.2492180">
        <ele>2532.1</ele>
        <time>2018-08-11T16:21:46Z</time>
      </trkpt>
      <trkpt lat="4.6287480" lon="-74.2491930">
        <ele>2531.8</ele>
        <time>2018-08-11T16:21:47Z</time>
      </trkpt>
      <trkpt lat="4.6287850" lon="-74.2491750">
        <ele>2532.1</ele>
        <time>2018-08-11T16:21:48Z</time>
      </trkpt>
      <trkpt lat="4.6288230" lon="-74.2491550">
        <ele>2531.7</ele>
        <time>2018-08-11T16:21:49Z</time>
      </trkpt>
      <trkpt lat="4.6288600" lon="-74.2491330">
        <ele>2531.9</ele>
        <time>2018-08-11T16:21:50Z</time>
      </trkpt>
      <trkpt lat="4.6288970" lon="-74.2491120">
        <ele>2531.7</ele>
        <time>2018-08-11T16:21:51Z</time>
      </trkpt>
      <trkpt lat="4.6289370" lon="-74.2490900">
        <ele>2531.8</ele>
        <time>2018-08-11T16:21:52Z</time>
      </trkpt>
      <trkpt lat="4.6289730" lon="-74.2490700">
        <ele>2531.7</ele>
        <time>2018-08-11T16:21:53Z</time>
      </trkpt>
      <trkpt lat="4.6290100" lon="-74.2490530">
        <ele>2531.7</ele>
        <time>2018-08-11T16:21:54Z</time>
      </trkpt>
      <trkpt lat="4.6290430" lon="-74.2490350">
        <ele>2531.8</ele>
        <time>2018-08-11T16:21:55Z</time>
      </trkpt>
      <trkpt lat="4.6290680" lon="-74.2490200">
        <ele>2531.8</ele>
        <time>2018-08-11T16:21:56Z</time>
      </trkpt>
      <trkpt lat="4.6290930" lon="-74.2490070">
        <ele>2531.9</ele>
        <time>2018-08-11T16:21:57Z</time>
      </trkpt>
      <trkpt lat="4.6291180" lon="-74.2489930">
        <ele>2532.0</ele>
        <time>2018-08-11T16:21:58Z</time>
      </trkpt>
      <trkpt lat="4.6291530" lon="-74.2489720">
        <ele>2532.2</ele>
        <time>2018-08-11T16:22:00Z</time>
      </trkpt>
      <trkpt lat="4.6291730" lon="-74.2489500">
        <ele>2532.6</ele>
        <time>2018-08-11T16:22:02Z</time>
      </trkpt>
      <trkpt lat="4.6292100" lon="-74.2490100">
        <ele>2532.2</ele>
        <time>2018-08-11T16:22:50Z</time>
      </trkpt>
      <trkpt lat="4.6291880" lon="-74.2490370">
        <ele>2532.2</ele>
        <time>2018-08-11T16:22:53Z</time>
      </trkpt>
      <trkpt lat="4.6291500" lon="-74.2490550">
        <ele>2531.8</ele>
        <time>2018-08-11T16:22:55Z</time>
      </trkpt>
      <trkpt lat="4.6291250" lon="-74.2490670">
        <ele>2531.8</ele>
        <time>2018-08-11T16:22:56Z</time>
      </trkpt>
      <trkpt lat="4.6290980" lon="-74.2490820">
        <ele>2531.6</ele>
        <time>2018-08-11T16:22:57Z</time>
      </trkpt>
      <trkpt lat="4.6290700" lon="-74.2490980">
        <ele>2531.7</ele>
        <time>2018-08-11T16:22:58Z</time>
      </trkpt>
      <trkpt lat="4.6290420" lon="-74.2491130">
        <ele>2531.7</ele>
        <time>2018-08-11T16:22:59Z</time>
      </trkpt>
      <trkpt lat="4.6290100" lon="-74.2491280">
        <ele>2531.8</ele>
        <time>2018-08-11T16:23:00Z</time>
      </trkpt>
      <trkpt lat="4.6289770" lon="-74.2491470">
        <ele>2532.0</ele>
        <time>2018-08-11T16:23:01Z</time>
      </trkpt>
      <trkpt lat="4.6289430" lon="-74.2491650">
        <ele>2532.0</ele>
        <time>2018-08-11T16:23:02Z</time>
      </trkpt>
      <trkpt lat="4.6289070" lon="-74.2491800">
        <ele>2532.3</ele>
        <time>2018-08-11T16:23:03Z</time>
      </trkpt>
      <trkpt lat="4.6288700" lon="-74.2491970">
        <ele>2532.3</ele>
        <time>2018-08-11T16:23:04Z</time>
      </trkpt>
      <trkpt lat="4.6288330" lon="-74.2492150">
        <ele>2532.5</ele>
        <time>2018-08-11T16:23:05Z</time>
      </trkpt>
      <trkpt lat="4.6287950" lon="-74.2492370">
        <ele>2532.5</ele>
        <time>2018-08-11T16:23:06Z</time>
      </trkpt>
      <trkpt lat="4.6287580" lon="-74.2492600">
        <ele>2532.8</ele>
        <time>2018-08-11T16:23:07Z</time>
      </trkpt>
      <trkpt lat="4.6287230" lon="-74.2492820">
        <ele>2532.6</ele>
        <time>2018-08-11T16:23:08Z</time>
      </trkpt>
      <trkpt lat="4.6286870" lon="-74.2493050">
        <ele>2532.9</ele>
        <time>2018-08-11T16:23:09Z</time>
      </trkpt>
      <trkpt lat="4.6286480" lon="-74.2493270">
        <ele>2532.7</ele>
        <time>2018-08-11T16:23:10Z</time>
      </trkpt>
      <trkpt lat="4.6286100" lon="-74.2493470">
        <ele>2533.0</ele>
        <time>2018-08-11T16:23:11Z</time>
      </trkpt>
      <trkpt lat="4.6285720" lon="-74.2493670">
        <ele>2533.0</ele>
        <time>2018-08-11T16:23:12Z</time>
      </trkpt>
      <trkpt lat="4.6285330" lon="-74.2493870">
        <ele>2533.2</ele>
        <time>2018-08-11T16:23:13Z</time>
      </trkpt>
      <trkpt lat="4.6284950" lon="-74.2494050">
        <ele>2533.0</ele>
        <time>2018-08-11T16:23:14Z</time>
      </trkpt>
      <trkpt lat="4.6284550" lon="-74.2494270">
        <ele>2533.1</ele>
        <time>2018-08-11T16:23:15Z</time>
      </trkpt>
      <trkpt lat="4.6284150" lon="-74.2494480">
        <ele>2532.8</ele>
        <time>2018-08-11T16:23:16Z</time>
      </trkpt>
      <trkpt lat="4.6283730" lon="-74.2494680">
        <ele>2533.2</ele>
        <time>2018-08-11T16:23:17Z</time>
      </trkpt>
      <trkpt lat="4.6283320" lon="-74.2494870">
        <ele>2533.2</ele>
        <time>2018-08-11T16:23:18Z</time>
      </trkpt>
      <trkpt lat="4.6282900" lon="-74.2495050">
        <ele>2533.2</ele>
        <time>2018-08-11T16:23:19Z</time>
      </trkpt>
      <trkpt lat="4.6282470" lon="-74.2495250">
        <ele>2534.0</ele>
        <time>2018-08-11T16:23:20Z</time>
      </trkpt>
      <trkpt lat="4.6281920" lon="-74.2495480">
        <ele>2533.8</ele>
        <time>2018-08-11T16:23:21Z</time>
      </trkpt>
      <trkpt lat="4.6281400" lon="-74.2495750">
        <ele>2533.6</ele>
        <time>2018-08-11T16:23:22Z</time>
      </trkpt>
      <trkpt lat="4.6280920" lon="-74.2495970">
        <ele>2533.8</ele>
        <time>2018-08-11T16:23:23Z</time>
      </trkpt>
      <trkpt lat="4.6280450" lon="-74.2496230">
        <ele>2533.6</ele>
        <time>2018-08-11T16:23:24Z</time>
      </trkpt>
      <trkpt lat="4.6280000" lon="-74.2496480">
        <ele>2533.9</ele>
        <time>2018-08-11T16:23:25Z</time>
      </trkpt>
      <trkpt lat="4.6279530" lon="-74.2496750">
        <ele>2533.9</ele>
        <time>2018-08-11T16:23:26Z</time>
      </trkpt>
      <trkpt lat="4.6279050" lon="-74.2496980">
        <ele>2534.2</ele>
        <time>2018-08-11T16:23:27Z</time>
      </trkpt>
      <trkpt lat="4.6278570" lon="-74.2497250">
        <ele>2534.3</ele>
        <time>2018-08-11T16:23:28Z</time>
      </trkpt>
      <trkpt lat="4.6278080" lon="-74.2497500">
        <ele>2534.6</ele>
        <time>2018-08-11T16:23:29Z</time>
      </trkpt>
      <trkpt lat="4.6277620" lon="-74.2497750">
        <ele>2534.9</ele>
        <time>2018-08-11T16:23:30Z</time>
      </trkpt>
      <trkpt lat="4.6277150" lon="-74.2498000">
        <ele>2534.9</ele>
        <time>2018-08-11T16:23:31Z</time>
      </trkpt>
      <trkpt lat="4.6276670" lon="-74.2498250">
        <ele>2534.6</ele>
        <time>2018-08-11T16:23:32Z</time>
      </trkpt>
      <trkpt lat="4.6276180" lon="-74.2498600">
        <ele>2534.2</ele>
        <time>2018-08-11T16:23:33Z</time>
      </trkpt>
      <trkpt lat="4.6275670" lon="-74.2498950">
        <ele>2534.0</ele>
        <time>2018-08-11T16:23:34Z</time>
      </trkpt>
      <trkpt lat="4.6275120" lon="-74.2499200">
        <ele>2533.8</ele>
        <time>2018-08-11T16:23:35Z</time>
      </trkpt>
      <trkpt lat="4.6274620" lon="-74.2499370">
        <ele>2533.9</ele>
        <time>2018-08-11T16:23:36Z</time>
      </trkpt>
      <trkpt lat="4.6274150" lon="-74.2499550">
        <ele>2534.5</ele>
        <time>2018-08-11T16:23:37Z</time>
      </trkpt>
      <trkpt lat="4.6273680" lon="-74.2499770">
        <ele>2534.8</ele>
        <time>2018-08-11T16:23:38Z</time>
      </trkpt>
      <trkpt lat="4.6273200" lon="-74.2500030">
        <ele>2534.7</ele>
        <time>2018-08-11T16:23:39Z</time>
      </trkpt>
      <trkpt lat="4.6272750" lon="-74.2500300">
        <ele>2534.5</ele>
        <time>2018-08-11T16:23:40Z</time>
      </trkpt>
      <trkpt lat="4.6272250" lon="-74.2500570">
        <ele>2534.6</ele>
        <time>2018-08-11T16:23:41Z</time>
      </trkpt>
      <trkpt lat="4.6271750" lon="-74.2500820">
        <ele>2534.7</ele>
        <time>2018-08-11T16:23:42Z</time>
      </trkpt>
      <trkpt lat="4.6271230" lon="-74.2501070">
        <ele>2534.8</ele>
        <time>2018-08-11T16:23:43Z</time>
      </trkpt>
      <trkpt lat="4.6270730" lon="-74.2501330">
        <ele>2534.9</ele>
        <time>2018-08-11T16:23:44Z</time>
      </trkpt>
      <trkpt lat="4.6270230" lon="-74.2501630">
        <ele>2534.6</ele>
        <time>2018-08-11T16:23:45Z</time>
      </trkpt>
      <trkpt lat="4.6269750" lon="-74.2501900">
        <ele>2534.6</ele>
        <time>2018-08-11T16:23:46Z</time>
      </trkpt>
      <trkpt lat="4.6269230" lon="-74.2502180">
        <ele>2534.3</ele>
        <time>2018-08-11T16:23:47Z</time>
      </trkpt>
      <trkpt lat="4.6268750" lon="-74.2502480">
        <ele>2534.0</ele>
        <time>2018-08-11T16:23:48Z</time>
      </trkpt>
      <trkpt lat="4.6268250" lon="-74.2502780">
        <ele>2534.0</ele>
        <time>2018-08-11T16:23:49Z</time>
      </trkpt>
      <trkpt lat="4.6267750" lon="-74.2503050">
        <ele>2533.8</ele>
        <time>2018-08-11T16:23:50Z</time>
      </trkpt>
      <trkpt lat="4.6267230" lon="-74.2503320">
        <ele>2533.7</ele>
        <time>2018-08-11T16:23:51Z</time>
      </trkpt>
      <trkpt lat="4.6266720" lon="-74.2503550">
        <ele>2533.8</ele>
        <time>2018-08-11T16:23:52Z</time>
      </trkpt>
      <trkpt lat="4.6266200" lon="-74.2503820">
        <ele>2533.8</ele>
        <time>2018-08-11T16:23:53Z</time>
      </trkpt>
      <trkpt lat="4.6265670" lon="-74.2504120">
        <ele>2533.7</ele>
        <time>2018-08-11T16:23:54Z</time>
      </trkpt>
      <trkpt lat="4.6265130" lon="-74.2504380">
        <ele>2533.6</ele>
        <time>2018-08-11T16:23:55Z</time>
      </trkpt>
      <trkpt lat="4.6264580" lon="-74.2504680">
        <ele>2533.8</ele>
        <time>2018-08-11T16:23:56Z</time>
      </trkpt>
      <trkpt lat="4.6264030" lon="-74.2504980">
        <ele>2534.2</ele>
        <time>2018-08-11T16:23:57Z</time>
      </trkpt>
      <trkpt lat="4.6263500" lon="-74.2505280">
        <ele>2534.5</ele>
        <time>2018-08-11T16:23:58Z</time>
      </trkpt>
      <trkpt lat="4.6262950" lon="-74.2505570">
        <ele>2535.2</ele>
        <time>2018-08-11T16:23:59Z</time>
      </trkpt>
      <trkpt lat="4.6262430" lon="-74.2505850">
        <ele>2535.5</ele>
        <time>2018-08-11T16:24:00Z</time>
      </trkpt>
      <trkpt lat="4.6261900" lon="-74.2506170">
        <ele>2535.6</ele>
        <time>2018-08-11T16:24:01Z</time>
      </trkpt>
      <trkpt lat="4.6261370" lon="-74.2506430">
        <ele>2535.7</ele>
        <time>2018-08-11T16:24:02Z</time>
      </trkpt>
      <trkpt lat="4.6260830" lon="-74.2506680">
        <ele>2535.2</ele>
        <time>2018-08-11T16:24:03Z</time>
      </trkpt>
      <trkpt lat="4.6260350" lon="-74.2506970">
        <ele>2535.3</ele>
        <time>2018-08-11T16:24:04Z</time>
      </trkpt>
      <trkpt lat="4.6259870" lon="-74.2507250">
        <ele>2535.6</ele>
        <time>2018-08-11T16:24:05Z</time>
      </trkpt>
      <trkpt lat="4.6259380" lon="-74.2507530">
        <ele>2535.5</ele>
        <time>2018-08-11T16:24:06Z</time>
      </trkpt>
      <trkpt lat="4.6258900" lon="-74.2507850">
        <ele>2535.8</ele>
        <time>2018-08-11T16:24:07Z</time>
      </trkpt>
      <trkpt lat="4.6258400" lon="-74.2508120">
        <ele>2536.0</ele>
        <time>2018-08-11T16:24:08Z</time>
      </trkpt>
      <trkpt lat="4.6257900" lon="-74.2508370">
        <ele>2535.8</ele>
        <time>2018-08-11T16:24:09Z</time>
      </trkpt>
      <trkpt lat="4.6257430" lon="-74.2508600">
        <ele>2535.4</ele>
        <time>2018-08-11T16:24:10Z</time>
      </trkpt>
      <trkpt lat="4.6256970" lon="-74.2508830">
        <ele>2535.1</ele>
        <time>2018-08-11T16:24:11Z</time>
      </trkpt>
      <trkpt lat="4.6256520" lon="-74.2509080">
        <ele>2534.8</ele>
        <time>2018-08-11T16:24:12Z</time>
      </trkpt>
      <trkpt lat="4.6256070" lon="-74.2509330">
        <ele>2534.5</ele>
        <time>2018-08-11T16:24:13Z</time>
      </trkpt>
      <trkpt lat="4.6255620" lon="-74.2509570">
        <ele>2534.3</ele>
        <time>2018-08-11T16:24:14Z</time>
      </trkpt>
      <trkpt lat="4.6255150" lon="-74.2509780">
        <ele>2534.0</ele>
        <time>2018-08-11T16:24:15Z</time>
      </trkpt>
      <trkpt lat="4.6254700" lon="-74.2510020">
        <ele>2533.9</ele>
        <time>2018-08-11T16:24:16Z</time>
      </trkpt>
      <trkpt lat="4.6254230" lon="-74.2510270">
        <ele>2533.6</ele>
        <time>2018-08-11T16:24:17Z</time>
      </trkpt>
      <trkpt lat="4.6253800" lon="-74.2510520">
        <ele>2533.5</ele>
        <time>2018-08-11T16:24:18Z</time>
      </trkpt>
      <trkpt lat="4.6253370" lon="-74.2510750">
        <ele>2533.4</ele>
        <time>2018-08-11T16:24:19Z</time>
      </trkpt>
      <trkpt lat="4.6252930" lon="-74.2510970">
        <ele>2533.5</ele>
        <time>2018-08-11T16:24:20Z</time>
      </trkpt>
      <trkpt lat="4.6252530" lon="-74.2511200">
        <ele>2533.7</ele>
        <time>2018-08-11T16:24:21Z</time>
      </trkpt>
      <trkpt lat="4.6252120" lon="-74.2511450">
        <ele>2534.1</ele>
        <time>2018-08-11T16:24:22Z</time>
      </trkpt>
      <trkpt lat="4.6251680" lon="-74.2511620">
        <ele>2534.4</ele>
        <time>2018-08-11T16:24:23Z</time>
      </trkpt>
      <trkpt lat="4.6251220" lon="-74.2511830">
        <ele>2534.7</ele>
        <time>2018-08-11T16:24:24Z</time>
      </trkpt>
      <trkpt lat="4.6250750" lon="-74.2512100">
        <ele>2534.8</ele>
        <time>2018-08-11T16:24:25Z</time>
      </trkpt>
      <trkpt lat="4.6250320" lon="-74.2512350">
        <ele>2534.8</ele>
        <time>2018-08-11T16:24:26Z</time>
      </trkpt>
      <trkpt lat="4.6249870" lon="-74.2512620">
        <ele>2534.7</ele>
        <time>2018-08-11T16:24:27Z</time>
      </trkpt>
      <trkpt lat="4.6249400" lon="-74.2512870">
        <ele>2534.7</ele>
        <time>2018-08-11T16:24:28Z</time>
      </trkpt>
      <trkpt lat="4.6248930" lon="-74.2513130">
        <ele>2534.7</ele>
        <time>2018-08-11T16:24:29Z</time>
      </trkpt>
      <trkpt lat="4.6248470" lon="-74.2513380">
        <ele>2534.7</ele>
        <time>2018-08-11T16:24:30Z</time>
      </trkpt>
      <trkpt lat="4.6248000" lon="-74.2513670">
        <ele>2534.8</ele>
        <time>2018-08-11T16:24:31Z</time>
      </trkpt>
      <trkpt lat="4.6247520" lon="-74.2513950">
        <ele>2534.8</ele>
        <time>2018-08-11T16:24:32Z</time>
      </trkpt>
      <trkpt lat="4.6247020" lon="-74.2514230">
        <ele>2534.9</ele>
        <time>2018-08-11T16:24:33Z</time>
      </trkpt>
      <trkpt lat="4.6246500" lon="-74.2514520">
        <ele>2534.9</ele>
        <time>2018-08-11T16:24:34Z</time>
      </trkpt>
      <trkpt lat="4.6245970" lon="-74.2514800">
        <ele>2534.7</ele>
        <time>2018-08-11T16:24:35Z</time>
      </trkpt>
      <trkpt lat="4.6245420" lon="-74.2515080">
        <ele>2534.7</ele>
        <time>2018-08-11T16:24:36Z</time>
      </trkpt>
      <trkpt lat="4.6244870" lon="-74.2515370">
        <ele>2535.2</ele>
        <time>2018-08-11T16:24:37Z</time>
      </trkpt>
      <trkpt lat="4.6244320" lon="-74.2515650">
        <ele>2535.6</ele>
        <time>2018-08-11T16:24:38Z</time>
      </trkpt>
      <trkpt lat="4.6243780" lon="-74.2515950">
        <ele>2536.5</ele>
        <time>2018-08-11T16:24:39Z</time>
      </trkpt>
      <trkpt lat="4.6243230" lon="-74.2516250">
        <ele>2536.8</ele>
        <time>2018-08-11T16:24:40Z</time>
      </trkpt>
      <trkpt lat="4.6242670" lon="-74.2516550">
        <ele>2537.2</ele>
        <time>2018-08-11T16:24:41Z</time>
      </trkpt>
      <trkpt lat="4.6242100" lon="-74.2516820">
        <ele>2537.1</ele>
        <time>2018-08-11T16:24:42Z</time>
      </trkpt>
      <trkpt lat="4.6241530" lon="-74.2517100">
        <ele>2537.1</ele>
        <time>2018-08-11T16:24:43Z</time>
      </trkpt>
      <trkpt lat="4.6240970" lon="-74.2517420">
        <ele>2537.4</ele>
        <time>2018-08-11T16:24:44Z</time>
      </trkpt>
      <trkpt lat="4.6240400" lon="-74.2517720">
        <ele>2537.2</ele>
        <time>2018-08-11T16:24:45Z</time>
      </trkpt>
      <trkpt lat="4.6239830" lon="-74.2518030">
        <ele>2537.6</ele>
        <time>2018-08-11T16:24:46Z</time>
      </trkpt>
      <trkpt lat="4.6239230" lon="-74.2518350">
        <ele>2537.7</ele>
        <time>2018-08-11T16:24:47Z</time>
      </trkpt>
      <trkpt lat="4.6238630" lon="-74.2518680">
        <ele>2538.4</ele>
        <time>2018-08-11T16:24:48Z</time>
      </trkpt>
      <trkpt lat="4.6238030" lon="-74.2519000">
        <ele>2538.2</ele>
        <time>2018-08-11T16:24:49Z</time>
      </trkpt>
      <trkpt lat="4.6237430" lon="-74.2519300">
        <ele>2538.0</ele>
        <time>2018-08-11T16:24:50Z</time>
      </trkpt>
      <trkpt lat="4.6236850" lon="-74.2519600">
        <ele>2538.1</ele>
        <time>2018-08-11T16:24:51Z</time>
      </trkpt>
      <trkpt lat="4.6236270" lon="-74.2519900">
        <ele>2538.4</ele>
        <time>2018-08-11T16:24:52Z</time>
      </trkpt>
      <trkpt lat="4.6235680" lon="-74.2520220">
        <ele>2538.0</ele>
        <time>2018-08-11T16:24:53Z</time>
      </trkpt>
      <trkpt lat="4.6235070" lon="-74.2520480">
        <ele>2537.8</ele>
        <time>2018-08-11T16:24:54Z</time>
      </trkpt>
      <trkpt lat="4.6234470" lon="-74.2520770">
        <ele>2538.1</ele>
        <time>2018-08-11T16:24:55Z</time>
      </trkpt>
      <trkpt lat="4.6233850" lon="-74.2521070">
        <ele>2538.3</ele>
        <time>2018-08-11T16:24:56Z</time>
      </trkpt>
      <trkpt lat="4.6233220" lon="-74.2521350">
        <ele>2538.1</ele>
        <time>2018-08-11T16:24:57Z</time>
      </trkpt>
      <trkpt lat="4.6232630" lon="-74.2521670">
        <ele>2538.7</ele>
        <time>2018-08-11T16:24:58Z</time>
      </trkpt>
      <trkpt lat="4.6232030" lon="-74.2521970">
        <ele>2538.2</ele>
        <time>2018-08-11T16:24:59Z</time>
      </trkpt>
      <trkpt lat="4.6231450" lon="-74.2522280">
        <ele>2537.5</ele>
        <time>2018-08-11T16:25:00Z</time>
      </trkpt>
      <trkpt lat="4.6230920" lon="-74.2522570">
        <ele>2537.5</ele>
        <time>2018-08-11T16:25:01Z</time>
      </trkpt>
      <trkpt lat="4.6230350" lon="-74.2522830">
        <ele>2537.0</ele>
        <time>2018-08-11T16:25:02Z</time>
      </trkpt>
      <trkpt lat="4.6229770" lon="-74.2523120">
        <ele>2536.7</ele>
        <time>2018-08-11T16:25:03Z</time>
      </trkpt>
      <trkpt lat="4.6229200" lon="-74.2523420">
        <ele>2537.1</ele>
        <time>2018-08-11T16:25:04Z</time>
      </trkpt>
      <trkpt lat="4.6228670" lon="-74.2523680">
        <ele>2537.0</ele>
        <time>2018-08-11T16:25:05Z</time>
      </trkpt>
      <trkpt lat="4.6228100" lon="-74.2523970">
        <ele>2536.7</ele>
        <time>2018-08-11T16:25:06Z</time>
      </trkpt>
      <trkpt lat="4.6227530" lon="-74.2524230">
        <ele>2536.7</ele>
        <time>2018-08-11T16:25:07Z</time>
      </trkpt>
      <trkpt lat="4.6226980" lon="-74.2524520">
        <ele>2536.4</ele>
        <time>2018-08-11T16:25:08Z</time>
      </trkpt>
      <trkpt lat="4.6226450" lon="-74.2524820">
        <ele>2536.2</ele>
        <time>2018-08-11T16:25:09Z</time>
      </trkpt>
      <trkpt lat="4.6225880" lon="-74.2525120">
        <ele>2536.1</ele>
        <time>2018-08-11T16:25:10Z</time>
      </trkpt>
      <trkpt lat="4.6225330" lon="-74.2525430">
        <ele>2535.8</ele>
        <time>2018-08-11T16:25:11Z</time>
      </trkpt>
      <trkpt lat="4.6224780" lon="-74.2525750">
        <ele>2535.9</ele>
        <time>2018-08-11T16:25:12Z</time>
      </trkpt>
      <trkpt lat="4.6224220" lon="-74.2526050">
        <ele>2536.4</ele>
        <time>2018-08-11T16:25:13Z</time>
      </trkpt>
      <trkpt lat="4.6223670" lon="-74.2526370">
        <ele>2537.2</ele>
        <time>2018-08-11T16:25:14Z</time>
      </trkpt>
      <trkpt lat="4.6223130" lon="-74.2526680">
        <ele>2537.9</ele>
        <time>2018-08-11T16:25:15Z</time>
      </trkpt>
      <trkpt lat="4.6222580" lon="-74.2526980">
        <ele>2538.4</ele>
        <time>2018-08-11T16:25:16Z</time>
      </trkpt>
      <trkpt lat="4.6222020" lon="-74.2527320">
        <ele>2538.6</ele>
        <time>2018-08-11T16:25:17Z</time>
      </trkpt>
      <trkpt lat="4.6221450" lon="-74.2527620">
        <ele>2539.1</ele>
        <time>2018-08-11T16:25:18Z</time>
      </trkpt>
      <trkpt lat="4.6220880" lon="-74.2527870">
        <ele>2539.2</ele>
        <time>2018-08-11T16:25:19Z</time>
      </trkpt>
      <trkpt lat="4.6220330" lon="-74.2528150">
        <ele>2539.3</ele>
        <time>2018-08-11T16:25:20Z</time>
      </trkpt>
      <trkpt lat="4.6219780" lon="-74.2528470">
        <ele>2539.1</ele>
        <time>2018-08-11T16:25:21Z</time>
      </trkpt>
      <trkpt lat="4.6219280" lon="-74.2528750">
        <ele>2538.8</ele>
        <time>2018-08-11T16:25:22Z</time>
      </trkpt>
      <trkpt lat="4.6218730" lon="-74.2529050">
        <ele>2538.6</ele>
        <time>2018-08-11T16:25:23Z</time>
      </trkpt>
      <trkpt lat="4.6218220" lon="-74.2529330">
        <ele>2538.7</ele>
        <time>2018-08-11T16:25:24Z</time>
      </trkpt>
      <trkpt lat="4.6217800" lon="-74.2529620">
        <ele>2538.7</ele>
        <time>2018-08-11T16:25:25Z</time>
      </trkpt>
      <trkpt lat="4.6217270" lon="-74.2529870">
        <ele>2538.5</ele>
        <time>2018-08-11T16:25:26Z</time>
      </trkpt>
      <trkpt lat="4.6216720" lon="-74.2530170">
        <ele>2538.8</ele>
        <time>2018-08-11T16:25:27Z</time>
      </trkpt>
      <trkpt lat="4.6216180" lon="-74.2530450">
        <ele>2538.4</ele>
        <time>2018-08-11T16:25:28Z</time>
      </trkpt>
      <trkpt lat="4.6215620" lon="-74.2530680">
        <ele>2538.6</ele>
        <time>2018-08-11T16:25:29Z</time>
      </trkpt>
      <trkpt lat="4.6215080" lon="-74.2530970">
        <ele>2538.6</ele>
        <time>2018-08-11T16:25:30Z</time>
      </trkpt>
      <trkpt lat="4.6214550" lon="-74.2531230">
        <ele>2538.3</ele>
        <time>2018-08-11T16:25:31Z</time>
      </trkpt>
      <trkpt lat="4.6214020" lon="-74.2531550">
        <ele>2538.9</ele>
        <time>2018-08-11T16:25:32Z</time>
      </trkpt>
      <trkpt lat="4.6213480" lon="-74.2531820">
        <ele>2538.7</ele>
        <time>2018-08-11T16:25:33Z</time>
      </trkpt>
      <trkpt lat="4.6212930" lon="-74.2532080">
        <ele>2539.0</ele>
        <time>2018-08-11T16:25:34Z</time>
      </trkpt>
      <trkpt lat="4.6212400" lon="-74.2532370">
        <ele>2539.5</ele>
        <time>2018-08-11T16:25:35Z</time>
      </trkpt>
      <trkpt lat="4.6211870" lon="-74.2532670">
        <ele>2539.2</ele>
        <time>2018-08-11T16:25:36Z</time>
      </trkpt>
      <trkpt lat="4.6211320" lon="-74.2532980">
        <ele>2538.8</ele>
        <time>2018-08-11T16:25:37Z</time>
      </trkpt>
      <trkpt lat="4.6210780" lon="-74.2533280">
        <ele>2539.4</ele>
        <time>2018-08-11T16:25:38Z</time>
      </trkpt>
      <trkpt lat="4.6210270" lon="-74.2533580">
        <ele>2538.9</ele>
        <time>2018-08-11T16:25:39Z</time>
      </trkpt>
      <trkpt lat="4.6209730" lon="-74.2533870">
        <ele>2538.3</ele>
        <time>2018-08-11T16:25:40Z</time>
      </trkpt>
      <trkpt lat="4.6209200" lon="-74.2534150">
        <ele>2538.5</ele>
        <time>2018-08-11T16:25:41Z</time>
      </trkpt>
      <trkpt lat="4.6208680" lon="-74.2534450">
        <ele>2538.1</ele>
        <time>2018-08-11T16:25:42Z</time>
      </trkpt>
      <trkpt lat="4.6208180" lon="-74.2534730">
        <ele>2537.4</ele>
        <time>2018-08-11T16:25:43Z</time>
      </trkpt>
      <trkpt lat="4.6207670" lon="-74.2535020">
        <ele>2537.0</ele>
        <time>2018-08-11T16:25:44Z</time>
      </trkpt>
      <trkpt lat="4.6207150" lon="-74.2535320">
        <ele>2537.8</ele>
        <time>2018-08-11T16:25:45Z</time>
      </trkpt>
      <trkpt lat="4.6206630" lon="-74.2535580">
        <ele>2537.7</ele>
        <time>2018-08-11T16:25:46Z</time>
      </trkpt>
      <trkpt lat="4.6206130" lon="-74.2535850">
        <ele>2539.0</ele>
        <time>2018-08-11T16:25:47Z</time>
      </trkpt>
      <trkpt lat="4.6205600" lon="-74.2536100">
        <ele>2538.7</ele>
        <time>2018-08-11T16:25:48Z</time>
      </trkpt>
      <trkpt lat="4.6205070" lon="-74.2536350">
        <ele>2538.6</ele>
        <time>2018-08-11T16:25:49Z</time>
      </trkpt>
      <trkpt lat="4.6204550" lon="-74.2536630">
        <ele>2539.2</ele>
        <time>2018-08-11T16:25:50Z</time>
      </trkpt>
      <trkpt lat="4.6204020" lon="-74.2536930">
        <ele>2539.4</ele>
        <time>2018-08-11T16:25:51Z</time>
      </trkpt>
      <trkpt lat="4.6203500" lon="-74.2537220">
        <ele>2539.8</ele>
        <time>2018-08-11T16:25:52Z</time>
      </trkpt>
      <trkpt lat="4.6202980" lon="-74.2537520">
        <ele>2540.2</ele>
        <time>2018-08-11T16:25:53Z</time>
      </trkpt>
      <trkpt lat="4.6202450" lon="-74.2537780">
        <ele>2540.2</ele>
        <time>2018-08-11T16:25:54Z</time>
      </trkpt>
      <trkpt lat="4.6201920" lon="-74.2538070">
        <ele>2540.8</ele>
        <time>2018-08-11T16:25:55Z</time>
      </trkpt>
      <trkpt lat="4.6201330" lon="-74.2538350">
        <ele>2541.6</ele>
        <time>2018-08-11T16:25:56Z</time>
      </trkpt>
      <trkpt lat="4.6200780" lon="-74.2538630">
        <ele>2541.3</ele>
        <time>2018-08-11T16:25:57Z</time>
      </trkpt>
      <trkpt lat="4.6200250" lon="-74.2538920">
        <ele>2540.8</ele>
        <time>2018-08-11T16:25:58Z</time>
      </trkpt>
      <trkpt lat="4.6199720" lon="-74.2539180">
        <ele>2541.5</ele>
        <time>2018-08-11T16:25:59Z</time>
      </trkpt>
      <trkpt lat="4.6199170" lon="-74.2539470">
        <ele>2541.4</ele>
        <time>2018-08-11T16:26:00Z</time>
      </trkpt>
      <trkpt lat="4.6198620" lon="-74.2539750">
        <ele>2541.5</ele>
        <time>2018-08-11T16:26:01Z</time>
      </trkpt>
      <trkpt lat="4.6198070" lon="-74.2540050">
        <ele>2542.1</ele>
        <time>2018-08-11T16:26:02Z</time>
      </trkpt>
      <trkpt lat="4.6197480" lon="-74.2540350">
        <ele>2542.3</ele>
        <time>2018-08-11T16:26:03Z</time>
      </trkpt>
      <trkpt lat="4.6196900" lon="-74.2540630">
        <ele>2541.6</ele>
        <time>2018-08-11T16:26:04Z</time>
      </trkpt>
      <trkpt lat="4.6196320" lon="-74.2540930">
        <ele>2541.4</ele>
        <time>2018-08-11T16:26:05Z</time>
      </trkpt>
      <trkpt lat="4.6195720" lon="-74.2541270">
        <ele>2539.9</ele>
        <time>2018-08-11T16:26:06Z</time>
      </trkpt>
      <trkpt lat="4.6195150" lon="-74.2541600">
        <ele>2538.6</ele>
        <time>2018-08-11T16:26:07Z</time>
      </trkpt>
      <trkpt lat="4.6194570" lon="-74.2541900">
        <ele>2537.5</ele>
        <time>2018-08-11T16:26:08Z</time>
      </trkpt>
      <trkpt lat="4.6193970" lon="-74.2542220">
        <ele>2537.7</ele>
        <time>2018-08-11T16:26:09Z</time>
      </trkpt>
      <trkpt lat="4.6193370" lon="-74.2542520">
        <ele>2537.5</ele>
        <time>2018-08-11T16:26:10Z</time>
      </trkpt>
      <trkpt lat="4.6192770" lon="-74.2542820">
        <ele>2538.0</ele>
        <time>2018-08-11T16:26:11Z</time>
      </trkpt>
      <trkpt lat="4.6192170" lon="-74.2543130">
        <ele>2538.6</ele>
        <time>2018-08-11T16:26:12Z</time>
      </trkpt>
      <trkpt lat="4.6191580" lon="-74.2543430">
        <ele>2540.0</ele>
        <time>2018-08-11T16:26:13Z</time>
      </trkpt>
      <trkpt lat="4.6191000" lon="-74.2543770">
        <ele>2540.7</ele>
        <time>2018-08-11T16:26:14Z</time>
      </trkpt>
      <trkpt lat="4.6190430" lon="-74.2544100">
        <ele>2541.3</ele>
        <time>2018-08-11T16:26:15Z</time>
      </trkpt>
      <trkpt lat="4.6189870" lon="-74.2544400">
        <ele>2543.0</ele>
        <time>2018-08-11T16:26:16Z</time>
      </trkpt>
      <trkpt lat="4.6189320" lon="-74.2544700">
        <ele>2543.2</ele>
        <time>2018-08-11T16:26:17Z</time>
      </trkpt>
      <trkpt lat="4.6188770" lon="-74.2545000">
        <ele>2543.4</ele>
        <time>2018-08-11T16:26:18Z</time>
      </trkpt>
      <trkpt lat="4.6188220" lon="-74.2545280">
        <ele>2544.1</ele>
        <time>2018-08-11T16:26:19Z</time>
      </trkpt>
      <trkpt lat="4.6187650" lon="-74.2545580">
        <ele>2544.4</ele>
        <time>2018-08-11T16:26:20Z</time>
      </trkpt>
      <trkpt lat="4.6187120" lon="-74.2545870">
        <ele>2543.8</ele>
        <time>2018-08-11T16:26:21Z</time>
      </trkpt>
      <trkpt lat="4.6186550" lon="-74.2546170">
        <ele>2544.0</ele>
        <time>2018-08-11T16:26:22Z</time>
      </trkpt>
      <trkpt lat="4.6185980" lon="-74.2546430">
        <ele>2543.7</ele>
        <time>2018-08-11T16:26:23Z</time>
      </trkpt>
      <trkpt lat="4.6185430" lon="-74.2546700">
        <ele>2543.1</ele>
        <time>2018-08-11T16:26:24Z</time>
      </trkpt>
      <trkpt lat="4.6184880" lon="-74.2546980">
        <ele>2543.6</ele>
        <time>2018-08-11T16:26:25Z</time>
      </trkpt>
      <trkpt lat="4.6184320" lon="-74.2547270">
        <ele>2543.3</ele>
        <time>2018-08-11T16:26:26Z</time>
      </trkpt>
      <trkpt lat="4.6183750" lon="-74.2547530">
        <ele>2542.5</ele>
        <time>2018-08-11T16:26:27Z</time>
      </trkpt>
      <trkpt lat="4.6183230" lon="-74.2547820">
        <ele>2543.0</ele>
        <time>2018-08-11T16:26:28Z</time>
      </trkpt>
      <trkpt lat="4.6182700" lon="-74.2548080">
        <ele>2542.2</ele>
        <time>2018-08-11T16:26:29Z</time>
      </trkpt>
      <trkpt lat="4.6182150" lon="-74.2548380">
        <ele>2541.9</ele>
        <time>2018-08-11T16:26:30Z</time>
      </trkpt>
      <trkpt lat="4.6181570" lon="-74.2548680">
        <ele>2542.2</ele>
        <time>2018-08-11T16:26:31Z</time>
      </trkpt>
      <trkpt lat="4.6181000" lon="-74.2548980">
        <ele>2541.1</ele>
        <time>2018-08-11T16:26:32Z</time>
      </trkpt>
      <trkpt lat="4.6180420" lon="-74.2549300">
        <ele>2540.1</ele>
        <time>2018-08-11T16:26:33Z</time>
      </trkpt>
      <trkpt lat="4.6179830" lon="-74.2549600">
        <ele>2540.2</ele>
        <time>2018-08-11T16:26:34Z</time>
      </trkpt>
      <trkpt lat="4.6179280" lon="-74.2549880">
        <ele>2539.4</ele>
        <time>2018-08-11T16:26:35Z</time>
      </trkpt>
      <trkpt lat="4.6178750" lon="-74.2550180">
        <ele>2539.2</ele>
        <time>2018-08-11T16:26:36Z</time>
      </trkpt>
      <trkpt lat="4.6178200" lon="-74.2550480">
        <ele>2539.1</ele>
        <time>2018-08-11T16:26:37Z</time>
      </trkpt>
      <trkpt lat="4.6177670" lon="-74.2550780">
        <ele>2539.7</ele>
        <time>2018-08-11T16:26:38Z</time>
      </trkpt>
      <trkpt lat="4.6177150" lon="-74.2551080">
        <ele>2539.6</ele>
        <time>2018-08-11T16:26:39Z</time>
      </trkpt>
      <trkpt lat="4.6176600" lon="-74.2551370">
        <ele>2540.0</ele>
        <time>2018-08-11T16:26:40Z</time>
      </trkpt>
      <trkpt lat="4.6176030" lon="-74.2551670">
        <ele>2540.4</ele>
        <time>2018-08-11T16:26:41Z</time>
      </trkpt>
      <trkpt lat="4.6175470" lon="-74.2551950">
        <ele>2540.5</ele>
        <time>2018-08-11T16:26:42Z</time>
      </trkpt>
      <trkpt lat="4.6174920" lon="-74.2552270">
        <ele>2540.4</ele>
        <time>2018-08-11T16:26:43Z</time>
      </trkpt>
      <trkpt lat="4.6174380" lon="-74.2552570">
        <ele>2541.1</ele>
        <time>2018-08-11T16:26:44Z</time>
      </trkpt>
      <trkpt lat="4.6173850" lon="-74.2552870">
        <ele>2540.3</ele>
        <time>2018-08-11T16:26:45Z</time>
      </trkpt>
      <trkpt lat="4.6173320" lon="-74.2553150">
        <ele>2539.5</ele>
        <time>2018-08-11T16:26:46Z</time>
      </trkpt>
      <trkpt lat="4.6172780" lon="-74.2553430">
        <ele>2539.5</ele>
        <time>2018-08-11T16:26:47Z</time>
      </trkpt>
      <trkpt lat="4.6172250" lon="-74.2553700">
        <ele>2538.5</ele>
        <time>2018-08-11T16:26:48Z</time>
      </trkpt>
      <trkpt lat="4.6171720" lon="-74.2553980">
        <ele>2537.7</ele>
        <time>2018-08-11T16:26:49Z</time>
      </trkpt>
      <trkpt lat="4.6171180" lon="-74.2554270">
        <ele>2538.0</ele>
        <time>2018-08-11T16:26:50Z</time>
      </trkpt>
      <trkpt lat="4.6170650" lon="-74.2554530">
        <ele>2537.4</ele>
        <time>2018-08-11T16:26:51Z</time>
      </trkpt>
      <trkpt lat="4.6170120" lon="-74.2554820">
        <ele>2536.9</ele>
        <time>2018-08-11T16:26:52Z</time>
      </trkpt>
      <trkpt lat="4.6169580" lon="-74.2555120">
        <ele>2537.2</ele>
        <time>2018-08-11T16:26:53Z</time>
      </trkpt>
      <trkpt lat="4.6169050" lon="-74.2555420">
        <ele>2536.7</ele>
        <time>2018-08-11T16:26:54Z</time>
      </trkpt>
      <trkpt lat="4.6168530" lon="-74.2555700">
        <ele>2536.7</ele>
        <time>2018-08-11T16:26:55Z</time>
      </trkpt>
      <trkpt lat="4.6168020" lon="-74.2556000">
        <ele>2538.0</ele>
        <time>2018-08-11T16:26:56Z</time>
      </trkpt>
      <trkpt lat="4.6167500" lon="-74.2556280">
        <ele>2538.6</ele>
        <time>2018-08-11T16:26:57Z</time>
      </trkpt>
      <trkpt lat="4.6166920" lon="-74.2556550">
        <ele>2539.2</ele>
        <time>2018-08-11T16:26:58Z</time>
      </trkpt>
      <trkpt lat="4.6166350" lon="-74.2556800">
        <ele>2541.3</ele>
        <time>2018-08-11T16:26:59Z</time>
      </trkpt>
      <trkpt lat="4.6165780" lon="-74.2557070">
        <ele>2541.7</ele>
        <time>2018-08-11T16:27:00Z</time>
      </trkpt>
      <trkpt lat="4.6165250" lon="-74.2557350">
        <ele>2541.7</ele>
        <time>2018-08-11T16:27:01Z</time>
      </trkpt>
      <trkpt lat="4.6164720" lon="-74.2557630">
        <ele>2542.3</ele>
        <time>2018-08-11T16:27:02Z</time>
      </trkpt>
      <trkpt lat="4.6164180" lon="-74.2557920">
        <ele>2542.2</ele>
        <time>2018-08-11T16:27:03Z</time>
      </trkpt>
      <trkpt lat="4.6163680" lon="-74.2558180">
        <ele>2542.7</ele>
        <time>2018-08-11T16:27:04Z</time>
      </trkpt>
      <trkpt lat="4.6163170" lon="-74.2558470">
        <ele>2542.5</ele>
        <time>2018-08-11T16:27:05Z</time>
      </trkpt>
      <trkpt lat="4.6162670" lon="-74.2558770">
        <ele>2542.3</ele>
        <time>2018-08-11T16:27:06Z</time>
      </trkpt>
      <trkpt lat="4.6162180" lon="-74.2559020">
        <ele>2542.8</ele>
        <time>2018-08-11T16:27:07Z</time>
      </trkpt>
      <trkpt lat="4.6161680" lon="-74.2559270">
        <ele>2542.4</ele>
        <time>2018-08-11T16:27:08Z</time>
      </trkpt>
      <trkpt lat="4.6161170" lon="-74.2559530">
        <ele>2542.6</ele>
        <time>2018-08-11T16:27:09Z</time>
      </trkpt>
      <trkpt lat="4.6160680" lon="-74.2559800">
        <ele>2542.9</ele>
        <time>2018-08-11T16:27:10Z</time>
      </trkpt>
      <trkpt lat="4.6160200" lon="-74.2560070">
        <ele>2542.8</ele>
        <time>2018-08-11T16:27:11Z</time>
      </trkpt>
      <trkpt lat="4.6159700" lon="-74.2560350">
        <ele>2542.5</ele>
        <time>2018-08-11T16:27:12Z</time>
      </trkpt>
      <trkpt lat="4.6159180" lon="-74.2560630">
        <ele>2542.8</ele>
        <time>2018-08-11T16:27:13Z</time>
      </trkpt>
      <trkpt lat="4.6158680" lon="-74.2560920">
        <ele>2543.0</ele>
        <time>2018-08-11T16:27:14Z</time>
      </trkpt>
      <trkpt lat="4.6158200" lon="-74.2561200">
        <ele>2544.2</ele>
        <time>2018-08-11T16:27:15Z</time>
      </trkpt>
      <trkpt lat="4.6157700" lon="-74.2561480">
        <ele>2544.9</ele>
        <time>2018-08-11T16:27:16Z</time>
      </trkpt>
      <trkpt lat="4.6157200" lon="-74.2561750">
        <ele>2545.3</ele>
        <time>2018-08-11T16:27:17Z</time>
      </trkpt>
      <trkpt lat="4.6156680" lon="-74.2562020">
        <ele>2546.1</ele>
        <time>2018-08-11T16:27:18Z</time>
      </trkpt>
      <trkpt lat="4.6156170" lon="-74.2562280">
        <ele>2546.2</ele>
        <time>2018-08-11T16:27:19Z</time>
      </trkpt>
      <trkpt lat="4.6155650" lon="-74.2562550">
        <ele>2546.2</ele>
        <time>2018-08-11T16:27:20Z</time>
      </trkpt>
      <trkpt lat="4.6155130" lon="-74.2562800">
        <ele>2546.1</ele>
        <time>2018-08-11T16:27:21Z</time>
      </trkpt>
      <trkpt lat="4.6154620" lon="-74.2563070">
        <ele>2545.3</ele>
        <time>2018-08-11T16:27:22Z</time>
      </trkpt>
      <trkpt lat="4.6154100" lon="-74.2563330">
        <ele>2545.2</ele>
        <time>2018-08-11T16:27:23Z</time>
      </trkpt>
      <trkpt lat="4.6153580" lon="-74.2563620">
        <ele>2544.6</ele>
        <time>2018-08-11T16:27:24Z</time>
      </trkpt>
      <trkpt lat="4.6153080" lon="-74.2563880">
        <ele>2544.6</ele>
        <time>2018-08-11T16:27:25Z</time>
      </trkpt>
      <trkpt lat="4.6152570" lon="-74.2564150">
        <ele>2544.9</ele>
        <time>2018-08-11T16:27:26Z</time>
      </trkpt>
      <trkpt lat="4.6152050" lon="-74.2564450">
        <ele>2545.0</ele>
        <time>2018-08-11T16:27:27Z</time>
      </trkpt>
      <trkpt lat="4.6151530" lon="-74.2564750">
        <ele>2545.2</ele>
        <time>2018-08-11T16:27:28Z</time>
      </trkpt>
      <trkpt lat="4.6150980" lon="-74.2565020">
        <ele>2545.4</ele>
        <time>2018-08-11T16:27:29Z</time>
      </trkpt>
      <trkpt lat="4.6150430" lon="-74.2565320">
        <ele>2545.5</ele>
        <time>2018-08-11T16:27:30Z</time>
      </trkpt>
      <trkpt lat="4.6149900" lon="-74.2565580">
        <ele>2545.7</ele>
        <time>2018-08-11T16:27:31Z</time>
      </trkpt>
      <trkpt lat="4.6149370" lon="-74.2565870">
        <ele>2546.2</ele>
        <time>2018-08-11T16:27:32Z</time>
      </trkpt>
      <trkpt lat="4.6148880" lon="-74.2566180">
        <ele>2546.2</ele>
        <time>2018-08-11T16:27:33Z</time>
      </trkpt>
      <trkpt lat="4.6148380" lon="-74.2566470">
        <ele>2545.9</ele>
        <time>2018-08-11T16:27:34Z</time>
      </trkpt>
      <trkpt lat="4.6147880" lon="-74.2566780">
        <ele>2544.9</ele>
        <time>2018-08-11T16:27:35Z</time>
      </trkpt>
      <trkpt lat="4.6147350" lon="-74.2567050">
        <ele>2544.6</ele>
        <time>2018-08-11T16:27:36Z</time>
      </trkpt>
      <trkpt lat="4.6146820" lon="-74.2567320">
        <ele>2543.2</ele>
        <time>2018-08-11T16:27:37Z</time>
      </trkpt>
      <trkpt lat="4.6146280" lon="-74.2567570">
        <ele>2542.7</ele>
        <time>2018-08-11T16:27:38Z</time>
      </trkpt>
      <trkpt lat="4.6145780" lon="-74.2567850">
        <ele>2540.2</ele>
        <time>2018-08-11T16:27:39Z</time>
      </trkpt>
      <trkpt lat="4.6145270" lon="-74.2568130">
        <ele>2538.3</ele>
        <time>2018-08-11T16:27:40Z</time>
      </trkpt>
      <trkpt lat="4.6144730" lon="-74.2568420">
        <ele>2537.8</ele>
        <time>2018-08-11T16:27:41Z</time>
      </trkpt>
      <trkpt lat="4.6144200" lon="-74.2568680">
        <ele>2536.5</ele>
        <time>2018-08-11T16:27:42Z</time>
      </trkpt>
      <trkpt lat="4.6143650" lon="-74.2568970">
        <ele>2535.9</ele>
        <time>2018-08-11T16:27:43Z</time>
      </trkpt>
      <trkpt lat="4.6143100" lon="-74.2569270">
        <ele>2536.6</ele>
        <time>2018-08-11T16:27:44Z</time>
      </trkpt>
      <trkpt lat="4.6142550" lon="-74.2569570">
        <ele>2536.9</ele>
        <time>2018-08-11T16:27:45Z</time>
      </trkpt>
      <trkpt lat="4.6142020" lon="-74.2569870">
        <ele>2537.7</ele>
        <time>2018-08-11T16:27:46Z</time>
      </trkpt>
      <trkpt lat="4.6141450" lon="-74.2570170">
        <ele>2540.4</ele>
        <time>2018-08-11T16:27:47Z</time>
      </trkpt>
      <trkpt lat="4.6140900" lon="-74.2570480">
        <ele>2541.1</ele>
        <time>2018-08-11T16:27:48Z</time>
      </trkpt>
      <trkpt lat="4.6140350" lon="-74.2570780">
        <ele>2541.7</ele>
        <time>2018-08-11T16:27:49Z</time>
      </trkpt>
      <trkpt lat="4.6139780" lon="-74.2571080">
        <ele>2543.0</ele>
        <time>2018-08-11T16:27:50Z</time>
      </trkpt>
      <trkpt lat="4.6139220" lon="-74.2571400">
        <ele>2543.7</ele>
        <time>2018-08-11T16:27:51Z</time>
      </trkpt>
      <trkpt lat="4.6138650" lon="-74.2571720">
        <ele>2543.4</ele>
        <time>2018-08-11T16:27:52Z</time>
      </trkpt>
      <trkpt lat="4.6138070" lon="-74.2572030">
        <ele>2543.1</ele>
        <time>2018-08-11T16:27:53Z</time>
      </trkpt>
      <trkpt lat="4.6137500" lon="-74.2572330">
        <ele>2543.3</ele>
        <time>2018-08-11T16:27:54Z</time>
      </trkpt>
      <trkpt lat="4.6136950" lon="-74.2572630">
        <ele>2542.5</ele>
        <time>2018-08-11T16:27:55Z</time>
      </trkpt>
      <trkpt lat="4.6136420" lon="-74.2572930">
        <ele>2541.3</ele>
        <time>2018-08-11T16:27:56Z</time>
      </trkpt>
      <trkpt lat="4.6135880" lon="-74.2573220">
        <ele>2539.3</ele>
        <time>2018-08-11T16:27:57Z</time>
      </trkpt>
      <trkpt lat="4.6135350" lon="-74.2573480">
        <ele>2538.8</ele>
        <time>2018-08-11T16:27:58Z</time>
      </trkpt>
      <trkpt lat="4.6134800" lon="-74.2573770">
        <ele>2537.2</ele>
        <time>2018-08-11T16:27:59Z</time>
      </trkpt>
      <trkpt lat="4.6134250" lon="-74.2574030">
        <ele>2536.9</ele>
        <time>2018-08-11T16:28:00Z</time>
      </trkpt>
      <trkpt lat="4.6133730" lon="-74.2574300">
        <ele>2536.4</ele>
        <time>2018-08-11T16:28:01Z</time>
      </trkpt>
      <trkpt lat="4.6133250" lon="-74.2574530">
        <ele>2536.1</ele>
        <time>2018-08-11T16:28:02Z</time>
      </trkpt>
      <trkpt lat="4.6132750" lon="-74.2574750">
        <ele>2536.4</ele>
        <time>2018-08-11T16:28:03Z</time>
      </trkpt>
      <trkpt lat="4.6132270" lon="-74.2575000">
        <ele>2536.2</ele>
        <time>2018-08-11T16:28:04Z</time>
      </trkpt>
      <trkpt lat="4.6131780" lon="-74.2575230">
        <ele>2536.4</ele>
        <time>2018-08-11T16:28:05Z</time>
      </trkpt>
      <trkpt lat="4.6131300" lon="-74.2575480">
        <ele>2536.3</ele>
        <time>2018-08-11T16:28:06Z</time>
      </trkpt>
      <trkpt lat="4.6130820" lon="-74.2575720">
        <ele>2537.0</ele>
        <time>2018-08-11T16:28:07Z</time>
      </trkpt>
      <trkpt lat="4.6130330" lon="-74.2575970">
        <ele>2537.2</ele>
        <time>2018-08-11T16:28:08Z</time>
      </trkpt>
      <trkpt lat="4.6129850" lon="-74.2576250">
        <ele>2537.6</ele>
        <time>2018-08-11T16:28:09Z</time>
      </trkpt>
      <trkpt lat="4.6129380" lon="-74.2576520">
        <ele>2538.4</ele>
        <time>2018-08-11T16:28:10Z</time>
      </trkpt>
      <trkpt lat="4.6128950" lon="-74.2576770">
        <ele>2538.9</ele>
        <time>2018-08-11T16:28:11Z</time>
      </trkpt>
      <trkpt lat="4.6128550" lon="-74.2577020">
        <ele>2539.7</ele>
        <time>2018-08-11T16:28:12Z</time>
      </trkpt>
      <trkpt lat="4.6128130" lon="-74.2577220">
        <ele>2540.0</ele>
        <time>2018-08-11T16:28:13Z</time>
      </trkpt>
      <trkpt lat="4.6127720" lon="-74.2577450">
        <ele>2540.6</ele>
        <time>2018-08-11T16:28:14Z</time>
      </trkpt>
      <trkpt lat="4.6127300" lon="-74.2577680">
        <ele>2540.6</ele>
        <time>2018-08-11T16:28:15Z</time>
      </trkpt>
      <trkpt lat="4.6126900" lon="-74.2577900">
        <ele>2541.2</ele>
        <time>2018-08-11T16:28:16Z</time>
      </trkpt>
      <trkpt lat="4.6126480" lon="-74.2578080">
        <ele>2541.1</ele>
        <time>2018-08-11T16:28:17Z</time>
      </trkpt>
      <trkpt lat="4.6126070" lon="-74.2578280">
        <ele>2541.6</ele>
        <time>2018-08-11T16:28:18Z</time>
      </trkpt>
      <trkpt lat="4.6125670" lon="-74.2578480">
        <ele>2541.8</ele>
        <time>2018-08-11T16:28:19Z</time>
      </trkpt>
      <trkpt lat="4.6125270" lon="-74.2578670">
        <ele>2542.6</ele>
        <time>2018-08-11T16:28:20Z</time>
      </trkpt>
      <trkpt lat="4.6124880" lon="-74.2578870">
        <ele>2542.2</ele>
        <time>2018-08-11T16:28:21Z</time>
      </trkpt>
      <trkpt lat="4.6124520" lon="-74.2579080">
        <ele>2543.0</ele>
        <time>2018-08-11T16:28:22Z</time>
      </trkpt>
      <trkpt lat="4.6124130" lon="-74.2579280">
        <ele>2543.2</ele>
        <time>2018-08-11T16:28:23Z</time>
      </trkpt>
      <trkpt lat="4.6123720" lon="-74.2579470">
        <ele>2543.8</ele>
        <time>2018-08-11T16:28:24Z</time>
      </trkpt>
      <trkpt lat="4.6123320" lon="-74.2579670">
        <ele>2543.5</ele>
        <time>2018-08-11T16:28:25Z</time>
      </trkpt>
      <trkpt lat="4.6122920" lon="-74.2579900">
        <ele>2543.7</ele>
        <time>2018-08-11T16:28:26Z</time>
      </trkpt>
      <trkpt lat="4.6122520" lon="-74.2580130">
        <ele>2543.0</ele>
        <time>2018-08-11T16:28:27Z</time>
      </trkpt>
      <trkpt lat="4.6122130" lon="-74.2580350">
        <ele>2542.9</ele>
        <time>2018-08-11T16:28:28Z</time>
      </trkpt>
      <trkpt lat="4.6121750" lon="-74.2580550">
        <ele>2542.1</ele>
        <time>2018-08-11T16:28:29Z</time>
      </trkpt>
      <trkpt lat="4.6121370" lon="-74.2580750">
        <ele>2541.7</ele>
        <time>2018-08-11T16:28:30Z</time>
      </trkpt>
      <trkpt lat="4.6120920" lon="-74.2580920">
        <ele>2541.1</ele>
        <time>2018-08-11T16:28:31Z</time>
      </trkpt>
      <trkpt lat="4.6120530" lon="-74.2581100">
        <ele>2541.0</ele>
        <time>2018-08-11T16:28:32Z</time>
      </trkpt>
      <trkpt lat="4.6120170" lon="-74.2581270">
        <ele>2541.0</ele>
        <time>2018-08-11T16:28:33Z</time>
      </trkpt>
      <trkpt lat="4.6119830" lon="-74.2581450">
        <ele>2540.9</ele>
        <time>2018-08-11T16:28:34Z</time>
      </trkpt>
      <trkpt lat="4.6119470" lon="-74.2581650">
        <ele>2540.8</ele>
        <time>2018-08-11T16:28:35Z</time>
      </trkpt>
      <trkpt lat="4.6119100" lon="-74.2581870">
        <ele>2540.7</ele>
        <time>2018-08-11T16:28:36Z</time>
      </trkpt>
      <trkpt lat="4.6118720" lon="-74.2582030">
        <ele>2540.6</ele>
        <time>2018-08-11T16:28:37Z</time>
      </trkpt>
      <trkpt lat="4.6118350" lon="-74.2582230">
        <ele>2540.6</ele>
        <time>2018-08-11T16:28:38Z</time>
      </trkpt>
      <trkpt lat="4.6117980" lon="-74.2582420">
        <ele>2540.6</ele>
        <time>2018-08-11T16:28:39Z</time>
      </trkpt>
      <trkpt lat="4.6117650" lon="-74.2582600">
        <ele>2540.6</ele>
        <time>2018-08-11T16:28:40Z</time>
      </trkpt>
      <trkpt lat="4.6117300" lon="-74.2582780">
        <ele>2540.8</ele>
        <time>2018-08-11T16:28:41Z</time>
      </trkpt>
      <trkpt lat="4.6116950" lon="-74.2582980">
        <ele>2541.0</ele>
        <time>2018-08-11T16:28:42Z</time>
      </trkpt>
      <trkpt lat="4.6116620" lon="-74.2583200">
        <ele>2541.2</ele>
        <time>2018-08-11T16:28:43Z</time>
      </trkpt>
      <trkpt lat="4.6116270" lon="-74.2583380">
        <ele>2541.6</ele>
        <time>2018-08-11T16:28:44Z</time>
      </trkpt>
      <trkpt lat="4.6115930" lon="-74.2583580">
        <ele>2541.6</ele>
        <time>2018-08-11T16:28:45Z</time>
      </trkpt>
      <trkpt lat="4.6115580" lon="-74.2583800">
        <ele>2542.0</ele>
        <time>2018-08-11T16:28:46Z</time>
      </trkpt>
      <trkpt lat="4.6115230" lon="-74.2583970">
        <ele>2542.6</ele>
        <time>2018-08-11T16:28:47Z</time>
      </trkpt>
      <trkpt lat="4.6114870" lon="-74.2584150">
        <ele>2543.2</ele>
        <time>2018-08-11T16:28:48Z</time>
      </trkpt>
      <trkpt lat="4.6114530" lon="-74.2584330">
        <ele>2543.7</ele>
        <time>2018-08-11T16:28:49Z</time>
      </trkpt>
      <trkpt lat="4.6114150" lon="-74.2584530">
        <ele>2544.4</ele>
        <time>2018-08-11T16:28:50Z</time>
      </trkpt>
      <trkpt lat="4.6113750" lon="-74.2584750">
        <ele>2544.4</ele>
        <time>2018-08-11T16:28:51Z</time>
      </trkpt>
      <trkpt lat="4.6113370" lon="-74.2584970">
        <ele>2544.8</ele>
        <time>2018-08-11T16:28:52Z</time>
      </trkpt>
      <trkpt lat="4.6112980" lon="-74.2585180">
        <ele>2544.9</ele>
        <time>2018-08-11T16:28:53Z</time>
      </trkpt>
      <trkpt lat="4.6112600" lon="-74.2585400">
        <ele>2545.0</ele>
        <time>2018-08-11T16:28:54Z</time>
      </trkpt>
      <trkpt lat="4.6112230" lon="-74.2585630">
        <ele>2544.9</ele>
        <time>2018-08-11T16:28:55Z</time>
      </trkpt>
      <trkpt lat="4.6111830" lon="-74.2585830">
        <ele>2544.9</ele>
        <time>2018-08-11T16:28:56Z</time>
      </trkpt>
      <trkpt lat="4.6111450" lon="-74.2586000">
        <ele>2544.9</ele>
        <time>2018-08-11T16:28:57Z</time>
      </trkpt>
      <trkpt lat="4.6111070" lon="-74.2586180">
        <ele>2544.9</ele>
        <time>2018-08-11T16:28:58Z</time>
      </trkpt>
      <trkpt lat="4.6110700" lon="-74.2586380">
        <ele>2544.9</ele>
        <time>2018-08-11T16:28:59Z</time>
      </trkpt>
      <trkpt lat="4.6110300" lon="-74.2586580">
        <ele>2544.9</ele>
        <time>2018-08-11T16:29:00Z</time>
      </trkpt>
      <trkpt lat="4.6109920" lon="-74.2586780">
        <ele>2544.9</ele>
        <time>2018-08-11T16:29:01Z</time>
      </trkpt>
      <trkpt lat="4.6109500" lon="-74.2586930">
        <ele>2544.9</ele>
        <time>2018-08-11T16:29:02Z</time>
      </trkpt>
      <trkpt lat="4.6109120" lon="-74.2587130">
        <ele>2544.9</ele>
        <time>2018-08-11T16:29:03Z</time>
      </trkpt>
      <trkpt lat="4.6108730" lon="-74.2587320">
        <ele>2545.1</ele>
        <time>2018-08-11T16:29:04Z</time>
      </trkpt>
      <trkpt lat="4.6108350" lon="-74.2587500">
        <ele>2545.2</ele>
        <time>2018-08-11T16:29:05Z</time>
      </trkpt>
      <trkpt lat="4.6108000" lon="-74.2587700">
        <ele>2545.4</ele>
        <time>2018-08-11T16:29:06Z</time>
      </trkpt>
      <trkpt lat="4.6107670" lon="-74.2587870">
        <ele>2545.6</ele>
        <time>2018-08-11T16:29:07Z</time>
      </trkpt>
      <trkpt lat="4.6107300" lon="-74.2588050">
        <ele>2545.9</ele>
        <time>2018-08-11T16:29:08Z</time>
      </trkpt>
      <trkpt lat="4.6106930" lon="-74.2588250">
        <ele>2545.9</ele>
        <time>2018-08-11T16:29:09Z</time>
      </trkpt>
      <trkpt lat="4.6106570" lon="-74.2588470">
        <ele>2546.2</ele>
        <time>2018-08-11T16:29:10Z</time>
      </trkpt>
      <trkpt lat="4.6106180" lon="-74.2588630">
        <ele>2546.5</ele>
        <time>2018-08-11T16:29:11Z</time>
      </trkpt>
      <trkpt lat="4.6105820" lon="-74.2588830">
        <ele>2546.8</ele>
        <time>2018-08-11T16:29:12Z</time>
      </trkpt>
      <trkpt lat="4.6105450" lon="-74.2589030">
        <ele>2547.1</ele>
        <time>2018-08-11T16:29:13Z</time>
      </trkpt>
      <trkpt lat="4.6105070" lon="-74.2589250">
        <ele>2547.5</ele>
        <time>2018-08-11T16:29:14Z</time>
      </trkpt>
      <trkpt lat="4.6104680" lon="-74.2589480">
        <ele>2547.8</ele>
        <time>2018-08-11T16:29:15Z</time>
      </trkpt>
      <trkpt lat="4.6104280" lon="-74.2589720">
        <ele>2548.1</ele>
        <time>2018-08-11T16:29:16Z</time>
      </trkpt>
      <trkpt lat="4.6103870" lon="-74.2589950">
        <ele>2548.2</ele>
        <time>2018-08-11T16:29:17Z</time>
      </trkpt>
      <trkpt lat="4.6103470" lon="-74.2590180">
        <ele>2548.2</ele>
        <time>2018-08-11T16:29:18Z</time>
      </trkpt>
      <trkpt lat="4.6103050" lon="-74.2590420">
        <ele>2548.2</ele>
        <time>2018-08-11T16:29:19Z</time>
      </trkpt>
      <trkpt lat="4.6102620" lon="-74.2590650">
        <ele>2548.2</ele>
        <time>2018-08-11T16:29:20Z</time>
      </trkpt>
      <trkpt lat="4.6102180" lon="-74.2590900">
        <ele>2548.1</ele>
        <time>2018-08-11T16:29:21Z</time>
      </trkpt>
      <trkpt lat="4.6101750" lon="-74.2591130">
        <ele>2548.2</ele>
        <time>2018-08-11T16:29:22Z</time>
      </trkpt>
      <trkpt lat="4.6101300" lon="-74.2591330">
        <ele>2548.1</ele>
        <time>2018-08-11T16:29:23Z</time>
      </trkpt>
      <trkpt lat="4.6100870" lon="-74.2591570">
        <ele>2548.1</ele>
        <time>2018-08-11T16:29:24Z</time>
      </trkpt>
      <trkpt lat="4.6100450" lon="-74.2591780">
        <ele>2548.1</ele>
        <time>2018-08-11T16:29:25Z</time>
      </trkpt>
      <trkpt lat="4.6100030" lon="-74.2592020">
        <ele>2548.0</ele>
        <time>2018-08-11T16:29:26Z</time>
      </trkpt>
      <trkpt lat="4.6099620" lon="-74.2592270">
        <ele>2548.2</ele>
        <time>2018-08-11T16:29:27Z</time>
      </trkpt>
      <trkpt lat="4.6099220" lon="-74.2592500">
        <ele>2548.2</ele>
        <time>2018-08-11T16:29:28Z</time>
      </trkpt>
      <trkpt lat="4.6098800" lon="-74.2592720">
        <ele>2548.4</ele>
        <time>2018-08-11T16:29:29Z</time>
      </trkpt>
      <trkpt lat="4.6098380" lon="-74.2592930">
        <ele>2548.3</ele>
        <time>2018-08-11T16:29:30Z</time>
      </trkpt>
      <trkpt lat="4.6097970" lon="-74.2593150">
        <ele>2548.3</ele>
        <time>2018-08-11T16:29:31Z</time>
      </trkpt>
      <trkpt lat="4.6097550" lon="-74.2593370">
        <ele>2548.1</ele>
        <time>2018-08-11T16:29:32Z</time>
      </trkpt>
      <trkpt lat="4.6097120" lon="-74.2593530">
        <ele>2548.4</ele>
        <time>2018-08-11T16:29:33Z</time>
      </trkpt>
      <trkpt lat="4.6096650" lon="-74.2593750">
        <ele>2548.5</ele>
        <time>2018-08-11T16:29:34Z</time>
      </trkpt>
      <trkpt lat="4.6096180" lon="-74.2593930">
        <ele>2549.6</ele>
        <time>2018-08-11T16:29:35Z</time>
      </trkpt>
      <trkpt lat="4.6095730" lon="-74.2594150">
        <ele>2549.9</ele>
        <time>2018-08-11T16:29:36Z</time>
      </trkpt>
      <trkpt lat="4.6095280" lon="-74.2594370">
        <ele>2550.4</ele>
        <time>2018-08-11T16:29:37Z</time>
      </trkpt>
      <trkpt lat="4.6094830" lon="-74.2594600">
        <ele>2550.4</ele>
        <time>2018-08-11T16:29:38Z</time>
      </trkpt>
      <trkpt lat="4.6094420" lon="-74.2594850">
        <ele>2550.6</ele>
        <time>2018-08-11T16:29:39Z</time>
      </trkpt>
      <trkpt lat="4.6094000" lon="-74.2595080">
        <ele>2550.7</ele>
        <time>2018-08-11T16:29:40Z</time>
      </trkpt>
      <trkpt lat="4.6093570" lon="-74.2595320">
        <ele>2551.0</ele>
        <time>2018-08-11T16:29:41Z</time>
      </trkpt>
      <trkpt lat="4.6093130" lon="-74.2595550">
        <ele>2551.3</ele>
        <time>2018-08-11T16:29:42Z</time>
      </trkpt>
      <trkpt lat="4.6092700" lon="-74.2595780">
        <ele>2551.2</ele>
        <time>2018-08-11T16:29:43Z</time>
      </trkpt>
      <trkpt lat="4.6092270" lon="-74.2596020">
        <ele>2551.3</ele>
        <time>2018-08-11T16:29:44Z</time>
      </trkpt>
      <trkpt lat="4.6091820" lon="-74.2596250">
        <ele>2551.3</ele>
        <time>2018-08-11T16:29:45Z</time>
      </trkpt>
      <trkpt lat="4.6091380" lon="-74.2596480">
        <ele>2551.4</ele>
        <time>2018-08-11T16:29:46Z</time>
      </trkpt>
      <trkpt lat="4.6090930" lon="-74.2596700">
        <ele>2551.4</ele>
        <time>2018-08-11T16:29:47Z</time>
      </trkpt>
      <trkpt lat="4.6090480" lon="-74.2596880">
        <ele>2551.3</ele>
        <time>2018-08-11T16:29:48Z</time>
      </trkpt>
      <trkpt lat="4.6090050" lon="-74.2597120">
        <ele>2551.3</ele>
        <time>2018-08-11T16:29:49Z</time>
      </trkpt>
      <trkpt lat="4.6089630" lon="-74.2597370">
        <ele>2551.3</ele>
        <time>2018-08-11T16:29:50Z</time>
      </trkpt>
      <trkpt lat="4.6089220" lon="-74.2597630">
        <ele>2551.2</ele>
        <time>2018-08-11T16:29:51Z</time>
      </trkpt>
      <trkpt lat="4.6088800" lon="-74.2597870">
        <ele>2551.4</ele>
        <time>2018-08-11T16:29:52Z</time>
      </trkpt>
      <trkpt lat="4.6088370" lon="-74.2598100">
        <ele>2551.4</ele>
        <time>2018-08-11T16:29:53Z</time>
      </trkpt>
      <trkpt lat="4.6087950" lon="-74.2598370">
        <ele>2551.5</ele>
        <time>2018-08-11T16:29:54Z</time>
      </trkpt>
      <trkpt lat="4.6087550" lon="-74.2598620">
        <ele>2551.5</ele>
        <time>2018-08-11T16:29:55Z</time>
      </trkpt>
      <trkpt lat="4.6087120" lon="-74.2598830">
        <ele>2551.5</ele>
        <time>2018-08-11T16:29:56Z</time>
      </trkpt>
      <trkpt lat="4.6086680" lon="-74.2599030">
        <ele>2551.2</ele>
        <time>2018-08-11T16:29:57Z</time>
      </trkpt>
      <trkpt lat="4.6086250" lon="-74.2599250">
        <ele>2550.9</ele>
        <time>2018-08-11T16:29:58Z</time>
      </trkpt>
      <trkpt lat="4.6085820" lon="-74.2599480">
        <ele>2550.6</ele>
        <time>2018-08-11T16:29:59Z</time>
      </trkpt>
      <trkpt lat="4.6085380" lon="-74.2599730">
        <ele>2550.4</ele>
        <time>2018-08-11T16:30:00Z</time>
      </trkpt>
      <trkpt lat="4.6084970" lon="-74.2599980">
        <ele>2550.6</ele>
        <time>2018-08-11T16:30:01Z</time>
      </trkpt>
      <trkpt lat="4.6084550" lon="-74.2600220">
        <ele>2550.7</ele>
        <time>2018-08-11T16:30:02Z</time>
      </trkpt>
      <trkpt lat="4.6084130" lon="-74.2600430">
        <ele>2550.7</ele>
        <time>2018-08-11T16:30:03Z</time>
      </trkpt>
      <trkpt lat="4.6083670" lon="-74.2600620">
        <ele>2550.6</ele>
        <time>2018-08-11T16:30:04Z</time>
      </trkpt>
      <trkpt lat="4.6083230" lon="-74.2600820">
        <ele>2550.2</ele>
        <time>2018-08-11T16:30:05Z</time>
      </trkpt>
      <trkpt lat="4.6082780" lon="-74.2601050">
        <ele>2549.9</ele>
        <time>2018-08-11T16:30:06Z</time>
      </trkpt>
      <trkpt lat="4.6082330" lon="-74.2601270">
        <ele>2549.6</ele>
        <time>2018-08-11T16:30:07Z</time>
      </trkpt>
      <trkpt lat="4.6081920" lon="-74.2601500">
        <ele>2549.4</ele>
        <time>2018-08-11T16:30:08Z</time>
      </trkpt>
      <trkpt lat="4.6081520" lon="-74.2601750">
        <ele>2549.2</ele>
        <time>2018-08-11T16:30:09Z</time>
      </trkpt>
      <trkpt lat="4.6081070" lon="-74.2601980">
        <ele>2549.1</ele>
        <time>2018-08-11T16:30:10Z</time>
      </trkpt>
      <trkpt lat="4.6080620" lon="-74.2602230">
        <ele>2549.2</ele>
        <time>2018-08-11T16:30:11Z</time>
      </trkpt>
      <trkpt lat="4.6080170" lon="-74.2602470">
        <ele>2549.3</ele>
        <time>2018-08-11T16:30:12Z</time>
      </trkpt>
      <trkpt lat="4.6079720" lon="-74.2602700">
        <ele>2549.5</ele>
        <time>2018-08-11T16:30:13Z</time>
      </trkpt>
      <trkpt lat="4.6079270" lon="-74.2602950">
        <ele>2550.0</ele>
        <time>2018-08-11T16:30:14Z</time>
      </trkpt>
      <trkpt lat="4.6078820" lon="-74.2603180">
        <ele>2550.2</ele>
        <time>2018-08-11T16:30:15Z</time>
      </trkpt>
      <trkpt lat="4.6078330" lon="-74.2603420">
        <ele>2550.5</ele>
        <time>2018-08-11T16:30:16Z</time>
      </trkpt>
      <trkpt lat="4.6077850" lon="-74.2603680">
        <ele>2550.7</ele>
        <time>2018-08-11T16:30:17Z</time>
      </trkpt>
      <trkpt lat="4.6077380" lon="-74.2603930">
        <ele>2550.6</ele>
        <time>2018-08-11T16:30:18Z</time>
      </trkpt>
      <trkpt lat="4.6076920" lon="-74.2604180">
        <ele>2550.5</ele>
        <time>2018-08-11T16:30:19Z</time>
      </trkpt>
      <trkpt lat="4.6076430" lon="-74.2604450">
        <ele>2550.5</ele>
        <time>2018-08-11T16:30:20Z</time>
      </trkpt>
      <trkpt lat="4.6075970" lon="-74.2604730">
        <ele>2550.6</ele>
        <time>2018-08-11T16:30:21Z</time>
      </trkpt>
      <trkpt lat="4.6075500" lon="-74.2605000">
        <ele>2550.6</ele>
        <time>2018-08-11T16:30:22Z</time>
      </trkpt>
      <trkpt lat="4.6075030" lon="-74.2605250">
        <ele>2550.6</ele>
        <time>2018-08-11T16:30:23Z</time>
      </trkpt>
      <trkpt lat="4.6074580" lon="-74.2605480">
        <ele>2550.4</ele>
        <time>2018-08-11T16:30:24Z</time>
      </trkpt>
      <trkpt lat="4.6074100" lon="-74.2605720">
        <ele>2550.2</ele>
        <time>2018-08-11T16:30:25Z</time>
      </trkpt>
      <trkpt lat="4.6073630" lon="-74.2605970">
        <ele>2549.8</ele>
        <time>2018-08-11T16:30:26Z</time>
      </trkpt>
      <trkpt lat="4.6073200" lon="-74.2606220">
        <ele>2549.6</ele>
        <time>2018-08-11T16:30:27Z</time>
      </trkpt>
      <trkpt lat="4.6072750" lon="-74.2606480">
        <ele>2549.4</ele>
        <time>2018-08-11T16:30:28Z</time>
      </trkpt>
      <trkpt lat="4.6072280" lon="-74.2606720">
        <ele>2549.4</ele>
        <time>2018-08-11T16:30:29Z</time>
      </trkpt>
      <trkpt lat="4.6071820" lon="-74.2606970">
        <ele>2549.5</ele>
        <time>2018-08-11T16:30:30Z</time>
      </trkpt>
      <trkpt lat="4.6071350" lon="-74.2607200">
        <ele>2549.6</ele>
        <time>2018-08-11T16:30:31Z</time>
      </trkpt>
      <trkpt lat="4.6070880" lon="-74.2607450">
        <ele>2549.6</ele>
        <time>2018-08-11T16:30:32Z</time>
      </trkpt>
      <trkpt lat="4.6070420" lon="-74.2607680">
        <ele>2549.6</ele>
        <time>2018-08-11T16:30:33Z</time>
      </trkpt>
      <trkpt lat="4.6069950" lon="-74.2607920">
        <ele>2549.6</ele>
        <time>2018-08-11T16:30:34Z</time>
      </trkpt>
      <trkpt lat="4.6069480" lon="-74.2608130">
        <ele>2549.4</ele>
        <time>2018-08-11T16:30:35Z</time>
      </trkpt>
      <trkpt lat="4.6069030" lon="-74.2608370">
        <ele>2549.2</ele>
        <time>2018-08-11T16:30:36Z</time>
      </trkpt>
      <trkpt lat="4.6068580" lon="-74.2608620">
        <ele>2548.6</ele>
        <time>2018-08-11T16:30:37Z</time>
      </trkpt>
      <trkpt lat="4.6068100" lon="-74.2608850">
        <ele>2548.0</ele>
        <time>2018-08-11T16:30:38Z</time>
      </trkpt>
      <trkpt lat="4.6067650" lon="-74.2609120">
        <ele>2547.6</ele>
        <time>2018-08-11T16:30:39Z</time>
      </trkpt>
      <trkpt lat="4.6067200" lon="-74.2609380">
        <ele>2547.1</ele>
        <time>2018-08-11T16:30:40Z</time>
      </trkpt>
      <trkpt lat="4.6066720" lon="-74.2609630">
        <ele>2546.9</ele>
        <time>2018-08-11T16:30:41Z</time>
      </trkpt>
      <trkpt lat="4.6066270" lon="-74.2609900">
        <ele>2546.6</ele>
        <time>2018-08-11T16:30:42Z</time>
      </trkpt>
      <trkpt lat="4.6065800" lon="-74.2610150">
        <ele>2546.1</ele>
        <time>2018-08-11T16:30:43Z</time>
      </trkpt>
      <trkpt lat="4.6065320" lon="-74.2610400">
        <ele>2546.0</ele>
        <time>2018-08-11T16:30:44Z</time>
      </trkpt>
      <trkpt lat="4.6064830" lon="-74.2610650">
        <ele>2546.2</ele>
        <time>2018-08-11T16:30:45Z</time>
      </trkpt>
      <trkpt lat="4.6064350" lon="-74.2610920">
        <ele>2546.3</ele>
        <time>2018-08-11T16:30:46Z</time>
      </trkpt>
      <trkpt lat="4.6063880" lon="-74.2611170">
        <ele>2546.9</ele>
        <time>2018-08-11T16:30:47Z</time>
      </trkpt>
      <trkpt lat="4.6063420" lon="-74.2611450">
        <ele>2547.5</ele>
        <time>2018-08-11T16:30:48Z</time>
      </trkpt>
      <trkpt lat="4.6062930" lon="-74.2611730">
        <ele>2547.8</ele>
        <time>2018-08-11T16:30:49Z</time>
      </trkpt>
      <trkpt lat="4.6062430" lon="-74.2611970">
        <ele>2548.2</ele>
        <time>2018-08-11T16:30:50Z</time>
      </trkpt>
      <trkpt lat="4.6061950" lon="-74.2612220">
        <ele>2548.2</ele>
        <time>2018-08-11T16:30:51Z</time>
      </trkpt>
      <trkpt lat="4.6061450" lon="-74.2612470">
        <ele>2548.3</ele>
        <time>2018-08-11T16:30:52Z</time>
      </trkpt>
      <trkpt lat="4.6060970" lon="-74.2612730">
        <ele>2548.5</ele>
        <time>2018-08-11T16:30:53Z</time>
      </trkpt>
      <trkpt lat="4.6060480" lon="-74.2613020">
        <ele>2548.3</ele>
        <time>2018-08-11T16:30:54Z</time>
      </trkpt>
      <trkpt lat="4.6060000" lon="-74.2613250">
        <ele>2548.1</ele>
        <time>2018-08-11T16:30:55Z</time>
      </trkpt>
      <trkpt lat="4.6059530" lon="-74.2613500">
        <ele>2547.8</ele>
        <time>2018-08-11T16:30:56Z</time>
      </trkpt>
      <trkpt lat="4.6059050" lon="-74.2613770">
        <ele>2547.7</ele>
        <time>2018-08-11T16:30:57Z</time>
      </trkpt>
      <trkpt lat="4.6058570" lon="-74.2614020">
        <ele>2547.8</ele>
        <time>2018-08-11T16:30:58Z</time>
      </trkpt>
      <trkpt lat="4.6058100" lon="-74.2614250">
        <ele>2547.7</ele>
        <time>2018-08-11T16:30:59Z</time>
      </trkpt>
      <trkpt lat="4.6057630" lon="-74.2614500">
        <ele>2548.4</ele>
        <time>2018-08-11T16:31:00Z</time>
      </trkpt>
      <trkpt lat="4.6057150" lon="-74.2614750">
        <ele>2548.3</ele>
        <time>2018-08-11T16:31:01Z</time>
      </trkpt>
      <trkpt lat="4.6056680" lon="-74.2615020">
        <ele>2549.1</ele>
        <time>2018-08-11T16:31:02Z</time>
      </trkpt>
      <trkpt lat="4.6056200" lon="-74.2615300">
        <ele>2549.9</ele>
        <time>2018-08-11T16:31:03Z</time>
      </trkpt>
      <trkpt lat="4.6055700" lon="-74.2615550">
        <ele>2550.0</ele>
        <time>2018-08-11T16:31:04Z</time>
      </trkpt>
      <trkpt lat="4.6055220" lon="-74.2615800">
        <ele>2550.8</ele>
        <time>2018-08-11T16:31:05Z</time>
      </trkpt>
      <trkpt lat="4.6054770" lon="-74.2615980">
        <ele>2550.9</ele>
        <time>2018-08-11T16:31:06Z</time>
      </trkpt>
      <trkpt lat="4.6054280" lon="-74.2616200">
        <ele>2551.6</ele>
        <time>2018-08-11T16:31:07Z</time>
      </trkpt>
      <trkpt lat="4.6053820" lon="-74.2616450">
        <ele>2551.6</ele>
        <time>2018-08-11T16:31:08Z</time>
      </trkpt>
      <trkpt lat="4.6053330" lon="-74.2616730">
        <ele>2551.9</ele>
        <time>2018-08-11T16:31:09Z</time>
      </trkpt>
      <trkpt lat="4.6052820" lon="-74.2617000">
        <ele>2551.9</ele>
        <time>2018-08-11T16:31:10Z</time>
      </trkpt>
      <trkpt lat="4.6052330" lon="-74.2617270">
        <ele>2551.8</ele>
        <time>2018-08-11T16:31:11Z</time>
      </trkpt>
      <trkpt lat="4.6051820" lon="-74.2617530">
        <ele>2551.7</ele>
        <time>2018-08-11T16:31:12Z</time>
      </trkpt>
      <trkpt lat="4.6051300" lon="-74.2617770">
        <ele>2551.8</ele>
        <time>2018-08-11T16:31:13Z</time>
      </trkpt>
      <trkpt lat="4.6050750" lon="-74.2618020">
        <ele>2551.8</ele>
        <time>2018-08-11T16:31:14Z</time>
      </trkpt>
      <trkpt lat="4.6050230" lon="-74.2618280">
        <ele>2551.8</ele>
        <time>2018-08-11T16:31:15Z</time>
      </trkpt>
      <trkpt lat="4.6049730" lon="-74.2618570">
        <ele>2551.8</ele>
        <time>2018-08-11T16:31:16Z</time>
      </trkpt>
      <trkpt lat="4.6049250" lon="-74.2618870">
        <ele>2551.8</ele>
        <time>2018-08-11T16:31:17Z</time>
      </trkpt>
      <trkpt lat="4.6048770" lon="-74.2619150">
        <ele>2551.7</ele>
        <time>2018-08-11T16:31:18Z</time>
      </trkpt>
      <trkpt lat="4.6048270" lon="-74.2619450">
        <ele>2551.5</ele>
        <time>2018-08-11T16:31:19Z</time>
      </trkpt>
      <trkpt lat="4.6047780" lon="-74.2619750">
        <ele>2551.6</ele>
        <time>2018-08-11T16:31:20Z</time>
      </trkpt>
      <trkpt lat="4.6047300" lon="-74.2620050">
        <ele>2552.2</ele>
        <time>2018-08-11T16:31:21Z</time>
      </trkpt>
      <trkpt lat="4.6046820" lon="-74.2620300">
        <ele>2552.6</ele>
        <time>2018-08-11T16:31:22Z</time>
      </trkpt>
      <trkpt lat="4.6046320" lon="-74.2620550">
        <ele>2553.5</ele>
        <time>2018-08-11T16:31:23Z</time>
      </trkpt>
      <trkpt lat="4.6045830" lon="-74.2620800">
        <ele>2554.0</ele>
        <time>2018-08-11T16:31:24Z</time>
      </trkpt>
      <trkpt lat="4.6045320" lon="-74.2621030">
        <ele>2554.7</ele>
        <time>2018-08-11T16:31:25Z</time>
      </trkpt>
      <trkpt lat="4.6044820" lon="-74.2621280">
        <ele>2555.5</ele>
        <time>2018-08-11T16:31:26Z</time>
      </trkpt>
      <trkpt lat="4.6044320" lon="-74.2621550">
        <ele>2555.7</ele>
        <time>2018-08-11T16:31:27Z</time>
      </trkpt>
      <trkpt lat="4.6043850" lon="-74.2621820">
        <ele>2556.0</ele>
        <time>2018-08-11T16:31:28Z</time>
      </trkpt>
      <trkpt lat="4.6043380" lon="-74.2622070">
        <ele>2556.3</ele>
        <time>2018-08-11T16:31:29Z</time>
      </trkpt>
      <trkpt lat="4.6042950" lon="-74.2622330">
        <ele>2556.5</ele>
        <time>2018-08-11T16:31:30Z</time>
      </trkpt>
      <trkpt lat="4.6042500" lon="-74.2622600">
        <ele>2556.7</ele>
        <time>2018-08-11T16:31:31Z</time>
      </trkpt>
      <trkpt lat="4.6042030" lon="-74.2622850">
        <ele>2556.9</ele>
        <time>2018-08-11T16:31:32Z</time>
      </trkpt>
      <trkpt lat="4.6041570" lon="-74.2623080">
        <ele>2557.0</ele>
        <time>2018-08-11T16:31:33Z</time>
      </trkpt>
      <trkpt lat="4.6041100" lon="-74.2623330">
        <ele>2556.9</ele>
        <time>2018-08-11T16:31:34Z</time>
      </trkpt>
      <trkpt lat="4.6040650" lon="-74.2623600">
        <ele>2557.1</ele>
        <time>2018-08-11T16:31:35Z</time>
      </trkpt>
      <trkpt lat="4.6040180" lon="-74.2623880">
        <ele>2557.3</ele>
        <time>2018-08-11T16:31:36Z</time>
      </trkpt>
      <trkpt lat="4.6039720" lon="-74.2624120">
        <ele>2557.3</ele>
        <time>2018-08-11T16:31:37Z</time>
      </trkpt>
      <trkpt lat="4.6039330" lon="-74.2624450">
        <ele>2557.6</ele>
        <time>2018-08-11T16:31:38Z</time>
      </trkpt>
      <trkpt lat="4.6038870" lon="-74.2624670">
        <ele>2557.6</ele>
        <time>2018-08-11T16:31:39Z</time>
      </trkpt>
      <trkpt lat="4.6038400" lon="-74.2624920">
        <ele>2557.9</ele>
        <time>2018-08-11T16:31:40Z</time>
      </trkpt>
      <trkpt lat="4.6037900" lon="-74.2625120">
        <ele>2557.9</ele>
        <time>2018-08-11T16:31:41Z</time>
      </trkpt>
      <trkpt lat="4.6037420" lon="-74.2625370">
        <ele>2558.1</ele>
        <time>2018-08-11T16:31:42Z</time>
      </trkpt>
      <trkpt lat="4.6036920" lon="-74.2625620">
        <ele>2557.9</ele>
        <time>2018-08-11T16:31:43Z</time>
      </trkpt>
      <trkpt lat="4.6036430" lon="-74.2625830">
        <ele>2557.6</ele>
        <time>2018-08-11T16:31:44Z</time>
      </trkpt>
      <trkpt lat="4.6035950" lon="-74.2626100">
        <ele>2557.0</ele>
        <time>2018-08-11T16:31:45Z</time>
      </trkpt>
      <trkpt lat="4.6035480" lon="-74.2626370">
        <ele>2556.6</ele>
        <time>2018-08-11T16:31:46Z</time>
      </trkpt>
      <trkpt lat="4.6035020" lon="-74.2626620">
        <ele>2555.8</ele>
        <time>2018-08-11T16:31:47Z</time>
      </trkpt>
      <trkpt lat="4.6034550" lon="-74.2626880">
        <ele>2555.9</ele>
        <time>2018-08-11T16:31:48Z</time>
      </trkpt>
      <trkpt lat="4.6034080" lon="-74.2627120">
        <ele>2556.0</ele>
        <time>2018-08-11T16:31:49Z</time>
      </trkpt>
      <trkpt lat="4.6033620" lon="-74.2627330">
        <ele>2556.3</ele>
        <time>2018-08-11T16:31:50Z</time>
      </trkpt>
      <trkpt lat="4.6033150" lon="-74.2627530">
        <ele>2556.2</ele>
        <time>2018-08-11T16:31:51Z</time>
      </trkpt>
      <trkpt lat="4.6032670" lon="-74.2627770">
        <ele>2556.2</ele>
        <time>2018-08-11T16:31:52Z</time>
      </trkpt>
      <trkpt lat="4.6032170" lon="-74.2628020">
        <ele>2556.0</ele>
        <time>2018-08-11T16:31:53Z</time>
      </trkpt>
      <trkpt lat="4.6031680" lon="-74.2628270">
        <ele>2556.0</ele>
        <time>2018-08-11T16:31:54Z</time>
      </trkpt>
      <trkpt lat="4.6031200" lon="-74.2628530">
        <ele>2556.0</ele>
        <time>2018-08-11T16:31:55Z</time>
      </trkpt>
      <trkpt lat="4.6030730" lon="-74.2628820">
        <ele>2556.1</ele>
        <time>2018-08-11T16:31:56Z</time>
      </trkpt>
      <trkpt lat="4.6030270" lon="-74.2629080">
        <ele>2555.5</ele>
        <time>2018-08-11T16:31:57Z</time>
      </trkpt>
      <trkpt lat="4.6029780" lon="-74.2629330">
        <ele>2555.0</ele>
        <time>2018-08-11T16:31:58Z</time>
      </trkpt>
      <trkpt lat="4.6029320" lon="-74.2629580">
        <ele>2554.1</ele>
        <time>2018-08-11T16:31:59Z</time>
      </trkpt>
      <trkpt lat="4.6028850" lon="-74.2629850">
        <ele>2553.6</ele>
        <time>2018-08-11T16:32:00Z</time>
      </trkpt>
      <trkpt lat="4.6028400" lon="-74.2630150">
        <ele>2553.1</ele>
        <time>2018-08-11T16:32:01Z</time>
      </trkpt>
      <trkpt lat="4.6027950" lon="-74.2630420">
        <ele>2552.9</ele>
        <time>2018-08-11T16:32:02Z</time>
      </trkpt>
      <trkpt lat="4.6027480" lon="-74.2630670">
        <ele>2553.0</ele>
        <time>2018-08-11T16:32:03Z</time>
      </trkpt>
      <trkpt lat="4.6027050" lon="-74.2630900">
        <ele>2553.0</ele>
        <time>2018-08-11T16:32:04Z</time>
      </trkpt>
      <trkpt lat="4.6026580" lon="-74.2631130">
        <ele>2553.1</ele>
        <time>2018-08-11T16:32:05Z</time>
      </trkpt>
      <trkpt lat="4.6026120" lon="-74.2631400">
        <ele>2553.1</ele>
        <time>2018-08-11T16:32:06Z</time>
      </trkpt>
      <trkpt lat="4.6025670" lon="-74.2631650">
        <ele>2553.1</ele>
        <time>2018-08-11T16:32:07Z</time>
      </trkpt>
      <trkpt lat="4.6025150" lon="-74.2631830">
        <ele>2553.0</ele>
        <time>2018-08-11T16:32:08Z</time>
      </trkpt>
      <trkpt lat="4.6024650" lon="-74.2632050">
        <ele>2553.1</ele>
        <time>2018-08-11T16:32:09Z</time>
      </trkpt>
      <trkpt lat="4.6024120" lon="-74.2632270">
        <ele>2552.9</ele>
        <time>2018-08-11T16:32:10Z</time>
      </trkpt>
      <trkpt lat="4.6023580" lon="-74.2632520">
        <ele>2552.8</ele>
        <time>2018-08-11T16:32:11Z</time>
      </trkpt>
      <trkpt lat="4.6023070" lon="-74.2632750">
        <ele>2552.3</ele>
        <time>2018-08-11T16:32:12Z</time>
      </trkpt>
      <trkpt lat="4.6022570" lon="-74.2633020">
        <ele>2551.3</ele>
        <time>2018-08-11T16:32:13Z</time>
      </trkpt>
      <trkpt lat="4.6022070" lon="-74.2633250">
        <ele>2550.7</ele>
        <time>2018-08-11T16:32:14Z</time>
      </trkpt>
      <trkpt lat="4.6021580" lon="-74.2633480">
        <ele>2550.6</ele>
        <time>2018-08-11T16:32:15Z</time>
      </trkpt>
      <trkpt lat="4.6021080" lon="-74.2633720">
        <ele>2550.1</ele>
        <time>2018-08-11T16:32:16Z</time>
      </trkpt>
      <trkpt lat="4.6020580" lon="-74.2634000">
        <ele>2550.2</ele>
        <time>2018-08-11T16:32:17Z</time>
      </trkpt>
      <trkpt lat="4.6020100" lon="-74.2634280">
        <ele>2550.0</ele>
        <time>2018-08-11T16:32:18Z</time>
      </trkpt>
      <trkpt lat="4.6019580" lon="-74.2634550">
        <ele>2548.9</ele>
        <time>2018-08-11T16:32:19Z</time>
      </trkpt>
      <trkpt lat="4.6019030" lon="-74.2634800">
        <ele>2548.9</ele>
        <time>2018-08-11T16:32:20Z</time>
      </trkpt>
      <trkpt lat="4.6018500" lon="-74.2635070">
        <ele>2549.1</ele>
        <time>2018-08-11T16:32:21Z</time>
      </trkpt>
      <trkpt lat="4.6017950" lon="-74.2635330">
        <ele>2548.9</ele>
        <time>2018-08-11T16:32:22Z</time>
      </trkpt>
      <trkpt lat="4.6017380" lon="-74.2635580">
        <ele>2548.9</ele>
        <time>2018-08-11T16:32:23Z</time>
      </trkpt>
      <trkpt lat="4.6016830" lon="-74.2635870">
        <ele>2548.9</ele>
        <time>2018-08-11T16:32:24Z</time>
      </trkpt>
      <trkpt lat="4.6016280" lon="-74.2636120">
        <ele>2548.6</ele>
        <time>2018-08-11T16:32:25Z</time>
      </trkpt>
      <trkpt lat="4.6015720" lon="-74.2636380">
        <ele>2548.2</ele>
        <time>2018-08-11T16:32:26Z</time>
      </trkpt>
      <trkpt lat="4.6015150" lon="-74.2636630">
        <ele>2547.8</ele>
        <time>2018-08-11T16:32:27Z</time>
      </trkpt>
      <trkpt lat="4.6014580" lon="-74.2636870">
        <ele>2547.8</ele>
        <time>2018-08-11T16:32:28Z</time>
      </trkpt>
      <trkpt lat="4.6014000" lon="-74.2637080">
        <ele>2546.7</ele>
        <time>2018-08-11T16:32:29Z</time>
      </trkpt>
      <trkpt lat="4.6013430" lon="-74.2637320">
        <ele>2546.7</ele>
        <time>2018-08-11T16:32:30Z</time>
      </trkpt>
      <trkpt lat="4.6012900" lon="-74.2637550">
        <ele>2546.4</ele>
        <time>2018-08-11T16:32:31Z</time>
      </trkpt>
      <trkpt lat="4.6012330" lon="-74.2637750">
        <ele>2546.6</ele>
        <time>2018-08-11T16:32:32Z</time>
      </trkpt>
      <trkpt lat="4.6011780" lon="-74.2637950">
        <ele>2546.5</ele>
        <time>2018-08-11T16:32:33Z</time>
      </trkpt>
      <trkpt lat="4.6011230" lon="-74.2638150">
        <ele>2546.3</ele>
        <time>2018-08-11T16:32:34Z</time>
      </trkpt>
      <trkpt lat="4.6010700" lon="-74.2638330">
        <ele>2546.0</ele>
        <time>2018-08-11T16:32:35Z</time>
      </trkpt>
      <trkpt lat="4.6010170" lon="-74.2638500">
        <ele>2545.4</ele>
        <time>2018-08-11T16:32:36Z</time>
      </trkpt>
      <trkpt lat="4.6009630" lon="-74.2638680">
        <ele>2545.2</ele>
        <time>2018-08-11T16:32:37Z</time>
      </trkpt>
      <trkpt lat="4.6009100" lon="-74.2638870">
        <ele>2545.1</ele>
        <time>2018-08-11T16:32:38Z</time>
      </trkpt>
      <trkpt lat="4.6008570" lon="-74.2638980">
        <ele>2545.2</ele>
        <time>2018-08-11T16:32:39Z</time>
      </trkpt>
      <trkpt lat="4.6008050" lon="-74.2639120">
        <ele>2545.4</ele>
        <time>2018-08-11T16:32:40Z</time>
      </trkpt>
      <trkpt lat="4.6007530" lon="-74.2639270">
        <ele>2545.6</ele>
        <time>2018-08-11T16:32:41Z</time>
      </trkpt>
      <trkpt lat="4.6007020" lon="-74.2639400">
        <ele>2545.7</ele>
        <time>2018-08-11T16:32:42Z</time>
      </trkpt>
      <trkpt lat="4.6006500" lon="-74.2639500">
        <ele>2545.9</ele>
        <time>2018-08-11T16:32:43Z</time>
      </trkpt>
      <trkpt lat="4.6006000" lon="-74.2639600">
        <ele>2546.0</ele>
        <time>2018-08-11T16:32:44Z</time>
      </trkpt>
      <trkpt lat="4.6005520" lon="-74.2639720">
        <ele>2546.1</ele>
        <time>2018-08-11T16:32:45Z</time>
      </trkpt>
      <trkpt lat="4.6005050" lon="-74.2639850">
        <ele>2546.1</ele>
        <time>2018-08-11T16:32:46Z</time>
      </trkpt>
      <trkpt lat="4.6004570" lon="-74.2639970">
        <ele>2546.3</ele>
        <time>2018-08-11T16:32:47Z</time>
      </trkpt>
      <trkpt lat="4.6004080" lon="-74.2640080">
        <ele>2546.6</ele>
        <time>2018-08-11T16:32:48Z</time>
      </trkpt>
      <trkpt lat="4.6003600" lon="-74.2640170">
        <ele>2546.8</ele>
        <time>2018-08-11T16:32:49Z</time>
      </trkpt>
      <trkpt lat="4.6003100" lon="-74.2640270">
        <ele>2547.1</ele>
        <time>2018-08-11T16:32:50Z</time>
      </trkpt>
      <trkpt lat="4.6002600" lon="-74.2640370">
        <ele>2547.5</ele>
        <time>2018-08-11T16:32:51Z</time>
      </trkpt>
      <trkpt lat="4.6002100" lon="-74.2640470">
        <ele>2548.1</ele>
        <time>2018-08-11T16:32:52Z</time>
      </trkpt>
      <trkpt lat="4.6001600" lon="-74.2640530">
        <ele>2549.1</ele>
        <time>2018-08-11T16:32:53Z</time>
      </trkpt>
      <trkpt lat="4.6001100" lon="-74.2640650">
        <ele>2549.6</ele>
        <time>2018-08-11T16:32:54Z</time>
      </trkpt>
      <trkpt lat="4.6000600" lon="-74.2640730">
        <ele>2549.6</ele>
        <time>2018-08-11T16:32:55Z</time>
      </trkpt>
      <trkpt lat="4.6000120" lon="-74.2640780">
        <ele>2549.5</ele>
        <time>2018-08-11T16:32:56Z</time>
      </trkpt>
      <trkpt lat="4.5999630" lon="-74.2640850">
        <ele>2549.5</ele>
        <time>2018-08-11T16:32:57Z</time>
      </trkpt>
      <trkpt lat="4.5999120" lon="-74.2640900">
        <ele>2549.7</ele>
        <time>2018-08-11T16:32:58Z</time>
      </trkpt>
      <trkpt lat="4.5998600" lon="-74.2640930">
        <ele>2550.7</ele>
        <time>2018-08-11T16:32:59Z</time>
      </trkpt>
      <trkpt lat="4.5998080" lon="-74.2641000">
        <ele>2551.3</ele>
        <time>2018-08-11T16:33:00Z</time>
      </trkpt>
      <trkpt lat="4.5997580" lon="-74.2641050">
        <ele>2552.0</ele>
        <time>2018-08-11T16:33:01Z</time>
      </trkpt>
      <trkpt lat="4.5997070" lon="-74.2641120">
        <ele>2552.3</ele>
        <time>2018-08-11T16:33:02Z</time>
      </trkpt>
      <trkpt lat="4.5996570" lon="-74.2641180">
        <ele>2552.6</ele>
        <time>2018-08-11T16:33:03Z</time>
      </trkpt>
      <trkpt lat="4.5996050" lon="-74.2641220">
        <ele>2553.1</ele>
        <time>2018-08-11T16:33:04Z</time>
      </trkpt>
      <trkpt lat="4.5995530" lon="-74.2641250">
        <ele>2553.6</ele>
        <time>2018-08-11T16:33:05Z</time>
      </trkpt>
      <trkpt lat="4.5995050" lon="-74.2641330">
        <ele>2554.1</ele>
        <time>2018-08-11T16:33:06Z</time>
      </trkpt>
      <trkpt lat="4.5994550" lon="-74.2641400">
        <ele>2554.7</ele>
        <time>2018-08-11T16:33:07Z</time>
      </trkpt>
      <trkpt lat="4.5994070" lon="-74.2641450">
        <ele>2555.7</ele>
        <time>2018-08-11T16:33:08Z</time>
      </trkpt>
      <trkpt lat="4.5993570" lon="-74.2641520">
        <ele>2556.1</ele>
        <time>2018-08-11T16:33:09Z</time>
      </trkpt>
      <trkpt lat="4.5993070" lon="-74.2641550">
        <ele>2556.8</ele>
        <time>2018-08-11T16:33:10Z</time>
      </trkpt>
      <trkpt lat="4.5992570" lon="-74.2641600">
        <ele>2557.1</ele>
        <time>2018-08-11T16:33:11Z</time>
      </trkpt>
      <trkpt lat="4.5992080" lon="-74.2641600">
        <ele>2557.4</ele>
        <time>2018-08-11T16:33:12Z</time>
      </trkpt>
      <trkpt lat="4.5991600" lon="-74.2641600">
        <ele>2557.7</ele>
        <time>2018-08-11T16:33:13Z</time>
      </trkpt>
      <trkpt lat="4.5991120" lon="-74.2641580">
        <ele>2558.0</ele>
        <time>2018-08-11T16:33:14Z</time>
      </trkpt>
      <trkpt lat="4.5990630" lon="-74.2641580">
        <ele>2558.3</ele>
        <time>2018-08-11T16:33:15Z</time>
      </trkpt>
      <trkpt lat="4.5990130" lon="-74.2641580">
        <ele>2558.5</ele>
        <time>2018-08-11T16:33:16Z</time>
      </trkpt>
      <trkpt lat="4.5989670" lon="-74.2641570">
        <ele>2558.5</ele>
        <time>2018-08-11T16:33:17Z</time>
      </trkpt>
      <trkpt lat="4.5989180" lon="-74.2641550">
        <ele>2558.2</ele>
        <time>2018-08-11T16:33:18Z</time>
      </trkpt>
      <trkpt lat="4.5988720" lon="-74.2641500">
        <ele>2557.8</ele>
        <time>2018-08-11T16:33:19Z</time>
      </trkpt>
      <trkpt lat="4.5988220" lon="-74.2641420">
        <ele>2557.0</ele>
        <time>2018-08-11T16:33:20Z</time>
      </trkpt>
      <trkpt lat="4.5987700" lon="-74.2641380">
        <ele>2556.4</ele>
        <time>2018-08-11T16:33:21Z</time>
      </trkpt>
      <trkpt lat="4.5987180" lon="-74.2641350">
        <ele>2555.8</ele>
        <time>2018-08-11T16:33:22Z</time>
      </trkpt>
      <trkpt lat="4.5986670" lon="-74.2641320">
        <ele>2554.7</ele>
        <time>2018-08-11T16:33:23Z</time>
      </trkpt>
      <trkpt lat="4.5986150" lon="-74.2641280">
        <ele>2554.2</ele>
        <time>2018-08-11T16:33:24Z</time>
      </trkpt>
      <trkpt lat="4.5985630" lon="-74.2641250">
        <ele>2553.8</ele>
        <time>2018-08-11T16:33:25Z</time>
      </trkpt>
      <trkpt lat="4.5985120" lon="-74.2641220">
        <ele>2553.4</ele>
        <time>2018-08-11T16:33:26Z</time>
      </trkpt>
      <trkpt lat="4.5984600" lon="-74.2641200">
        <ele>2553.1</ele>
        <time>2018-08-11T16:33:27Z</time>
      </trkpt>
      <trkpt lat="4.5984070" lon="-74.2641130">
        <ele>2552.9</ele>
        <time>2018-08-11T16:33:28Z</time>
      </trkpt>
      <trkpt lat="4.5983570" lon="-74.2641080">
        <ele>2553.0</ele>
        <time>2018-08-11T16:33:29Z</time>
      </trkpt>
      <trkpt lat="4.5983050" lon="-74.2641030">
        <ele>2553.4</ele>
        <time>2018-08-11T16:33:30Z</time>
      </trkpt>
      <trkpt lat="4.5982550" lon="-74.2640980">
        <ele>2553.6</ele>
        <time>2018-08-11T16:33:31Z</time>
      </trkpt>
      <trkpt lat="4.5982050" lon="-74.2640920">
        <ele>2553.7</ele>
        <time>2018-08-11T16:33:32Z</time>
      </trkpt>
      <trkpt lat="4.5981530" lon="-74.2640850">
        <ele>2553.7</ele>
        <time>2018-08-11T16:33:33Z</time>
      </trkpt>
      <trkpt lat="4.5981020" lon="-74.2640800">
        <ele>2553.7</ele>
        <time>2018-08-11T16:33:34Z</time>
      </trkpt>
      <trkpt lat="4.5980500" lon="-74.2640720">
        <ele>2553.9</ele>
        <time>2018-08-11T16:33:35Z</time>
      </trkpt>
      <trkpt lat="4.5980000" lon="-74.2640630">
        <ele>2554.2</ele>
        <time>2018-08-11T16:33:36Z</time>
      </trkpt>
      <trkpt lat="4.5979500" lon="-74.2640570">
        <ele>2554.1</ele>
        <time>2018-08-11T16:33:37Z</time>
      </trkpt>
      <trkpt lat="4.5979020" lon="-74.2640480">
        <ele>2554.3</ele>
        <time>2018-08-11T16:33:38Z</time>
      </trkpt>
      <trkpt lat="4.5978530" lon="-74.2640400">
        <ele>2554.4</ele>
        <time>2018-08-11T16:33:39Z</time>
      </trkpt>
      <trkpt lat="4.5978050" lon="-74.2640300">
        <ele>2554.4</ele>
        <time>2018-08-11T16:33:40Z</time>
      </trkpt>
      <trkpt lat="4.5977550" lon="-74.2640170">
        <ele>2554.5</ele>
        <time>2018-08-11T16:33:41Z</time>
      </trkpt>
      <trkpt lat="4.5977080" lon="-74.2640030">
        <ele>2554.5</ele>
        <time>2018-08-11T16:33:42Z</time>
      </trkpt>
      <trkpt lat="4.5976600" lon="-74.2639900">
        <ele>2554.9</ele>
        <time>2018-08-11T16:33:43Z</time>
      </trkpt>
      <trkpt lat="4.5976130" lon="-74.2639780">
        <ele>2555.3</ele>
        <time>2018-08-11T16:33:44Z</time>
      </trkpt>
      <trkpt lat="4.5975650" lon="-74.2639630">
        <ele>2555.7</ele>
        <time>2018-08-11T16:33:45Z</time>
      </trkpt>
      <trkpt lat="4.5975180" lon="-74.2639500">
        <ele>2556.0</ele>
        <time>2018-08-11T16:33:46Z</time>
      </trkpt>
      <trkpt lat="4.5974700" lon="-74.2639370">
        <ele>2556.5</ele>
        <time>2018-08-11T16:33:47Z</time>
      </trkpt>
      <trkpt lat="4.5974220" lon="-74.2639230">
        <ele>2556.7</ele>
        <time>2018-08-11T16:33:48Z</time>
      </trkpt>
      <trkpt lat="4.5973730" lon="-74.2639080">
        <ele>2556.9</ele>
        <time>2018-08-11T16:33:49Z</time>
      </trkpt>
      <trkpt lat="4.5973230" lon="-74.2638950">
        <ele>2557.1</ele>
        <time>2018-08-11T16:33:50Z</time>
      </trkpt>
      <trkpt lat="4.5972730" lon="-74.2638780">
        <ele>2557.2</ele>
        <time>2018-08-11T16:33:51Z</time>
      </trkpt>
      <trkpt lat="4.5972230" lon="-74.2638630">
        <ele>2557.6</ele>
        <time>2018-08-11T16:33:52Z</time>
      </trkpt>
      <trkpt lat="4.5971720" lon="-74.2638470">
        <ele>2558.6</ele>
        <time>2018-08-11T16:33:53Z</time>
      </trkpt>
      <trkpt lat="4.5971200" lon="-74.2638300">
        <ele>2559.0</ele>
        <time>2018-08-11T16:33:54Z</time>
      </trkpt>
      <trkpt lat="4.5970700" lon="-74.2638130">
        <ele>2559.4</ele>
        <time>2018-08-11T16:33:55Z</time>
      </trkpt>
      <trkpt lat="4.5970180" lon="-74.2637950">
        <ele>2559.3</ele>
        <time>2018-08-11T16:33:56Z</time>
      </trkpt>
      <trkpt lat="4.5969650" lon="-74.2637780">
        <ele>2559.4</ele>
        <time>2018-08-11T16:33:57Z</time>
      </trkpt>
      <trkpt lat="4.5969150" lon="-74.2637630">
        <ele>2559.3</ele>
        <time>2018-08-11T16:33:58Z</time>
      </trkpt>
      <trkpt lat="4.5968630" lon="-74.2637480">
        <ele>2558.7</ele>
        <time>2018-08-11T16:33:59Z</time>
      </trkpt>
      <trkpt lat="4.5968120" lon="-74.2637320">
        <ele>2558.4</ele>
        <time>2018-08-11T16:34:00Z</time>
      </trkpt>
      <trkpt lat="4.5967600" lon="-74.2637150">
        <ele>2558.0</ele>
        <time>2018-08-11T16:34:01Z</time>
      </trkpt>
      <trkpt lat="4.5967080" lon="-74.2636970">
        <ele>2557.8</ele>
        <time>2018-08-11T16:34:02Z</time>
      </trkpt>
      <trkpt lat="4.5966550" lon="-74.2636800">
        <ele>2557.8</ele>
        <time>2018-08-11T16:34:03Z</time>
      </trkpt>
      <trkpt lat="4.5966020" lon="-74.2636630">
        <ele>2557.6</ele>
        <time>2018-08-11T16:34:04Z</time>
      </trkpt>
      <trkpt lat="4.5965500" lon="-74.2636450">
        <ele>2557.5</ele>
        <time>2018-08-11T16:34:05Z</time>
      </trkpt>
      <trkpt lat="4.5964970" lon="-74.2636250">
        <ele>2557.1</ele>
        <time>2018-08-11T16:34:06Z</time>
      </trkpt>
      <trkpt lat="4.5964430" lon="-74.2636050">
        <ele>2556.9</ele>
        <time>2018-08-11T16:34:07Z</time>
      </trkpt>
      <trkpt lat="4.5963880" lon="-74.2635850">
        <ele>2556.9</ele>
        <time>2018-08-11T16:34:08Z</time>
      </trkpt>
      <trkpt lat="4.5963330" lon="-74.2635670">
        <ele>2556.8</ele>
        <time>2018-08-11T16:34:09Z</time>
      </trkpt>
      <trkpt lat="4.5962780" lon="-74.2635480">
        <ele>2556.6</ele>
        <time>2018-08-11T16:34:10Z</time>
      </trkpt>
      <trkpt lat="4.5962250" lon="-74.2635280">
        <ele>2555.9</ele>
        <time>2018-08-11T16:34:11Z</time>
      </trkpt>
      <trkpt lat="4.5961730" lon="-74.2635080">
        <ele>2555.5</ele>
        <time>2018-08-11T16:34:12Z</time>
      </trkpt>
      <trkpt lat="4.5961230" lon="-74.2634850">
        <ele>2555.0</ele>
        <time>2018-08-11T16:34:13Z</time>
      </trkpt>
      <trkpt lat="4.5960720" lon="-74.2634650">
        <ele>2554.7</ele>
        <time>2018-08-11T16:34:14Z</time>
      </trkpt>
      <trkpt lat="4.5960180" lon="-74.2634450">
        <ele>2554.3</ele>
        <time>2018-08-11T16:34:15Z</time>
      </trkpt>
      <trkpt lat="4.5959670" lon="-74.2634280">
        <ele>2554.2</ele>
        <time>2018-08-11T16:34:16Z</time>
      </trkpt>
      <trkpt lat="4.5959170" lon="-74.2634100">
        <ele>2553.9</ele>
        <time>2018-08-11T16:34:17Z</time>
      </trkpt>
      <trkpt lat="4.5958670" lon="-74.2633920">
        <ele>2554.0</ele>
        <time>2018-08-11T16:34:18Z</time>
      </trkpt>
      <trkpt lat="4.5958170" lon="-74.2633730">
        <ele>2554.2</ele>
        <time>2018-08-11T16:34:19Z</time>
      </trkpt>
      <trkpt lat="4.5957680" lon="-74.2633550">
        <ele>2554.2</ele>
        <time>2018-08-11T16:34:20Z</time>
      </trkpt>
      <trkpt lat="4.5957200" lon="-74.2633370">
        <ele>2554.5</ele>
        <time>2018-08-11T16:34:21Z</time>
      </trkpt>
      <trkpt lat="4.5956720" lon="-74.2633200">
        <ele>2554.7</ele>
        <time>2018-08-11T16:34:22Z</time>
      </trkpt>
      <trkpt lat="4.5956250" lon="-74.2633070">
        <ele>2554.8</ele>
        <time>2018-08-11T16:34:23Z</time>
      </trkpt>
      <trkpt lat="4.5955770" lon="-74.2632920">
        <ele>2554.8</ele>
        <time>2018-08-11T16:34:24Z</time>
      </trkpt>
      <trkpt lat="4.5955300" lon="-74.2632770">
        <ele>2555.1</ele>
        <time>2018-08-11T16:34:25Z</time>
      </trkpt>
      <trkpt lat="4.5954820" lon="-74.2632620">
        <ele>2555.3</ele>
        <time>2018-08-11T16:34:26Z</time>
      </trkpt>
      <trkpt lat="4.5954330" lon="-74.2632450">
        <ele>2555.6</ele>
        <time>2018-08-11T16:34:27Z</time>
      </trkpt>
      <trkpt lat="4.5953850" lon="-74.2632300">
        <ele>2556.3</ele>
        <time>2018-08-11T16:34:28Z</time>
      </trkpt>
      <trkpt lat="4.5953370" lon="-74.2632130">
        <ele>2556.6</ele>
        <time>2018-08-11T16:34:29Z</time>
      </trkpt>
      <trkpt lat="4.5952900" lon="-74.2631950">
        <ele>2558.0</ele>
        <time>2018-08-11T16:34:30Z</time>
      </trkpt>
      <trkpt lat="4.5952420" lon="-74.2631770">
        <ele>2558.6</ele>
        <time>2018-08-11T16:34:31Z</time>
      </trkpt>
      <trkpt lat="4.5951950" lon="-74.2631580">
        <ele>2559.1</ele>
        <time>2018-08-11T16:34:32Z</time>
      </trkpt>
      <trkpt lat="4.5951480" lon="-74.2631380">
        <ele>2560.3</ele>
        <time>2018-08-11T16:34:33Z</time>
      </trkpt>
      <trkpt lat="4.5951020" lon="-74.2631230">
        <ele>2560.7</ele>
        <time>2018-08-11T16:34:34Z</time>
      </trkpt>
      <trkpt lat="4.5950530" lon="-74.2631030">
        <ele>2561.8</ele>
        <time>2018-08-11T16:34:35Z</time>
      </trkpt>
      <trkpt lat="4.5950100" lon="-74.2630870">
        <ele>2562.1</ele>
        <time>2018-08-11T16:34:36Z</time>
      </trkpt>
      <trkpt lat="4.5949650" lon="-74.2630680">
        <ele>2562.9</ele>
        <time>2018-08-11T16:34:37Z</time>
      </trkpt>
      <trkpt lat="4.5949220" lon="-74.2630500">
        <ele>2563.2</ele>
        <time>2018-08-11T16:34:38Z</time>
      </trkpt>
      <trkpt lat="4.5948770" lon="-74.2630370">
        <ele>2563.5</ele>
        <time>2018-08-11T16:34:39Z</time>
      </trkpt>
      <trkpt lat="4.5948330" lon="-74.2630220">
        <ele>2564.1</ele>
        <time>2018-08-11T16:34:40Z</time>
      </trkpt>
      <trkpt lat="4.5947900" lon="-74.2630050">
        <ele>2564.4</ele>
        <time>2018-08-11T16:34:41Z</time>
      </trkpt>
      <trkpt lat="4.5947430" lon="-74.2629880">
        <ele>2564.7</ele>
        <time>2018-08-11T16:34:42Z</time>
      </trkpt>
      <trkpt lat="4.5946970" lon="-74.2629700">
        <ele>2565.3</ele>
        <time>2018-08-11T16:34:43Z</time>
      </trkpt>
      <trkpt lat="4.5946570" lon="-74.2629550">
        <ele>2565.6</ele>
        <time>2018-08-11T16:34:44Z</time>
      </trkpt>
      <trkpt lat="4.5946150" lon="-74.2629420">
        <ele>2566.0</ele>
        <time>2018-08-11T16:34:45Z</time>
      </trkpt>
      <trkpt lat="4.5945750" lon="-74.2629280">
        <ele>2566.0</ele>
        <time>2018-08-11T16:34:46Z</time>
      </trkpt>
      <trkpt lat="4.5945350" lon="-74.2629150">
        <ele>2566.0</ele>
        <time>2018-08-11T16:34:47Z</time>
      </trkpt>
      <trkpt lat="4.5944970" lon="-74.2629000">
        <ele>2566.0</ele>
        <time>2018-08-11T16:34:48Z</time>
      </trkpt>
      <trkpt lat="4.5944570" lon="-74.2628870">
        <ele>2566.4</ele>
        <time>2018-08-11T16:34:49Z</time>
      </trkpt>
      <trkpt lat="4.5944170" lon="-74.2628730">
        <ele>2566.9</ele>
        <time>2018-08-11T16:34:50Z</time>
      </trkpt>
      <trkpt lat="4.5943780" lon="-74.2628580">
        <ele>2567.5</ele>
        <time>2018-08-11T16:34:51Z</time>
      </trkpt>
      <trkpt lat="4.5943400" lon="-74.2628430">
        <ele>2567.7</ele>
        <time>2018-08-11T16:34:52Z</time>
      </trkpt>
      <trkpt lat="4.5943020" lon="-74.2628320">
        <ele>2568.1</ele>
        <time>2018-08-11T16:34:53Z</time>
      </trkpt>
      <trkpt lat="4.5942650" lon="-74.2628200">
        <ele>2568.1</ele>
        <time>2018-08-11T16:34:54Z</time>
      </trkpt>
      <trkpt lat="4.5942270" lon="-74.2628080">
        <ele>2567.6</ele>
        <time>2018-08-11T16:34:55Z</time>
      </trkpt>
      <trkpt lat="4.5941920" lon="-74.2627970">
        <ele>2567.6</ele>
        <time>2018-08-11T16:34:56Z</time>
      </trkpt>
      <trkpt lat="4.5941550" lon="-74.2627870">
        <ele>2567.5</ele>
        <time>2018-08-11T16:34:57Z</time>
      </trkpt>
      <trkpt lat="4.5941180" lon="-74.2627770">
        <ele>2567.3</ele>
        <time>2018-08-11T16:34:58Z</time>
      </trkpt>
      <trkpt lat="4.5940830" lon="-74.2627650">
        <ele>2566.2</ele>
        <time>2018-08-11T16:34:59Z</time>
      </trkpt>
      <trkpt lat="4.5940480" lon="-74.2627520">
        <ele>2565.9</ele>
        <time>2018-08-11T16:35:00Z</time>
      </trkpt>
      <trkpt lat="4.5940100" lon="-74.2627400">
        <ele>2565.9</ele>
        <time>2018-08-11T16:35:01Z</time>
      </trkpt>
      <trkpt lat="4.5939720" lon="-74.2627280">
        <ele>2564.7</ele>
        <time>2018-08-11T16:35:02Z</time>
      </trkpt>
      <trkpt lat="4.5939300" lon="-74.2627150">
        <ele>2564.6</ele>
        <time>2018-08-11T16:35:03Z</time>
      </trkpt>
      <trkpt lat="4.5938900" lon="-74.2626980">
        <ele>2564.7</ele>
        <time>2018-08-11T16:35:04Z</time>
      </trkpt>
      <trkpt lat="4.5938520" lon="-74.2626850">
        <ele>2564.0</ele>
        <time>2018-08-11T16:35:05Z</time>
      </trkpt>
      <trkpt lat="4.5938130" lon="-74.2626700">
        <ele>2564.5</ele>
        <time>2018-08-11T16:35:06Z</time>
      </trkpt>
      <trkpt lat="4.5937750" lon="-74.2626550">
        <ele>2565.0</ele>
        <time>2018-08-11T16:35:07Z</time>
      </trkpt>
      <trkpt lat="4.5937350" lon="-74.2626400">
        <ele>2564.5</ele>
        <time>2018-08-11T16:35:08Z</time>
      </trkpt>
      <trkpt lat="4.5936950" lon="-74.2626220">
        <ele>2565.1</ele>
        <time>2018-08-11T16:35:09Z</time>
      </trkpt>
      <trkpt lat="4.5936530" lon="-74.2626030">
        <ele>2565.6</ele>
        <time>2018-08-11T16:35:10Z</time>
      </trkpt>
      <trkpt lat="4.5936130" lon="-74.2625880">
        <ele>2564.9</ele>
        <time>2018-08-11T16:35:11Z</time>
      </trkpt>
      <trkpt lat="4.5935750" lon="-74.2625750">
        <ele>2565.0</ele>
        <time>2018-08-11T16:35:12Z</time>
      </trkpt>
      <trkpt lat="4.5935370" lon="-74.2625630">
        <ele>2565.0</ele>
        <time>2018-08-11T16:35:13Z</time>
      </trkpt>
      <trkpt lat="4.5935000" lon="-74.2625470">
        <ele>2564.1</ele>
        <time>2018-08-11T16:35:14Z</time>
      </trkpt>
      <trkpt lat="4.5934600" lon="-74.2625350">
        <ele>2563.9</ele>
        <time>2018-08-11T16:35:15Z</time>
      </trkpt>
      <trkpt lat="4.5934220" lon="-74.2625230">
        <ele>2563.4</ele>
        <time>2018-08-11T16:35:16Z</time>
      </trkpt>
      <trkpt lat="4.5933800" lon="-74.2625070">
        <ele>2561.8</ele>
        <time>2018-08-11T16:35:17Z</time>
      </trkpt>
      <trkpt lat="4.5933380" lon="-74.2624900">
        <ele>2561.0</ele>
        <time>2018-08-11T16:35:18Z</time>
      </trkpt>
      <trkpt lat="4.5932950" lon="-74.2624730">
        <ele>2560.2</ele>
        <time>2018-08-11T16:35:19Z</time>
      </trkpt>
      <trkpt lat="4.5932530" lon="-74.2624580">
        <ele>2558.6</ele>
        <time>2018-08-11T16:35:20Z</time>
      </trkpt>
      <trkpt lat="4.5932130" lon="-74.2624470">
        <ele>2557.8</ele>
        <time>2018-08-11T16:35:21Z</time>
      </trkpt>
      <trkpt lat="4.5931730" lon="-74.2624350">
        <ele>2557.0</ele>
        <time>2018-08-11T16:35:22Z</time>
      </trkpt>
      <trkpt lat="4.5931320" lon="-74.2624230">
        <ele>2555.5</ele>
        <time>2018-08-11T16:35:23Z</time>
      </trkpt>
      <trkpt lat="4.5930920" lon="-74.2624080">
        <ele>2554.8</ele>
        <time>2018-08-11T16:35:24Z</time>
      </trkpt>
      <trkpt lat="4.5930520" lon="-74.2623920">
        <ele>2554.1</ele>
        <time>2018-08-11T16:35:25Z</time>
      </trkpt>
      <trkpt lat="4.5930100" lon="-74.2623750">
        <ele>2553.0</ele>
        <time>2018-08-11T16:35:26Z</time>
      </trkpt>
      <trkpt lat="4.5929680" lon="-74.2623580">
        <ele>2552.6</ele>
        <time>2018-08-11T16:35:27Z</time>
      </trkpt>
      <trkpt lat="4.5929280" lon="-74.2623430">
        <ele>2552.4</ele>
        <time>2018-08-11T16:35:28Z</time>
      </trkpt>
      <trkpt lat="4.5928870" lon="-74.2623280">
        <ele>2552.0</ele>
        <time>2018-08-11T16:35:29Z</time>
      </trkpt>
      <trkpt lat="4.5928470" lon="-74.2623170">
        <ele>2551.9</ele>
        <time>2018-08-11T16:35:30Z</time>
      </trkpt>
      <trkpt lat="4.5928070" lon="-74.2623050">
        <ele>2552.0</ele>
        <time>2018-08-11T16:35:31Z</time>
      </trkpt>
      <trkpt lat="4.5927680" lon="-74.2622930">
        <ele>2551.7</ele>
        <time>2018-08-11T16:35:32Z</time>
      </trkpt>
      <trkpt lat="4.5927300" lon="-74.2622800">
        <ele>2551.8</ele>
        <time>2018-08-11T16:35:33Z</time>
      </trkpt>
      <trkpt lat="4.5926930" lon="-74.2622670">
        <ele>2552.1</ele>
        <time>2018-08-11T16:35:34Z</time>
      </trkpt>
      <trkpt lat="4.5926550" lon="-74.2622530">
        <ele>2552.1</ele>
        <time>2018-08-11T16:35:35Z</time>
      </trkpt>
      <trkpt lat="4.5926130" lon="-74.2622400">
        <ele>2552.5</ele>
        <time>2018-08-11T16:35:36Z</time>
      </trkpt>
      <trkpt lat="4.5925700" lon="-74.2622280">
        <ele>2552.9</ele>
        <time>2018-08-11T16:35:37Z</time>
      </trkpt>
      <trkpt lat="4.5925270" lon="-74.2622150">
        <ele>2553.2</ele>
        <time>2018-08-11T16:35:38Z</time>
      </trkpt>
      <trkpt lat="4.5924830" lon="-74.2622000">
        <ele>2553.3</ele>
        <time>2018-08-11T16:35:39Z</time>
      </trkpt>
      <trkpt lat="4.5924400" lon="-74.2621830">
        <ele>2553.5</ele>
        <time>2018-08-11T16:35:40Z</time>
      </trkpt>
      <trkpt lat="4.5923970" lon="-74.2621650">
        <ele>2553.2</ele>
        <time>2018-08-11T16:35:41Z</time>
      </trkpt>
      <trkpt lat="4.5923520" lon="-74.2621500">
        <ele>2553.0</ele>
        <time>2018-08-11T16:35:42Z</time>
      </trkpt>
      <trkpt lat="4.5923050" lon="-74.2621350">
        <ele>2552.7</ele>
        <time>2018-08-11T16:35:43Z</time>
      </trkpt>
      <trkpt lat="4.5922580" lon="-74.2621200">
        <ele>2551.5</ele>
        <time>2018-08-11T16:35:44Z</time>
      </trkpt>
      <trkpt lat="4.5922120" lon="-74.2620980">
        <ele>2551.1</ele>
        <time>2018-08-11T16:35:45Z</time>
      </trkpt>
      <trkpt lat="4.5921650" lon="-74.2620770">
        <ele>2549.9</ele>
        <time>2018-08-11T16:35:46Z</time>
      </trkpt>
      <trkpt lat="4.5921170" lon="-74.2620600">
        <ele>2549.9</ele>
        <time>2018-08-11T16:35:47Z</time>
      </trkpt>
      <trkpt lat="4.5920700" lon="-74.2620430">
        <ele>2549.9</ele>
        <time>2018-08-11T16:35:48Z</time>
      </trkpt>
      <trkpt lat="4.5920230" lon="-74.2620280">
        <ele>2549.6</ele>
        <time>2018-08-11T16:35:49Z</time>
      </trkpt>
      <trkpt lat="4.5919770" lon="-74.2620130">
        <ele>2549.6</ele>
        <time>2018-08-11T16:35:50Z</time>
      </trkpt>
      <trkpt lat="4.5919300" lon="-74.2619950">
        <ele>2549.5</ele>
        <time>2018-08-11T16:35:51Z</time>
      </trkpt>
      <trkpt lat="4.5918830" lon="-74.2619770">
        <ele>2549.4</ele>
        <time>2018-08-11T16:35:52Z</time>
      </trkpt>
      <trkpt lat="4.5918370" lon="-74.2619600">
        <ele>2549.3</ele>
        <time>2018-08-11T16:35:53Z</time>
      </trkpt>
      <trkpt lat="4.5917900" lon="-74.2619420">
        <ele>2549.4</ele>
        <time>2018-08-11T16:35:54Z</time>
      </trkpt>
      <trkpt lat="4.5917430" lon="-74.2619230">
        <ele>2549.5</ele>
        <time>2018-08-11T16:35:55Z</time>
      </trkpt>
      <trkpt lat="4.5916950" lon="-74.2619080">
        <ele>2550.2</ele>
        <time>2018-08-11T16:35:56Z</time>
      </trkpt>
      <trkpt lat="4.5916480" lon="-74.2618920">
        <ele>2550.6</ele>
        <time>2018-08-11T16:35:57Z</time>
      </trkpt>
      <trkpt lat="4.5916000" lon="-74.2618750">
        <ele>2551.0</ele>
        <time>2018-08-11T16:35:58Z</time>
      </trkpt>
      <trkpt lat="4.5915520" lon="-74.2618580">
        <ele>2551.7</ele>
        <time>2018-08-11T16:35:59Z</time>
      </trkpt>
      <trkpt lat="4.5915050" lon="-74.2618450">
        <ele>2552.3</ele>
        <time>2018-08-11T16:36:00Z</time>
      </trkpt>
      <trkpt lat="4.5914580" lon="-74.2618300">
        <ele>2552.9</ele>
        <time>2018-08-11T16:36:01Z</time>
      </trkpt>
      <trkpt lat="4.5914120" lon="-74.2618120">
        <ele>2553.3</ele>
        <time>2018-08-11T16:36:02Z</time>
      </trkpt>
      <trkpt lat="4.5913650" lon="-74.2617950">
        <ele>2553.6</ele>
        <time>2018-08-11T16:36:03Z</time>
      </trkpt>
      <trkpt lat="4.5913170" lon="-74.2617800">
        <ele>2553.5</ele>
        <time>2018-08-11T16:36:04Z</time>
      </trkpt>
      <trkpt lat="4.5912680" lon="-74.2617630">
        <ele>2553.3</ele>
        <time>2018-08-11T16:36:05Z</time>
      </trkpt>
      <trkpt lat="4.5912180" lon="-74.2617470">
        <ele>2553.1</ele>
        <time>2018-08-11T16:36:06Z</time>
      </trkpt>
      <trkpt lat="4.5911680" lon="-74.2617280">
        <ele>2552.4</ele>
        <time>2018-08-11T16:36:07Z</time>
      </trkpt>
      <trkpt lat="4.5911170" lon="-74.2617100">
        <ele>2552.0</ele>
        <time>2018-08-11T16:36:08Z</time>
      </trkpt>
      <trkpt lat="4.5910650" lon="-74.2616920">
        <ele>2551.0</ele>
        <time>2018-08-11T16:36:09Z</time>
      </trkpt>
      <trkpt lat="4.5910130" lon="-74.2616730">
        <ele>2550.6</ele>
        <time>2018-08-11T16:36:10Z</time>
      </trkpt>
      <trkpt lat="4.5909600" lon="-74.2616530">
        <ele>2549.8</ele>
        <time>2018-08-11T16:36:11Z</time>
      </trkpt>
      <trkpt lat="4.5909050" lon="-74.2616330">
        <ele>2549.6</ele>
        <time>2018-08-11T16:36:12Z</time>
      </trkpt>
      <trkpt lat="4.5908520" lon="-74.2616130">
        <ele>2549.5</ele>
        <time>2018-08-11T16:36:13Z</time>
      </trkpt>
      <trkpt lat="4.5907970" lon="-74.2615950">
        <ele>2549.5</ele>
        <time>2018-08-11T16:36:14Z</time>
      </trkpt>
      <trkpt lat="4.5907420" lon="-74.2615750">
        <ele>2549.6</ele>
        <time>2018-08-11T16:36:15Z</time>
      </trkpt>
      <trkpt lat="4.5906880" lon="-74.2615520">
        <ele>2549.7</ele>
        <time>2018-08-11T16:36:16Z</time>
      </trkpt>
      <trkpt lat="4.5906350" lon="-74.2615280">
        <ele>2549.7</ele>
        <time>2018-08-11T16:36:17Z</time>
      </trkpt>
      <trkpt lat="4.5905850" lon="-74.2615080">
        <ele>2549.6</ele>
        <time>2018-08-11T16:36:18Z</time>
      </trkpt>
      <trkpt lat="4.5905320" lon="-74.2614870">
        <ele>2549.9</ele>
        <time>2018-08-11T16:36:19Z</time>
      </trkpt>
      <trkpt lat="4.5904780" lon="-74.2614680">
        <ele>2550.1</ele>
        <time>2018-08-11T16:36:20Z</time>
      </trkpt>
      <trkpt lat="4.5904250" lon="-74.2614500">
        <ele>2550.6</ele>
        <time>2018-08-11T16:36:21Z</time>
      </trkpt>
      <trkpt lat="4.5903730" lon="-74.2614320">
        <ele>2550.8</ele>
        <time>2018-08-11T16:36:22Z</time>
      </trkpt>
      <trkpt lat="4.5903200" lon="-74.2614100">
        <ele>2551.7</ele>
        <time>2018-08-11T16:36:23Z</time>
      </trkpt>
      <trkpt lat="4.5902680" lon="-74.2613920">
        <ele>2551.7</ele>
        <time>2018-08-11T16:36:24Z</time>
      </trkpt>
      <trkpt lat="4.5902150" lon="-74.2613730">
        <ele>2551.9</ele>
        <time>2018-08-11T16:36:25Z</time>
      </trkpt>
      <trkpt lat="4.5901630" lon="-74.2613550">
        <ele>2551.7</ele>
        <time>2018-08-11T16:36:26Z</time>
      </trkpt>
      <trkpt lat="4.5901120" lon="-74.2613350">
        <ele>2551.3</ele>
        <time>2018-08-11T16:36:27Z</time>
      </trkpt>
      <trkpt lat="4.5900600" lon="-74.2613170">
        <ele>2551.0</ele>
        <time>2018-08-11T16:36:28Z</time>
      </trkpt>
      <trkpt lat="4.5900080" lon="-74.2613000">
        <ele>2550.5</ele>
        <time>2018-08-11T16:36:29Z</time>
      </trkpt>
      <trkpt lat="4.5899530" lon="-74.2612830">
        <ele>2550.5</ele>
        <time>2018-08-11T16:36:30Z</time>
      </trkpt>
      <trkpt lat="4.5899020" lon="-74.2612630">
        <ele>2550.2</ele>
        <time>2018-08-11T16:36:31Z</time>
      </trkpt>
      <trkpt lat="4.5898500" lon="-74.2612430">
        <ele>2550.1</ele>
        <time>2018-08-11T16:36:32Z</time>
      </trkpt>
      <trkpt lat="4.5897980" lon="-74.2612250">
        <ele>2549.8</ele>
        <time>2018-08-11T16:36:33Z</time>
      </trkpt>
      <trkpt lat="4.5897470" lon="-74.2612070">
        <ele>2549.7</ele>
        <time>2018-08-11T16:36:34Z</time>
      </trkpt>
      <trkpt lat="4.5896950" lon="-74.2611900">
        <ele>2549.6</ele>
        <time>2018-08-11T16:36:35Z</time>
      </trkpt>
      <trkpt lat="4.5896400" lon="-74.2611730">
        <ele>2549.3</ele>
        <time>2018-08-11T16:36:36Z</time>
      </trkpt>
      <trkpt lat="4.5895880" lon="-74.2611550">
        <ele>2549.1</ele>
        <time>2018-08-11T16:36:37Z</time>
      </trkpt>
      <trkpt lat="4.5895370" lon="-74.2611350">
        <ele>2549.0</ele>
        <time>2018-08-11T16:36:38Z</time>
      </trkpt>
      <trkpt lat="4.5894830" lon="-74.2611180">
        <ele>2548.8</ele>
        <time>2018-08-11T16:36:39Z</time>
      </trkpt>
      <trkpt lat="4.5894300" lon="-74.2611000">
        <ele>2548.8</ele>
        <time>2018-08-11T16:36:40Z</time>
      </trkpt>
      <trkpt lat="4.5893750" lon="-74.2610830">
        <ele>2549.1</ele>
        <time>2018-08-11T16:36:41Z</time>
      </trkpt>
      <trkpt lat="4.5893200" lon="-74.2610670">
        <ele>2549.1</ele>
        <time>2018-08-11T16:36:42Z</time>
      </trkpt>
      <trkpt lat="4.5892650" lon="-74.2610500">
        <ele>2549.5</ele>
        <time>2018-08-11T16:36:43Z</time>
      </trkpt>
      <trkpt lat="4.5892100" lon="-74.2610300">
        <ele>2549.4</ele>
        <time>2018-08-11T16:36:44Z</time>
      </trkpt>
      <trkpt lat="4.5891550" lon="-74.2610100">
        <ele>2549.6</ele>
        <time>2018-08-11T16:36:45Z</time>
      </trkpt>
      <trkpt lat="4.5891020" lon="-74.2609930">
        <ele>2549.3</ele>
        <time>2018-08-11T16:36:46Z</time>
      </trkpt>
      <trkpt lat="4.5890470" lon="-74.2609780">
        <ele>2548.9</ele>
        <time>2018-08-11T16:36:47Z</time>
      </trkpt>
      <trkpt lat="4.5889930" lon="-74.2609630">
        <ele>2549.0</ele>
        <time>2018-08-11T16:36:48Z</time>
      </trkpt>
      <trkpt lat="4.5889400" lon="-74.2609480">
        <ele>2549.2</ele>
        <time>2018-08-11T16:36:49Z</time>
      </trkpt>
      <trkpt lat="4.5888880" lon="-74.2609320">
        <ele>2549.5</ele>
        <time>2018-08-11T16:36:50Z</time>
      </trkpt>
      <trkpt lat="4.5888350" lon="-74.2609130">
        <ele>2549.8</ele>
        <time>2018-08-11T16:36:51Z</time>
      </trkpt>
      <trkpt lat="4.5887820" lon="-74.2608950">
        <ele>2549.8</ele>
        <time>2018-08-11T16:36:52Z</time>
      </trkpt>
      <trkpt lat="4.5887250" lon="-74.2608780">
        <ele>2549.7</ele>
        <time>2018-08-11T16:36:53Z</time>
      </trkpt>
      <trkpt lat="4.5886700" lon="-74.2608620">
        <ele>2549.6</ele>
        <time>2018-08-11T16:36:54Z</time>
      </trkpt>
      <trkpt lat="4.5886130" lon="-74.2608450">
        <ele>2549.4</ele>
        <time>2018-08-11T16:36:55Z</time>
      </trkpt>
      <trkpt lat="4.5885550" lon="-74.2608320">
        <ele>2549.5</ele>
        <time>2018-08-11T16:36:56Z</time>
      </trkpt>
      <trkpt lat="4.5884970" lon="-74.2608170">
        <ele>2549.1</ele>
        <time>2018-08-11T16:36:57Z</time>
      </trkpt>
      <trkpt lat="4.5884380" lon="-74.2608020">
        <ele>2548.2</ele>
        <time>2018-08-11T16:36:58Z</time>
      </trkpt>
      <trkpt lat="4.5883780" lon="-74.2607850">
        <ele>2547.9</ele>
        <time>2018-08-11T16:36:59Z</time>
      </trkpt>
      <trkpt lat="4.5883180" lon="-74.2607720">
        <ele>2547.4</ele>
        <time>2018-08-11T16:37:00Z</time>
      </trkpt>
      <trkpt lat="4.5882570" lon="-74.2607570">
        <ele>2546.6</ele>
        <time>2018-08-11T16:37:01Z</time>
      </trkpt>
      <trkpt lat="4.5881950" lon="-74.2607420">
        <ele>2546.9</ele>
        <time>2018-08-11T16:37:02Z</time>
      </trkpt>
      <trkpt lat="4.5881330" lon="-74.2607300">
        <ele>2546.2</ele>
        <time>2018-08-11T16:37:03Z</time>
      </trkpt>
      <trkpt lat="4.5880700" lon="-74.2607180">
        <ele>2546.0</ele>
        <time>2018-08-11T16:37:04Z</time>
      </trkpt>
      <trkpt lat="4.5880080" lon="-74.2607080">
        <ele>2545.4</ele>
        <time>2018-08-11T16:37:05Z</time>
      </trkpt>
      <trkpt lat="4.5879470" lon="-74.2606980">
        <ele>2545.2</ele>
        <time>2018-08-11T16:37:06Z</time>
      </trkpt>
      <trkpt lat="4.5878850" lon="-74.2606880">
        <ele>2544.9</ele>
        <time>2018-08-11T16:37:07Z</time>
      </trkpt>
      <trkpt lat="4.5878250" lon="-74.2606780">
        <ele>2544.8</ele>
        <time>2018-08-11T16:37:08Z</time>
      </trkpt>
      <trkpt lat="4.5877630" lon="-74.2606700">
        <ele>2544.8</ele>
        <time>2018-08-11T16:37:09Z</time>
      </trkpt>
      <trkpt lat="4.5877050" lon="-74.2606650">
        <ele>2544.9</ele>
        <time>2018-08-11T16:37:10Z</time>
      </trkpt>
      <trkpt lat="4.5876470" lon="-74.2606580">
        <ele>2544.9</ele>
        <time>2018-08-11T16:37:11Z</time>
      </trkpt>
      <trkpt lat="4.5875900" lon="-74.2606520">
        <ele>2544.9</ele>
        <time>2018-08-11T16:37:12Z</time>
      </trkpt>
      <trkpt lat="4.5875330" lon="-74.2606450">
        <ele>2544.9</ele>
        <time>2018-08-11T16:37:13Z</time>
      </trkpt>
      <trkpt lat="4.5874780" lon="-74.2606380">
        <ele>2544.9</ele>
        <time>2018-08-11T16:37:14Z</time>
      </trkpt>
      <trkpt lat="4.5874220" lon="-74.2606330">
        <ele>2544.9</ele>
        <time>2018-08-11T16:37:15Z</time>
      </trkpt>
      <trkpt lat="4.5873670" lon="-74.2606280">
        <ele>2544.9</ele>
        <time>2018-08-11T16:37:16Z</time>
      </trkpt>
      <trkpt lat="4.5873100" lon="-74.2606280">
        <ele>2545.0</ele>
        <time>2018-08-11T16:37:17Z</time>
      </trkpt>
      <trkpt lat="4.5872530" lon="-74.2606220">
        <ele>2545.1</ele>
        <time>2018-08-11T16:37:18Z</time>
      </trkpt>
      <trkpt lat="4.5871970" lon="-74.2606170">
        <ele>2545.6</ele>
        <time>2018-08-11T16:37:19Z</time>
      </trkpt>
      <trkpt lat="4.5871420" lon="-74.2606080">
        <ele>2546.0</ele>
        <time>2018-08-11T16:37:20Z</time>
      </trkpt>
      <trkpt lat="4.5870870" lon="-74.2606050">
        <ele>2546.5</ele>
        <time>2018-08-11T16:37:21Z</time>
      </trkpt>
      <trkpt lat="4.5870320" lon="-74.2606030">
        <ele>2547.5</ele>
        <time>2018-08-11T16:37:22Z</time>
      </trkpt>
      <trkpt lat="4.5869780" lon="-74.2606030">
        <ele>2548.0</ele>
        <time>2018-08-11T16:37:23Z</time>
      </trkpt>
      <trkpt lat="4.5869250" lon="-74.2606000">
        <ele>2548.4</ele>
        <time>2018-08-11T16:37:24Z</time>
      </trkpt>
      <trkpt lat="4.5868770" lon="-74.2606030">
        <ele>2548.7</ele>
        <time>2018-08-11T16:37:25Z</time>
      </trkpt>
      <trkpt lat="4.5868250" lon="-74.2606020">
        <ele>2548.9</ele>
        <time>2018-08-11T16:37:26Z</time>
      </trkpt>
      <trkpt lat="4.5867750" lon="-74.2605980">
        <ele>2549.4</ele>
        <time>2018-08-11T16:37:27Z</time>
      </trkpt>
      <trkpt lat="4.5867270" lon="-74.2605930">
        <ele>2549.7</ele>
        <time>2018-08-11T16:37:28Z</time>
      </trkpt>
      <trkpt lat="4.5866780" lon="-74.2605950">
        <ele>2550.0</ele>
        <time>2018-08-11T16:37:29Z</time>
      </trkpt>
      <trkpt lat="4.5866320" lon="-74.2606050">
        <ele>2550.2</ele>
        <time>2018-08-11T16:37:30Z</time>
      </trkpt>
      <trkpt lat="4.5865830" lon="-74.2606180">
        <ele>2550.3</ele>
        <time>2018-08-11T16:37:31Z</time>
      </trkpt>
      <trkpt lat="4.5865320" lon="-74.2606280">
        <ele>2550.0</ele>
        <time>2018-08-11T16:37:32Z</time>
      </trkpt>
      <trkpt lat="4.5864770" lon="-74.2606320">
        <ele>2550.0</ele>
        <time>2018-08-11T16:37:33Z</time>
      </trkpt>
      <trkpt lat="4.5864220" lon="-74.2606300">
        <ele>2550.0</ele>
        <time>2018-08-11T16:37:34Z</time>
      </trkpt>
      <trkpt lat="4.5863650" lon="-74.2606320">
        <ele>2550.0</ele>
        <time>2018-08-11T16:37:35Z</time>
      </trkpt>
      <trkpt lat="4.5863080" lon="-74.2606420">
        <ele>2550.1</ele>
        <time>2018-08-11T16:37:36Z</time>
      </trkpt>
      <trkpt lat="4.5862520" lon="-74.2606500">
        <ele>2550.1</ele>
        <time>2018-08-11T16:37:37Z</time>
      </trkpt>
      <trkpt lat="4.5861950" lon="-74.2606570">
        <ele>2550.1</ele>
        <time>2018-08-11T16:37:38Z</time>
      </trkpt>
      <trkpt lat="4.5861420" lon="-74.2606620">
        <ele>2550.1</ele>
        <time>2018-08-11T16:37:39Z</time>
      </trkpt>
      <trkpt lat="4.5860900" lon="-74.2606670">
        <ele>2550.1</ele>
        <time>2018-08-11T16:37:40Z</time>
      </trkpt>
      <trkpt lat="4.5860370" lon="-74.2606720">
        <ele>2550.2</ele>
        <time>2018-08-11T16:37:41Z</time>
      </trkpt>
      <trkpt lat="4.5859830" lon="-74.2606780">
        <ele>2550.2</ele>
        <time>2018-08-11T16:37:42Z</time>
      </trkpt>
      <trkpt lat="4.5859300" lon="-74.2606850">
        <ele>2550.1</ele>
        <time>2018-08-11T16:37:43Z</time>
      </trkpt>
      <trkpt lat="4.5858770" lon="-74.2606900">
        <ele>2550.0</ele>
        <time>2018-08-11T16:37:44Z</time>
      </trkpt>
      <trkpt lat="4.5858270" lon="-74.2606980">
        <ele>2549.9</ele>
        <time>2018-08-11T16:37:45Z</time>
      </trkpt>
      <trkpt lat="4.5857770" lon="-74.2607100">
        <ele>2549.9</ele>
        <time>2018-08-11T16:37:46Z</time>
      </trkpt>
      <trkpt lat="4.5857270" lon="-74.2607200">
        <ele>2550.2</ele>
        <time>2018-08-11T16:37:47Z</time>
      </trkpt>
      <trkpt lat="4.5856770" lon="-74.2607280">
        <ele>2550.6</ele>
        <time>2018-08-11T16:37:48Z</time>
      </trkpt>
      <trkpt lat="4.5856250" lon="-74.2607330">
        <ele>2550.9</ele>
        <time>2018-08-11T16:37:49Z</time>
      </trkpt>
      <trkpt lat="4.5855750" lon="-74.2607420">
        <ele>2551.4</ele>
        <time>2018-08-11T16:37:50Z</time>
      </trkpt>
      <trkpt lat="4.5855270" lon="-74.2607520">
        <ele>2551.5</ele>
        <time>2018-08-11T16:37:51Z</time>
      </trkpt>
      <trkpt lat="4.5854780" lon="-74.2607620">
        <ele>2551.3</ele>
        <time>2018-08-11T16:37:52Z</time>
      </trkpt>
      <trkpt lat="4.5854280" lon="-74.2607750">
        <ele>2551.3</ele>
        <time>2018-08-11T16:37:53Z</time>
      </trkpt>
      <trkpt lat="4.5853800" lon="-74.2607880">
        <ele>2551.4</ele>
        <time>2018-08-11T16:37:54Z</time>
      </trkpt>
      <trkpt lat="4.5853330" lon="-74.2608000">
        <ele>2551.7</ele>
        <time>2018-08-11T16:37:55Z</time>
      </trkpt>
      <trkpt lat="4.5852870" lon="-74.2608080">
        <ele>2552.0</ele>
        <time>2018-08-11T16:37:56Z</time>
      </trkpt>
      <trkpt lat="4.5852420" lon="-74.2608180">
        <ele>2552.3</ele>
        <time>2018-08-11T16:37:57Z</time>
      </trkpt>
      <trkpt lat="4.5851970" lon="-74.2608300">
        <ele>2552.7</ele>
        <time>2018-08-11T16:37:58Z</time>
      </trkpt>
      <trkpt lat="4.5851520" lon="-74.2608450">
        <ele>2553.2</ele>
        <time>2018-08-11T16:37:59Z</time>
      </trkpt>
      <trkpt lat="4.5851070" lon="-74.2608620">
        <ele>2553.5</ele>
        <time>2018-08-11T16:38:00Z</time>
      </trkpt>
      <trkpt lat="4.5850580" lon="-74.2608750">
        <ele>2553.5</ele>
        <time>2018-08-11T16:38:01Z</time>
      </trkpt>
      <trkpt lat="4.5850100" lon="-74.2608900">
        <ele>2553.5</ele>
        <time>2018-08-11T16:38:02Z</time>
      </trkpt>
      <trkpt lat="4.5849600" lon="-74.2609030">
        <ele>2553.5</ele>
        <time>2018-08-11T16:38:03Z</time>
      </trkpt>
      <trkpt lat="4.5849100" lon="-74.2609150">
        <ele>2553.4</ele>
        <time>2018-08-11T16:38:04Z</time>
      </trkpt>
      <trkpt lat="4.5848620" lon="-74.2609280">
        <ele>2553.4</ele>
        <time>2018-08-11T16:38:05Z</time>
      </trkpt>
      <trkpt lat="4.5848100" lon="-74.2609450">
        <ele>2553.4</ele>
        <time>2018-08-11T16:38:06Z</time>
      </trkpt>
      <trkpt lat="4.5847600" lon="-74.2609580">
        <ele>2553.4</ele>
        <time>2018-08-11T16:38:07Z</time>
      </trkpt>
      <trkpt lat="4.5847070" lon="-74.2609700">
        <ele>2553.5</ele>
        <time>2018-08-11T16:38:08Z</time>
      </trkpt>
      <trkpt lat="4.5846580" lon="-74.2609870">
        <ele>2553.5</ele>
        <time>2018-08-11T16:38:09Z</time>
      </trkpt>
      <trkpt lat="4.5846120" lon="-74.2610020">
        <ele>2553.6</ele>
        <time>2018-08-11T16:38:10Z</time>
      </trkpt>
      <trkpt lat="4.5845630" lon="-74.2610170">
        <ele>2553.6</ele>
        <time>2018-08-11T16:38:11Z</time>
      </trkpt>
      <trkpt lat="4.5845180" lon="-74.2610300">
        <ele>2553.5</ele>
        <time>2018-08-11T16:38:12Z</time>
      </trkpt>
      <trkpt lat="4.5844750" lon="-74.2610420">
        <ele>2553.4</ele>
        <time>2018-08-11T16:38:13Z</time>
      </trkpt>
      <trkpt lat="4.5844330" lon="-74.2610570">
        <ele>2553.4</ele>
        <time>2018-08-11T16:38:14Z</time>
      </trkpt>
      <trkpt lat="4.5843920" lon="-74.2610720">
        <ele>2553.2</ele>
        <time>2018-08-11T16:38:15Z</time>
      </trkpt>
      <trkpt lat="4.5843500" lon="-74.2610870">
        <ele>2552.9</ele>
        <time>2018-08-11T16:38:16Z</time>
      </trkpt>
      <trkpt lat="4.5843100" lon="-74.2611020">
        <ele>2552.7</ele>
        <time>2018-08-11T16:38:17Z</time>
      </trkpt>
      <trkpt lat="4.5842670" lon="-74.2611170">
        <ele>2552.2</ele>
        <time>2018-08-11T16:38:18Z</time>
      </trkpt>
      <trkpt lat="4.5842250" lon="-74.2611320">
        <ele>2551.6</ele>
        <time>2018-08-11T16:38:19Z</time>
      </trkpt>
      <trkpt lat="4.5841830" lon="-74.2611500">
        <ele>2551.3</ele>
        <time>2018-08-11T16:38:20Z</time>
      </trkpt>
      <trkpt lat="4.5841420" lon="-74.2611670">
        <ele>2551.0</ele>
        <time>2018-08-11T16:38:21Z</time>
      </trkpt>
      <trkpt lat="4.5840980" lon="-74.2611830">
        <ele>2550.8</ele>
        <time>2018-08-11T16:38:22Z</time>
      </trkpt>
      <trkpt lat="4.5840600" lon="-74.2612000">
        <ele>2550.9</ele>
        <time>2018-08-11T16:38:23Z</time>
      </trkpt>
      <trkpt lat="4.5840200" lon="-74.2612150">
        <ele>2550.7</ele>
        <time>2018-08-11T16:38:24Z</time>
      </trkpt>
      <trkpt lat="4.5839820" lon="-74.2612330">
        <ele>2550.7</ele>
        <time>2018-08-11T16:38:25Z</time>
      </trkpt>
      <trkpt lat="4.5839400" lon="-74.2612470">
        <ele>2550.5</ele>
        <time>2018-08-11T16:38:26Z</time>
      </trkpt>
      <trkpt lat="4.5838980" lon="-74.2612600">
        <ele>2550.4</ele>
        <time>2018-08-11T16:38:27Z</time>
      </trkpt>
      <trkpt lat="4.5838580" lon="-74.2612720">
        <ele>2550.5</ele>
        <time>2018-08-11T16:38:28Z</time>
      </trkpt>
      <trkpt lat="4.5838150" lon="-74.2612820">
        <ele>2550.7</ele>
        <time>2018-08-11T16:38:29Z</time>
      </trkpt>
      <trkpt lat="4.5837680" lon="-74.2612900">
        <ele>2551.0</ele>
        <time>2018-08-11T16:38:30Z</time>
      </trkpt>
      <trkpt lat="4.5837230" lon="-74.2613020">
        <ele>2551.3</ele>
        <time>2018-08-11T16:38:31Z</time>
      </trkpt>
      <trkpt lat="4.5836780" lon="-74.2613170">
        <ele>2551.9</ele>
        <time>2018-08-11T16:38:32Z</time>
      </trkpt>
      <trkpt lat="4.5836330" lon="-74.2613320">
        <ele>2552.1</ele>
        <time>2018-08-11T16:38:33Z</time>
      </trkpt>
      <trkpt lat="4.5835880" lon="-74.2613470">
        <ele>2552.3</ele>
        <time>2018-08-11T16:38:34Z</time>
      </trkpt>
      <trkpt lat="4.5835400" lon="-74.2613620">
        <ele>2552.8</ele>
        <time>2018-08-11T16:38:35Z</time>
      </trkpt>
      <trkpt lat="4.5834900" lon="-74.2613770">
        <ele>2553.0</ele>
        <time>2018-08-11T16:38:36Z</time>
      </trkpt>
      <trkpt lat="4.5834400" lon="-74.2613930">
        <ele>2553.5</ele>
        <time>2018-08-11T16:38:37Z</time>
      </trkpt>
      <trkpt lat="4.5833900" lon="-74.2614120">
        <ele>2554.0</ele>
        <time>2018-08-11T16:38:38Z</time>
      </trkpt>
      <trkpt lat="4.5833400" lon="-74.2614300">
        <ele>2554.3</ele>
        <time>2018-08-11T16:38:39Z</time>
      </trkpt>
      <trkpt lat="4.5832900" lon="-74.2614480">
        <ele>2554.9</ele>
        <time>2018-08-11T16:38:40Z</time>
      </trkpt>
      <trkpt lat="4.5832420" lon="-74.2614670">
        <ele>2555.2</ele>
        <time>2018-08-11T16:38:41Z</time>
      </trkpt>
      <trkpt lat="4.5831920" lon="-74.2614800">
        <ele>2555.4</ele>
        <time>2018-08-11T16:38:42Z</time>
      </trkpt>
      <trkpt lat="4.5831420" lon="-74.2614980">
        <ele>2555.7</ele>
        <time>2018-08-11T16:38:43Z</time>
      </trkpt>
      <trkpt lat="4.5830920" lon="-74.2615170">
        <ele>2555.8</ele>
        <time>2018-08-11T16:38:44Z</time>
      </trkpt>
      <trkpt lat="4.5830420" lon="-74.2615350">
        <ele>2555.6</ele>
        <time>2018-08-11T16:38:45Z</time>
      </trkpt>
      <trkpt lat="4.5829920" lon="-74.2615550">
        <ele>2555.4</ele>
        <time>2018-08-11T16:38:46Z</time>
      </trkpt>
      <trkpt lat="4.5829420" lon="-74.2615700">
        <ele>2555.1</ele>
        <time>2018-08-11T16:38:47Z</time>
      </trkpt>
      <trkpt lat="4.5828930" lon="-74.2615850">
        <ele>2554.9</ele>
        <time>2018-08-11T16:38:48Z</time>
      </trkpt>
      <trkpt lat="4.5828450" lon="-74.2615970">
        <ele>2554.6</ele>
        <time>2018-08-11T16:38:49Z</time>
      </trkpt>
      <trkpt lat="4.5827930" lon="-74.2616100">
        <ele>2554.5</ele>
        <time>2018-08-11T16:38:50Z</time>
      </trkpt>
      <trkpt lat="4.5827430" lon="-74.2616220">
        <ele>2554.6</ele>
        <time>2018-08-11T16:38:51Z</time>
      </trkpt>
      <trkpt lat="4.5826920" lon="-74.2616370">
        <ele>2554.7</ele>
        <time>2018-08-11T16:38:52Z</time>
      </trkpt>
      <trkpt lat="4.5826380" lon="-74.2616550">
        <ele>2554.7</ele>
        <time>2018-08-11T16:38:53Z</time>
      </trkpt>
      <trkpt lat="4.5825830" lon="-74.2616700">
        <ele>2554.7</ele>
        <time>2018-08-11T16:38:54Z</time>
      </trkpt>
      <trkpt lat="4.5825270" lon="-74.2616850">
        <ele>2554.7</ele>
        <time>2018-08-11T16:38:55Z</time>
      </trkpt>
      <trkpt lat="4.5824730" lon="-74.2617030">
        <ele>2554.6</ele>
        <time>2018-08-11T16:38:56Z</time>
      </trkpt>
      <trkpt lat="4.5824200" lon="-74.2617220">
        <ele>2554.5</ele>
        <time>2018-08-11T16:38:57Z</time>
      </trkpt>
      <trkpt lat="4.5823670" lon="-74.2617420">
        <ele>2553.9</ele>
        <time>2018-08-11T16:38:58Z</time>
      </trkpt>
      <trkpt lat="4.5823130" lon="-74.2617620">
        <ele>2553.8</ele>
        <time>2018-08-11T16:38:59Z</time>
      </trkpt>
      <trkpt lat="4.5822570" lon="-74.2617770">
        <ele>2553.8</ele>
        <time>2018-08-11T16:39:00Z</time>
      </trkpt>
      <trkpt lat="4.5822020" lon="-74.2617900">
        <ele>2553.6</ele>
        <time>2018-08-11T16:39:01Z</time>
      </trkpt>
      <trkpt lat="4.5821480" lon="-74.2618030">
        <ele>2553.9</ele>
        <time>2018-08-11T16:39:02Z</time>
      </trkpt>
      <trkpt lat="4.5820980" lon="-74.2618180">
        <ele>2554.0</ele>
        <time>2018-08-11T16:39:03Z</time>
      </trkpt>
      <trkpt lat="4.5820500" lon="-74.2618350">
        <ele>2553.5</ele>
        <time>2018-08-11T16:39:04Z</time>
      </trkpt>
      <trkpt lat="4.5820050" lon="-74.2618500">
        <ele>2553.4</ele>
        <time>2018-08-11T16:39:05Z</time>
      </trkpt>
      <trkpt lat="4.5819630" lon="-74.2618600">
        <ele>2553.2</ele>
        <time>2018-08-11T16:39:06Z</time>
      </trkpt>
      <trkpt lat="4.5819250" lon="-74.2618720">
        <ele>2552.3</ele>
        <time>2018-08-11T16:39:07Z</time>
      </trkpt>
      <trkpt lat="4.5818920" lon="-74.2618820">
        <ele>2552.0</ele>
        <time>2018-08-11T16:39:08Z</time>
      </trkpt>
      <trkpt lat="4.5818600" lon="-74.2618970">
        <ele>2552.0</ele>
        <time>2018-08-11T16:39:09Z</time>
      </trkpt>
      <trkpt lat="4.5818330" lon="-74.2619130">
        <ele>2552.0</ele>
        <time>2018-08-11T16:39:10Z</time>
      </trkpt>
      <trkpt lat="4.5818050" lon="-74.2619430">
        <ele>2552.0</ele>
        <time>2018-08-11T16:39:12Z</time>
      </trkpt>
      <trkpt lat="4.5817880" lon="-74.2619880">
        <ele>2552.0</ele>
        <time>2018-08-11T16:39:38Z</time>
      </trkpt>
      <trkpt lat="4.5817580" lon="-74.2619800">
        <ele>2552.0</ele>
        <time>2018-08-11T16:39:40Z</time>
      </trkpt>
      <trkpt lat="4.5817180" lon="-74.2619700">
        <ele>2552.0</ele>
        <time>2018-08-11T16:39:42Z</time>
      </trkpt>
      <trkpt lat="4.5816670" lon="-74.2619570">
        <ele>2552.0</ele>
        <time>2018-08-11T16:39:44Z</time>
      </trkpt>
      <trkpt lat="4.5816370" lon="-74.2619450">
        <ele>2552.0</ele>
        <time>2018-08-11T16:39:45Z</time>
      </trkpt>
      <trkpt lat="4.5816080" lon="-74.2619400">
        <ele>2552.0</ele>
        <time>2018-08-11T16:39:46Z</time>
      </trkpt>
      <trkpt lat="4.5815780" lon="-74.2619420">
        <ele>2552.1</ele>
        <time>2018-08-11T16:39:47Z</time>
      </trkpt>
      <trkpt lat="4.5815450" lon="-74.2619450">
        <ele>2552.1</ele>
        <time>2018-08-11T16:39:48Z</time>
      </trkpt>
      <trkpt lat="4.5815050" lon="-74.2619420">
        <ele>2552.1</ele>
        <time>2018-08-11T16:39:49Z</time>
      </trkpt>
      <trkpt lat="4.5814620" lon="-74.2619280">
        <ele>2552.0</ele>
        <time>2018-08-11T16:39:50Z</time>
      </trkpt>
      <trkpt lat="4.5814170" lon="-74.2619080">
        <ele>2551.9</ele>
        <time>2018-08-11T16:39:51Z</time>
      </trkpt>
      <trkpt lat="4.5813720" lon="-74.2618820">
        <ele>2551.9</ele>
        <time>2018-08-11T16:39:52Z</time>
      </trkpt>
      <trkpt lat="4.5813230" lon="-74.2618570">
        <ele>2552.0</ele>
        <time>2018-08-11T16:39:53Z</time>
      </trkpt>
      <trkpt lat="4.5812700" lon="-74.2618320">
        <ele>2552.0</ele>
        <time>2018-08-11T16:39:54Z</time>
      </trkpt>
      <trkpt lat="4.5812170" lon="-74.2618070">
        <ele>2552.0</ele>
        <time>2018-08-11T16:39:55Z</time>
      </trkpt>
      <trkpt lat="4.5811620" lon="-74.2617800">
        <ele>2552.4</ele>
        <time>2018-08-11T16:39:56Z</time>
      </trkpt>
      <trkpt lat="4.5811030" lon="-74.2617570">
        <ele>2552.7</ele>
        <time>2018-08-11T16:39:57Z</time>
      </trkpt>
      <trkpt lat="4.5810450" lon="-74.2617280">
        <ele>2552.9</ele>
        <time>2018-08-11T16:39:58Z</time>
      </trkpt>
      <trkpt lat="4.5809870" lon="-74.2616980">
        <ele>2553.1</ele>
        <time>2018-08-11T16:39:59Z</time>
      </trkpt>
      <trkpt lat="4.5809270" lon="-74.2616650">
        <ele>2553.3</ele>
        <time>2018-08-11T16:40:00Z</time>
      </trkpt>
      <trkpt lat="4.5808630" lon="-74.2616330">
        <ele>2553.5</ele>
        <time>2018-08-11T16:40:01Z</time>
      </trkpt>
      <trkpt lat="4.5808020" lon="-74.2616020">
        <ele>2553.7</ele>
        <time>2018-08-11T16:40:02Z</time>
      </trkpt>
      <trkpt lat="4.5807400" lon="-74.2615720">
        <ele>2553.9</ele>
        <time>2018-08-11T16:40:03Z</time>
      </trkpt>
      <trkpt lat="4.5806770" lon="-74.2615400">
        <ele>2554.1</ele>
        <time>2018-08-11T16:40:04Z</time>
      </trkpt>
      <trkpt lat="4.5806130" lon="-74.2615100">
        <ele>2554.2</ele>
        <time>2018-08-11T16:40:05Z</time>
      </trkpt>
      <trkpt lat="4.5805500" lon="-74.2614780">
        <ele>2554.3</ele>
        <time>2018-08-11T16:40:06Z</time>
      </trkpt>
      <trkpt lat="4.5804850" lon="-74.2614470">
        <ele>2554.5</ele>
        <time>2018-08-11T16:40:07Z</time>
      </trkpt>
      <trkpt lat="4.5804200" lon="-74.2614070">
        <ele>2554.6</ele>
        <time>2018-08-11T16:40:08Z</time>
      </trkpt>
      <trkpt lat="4.5803580" lon="-74.2613750">
        <ele>2554.8</ele>
        <time>2018-08-11T16:40:09Z</time>
      </trkpt>
      <trkpt lat="4.5802930" lon="-74.2613420">
        <ele>2554.9</ele>
        <time>2018-08-11T16:40:10Z</time>
      </trkpt>
      <trkpt lat="4.5802300" lon="-74.2613080">
        <ele>2555.1</ele>
        <time>2018-08-11T16:40:11Z</time>
      </trkpt>
      <trkpt lat="4.5801670" lon="-74.2612730">
        <ele>2555.2</ele>
        <time>2018-08-11T16:40:12Z</time>
      </trkpt>
      <trkpt lat="4.5801030" lon="-74.2612420">
        <ele>2555.4</ele>
        <time>2018-08-11T16:40:13Z</time>
      </trkpt>
      <trkpt lat="4.5800370" lon="-74.2612100">
        <ele>2555.7</ele>
        <time>2018-08-11T16:40:14Z</time>
      </trkpt>
      <trkpt lat="4.5799750" lon="-74.2611730">
        <ele>2555.9</ele>
        <time>2018-08-11T16:40:15Z</time>
      </trkpt>
      <trkpt lat="4.5799130" lon="-74.2611420">
        <ele>2556.2</ele>
        <time>2018-08-11T16:40:16Z</time>
      </trkpt>
      <trkpt lat="4.5798520" lon="-74.2611100">
        <ele>2556.5</ele>
        <time>2018-08-11T16:40:17Z</time>
      </trkpt>
      <trkpt lat="4.5797900" lon="-74.2610730">
        <ele>2556.8</ele>
        <time>2018-08-11T16:40:18Z</time>
      </trkpt>
      <trkpt lat="4.5797280" lon="-74.2610320">
        <ele>2557.1</ele>
        <time>2018-08-11T16:40:19Z</time>
      </trkpt>
      <trkpt lat="4.5796680" lon="-74.2609800">
        <ele>2557.5</ele>
        <time>2018-08-11T16:40:20Z</time>
      </trkpt>
      <trkpt lat="4.5796180" lon="-74.2609250">
        <ele>2557.8</ele>
        <time>2018-08-11T16:40:21Z</time>
      </trkpt>
      <trkpt lat="4.5795730" lon="-74.2608650">
        <ele>2558.2</ele>
        <time>2018-08-11T16:40:22Z</time>
      </trkpt>
      <trkpt lat="4.5795300" lon="-74.2608050">
        <ele>2558.7</ele>
        <time>2018-08-11T16:40:23Z</time>
      </trkpt>
      <trkpt lat="4.5794880" lon="-74.2607380">
        <ele>2559.0</ele>
        <time>2018-08-11T16:40:24Z</time>
      </trkpt>
      <trkpt lat="4.5794500" lon="-74.2606700">
        <ele>2559.3</ele>
        <time>2018-08-11T16:40:25Z</time>
      </trkpt>
      <trkpt lat="4.5794120" lon="-74.2606000">
        <ele>2559.6</ele>
        <time>2018-08-11T16:40:26Z</time>
      </trkpt>
      <trkpt lat="4.5793770" lon="-74.2605300">
        <ele>2559.9</ele>
        <time>2018-08-11T16:40:27Z</time>
      </trkpt>
      <trkpt lat="4.5793420" lon="-74.2604620">
        <ele>2560.0</ele>
        <time>2018-08-11T16:40:28Z</time>
      </trkpt>
      <trkpt lat="4.5793070" lon="-74.2603920">
        <ele>2559.9</ele>
        <time>2018-08-11T16:40:29Z</time>
      </trkpt>
      <trkpt lat="4.5792700" lon="-74.2603200">
        <ele>2559.8</ele>
        <time>2018-08-11T16:40:30Z</time>
      </trkpt>
      <trkpt lat="4.5792330" lon="-74.2602470">
        <ele>2559.7</ele>
        <time>2018-08-11T16:40:31Z</time>
      </trkpt>
      <trkpt lat="4.5792020" lon="-74.2601720">
        <ele>2559.7</ele>
        <time>2018-08-11T16:40:32Z</time>
      </trkpt>
      <trkpt lat="4.5791700" lon="-74.2600900">
        <ele>2559.6</ele>
        <time>2018-08-11T16:40:33Z</time>
      </trkpt>
      <trkpt lat="4.5791420" lon="-74.2600080">
        <ele>2559.5</ele>
        <time>2018-08-11T16:40:34Z</time>
      </trkpt>
      <trkpt lat="4.5791150" lon="-74.2599270">
        <ele>2559.3</ele>
        <time>2018-08-11T16:40:35Z</time>
      </trkpt>
      <trkpt lat="4.5790950" lon="-74.2598450">
        <ele>2559.1</ele>
        <time>2018-08-11T16:40:36Z</time>
      </trkpt>
      <trkpt lat="4.5790780" lon="-74.2597600">
        <ele>2558.8</ele>
        <time>2018-08-11T16:40:37Z</time>
      </trkpt>
      <trkpt lat="4.5790700" lon="-74.2596770">
        <ele>2558.5</ele>
        <time>2018-08-11T16:40:38Z</time>
      </trkpt>
      <trkpt lat="4.5790670" lon="-74.2595870">
        <ele>2558.2</ele>
        <time>2018-08-11T16:40:39Z</time>
      </trkpt>
      <trkpt lat="4.5790770" lon="-74.2594980">
        <ele>2557.7</ele>
        <time>2018-08-11T16:40:40Z</time>
      </trkpt>
      <trkpt lat="4.5790980" lon="-74.2594050">
        <ele>2557.0</ele>
        <time>2018-08-11T16:40:41Z</time>
      </trkpt>
      <trkpt lat="4.5791380" lon="-74.2593200">
        <ele>2556.3</ele>
        <time>2018-08-11T16:40:42Z</time>
      </trkpt>
      <trkpt lat="4.5791820" lon="-74.2592330">
        <ele>2555.5</ele>
        <time>2018-08-11T16:40:43Z</time>
      </trkpt>
      <trkpt lat="4.5792300" lon="-74.2591380">
        <ele>2554.6</ele>
        <time>2018-08-11T16:40:44Z</time>
      </trkpt>
      <trkpt lat="4.5792730" lon="-74.2590430">
        <ele>2553.7</ele>
        <time>2018-08-11T16:40:45Z</time>
      </trkpt>
      <trkpt lat="4.5793120" lon="-74.2589470">
        <ele>2552.8</ele>
        <time>2018-08-11T16:40:46Z</time>
      </trkpt>
      <trkpt lat="4.5793500" lon="-74.2588480">
        <ele>2551.8</ele>
        <time>2018-08-11T16:40:47Z</time>
      </trkpt>
      <trkpt lat="4.5793850" lon="-74.2587500">
        <ele>2550.9</ele>
        <time>2018-08-11T16:40:48Z</time>
      </trkpt>
      <trkpt lat="4.5794130" lon="-74.2586550">
        <ele>2550.0</ele>
        <time>2018-08-11T16:40:49Z</time>
      </trkpt>
      <trkpt lat="4.5794430" lon="-74.2585580">
        <ele>2549.2</ele>
        <time>2018-08-11T16:40:50Z</time>
      </trkpt>
      <trkpt lat="4.5794730" lon="-74.2584630">
        <ele>2548.4</ele>
        <time>2018-08-11T16:40:51Z</time>
      </trkpt>
      <trkpt lat="4.5795030" lon="-74.2583680">
        <ele>2547.7</ele>
        <time>2018-08-11T16:40:52Z</time>
      </trkpt>
      <trkpt lat="4.5795300" lon="-74.2582780">
        <ele>2547.1</ele>
        <time>2018-08-11T16:40:53Z</time>
      </trkpt>
      <trkpt lat="4.5795550" lon="-74.2581900">
        <ele>2546.8</ele>
        <time>2018-08-11T16:40:54Z</time>
      </trkpt>
      <trkpt lat="4.5795780" lon="-74.2581020">
        <ele>2546.6</ele>
        <time>2018-08-11T16:40:55Z</time>
      </trkpt>
      <trkpt lat="4.5796030" lon="-74.2580120">
        <ele>2546.4</ele>
        <time>2018-08-11T16:40:56Z</time>
      </trkpt>
      <trkpt lat="4.5796280" lon="-74.2579230">
        <ele>2546.2</ele>
        <time>2018-08-11T16:40:57Z</time>
      </trkpt>
      <trkpt lat="4.5796520" lon="-74.2578400">
        <ele>2546.1</ele>
        <time>2018-08-11T16:40:58Z</time>
      </trkpt>
      <trkpt lat="4.5796770" lon="-74.2577550">
        <ele>2545.9</ele>
        <time>2018-08-11T16:40:59Z</time>
      </trkpt>
      <trkpt lat="4.5796970" lon="-74.2576700">
        <ele>2545.7</ele>
        <time>2018-08-11T16:41:00Z</time>
      </trkpt>
      <trkpt lat="4.5797200" lon="-74.2575850">
        <ele>2545.4</ele>
        <time>2018-08-11T16:41:01Z</time>
      </trkpt>
      <trkpt lat="4.5797420" lon="-74.2575000">
        <ele>2545.1</ele>
        <time>2018-08-11T16:41:02Z</time>
      </trkpt>
      <trkpt lat="4.5797650" lon="-74.2574170">
        <ele>2544.7</ele>
        <time>2018-08-11T16:41:03Z</time>
      </trkpt>
      <trkpt lat="4.5797870" lon="-74.2573320">
        <ele>2544.3</ele>
        <time>2018-08-11T16:41:04Z</time>
      </trkpt>
      <trkpt lat="4.5798080" lon="-74.2572470">
        <ele>2543.9</ele>
        <time>2018-08-11T16:41:05Z</time>
      </trkpt>
      <trkpt lat="4.5798300" lon="-74.2571670">
        <ele>2543.6</ele>
        <time>2018-08-11T16:41:06Z</time>
      </trkpt>
      <trkpt lat="4.5798500" lon="-74.2570830">
        <ele>2543.2</ele>
        <time>2018-08-11T16:41:07Z</time>
      </trkpt>
      <trkpt lat="4.5798680" lon="-74.2570000">
        <ele>2542.8</ele>
        <time>2018-08-11T16:41:08Z</time>
      </trkpt>
      <trkpt lat="4.5798780" lon="-74.2569150">
        <ele>2542.5</ele>
        <time>2018-08-11T16:41:09Z</time>
      </trkpt>
      <trkpt lat="4.5798830" lon="-74.2568280">
        <ele>2542.2</ele>
        <time>2018-08-11T16:41:10Z</time>
      </trkpt>
      <trkpt lat="4.5798780" lon="-74.2567400">
        <ele>2542.0</ele>
        <time>2018-08-11T16:41:11Z</time>
      </trkpt>
      <trkpt lat="4.5798600" lon="-74.2566530">
        <ele>2541.9</ele>
        <time>2018-08-11T16:41:12Z</time>
      </trkpt>
      <trkpt lat="4.5798300" lon="-74.2565700">
        <ele>2541.8</ele>
        <time>2018-08-11T16:41:13Z</time>
      </trkpt>
      <trkpt lat="4.5797900" lon="-74.2564900">
        <ele>2541.7</ele>
        <time>2018-08-11T16:41:14Z</time>
      </trkpt>
      <trkpt lat="4.5797450" lon="-74.2564130">
        <ele>2541.6</ele>
        <time>2018-08-11T16:41:15Z</time>
      </trkpt>
      <trkpt lat="4.5796950" lon="-74.2563380">
        <ele>2541.5</ele>
        <time>2018-08-11T16:41:16Z</time>
      </trkpt>
      <trkpt lat="4.5796430" lon="-74.2562680">
        <ele>2541.4</ele>
        <time>2018-08-11T16:41:17Z</time>
      </trkpt>
      <trkpt lat="4.5795930" lon="-74.2562000">
        <ele>2541.4</ele>
        <time>2018-08-11T16:41:18Z</time>
      </trkpt>
      <trkpt lat="4.5795380" lon="-74.2561330">
        <ele>2541.3</ele>
        <time>2018-08-11T16:41:19Z</time>
      </trkpt>
      <trkpt lat="4.5794820" lon="-74.2560680">
        <ele>2541.3</ele>
        <time>2018-08-11T16:41:20Z</time>
      </trkpt>
      <trkpt lat="4.5794200" lon="-74.2560070">
        <ele>2541.2</ele>
        <time>2018-08-11T16:41:21Z</time>
      </trkpt>
      <trkpt lat="4.5793550" lon="-74.2559470">
        <ele>2541.2</ele>
        <time>2018-08-11T16:41:22Z</time>
      </trkpt>
      <trkpt lat="4.5792900" lon="-74.2558880">
        <ele>2541.1</ele>
        <time>2018-08-11T16:41:23Z</time>
      </trkpt>
      <trkpt lat="4.5792250" lon="-74.2558280">
        <ele>2541.1</ele>
        <time>2018-08-11T16:41:24Z</time>
      </trkpt>
      <trkpt lat="4.5791600" lon="-74.2557730">
        <ele>2541.0</ele>
        <time>2018-08-11T16:41:25Z</time>
      </trkpt>
      <trkpt lat="4.5790930" lon="-74.2557170">
        <ele>2541.0</ele>
        <time>2018-08-11T16:41:26Z</time>
      </trkpt>
      <trkpt lat="4.5790300" lon="-74.2556620">
        <ele>2541.0</ele>
        <time>2018-08-11T16:41:27Z</time>
      </trkpt>
      <trkpt lat="4.5789670" lon="-74.2556070">
        <ele>2541.0</ele>
        <time>2018-08-11T16:41:28Z</time>
      </trkpt>
      <trkpt lat="4.5789030" lon="-74.2555550">
        <ele>2540.9</ele>
        <time>2018-08-11T16:41:29Z</time>
      </trkpt>
      <trkpt lat="4.5788400" lon="-74.2555020">
        <ele>2540.9</ele>
        <time>2018-08-11T16:41:30Z</time>
      </trkpt>
      <trkpt lat="4.5787770" lon="-74.2554470">
        <ele>2540.9</ele>
        <time>2018-08-11T16:41:31Z</time>
      </trkpt>
      <trkpt lat="4.5787150" lon="-74.2553920">
        <ele>2540.9</ele>
        <time>2018-08-11T16:41:32Z</time>
      </trkpt>
      <trkpt lat="4.5786530" lon="-74.2553380">
        <ele>2540.9</ele>
        <time>2018-08-11T16:41:33Z</time>
      </trkpt>
      <trkpt lat="4.5785930" lon="-74.2552870">
        <ele>2540.9</ele>
        <time>2018-08-11T16:41:34Z</time>
      </trkpt>
      <trkpt lat="4.5785370" lon="-74.2552330">
        <ele>2541.0</ele>
        <time>2018-08-11T16:41:35Z</time>
      </trkpt>
      <trkpt lat="4.5784830" lon="-74.2551850">
        <ele>2541.1</ele>
        <time>2018-08-11T16:41:36Z</time>
      </trkpt>
      <trkpt lat="4.5784250" lon="-74.2551380">
        <ele>2541.2</ele>
        <time>2018-08-11T16:41:37Z</time>
      </trkpt>
      <trkpt lat="4.5783650" lon="-74.2550900">
        <ele>2541.4</ele>
        <time>2018-08-11T16:41:38Z</time>
      </trkpt>
      <trkpt lat="4.5783000" lon="-74.2550400">
        <ele>2541.5</ele>
        <time>2018-08-11T16:41:39Z</time>
      </trkpt>
      <trkpt lat="4.5782400" lon="-74.2549920">
        <ele>2541.6</ele>
        <time>2018-08-11T16:41:40Z</time>
      </trkpt>
      <trkpt lat="4.5781830" lon="-74.2549420">
        <ele>2541.6</ele>
        <time>2018-08-11T16:41:41Z</time>
      </trkpt>
      <trkpt lat="4.5781300" lon="-74.2548950">
        <ele>2541.7</ele>
        <time>2018-08-11T16:41:42Z</time>
      </trkpt>
      <trkpt lat="4.5780800" lon="-74.2548550">
        <ele>2541.7</ele>
        <time>2018-08-11T16:41:43Z</time>
      </trkpt>
      <trkpt lat="4.5780330" lon="-74.2548180">
        <ele>2541.7</ele>
        <time>2018-08-11T16:41:44Z</time>
      </trkpt>
      <trkpt lat="4.5779880" lon="-74.2547780">
        <ele>2541.7</ele>
        <time>2018-08-11T16:41:45Z</time>
      </trkpt>
      <trkpt lat="4.5779450" lon="-74.2547370">
        <ele>2541.7</ele>
        <time>2018-08-11T16:41:46Z</time>
      </trkpt>
      <trkpt lat="4.5779030" lon="-74.2546930">
        <ele>2541.7</ele>
        <time>2018-08-11T16:41:47Z</time>
      </trkpt>
      <trkpt lat="4.5778630" lon="-74.2546500">
        <ele>2541.6</ele>
        <time>2018-08-11T16:41:48Z</time>
      </trkpt>
      <trkpt lat="4.5778280" lon="-74.2546050">
        <ele>2541.6</ele>
        <time>2018-08-11T16:41:49Z</time>
      </trkpt>
      <trkpt lat="4.5777970" lon="-74.2545600">
        <ele>2541.6</ele>
        <time>2018-08-11T16:41:50Z</time>
      </trkpt>
      <trkpt lat="4.5777670" lon="-74.2545120">
        <ele>2541.5</ele>
        <time>2018-08-11T16:41:51Z</time>
      </trkpt>
      <trkpt lat="4.5777380" lon="-74.2544650">
        <ele>2541.5</ele>
        <time>2018-08-11T16:41:52Z</time>
      </trkpt>
      <trkpt lat="4.5777130" lon="-74.2544180">
        <ele>2541.5</ele>
        <time>2018-08-11T16:41:53Z</time>
      </trkpt>
      <trkpt lat="4.5776920" lon="-74.2543720">
        <ele>2541.4</ele>
        <time>2018-08-11T16:41:54Z</time>
      </trkpt>
      <trkpt lat="4.5776750" lon="-74.2543250">
        <ele>2541.4</ele>
        <time>2018-08-11T16:41:55Z</time>
      </trkpt>
      <trkpt lat="4.5776600" lon="-74.2542800">
        <ele>2541.3</ele>
        <time>2018-08-11T16:41:56Z</time>
      </trkpt>
      <trkpt lat="4.5776470" lon="-74.2542380">
        <ele>2541.3</ele>
        <time>2018-08-11T16:41:57Z</time>
      </trkpt>
      <trkpt lat="4.5776320" lon="-74.2541950">
        <ele>2541.3</ele>
        <time>2018-08-11T16:41:58Z</time>
      </trkpt>
      <trkpt lat="4.5776200" lon="-74.2541530">
        <ele>2541.2</ele>
        <time>2018-08-11T16:41:59Z</time>
      </trkpt>
      <trkpt lat="4.5776130" lon="-74.2541080">
        <ele>2541.2</ele>
        <time>2018-08-11T16:42:00Z</time>
      </trkpt>
      <trkpt lat="4.5776080" lon="-74.2540650">
        <ele>2541.2</ele>
        <time>2018-08-11T16:42:01Z</time>
      </trkpt>
      <trkpt lat="4.5776020" lon="-74.2540220">
        <ele>2541.1</ele>
        <time>2018-08-11T16:42:02Z</time>
      </trkpt>
      <trkpt lat="4.5775970" lon="-74.2539820">
        <ele>2541.1</ele>
        <time>2018-08-11T16:42:03Z</time>
      </trkpt>
      <trkpt lat="4.5775930" lon="-74.2539400">
        <ele>2541.1</ele>
        <time>2018-08-11T16:42:04Z</time>
      </trkpt>
      <trkpt lat="4.5775970" lon="-74.2539030">
        <ele>2541.0</ele>
        <time>2018-08-11T16:42:05Z</time>
      </trkpt>
      <trkpt lat="4.5776020" lon="-74.2538700">
        <ele>2541.0</ele>
        <time>2018-08-11T16:42:06Z</time>
      </trkpt>
      <trkpt lat="4.5776080" lon="-74.2538300">
        <ele>2541.0</ele>
        <time>2018-08-11T16:42:07Z</time>
      </trkpt>
      <trkpt lat="4.5776180" lon="-74.2537920">
        <ele>2541.0</ele>
        <time>2018-08-11T16:42:08Z</time>
      </trkpt>
      <trkpt lat="4.5776270" lon="-74.2537550">
        <ele>2540.9</ele>
        <time>2018-08-11T16:42:09Z</time>
      </trkpt>
      <trkpt lat="4.5776320" lon="-74.2537130">
        <ele>2540.9</ele>
        <time>2018-08-11T16:42:10Z</time>
      </trkpt>
      <trkpt lat="4.5776420" lon="-74.2536720">
        <ele>2540.9</ele>
        <time>2018-08-11T16:42:11Z</time>
      </trkpt>
      <trkpt lat="4.5776530" lon="-74.2536320">
        <ele>2540.8</ele>
        <time>2018-08-11T16:42:12Z</time>
      </trkpt>
      <trkpt lat="4.5776650" lon="-74.2535920">
        <ele>2540.8</ele>
        <time>2018-08-11T16:42:13Z</time>
      </trkpt>
      <trkpt lat="4.5776770" lon="-74.2535530">
        <ele>2540.8</ele>
        <time>2018-08-11T16:42:14Z</time>
      </trkpt>
      <trkpt lat="4.5776880" lon="-74.2535120">
        <ele>2540.7</ele>
        <time>2018-08-11T16:42:15Z</time>
      </trkpt>
      <trkpt lat="4.5777020" lon="-74.2534730">
        <ele>2540.7</ele>
        <time>2018-08-11T16:42:16Z</time>
      </trkpt>
      <trkpt lat="4.5777180" lon="-74.2534330">
        <ele>2540.7</ele>
        <time>2018-08-11T16:42:17Z</time>
      </trkpt>
      <trkpt lat="4.5777330" lon="-74.2533920">
        <ele>2540.6</ele>
        <time>2018-08-11T16:42:18Z</time>
      </trkpt>
      <trkpt lat="4.5777470" lon="-74.2533520">
        <ele>2540.6</ele>
        <time>2018-08-11T16:42:19Z</time>
      </trkpt>
      <trkpt lat="4.5777600" lon="-74.2533100">
        <ele>2540.6</ele>
        <time>2018-08-11T16:42:20Z</time>
      </trkpt>
      <trkpt lat="4.5777720" lon="-74.2532700">
        <ele>2540.5</ele>
        <time>2018-08-11T16:42:21Z</time>
      </trkpt>
      <trkpt lat="4.5777870" lon="-74.2532320">
        <ele>2540.5</ele>
        <time>2018-08-11T16:42:22Z</time>
      </trkpt>
      <trkpt lat="4.5778030" lon="-74.2531920">
        <ele>2540.5</ele>
        <time>2018-08-11T16:42:23Z</time>
      </trkpt>
      <trkpt lat="4.5778200" lon="-74.2531530">
        <ele>2540.4</ele>
        <time>2018-08-11T16:42:24Z</time>
      </trkpt>
      <trkpt lat="4.5778350" lon="-74.2531150">
        <ele>2540.4</ele>
        <time>2018-08-11T16:42:25Z</time>
      </trkpt>
      <trkpt lat="4.5778470" lon="-74.2530770">
        <ele>2540.4</ele>
        <time>2018-08-11T16:42:26Z</time>
      </trkpt>
      <trkpt lat="4.5778580" lon="-74.2530400">
        <ele>2540.3</ele>
        <time>2018-08-11T16:42:27Z</time>
      </trkpt>
      <trkpt lat="4.5778730" lon="-74.2530050">
        <ele>2540.3</ele>
        <time>2018-08-11T16:42:28Z</time>
      </trkpt>
      <trkpt lat="4.5778850" lon="-74.2529680">
        <ele>2540.3</ele>
        <time>2018-08-11T16:42:29Z</time>
      </trkpt>
      <trkpt lat="4.5778980" lon="-74.2529300">
        <ele>2540.3</ele>
        <time>2018-08-11T16:42:30Z</time>
      </trkpt>
      <trkpt lat="4.5779130" lon="-74.2528950">
        <ele>2540.2</ele>
        <time>2018-08-11T16:42:31Z</time>
      </trkpt>
      <trkpt lat="4.5779270" lon="-74.2528570">
        <ele>2540.2</ele>
        <time>2018-08-11T16:42:32Z</time>
      </trkpt>
      <trkpt lat="4.5779380" lon="-74.2528170">
        <ele>2540.2</ele>
        <time>2018-08-11T16:42:33Z</time>
      </trkpt>
      <trkpt lat="4.5779530" lon="-74.2527780">
        <ele>2540.1</ele>
        <time>2018-08-11T16:42:34Z</time>
      </trkpt>
      <trkpt lat="4.5779680" lon="-74.2527420">
        <ele>2540.1</ele>
        <time>2018-08-11T16:42:35Z</time>
      </trkpt>
      <trkpt lat="4.5779820" lon="-74.2527050">
        <ele>2540.1</ele>
        <time>2018-08-11T16:42:36Z</time>
      </trkpt>
      <trkpt lat="4.5779980" lon="-74.2526700">
        <ele>2540.1</ele>
        <time>2018-08-11T16:42:37Z</time>
      </trkpt>
      <trkpt lat="4.5780100" lon="-74.2526370">
        <ele>2540.0</ele>
        <time>2018-08-11T16:42:38Z</time>
      </trkpt>
      <trkpt lat="4.5780250" lon="-74.2526000">
        <ele>2540.0</ele>
        <time>2018-08-11T16:42:39Z</time>
      </trkpt>
      <trkpt lat="4.5780380" lon="-74.2525630">
        <ele>2539.9</ele>
        <time>2018-08-11T16:42:40Z</time>
      </trkpt>
      <trkpt lat="4.5780520" lon="-74.2525280">
        <ele>2539.8</ele>
        <time>2018-08-11T16:42:41Z</time>
      </trkpt>
      <trkpt lat="4.5780630" lon="-74.2524900">
        <ele>2539.7</ele>
        <time>2018-08-11T16:42:42Z</time>
      </trkpt>
      <trkpt lat="4.5780770" lon="-74.2524500">
        <ele>2539.5</ele>
        <time>2018-08-11T16:42:43Z</time>
      </trkpt>
      <trkpt lat="4.5780900" lon="-74.2524130">
        <ele>2539.4</ele>
        <time>2018-08-11T16:42:44Z</time>
      </trkpt>
      <trkpt lat="4.5781050" lon="-74.2523770">
        <ele>2539.3</ele>
        <time>2018-08-11T16:42:45Z</time>
      </trkpt>
      <trkpt lat="4.5781200" lon="-74.2523380">
        <ele>2539.2</ele>
        <time>2018-08-11T16:42:46Z</time>
      </trkpt>
      <trkpt lat="4.5781330" lon="-74.2522980">
        <ele>2539.1</ele>
        <time>2018-08-11T16:42:47Z</time>
      </trkpt>
      <trkpt lat="4.5781500" lon="-74.2522580">
        <ele>2539.0</ele>
        <time>2018-08-11T16:42:48Z</time>
      </trkpt>
      <trkpt lat="4.5781630" lon="-74.2522170">
        <ele>2538.9</ele>
        <time>2018-08-11T16:42:49Z</time>
      </trkpt>
      <trkpt lat="4.5781780" lon="-74.2521770">
        <ele>2538.9</ele>
        <time>2018-08-11T16:42:50Z</time>
      </trkpt>
      <trkpt lat="4.5781930" lon="-74.2521370">
        <ele>2538.8</ele>
        <time>2018-08-11T16:42:51Z</time>
      </trkpt>
      <trkpt lat="4.5782100" lon="-74.2520970">
        <ele>2538.7</ele>
        <time>2018-08-11T16:42:52Z</time>
      </trkpt>
      <trkpt lat="4.5782230" lon="-74.2520570">
        <ele>2538.7</ele>
        <time>2018-08-11T16:42:53Z</time>
      </trkpt>
      <trkpt lat="4.5782370" lon="-74.2520180">
        <ele>2538.6</ele>
        <time>2018-08-11T16:42:54Z</time>
      </trkpt>
      <trkpt lat="4.5782500" lon="-74.2519830">
        <ele>2538.5</ele>
        <time>2018-08-11T16:42:55Z</time>
      </trkpt>
      <trkpt lat="4.5782620" lon="-74.2519480">
        <ele>2538.5</ele>
        <time>2018-08-11T16:42:56Z</time>
      </trkpt>
      <trkpt lat="4.5782720" lon="-74.2519130">
        <ele>2538.4</ele>
        <time>2018-08-11T16:42:57Z</time>
      </trkpt>
      <trkpt lat="4.5782880" lon="-74.2518780">
        <ele>2538.3</ele>
        <time>2018-08-11T16:42:58Z</time>
      </trkpt>
      <trkpt lat="4.5783030" lon="-74.2518420">
        <ele>2538.3</ele>
        <time>2018-08-11T16:42:59Z</time>
      </trkpt>
      <trkpt lat="4.5783170" lon="-74.2518070">
        <ele>2538.2</ele>
        <time>2018-08-11T16:43:00Z</time>
      </trkpt>
      <trkpt lat="4.5783300" lon="-74.2517730">
        <ele>2538.1</ele>
        <time>2018-08-11T16:43:01Z</time>
      </trkpt>
      <trkpt lat="4.5783450" lon="-74.2517400">
        <ele>2538.1</ele>
        <time>2018-08-11T16:43:02Z</time>
      </trkpt>
      <trkpt lat="4.5783580" lon="-74.2517070">
        <ele>2538.0</ele>
        <time>2018-08-11T16:43:03Z</time>
      </trkpt>
      <trkpt lat="4.5783720" lon="-74.2516770">
        <ele>2538.0</ele>
        <time>2018-08-11T16:43:04Z</time>
      </trkpt>
      <trkpt lat="4.5783850" lon="-74.2516470">
        <ele>2538.0</ele>
        <time>2018-08-11T16:43:05Z</time>
      </trkpt>
      <trkpt lat="4.5783950" lon="-74.2516150">
        <ele>2538.0</ele>
        <time>2018-08-11T16:43:06Z</time>
      </trkpt>
      <trkpt lat="4.5784050" lon="-74.2515850">
        <ele>2538.0</ele>
        <time>2018-08-11T16:43:07Z</time>
      </trkpt>
      <trkpt lat="4.5784180" lon="-74.2515570">
        <ele>2538.0</ele>
        <time>2018-08-11T16:43:08Z</time>
      </trkpt>
      <trkpt lat="4.5784300" lon="-74.2515280">
        <ele>2538.1</ele>
        <time>2018-08-11T16:43:09Z</time>
      </trkpt>
      <trkpt lat="4.5784400" lon="-74.2514970">
        <ele>2538.1</ele>
        <time>2018-08-11T16:43:10Z</time>
      </trkpt>
      <trkpt lat="4.5784570" lon="-74.2514650">
        <ele>2538.1</ele>
        <time>2018-08-11T16:43:11Z</time>
      </trkpt>
      <trkpt lat="4.5784720" lon="-74.2514330">
        <ele>2538.1</ele>
        <time>2018-08-11T16:43:12Z</time>
      </trkpt>
      <trkpt lat="4.5784820" lon="-74.2514030">
        <ele>2538.1</ele>
        <time>2018-08-11T16:43:13Z</time>
      </trkpt>
      <trkpt lat="4.5784930" lon="-74.2513720">
        <ele>2538.1</ele>
        <time>2018-08-11T16:43:14Z</time>
      </trkpt>
      <trkpt lat="4.5785050" lon="-74.2513430">
        <ele>2538.1</ele>
        <time>2018-08-11T16:43:15Z</time>
      </trkpt>
      <trkpt lat="4.5785120" lon="-74.2513130">
        <ele>2538.1</ele>
        <time>2018-08-11T16:43:16Z</time>
      </trkpt>
      <trkpt lat="4.5785200" lon="-74.2512800">
        <ele>2538.1</ele>
        <time>2018-08-11T16:43:17Z</time>
      </trkpt>
      <trkpt lat="4.5785300" lon="-74.2512480">
        <ele>2538.1</ele>
        <time>2018-08-11T16:43:18Z</time>
      </trkpt>
      <trkpt lat="4.5785420" lon="-74.2512200">
        <ele>2538.2</ele>
        <time>2018-08-11T16:43:19Z</time>
      </trkpt>
      <trkpt lat="4.5785530" lon="-74.2511880">
        <ele>2538.2</ele>
        <time>2018-08-11T16:43:20Z</time>
      </trkpt>
      <trkpt lat="4.5785670" lon="-74.2511550">
        <ele>2538.2</ele>
        <time>2018-08-11T16:43:21Z</time>
      </trkpt>
      <trkpt lat="4.5785820" lon="-74.2511220">
        <ele>2538.2</ele>
        <time>2018-08-11T16:43:22Z</time>
      </trkpt>
      <trkpt lat="4.5785930" lon="-74.2510880">
        <ele>2538.2</ele>
        <time>2018-08-11T16:43:23Z</time>
      </trkpt>
      <trkpt lat="4.5786080" lon="-74.2510550">
        <ele>2538.2</ele>
        <time>2018-08-11T16:43:24Z</time>
      </trkpt>
      <trkpt lat="4.5786220" lon="-74.2510200">
        <ele>2538.2</ele>
        <time>2018-08-11T16:43:25Z</time>
      </trkpt>
      <trkpt lat="4.5786330" lon="-74.2509820">
        <ele>2538.2</ele>
        <time>2018-08-11T16:43:26Z</time>
      </trkpt>
      <trkpt lat="4.5786480" lon="-74.2509430">
        <ele>2538.2</ele>
        <time>2018-08-11T16:43:27Z</time>
      </trkpt>
      <trkpt lat="4.5786620" lon="-74.2509070">
        <ele>2538.2</ele>
        <time>2018-08-11T16:43:28Z</time>
      </trkpt>
      <trkpt lat="4.5786720" lon="-74.2508700">
        <ele>2538.2</ele>
        <time>2018-08-11T16:43:29Z</time>
      </trkpt>
      <trkpt lat="4.5786820" lon="-74.2508370">
        <ele>2538.2</ele>
        <time>2018-08-11T16:43:30Z</time>
      </trkpt>
      <trkpt lat="4.5786920" lon="-74.2508020">
        <ele>2538.2</ele>
        <time>2018-08-11T16:43:31Z</time>
      </trkpt>
      <trkpt lat="4.5787030" lon="-74.2507630">
        <ele>2538.2</ele>
        <time>2018-08-11T16:43:32Z</time>
      </trkpt>
      <trkpt lat="4.5787170" lon="-74.2507270">
        <ele>2538.2</ele>
        <time>2018-08-11T16:43:33Z</time>
      </trkpt>
      <trkpt lat="4.5787250" lon="-74.2506970">
        <ele>2538.2</ele>
        <time>2018-08-11T16:43:34Z</time>
      </trkpt>
      <trkpt lat="4.5787330" lon="-74.2506620">
        <ele>2538.2</ele>
        <time>2018-08-11T16:43:35Z</time>
      </trkpt>
      <trkpt lat="4.5787420" lon="-74.2506230">
        <ele>2538.2</ele>
        <time>2018-08-11T16:43:36Z</time>
      </trkpt>
      <trkpt lat="4.5787600" lon="-74.2505870">
        <ele>2538.2</ele>
        <time>2018-08-11T16:43:37Z</time>
      </trkpt>
      <trkpt lat="4.5787780" lon="-74.2505470">
        <ele>2538.2</ele>
        <time>2018-08-11T16:43:38Z</time>
      </trkpt>
      <trkpt lat="4.5788100" lon="-74.2505070">
        <ele>2538.1</ele>
        <time>2018-08-11T16:43:39Z</time>
      </trkpt>
      <trkpt lat="4.5788280" lon="-74.2504730">
        <ele>2538.1</ele>
        <time>2018-08-11T16:43:40Z</time>
      </trkpt>
      <trkpt lat="4.5788400" lon="-74.2504200">
        <ele>2538.0</ele>
        <time>2018-08-11T16:43:42Z</time>
      </trkpt>
      <trkpt lat="4.5788480" lon="-74.2503920">
        <ele>2538.0</ele>
        <time>2018-08-11T16:43:43Z</time>
      </trkpt>
      <trkpt lat="4.5788570" lon="-74.2503550">
        <ele>2538.0</ele>
        <time>2018-08-11T16:43:44Z</time>
      </trkpt>
      <trkpt lat="4.5788650" lon="-74.2503220">
        <ele>2537.9</ele>
        <time>2018-08-11T16:43:45Z</time>
      </trkpt>
      <trkpt lat="4.5788770" lon="-74.2502970">
        <ele>2537.9</ele>
        <time>2018-08-11T16:43:46Z</time>
      </trkpt>
      <trkpt lat="4.5788850" lon="-74.2502700">
        <ele>2537.9</ele>
        <time>2018-08-11T16:43:47Z</time>
      </trkpt>
      <trkpt lat="4.5788930" lon="-74.2502430">
        <ele>2537.9</ele>
        <time>2018-08-11T16:43:48Z</time>
      </trkpt>
      <trkpt lat="4.5789050" lon="-74.2502180">
        <ele>2537.9</ele>
        <time>2018-08-11T16:43:49Z</time>
      </trkpt>
      <trkpt lat="4.5789130" lon="-74.2501920">
        <ele>2537.9</ele>
        <time>2018-08-11T16:43:50Z</time>
      </trkpt>
      <trkpt lat="4.5789330" lon="-74.2501380">
        <ele>2537.9</ele>
        <time>2018-08-11T16:43:52Z</time>
      </trkpt>
      <trkpt lat="4.5789430" lon="-74.2501100">
        <ele>2537.9</ele>
        <time>2018-08-11T16:43:53Z</time>
      </trkpt>
      <trkpt lat="4.5789550" lon="-74.2500830">
        <ele>2538.0</ele>
        <time>2018-08-11T16:43:54Z</time>
      </trkpt>
      <trkpt lat="4.5789770" lon="-74.2500300">
        <ele>2538.1</ele>
        <time>2018-08-11T16:43:56Z</time>
      </trkpt>
      <trkpt lat="4.5789970" lon="-74.2499780">
        <ele>2538.3</ele>
        <time>2018-08-11T16:43:58Z</time>
      </trkpt>
      <trkpt lat="4.5790050" lon="-74.2499500">
        <ele>2538.3</ele>
        <time>2018-08-11T16:43:59Z</time>
      </trkpt>
      <trkpt lat="4.5790150" lon="-74.2499230">
        <ele>2538.4</ele>
        <time>2018-08-11T16:44:00Z</time>
      </trkpt>
      <trkpt lat="4.5790270" lon="-74.2498950">
        <ele>2538.5</ele>
        <time>2018-08-11T16:44:01Z</time>
      </trkpt>
      <trkpt lat="4.5790380" lon="-74.2498680">
        <ele>2538.5</ele>
        <time>2018-08-11T16:44:02Z</time>
      </trkpt>
      <trkpt lat="4.5790550" lon="-74.2498200">
        <ele>2538.7</ele>
        <time>2018-08-11T16:44:04Z</time>
      </trkpt>
      <trkpt lat="4.5790700" lon="-74.2497720">
        <ele>2538.8</ele>
        <time>2018-08-11T16:44:06Z</time>
      </trkpt>
      <trkpt lat="4.5790880" lon="-74.2497230">
        <ele>2538.9</ele>
        <time>2018-08-11T16:44:08Z</time>
      </trkpt>
      <trkpt lat="4.5790970" lon="-74.2496950">
        <ele>2539.0</ele>
        <time>2018-08-11T16:44:09Z</time>
      </trkpt>
      <trkpt lat="4.5791150" lon="-74.2496500">
        <ele>2539.3</ele>
        <time>2018-08-11T16:44:10Z</time>
      </trkpt>
      <trkpt lat="4.5791230" lon="-74.2496130">
        <ele>2539.5</ele>
        <time>2018-08-11T16:44:11Z</time>
      </trkpt>
      <trkpt lat="4.5791330" lon="-74.2495750">
        <ele>2539.8</ele>
        <time>2018-08-11T16:44:12Z</time>
      </trkpt>
      <trkpt lat="4.5791420" lon="-74.2495430">
        <ele>2540.0</ele>
        <time>2018-08-11T16:44:13Z</time>
      </trkpt>
      <trkpt lat="4.5791530" lon="-74.2494900">
        <ele>2540.5</ele>
        <time>2018-08-11T16:44:15Z</time>
      </trkpt>
      <trkpt lat="4.5791650" lon="-74.2494600">
        <ele>2540.7</ele>
        <time>2018-08-11T16:44:16Z</time>
      </trkpt>
      <trkpt lat="4.5791750" lon="-74.2494280">
        <ele>2541.0</ele>
        <time>2018-08-11T16:44:17Z</time>
      </trkpt>
      <trkpt lat="4.5791850" lon="-74.2493970">
        <ele>2541.3</ele>
        <time>2018-08-11T16:44:18Z</time>
      </trkpt>
      <trkpt lat="4.5791930" lon="-74.2493680">
        <ele>2541.6</ele>
        <time>2018-08-11T16:44:19Z</time>
      </trkpt>
      <trkpt lat="4.5792030" lon="-74.2493420">
        <ele>2541.9</ele>
        <time>2018-08-11T16:44:20Z</time>
      </trkpt>
      <trkpt lat="4.5792180" lon="-74.2492930">
        <ele>2542.9</ele>
        <time>2018-08-11T16:44:22Z</time>
      </trkpt>
      <trkpt lat="4.5792270" lon="-74.2492670">
        <ele>2543.4</ele>
        <time>2018-08-11T16:44:23Z</time>
      </trkpt>
      <trkpt lat="4.5792330" lon="-74.2492400">
        <ele>2543.9</ele>
        <time>2018-08-11T16:44:24Z</time>
      </trkpt>
      <trkpt lat="4.5792400" lon="-74.2492120">
        <ele>2544.5</ele>
        <time>2018-08-11T16:44:25Z</time>
      </trkpt>
      <trkpt lat="4.5792450" lon="-74.2491830">
        <ele>2545.0</ele>
        <time>2018-08-11T16:44:26Z</time>
      </trkpt>
      <trkpt lat="4.5792480" lon="-74.2491550">
        <ele>2545.6</ele>
        <time>2018-08-11T16:44:27Z</time>
      </trkpt>
      <trkpt lat="4.5792570" lon="-74.2491250">
        <ele>2546.2</ele>
        <time>2018-08-11T16:44:28Z</time>
      </trkpt>
      <trkpt lat="4.5792630" lon="-74.2490930">
        <ele>2546.8</ele>
        <time>2018-08-11T16:44:29Z</time>
      </trkpt>
      <trkpt lat="4.5792730" lon="-74.2490650">
        <ele>2547.0</ele>
        <time>2018-08-11T16:44:30Z</time>
      </trkpt>
      <trkpt lat="4.5792820" lon="-74.2490370">
        <ele>2547.0</ele>
        <time>2018-08-11T16:44:31Z</time>
      </trkpt>
      <trkpt lat="4.5792880" lon="-74.2490080">
        <ele>2547.0</ele>
        <time>2018-08-11T16:44:32Z</time>
      </trkpt>
      <trkpt lat="4.5792950" lon="-74.2489800">
        <ele>2547.0</ele>
        <time>2018-08-11T16:44:33Z</time>
      </trkpt>
      <trkpt lat="4.5793050" lon="-74.2489530">
        <ele>2547.0</ele>
        <time>2018-08-11T16:44:34Z</time>
      </trkpt>
      <trkpt lat="4.5793100" lon="-74.2489270">
        <ele>2547.0</ele>
        <time>2018-08-11T16:44:35Z</time>
      </trkpt>
      <trkpt lat="4.5793200" lon="-74.2488780">
        <ele>2547.0</ele>
        <time>2018-08-11T16:44:37Z</time>
      </trkpt>
      <trkpt lat="4.5793300" lon="-74.2488330">
        <ele>2547.0</ele>
        <time>2018-08-11T16:44:39Z</time>
      </trkpt>
      <trkpt lat="4.5793370" lon="-74.2488070">
        <ele>2547.0</ele>
        <time>2018-08-11T16:44:40Z</time>
      </trkpt>
      <trkpt lat="4.5793500" lon="-74.2487800">
        <ele>2547.0</ele>
        <time>2018-08-11T16:44:41Z</time>
      </trkpt>
      <trkpt lat="4.5793550" lon="-74.2487520">
        <ele>2547.0</ele>
        <time>2018-08-11T16:44:42Z</time>
      </trkpt>
      <trkpt lat="4.5793670" lon="-74.2487250">
        <ele>2547.0</ele>
        <time>2018-08-11T16:44:43Z</time>
      </trkpt>
      <trkpt lat="4.5793770" lon="-74.2486920">
        <ele>2547.0</ele>
        <time>2018-08-11T16:44:44Z</time>
      </trkpt>
      <trkpt lat="4.5793870" lon="-74.2486600">
        <ele>2547.0</ele>
        <time>2018-08-11T16:44:45Z</time>
      </trkpt>
      <trkpt lat="4.5793930" lon="-74.2486320">
        <ele>2547.0</ele>
        <time>2018-08-11T16:44:46Z</time>
      </trkpt>
      <trkpt lat="4.5793900" lon="-74.2485780">
        <ele>2547.0</ele>
        <time>2018-08-11T16:44:48Z</time>
      </trkpt>
      <trkpt lat="4.5794000" lon="-74.2485250">
        <ele>2547.0</ele>
        <time>2018-08-11T16:44:50Z</time>
      </trkpt>
      <trkpt lat="4.5794050" lon="-74.2484980">
        <ele>2547.0</ele>
        <time>2018-08-11T16:44:51Z</time>
      </trkpt>
      <trkpt lat="4.5794100" lon="-74.2484720">
        <ele>2547.0</ele>
        <time>2018-08-11T16:44:52Z</time>
      </trkpt>
      <trkpt lat="4.5794150" lon="-74.2484430">
        <ele>2547.1</ele>
        <time>2018-08-11T16:44:53Z</time>
      </trkpt>
      <trkpt lat="4.5794180" lon="-74.2484150">
        <ele>2547.2</ele>
        <time>2018-08-11T16:44:54Z</time>
      </trkpt>
      <trkpt lat="4.5794230" lon="-74.2483880">
        <ele>2547.3</ele>
        <time>2018-08-11T16:44:55Z</time>
      </trkpt>
      <trkpt lat="4.5794230" lon="-74.2483600">
        <ele>2547.4</ele>
        <time>2018-08-11T16:44:56Z</time>
      </trkpt>
      <trkpt lat="4.5794320" lon="-74.2483050">
        <ele>2547.6</ele>
        <time>2018-08-11T16:44:58Z</time>
      </trkpt>
      <trkpt lat="4.5794380" lon="-74.2482780">
        <ele>2547.7</ele>
        <time>2018-08-11T16:44:59Z</time>
      </trkpt>
      <trkpt lat="4.5794450" lon="-74.2482520">
        <ele>2547.8</ele>
        <time>2018-08-11T16:45:00Z</time>
      </trkpt>
      <trkpt lat="4.5794520" lon="-74.2482230">
        <ele>2547.9</ele>
        <time>2018-08-11T16:45:01Z</time>
      </trkpt>
      <trkpt lat="4.5794630" lon="-74.2481780">
        <ele>2548.1</ele>
        <time>2018-08-11T16:45:03Z</time>
      </trkpt>
      <trkpt lat="4.5794900" lon="-74.2481550">
        <ele>2548.1</ele>
        <time>2018-08-11T16:45:05Z</time>
      </trkpt>
      <trkpt lat="4.5795270" lon="-74.2481330">
        <ele>2548.2</ele>
        <time>2018-08-11T16:45:07Z</time>
      </trkpt>
      <trkpt lat="4.5795530" lon="-74.2481280">
        <ele>2548.2</ele>
        <time>2018-08-11T16:45:09Z</time>
      </trkpt>
      <trkpt lat="4.5795870" lon="-74.2481580">
        <ele>2548.2</ele>
        <time>2018-08-11T16:45:14Z</time>
      </trkpt>
      <trkpt lat="4.5795870" lon="-74.2480570">
        <ele>2548.0</ele>
        <time>2018-08-11T16:50:29Z</time>
      </trkpt>
      <trkpt lat="4.5796380" lon="-74.2481230">
        <ele>2547.9</ele>
        <time>2018-08-11T16:51:35Z</time>
      </trkpt>
      <trkpt lat="4.5795650" lon="-74.2480870">
        <ele>2547.8</ele>
        <time>2018-08-11T16:52:02Z</time>
      </trkpt>
      <trkpt lat="4.5796480" lon="-74.2481320">
        <ele>2547.7</ele>
        <time>2018-08-11T16:59:14Z</time>
      </trkpt>
      <trkpt lat="4.5796750" lon="-74.2481380">
        <ele>2547.7</ele>
        <time>2018-08-11T17:00:06Z</time>
      </trkpt>
      <trkpt lat="4.5795970" lon="-74.2480870">
        <ele>2547.6</ele>
        <time>2018-08-11T17:01:40Z</time>
      </trkpt>
      <trkpt lat="4.5796130" lon="-74.2481700">
        <ele>2547.5</ele>
        <time>2018-08-11T17:05:05Z</time>
      </trkpt>
      <trkpt lat="4.5795920" lon="-74.2482250">
        <ele>2547.4</ele>
        <time>2018-08-11T17:06:28Z</time>
      </trkpt>
      <trkpt lat="4.5795620" lon="-74.2482480">
        <ele>2547.4</ele>
        <time>2018-08-11T17:06:30Z</time>
      </trkpt>
      <trkpt lat="4.5795380" lon="-74.2482880">
        <ele>2547.3</ele>
        <time>2018-08-11T17:06:32Z</time>
      </trkpt>
      <trkpt lat="4.5795270" lon="-74.2483150">
        <ele>2547.3</ele>
        <time>2018-08-11T17:06:33Z</time>
      </trkpt>
      <trkpt lat="4.5795200" lon="-74.2483450">
        <ele>2547.3</ele>
        <time>2018-08-11T17:06:34Z</time>
      </trkpt>
      <trkpt lat="4.5795150" lon="-74.2483780">
        <ele>2547.2</ele>
        <time>2018-08-11T17:06:35Z</time>
      </trkpt>
      <trkpt lat="4.5795080" lon="-74.2484170">
        <ele>2547.2</ele>
        <time>2018-08-11T17:06:36Z</time>
      </trkpt>
      <trkpt lat="4.5795000" lon="-74.2484580">
        <ele>2547.1</ele>
        <time>2018-08-11T17:06:37Z</time>
      </trkpt>
      <trkpt lat="4.5794920" lon="-74.2485050">
        <ele>2547.0</ele>
        <time>2018-08-11T17:06:38Z</time>
      </trkpt>
      <trkpt lat="4.5794830" lon="-74.2485530">
        <ele>2547.0</ele>
        <time>2018-08-11T17:06:39Z</time>
      </trkpt>
      <trkpt lat="4.5794730" lon="-74.2486030">
        <ele>2547.0</ele>
        <time>2018-08-11T17:06:40Z</time>
      </trkpt>
      <trkpt lat="4.5794650" lon="-74.2486580">
        <ele>2547.0</ele>
        <time>2018-08-11T17:06:41Z</time>
      </trkpt>
      <trkpt lat="4.5794550" lon="-74.2487130">
        <ele>2547.0</ele>
        <time>2018-08-11T17:06:42Z</time>
      </trkpt>
      <trkpt lat="4.5794420" lon="-74.2487680">
        <ele>2547.0</ele>
        <time>2018-08-11T17:06:43Z</time>
      </trkpt>
      <trkpt lat="4.5794330" lon="-74.2488220">
        <ele>2547.0</ele>
        <time>2018-08-11T17:06:44Z</time>
      </trkpt>
      <trkpt lat="4.5794230" lon="-74.2488770">
        <ele>2547.0</ele>
        <time>2018-08-11T17:06:45Z</time>
      </trkpt>
      <trkpt lat="4.5794130" lon="-74.2489330">
        <ele>2547.0</ele>
        <time>2018-08-11T17:06:46Z</time>
      </trkpt>
      <trkpt lat="4.5794030" lon="-74.2489850">
        <ele>2547.0</ele>
        <time>2018-08-11T17:06:47Z</time>
      </trkpt>
      <trkpt lat="4.5793930" lon="-74.2490330">
        <ele>2547.0</ele>
        <time>2018-08-11T17:06:48Z</time>
      </trkpt>
      <trkpt lat="4.5793780" lon="-74.2490820">
        <ele>2547.0</ele>
        <time>2018-08-11T17:06:49Z</time>
      </trkpt>
      <trkpt lat="4.5793670" lon="-74.2491320">
        <ele>2546.7</ele>
        <time>2018-08-11T17:06:50Z</time>
      </trkpt>
      <trkpt lat="4.5793530" lon="-74.2491770">
        <ele>2545.7</ele>
        <time>2018-08-11T17:06:51Z</time>
      </trkpt>
      <trkpt lat="4.5793480" lon="-74.2492300">
        <ele>2544.7</ele>
        <time>2018-08-11T17:06:52Z</time>
      </trkpt>
      <trkpt lat="4.5793400" lon="-74.2492800">
        <ele>2543.7</ele>
        <time>2018-08-11T17:06:53Z</time>
      </trkpt>
      <trkpt lat="4.5793270" lon="-74.2493320">
        <ele>2542.6</ele>
        <time>2018-08-11T17:06:54Z</time>
      </trkpt>
      <trkpt lat="4.5793080" lon="-74.2493900">
        <ele>2541.7</ele>
        <time>2018-08-11T17:06:55Z</time>
      </trkpt>
      <trkpt lat="4.5792920" lon="-74.2494500">
        <ele>2541.1</ele>
        <time>2018-08-11T17:06:56Z</time>
      </trkpt>
      <trkpt lat="4.5792720" lon="-74.2495120">
        <ele>2540.6</ele>
        <time>2018-08-11T17:06:57Z</time>
      </trkpt>
      <trkpt lat="4.5792470" lon="-74.2495800">
        <ele>2540.0</ele>
        <time>2018-08-11T17:06:58Z</time>
      </trkpt>
      <trkpt lat="4.5792230" lon="-74.2496480">
        <ele>2539.5</ele>
        <time>2018-08-11T17:06:59Z</time>
      </trkpt>
      <trkpt lat="4.5791920" lon="-74.2497470">
        <ele>2538.9</ele>
        <time>2018-08-11T17:07:00Z</time>
      </trkpt>
      <trkpt lat="4.5791620" lon="-74.2498200">
        <ele>2538.7</ele>
        <time>2018-08-11T17:07:01Z</time>
      </trkpt>
      <trkpt lat="4.5791250" lon="-74.2499000">
        <ele>2538.5</ele>
        <time>2018-08-11T17:07:02Z</time>
      </trkpt>
      <trkpt lat="4.5790870" lon="-74.2499780">
        <ele>2538.3</ele>
        <time>2018-08-11T17:07:03Z</time>
      </trkpt>
      <trkpt lat="4.5790520" lon="-74.2500580">
        <ele>2538.1</ele>
        <time>2018-08-11T17:07:04Z</time>
      </trkpt>
      <trkpt lat="4.5790170" lon="-74.2501420">
        <ele>2537.9</ele>
        <time>2018-08-11T17:07:05Z</time>
      </trkpt>
      <trkpt lat="4.5789820" lon="-74.2502250">
        <ele>2537.9</ele>
        <time>2018-08-11T17:07:06Z</time>
      </trkpt>
      <trkpt lat="4.5789430" lon="-74.2503100">
        <ele>2537.9</ele>
        <time>2018-08-11T17:07:07Z</time>
      </trkpt>
      <trkpt lat="4.5789070" lon="-74.2503950">
        <ele>2538.0</ele>
        <time>2018-08-11T17:07:08Z</time>
      </trkpt>
      <trkpt lat="4.5788700" lon="-74.2504780">
        <ele>2538.1</ele>
        <time>2018-08-11T17:07:09Z</time>
      </trkpt>
      <trkpt lat="4.5788350" lon="-74.2505650">
        <ele>2538.2</ele>
        <time>2018-08-11T17:07:10Z</time>
      </trkpt>
      <trkpt lat="4.5788020" lon="-74.2506500">
        <ele>2538.2</ele>
        <time>2018-08-11T17:07:11Z</time>
      </trkpt>
      <trkpt lat="4.5787650" lon="-74.2507420">
        <ele>2538.2</ele>
        <time>2018-08-11T17:07:12Z</time>
      </trkpt>
      <trkpt lat="4.5787330" lon="-74.2508270">
        <ele>2538.2</ele>
        <time>2018-08-11T17:07:13Z</time>
      </trkpt>
      <trkpt lat="4.5787030" lon="-74.2509070">
        <ele>2538.2</ele>
        <time>2018-08-11T17:07:14Z</time>
      </trkpt>
      <trkpt lat="4.5786730" lon="-74.2509850">
        <ele>2538.2</ele>
        <time>2018-08-11T17:07:15Z</time>
      </trkpt>
      <trkpt lat="4.5786470" lon="-74.2510600">
        <ele>2538.2</ele>
        <time>2018-08-11T17:07:16Z</time>
      </trkpt>
      <trkpt lat="4.5786230" lon="-74.2511330">
        <ele>2538.2</ele>
        <time>2018-08-11T17:07:17Z</time>
      </trkpt>
      <trkpt lat="4.5785980" lon="-74.2512020">
        <ele>2538.2</ele>
        <time>2018-08-11T17:07:18Z</time>
      </trkpt>
      <trkpt lat="4.5785750" lon="-74.2512700">
        <ele>2538.1</ele>
        <time>2018-08-11T17:07:19Z</time>
      </trkpt>
      <trkpt lat="4.5785520" lon="-74.2513380">
        <ele>2538.1</ele>
        <time>2018-08-11T17:07:20Z</time>
      </trkpt>
      <trkpt lat="4.5785250" lon="-74.2514000">
        <ele>2538.1</ele>
        <time>2018-08-11T17:07:21Z</time>
      </trkpt>
      <trkpt lat="4.5784970" lon="-74.2514580">
        <ele>2538.1</ele>
        <time>2018-08-11T17:07:22Z</time>
      </trkpt>
      <trkpt lat="4.5784700" lon="-74.2515130">
        <ele>2538.1</ele>
        <time>2018-08-11T17:07:23Z</time>
      </trkpt>
      <trkpt lat="4.5784480" lon="-74.2515680">
        <ele>2538.0</ele>
        <time>2018-08-11T17:07:24Z</time>
      </trkpt>
      <trkpt lat="4.5784250" lon="-74.2516230">
        <ele>2538.0</ele>
        <time>2018-08-11T17:07:25Z</time>
      </trkpt>
      <trkpt lat="4.5784020" lon="-74.2516800">
        <ele>2538.0</ele>
        <time>2018-08-11T17:07:26Z</time>
      </trkpt>
      <trkpt lat="4.5783830" lon="-74.2517330">
        <ele>2538.1</ele>
        <time>2018-08-11T17:07:27Z</time>
      </trkpt>
      <trkpt lat="4.5783650" lon="-74.2517870">
        <ele>2538.1</ele>
        <time>2018-08-11T17:07:28Z</time>
      </trkpt>
      <trkpt lat="4.5783470" lon="-74.2518400">
        <ele>2538.2</ele>
        <time>2018-08-11T17:07:29Z</time>
      </trkpt>
      <trkpt lat="4.5783250" lon="-74.2518970">
        <ele>2538.3</ele>
        <time>2018-08-11T17:07:30Z</time>
      </trkpt>
      <trkpt lat="4.5783050" lon="-74.2519600">
        <ele>2538.5</ele>
        <time>2018-08-11T17:07:31Z</time>
      </trkpt>
      <trkpt lat="4.5782780" lon="-74.2520220">
        <ele>2538.6</ele>
        <time>2018-08-11T17:07:32Z</time>
      </trkpt>
      <trkpt lat="4.5782530" lon="-74.2520820">
        <ele>2538.7</ele>
        <time>2018-08-11T17:07:33Z</time>
      </trkpt>
      <trkpt lat="4.5782300" lon="-74.2521420">
        <ele>2538.8</ele>
        <time>2018-08-11T17:07:34Z</time>
      </trkpt>
      <trkpt lat="4.5782070" lon="-74.2522020">
        <ele>2538.9</ele>
        <time>2018-08-11T17:07:35Z</time>
      </trkpt>
      <trkpt lat="4.5781850" lon="-74.2522620">
        <ele>2539.0</ele>
        <time>2018-08-11T17:07:36Z</time>
      </trkpt>
      <trkpt lat="4.5781630" lon="-74.2523180">
        <ele>2539.1</ele>
        <time>2018-08-11T17:07:37Z</time>
      </trkpt>
      <trkpt lat="4.5781380" lon="-74.2523780">
        <ele>2539.3</ele>
        <time>2018-08-11T17:07:38Z</time>
      </trkpt>
      <trkpt lat="4.5781130" lon="-74.2524400">
        <ele>2539.5</ele>
        <time>2018-08-11T17:07:39Z</time>
      </trkpt>
      <trkpt lat="4.5780870" lon="-74.2525000">
        <ele>2539.7</ele>
        <time>2018-08-11T17:07:40Z</time>
      </trkpt>
      <trkpt lat="4.5780650" lon="-74.2525620">
        <ele>2539.9</ele>
        <time>2018-08-11T17:07:41Z</time>
      </trkpt>
      <trkpt lat="4.5780420" lon="-74.2526230">
        <ele>2540.0</ele>
        <time>2018-08-11T17:07:42Z</time>
      </trkpt>
      <trkpt lat="4.5780170" lon="-74.2526870">
        <ele>2540.1</ele>
        <time>2018-08-11T17:07:43Z</time>
      </trkpt>
      <trkpt lat="4.5779930" lon="-74.2527520">
        <ele>2540.1</ele>
        <time>2018-08-11T17:07:44Z</time>
      </trkpt>
      <trkpt lat="4.5779680" lon="-74.2528180">
        <ele>2540.2</ele>
        <time>2018-08-11T17:07:45Z</time>
      </trkpt>
      <trkpt lat="4.5779450" lon="-74.2528830">
        <ele>2540.2</ele>
        <time>2018-08-11T17:07:46Z</time>
      </trkpt>
      <trkpt lat="4.5779200" lon="-74.2529520">
        <ele>2540.3</ele>
        <time>2018-08-11T17:07:47Z</time>
      </trkpt>
      <trkpt lat="4.5778920" lon="-74.2530230">
        <ele>2540.3</ele>
        <time>2018-08-11T17:07:48Z</time>
      </trkpt>
      <trkpt lat="4.5778630" lon="-74.2531030">
        <ele>2540.4</ele>
        <time>2018-08-11T17:07:49Z</time>
      </trkpt>
      <trkpt lat="4.5778370" lon="-74.2531830">
        <ele>2540.5</ele>
        <time>2018-08-11T17:07:50Z</time>
      </trkpt>
      <trkpt lat="4.5778080" lon="-74.2532650">
        <ele>2540.5</ele>
        <time>2018-08-11T17:07:51Z</time>
      </trkpt>
      <trkpt lat="4.5777820" lon="-74.2533430">
        <ele>2540.6</ele>
        <time>2018-08-11T17:07:52Z</time>
      </trkpt>
      <trkpt lat="4.5777550" lon="-74.2534200">
        <ele>2540.7</ele>
        <time>2018-08-11T17:07:53Z</time>
      </trkpt>
      <trkpt lat="4.5777280" lon="-74.2534980">
        <ele>2540.7</ele>
        <time>2018-08-11T17:07:54Z</time>
      </trkpt>
      <trkpt lat="4.5777030" lon="-74.2535820">
        <ele>2540.8</ele>
        <time>2018-08-11T17:07:55Z</time>
      </trkpt>
      <trkpt lat="4.5776830" lon="-74.2536680">
        <ele>2540.9</ele>
        <time>2018-08-11T17:07:56Z</time>
      </trkpt>
      <trkpt lat="4.5776670" lon="-74.2537620">
        <ele>2540.9</ele>
        <time>2018-08-11T17:07:57Z</time>
      </trkpt>
      <trkpt lat="4.5776530" lon="-74.2538570">
        <ele>2541.0</ele>
        <time>2018-08-11T17:07:58Z</time>
      </trkpt>
      <trkpt lat="4.5776500" lon="-74.2539520">
        <ele>2541.1</ele>
        <time>2018-08-11T17:07:59Z</time>
      </trkpt>
      <trkpt lat="4.5776570" lon="-74.2540470">
        <ele>2541.1</ele>
        <time>2018-08-11T17:08:00Z</time>
      </trkpt>
      <trkpt lat="4.5776730" lon="-74.2541430">
        <ele>2541.2</ele>
        <time>2018-08-11T17:08:01Z</time>
      </trkpt>
      <trkpt lat="4.5776980" lon="-74.2542350">
        <ele>2541.3</ele>
        <time>2018-08-11T17:08:02Z</time>
      </trkpt>
      <trkpt lat="4.5777280" lon="-74.2543250">
        <ele>2541.3</ele>
        <time>2018-08-11T17:08:03Z</time>
      </trkpt>
      <trkpt lat="4.5777670" lon="-74.2544100">
        <ele>2541.4</ele>
        <time>2018-08-11T17:08:04Z</time>
      </trkpt>
      <trkpt lat="4.5778080" lon="-74.2544920">
        <ele>2541.5</ele>
        <time>2018-08-11T17:08:05Z</time>
      </trkpt>
      <trkpt lat="4.5778570" lon="-74.2545670">
        <ele>2541.6</ele>
        <time>2018-08-11T17:08:06Z</time>
      </trkpt>
      <trkpt lat="4.5779130" lon="-74.2546420">
        <ele>2541.6</ele>
        <time>2018-08-11T17:08:07Z</time>
      </trkpt>
      <trkpt lat="4.5779770" lon="-74.2547120">
        <ele>2541.7</ele>
        <time>2018-08-11T17:08:08Z</time>
      </trkpt>
      <trkpt lat="4.5780420" lon="-74.2547730">
        <ele>2541.7</ele>
        <time>2018-08-11T17:08:09Z</time>
      </trkpt>
      <trkpt lat="4.5781120" lon="-74.2548330">
        <ele>2541.7</ele>
        <time>2018-08-11T17:08:10Z</time>
      </trkpt>
      <trkpt lat="4.5781820" lon="-74.2548920">
        <ele>2541.7</ele>
        <time>2018-08-11T17:08:11Z</time>
      </trkpt>
      <trkpt lat="4.5782500" lon="-74.2549470">
        <ele>2541.6</ele>
        <time>2018-08-11T17:08:12Z</time>
      </trkpt>
      <trkpt lat="4.5783170" lon="-74.2550020">
        <ele>2541.6</ele>
        <time>2018-08-11T17:08:13Z</time>
      </trkpt>
      <trkpt lat="4.5783820" lon="-74.2550580">
        <ele>2541.4</ele>
        <time>2018-08-11T17:08:14Z</time>
      </trkpt>
      <trkpt lat="4.5784450" lon="-74.2551120">
        <ele>2541.3</ele>
        <time>2018-08-11T17:08:15Z</time>
      </trkpt>
      <trkpt lat="4.5785050" lon="-74.2551650">
        <ele>2541.2</ele>
        <time>2018-08-11T17:08:16Z</time>
      </trkpt>
      <trkpt lat="4.5785650" lon="-74.2552180">
        <ele>2541.1</ele>
        <time>2018-08-11T17:08:17Z</time>
      </trkpt>
      <trkpt lat="4.5786220" lon="-74.2552720">
        <ele>2541.0</ele>
        <time>2018-08-11T17:08:18Z</time>
      </trkpt>
      <trkpt lat="4.5786820" lon="-74.2553230">
        <ele>2540.9</ele>
        <time>2018-08-11T17:08:19Z</time>
      </trkpt>
      <trkpt lat="4.5787420" lon="-74.2553720">
        <ele>2540.9</ele>
        <time>2018-08-11T17:08:20Z</time>
      </trkpt>
      <trkpt lat="4.5788050" lon="-74.2554200">
        <ele>2540.9</ele>
        <time>2018-08-11T17:08:21Z</time>
      </trkpt>
      <trkpt lat="4.5788680" lon="-74.2554650">
        <ele>2540.9</ele>
        <time>2018-08-11T17:08:22Z</time>
      </trkpt>
      <trkpt lat="4.5789280" lon="-74.2555080">
        <ele>2540.9</ele>
        <time>2018-08-11T17:08:23Z</time>
      </trkpt>
      <trkpt lat="4.5789900" lon="-74.2555530">
        <ele>2540.9</ele>
        <time>2018-08-11T17:08:24Z</time>
      </trkpt>
      <trkpt lat="4.5790550" lon="-74.2556070">
        <ele>2541.0</ele>
        <time>2018-08-11T17:08:25Z</time>
      </trkpt>
      <trkpt lat="4.5791200" lon="-74.2556620">
        <ele>2541.0</ele>
        <time>2018-08-11T17:08:26Z</time>
      </trkpt>
      <trkpt lat="4.5791800" lon="-74.2557130">
        <ele>2541.0</ele>
        <time>2018-08-11T17:08:27Z</time>
      </trkpt>
      <trkpt lat="4.5792450" lon="-74.2557680">
        <ele>2541.0</ele>
        <time>2018-08-11T17:08:28Z</time>
      </trkpt>
      <trkpt lat="4.5793050" lon="-74.2558220">
        <ele>2541.1</ele>
        <time>2018-08-11T17:08:29Z</time>
      </trkpt>
      <trkpt lat="4.5793680" lon="-74.2558770">
        <ele>2541.1</ele>
        <time>2018-08-11T17:08:30Z</time>
      </trkpt>
      <trkpt lat="4.5794300" lon="-74.2559330">
        <ele>2541.2</ele>
        <time>2018-08-11T17:08:31Z</time>
      </trkpt>
      <trkpt lat="4.5794880" lon="-74.2559900">
        <ele>2541.2</ele>
        <time>2018-08-11T17:08:32Z</time>
      </trkpt>
      <trkpt lat="4.5795430" lon="-74.2560450">
        <ele>2541.3</ele>
        <time>2018-08-11T17:08:33Z</time>
      </trkpt>
      <trkpt lat="4.5795950" lon="-74.2561020">
        <ele>2541.3</ele>
        <time>2018-08-11T17:08:34Z</time>
      </trkpt>
      <trkpt lat="4.5796400" lon="-74.2561600">
        <ele>2541.4</ele>
        <time>2018-08-11T17:08:35Z</time>
      </trkpt>
      <trkpt lat="4.5796830" lon="-74.2562170">
        <ele>2541.4</ele>
        <time>2018-08-11T17:08:36Z</time>
      </trkpt>
      <trkpt lat="4.5797270" lon="-74.2562730">
        <ele>2541.5</ele>
        <time>2018-08-11T17:08:37Z</time>
      </trkpt>
      <trkpt lat="4.5797680" lon="-74.2563350">
        <ele>2541.5</ele>
        <time>2018-08-11T17:08:38Z</time>
      </trkpt>
      <trkpt lat="4.5798070" lon="-74.2563930">
        <ele>2541.6</ele>
        <time>2018-08-11T17:08:39Z</time>
      </trkpt>
      <trkpt lat="4.5798420" lon="-74.2564530">
        <ele>2541.6</ele>
        <time>2018-08-11T17:08:40Z</time>
      </trkpt>
      <trkpt lat="4.5798720" lon="-74.2565130">
        <ele>2541.7</ele>
        <time>2018-08-11T17:08:41Z</time>
      </trkpt>
      <trkpt lat="4.5798950" lon="-74.2565770">
        <ele>2541.8</ele>
        <time>2018-08-11T17:08:42Z</time>
      </trkpt>
      <trkpt lat="4.5799170" lon="-74.2566430">
        <ele>2541.9</ele>
        <time>2018-08-11T17:08:43Z</time>
      </trkpt>
      <trkpt lat="4.5799300" lon="-74.2567100">
        <ele>2542.0</ele>
        <time>2018-08-11T17:08:44Z</time>
      </trkpt>
      <trkpt lat="4.5799330" lon="-74.2567800">
        <ele>2542.2</ele>
        <time>2018-08-11T17:08:45Z</time>
      </trkpt>
      <trkpt lat="4.5799330" lon="-74.2568480">
        <ele>2542.4</ele>
        <time>2018-08-11T17:08:46Z</time>
      </trkpt>
      <trkpt lat="4.5799320" lon="-74.2569130">
        <ele>2542.6</ele>
        <time>2018-08-11T17:08:47Z</time>
      </trkpt>
      <trkpt lat="4.5799200" lon="-74.2569780">
        <ele>2542.8</ele>
        <time>2018-08-11T17:08:48Z</time>
      </trkpt>
      <trkpt lat="4.5799050" lon="-74.2570470">
        <ele>2543.1</ele>
        <time>2018-08-11T17:08:49Z</time>
      </trkpt>
      <trkpt lat="4.5798900" lon="-74.2571200">
        <ele>2543.4</ele>
        <time>2018-08-11T17:08:50Z</time>
      </trkpt>
      <trkpt lat="4.5798720" lon="-74.2571880">
        <ele>2543.8</ele>
        <time>2018-08-11T17:08:51Z</time>
      </trkpt>
      <trkpt lat="4.5798580" lon="-74.2572600">
        <ele>2544.1</ele>
        <time>2018-08-11T17:08:52Z</time>
      </trkpt>
      <trkpt lat="4.5798430" lon="-74.2573330">
        <ele>2544.4</ele>
        <time>2018-08-11T17:08:53Z</time>
      </trkpt>
      <trkpt lat="4.5798270" lon="-74.2574030">
        <ele>2544.7</ele>
        <time>2018-08-11T17:08:54Z</time>
      </trkpt>
      <trkpt lat="4.5798050" lon="-74.2574750">
        <ele>2545.1</ele>
        <time>2018-08-11T17:08:55Z</time>
      </trkpt>
      <trkpt lat="4.5797830" lon="-74.2575500">
        <ele>2545.4</ele>
        <time>2018-08-11T17:08:56Z</time>
      </trkpt>
      <trkpt lat="4.5797630" lon="-74.2576250">
        <ele>2545.6</ele>
        <time>2018-08-11T17:08:57Z</time>
      </trkpt>
      <trkpt lat="4.5797450" lon="-74.2577030">
        <ele>2545.8</ele>
        <time>2018-08-11T17:08:58Z</time>
      </trkpt>
      <trkpt lat="4.5797250" lon="-74.2577780">
        <ele>2546.0</ele>
        <time>2018-08-11T17:08:59Z</time>
      </trkpt>
      <trkpt lat="4.5797070" lon="-74.2578550">
        <ele>2546.2</ele>
        <time>2018-08-11T17:09:00Z</time>
      </trkpt>
      <trkpt lat="4.5796870" lon="-74.2579330">
        <ele>2546.3</ele>
        <time>2018-08-11T17:09:01Z</time>
      </trkpt>
      <trkpt lat="4.5796700" lon="-74.2580180">
        <ele>2546.5</ele>
        <time>2018-08-11T17:09:02Z</time>
      </trkpt>
      <trkpt lat="4.5796500" lon="-74.2581000">
        <ele>2546.7</ele>
        <time>2018-08-11T17:09:03Z</time>
      </trkpt>
      <trkpt lat="4.5796300" lon="-74.2581830">
        <ele>2546.8</ele>
        <time>2018-08-11T17:09:04Z</time>
      </trkpt>
      <trkpt lat="4.5796080" lon="-74.2582680">
        <ele>2547.2</ele>
        <time>2018-08-11T17:09:05Z</time>
      </trkpt>
      <trkpt lat="4.5795870" lon="-74.2583530">
        <ele>2547.7</ele>
        <time>2018-08-11T17:09:06Z</time>
      </trkpt>
      <trkpt lat="4.5795650" lon="-74.2584380">
        <ele>2548.4</ele>
        <time>2018-08-11T17:09:07Z</time>
      </trkpt>
      <trkpt lat="4.5795450" lon="-74.2585200">
        <ele>2549.0</ele>
        <time>2018-08-11T17:09:08Z</time>
      </trkpt>
      <trkpt lat="4.5795230" lon="-74.2586020">
        <ele>2549.7</ele>
        <time>2018-08-11T17:09:09Z</time>
      </trkpt>
      <trkpt lat="4.5795000" lon="-74.2586800">
        <ele>2550.4</ele>
        <time>2018-08-11T17:09:10Z</time>
      </trkpt>
      <trkpt lat="4.5794800" lon="-74.2587550">
        <ele>2551.1</ele>
        <time>2018-08-11T17:09:11Z</time>
      </trkpt>
      <trkpt lat="4.5794570" lon="-74.2588250">
        <ele>2551.8</ele>
        <time>2018-08-11T17:09:12Z</time>
      </trkpt>
      <trkpt lat="4.5794320" lon="-74.2588920">
        <ele>2552.4</ele>
        <time>2018-08-11T17:09:13Z</time>
      </trkpt>
      <trkpt lat="4.5794070" lon="-74.2589520">
        <ele>2553.0</ele>
        <time>2018-08-11T17:09:14Z</time>
      </trkpt>
      <trkpt lat="4.5793800" lon="-74.2590100">
        <ele>2553.6</ele>
        <time>2018-08-11T17:09:15Z</time>
      </trkpt>
      <trkpt lat="4.5793520" lon="-74.2590670">
        <ele>2554.2</ele>
        <time>2018-08-11T17:09:16Z</time>
      </trkpt>
      <trkpt lat="4.5793250" lon="-74.2591200">
        <ele>2554.7</ele>
        <time>2018-08-11T17:09:17Z</time>
      </trkpt>
      <trkpt lat="4.5793030" lon="-74.2591700">
        <ele>2555.2</ele>
        <time>2018-08-11T17:09:18Z</time>
      </trkpt>
      <trkpt lat="4.5792820" lon="-74.2592200">
        <ele>2555.6</ele>
        <time>2018-08-11T17:09:19Z</time>
      </trkpt>
      <trkpt lat="4.5792580" lon="-74.2592670">
        <ele>2556.0</ele>
        <time>2018-08-11T17:09:20Z</time>
      </trkpt>
      <trkpt lat="4.5792330" lon="-74.2593080">
        <ele>2556.4</ele>
        <time>2018-08-11T17:09:21Z</time>
      </trkpt>
      <trkpt lat="4.5792150" lon="-74.2593480">
        <ele>2556.8</ele>
        <time>2018-08-11T17:09:22Z</time>
      </trkpt>
      <trkpt lat="4.5791970" lon="-74.2593870">
        <ele>2557.1</ele>
        <time>2018-08-11T17:09:23Z</time>
      </trkpt>
      <trkpt lat="4.5791820" lon="-74.2594230">
        <ele>2557.3</ele>
        <time>2018-08-11T17:09:24Z</time>
      </trkpt>
      <trkpt lat="4.5791680" lon="-74.2594570">
        <ele>2557.6</ele>
        <time>2018-08-11T17:09:25Z</time>
      </trkpt>
      <trkpt lat="4.5791570" lon="-74.2594850">
        <ele>2557.8</ele>
        <time>2018-08-11T17:09:26Z</time>
      </trkpt>
      <trkpt lat="4.5791470" lon="-74.2595120">
        <ele>2557.9</ele>
        <time>2018-08-11T17:09:27Z</time>
      </trkpt>
      <trkpt lat="4.5791420" lon="-74.2595380">
        <ele>2558.1</ele>
        <time>2018-08-11T17:09:28Z</time>
      </trkpt>
      <trkpt lat="4.5791350" lon="-74.2595920">
        <ele>2558.4</ele>
        <time>2018-08-11T17:09:30Z</time>
      </trkpt>
      <trkpt lat="4.5791350" lon="-74.2596380">
        <ele>2558.5</ele>
        <time>2018-08-11T17:09:32Z</time>
      </trkpt>
      <trkpt lat="4.5791380" lon="-74.2596870">
        <ele>2558.7</ele>
        <time>2018-08-11T17:09:34Z</time>
      </trkpt>
      <trkpt lat="4.5791430" lon="-74.2597330">
        <ele>2558.8</ele>
        <time>2018-08-11T17:09:36Z</time>
      </trkpt>
      <trkpt lat="4.5791570" lon="-74.2597730">
        <ele>2558.9</ele>
        <time>2018-08-11T17:09:38Z</time>
      </trkpt>
      <trkpt lat="4.5791630" lon="-74.2598220">
        <ele>2559.1</ele>
        <time>2018-08-11T17:09:40Z</time>
      </trkpt>
      <trkpt lat="4.5791670" lon="-74.2598500">
        <ele>2559.2</ele>
        <time>2018-08-11T17:09:41Z</time>
      </trkpt>
      <trkpt lat="4.5791730" lon="-74.2598780">
        <ele>2559.3</ele>
        <time>2018-08-11T17:09:42Z</time>
      </trkpt>
      <trkpt lat="4.5791800" lon="-74.2599100">
        <ele>2559.4</ele>
        <time>2018-08-11T17:09:43Z</time>
      </trkpt>
      <trkpt lat="4.5791900" lon="-74.2599420">
        <ele>2559.5</ele>
        <time>2018-08-11T17:09:44Z</time>
      </trkpt>
      <trkpt lat="4.5792000" lon="-74.2599700">
        <ele>2559.5</ele>
        <time>2018-08-11T17:09:45Z</time>
      </trkpt>
      <trkpt lat="4.5792080" lon="-74.2599980">
        <ele>2559.5</ele>
        <time>2018-08-11T17:09:46Z</time>
      </trkpt>
      <trkpt lat="4.5792230" lon="-74.2600280">
        <ele>2559.6</ele>
        <time>2018-08-11T17:09:47Z</time>
      </trkpt>
      <trkpt lat="4.5792380" lon="-74.2600600">
        <ele>2559.6</ele>
        <time>2018-08-11T17:09:48Z</time>
      </trkpt>
      <trkpt lat="4.5792530" lon="-74.2600920">
        <ele>2559.6</ele>
        <time>2018-08-11T17:09:49Z</time>
      </trkpt>
      <trkpt lat="4.5792680" lon="-74.2601230">
        <ele>2559.7</ele>
        <time>2018-08-11T17:09:50Z</time>
      </trkpt>
      <trkpt lat="4.5792820" lon="-74.2601570">
        <ele>2559.7</ele>
        <time>2018-08-11T17:09:51Z</time>
      </trkpt>
      <trkpt lat="4.5792930" lon="-74.2601900">
        <ele>2559.7</ele>
        <time>2018-08-11T17:09:52Z</time>
      </trkpt>
      <trkpt lat="4.5793070" lon="-74.2602220">
        <ele>2559.8</ele>
        <time>2018-08-11T17:09:53Z</time>
      </trkpt>
      <trkpt lat="4.5793230" lon="-74.2602550">
        <ele>2559.8</ele>
        <time>2018-08-11T17:09:54Z</time>
      </trkpt>
      <trkpt lat="4.5793420" lon="-74.2602870">
        <ele>2559.8</ele>
        <time>2018-08-11T17:09:55Z</time>
      </trkpt>
      <trkpt lat="4.5793580" lon="-74.2603180">
        <ele>2559.9</ele>
        <time>2018-08-11T17:09:56Z</time>
      </trkpt>
      <trkpt lat="4.5793730" lon="-74.2603480">
        <ele>2559.9</ele>
        <time>2018-08-11T17:09:57Z</time>
      </trkpt>
      <trkpt lat="4.5793870" lon="-74.2603830">
        <ele>2559.9</ele>
        <time>2018-08-11T17:09:58Z</time>
      </trkpt>
      <trkpt lat="4.5793980" lon="-74.2604150">
        <ele>2560.0</ele>
        <time>2018-08-11T17:09:59Z</time>
      </trkpt>
      <trkpt lat="4.5794180" lon="-74.2604470">
        <ele>2560.0</ele>
        <time>2018-08-11T17:10:00Z</time>
      </trkpt>
      <trkpt lat="4.5794370" lon="-74.2604780">
        <ele>2559.9</ele>
        <time>2018-08-11T17:10:01Z</time>
      </trkpt>
      <trkpt lat="4.5794520" lon="-74.2605070">
        <ele>2559.8</ele>
        <time>2018-08-11T17:10:02Z</time>
      </trkpt>
      <trkpt lat="4.5794680" lon="-74.2605400">
        <ele>2559.7</ele>
        <time>2018-08-11T17:10:03Z</time>
      </trkpt>
      <trkpt lat="4.5794870" lon="-74.2605730">
        <ele>2559.5</ele>
        <time>2018-08-11T17:10:04Z</time>
      </trkpt>
      <trkpt lat="4.5795020" lon="-74.2606080">
        <ele>2559.4</ele>
        <time>2018-08-11T17:10:05Z</time>
      </trkpt>
      <trkpt lat="4.5795170" lon="-74.2606420">
        <ele>2559.2</ele>
        <time>2018-08-11T17:10:06Z</time>
      </trkpt>
      <trkpt lat="4.5795330" lon="-74.2606770">
        <ele>2559.1</ele>
        <time>2018-08-11T17:10:07Z</time>
      </trkpt>
      <trkpt lat="4.5795520" lon="-74.2607120">
        <ele>2558.9</ele>
        <time>2018-08-11T17:10:08Z</time>
      </trkpt>
      <trkpt lat="4.5795700" lon="-74.2607420">
        <ele>2558.8</ele>
        <time>2018-08-11T17:10:09Z</time>
      </trkpt>
      <trkpt lat="4.5795870" lon="-74.2607770">
        <ele>2558.6</ele>
        <time>2018-08-11T17:10:10Z</time>
      </trkpt>
      <trkpt lat="4.5796070" lon="-74.2608080">
        <ele>2558.4</ele>
        <time>2018-08-11T17:10:11Z</time>
      </trkpt>
      <trkpt lat="4.5796300" lon="-74.2608400">
        <ele>2558.2</ele>
        <time>2018-08-11T17:10:12Z</time>
      </trkpt>
      <trkpt lat="4.5796570" lon="-74.2608750">
        <ele>2557.9</ele>
        <time>2018-08-11T17:10:13Z</time>
      </trkpt>
      <trkpt lat="4.5796820" lon="-74.2609050">
        <ele>2557.7</ele>
        <time>2018-08-11T17:10:14Z</time>
      </trkpt>
      <trkpt lat="4.5797120" lon="-74.2609330">
        <ele>2557.5</ele>
        <time>2018-08-11T17:10:15Z</time>
      </trkpt>
      <trkpt lat="4.5797420" lon="-74.2609600">
        <ele>2557.3</ele>
        <time>2018-08-11T17:10:16Z</time>
      </trkpt>
      <trkpt lat="4.5797680" lon="-74.2609820">
        <ele>2557.2</ele>
        <time>2018-08-11T17:10:17Z</time>
      </trkpt>
      <trkpt lat="4.5798030" lon="-74.2610070">
        <ele>2557.0</ele>
        <time>2018-08-11T17:10:18Z</time>
      </trkpt>
      <trkpt lat="4.5798380" lon="-74.2610300">
        <ele>2556.8</ele>
        <time>2018-08-11T17:10:19Z</time>
      </trkpt>
      <trkpt lat="4.5798770" lon="-74.2610520">
        <ele>2556.6</ele>
        <time>2018-08-11T17:10:20Z</time>
      </trkpt>
      <trkpt lat="4.5799170" lon="-74.2610750">
        <ele>2556.4</ele>
        <time>2018-08-11T17:10:21Z</time>
      </trkpt>
      <trkpt lat="4.5799480" lon="-74.2610970">
        <ele>2556.3</ele>
        <time>2018-08-11T17:10:22Z</time>
      </trkpt>
      <trkpt lat="4.5799830" lon="-74.2611130">
        <ele>2556.1</ele>
        <time>2018-08-11T17:10:23Z</time>
      </trkpt>
      <trkpt lat="4.5800270" lon="-74.2611370">
        <ele>2555.9</ele>
        <time>2018-08-11T17:10:24Z</time>
      </trkpt>
      <trkpt lat="4.5800670" lon="-74.2611570">
        <ele>2555.8</ele>
        <time>2018-08-11T17:10:25Z</time>
      </trkpt>
      <trkpt lat="4.5801020" lon="-74.2611750">
        <ele>2555.6</ele>
        <time>2018-08-11T17:10:26Z</time>
      </trkpt>
      <trkpt lat="4.5801400" lon="-74.2611930">
        <ele>2555.5</ele>
        <time>2018-08-11T17:10:27Z</time>
      </trkpt>
      <trkpt lat="4.5801800" lon="-74.2612180">
        <ele>2555.3</ele>
        <time>2018-08-11T17:10:28Z</time>
      </trkpt>
      <trkpt lat="4.5802170" lon="-74.2612430">
        <ele>2555.2</ele>
        <time>2018-08-11T17:10:29Z</time>
      </trkpt>
      <trkpt lat="4.5802600" lon="-74.2612680">
        <ele>2555.1</ele>
        <time>2018-08-11T17:10:30Z</time>
      </trkpt>
      <trkpt lat="4.5803000" lon="-74.2612950">
        <ele>2555.0</ele>
        <time>2018-08-11T17:10:31Z</time>
      </trkpt>
      <trkpt lat="4.5803470" lon="-74.2613230">
        <ele>2554.9</ele>
        <time>2018-08-11T17:10:32Z</time>
      </trkpt>
      <trkpt lat="4.5803900" lon="-74.2613470">
        <ele>2554.8</ele>
        <time>2018-08-11T17:10:33Z</time>
      </trkpt>
      <trkpt lat="4.5804370" lon="-74.2613730">
        <ele>2554.7</ele>
        <time>2018-08-11T17:10:34Z</time>
      </trkpt>
      <trkpt lat="4.5804880" lon="-74.2613970">
        <ele>2554.6</ele>
        <time>2018-08-11T17:10:35Z</time>
      </trkpt>
      <trkpt lat="4.5805350" lon="-74.2614200">
        <ele>2554.4</ele>
        <time>2018-08-11T17:10:36Z</time>
      </trkpt>
      <trkpt lat="4.5805830" lon="-74.2614380">
        <ele>2554.3</ele>
        <time>2018-08-11T17:10:37Z</time>
      </trkpt>
      <trkpt lat="4.5806300" lon="-74.2614650">
        <ele>2554.2</ele>
        <time>2018-08-11T17:10:38Z</time>
      </trkpt>
      <trkpt lat="4.5806750" lon="-74.2614880">
        <ele>2554.1</ele>
        <time>2018-08-11T17:10:39Z</time>
      </trkpt>
      <trkpt lat="4.5807220" lon="-74.2615100">
        <ele>2554.0</ele>
        <time>2018-08-11T17:10:40Z</time>
      </trkpt>
      <trkpt lat="4.5807670" lon="-74.2615300">
        <ele>2553.9</ele>
        <time>2018-08-11T17:10:41Z</time>
      </trkpt>
      <trkpt lat="4.5808120" lon="-74.2615500">
        <ele>2553.8</ele>
        <time>2018-08-11T17:10:42Z</time>
      </trkpt>
      <trkpt lat="4.5808550" lon="-74.2615650">
        <ele>2553.6</ele>
        <time>2018-08-11T17:10:43Z</time>
      </trkpt>
      <trkpt lat="4.5809000" lon="-74.2615820">
        <ele>2553.5</ele>
        <time>2018-08-11T17:10:44Z</time>
      </trkpt>
      <trkpt lat="4.5809430" lon="-74.2616020">
        <ele>2553.4</ele>
        <time>2018-08-11T17:10:45Z</time>
      </trkpt>
      <trkpt lat="4.5809900" lon="-74.2616270">
        <ele>2553.2</ele>
        <time>2018-08-11T17:10:46Z</time>
      </trkpt>
      <trkpt lat="4.5810330" lon="-74.2616500">
        <ele>2553.1</ele>
        <time>2018-08-11T17:10:47Z</time>
      </trkpt>
      <trkpt lat="4.5810780" lon="-74.2616750">
        <ele>2552.9</ele>
        <time>2018-08-11T17:10:48Z</time>
      </trkpt>
      <trkpt lat="4.5811220" lon="-74.2617000">
        <ele>2552.8</ele>
        <time>2018-08-11T17:10:49Z</time>
      </trkpt>
      <trkpt lat="4.5811600" lon="-74.2617270">
        <ele>2552.6</ele>
        <time>2018-08-11T17:10:50Z</time>
      </trkpt>
      <trkpt lat="4.5812020" lon="-74.2617520">
        <ele>2552.2</ele>
        <time>2018-08-11T17:10:51Z</time>
      </trkpt>
      <trkpt lat="4.5812430" lon="-74.2617820">
        <ele>2552.0</ele>
        <time>2018-08-11T17:10:52Z</time>
      </trkpt>
      <trkpt lat="4.5812830" lon="-74.2618220">
        <ele>2551.9</ele>
        <time>2018-08-11T17:10:53Z</time>
      </trkpt>
      <trkpt lat="4.5813130" lon="-74.2618600">
        <ele>2551.7</ele>
        <time>2018-08-11T17:10:54Z</time>
      </trkpt>
      <trkpt lat="4.5813400" lon="-74.2619000">
        <ele>2551.4</ele>
        <time>2018-08-11T17:10:55Z</time>
      </trkpt>
      <trkpt lat="4.5813580" lon="-74.2619400">
        <ele>2551.1</ele>
        <time>2018-08-11T17:10:56Z</time>
      </trkpt>
      <trkpt lat="4.5813700" lon="-74.2619800">
        <ele>2551.0</ele>
        <time>2018-08-11T17:10:57Z</time>
      </trkpt>
      <trkpt lat="4.5813680" lon="-74.2620220">
        <ele>2550.9</ele>
        <time>2018-08-11T17:10:58Z</time>
      </trkpt>
      <trkpt lat="4.5813500" lon="-74.2620600">
        <ele>2551.0</ele>
        <time>2018-08-11T17:10:59Z</time>
      </trkpt>
      <trkpt lat="4.5813230" lon="-74.2620980">
        <ele>2551.2</ele>
        <time>2018-08-11T17:11:00Z</time>
      </trkpt>
      <trkpt lat="4.5812880" lon="-74.2621370">
        <ele>2552.0</ele>
        <time>2018-08-11T17:11:01Z</time>
      </trkpt>
      <trkpt lat="4.5812500" lon="-74.2621770">
        <ele>2552.7</ele>
        <time>2018-08-11T17:11:02Z</time>
      </trkpt>
      <trkpt lat="4.5812100" lon="-74.2622180">
        <ele>2552.9</ele>
        <time>2018-08-11T17:11:03Z</time>
      </trkpt>
      <trkpt lat="4.5811650" lon="-74.2622520">
        <ele>2553.0</ele>
        <time>2018-08-11T17:11:04Z</time>
      </trkpt>
      <trkpt lat="4.5811130" lon="-74.2622770">
        <ele>2553.2</ele>
        <time>2018-08-11T17:11:05Z</time>
      </trkpt>
      <trkpt lat="4.5810580" lon="-74.2622950">
        <ele>2553.4</ele>
        <time>2018-08-11T17:11:06Z</time>
      </trkpt>
      <trkpt lat="4.5810030" lon="-74.2623150">
        <ele>2553.6</ele>
        <time>2018-08-11T17:11:07Z</time>
      </trkpt>
      <trkpt lat="4.5809480" lon="-74.2623370">
        <ele>2553.8</ele>
        <time>2018-08-11T17:11:08Z</time>
      </trkpt>
      <trkpt lat="4.5808930" lon="-74.2623530">
        <ele>2554.0</ele>
        <time>2018-08-11T17:11:09Z</time>
      </trkpt>
      <trkpt lat="4.5808380" lon="-74.2623700">
        <ele>2554.2</ele>
        <time>2018-08-11T17:11:10Z</time>
      </trkpt>
      <trkpt lat="4.5807820" lon="-74.2623830">
        <ele>2554.4</ele>
        <time>2018-08-11T17:11:11Z</time>
      </trkpt>
      <trkpt lat="4.5807280" lon="-74.2624000">
        <ele>2554.6</ele>
        <time>2018-08-11T17:11:12Z</time>
      </trkpt>
      <trkpt lat="4.5806730" lon="-74.2624130">
        <ele>2554.9</ele>
        <time>2018-08-11T17:11:13Z</time>
      </trkpt>
      <trkpt lat="4.5806220" lon="-74.2624270">
        <ele>2555.1</ele>
        <time>2018-08-11T17:11:14Z</time>
      </trkpt>
      <trkpt lat="4.5805680" lon="-74.2624420">
        <ele>2555.3</ele>
        <time>2018-08-11T17:11:15Z</time>
      </trkpt>
      <trkpt lat="4.5805150" lon="-74.2624570">
        <ele>2555.5</ele>
        <time>2018-08-11T17:11:16Z</time>
      </trkpt>
      <trkpt lat="4.5804630" lon="-74.2624680">
        <ele>2555.7</ele>
        <time>2018-08-11T17:11:17Z</time>
      </trkpt>
      <trkpt lat="4.5804100" lon="-74.2624820">
        <ele>2555.9</ele>
        <time>2018-08-11T17:11:18Z</time>
      </trkpt>
      <trkpt lat="4.5803580" lon="-74.2624970">
        <ele>2556.1</ele>
        <time>2018-08-11T17:11:19Z</time>
      </trkpt>
      <trkpt lat="4.5803050" lon="-74.2625120">
        <ele>2556.4</ele>
        <time>2018-08-11T17:11:20Z</time>
      </trkpt>
      <trkpt lat="4.5802500" lon="-74.2625270">
        <ele>2556.6</ele>
        <time>2018-08-11T17:11:21Z</time>
      </trkpt>
      <trkpt lat="4.5801930" lon="-74.2625350">
        <ele>2556.9</ele>
        <time>2018-08-11T17:11:22Z</time>
      </trkpt>
      <trkpt lat="4.5801420" lon="-74.2625430">
        <ele>2557.2</ele>
        <time>2018-08-11T17:11:23Z</time>
      </trkpt>
      <trkpt lat="4.5800850" lon="-74.2625450">
        <ele>2557.5</ele>
        <time>2018-08-11T17:11:24Z</time>
      </trkpt>
      <trkpt lat="4.5800300" lon="-74.2625480">
        <ele>2557.7</ele>
        <time>2018-08-11T17:11:25Z</time>
      </trkpt>
      <trkpt lat="4.5799750" lon="-74.2625550">
        <ele>2558.0</ele>
        <time>2018-08-11T17:11:26Z</time>
      </trkpt>
      <trkpt lat="4.5799220" lon="-74.2625630">
        <ele>2557.9</ele>
        <time>2018-08-11T17:11:27Z</time>
      </trkpt>
      <trkpt lat="4.5798680" lon="-74.2625720">
        <ele>2557.8</ele>
        <time>2018-08-11T17:11:28Z</time>
      </trkpt>
      <trkpt lat="4.5798130" lon="-74.2625780">
        <ele>2557.8</ele>
        <time>2018-08-11T17:11:29Z</time>
      </trkpt>
      <trkpt lat="4.5797570" lon="-74.2625820">
        <ele>2557.7</ele>
        <time>2018-08-11T17:11:30Z</time>
      </trkpt>
      <trkpt lat="4.5796980" lon="-74.2625850">
        <ele>2557.7</ele>
        <time>2018-08-11T17:11:31Z</time>
      </trkpt>
      <trkpt lat="4.5796400" lon="-74.2625880">
        <ele>2557.6</ele>
        <time>2018-08-11T17:11:32Z</time>
      </trkpt>
      <trkpt lat="4.5795820" lon="-74.2625900">
        <ele>2557.6</ele>
        <time>2018-08-11T17:11:33Z</time>
      </trkpt>
      <trkpt lat="4.5795250" lon="-74.2625930">
        <ele>2557.6</ele>
        <time>2018-08-11T17:11:34Z</time>
      </trkpt>
      <trkpt lat="4.5794680" lon="-74.2625970">
        <ele>2557.6</ele>
        <time>2018-08-11T17:11:35Z</time>
      </trkpt>
      <trkpt lat="4.5794130" lon="-74.2626000">
        <ele>2557.6</ele>
        <time>2018-08-11T17:11:36Z</time>
      </trkpt>
      <trkpt lat="4.5793580" lon="-74.2626020">
        <ele>2557.5</ele>
        <time>2018-08-11T17:11:37Z</time>
      </trkpt>
      <trkpt lat="4.5793000" lon="-74.2626050">
        <ele>2557.5</ele>
        <time>2018-08-11T17:11:38Z</time>
      </trkpt>
      <trkpt lat="4.5792400" lon="-74.2626050">
        <ele>2557.4</ele>
        <time>2018-08-11T17:11:39Z</time>
      </trkpt>
      <trkpt lat="4.5791830" lon="-74.2626050">
        <ele>2557.4</ele>
        <time>2018-08-11T17:11:40Z</time>
      </trkpt>
      <trkpt lat="4.5791270" lon="-74.2626050">
        <ele>2557.3</ele>
        <time>2018-08-11T17:11:41Z</time>
      </trkpt>
      <trkpt lat="4.5790720" lon="-74.2626050">
        <ele>2557.3</ele>
        <time>2018-08-11T17:11:42Z</time>
      </trkpt>
      <trkpt lat="4.5790180" lon="-74.2626050">
        <ele>2557.2</ele>
        <time>2018-08-11T17:11:43Z</time>
      </trkpt>
      <trkpt lat="4.5789650" lon="-74.2626020">
        <ele>2557.2</ele>
        <time>2018-08-11T17:11:44Z</time>
      </trkpt>
      <trkpt lat="4.5789120" lon="-74.2625950">
        <ele>2557.2</ele>
        <time>2018-08-11T17:11:45Z</time>
      </trkpt>
      <trkpt lat="4.5788600" lon="-74.2625900">
        <ele>2557.1</ele>
        <time>2018-08-11T17:11:46Z</time>
      </trkpt>
      <trkpt lat="4.5788070" lon="-74.2625870">
        <ele>2557.1</ele>
        <time>2018-08-11T17:11:47Z</time>
      </trkpt>
      <trkpt lat="4.5787530" lon="-74.2625830">
        <ele>2557.1</ele>
        <time>2018-08-11T17:11:48Z</time>
      </trkpt>
      <trkpt lat="4.5787050" lon="-74.2625770">
        <ele>2557.1</ele>
        <time>2018-08-11T17:11:49Z</time>
      </trkpt>
      <trkpt lat="4.5786530" lon="-74.2625700">
        <ele>2557.1</ele>
        <time>2018-08-11T17:11:50Z</time>
      </trkpt>
      <trkpt lat="4.5786030" lon="-74.2625670">
        <ele>2557.2</ele>
        <time>2018-08-11T17:11:51Z</time>
      </trkpt>
      <trkpt lat="4.5785520" lon="-74.2625630">
        <ele>2557.2</ele>
        <time>2018-08-11T17:11:52Z</time>
      </trkpt>
      <trkpt lat="4.5785020" lon="-74.2625550">
        <ele>2557.2</ele>
        <time>2018-08-11T17:11:53Z</time>
      </trkpt>
      <trkpt lat="4.5784520" lon="-74.2625480">
        <ele>2557.3</ele>
        <time>2018-08-11T17:11:54Z</time>
      </trkpt>
      <trkpt lat="4.5784000" lon="-74.2625370">
        <ele>2557.3</ele>
        <time>2018-08-11T17:11:55Z</time>
      </trkpt>
      <trkpt lat="4.5783530" lon="-74.2625200">
        <ele>2557.3</ele>
        <time>2018-08-11T17:11:56Z</time>
      </trkpt>
      <trkpt lat="4.5783050" lon="-74.2625050">
        <ele>2557.3</ele>
        <time>2018-08-11T17:11:57Z</time>
      </trkpt>
      <trkpt lat="4.5782550" lon="-74.2624950">
        <ele>2557.3</ele>
        <time>2018-08-11T17:11:58Z</time>
      </trkpt>
      <trkpt lat="4.5782080" lon="-74.2624850">
        <ele>2557.3</ele>
        <time>2018-08-11T17:11:59Z</time>
      </trkpt>
      <trkpt lat="4.5781620" lon="-74.2624730">
        <ele>2557.3</ele>
        <time>2018-08-11T17:12:00Z</time>
      </trkpt>
      <trkpt lat="4.5781170" lon="-74.2624570">
        <ele>2557.2</ele>
        <time>2018-08-11T17:12:01Z</time>
      </trkpt>
      <trkpt lat="4.5780680" lon="-74.2624380">
        <ele>2557.2</ele>
        <time>2018-08-11T17:12:02Z</time>
      </trkpt>
      <trkpt lat="4.5780220" lon="-74.2624250">
        <ele>2557.2</ele>
        <time>2018-08-11T17:12:03Z</time>
      </trkpt>
      <trkpt lat="4.5779750" lon="-74.2624080">
        <ele>2557.1</ele>
        <time>2018-08-11T17:12:04Z</time>
      </trkpt>
      <trkpt lat="4.5779270" lon="-74.2623880">
        <ele>2557.0</ele>
        <time>2018-08-11T17:12:05Z</time>
      </trkpt>
      <trkpt lat="4.5778750" lon="-74.2623680">
        <ele>2557.0</ele>
        <time>2018-08-11T17:12:06Z</time>
      </trkpt>
      <trkpt lat="4.5778280" lon="-74.2623500">
        <ele>2556.9</ele>
        <time>2018-08-11T17:12:07Z</time>
      </trkpt>
      <trkpt lat="4.5777800" lon="-74.2623330">
        <ele>2556.9</ele>
        <time>2018-08-11T17:12:08Z</time>
      </trkpt>
      <trkpt lat="4.5777350" lon="-74.2623050">
        <ele>2556.8</ele>
        <time>2018-08-11T17:12:09Z</time>
      </trkpt>
      <trkpt lat="4.5776900" lon="-74.2622820">
        <ele>2556.7</ele>
        <time>2018-08-11T17:12:10Z</time>
      </trkpt>
      <trkpt lat="4.5776420" lon="-74.2622630">
        <ele>2556.7</ele>
        <time>2018-08-11T17:12:11Z</time>
      </trkpt>
      <trkpt lat="4.5775900" lon="-74.2622430">
        <ele>2556.6</ele>
        <time>2018-08-11T17:12:12Z</time>
      </trkpt>
      <trkpt lat="4.5775400" lon="-74.2622280">
        <ele>2556.5</ele>
        <time>2018-08-11T17:12:13Z</time>
      </trkpt>
      <trkpt lat="4.5774900" lon="-74.2622100">
        <ele>2556.5</ele>
        <time>2018-08-11T17:12:14Z</time>
      </trkpt>
      <trkpt lat="4.5774380" lon="-74.2621900">
        <ele>2556.4</ele>
        <time>2018-08-11T17:12:15Z</time>
      </trkpt>
      <trkpt lat="4.5773850" lon="-74.2621720">
        <ele>2556.4</ele>
        <time>2018-08-11T17:12:16Z</time>
      </trkpt>
      <trkpt lat="4.5773350" lon="-74.2621550">
        <ele>2556.3</ele>
        <time>2018-08-11T17:12:17Z</time>
      </trkpt>
      <trkpt lat="4.5772850" lon="-74.2621430">
        <ele>2556.3</ele>
        <time>2018-08-11T17:12:18Z</time>
      </trkpt>
      <trkpt lat="4.5772320" lon="-74.2621280">
        <ele>2556.3</ele>
        <time>2018-08-11T17:12:19Z</time>
      </trkpt>
      <trkpt lat="4.5771770" lon="-74.2621150">
        <ele>2556.2</ele>
        <time>2018-08-11T17:12:20Z</time>
      </trkpt>
      <trkpt lat="4.5771230" lon="-74.2620970">
        <ele>2556.2</ele>
        <time>2018-08-11T17:12:21Z</time>
      </trkpt>
      <trkpt lat="4.5770670" lon="-74.2620780">
        <ele>2556.1</ele>
        <time>2018-08-11T17:12:22Z</time>
      </trkpt>
      <trkpt lat="4.5770120" lon="-74.2620570">
        <ele>2556.0</ele>
        <time>2018-08-11T17:12:23Z</time>
      </trkpt>
      <trkpt lat="4.5769550" lon="-74.2620350">
        <ele>2555.8</ele>
        <time>2018-08-11T17:12:24Z</time>
      </trkpt>
      <trkpt lat="4.5769000" lon="-74.2620170">
        <ele>2555.7</ele>
        <time>2018-08-11T17:12:25Z</time>
      </trkpt>
      <trkpt lat="4.5768370" lon="-74.2619980">
        <ele>2555.6</ele>
        <time>2018-08-11T17:12:26Z</time>
      </trkpt>
      <trkpt lat="4.5767750" lon="-74.2619770">
        <ele>2555.5</ele>
        <time>2018-08-11T17:12:27Z</time>
      </trkpt>
      <trkpt lat="4.5767180" lon="-74.2619580">
        <ele>2555.4</ele>
        <time>2018-08-11T17:12:28Z</time>
      </trkpt>
      <trkpt lat="4.5766630" lon="-74.2619400">
        <ele>2555.4</ele>
        <time>2018-08-11T17:12:29Z</time>
      </trkpt>
      <trkpt lat="4.5766080" lon="-74.2619180">
        <ele>2555.4</ele>
        <time>2018-08-11T17:12:30Z</time>
      </trkpt>
      <trkpt lat="4.5765550" lon="-74.2619000">
        <ele>2555.4</ele>
        <time>2018-08-11T17:12:31Z</time>
      </trkpt>
      <trkpt lat="4.5765020" lon="-74.2618800">
        <ele>2555.4</ele>
        <time>2018-08-11T17:12:32Z</time>
      </trkpt>
      <trkpt lat="4.5764500" lon="-74.2618600">
        <ele>2555.3</ele>
        <time>2018-08-11T17:12:33Z</time>
      </trkpt>
      <trkpt lat="4.5764000" lon="-74.2618400">
        <ele>2555.2</ele>
        <time>2018-08-11T17:12:34Z</time>
      </trkpt>
      <trkpt lat="4.5763520" lon="-74.2618230">
        <ele>2555.1</ele>
        <time>2018-08-11T17:12:35Z</time>
      </trkpt>
      <trkpt lat="4.5763030" lon="-74.2618070">
        <ele>2555.1</ele>
        <time>2018-08-11T17:12:36Z</time>
      </trkpt>
      <trkpt lat="4.5762550" lon="-74.2617880">
        <ele>2555.0</ele>
        <time>2018-08-11T17:12:37Z</time>
      </trkpt>
      <trkpt lat="4.5762050" lon="-74.2617680">
        <ele>2555.0</ele>
        <time>2018-08-11T17:12:38Z</time>
      </trkpt>
      <trkpt lat="4.5761530" lon="-74.2617500">
        <ele>2555.0</ele>
        <time>2018-08-11T17:12:39Z</time>
      </trkpt>
      <trkpt lat="4.5761020" lon="-74.2617300">
        <ele>2555.0</ele>
        <time>2018-08-11T17:12:40Z</time>
      </trkpt>
      <trkpt lat="4.5760520" lon="-74.2617100">
        <ele>2554.9</ele>
        <time>2018-08-11T17:12:41Z</time>
      </trkpt>
      <trkpt lat="4.5760020" lon="-74.2616920">
        <ele>2554.8</ele>
        <time>2018-08-11T17:12:42Z</time>
      </trkpt>
      <trkpt lat="4.5759550" lon="-74.2616750">
        <ele>2554.8</ele>
        <time>2018-08-11T17:12:43Z</time>
      </trkpt>
      <trkpt lat="4.5759050" lon="-74.2616580">
        <ele>2554.8</ele>
        <time>2018-08-11T17:12:44Z</time>
      </trkpt>
      <trkpt lat="4.5758550" lon="-74.2616380">
        <ele>2554.8</ele>
        <time>2018-08-11T17:12:45Z</time>
      </trkpt>
      <trkpt lat="4.5758050" lon="-74.2616150">
        <ele>2554.9</ele>
        <time>2018-08-11T17:12:46Z</time>
      </trkpt>
      <trkpt lat="4.5757520" lon="-74.2615970">
        <ele>2554.9</ele>
        <time>2018-08-11T17:12:47Z</time>
      </trkpt>
      <trkpt lat="4.5756980" lon="-74.2615780">
        <ele>2555.0</ele>
        <time>2018-08-11T17:12:48Z</time>
      </trkpt>
      <trkpt lat="4.5756450" lon="-74.2615550">
        <ele>2555.0</ele>
        <time>2018-08-11T17:12:49Z</time>
      </trkpt>
      <trkpt lat="4.5755900" lon="-74.2615330">
        <ele>2555.0</ele>
        <time>2018-08-11T17:12:50Z</time>
      </trkpt>
      <trkpt lat="4.5755330" lon="-74.2615120">
        <ele>2555.0</ele>
        <time>2018-08-11T17:12:51Z</time>
      </trkpt>
      <trkpt lat="4.5754800" lon="-74.2614900">
        <ele>2555.0</ele>
        <time>2018-08-11T17:12:52Z</time>
      </trkpt>
      <trkpt lat="4.5754250" lon="-74.2614680">
        <ele>2555.0</ele>
        <time>2018-08-11T17:12:53Z</time>
      </trkpt>
      <trkpt lat="4.5753720" lon="-74.2614480">
        <ele>2555.0</ele>
        <time>2018-08-11T17:12:54Z</time>
      </trkpt>
      <trkpt lat="4.5753170" lon="-74.2614270">
        <ele>2555.0</ele>
        <time>2018-08-11T17:12:55Z</time>
      </trkpt>
      <trkpt lat="4.5752630" lon="-74.2614050">
        <ele>2554.9</ele>
        <time>2018-08-11T17:12:56Z</time>
      </trkpt>
      <trkpt lat="4.5752070" lon="-74.2613880">
        <ele>2554.9</ele>
        <time>2018-08-11T17:12:57Z</time>
      </trkpt>
      <trkpt lat="4.5751470" lon="-74.2613680">
        <ele>2555.0</ele>
        <time>2018-08-11T17:12:58Z</time>
      </trkpt>
      <trkpt lat="4.5750830" lon="-74.2613470">
        <ele>2555.0</ele>
        <time>2018-08-11T17:12:59Z</time>
      </trkpt>
      <trkpt lat="4.5750250" lon="-74.2613270">
        <ele>2555.0</ele>
        <time>2018-08-11T17:13:00Z</time>
      </trkpt>
      <trkpt lat="4.5749700" lon="-74.2613070">
        <ele>2555.1</ele>
        <time>2018-08-11T17:13:01Z</time>
      </trkpt>
      <trkpt lat="4.5749130" lon="-74.2612870">
        <ele>2555.1</ele>
        <time>2018-08-11T17:13:02Z</time>
      </trkpt>
      <trkpt lat="4.5748570" lon="-74.2612630">
        <ele>2555.2</ele>
        <time>2018-08-11T17:13:03Z</time>
      </trkpt>
      <trkpt lat="4.5748000" lon="-74.2612420">
        <ele>2555.2</ele>
        <time>2018-08-11T17:13:04Z</time>
      </trkpt>
      <trkpt lat="4.5747430" lon="-74.2612180">
        <ele>2555.2</ele>
        <time>2018-08-11T17:13:05Z</time>
      </trkpt>
      <trkpt lat="4.5746850" lon="-74.2611950">
        <ele>2555.3</ele>
        <time>2018-08-11T17:13:06Z</time>
      </trkpt>
      <trkpt lat="4.5746320" lon="-74.2611730">
        <ele>2555.3</ele>
        <time>2018-08-11T17:13:07Z</time>
      </trkpt>
      <trkpt lat="4.5745770" lon="-74.2611500">
        <ele>2555.4</ele>
        <time>2018-08-11T17:13:08Z</time>
      </trkpt>
      <trkpt lat="4.5745230" lon="-74.2611300">
        <ele>2555.4</ele>
        <time>2018-08-11T17:13:09Z</time>
      </trkpt>
      <trkpt lat="4.5744700" lon="-74.2611080">
        <ele>2555.4</ele>
        <time>2018-08-11T17:13:10Z</time>
      </trkpt>
      <trkpt lat="4.5744180" lon="-74.2610870">
        <ele>2555.5</ele>
        <time>2018-08-11T17:13:11Z</time>
      </trkpt>
      <trkpt lat="4.5743670" lon="-74.2610670">
        <ele>2555.5</ele>
        <time>2018-08-11T17:13:12Z</time>
      </trkpt>
      <trkpt lat="4.5743150" lon="-74.2610450">
        <ele>2555.5</ele>
        <time>2018-08-11T17:13:13Z</time>
      </trkpt>
      <trkpt lat="4.5742620" lon="-74.2610220">
        <ele>2555.4</ele>
        <time>2018-08-11T17:13:14Z</time>
      </trkpt>
      <trkpt lat="4.5742120" lon="-74.2610020">
        <ele>2555.4</ele>
        <time>2018-08-11T17:13:15Z</time>
      </trkpt>
      <trkpt lat="4.5741630" lon="-74.2609830">
        <ele>2555.4</ele>
        <time>2018-08-11T17:13:16Z</time>
      </trkpt>
      <trkpt lat="4.5741130" lon="-74.2609650">
        <ele>2555.4</ele>
        <time>2018-08-11T17:13:17Z</time>
      </trkpt>
      <trkpt lat="4.5740630" lon="-74.2609470">
        <ele>2555.4</ele>
        <time>2018-08-11T17:13:18Z</time>
      </trkpt>
      <trkpt lat="4.5740100" lon="-74.2609230">
        <ele>2555.3</ele>
        <time>2018-08-11T17:13:19Z</time>
      </trkpt>
      <trkpt lat="4.5739580" lon="-74.2609030">
        <ele>2555.3</ele>
        <time>2018-08-11T17:13:20Z</time>
      </trkpt>
      <trkpt lat="4.5739050" lon="-74.2608830">
        <ele>2555.2</ele>
        <time>2018-08-11T17:13:21Z</time>
      </trkpt>
      <trkpt lat="4.5738500" lon="-74.2608630">
        <ele>2555.1</ele>
        <time>2018-08-11T17:13:22Z</time>
      </trkpt>
      <trkpt lat="4.5737930" lon="-74.2608430">
        <ele>2555.1</ele>
        <time>2018-08-11T17:13:23Z</time>
      </trkpt>
      <trkpt lat="4.5737370" lon="-74.2608220">
        <ele>2555.0</ele>
        <time>2018-08-11T17:13:24Z</time>
      </trkpt>
      <trkpt lat="4.5736800" lon="-74.2608000">
        <ele>2555.0</ele>
        <time>2018-08-11T17:13:25Z</time>
      </trkpt>
      <trkpt lat="4.5736250" lon="-74.2607770">
        <ele>2555.0</ele>
        <time>2018-08-11T17:13:26Z</time>
      </trkpt>
      <trkpt lat="4.5735680" lon="-74.2607570">
        <ele>2555.0</ele>
        <time>2018-08-11T17:13:27Z</time>
      </trkpt>
      <trkpt lat="4.5735080" lon="-74.2607320">
        <ele>2554.9</ele>
        <time>2018-08-11T17:13:28Z</time>
      </trkpt>
      <trkpt lat="4.5734480" lon="-74.2607050">
        <ele>2554.9</ele>
        <time>2018-08-11T17:13:29Z</time>
      </trkpt>
      <trkpt lat="4.5733900" lon="-74.2606800">
        <ele>2554.9</ele>
        <time>2018-08-11T17:13:30Z</time>
      </trkpt>
      <trkpt lat="4.5733320" lon="-74.2606580">
        <ele>2554.9</ele>
        <time>2018-08-11T17:13:31Z</time>
      </trkpt>
      <trkpt lat="4.5732700" lon="-74.2606350">
        <ele>2554.8</ele>
        <time>2018-08-11T17:13:32Z</time>
      </trkpt>
      <trkpt lat="4.5732080" lon="-74.2606120">
        <ele>2554.8</ele>
        <time>2018-08-11T17:13:33Z</time>
      </trkpt>
      <trkpt lat="4.5731480" lon="-74.2605900">
        <ele>2554.8</ele>
        <time>2018-08-11T17:13:34Z</time>
      </trkpt>
      <trkpt lat="4.5730880" lon="-74.2605630">
        <ele>2554.8</ele>
        <time>2018-08-11T17:13:35Z</time>
      </trkpt>
      <trkpt lat="4.5730300" lon="-74.2605430">
        <ele>2554.8</ele>
        <time>2018-08-11T17:13:36Z</time>
      </trkpt>
      <trkpt lat="4.5729730" lon="-74.2605270">
        <ele>2554.8</ele>
        <time>2018-08-11T17:13:37Z</time>
      </trkpt>
      <trkpt lat="4.5729170" lon="-74.2605080">
        <ele>2554.8</ele>
        <time>2018-08-11T17:13:38Z</time>
      </trkpt>
      <trkpt lat="4.5728600" lon="-74.2604870">
        <ele>2554.9</ele>
        <time>2018-08-11T17:13:39Z</time>
      </trkpt>
      <trkpt lat="4.5728070" lon="-74.2604680">
        <ele>2554.9</ele>
        <time>2018-08-11T17:13:40Z</time>
      </trkpt>
      <trkpt lat="4.5727550" lon="-74.2604480">
        <ele>2555.0</ele>
        <time>2018-08-11T17:13:41Z</time>
      </trkpt>
      <trkpt lat="4.5727020" lon="-74.2604280">
        <ele>2555.0</ele>
        <time>2018-08-11T17:13:42Z</time>
      </trkpt>
      <trkpt lat="4.5726470" lon="-74.2604080">
        <ele>2555.1</ele>
        <time>2018-08-11T17:13:43Z</time>
      </trkpt>
      <trkpt lat="4.5725920" lon="-74.2603870">
        <ele>2555.2</ele>
        <time>2018-08-11T17:13:44Z</time>
      </trkpt>
      <trkpt lat="4.5725370" lon="-74.2603650">
        <ele>2555.3</ele>
        <time>2018-08-11T17:13:45Z</time>
      </trkpt>
      <trkpt lat="4.5724830" lon="-74.2603420">
        <ele>2555.4</ele>
        <time>2018-08-11T17:13:46Z</time>
      </trkpt>
      <trkpt lat="4.5724280" lon="-74.2603220">
        <ele>2555.5</ele>
        <time>2018-08-11T17:13:47Z</time>
      </trkpt>
      <trkpt lat="4.5723720" lon="-74.2603000">
        <ele>2555.6</ele>
        <time>2018-08-11T17:13:48Z</time>
      </trkpt>
      <trkpt lat="4.5723170" lon="-74.2602820">
        <ele>2555.6</ele>
        <time>2018-08-11T17:13:49Z</time>
      </trkpt>
      <trkpt lat="4.5722620" lon="-74.2602620">
        <ele>2555.6</ele>
        <time>2018-08-11T17:13:50Z</time>
      </trkpt>
      <trkpt lat="4.5722050" lon="-74.2602400">
        <ele>2555.6</ele>
        <time>2018-08-11T17:13:51Z</time>
      </trkpt>
      <trkpt lat="4.5721500" lon="-74.2602170">
        <ele>2555.6</ele>
        <time>2018-08-11T17:13:52Z</time>
      </trkpt>
      <trkpt lat="4.5720950" lon="-74.2601930">
        <ele>2555.5</ele>
        <time>2018-08-11T17:13:53Z</time>
      </trkpt>
      <trkpt lat="4.5720380" lon="-74.2601720">
        <ele>2555.5</ele>
        <time>2018-08-11T17:13:54Z</time>
      </trkpt>
      <trkpt lat="4.5719780" lon="-74.2601520">
        <ele>2555.5</ele>
        <time>2018-08-11T17:13:55Z</time>
      </trkpt>
      <trkpt lat="4.5719180" lon="-74.2601300">
        <ele>2555.5</ele>
        <time>2018-08-11T17:13:56Z</time>
      </trkpt>
      <trkpt lat="4.5718580" lon="-74.2601080">
        <ele>2555.5</ele>
        <time>2018-08-11T17:13:57Z</time>
      </trkpt>
      <trkpt lat="4.5718020" lon="-74.2600850">
        <ele>2555.5</ele>
        <time>2018-08-11T17:13:58Z</time>
      </trkpt>
      <trkpt lat="4.5717400" lon="-74.2600600">
        <ele>2555.5</ele>
        <time>2018-08-11T17:13:59Z</time>
      </trkpt>
      <trkpt lat="4.5716820" lon="-74.2600370">
        <ele>2555.5</ele>
        <time>2018-08-11T17:14:00Z</time>
      </trkpt>
      <trkpt lat="4.5716230" lon="-74.2600120">
        <ele>2555.6</ele>
        <time>2018-08-11T17:14:01Z</time>
      </trkpt>
      <trkpt lat="4.5715620" lon="-74.2599870">
        <ele>2555.6</ele>
        <time>2018-08-11T17:14:02Z</time>
      </trkpt>
      <trkpt lat="4.5715020" lon="-74.2599650">
        <ele>2555.7</ele>
        <time>2018-08-11T17:14:03Z</time>
      </trkpt>
      <trkpt lat="4.5714430" lon="-74.2599380">
        <ele>2555.8</ele>
        <time>2018-08-11T17:14:04Z</time>
      </trkpt>
      <trkpt lat="4.5713830" lon="-74.2599130">
        <ele>2555.8</ele>
        <time>2018-08-11T17:14:05Z</time>
      </trkpt>
      <trkpt lat="4.5713230" lon="-74.2598900">
        <ele>2555.9</ele>
        <time>2018-08-11T17:14:06Z</time>
      </trkpt>
      <trkpt lat="4.5712630" lon="-74.2598650">
        <ele>2555.9</ele>
        <time>2018-08-11T17:14:07Z</time>
      </trkpt>
      <trkpt lat="4.5712070" lon="-74.2598420">
        <ele>2555.9</ele>
        <time>2018-08-11T17:14:08Z</time>
      </trkpt>
      <trkpt lat="4.5711500" lon="-74.2598230">
        <ele>2555.9</ele>
        <time>2018-08-11T17:14:09Z</time>
      </trkpt>
      <trkpt lat="4.5710930" lon="-74.2598030">
        <ele>2555.9</ele>
        <time>2018-08-11T17:14:10Z</time>
      </trkpt>
      <trkpt lat="4.5710370" lon="-74.2597800">
        <ele>2555.9</ele>
        <time>2018-08-11T17:14:11Z</time>
      </trkpt>
      <trkpt lat="4.5709800" lon="-74.2597600">
        <ele>2556.0</ele>
        <time>2018-08-11T17:14:12Z</time>
      </trkpt>
      <trkpt lat="4.5709250" lon="-74.2597380">
        <ele>2556.0</ele>
        <time>2018-08-11T17:14:13Z</time>
      </trkpt>
      <trkpt lat="4.5708720" lon="-74.2597170">
        <ele>2556.1</ele>
        <time>2018-08-11T17:14:14Z</time>
      </trkpt>
      <trkpt lat="4.5708170" lon="-74.2596950">
        <ele>2556.1</ele>
        <time>2018-08-11T17:14:15Z</time>
      </trkpt>
      <trkpt lat="4.5707620" lon="-74.2596720">
        <ele>2556.2</ele>
        <time>2018-08-11T17:14:16Z</time>
      </trkpt>
      <trkpt lat="4.5707080" lon="-74.2596520">
        <ele>2556.2</ele>
        <time>2018-08-11T17:14:17Z</time>
      </trkpt>
      <trkpt lat="4.5706530" lon="-74.2596300">
        <ele>2556.3</ele>
        <time>2018-08-11T17:14:18Z</time>
      </trkpt>
      <trkpt lat="4.5706000" lon="-74.2596130">
        <ele>2556.3</ele>
        <time>2018-08-11T17:14:19Z</time>
      </trkpt>
      <trkpt lat="4.5705450" lon="-74.2595930">
        <ele>2556.3</ele>
        <time>2018-08-11T17:14:20Z</time>
      </trkpt>
      <trkpt lat="4.5704920" lon="-74.2595720">
        <ele>2556.4</ele>
        <time>2018-08-11T17:14:21Z</time>
      </trkpt>
      <trkpt lat="4.5704380" lon="-74.2595520">
        <ele>2556.4</ele>
        <time>2018-08-11T17:14:22Z</time>
      </trkpt>
      <trkpt lat="4.5703850" lon="-74.2595350">
        <ele>2556.4</ele>
        <time>2018-08-11T17:14:23Z</time>
      </trkpt>
      <trkpt lat="4.5703330" lon="-74.2595170">
        <ele>2556.5</ele>
        <time>2018-08-11T17:14:24Z</time>
      </trkpt>
      <trkpt lat="4.5702820" lon="-74.2594980">
        <ele>2556.6</ele>
        <time>2018-08-11T17:14:25Z</time>
      </trkpt>
      <trkpt lat="4.5702300" lon="-74.2594820">
        <ele>2556.6</ele>
        <time>2018-08-11T17:14:26Z</time>
      </trkpt>
      <trkpt lat="4.5701770" lon="-74.2594620">
        <ele>2556.7</ele>
        <time>2018-08-11T17:14:27Z</time>
      </trkpt>
      <trkpt lat="4.5701220" lon="-74.2594400">
        <ele>2556.7</ele>
        <time>2018-08-11T17:14:28Z</time>
      </trkpt>
      <trkpt lat="4.5700650" lon="-74.2594200">
        <ele>2556.6</ele>
        <time>2018-08-11T17:14:29Z</time>
      </trkpt>
      <trkpt lat="4.5700030" lon="-74.2593900">
        <ele>2556.6</ele>
        <time>2018-08-11T17:14:30Z</time>
      </trkpt>
      <trkpt lat="4.5699400" lon="-74.2593720">
        <ele>2556.5</ele>
        <time>2018-08-11T17:14:31Z</time>
      </trkpt>
      <trkpt lat="4.5698820" lon="-74.2593530">
        <ele>2556.4</ele>
        <time>2018-08-11T17:14:32Z</time>
      </trkpt>
      <trkpt lat="4.5698180" lon="-74.2593400">
        <ele>2556.4</ele>
        <time>2018-08-11T17:14:33Z</time>
      </trkpt>
      <trkpt lat="4.5697580" lon="-74.2593250">
        <ele>2556.4</ele>
        <time>2018-08-11T17:14:34Z</time>
      </trkpt>
      <trkpt lat="4.5697020" lon="-74.2593070">
        <ele>2556.4</ele>
        <time>2018-08-11T17:14:35Z</time>
      </trkpt>
      <trkpt lat="4.5696420" lon="-74.2592920">
        <ele>2556.5</ele>
        <time>2018-08-11T17:14:36Z</time>
      </trkpt>
      <trkpt lat="4.5695800" lon="-74.2592770">
        <ele>2556.7</ele>
        <time>2018-08-11T17:14:37Z</time>
      </trkpt>
      <trkpt lat="4.5695180" lon="-74.2592650">
        <ele>2556.9</ele>
        <time>2018-08-11T17:14:38Z</time>
      </trkpt>
      <trkpt lat="4.5694550" lon="-74.2592530">
        <ele>2557.0</ele>
        <time>2018-08-11T17:14:39Z</time>
      </trkpt>
      <trkpt lat="4.5693930" lon="-74.2592370">
        <ele>2557.2</ele>
        <time>2018-08-11T17:14:40Z</time>
      </trkpt>
      <trkpt lat="4.5693330" lon="-74.2592220">
        <ele>2557.3</ele>
        <time>2018-08-11T17:14:41Z</time>
      </trkpt>
      <trkpt lat="4.5692730" lon="-74.2592070">
        <ele>2557.3</ele>
        <time>2018-08-11T17:14:42Z</time>
      </trkpt>
      <trkpt lat="4.5692130" lon="-74.2591930">
        <ele>2557.4</ele>
        <time>2018-08-11T17:14:43Z</time>
      </trkpt>
      <trkpt lat="4.5691570" lon="-74.2591830">
        <ele>2557.5</ele>
        <time>2018-08-11T17:14:44Z</time>
      </trkpt>
      <trkpt lat="4.5691000" lon="-74.2591750">
        <ele>2557.6</ele>
        <time>2018-08-11T17:14:45Z</time>
      </trkpt>
      <trkpt lat="4.5690430" lon="-74.2591680">
        <ele>2557.7</ele>
        <time>2018-08-11T17:14:46Z</time>
      </trkpt>
      <trkpt lat="4.5689830" lon="-74.2591580">
        <ele>2557.8</ele>
        <time>2018-08-11T17:14:47Z</time>
      </trkpt>
      <trkpt lat="4.5689250" lon="-74.2591520">
        <ele>2557.9</ele>
        <time>2018-08-11T17:14:48Z</time>
      </trkpt>
      <trkpt lat="4.5688630" lon="-74.2591420">
        <ele>2558.0</ele>
        <time>2018-08-11T17:14:49Z</time>
      </trkpt>
      <trkpt lat="4.5688000" lon="-74.2591330">
        <ele>2558.1</ele>
        <time>2018-08-11T17:14:50Z</time>
      </trkpt>
      <trkpt lat="4.5687370" lon="-74.2591270">
        <ele>2558.2</ele>
        <time>2018-08-11T17:14:51Z</time>
      </trkpt>
      <trkpt lat="4.5686720" lon="-74.2591220">
        <ele>2558.3</ele>
        <time>2018-08-11T17:14:52Z</time>
      </trkpt>
      <trkpt lat="4.5686080" lon="-74.2591180">
        <ele>2558.3</ele>
        <time>2018-08-11T17:14:53Z</time>
      </trkpt>
      <trkpt lat="4.5685470" lon="-74.2591150">
        <ele>2558.4</ele>
        <time>2018-08-11T17:14:54Z</time>
      </trkpt>
      <trkpt lat="4.5684820" lon="-74.2591120">
        <ele>2558.5</ele>
        <time>2018-08-11T17:14:55Z</time>
      </trkpt>
      <trkpt lat="4.5684150" lon="-74.2591080">
        <ele>2558.5</ele>
        <time>2018-08-11T17:14:56Z</time>
      </trkpt>
      <trkpt lat="4.5683470" lon="-74.2591080">
        <ele>2558.7</ele>
        <time>2018-08-11T17:14:57Z</time>
      </trkpt>
      <trkpt lat="4.5682780" lon="-74.2591080">
        <ele>2558.8</ele>
        <time>2018-08-11T17:14:58Z</time>
      </trkpt>
      <trkpt lat="4.5682120" lon="-74.2591080">
        <ele>2558.9</ele>
        <time>2018-08-11T17:14:59Z</time>
      </trkpt>
      <trkpt lat="4.5681430" lon="-74.2591080">
        <ele>2559.1</ele>
        <time>2018-08-11T17:15:00Z</time>
      </trkpt>
      <trkpt lat="4.5680780" lon="-74.2591130">
        <ele>2559.2</ele>
        <time>2018-08-11T17:15:01Z</time>
      </trkpt>
      <trkpt lat="4.5680120" lon="-74.2591170">
        <ele>2559.3</ele>
        <time>2018-08-11T17:15:02Z</time>
      </trkpt>
      <trkpt lat="4.5679500" lon="-74.2591170">
        <ele>2559.3</ele>
        <time>2018-08-11T17:15:03Z</time>
      </trkpt>
      <trkpt lat="4.5678870" lon="-74.2591170">
        <ele>2559.4</ele>
        <time>2018-08-11T17:15:04Z</time>
      </trkpt>
      <trkpt lat="4.5678230" lon="-74.2591150">
        <ele>2559.5</ele>
        <time>2018-08-11T17:15:05Z</time>
      </trkpt>
      <trkpt lat="4.5677620" lon="-74.2591130">
        <ele>2559.5</ele>
        <time>2018-08-11T17:15:06Z</time>
      </trkpt>
      <trkpt lat="4.5676980" lon="-74.2591120">
        <ele>2559.6</ele>
        <time>2018-08-11T17:15:07Z</time>
      </trkpt>
      <trkpt lat="4.5676350" lon="-74.2591120">
        <ele>2559.7</ele>
        <time>2018-08-11T17:15:08Z</time>
      </trkpt>
      <trkpt lat="4.5675750" lon="-74.2591150">
        <ele>2559.7</ele>
        <time>2018-08-11T17:15:09Z</time>
      </trkpt>
      <trkpt lat="4.5675150" lon="-74.2591170">
        <ele>2559.8</ele>
        <time>2018-08-11T17:15:10Z</time>
      </trkpt>
      <trkpt lat="4.5674520" lon="-74.2591180">
        <ele>2559.9</ele>
        <time>2018-08-11T17:15:11Z</time>
      </trkpt>
      <trkpt lat="4.5673920" lon="-74.2591170">
        <ele>2559.9</ele>
        <time>2018-08-11T17:15:12Z</time>
      </trkpt>
      <trkpt lat="4.5673330" lon="-74.2591150">
        <ele>2560.0</ele>
        <time>2018-08-11T17:15:13Z</time>
      </trkpt>
      <trkpt lat="4.5672750" lon="-74.2591150">
        <ele>2560.1</ele>
        <time>2018-08-11T17:15:14Z</time>
      </trkpt>
      <trkpt lat="4.5672170" lon="-74.2591170">
        <ele>2560.1</ele>
        <time>2018-08-11T17:15:15Z</time>
      </trkpt>
      <trkpt lat="4.5671580" lon="-74.2591170">
        <ele>2560.2</ele>
        <time>2018-08-11T17:15:16Z</time>
      </trkpt>
      <trkpt lat="4.5671020" lon="-74.2591200">
        <ele>2560.3</ele>
        <time>2018-08-11T17:15:17Z</time>
      </trkpt>
      <trkpt lat="4.5670430" lon="-74.2591220">
        <ele>2560.4</ele>
        <time>2018-08-11T17:15:18Z</time>
      </trkpt>
      <trkpt lat="4.5669830" lon="-74.2591230">
        <ele>2560.5</ele>
        <time>2018-08-11T17:15:19Z</time>
      </trkpt>
      <trkpt lat="4.5669230" lon="-74.2591230">
        <ele>2560.6</ele>
        <time>2018-08-11T17:15:20Z</time>
      </trkpt>
      <trkpt lat="4.5668650" lon="-74.2591250">
        <ele>2560.7</ele>
        <time>2018-08-11T17:15:21Z</time>
      </trkpt>
      <trkpt lat="4.5668070" lon="-74.2591270">
        <ele>2560.8</ele>
        <time>2018-08-11T17:15:22Z</time>
      </trkpt>
      <trkpt lat="4.5667480" lon="-74.2591280">
        <ele>2560.9</ele>
        <time>2018-08-11T17:15:23Z</time>
      </trkpt>
      <trkpt lat="4.5666950" lon="-74.2591280">
        <ele>2561.0</ele>
        <time>2018-08-11T17:15:24Z</time>
      </trkpt>
      <trkpt lat="4.5666380" lon="-74.2591280">
        <ele>2561.0</ele>
        <time>2018-08-11T17:15:25Z</time>
      </trkpt>
      <trkpt lat="4.5665800" lon="-74.2591300">
        <ele>2561.1</ele>
        <time>2018-08-11T17:15:26Z</time>
      </trkpt>
      <trkpt lat="4.5665270" lon="-74.2591330">
        <ele>2561.2</ele>
        <time>2018-08-11T17:15:27Z</time>
      </trkpt>
      <trkpt lat="4.5664650" lon="-74.2591350">
        <ele>2561.2</ele>
        <time>2018-08-11T17:15:28Z</time>
      </trkpt>
      <trkpt lat="4.5664070" lon="-74.2591370">
        <ele>2561.3</ele>
        <time>2018-08-11T17:15:29Z</time>
      </trkpt>
      <trkpt lat="4.5663470" lon="-74.2591380">
        <ele>2561.5</ele>
        <time>2018-08-11T17:15:30Z</time>
      </trkpt>
      <trkpt lat="4.5662850" lon="-74.2591370">
        <ele>2561.6</ele>
        <time>2018-08-11T17:15:31Z</time>
      </trkpt>
      <trkpt lat="4.5662220" lon="-74.2591330">
        <ele>2561.7</ele>
        <time>2018-08-11T17:15:32Z</time>
      </trkpt>
      <trkpt lat="4.5661580" lon="-74.2591300">
        <ele>2561.8</ele>
        <time>2018-08-11T17:15:33Z</time>
      </trkpt>
      <trkpt lat="4.5660930" lon="-74.2591300">
        <ele>2561.9</ele>
        <time>2018-08-11T17:15:34Z</time>
      </trkpt>
      <trkpt lat="4.5660280" lon="-74.2591300">
        <ele>2562.0</ele>
        <time>2018-08-11T17:15:35Z</time>
      </trkpt>
      <trkpt lat="4.5659600" lon="-74.2591300">
        <ele>2562.1</ele>
        <time>2018-08-11T17:15:36Z</time>
      </trkpt>
      <trkpt lat="4.5658950" lon="-74.2591300">
        <ele>2562.1</ele>
        <time>2018-08-11T17:15:37Z</time>
      </trkpt>
      <trkpt lat="4.5658320" lon="-74.2591280">
        <ele>2562.2</ele>
        <time>2018-08-11T17:15:38Z</time>
      </trkpt>
      <trkpt lat="4.5657680" lon="-74.2591280">
        <ele>2562.2</ele>
        <time>2018-08-11T17:15:39Z</time>
      </trkpt>
      <trkpt lat="4.5657050" lon="-74.2591300">
        <ele>2562.3</ele>
        <time>2018-08-11T17:15:40Z</time>
      </trkpt>
      <trkpt lat="4.5656430" lon="-74.2591370">
        <ele>2562.3</ele>
        <time>2018-08-11T17:15:41Z</time>
      </trkpt>
      <trkpt lat="4.5655800" lon="-74.2591420">
        <ele>2562.4</ele>
        <time>2018-08-11T17:15:42Z</time>
      </trkpt>
      <trkpt lat="4.5655170" lon="-74.2591430">
        <ele>2562.4</ele>
        <time>2018-08-11T17:15:43Z</time>
      </trkpt>
      <trkpt lat="4.5654530" lon="-74.2591450">
        <ele>2562.4</ele>
        <time>2018-08-11T17:15:44Z</time>
      </trkpt>
      <trkpt lat="4.5653930" lon="-74.2591450">
        <ele>2562.4</ele>
        <time>2018-08-11T17:15:45Z</time>
      </trkpt>
      <trkpt lat="4.5653300" lon="-74.2591450">
        <ele>2562.4</ele>
        <time>2018-08-11T17:15:46Z</time>
      </trkpt>
      <trkpt lat="4.5652680" lon="-74.2591450">
        <ele>2562.5</ele>
        <time>2018-08-11T17:15:47Z</time>
      </trkpt>
      <trkpt lat="4.5652070" lon="-74.2591470">
        <ele>2562.5</ele>
        <time>2018-08-11T17:15:48Z</time>
      </trkpt>
      <trkpt lat="4.5651430" lon="-74.2591450">
        <ele>2562.5</ele>
        <time>2018-08-11T17:15:49Z</time>
      </trkpt>
      <trkpt lat="4.5650820" lon="-74.2591470">
        <ele>2562.6</ele>
        <time>2018-08-11T17:15:50Z</time>
      </trkpt>
      <trkpt lat="4.5650220" lon="-74.2591470">
        <ele>2562.6</ele>
        <time>2018-08-11T17:15:51Z</time>
      </trkpt>
      <trkpt lat="4.5649630" lon="-74.2591480">
        <ele>2562.7</ele>
        <time>2018-08-11T17:15:52Z</time>
      </trkpt>
      <trkpt lat="4.5649030" lon="-74.2591470">
        <ele>2562.8</ele>
        <time>2018-08-11T17:15:53Z</time>
      </trkpt>
      <trkpt lat="4.5648430" lon="-74.2591480">
        <ele>2562.9</ele>
        <time>2018-08-11T17:15:54Z</time>
      </trkpt>
      <trkpt lat="4.5647870" lon="-74.2591480">
        <ele>2562.9</ele>
        <time>2018-08-11T17:15:55Z</time>
      </trkpt>
      <trkpt lat="4.5647300" lon="-74.2591520">
        <ele>2563.0</ele>
        <time>2018-08-11T17:15:56Z</time>
      </trkpt>
      <trkpt lat="4.5646700" lon="-74.2591530">
        <ele>2563.0</ele>
        <time>2018-08-11T17:15:57Z</time>
      </trkpt>
      <trkpt lat="4.5646130" lon="-74.2591550">
        <ele>2563.0</ele>
        <time>2018-08-11T17:15:58Z</time>
      </trkpt>
      <trkpt lat="4.5645580" lon="-74.2591570">
        <ele>2563.0</ele>
        <time>2018-08-11T17:15:59Z</time>
      </trkpt>
      <trkpt lat="4.5645000" lon="-74.2591530">
        <ele>2563.0</ele>
        <time>2018-08-11T17:16:00Z</time>
      </trkpt>
      <trkpt lat="4.5644380" lon="-74.2591520">
        <ele>2563.0</ele>
        <time>2018-08-11T17:16:01Z</time>
      </trkpt>
      <trkpt lat="4.5643770" lon="-74.2591500">
        <ele>2563.1</ele>
        <time>2018-08-11T17:16:02Z</time>
      </trkpt>
      <trkpt lat="4.5643050" lon="-74.2591470">
        <ele>2563.1</ele>
        <time>2018-08-11T17:16:03Z</time>
      </trkpt>
      <trkpt lat="4.5642400" lon="-74.2591430">
        <ele>2563.1</ele>
        <time>2018-08-11T17:16:04Z</time>
      </trkpt>
      <trkpt lat="4.5641780" lon="-74.2591450">
        <ele>2563.2</ele>
        <time>2018-08-11T17:16:05Z</time>
      </trkpt>
      <trkpt lat="4.5641170" lon="-74.2591450">
        <ele>2563.3</ele>
        <time>2018-08-11T17:16:06Z</time>
      </trkpt>
      <trkpt lat="4.5640500" lon="-74.2591450">
        <ele>2563.4</ele>
        <time>2018-08-11T17:16:07Z</time>
      </trkpt>
      <trkpt lat="4.5639850" lon="-74.2591470">
        <ele>2563.5</ele>
        <time>2018-08-11T17:16:08Z</time>
      </trkpt>
      <trkpt lat="4.5639220" lon="-74.2591470">
        <ele>2563.6</ele>
        <time>2018-08-11T17:16:09Z</time>
      </trkpt>
      <trkpt lat="4.5638620" lon="-74.2591450">
        <ele>2563.7</ele>
        <time>2018-08-11T17:16:10Z</time>
      </trkpt>
      <trkpt lat="4.5638030" lon="-74.2591450">
        <ele>2563.7</ele>
        <time>2018-08-11T17:16:11Z</time>
      </trkpt>
      <trkpt lat="4.5637470" lon="-74.2591480">
        <ele>2563.8</ele>
        <time>2018-08-11T17:16:12Z</time>
      </trkpt>
      <trkpt lat="4.5636920" lon="-74.2591520">
        <ele>2563.9</ele>
        <time>2018-08-11T17:16:13Z</time>
      </trkpt>
      <trkpt lat="4.5636370" lon="-74.2591530">
        <ele>2564.0</ele>
        <time>2018-08-11T17:16:14Z</time>
      </trkpt>
      <trkpt lat="4.5635830" lon="-74.2591550">
        <ele>2564.1</ele>
        <time>2018-08-11T17:16:15Z</time>
      </trkpt>
      <trkpt lat="4.5635320" lon="-74.2591550">
        <ele>2564.1</ele>
        <time>2018-08-11T17:16:16Z</time>
      </trkpt>
      <trkpt lat="4.5634780" lon="-74.2591530">
        <ele>2564.2</ele>
        <time>2018-08-11T17:16:17Z</time>
      </trkpt>
      <trkpt lat="4.5634250" lon="-74.2591520">
        <ele>2564.3</ele>
        <time>2018-08-11T17:16:18Z</time>
      </trkpt>
      <trkpt lat="4.5633700" lon="-74.2591530">
        <ele>2564.3</ele>
        <time>2018-08-11T17:16:19Z</time>
      </trkpt>
      <trkpt lat="4.5633170" lon="-74.2591530">
        <ele>2564.4</ele>
        <time>2018-08-11T17:16:20Z</time>
      </trkpt>
      <trkpt lat="4.5632680" lon="-74.2591480">
        <ele>2564.4</ele>
        <time>2018-08-11T17:16:21Z</time>
      </trkpt>
      <trkpt lat="4.5632180" lon="-74.2591450">
        <ele>2564.4</ele>
        <time>2018-08-11T17:16:22Z</time>
      </trkpt>
      <trkpt lat="4.5631700" lon="-74.2591430">
        <ele>2564.5</ele>
        <time>2018-08-11T17:16:23Z</time>
      </trkpt>
      <trkpt lat="4.5631250" lon="-74.2591450">
        <ele>2564.5</ele>
        <time>2018-08-11T17:16:24Z</time>
      </trkpt>
      <trkpt lat="4.5630770" lon="-74.2591480">
        <ele>2564.6</ele>
        <time>2018-08-11T17:16:25Z</time>
      </trkpt>
      <trkpt lat="4.5630300" lon="-74.2591530">
        <ele>2564.7</ele>
        <time>2018-08-11T17:16:26Z</time>
      </trkpt>
      <trkpt lat="4.5629850" lon="-74.2591530">
        <ele>2564.8</ele>
        <time>2018-08-11T17:16:27Z</time>
      </trkpt>
      <trkpt lat="4.5629420" lon="-74.2591530">
        <ele>2564.8</ele>
        <time>2018-08-11T17:16:28Z</time>
      </trkpt>
      <trkpt lat="4.5629020" lon="-74.2591550">
        <ele>2564.9</ele>
        <time>2018-08-11T17:16:29Z</time>
      </trkpt>
      <trkpt lat="4.5628600" lon="-74.2591570">
        <ele>2565.0</ele>
        <time>2018-08-11T17:16:30Z</time>
      </trkpt>
      <trkpt lat="4.5628180" lon="-74.2591580">
        <ele>2565.0</ele>
        <time>2018-08-11T17:16:31Z</time>
      </trkpt>
      <trkpt lat="4.5627750" lon="-74.2591600">
        <ele>2565.1</ele>
        <time>2018-08-11T17:16:32Z</time>
      </trkpt>
      <trkpt lat="4.5627320" lon="-74.2591580">
        <ele>2565.1</ele>
        <time>2018-08-11T17:16:33Z</time>
      </trkpt>
      <trkpt lat="4.5626870" lon="-74.2591620">
        <ele>2565.2</ele>
        <time>2018-08-11T17:16:34Z</time>
      </trkpt>
      <trkpt lat="4.5626380" lon="-74.2591620">
        <ele>2565.2</ele>
        <time>2018-08-11T17:16:35Z</time>
      </trkpt>
      <trkpt lat="4.5625900" lon="-74.2591580">
        <ele>2565.2</ele>
        <time>2018-08-11T17:16:36Z</time>
      </trkpt>
      <trkpt lat="4.5625400" lon="-74.2591600">
        <ele>2565.3</ele>
        <time>2018-08-11T17:16:37Z</time>
      </trkpt>
      <trkpt lat="4.5624920" lon="-74.2591600">
        <ele>2565.3</ele>
        <time>2018-08-11T17:16:38Z</time>
      </trkpt>
      <trkpt lat="4.5624450" lon="-74.2591630">
        <ele>2565.3</ele>
        <time>2018-08-11T17:16:39Z</time>
      </trkpt>
      <trkpt lat="4.5623950" lon="-74.2591620">
        <ele>2565.3</ele>
        <time>2018-08-11T17:16:40Z</time>
      </trkpt>
      <trkpt lat="4.5623480" lon="-74.2591600">
        <ele>2565.3</ele>
        <time>2018-08-11T17:16:41Z</time>
      </trkpt>
      <trkpt lat="4.5622980" lon="-74.2591620">
        <ele>2565.3</ele>
        <time>2018-08-11T17:16:42Z</time>
      </trkpt>
      <trkpt lat="4.5622480" lon="-74.2591650">
        <ele>2565.3</ele>
        <time>2018-08-11T17:16:43Z</time>
      </trkpt>
      <trkpt lat="4.5621950" lon="-74.2591670">
        <ele>2565.3</ele>
        <time>2018-08-11T17:16:44Z</time>
      </trkpt>
      <trkpt lat="4.5621450" lon="-74.2591670">
        <ele>2565.3</ele>
        <time>2018-08-11T17:16:45Z</time>
      </trkpt>
      <trkpt lat="4.5620930" lon="-74.2591650">
        <ele>2565.3</ele>
        <time>2018-08-11T17:16:46Z</time>
      </trkpt>
      <trkpt lat="4.5620450" lon="-74.2591620">
        <ele>2565.3</ele>
        <time>2018-08-11T17:16:47Z</time>
      </trkpt>
      <trkpt lat="4.5619970" lon="-74.2591620">
        <ele>2565.3</ele>
        <time>2018-08-11T17:16:48Z</time>
      </trkpt>
      <trkpt lat="4.5619470" lon="-74.2591630">
        <ele>2565.3</ele>
        <time>2018-08-11T17:16:49Z</time>
      </trkpt>
      <trkpt lat="4.5618970" lon="-74.2591600">
        <ele>2565.2</ele>
        <time>2018-08-11T17:16:50Z</time>
      </trkpt>
      <trkpt lat="4.5618450" lon="-74.2591570">
        <ele>2565.2</ele>
        <time>2018-08-11T17:16:51Z</time>
      </trkpt>
      <trkpt lat="4.5617970" lon="-74.2591600">
        <ele>2565.2</ele>
        <time>2018-08-11T17:16:52Z</time>
      </trkpt>
      <trkpt lat="4.5617450" lon="-74.2591630">
        <ele>2565.2</ele>
        <time>2018-08-11T17:16:53Z</time>
      </trkpt>
      <trkpt lat="4.5616930" lon="-74.2591670">
        <ele>2565.1</ele>
        <time>2018-08-11T17:16:54Z</time>
      </trkpt>
      <trkpt lat="4.5616400" lon="-74.2591670">
        <ele>2565.1</ele>
        <time>2018-08-11T17:16:55Z</time>
      </trkpt>
      <trkpt lat="4.5615870" lon="-74.2591670">
        <ele>2565.1</ele>
        <time>2018-08-11T17:16:56Z</time>
      </trkpt>
      <trkpt lat="4.5615330" lon="-74.2591670">
        <ele>2565.0</ele>
        <time>2018-08-11T17:16:57Z</time>
      </trkpt>
      <trkpt lat="4.5614780" lon="-74.2591650">
        <ele>2565.0</ele>
        <time>2018-08-11T17:16:58Z</time>
      </trkpt>
      <trkpt lat="4.5614230" lon="-74.2591670">
        <ele>2565.0</ele>
        <time>2018-08-11T17:16:59Z</time>
      </trkpt>
      <trkpt lat="4.5613670" lon="-74.2591680">
        <ele>2564.9</ele>
        <time>2018-08-11T17:17:00Z</time>
      </trkpt>
      <trkpt lat="4.5613120" lon="-74.2591700">
        <ele>2564.9</ele>
        <time>2018-08-11T17:17:01Z</time>
      </trkpt>
      <trkpt lat="4.5612530" lon="-74.2591720">
        <ele>2564.8</ele>
        <time>2018-08-11T17:17:02Z</time>
      </trkpt>
      <trkpt lat="4.5611930" lon="-74.2591700">
        <ele>2564.8</ele>
        <time>2018-08-11T17:17:03Z</time>
      </trkpt>
      <trkpt lat="4.5611320" lon="-74.2591700">
        <ele>2564.7</ele>
        <time>2018-08-11T17:17:04Z</time>
      </trkpt>
      <trkpt lat="4.5610620" lon="-74.2591720">
        <ele>2564.6</ele>
        <time>2018-08-11T17:17:05Z</time>
      </trkpt>
      <trkpt lat="4.5609970" lon="-74.2591680">
        <ele>2564.5</ele>
        <time>2018-08-11T17:17:06Z</time>
      </trkpt>
      <trkpt lat="4.5609300" lon="-74.2591680">
        <ele>2564.4</ele>
        <time>2018-08-11T17:17:07Z</time>
      </trkpt>
      <trkpt lat="4.5608650" lon="-74.2591700">
        <ele>2564.4</ele>
        <time>2018-08-11T17:17:08Z</time>
      </trkpt>
      <trkpt lat="4.5608020" lon="-74.2591730">
        <ele>2564.3</ele>
        <time>2018-08-11T17:17:09Z</time>
      </trkpt>
      <trkpt lat="4.5607400" lon="-74.2591730">
        <ele>2564.2</ele>
        <time>2018-08-11T17:17:10Z</time>
      </trkpt>
      <trkpt lat="4.5606770" lon="-74.2591730">
        <ele>2564.1</ele>
        <time>2018-08-11T17:17:11Z</time>
      </trkpt>
      <trkpt lat="4.5606150" lon="-74.2591770">
        <ele>2564.1</ele>
        <time>2018-08-11T17:17:12Z</time>
      </trkpt>
      <trkpt lat="4.5605570" lon="-74.2591780">
        <ele>2564.0</ele>
        <time>2018-08-11T17:17:13Z</time>
      </trkpt>
      <trkpt lat="4.5604930" lon="-74.2591780">
        <ele>2563.9</ele>
        <time>2018-08-11T17:17:14Z</time>
      </trkpt>
      <trkpt lat="4.5604320" lon="-74.2591800">
        <ele>2563.8</ele>
        <time>2018-08-11T17:17:15Z</time>
      </trkpt>
      <trkpt lat="4.5603720" lon="-74.2591830">
        <ele>2563.8</ele>
        <time>2018-08-11T17:17:16Z</time>
      </trkpt>
      <trkpt lat="4.5603130" lon="-74.2591850">
        <ele>2563.7</ele>
        <time>2018-08-11T17:17:17Z</time>
      </trkpt>
      <trkpt lat="4.5602570" lon="-74.2591850">
        <ele>2563.6</ele>
        <time>2018-08-11T17:17:18Z</time>
      </trkpt>
      <trkpt lat="4.5602000" lon="-74.2591880">
        <ele>2563.5</ele>
        <time>2018-08-11T17:17:19Z</time>
      </trkpt>
      <trkpt lat="4.5601430" lon="-74.2591880">
        <ele>2563.4</ele>
        <time>2018-08-11T17:17:20Z</time>
      </trkpt>
      <trkpt lat="4.5600830" lon="-74.2591900">
        <ele>2563.3</ele>
        <time>2018-08-11T17:17:21Z</time>
      </trkpt>
      <trkpt lat="4.5600230" lon="-74.2591900">
        <ele>2563.2</ele>
        <time>2018-08-11T17:17:22Z</time>
      </trkpt>
      <trkpt lat="4.5599630" lon="-74.2591920">
        <ele>2563.1</ele>
        <time>2018-08-11T17:17:23Z</time>
      </trkpt>
      <trkpt lat="4.5599050" lon="-74.2591920">
        <ele>2563.1</ele>
        <time>2018-08-11T17:17:24Z</time>
      </trkpt>
      <trkpt lat="4.5598470" lon="-74.2591870">
        <ele>2563.0</ele>
        <time>2018-08-11T17:17:25Z</time>
      </trkpt>
      <trkpt lat="4.5597850" lon="-74.2591870">
        <ele>2562.9</ele>
        <time>2018-08-11T17:17:26Z</time>
      </trkpt>
      <trkpt lat="4.5597250" lon="-74.2591850">
        <ele>2562.9</ele>
        <time>2018-08-11T17:17:27Z</time>
      </trkpt>
      <trkpt lat="4.5596670" lon="-74.2591870">
        <ele>2562.8</ele>
        <time>2018-08-11T17:17:28Z</time>
      </trkpt>
      <trkpt lat="4.5596070" lon="-74.2591880">
        <ele>2562.8</ele>
        <time>2018-08-11T17:17:29Z</time>
      </trkpt>
      <trkpt lat="4.5595430" lon="-74.2591900">
        <ele>2562.7</ele>
        <time>2018-08-11T17:17:30Z</time>
      </trkpt>
      <trkpt lat="4.5594800" lon="-74.2591900">
        <ele>2562.7</ele>
        <time>2018-08-11T17:17:31Z</time>
      </trkpt>
      <trkpt lat="4.5594150" lon="-74.2591920">
        <ele>2562.7</ele>
        <time>2018-08-11T17:17:32Z</time>
      </trkpt>
      <trkpt lat="4.5593520" lon="-74.2591970">
        <ele>2562.7</ele>
        <time>2018-08-11T17:17:33Z</time>
      </trkpt>
      <trkpt lat="4.5592850" lon="-74.2591970">
        <ele>2562.7</ele>
        <time>2018-08-11T17:17:34Z</time>
      </trkpt>
      <trkpt lat="4.5592180" lon="-74.2591930">
        <ele>2562.7</ele>
        <time>2018-08-11T17:17:35Z</time>
      </trkpt>
      <trkpt lat="4.5591470" lon="-74.2591980">
        <ele>2562.6</ele>
        <time>2018-08-11T17:17:36Z</time>
      </trkpt>
      <trkpt lat="4.5590800" lon="-74.2591980">
        <ele>2562.6</ele>
        <time>2018-08-11T17:17:37Z</time>
      </trkpt>
      <trkpt lat="4.5590180" lon="-74.2592030">
        <ele>2562.6</ele>
        <time>2018-08-11T17:17:38Z</time>
      </trkpt>
      <trkpt lat="4.5589580" lon="-74.2592020">
        <ele>2562.5</ele>
        <time>2018-08-11T17:17:39Z</time>
      </trkpt>
      <trkpt lat="4.5588980" lon="-74.2592000">
        <ele>2562.5</ele>
        <time>2018-08-11T17:17:40Z</time>
      </trkpt>
      <trkpt lat="4.5588400" lon="-74.2592000">
        <ele>2562.4</ele>
        <time>2018-08-11T17:17:41Z</time>
      </trkpt>
      <trkpt lat="4.5587830" lon="-74.2592020">
        <ele>2562.4</ele>
        <time>2018-08-11T17:17:42Z</time>
      </trkpt>
      <trkpt lat="4.5587250" lon="-74.2592030">
        <ele>2562.3</ele>
        <time>2018-08-11T17:17:43Z</time>
      </trkpt>
      <trkpt lat="4.5586670" lon="-74.2592020">
        <ele>2562.3</ele>
        <time>2018-08-11T17:17:44Z</time>
      </trkpt>
      <trkpt lat="4.5586100" lon="-74.2592020">
        <ele>2562.2</ele>
        <time>2018-08-11T17:17:45Z</time>
      </trkpt>
      <trkpt lat="4.5585530" lon="-74.2592020">
        <ele>2562.1</ele>
        <time>2018-08-11T17:17:46Z</time>
      </trkpt>
      <trkpt lat="4.5584980" lon="-74.2592020">
        <ele>2562.0</ele>
        <time>2018-08-11T17:17:47Z</time>
      </trkpt>
      <trkpt lat="4.5584420" lon="-74.2592020">
        <ele>2561.9</ele>
        <time>2018-08-11T17:17:48Z</time>
      </trkpt>
      <trkpt lat="4.5583870" lon="-74.2592030">
        <ele>2561.8</ele>
        <time>2018-08-11T17:17:49Z</time>
      </trkpt>
      <trkpt lat="4.5583330" lon="-74.2592030">
        <ele>2561.7</ele>
        <time>2018-08-11T17:17:50Z</time>
      </trkpt>
      <trkpt lat="4.5582800" lon="-74.2592070">
        <ele>2561.6</ele>
        <time>2018-08-11T17:17:51Z</time>
      </trkpt>
      <trkpt lat="4.5582230" lon="-74.2592070">
        <ele>2561.5</ele>
        <time>2018-08-11T17:17:52Z</time>
      </trkpt>
      <trkpt lat="4.5581670" lon="-74.2592050">
        <ele>2561.4</ele>
        <time>2018-08-11T17:17:53Z</time>
      </trkpt>
      <trkpt lat="4.5581120" lon="-74.2592050">
        <ele>2561.3</ele>
        <time>2018-08-11T17:17:54Z</time>
      </trkpt>
      <trkpt lat="4.5580550" lon="-74.2592050">
        <ele>2561.3</ele>
        <time>2018-08-11T17:17:55Z</time>
      </trkpt>
      <trkpt lat="4.5579970" lon="-74.2592070">
        <ele>2561.2</ele>
        <time>2018-08-11T17:17:56Z</time>
      </trkpt>
      <trkpt lat="4.5579380" lon="-74.2592080">
        <ele>2561.2</ele>
        <time>2018-08-11T17:17:57Z</time>
      </trkpt>
      <trkpt lat="4.5578780" lon="-74.2592100">
        <ele>2561.2</ele>
        <time>2018-08-11T17:17:58Z</time>
      </trkpt>
      <trkpt lat="4.5578220" lon="-74.2592120">
        <ele>2561.2</ele>
        <time>2018-08-11T17:17:59Z</time>
      </trkpt>
      <trkpt lat="4.5577680" lon="-74.2592120">
        <ele>2561.2</ele>
        <time>2018-08-11T17:18:00Z</time>
      </trkpt>
      <trkpt lat="4.5577150" lon="-74.2592120">
        <ele>2561.2</ele>
        <time>2018-08-11T17:18:01Z</time>
      </trkpt>
      <trkpt lat="4.5576600" lon="-74.2592130">
        <ele>2561.1</ele>
        <time>2018-08-11T17:18:02Z</time>
      </trkpt>
      <trkpt lat="4.5576080" lon="-74.2592130">
        <ele>2561.1</ele>
        <time>2018-08-11T17:18:03Z</time>
      </trkpt>
      <trkpt lat="4.5575570" lon="-74.2592130">
        <ele>2561.1</ele>
        <time>2018-08-11T17:18:04Z</time>
      </trkpt>
      <trkpt lat="4.5575050" lon="-74.2592130">
        <ele>2561.0</ele>
        <time>2018-08-11T17:18:05Z</time>
      </trkpt>
      <trkpt lat="4.5574520" lon="-74.2592130">
        <ele>2561.0</ele>
        <time>2018-08-11T17:18:06Z</time>
      </trkpt>
      <trkpt lat="4.5574000" lon="-74.2592150">
        <ele>2560.9</ele>
        <time>2018-08-11T17:18:07Z</time>
      </trkpt>
      <trkpt lat="4.5573470" lon="-74.2592150">
        <ele>2560.9</ele>
        <time>2018-08-11T17:18:08Z</time>
      </trkpt>
      <trkpt lat="4.5572950" lon="-74.2592170">
        <ele>2560.8</ele>
        <time>2018-08-11T17:18:09Z</time>
      </trkpt>
      <trkpt lat="4.5572430" lon="-74.2592170">
        <ele>2560.8</ele>
        <time>2018-08-11T17:18:10Z</time>
      </trkpt>
      <trkpt lat="4.5571880" lon="-74.2592180">
        <ele>2560.7</ele>
        <time>2018-08-11T17:18:11Z</time>
      </trkpt>
      <trkpt lat="4.5571350" lon="-74.2592220">
        <ele>2560.7</ele>
        <time>2018-08-11T17:18:12Z</time>
      </trkpt>
      <trkpt lat="4.5570830" lon="-74.2592230">
        <ele>2560.6</ele>
        <time>2018-08-11T17:18:13Z</time>
      </trkpt>
      <trkpt lat="4.5570280" lon="-74.2592250">
        <ele>2560.6</ele>
        <time>2018-08-11T17:18:14Z</time>
      </trkpt>
      <trkpt lat="4.5569750" lon="-74.2592250">
        <ele>2560.5</ele>
        <time>2018-08-11T17:18:15Z</time>
      </trkpt>
      <trkpt lat="4.5569230" lon="-74.2592230">
        <ele>2560.4</ele>
        <time>2018-08-11T17:18:16Z</time>
      </trkpt>
      <trkpt lat="4.5568700" lon="-74.2592220">
        <ele>2560.3</ele>
        <time>2018-08-11T17:18:17Z</time>
      </trkpt>
      <trkpt lat="4.5568130" lon="-74.2592200">
        <ele>2560.2</ele>
        <time>2018-08-11T17:18:18Z</time>
      </trkpt>
      <trkpt lat="4.5567550" lon="-74.2592180">
        <ele>2560.1</ele>
        <time>2018-08-11T17:18:19Z</time>
      </trkpt>
      <trkpt lat="4.5566980" lon="-74.2592180">
        <ele>2560.0</ele>
        <time>2018-08-11T17:18:20Z</time>
      </trkpt>
      <trkpt lat="4.5566430" lon="-74.2592220">
        <ele>2560.1</ele>
        <time>2018-08-11T17:18:21Z</time>
      </trkpt>
      <trkpt lat="4.5565850" lon="-74.2592220">
        <ele>2560.3</ele>
        <time>2018-08-11T17:18:22Z</time>
      </trkpt>
      <trkpt lat="4.5565280" lon="-74.2592220">
        <ele>2560.5</ele>
        <time>2018-08-11T17:18:23Z</time>
      </trkpt>
      <trkpt lat="4.5564730" lon="-74.2592220">
        <ele>2560.6</ele>
        <time>2018-08-11T17:18:24Z</time>
      </trkpt>
      <trkpt lat="4.5564180" lon="-74.2592200">
        <ele>2560.8</ele>
        <time>2018-08-11T17:18:25Z</time>
      </trkpt>
      <trkpt lat="4.5563620" lon="-74.2592180">
        <ele>2560.9</ele>
        <time>2018-08-11T17:18:26Z</time>
      </trkpt>
      <trkpt lat="4.5563050" lon="-74.2592180">
        <ele>2561.1</ele>
        <time>2018-08-11T17:18:27Z</time>
      </trkpt>
      <trkpt lat="4.5562480" lon="-74.2592200">
        <ele>2561.2</ele>
        <time>2018-08-11T17:18:28Z</time>
      </trkpt>
      <trkpt lat="4.5561930" lon="-74.2592220">
        <ele>2561.3</ele>
        <time>2018-08-11T17:18:29Z</time>
      </trkpt>
      <trkpt lat="4.5561370" lon="-74.2592220">
        <ele>2561.4</ele>
        <time>2018-08-11T17:18:30Z</time>
      </trkpt>
      <trkpt lat="4.5560800" lon="-74.2592230">
        <ele>2561.6</ele>
        <time>2018-08-11T17:18:31Z</time>
      </trkpt>
      <trkpt lat="4.5560230" lon="-74.2592230">
        <ele>2561.7</ele>
        <time>2018-08-11T17:18:32Z</time>
      </trkpt>
      <trkpt lat="4.5559650" lon="-74.2592250">
        <ele>2561.9</ele>
        <time>2018-08-11T17:18:33Z</time>
      </trkpt>
      <trkpt lat="4.5559080" lon="-74.2592230">
        <ele>2562.0</ele>
        <time>2018-08-11T17:18:34Z</time>
      </trkpt>
      <trkpt lat="4.5558480" lon="-74.2592230">
        <ele>2562.2</ele>
        <time>2018-08-11T17:18:35Z</time>
      </trkpt>
      <trkpt lat="4.5557920" lon="-74.2592250">
        <ele>2562.4</ele>
        <time>2018-08-11T17:18:36Z</time>
      </trkpt>
      <trkpt lat="4.5557320" lon="-74.2592250">
        <ele>2562.5</ele>
        <time>2018-08-11T17:18:37Z</time>
      </trkpt>
      <trkpt lat="4.5556780" lon="-74.2592250">
        <ele>2562.6</ele>
        <time>2018-08-11T17:18:38Z</time>
      </trkpt>
      <trkpt lat="4.5556270" lon="-74.2592300">
        <ele>2562.7</ele>
        <time>2018-08-11T17:18:39Z</time>
      </trkpt>
      <trkpt lat="4.5555720" lon="-74.2592320">
        <ele>2562.7</ele>
        <time>2018-08-11T17:18:40Z</time>
      </trkpt>
      <trkpt lat="4.5555180" lon="-74.2592320">
        <ele>2562.7</ele>
        <time>2018-08-11T17:18:41Z</time>
      </trkpt>
      <trkpt lat="4.5554630" lon="-74.2592330">
        <ele>2562.7</ele>
        <time>2018-08-11T17:18:42Z</time>
      </trkpt>
      <trkpt lat="4.5554100" lon="-74.2592330">
        <ele>2562.7</ele>
        <time>2018-08-11T17:18:43Z</time>
      </trkpt>
      <trkpt lat="4.5553550" lon="-74.2592350">
        <ele>2562.8</ele>
        <time>2018-08-11T17:18:44Z</time>
      </trkpt>
      <trkpt lat="4.5553020" lon="-74.2592350">
        <ele>2562.8</ele>
        <time>2018-08-11T17:18:45Z</time>
      </trkpt>
      <trkpt lat="4.5552470" lon="-74.2592300">
        <ele>2562.8</ele>
        <time>2018-08-11T17:18:46Z</time>
      </trkpt>
      <trkpt lat="4.5551970" lon="-74.2592280">
        <ele>2562.8</ele>
        <time>2018-08-11T17:18:47Z</time>
      </trkpt>
      <trkpt lat="4.5551450" lon="-74.2592280">
        <ele>2562.9</ele>
        <time>2018-08-11T17:18:48Z</time>
      </trkpt>
      <trkpt lat="4.5550950" lon="-74.2592270">
        <ele>2562.9</ele>
        <time>2018-08-11T17:18:49Z</time>
      </trkpt>
      <trkpt lat="4.5550430" lon="-74.2592270">
        <ele>2563.0</ele>
        <time>2018-08-11T17:18:50Z</time>
      </trkpt>
      <trkpt lat="4.5549900" lon="-74.2592280">
        <ele>2563.1</ele>
        <time>2018-08-11T17:18:51Z</time>
      </trkpt>
      <trkpt lat="4.5549370" lon="-74.2592300">
        <ele>2563.2</ele>
        <time>2018-08-11T17:18:52Z</time>
      </trkpt>
      <trkpt lat="4.5548850" lon="-74.2592330">
        <ele>2563.2</ele>
        <time>2018-08-11T17:18:53Z</time>
      </trkpt>
      <trkpt lat="4.5548330" lon="-74.2592330">
        <ele>2563.3</ele>
        <time>2018-08-11T17:18:54Z</time>
      </trkpt>
      <trkpt lat="4.5547800" lon="-74.2592320">
        <ele>2563.4</ele>
        <time>2018-08-11T17:18:55Z</time>
      </trkpt>
      <trkpt lat="4.5547270" lon="-74.2592300">
        <ele>2563.5</ele>
        <time>2018-08-11T17:18:56Z</time>
      </trkpt>
      <trkpt lat="4.5546750" lon="-74.2592320">
        <ele>2563.5</ele>
        <time>2018-08-11T17:18:57Z</time>
      </trkpt>
      <trkpt lat="4.5546230" lon="-74.2592320">
        <ele>2563.6</ele>
        <time>2018-08-11T17:18:58Z</time>
      </trkpt>
      <trkpt lat="4.5545700" lon="-74.2592300">
        <ele>2563.7</ele>
        <time>2018-08-11T17:18:59Z</time>
      </trkpt>
      <trkpt lat="4.5545150" lon="-74.2592270">
        <ele>2563.8</ele>
        <time>2018-08-11T17:19:00Z</time>
      </trkpt>
      <trkpt lat="4.5544600" lon="-74.2592230">
        <ele>2564.0</ele>
        <time>2018-08-11T17:19:01Z</time>
      </trkpt>
      <trkpt lat="4.5544050" lon="-74.2592220">
        <ele>2564.2</ele>
        <time>2018-08-11T17:19:02Z</time>
      </trkpt>
      <trkpt lat="4.5543520" lon="-74.2592250">
        <ele>2564.3</ele>
        <time>2018-08-11T17:19:03Z</time>
      </trkpt>
      <trkpt lat="4.5542980" lon="-74.2592270">
        <ele>2564.5</ele>
        <time>2018-08-11T17:19:04Z</time>
      </trkpt>
      <trkpt lat="4.5542430" lon="-74.2592270">
        <ele>2564.7</ele>
        <time>2018-08-11T17:19:05Z</time>
      </trkpt>
      <trkpt lat="4.5541880" lon="-74.2592250">
        <ele>2564.8</ele>
        <time>2018-08-11T17:19:06Z</time>
      </trkpt>
      <trkpt lat="4.5541380" lon="-74.2592280">
        <ele>2565.0</ele>
        <time>2018-08-11T17:19:07Z</time>
      </trkpt>
      <trkpt lat="4.5540870" lon="-74.2592280">
        <ele>2565.2</ele>
        <time>2018-08-11T17:19:08Z</time>
      </trkpt>
      <trkpt lat="4.5540380" lon="-74.2592250">
        <ele>2565.4</ele>
        <time>2018-08-11T17:19:09Z</time>
      </trkpt>
      <trkpt lat="4.5539930" lon="-74.2592270">
        <ele>2565.6</ele>
        <time>2018-08-11T17:19:10Z</time>
      </trkpt>
      <trkpt lat="4.5539470" lon="-74.2592270">
        <ele>2565.8</ele>
        <time>2018-08-11T17:19:11Z</time>
      </trkpt>
      <trkpt lat="4.5539020" lon="-74.2592300">
        <ele>2566.0</ele>
        <time>2018-08-11T17:19:12Z</time>
      </trkpt>
      <trkpt lat="4.5538570" lon="-74.2592300">
        <ele>2565.9</ele>
        <time>2018-08-11T17:19:13Z</time>
      </trkpt>
      <trkpt lat="4.5538120" lon="-74.2592320">
        <ele>2565.9</ele>
        <time>2018-08-11T17:19:14Z</time>
      </trkpt>
      <trkpt lat="4.5537680" lon="-74.2592330">
        <ele>2565.9</ele>
        <time>2018-08-11T17:19:15Z</time>
      </trkpt>
      <trkpt lat="4.5537270" lon="-74.2592320">
        <ele>2565.8</ele>
        <time>2018-08-11T17:19:16Z</time>
      </trkpt>
      <trkpt lat="4.5536830" lon="-74.2592330">
        <ele>2565.7</ele>
        <time>2018-08-11T17:19:17Z</time>
      </trkpt>
      <trkpt lat="4.5536400" lon="-74.2592320">
        <ele>2565.7</ele>
        <time>2018-08-11T17:19:18Z</time>
      </trkpt>
      <trkpt lat="4.5535950" lon="-74.2592300">
        <ele>2565.6</ele>
        <time>2018-08-11T17:19:19Z</time>
      </trkpt>
      <trkpt lat="4.5535520" lon="-74.2592280">
        <ele>2565.5</ele>
        <time>2018-08-11T17:19:20Z</time>
      </trkpt>
      <trkpt lat="4.5535070" lon="-74.2592280">
        <ele>2565.5</ele>
        <time>2018-08-11T17:19:21Z</time>
      </trkpt>
      <trkpt lat="4.5534620" lon="-74.2592270">
        <ele>2565.4</ele>
        <time>2018-08-11T17:19:22Z</time>
      </trkpt>
      <trkpt lat="4.5534170" lon="-74.2592280">
        <ele>2565.3</ele>
        <time>2018-08-11T17:19:23Z</time>
      </trkpt>
      <trkpt lat="4.5533720" lon="-74.2592280">
        <ele>2565.3</ele>
        <time>2018-08-11T17:19:24Z</time>
      </trkpt>
      <trkpt lat="4.5533250" lon="-74.2592270">
        <ele>2565.2</ele>
        <time>2018-08-11T17:19:25Z</time>
      </trkpt>
      <trkpt lat="4.5532780" lon="-74.2592300">
        <ele>2565.2</ele>
        <time>2018-08-11T17:19:26Z</time>
      </trkpt>
      <trkpt lat="4.5532300" lon="-74.2592320">
        <ele>2565.1</ele>
        <time>2018-08-11T17:19:27Z</time>
      </trkpt>
      <trkpt lat="4.5531820" lon="-74.2592320">
        <ele>2565.0</ele>
        <time>2018-08-11T17:19:28Z</time>
      </trkpt>
      <trkpt lat="4.5531320" lon="-74.2592350">
        <ele>2564.9</ele>
        <time>2018-08-11T17:19:29Z</time>
      </trkpt>
      <trkpt lat="4.5530800" lon="-74.2592370">
        <ele>2564.9</ele>
        <time>2018-08-11T17:19:30Z</time>
      </trkpt>
      <trkpt lat="4.5530300" lon="-74.2592370">
        <ele>2564.8</ele>
        <time>2018-08-11T17:19:31Z</time>
      </trkpt>
      <trkpt lat="4.5529820" lon="-74.2592380">
        <ele>2564.8</ele>
        <time>2018-08-11T17:19:32Z</time>
      </trkpt>
      <trkpt lat="4.5529300" lon="-74.2592400">
        <ele>2564.7</ele>
        <time>2018-08-11T17:19:33Z</time>
      </trkpt>
      <trkpt lat="4.5528820" lon="-74.2592420">
        <ele>2564.6</ele>
        <time>2018-08-11T17:19:34Z</time>
      </trkpt>
      <trkpt lat="4.5528330" lon="-74.2592430">
        <ele>2564.5</ele>
        <time>2018-08-11T17:19:35Z</time>
      </trkpt>
      <trkpt lat="4.5527870" lon="-74.2592450">
        <ele>2564.4</ele>
        <time>2018-08-11T17:19:36Z</time>
      </trkpt>
      <trkpt lat="4.5527380" lon="-74.2592450">
        <ele>2564.3</ele>
        <time>2018-08-11T17:19:37Z</time>
      </trkpt>
      <trkpt lat="4.5526900" lon="-74.2592450">
        <ele>2564.2</ele>
        <time>2018-08-11T17:19:38Z</time>
      </trkpt>
      <trkpt lat="4.5526430" lon="-74.2592480">
        <ele>2564.1</ele>
        <time>2018-08-11T17:19:39Z</time>
      </trkpt>
      <trkpt lat="4.5525930" lon="-74.2592520">
        <ele>2564.0</ele>
        <time>2018-08-11T17:19:40Z</time>
      </trkpt>
      <trkpt lat="4.5525450" lon="-74.2592570">
        <ele>2563.9</ele>
        <time>2018-08-11T17:19:41Z</time>
      </trkpt>
      <trkpt lat="4.5524970" lon="-74.2592570">
        <ele>2563.8</ele>
        <time>2018-08-11T17:19:42Z</time>
      </trkpt>
      <trkpt lat="4.5524480" lon="-74.2592570">
        <ele>2563.7</ele>
        <time>2018-08-11T17:19:43Z</time>
      </trkpt>
      <trkpt lat="4.5523980" lon="-74.2592520">
        <ele>2563.6</ele>
        <time>2018-08-11T17:19:44Z</time>
      </trkpt>
      <trkpt lat="4.5523520" lon="-74.2592520">
        <ele>2563.5</ele>
        <time>2018-08-11T17:19:45Z</time>
      </trkpt>
      <trkpt lat="4.5523030" lon="-74.2592550">
        <ele>2563.3</ele>
        <time>2018-08-11T17:19:46Z</time>
      </trkpt>
      <trkpt lat="4.5522550" lon="-74.2592550">
        <ele>2563.2</ele>
        <time>2018-08-11T17:19:47Z</time>
      </trkpt>
      <trkpt lat="4.5522050" lon="-74.2592550">
        <ele>2563.1</ele>
        <time>2018-08-11T17:19:48Z</time>
      </trkpt>
      <trkpt lat="4.5521530" lon="-74.2592550">
        <ele>2563.0</ele>
        <time>2018-08-11T17:19:49Z</time>
      </trkpt>
      <trkpt lat="4.5521020" lon="-74.2592530">
        <ele>2562.8</ele>
        <time>2018-08-11T17:19:50Z</time>
      </trkpt>
      <trkpt lat="4.5520470" lon="-74.2592500">
        <ele>2562.7</ele>
        <time>2018-08-11T17:19:51Z</time>
      </trkpt>
      <trkpt lat="4.5519930" lon="-74.2592500">
        <ele>2562.4</ele>
        <time>2018-08-11T17:19:52Z</time>
      </trkpt>
      <trkpt lat="4.5519380" lon="-74.2592480">
        <ele>2562.2</ele>
        <time>2018-08-11T17:19:53Z</time>
      </trkpt>
      <trkpt lat="4.5518850" lon="-74.2592520">
        <ele>2561.9</ele>
        <time>2018-08-11T17:19:54Z</time>
      </trkpt>
      <trkpt lat="4.5518280" lon="-74.2592520">
        <ele>2561.6</ele>
        <time>2018-08-11T17:19:55Z</time>
      </trkpt>
      <trkpt lat="4.5517700" lon="-74.2592500">
        <ele>2561.4</ele>
        <time>2018-08-11T17:19:56Z</time>
      </trkpt>
      <trkpt lat="4.5517130" lon="-74.2592550">
        <ele>2561.2</ele>
        <time>2018-08-11T17:19:57Z</time>
      </trkpt>
      <trkpt lat="4.5516550" lon="-74.2592570">
        <ele>2561.0</ele>
        <time>2018-08-11T17:19:58Z</time>
      </trkpt>
      <trkpt lat="4.5516020" lon="-74.2592580">
        <ele>2560.8</ele>
        <time>2018-08-11T17:19:59Z</time>
      </trkpt>
      <trkpt lat="4.5515420" lon="-74.2592600">
        <ele>2560.6</ele>
        <time>2018-08-11T17:20:00Z</time>
      </trkpt>
      <trkpt lat="4.5514820" lon="-74.2592650">
        <ele>2560.3</ele>
        <time>2018-08-11T17:20:01Z</time>
      </trkpt>
      <trkpt lat="4.5514200" lon="-74.2592680">
        <ele>2560.1</ele>
        <time>2018-08-11T17:20:02Z</time>
      </trkpt>
      <trkpt lat="4.5513600" lon="-74.2592670">
        <ele>2559.8</ele>
        <time>2018-08-11T17:20:03Z</time>
      </trkpt>
      <trkpt lat="4.5513020" lon="-74.2592700">
        <ele>2559.6</ele>
        <time>2018-08-11T17:20:04Z</time>
      </trkpt>
      <trkpt lat="4.5512420" lon="-74.2592720">
        <ele>2559.4</ele>
        <time>2018-08-11T17:20:05Z</time>
      </trkpt>
      <trkpt lat="4.5511780" lon="-74.2592720">
        <ele>2559.1</ele>
        <time>2018-08-11T17:20:06Z</time>
      </trkpt>
      <trkpt lat="4.5511120" lon="-74.2592720">
        <ele>2558.9</ele>
        <time>2018-08-11T17:20:07Z</time>
      </trkpt>
      <trkpt lat="4.5510430" lon="-74.2592730">
        <ele>2558.6</ele>
        <time>2018-08-11T17:20:08Z</time>
      </trkpt>
      <trkpt lat="4.5509750" lon="-74.2592730">
        <ele>2558.3</ele>
        <time>2018-08-11T17:20:09Z</time>
      </trkpt>
      <trkpt lat="4.5509050" lon="-74.2592720">
        <ele>2558.0</ele>
        <time>2018-08-11T17:20:10Z</time>
      </trkpt>
      <trkpt lat="4.5508380" lon="-74.2592700">
        <ele>2557.6</ele>
        <time>2018-08-11T17:20:11Z</time>
      </trkpt>
      <trkpt lat="4.5507650" lon="-74.2592750">
        <ele>2557.3</ele>
        <time>2018-08-11T17:20:12Z</time>
      </trkpt>
      <trkpt lat="4.5506920" lon="-74.2592770">
        <ele>2556.9</ele>
        <time>2018-08-11T17:20:13Z</time>
      </trkpt>
      <trkpt lat="4.5506180" lon="-74.2592800">
        <ele>2556.4</ele>
        <time>2018-08-11T17:20:14Z</time>
      </trkpt>
      <trkpt lat="4.5505480" lon="-74.2592830">
        <ele>2556.1</ele>
        <time>2018-08-11T17:20:15Z</time>
      </trkpt>
      <trkpt lat="4.5504720" lon="-74.2592820">
        <ele>2555.7</ele>
        <time>2018-08-11T17:20:16Z</time>
      </trkpt>
      <trkpt lat="4.5503920" lon="-74.2592830">
        <ele>2555.4</ele>
        <time>2018-08-11T17:20:17Z</time>
      </trkpt>
      <trkpt lat="4.5503120" lon="-74.2592820">
        <ele>2555.0</ele>
        <time>2018-08-11T17:20:18Z</time>
      </trkpt>
      <trkpt lat="4.5502280" lon="-74.2592780">
        <ele>2554.6</ele>
        <time>2018-08-11T17:20:19Z</time>
      </trkpt>
      <trkpt lat="4.5501420" lon="-74.2592750">
        <ele>2554.2</ele>
        <time>2018-08-11T17:20:20Z</time>
      </trkpt>
      <trkpt lat="4.5500520" lon="-74.2592680">
        <ele>2553.7</ele>
        <time>2018-08-11T17:20:21Z</time>
      </trkpt>
      <trkpt lat="4.5499620" lon="-74.2592600">
        <ele>2553.2</ele>
        <time>2018-08-11T17:20:22Z</time>
      </trkpt>
      <trkpt lat="4.5498700" lon="-74.2592530">
        <ele>2552.8</ele>
        <time>2018-08-11T17:20:23Z</time>
      </trkpt>
      <trkpt lat="4.5497780" lon="-74.2592480">
        <ele>2552.3</ele>
        <time>2018-08-11T17:20:24Z</time>
      </trkpt>
      <trkpt lat="4.5496870" lon="-74.2592420">
        <ele>2551.8</ele>
        <time>2018-08-11T17:20:25Z</time>
      </trkpt>
      <trkpt lat="4.5495930" lon="-74.2592330">
        <ele>2551.2</ele>
        <time>2018-08-11T17:20:26Z</time>
      </trkpt>
      <trkpt lat="4.5494980" lon="-74.2592200">
        <ele>2550.7</ele>
        <time>2018-08-11T17:20:27Z</time>
      </trkpt>
      <trkpt lat="4.5494020" lon="-74.2592080">
        <ele>2550.1</ele>
        <time>2018-08-11T17:20:28Z</time>
      </trkpt>
      <trkpt lat="4.5493070" lon="-74.2591930">
        <ele>2549.7</ele>
        <time>2018-08-11T17:20:29Z</time>
      </trkpt>
      <trkpt lat="4.5492100" lon="-74.2591800">
        <ele>2549.3</ele>
        <time>2018-08-11T17:20:30Z</time>
      </trkpt>
      <trkpt lat="4.5491150" lon="-74.2591630">
        <ele>2548.9</ele>
        <time>2018-08-11T17:20:31Z</time>
      </trkpt>
      <trkpt lat="4.5490220" lon="-74.2591480">
        <ele>2548.5</ele>
        <time>2018-08-11T17:20:32Z</time>
      </trkpt>
      <trkpt lat="4.5489250" lon="-74.2591280">
        <ele>2548.1</ele>
        <time>2018-08-11T17:20:33Z</time>
      </trkpt>
      <trkpt lat="4.5488320" lon="-74.2591080">
        <ele>2547.7</ele>
        <time>2018-08-11T17:20:34Z</time>
      </trkpt>
      <trkpt lat="4.5487370" lon="-74.2590920">
        <ele>2547.2</ele>
        <time>2018-08-11T17:20:35Z</time>
      </trkpt>
      <trkpt lat="4.5486450" lon="-74.2590750">
        <ele>2546.8</ele>
        <time>2018-08-11T17:20:36Z</time>
      </trkpt>
      <trkpt lat="4.5485550" lon="-74.2590600">
        <ele>2546.5</ele>
        <time>2018-08-11T17:20:37Z</time>
      </trkpt>
      <trkpt lat="4.5484630" lon="-74.2590470">
        <ele>2546.2</ele>
        <time>2018-08-11T17:20:38Z</time>
      </trkpt>
      <trkpt lat="4.5483770" lon="-74.2590320">
        <ele>2546.0</ele>
        <time>2018-08-11T17:20:39Z</time>
      </trkpt>
      <trkpt lat="4.5482920" lon="-74.2590150">
        <ele>2545.7</ele>
        <time>2018-08-11T17:20:40Z</time>
      </trkpt>
      <trkpt lat="4.5482080" lon="-74.2589980">
        <ele>2545.5</ele>
        <time>2018-08-11T17:20:41Z</time>
      </trkpt>
      <trkpt lat="4.5481280" lon="-74.2589830">
        <ele>2545.4</ele>
        <time>2018-08-11T17:20:42Z</time>
      </trkpt>
      <trkpt lat="4.5480520" lon="-74.2589730">
        <ele>2545.2</ele>
        <time>2018-08-11T17:20:43Z</time>
      </trkpt>
      <trkpt lat="4.5479750" lon="-74.2589620">
        <ele>2545.0</ele>
        <time>2018-08-11T17:20:44Z</time>
      </trkpt>
      <trkpt lat="4.5479020" lon="-74.2589470">
        <ele>2544.9</ele>
        <time>2018-08-11T17:20:45Z</time>
      </trkpt>
      <trkpt lat="4.5478270" lon="-74.2589320">
        <ele>2544.7</ele>
        <time>2018-08-11T17:20:46Z</time>
      </trkpt>
      <trkpt lat="4.5477520" lon="-74.2589180">
        <ele>2544.6</ele>
        <time>2018-08-11T17:20:47Z</time>
      </trkpt>
      <trkpt lat="4.5476730" lon="-74.2589050">
        <ele>2544.6</ele>
        <time>2018-08-11T17:20:48Z</time>
      </trkpt>
      <trkpt lat="4.5475980" lon="-74.2588920">
        <ele>2544.5</ele>
        <time>2018-08-11T17:20:49Z</time>
      </trkpt>
      <trkpt lat="4.5475220" lon="-74.2588800">
        <ele>2544.5</ele>
        <time>2018-08-11T17:20:50Z</time>
      </trkpt>
      <trkpt lat="4.5474470" lon="-74.2588680">
        <ele>2544.5</ele>
        <time>2018-08-11T17:20:51Z</time>
      </trkpt>
      <trkpt lat="4.5473730" lon="-74.2588580">
        <ele>2544.6</ele>
        <time>2018-08-11T17:20:52Z</time>
      </trkpt>
      <trkpt lat="4.5473030" lon="-74.2588470">
        <ele>2544.6</ele>
        <time>2018-08-11T17:20:53Z</time>
      </trkpt>
      <trkpt lat="4.5472330" lon="-74.2588350">
        <ele>2544.6</ele>
        <time>2018-08-11T17:20:54Z</time>
      </trkpt>
      <trkpt lat="4.5471680" lon="-74.2588270">
        <ele>2544.6</ele>
        <time>2018-08-11T17:20:55Z</time>
      </trkpt>
      <trkpt lat="4.5471050" lon="-74.2588180">
        <ele>2544.6</ele>
        <time>2018-08-11T17:20:56Z</time>
      </trkpt>
      <trkpt lat="4.5470450" lon="-74.2588080">
        <ele>2544.5</ele>
        <time>2018-08-11T17:20:57Z</time>
      </trkpt>
      <trkpt lat="4.5469850" lon="-74.2588000">
        <ele>2544.5</ele>
        <time>2018-08-11T17:20:58Z</time>
      </trkpt>
      <trkpt lat="4.5469230" lon="-74.2587900">
        <ele>2544.4</ele>
        <time>2018-08-11T17:20:59Z</time>
      </trkpt>
      <trkpt lat="4.5468630" lon="-74.2587820">
        <ele>2544.4</ele>
        <time>2018-08-11T17:21:00Z</time>
      </trkpt>
      <trkpt lat="4.5468020" lon="-74.2587700">
        <ele>2544.3</ele>
        <time>2018-08-11T17:21:01Z</time>
      </trkpt>
      <trkpt lat="4.5467420" lon="-74.2587600">
        <ele>2544.3</ele>
        <time>2018-08-11T17:21:02Z</time>
      </trkpt>
      <trkpt lat="4.5466830" lon="-74.2587520">
        <ele>2544.4</ele>
        <time>2018-08-11T17:21:03Z</time>
      </trkpt>
      <trkpt lat="4.5466270" lon="-74.2587450">
        <ele>2544.4</ele>
        <time>2018-08-11T17:21:04Z</time>
      </trkpt>
      <trkpt lat="4.5465700" lon="-74.2587380">
        <ele>2544.4</ele>
        <time>2018-08-11T17:21:05Z</time>
      </trkpt>
      <trkpt lat="4.5465130" lon="-74.2587320">
        <ele>2544.4</ele>
        <time>2018-08-11T17:21:06Z</time>
      </trkpt>
      <trkpt lat="4.5464600" lon="-74.2587230">
        <ele>2544.4</ele>
        <time>2018-08-11T17:21:07Z</time>
      </trkpt>
      <trkpt lat="4.5464050" lon="-74.2587150">
        <ele>2544.5</ele>
        <time>2018-08-11T17:21:08Z</time>
      </trkpt>
      <trkpt lat="4.5463520" lon="-74.2587080">
        <ele>2544.5</ele>
        <time>2018-08-11T17:21:09Z</time>
      </trkpt>
      <trkpt lat="4.5463020" lon="-74.2587030">
        <ele>2544.6</ele>
        <time>2018-08-11T17:21:10Z</time>
      </trkpt>
      <trkpt lat="4.5462520" lon="-74.2586970">
        <ele>2544.6</ele>
        <time>2018-08-11T17:21:11Z</time>
      </trkpt>
      <trkpt lat="4.5462030" lon="-74.2586900">
        <ele>2544.7</ele>
        <time>2018-08-11T17:21:12Z</time>
      </trkpt>
      <trkpt lat="4.5461530" lon="-74.2586820">
        <ele>2544.7</ele>
        <time>2018-08-11T17:21:13Z</time>
      </trkpt>
      <trkpt lat="4.5461050" lon="-74.2586750">
        <ele>2544.7</ele>
        <time>2018-08-11T17:21:14Z</time>
      </trkpt>
      <trkpt lat="4.5460570" lon="-74.2586650">
        <ele>2544.7</ele>
        <time>2018-08-11T17:21:15Z</time>
      </trkpt>
      <trkpt lat="4.5460050" lon="-74.2586570">
        <ele>2544.7</ele>
        <time>2018-08-11T17:21:16Z</time>
      </trkpt>
      <trkpt lat="4.5459550" lon="-74.2586470">
        <ele>2544.8</ele>
        <time>2018-08-11T17:21:17Z</time>
      </trkpt>
      <trkpt lat="4.5459030" lon="-74.2586380">
        <ele>2545.0</ele>
        <time>2018-08-11T17:21:18Z</time>
      </trkpt>
      <trkpt lat="4.5458530" lon="-74.2586280">
        <ele>2545.1</ele>
        <time>2018-08-11T17:21:19Z</time>
      </trkpt>
      <trkpt lat="4.5458030" lon="-74.2586220">
        <ele>2545.2</ele>
        <time>2018-08-11T17:21:20Z</time>
      </trkpt>
      <trkpt lat="4.5457530" lon="-74.2586130">
        <ele>2545.3</ele>
        <time>2018-08-11T17:21:21Z</time>
      </trkpt>
      <trkpt lat="4.5457020" lon="-74.2586050">
        <ele>2545.4</ele>
        <time>2018-08-11T17:21:22Z</time>
      </trkpt>
      <trkpt lat="4.5456520" lon="-74.2585930">
        <ele>2545.5</ele>
        <time>2018-08-11T17:21:23Z</time>
      </trkpt>
      <trkpt lat="4.5455980" lon="-74.2585800">
        <ele>2545.5</ele>
        <time>2018-08-11T17:21:24Z</time>
      </trkpt>
      <trkpt lat="4.5455430" lon="-74.2585700">
        <ele>2545.6</ele>
        <time>2018-08-11T17:21:25Z</time>
      </trkpt>
      <trkpt lat="4.5454880" lon="-74.2585600">
        <ele>2545.6</ele>
        <time>2018-08-11T17:21:26Z</time>
      </trkpt>
      <trkpt lat="4.5454320" lon="-74.2585500">
        <ele>2545.7</ele>
        <time>2018-08-11T17:21:27Z</time>
      </trkpt>
      <trkpt lat="4.5453750" lon="-74.2585400">
        <ele>2545.8</ele>
        <time>2018-08-11T17:21:28Z</time>
      </trkpt>
      <trkpt lat="4.5453200" lon="-74.2585320">
        <ele>2545.9</ele>
        <time>2018-08-11T17:21:29Z</time>
      </trkpt>
      <trkpt lat="4.5452650" lon="-74.2585230">
        <ele>2545.9</ele>
        <time>2018-08-11T17:21:30Z</time>
      </trkpt>
      <trkpt lat="4.5452080" lon="-74.2585120">
        <ele>2546.0</ele>
        <time>2018-08-11T17:21:31Z</time>
      </trkpt>
      <trkpt lat="4.5451520" lon="-74.2585020">
        <ele>2546.0</ele>
        <time>2018-08-11T17:21:32Z</time>
      </trkpt>
      <trkpt lat="4.5450930" lon="-74.2584920">
        <ele>2547.4</ele>
        <time>2018-08-11T17:21:33Z</time>
      </trkpt>
      <trkpt lat="4.5450330" lon="-74.2584820">
        <ele>2548.8</ele>
        <time>2018-08-11T17:21:34Z</time>
      </trkpt>
      <trkpt lat="4.5449750" lon="-74.2584720">
        <ele>2550.1</ele>
        <time>2018-08-11T17:21:35Z</time>
      </trkpt>
      <trkpt lat="4.5449150" lon="-74.2584620">
        <ele>2551.4</ele>
        <time>2018-08-11T17:21:36Z</time>
      </trkpt>
      <trkpt lat="4.5448550" lon="-74.2584530">
        <ele>2552.7</ele>
        <time>2018-08-11T17:21:37Z</time>
      </trkpt>
      <trkpt lat="4.5447950" lon="-74.2584450">
        <ele>2553.8</ele>
        <time>2018-08-11T17:21:38Z</time>
      </trkpt>
      <trkpt lat="4.5447330" lon="-74.2584330">
        <ele>2555.0</ele>
        <time>2018-08-11T17:21:39Z</time>
      </trkpt>
      <trkpt lat="4.5446730" lon="-74.2584220">
        <ele>2556.1</ele>
        <time>2018-08-11T17:21:40Z</time>
      </trkpt>
      <trkpt lat="4.5446130" lon="-74.2584100">
        <ele>2557.0</ele>
        <time>2018-08-11T17:21:41Z</time>
      </trkpt>
      <trkpt lat="4.5445530" lon="-74.2583980">
        <ele>2556.9</ele>
        <time>2018-08-11T17:21:42Z</time>
      </trkpt>
      <trkpt lat="4.5444950" lon="-74.2583850">
        <ele>2556.8</ele>
        <time>2018-08-11T17:21:43Z</time>
      </trkpt>
      <trkpt lat="4.5444350" lon="-74.2583720">
        <ele>2556.7</ele>
        <time>2018-08-11T17:21:44Z</time>
      </trkpt>
      <trkpt lat="4.5443770" lon="-74.2583580">
        <ele>2556.7</ele>
        <time>2018-08-11T17:21:45Z</time>
      </trkpt>
      <trkpt lat="4.5443180" lon="-74.2583470">
        <ele>2556.7</ele>
        <time>2018-08-11T17:21:46Z</time>
      </trkpt>
      <trkpt lat="4.5442600" lon="-74.2583400">
        <ele>2556.7</ele>
        <time>2018-08-11T17:21:47Z</time>
      </trkpt>
      <trkpt lat="4.5442050" lon="-74.2583300">
        <ele>2556.7</ele>
        <time>2018-08-11T17:21:48Z</time>
      </trkpt>
      <trkpt lat="4.5441430" lon="-74.2583200">
        <ele>2556.6</ele>
        <time>2018-08-11T17:21:49Z</time>
      </trkpt>
      <trkpt lat="4.5440830" lon="-74.2583080">
        <ele>2556.6</ele>
        <time>2018-08-11T17:21:50Z</time>
      </trkpt>
      <trkpt lat="4.5440220" lon="-74.2582980">
        <ele>2556.6</ele>
        <time>2018-08-11T17:21:51Z</time>
      </trkpt>
      <trkpt lat="4.5439630" lon="-74.2582880">
        <ele>2556.7</ele>
        <time>2018-08-11T17:21:52Z</time>
      </trkpt>
      <trkpt lat="4.5439030" lon="-74.2582770">
        <ele>2556.8</ele>
        <time>2018-08-11T17:21:53Z</time>
      </trkpt>
      <trkpt lat="4.5438430" lon="-74.2582650">
        <ele>2556.8</ele>
        <time>2018-08-11T17:21:54Z</time>
      </trkpt>
      <trkpt lat="4.5437830" lon="-74.2582570">
        <ele>2556.9</ele>
        <time>2018-08-11T17:21:55Z</time>
      </trkpt>
      <trkpt lat="4.5437250" lon="-74.2582470">
        <ele>2557.0</ele>
        <time>2018-08-11T17:21:56Z</time>
      </trkpt>
      <trkpt lat="4.5436650" lon="-74.2582380">
        <ele>2557.1</ele>
        <time>2018-08-11T17:21:57Z</time>
      </trkpt>
      <trkpt lat="4.5436080" lon="-74.2582280">
        <ele>2557.2</ele>
        <time>2018-08-11T17:21:58Z</time>
      </trkpt>
      <trkpt lat="4.5435500" lon="-74.2582130">
        <ele>2557.4</ele>
        <time>2018-08-11T17:21:59Z</time>
      </trkpt>
      <trkpt lat="4.5434950" lon="-74.2581980">
        <ele>2557.5</ele>
        <time>2018-08-11T17:22:00Z</time>
      </trkpt>
      <trkpt lat="4.5434420" lon="-74.2581850">
        <ele>2557.6</ele>
        <time>2018-08-11T17:22:01Z</time>
      </trkpt>
      <trkpt lat="4.5433870" lon="-74.2581730">
        <ele>2557.8</ele>
        <time>2018-08-11T17:22:02Z</time>
      </trkpt>
      <trkpt lat="4.5433350" lon="-74.2581620">
        <ele>2558.0</ele>
        <time>2018-08-11T17:22:03Z</time>
      </trkpt>
      <trkpt lat="4.5432850" lon="-74.2581500">
        <ele>2558.1</ele>
        <time>2018-08-11T17:22:04Z</time>
      </trkpt>
      <trkpt lat="4.5432370" lon="-74.2581380">
        <ele>2558.3</ele>
        <time>2018-08-11T17:22:05Z</time>
      </trkpt>
      <trkpt lat="4.5431900" lon="-74.2581270">
        <ele>2558.5</ele>
        <time>2018-08-11T17:22:06Z</time>
      </trkpt>
      <trkpt lat="4.5431450" lon="-74.2581150">
        <ele>2558.6</ele>
        <time>2018-08-11T17:22:07Z</time>
      </trkpt>
      <trkpt lat="4.5431020" lon="-74.2581100">
        <ele>2558.7</ele>
        <time>2018-08-11T17:22:08Z</time>
      </trkpt>
      <trkpt lat="4.5430570" lon="-74.2581020">
        <ele>2558.9</ele>
        <time>2018-08-11T17:22:09Z</time>
      </trkpt>
      <trkpt lat="4.5430100" lon="-74.2580920">
        <ele>2559.0</ele>
        <time>2018-08-11T17:22:10Z</time>
      </trkpt>
      <trkpt lat="4.5429650" lon="-74.2580820">
        <ele>2559.1</ele>
        <time>2018-08-11T17:22:11Z</time>
      </trkpt>
      <trkpt lat="4.5429200" lon="-74.2580750">
        <ele>2559.3</ele>
        <time>2018-08-11T17:22:12Z</time>
      </trkpt>
      <trkpt lat="4.5428750" lon="-74.2580630">
        <ele>2559.5</ele>
        <time>2018-08-11T17:22:13Z</time>
      </trkpt>
      <trkpt lat="4.5428280" lon="-74.2580520">
        <ele>2559.6</ele>
        <time>2018-08-11T17:22:14Z</time>
      </trkpt>
      <trkpt lat="4.5427820" lon="-74.2580400">
        <ele>2559.8</ele>
        <time>2018-08-11T17:22:15Z</time>
      </trkpt>
      <trkpt lat="4.5427350" lon="-74.2580350">
        <ele>2559.9</ele>
        <time>2018-08-11T17:22:16Z</time>
      </trkpt>
      <trkpt lat="4.5426880" lon="-74.2580280">
        <ele>2560.1</ele>
        <time>2018-08-11T17:22:17Z</time>
      </trkpt>
      <trkpt lat="4.5426430" lon="-74.2580370">
        <ele>2560.2</ele>
        <time>2018-08-11T17:22:18Z</time>
      </trkpt>
      <trkpt lat="4.5425950" lon="-74.2580330">
        <ele>2560.4</ele>
        <time>2018-08-11T17:22:19Z</time>
      </trkpt>
      <trkpt lat="4.5425450" lon="-74.2580300">
        <ele>2560.6</ele>
        <time>2018-08-11T17:22:20Z</time>
      </trkpt>
      <trkpt lat="4.5424930" lon="-74.2580220">
        <ele>2560.8</ele>
        <time>2018-08-11T17:22:21Z</time>
      </trkpt>
      <trkpt lat="4.5424430" lon="-74.2580200">
        <ele>2560.9</ele>
        <time>2018-08-11T17:22:22Z</time>
      </trkpt>
      <trkpt lat="4.5423920" lon="-74.2580180">
        <ele>2561.1</ele>
        <time>2018-08-11T17:22:23Z</time>
      </trkpt>
      <trkpt lat="4.5423350" lon="-74.2580230">
        <ele>2561.2</ele>
        <time>2018-08-11T17:22:24Z</time>
      </trkpt>
      <trkpt lat="4.5422830" lon="-74.2580280">
        <ele>2561.3</ele>
        <time>2018-08-11T17:22:25Z</time>
      </trkpt>
      <trkpt lat="4.5422330" lon="-74.2580320">
        <ele>2561.4</ele>
        <time>2018-08-11T17:22:26Z</time>
      </trkpt>
      <trkpt lat="4.5421930" lon="-74.2580370">
        <ele>2561.5</ele>
        <time>2018-08-11T17:22:27Z</time>
      </trkpt>
      <trkpt lat="4.5421480" lon="-74.2580420">
        <ele>2561.7</ele>
        <time>2018-08-11T17:22:28Z</time>
      </trkpt>
      <trkpt lat="4.5421080" lon="-74.2580570">
        <ele>2561.9</ele>
        <time>2018-08-11T17:22:29Z</time>
      </trkpt>
      <trkpt lat="4.5420680" lon="-74.2580750">
        <ele>2562.0</ele>
        <time>2018-08-11T17:22:30Z</time>
      </trkpt>
      <trkpt lat="4.5420250" lon="-74.2580920">
        <ele>2562.2</ele>
        <time>2018-08-11T17:22:31Z</time>
      </trkpt>
      <trkpt lat="4.5419830" lon="-74.2581150">
        <ele>2562.4</ele>
        <time>2018-08-11T17:22:32Z</time>
      </trkpt>
      <trkpt lat="4.5419430" lon="-74.2581400">
        <ele>2562.5</ele>
        <time>2018-08-11T17:22:33Z</time>
      </trkpt>
      <trkpt lat="4.5419020" lon="-74.2581650">
        <ele>2562.7</ele>
        <time>2018-08-11T17:22:34Z</time>
      </trkpt>
      <trkpt lat="4.5418600" lon="-74.2581930">
        <ele>2562.9</ele>
        <time>2018-08-11T17:22:35Z</time>
      </trkpt>
      <trkpt lat="4.5418250" lon="-74.2582250">
        <ele>2563.0</ele>
        <time>2018-08-11T17:22:36Z</time>
      </trkpt>
      <trkpt lat="4.5417900" lon="-74.2582530">
        <ele>2563.2</ele>
        <time>2018-08-11T17:22:37Z</time>
      </trkpt>
      <trkpt lat="4.5417530" lon="-74.2582830">
        <ele>2563.3</ele>
        <time>2018-08-11T17:22:38Z</time>
      </trkpt>
      <trkpt lat="4.5417230" lon="-74.2583170">
        <ele>2563.4</ele>
        <time>2018-08-11T17:22:39Z</time>
      </trkpt>
      <trkpt lat="4.5416930" lon="-74.2583480">
        <ele>2563.6</ele>
        <time>2018-08-11T17:22:40Z</time>
      </trkpt>
      <trkpt lat="4.5416680" lon="-74.2583830">
        <ele>2563.7</ele>
        <time>2018-08-11T17:22:41Z</time>
      </trkpt>
      <trkpt lat="4.5416420" lon="-74.2584200">
        <ele>2563.8</ele>
        <time>2018-08-11T17:22:42Z</time>
      </trkpt>
      <trkpt lat="4.5416180" lon="-74.2584550">
        <ele>2563.9</ele>
        <time>2018-08-11T17:22:43Z</time>
      </trkpt>
      <trkpt lat="4.5415950" lon="-74.2584920">
        <ele>2564.1</ele>
        <time>2018-08-11T17:22:44Z</time>
      </trkpt>
      <trkpt lat="4.5415730" lon="-74.2585280">
        <ele>2564.2</ele>
        <time>2018-08-11T17:22:45Z</time>
      </trkpt>
      <trkpt lat="4.5415570" lon="-74.2585700">
        <ele>2564.3</ele>
        <time>2018-08-11T17:22:46Z</time>
      </trkpt>
      <trkpt lat="4.5415420" lon="-74.2586150">
        <ele>2564.4</ele>
        <time>2018-08-11T17:22:47Z</time>
      </trkpt>
      <trkpt lat="4.5415300" lon="-74.2586620">
        <ele>2564.6</ele>
        <time>2018-08-11T17:22:48Z</time>
      </trkpt>
      <trkpt lat="4.5415120" lon="-74.2587150">
        <ele>2564.7</ele>
        <time>2018-08-11T17:22:49Z</time>
      </trkpt>
      <trkpt lat="4.5414980" lon="-74.2587650">
        <ele>2564.9</ele>
        <time>2018-08-11T17:22:50Z</time>
      </trkpt>
      <trkpt lat="4.5414830" lon="-74.2588120">
        <ele>2565.0</ele>
        <time>2018-08-11T17:22:51Z</time>
      </trkpt>
      <trkpt lat="4.5414770" lon="-74.2588600">
        <ele>2565.1</ele>
        <time>2018-08-11T17:22:52Z</time>
      </trkpt>
      <trkpt lat="4.5414700" lon="-74.2589100">
        <ele>2565.3</ele>
        <time>2018-08-11T17:22:53Z</time>
      </trkpt>
      <trkpt lat="4.5414650" lon="-74.2589550">
        <ele>2565.4</ele>
        <time>2018-08-11T17:22:54Z</time>
      </trkpt>
      <trkpt lat="4.5414620" lon="-74.2590000">
        <ele>2565.6</ele>
        <time>2018-08-11T17:22:55Z</time>
      </trkpt>
      <trkpt lat="4.5414580" lon="-74.2590430">
        <ele>2565.7</ele>
        <time>2018-08-11T17:22:56Z</time>
      </trkpt>
      <trkpt lat="4.5414550" lon="-74.2590920">
        <ele>2565.9</ele>
        <time>2018-08-11T17:22:57Z</time>
      </trkpt>
      <trkpt lat="4.5414520" lon="-74.2591370">
        <ele>2566.0</ele>
        <time>2018-08-11T17:22:58Z</time>
      </trkpt>
      <trkpt lat="4.5414500" lon="-74.2591800">
        <ele>2566.2</ele>
        <time>2018-08-11T17:22:59Z</time>
      </trkpt>
      <trkpt lat="4.5414500" lon="-74.2592180">
        <ele>2566.4</ele>
        <time>2018-08-11T17:23:00Z</time>
      </trkpt>
      <trkpt lat="4.5414500" lon="-74.2592530">
        <ele>2566.5</ele>
        <time>2018-08-11T17:23:01Z</time>
      </trkpt>
      <trkpt lat="4.5414530" lon="-74.2592900">
        <ele>2566.7</ele>
        <time>2018-08-11T17:23:02Z</time>
      </trkpt>
      <trkpt lat="4.5414600" lon="-74.2593300">
        <ele>2566.8</ele>
        <time>2018-08-11T17:23:03Z</time>
      </trkpt>
      <trkpt lat="4.5414650" lon="-74.2593720">
        <ele>2567.0</ele>
        <time>2018-08-11T17:23:04Z</time>
      </trkpt>
      <trkpt lat="4.5414700" lon="-74.2594150">
        <ele>2567.1</ele>
        <time>2018-08-11T17:23:05Z</time>
      </trkpt>
      <trkpt lat="4.5414750" lon="-74.2594580">
        <ele>2567.1</ele>
        <time>2018-08-11T17:23:06Z</time>
      </trkpt>
      <trkpt lat="4.5414830" lon="-74.2595020">
        <ele>2567.2</ele>
        <time>2018-08-11T17:23:07Z</time>
      </trkpt>
      <trkpt lat="4.5414950" lon="-74.2595450">
        <ele>2567.3</ele>
        <time>2018-08-11T17:23:08Z</time>
      </trkpt>
      <trkpt lat="4.5415100" lon="-74.2595870">
        <ele>2567.4</ele>
        <time>2018-08-11T17:23:09Z</time>
      </trkpt>
      <trkpt lat="4.5415220" lon="-74.2596280">
        <ele>2567.5</ele>
        <time>2018-08-11T17:23:10Z</time>
      </trkpt>
      <trkpt lat="4.5415320" lon="-74.2596720">
        <ele>2567.6</ele>
        <time>2018-08-11T17:23:11Z</time>
      </trkpt>
      <trkpt lat="4.5415380" lon="-74.2597150">
        <ele>2567.7</ele>
        <time>2018-08-11T17:23:12Z</time>
      </trkpt>
      <trkpt lat="4.5415430" lon="-74.2597570">
        <ele>2567.8</ele>
        <time>2018-08-11T17:23:13Z</time>
      </trkpt>
      <trkpt lat="4.5415450" lon="-74.2598000">
        <ele>2568.0</ele>
        <time>2018-08-11T17:23:14Z</time>
      </trkpt>
      <trkpt lat="4.5415450" lon="-74.2598400">
        <ele>2568.1</ele>
        <time>2018-08-11T17:23:15Z</time>
      </trkpt>
      <trkpt lat="4.5415450" lon="-74.2598780">
        <ele>2568.2</ele>
        <time>2018-08-11T17:23:16Z</time>
      </trkpt>
      <trkpt lat="4.5415500" lon="-74.2599180">
        <ele>2568.3</ele>
        <time>2018-08-11T17:23:17Z</time>
      </trkpt>
      <trkpt lat="4.5415550" lon="-74.2599600">
        <ele>2568.4</ele>
        <time>2018-08-11T17:23:18Z</time>
      </trkpt>
      <trkpt lat="4.5415600" lon="-74.2600030">
        <ele>2568.6</ele>
        <time>2018-08-11T17:23:19Z</time>
      </trkpt>
      <trkpt lat="4.5415570" lon="-74.2600480">
        <ele>2568.7</ele>
        <time>2018-08-11T17:23:20Z</time>
      </trkpt>
      <trkpt lat="4.5415520" lon="-74.2600850">
        <ele>2568.8</ele>
        <time>2018-08-11T17:23:21Z</time>
      </trkpt>
      <trkpt lat="4.5415450" lon="-74.2601230">
        <ele>2568.9</ele>
        <time>2018-08-11T17:23:22Z</time>
      </trkpt>
      <trkpt lat="4.5415300" lon="-74.2601580">
        <ele>2569.0</ele>
        <time>2018-08-11T17:23:23Z</time>
      </trkpt>
      <trkpt lat="4.5415170" lon="-74.2601930">
        <ele>2569.0</ele>
        <time>2018-08-11T17:23:24Z</time>
      </trkpt>
      <trkpt lat="4.5415000" lon="-74.2602300">
        <ele>2569.0</ele>
        <time>2018-08-11T17:23:25Z</time>
      </trkpt>
      <trkpt lat="4.5414830" lon="-74.2602650">
        <ele>2569.0</ele>
        <time>2018-08-11T17:23:26Z</time>
      </trkpt>
      <trkpt lat="4.5414670" lon="-74.2603000">
        <ele>2569.0</ele>
        <time>2018-08-11T17:23:27Z</time>
      </trkpt>
      <trkpt lat="4.5414500" lon="-74.2603370">
        <ele>2569.0</ele>
        <time>2018-08-11T17:23:28Z</time>
      </trkpt>
      <trkpt lat="4.5414300" lon="-74.2603730">
        <ele>2569.0</ele>
        <time>2018-08-11T17:23:29Z</time>
      </trkpt>
      <trkpt lat="4.5414080" lon="-74.2604100">
        <ele>2569.0</ele>
        <time>2018-08-11T17:23:30Z</time>
      </trkpt>
      <trkpt lat="4.5413870" lon="-74.2604480">
        <ele>2569.0</ele>
        <time>2018-08-11T17:23:31Z</time>
      </trkpt>
      <trkpt lat="4.5413650" lon="-74.2604870">
        <ele>2569.0</ele>
        <time>2018-08-11T17:23:32Z</time>
      </trkpt>
      <trkpt lat="4.5413430" lon="-74.2605270">
        <ele>2569.0</ele>
        <time>2018-08-11T17:23:33Z</time>
      </trkpt>
      <trkpt lat="4.5413220" lon="-74.2605650">
        <ele>2569.0</ele>
        <time>2018-08-11T17:23:34Z</time>
      </trkpt>
      <trkpt lat="4.5412980" lon="-74.2606050">
        <ele>2569.0</ele>
        <time>2018-08-11T17:23:35Z</time>
      </trkpt>
      <trkpt lat="4.5412780" lon="-74.2606430">
        <ele>2569.0</ele>
        <time>2018-08-11T17:23:36Z</time>
      </trkpt>
      <trkpt lat="4.5412600" lon="-74.2606800">
        <ele>2569.0</ele>
        <time>2018-08-11T17:23:37Z</time>
      </trkpt>
      <trkpt lat="4.5412420" lon="-74.2607180">
        <ele>2569.0</ele>
        <time>2018-08-11T17:23:38Z</time>
      </trkpt>
      <trkpt lat="4.5412200" lon="-74.2607530">
        <ele>2569.0</ele>
        <time>2018-08-11T17:23:39Z</time>
      </trkpt>
      <trkpt lat="4.5412000" lon="-74.2607870">
        <ele>2569.0</ele>
        <time>2018-08-11T17:23:40Z</time>
      </trkpt>
      <trkpt lat="4.5411820" lon="-74.2608230">
        <ele>2569.0</ele>
        <time>2018-08-11T17:23:41Z</time>
      </trkpt>
      <trkpt lat="4.5411700" lon="-74.2608650">
        <ele>2569.1</ele>
        <time>2018-08-11T17:23:42Z</time>
      </trkpt>
      <trkpt lat="4.5411600" lon="-74.2609030">
        <ele>2569.2</ele>
        <time>2018-08-11T17:23:43Z</time>
      </trkpt>
      <trkpt lat="4.5411500" lon="-74.2609400">
        <ele>2569.2</ele>
        <time>2018-08-11T17:23:44Z</time>
      </trkpt>
      <trkpt lat="4.5411400" lon="-74.2609780">
        <ele>2569.3</ele>
        <time>2018-08-11T17:23:45Z</time>
      </trkpt>
      <trkpt lat="4.5411300" lon="-74.2610200">
        <ele>2569.4</ele>
        <time>2018-08-11T17:23:46Z</time>
      </trkpt>
      <trkpt lat="4.5411200" lon="-74.2610650">
        <ele>2569.6</ele>
        <time>2018-08-11T17:23:47Z</time>
      </trkpt>
      <trkpt lat="4.5411100" lon="-74.2611100">
        <ele>2569.7</ele>
        <time>2018-08-11T17:23:48Z</time>
      </trkpt>
      <trkpt lat="4.5410970" lon="-74.2611520">
        <ele>2569.8</ele>
        <time>2018-08-11T17:23:49Z</time>
      </trkpt>
      <trkpt lat="4.5410850" lon="-74.2611920">
        <ele>2569.9</ele>
        <time>2018-08-11T17:23:50Z</time>
      </trkpt>
      <trkpt lat="4.5410650" lon="-74.2612350">
        <ele>2570.1</ele>
        <time>2018-08-11T17:23:51Z</time>
      </trkpt>
      <trkpt lat="4.5410430" lon="-74.2612720">
        <ele>2570.2</ele>
        <time>2018-08-11T17:23:52Z</time>
      </trkpt>
      <trkpt lat="4.5410200" lon="-74.2613120">
        <ele>2570.3</ele>
        <time>2018-08-11T17:23:53Z</time>
      </trkpt>
      <trkpt lat="4.5409970" lon="-74.2613470">
        <ele>2570.5</ele>
        <time>2018-08-11T17:23:54Z</time>
      </trkpt>
      <trkpt lat="4.5409770" lon="-74.2613770">
        <ele>2570.6</ele>
        <time>2018-08-11T17:23:55Z</time>
      </trkpt>
      <trkpt lat="4.5409520" lon="-74.2614070">
        <ele>2570.7</ele>
        <time>2018-08-11T17:23:56Z</time>
      </trkpt>
      <trkpt lat="4.5409250" lon="-74.2614380">
        <ele>2570.8</ele>
        <time>2018-08-11T17:23:57Z</time>
      </trkpt>
      <trkpt lat="4.5409020" lon="-74.2614680">
        <ele>2570.9</ele>
        <time>2018-08-11T17:23:58Z</time>
      </trkpt>
      <trkpt lat="4.5408750" lon="-74.2615000">
        <ele>2571.0</ele>
        <time>2018-08-11T17:23:59Z</time>
      </trkpt>
      <trkpt lat="4.5408450" lon="-74.2615330">
        <ele>2571.1</ele>
        <time>2018-08-11T17:24:00Z</time>
      </trkpt>
      <trkpt lat="4.5408170" lon="-74.2615620">
        <ele>2571.2</ele>
        <time>2018-08-11T17:24:01Z</time>
      </trkpt>
      <trkpt lat="4.5407880" lon="-74.2615920">
        <ele>2571.3</ele>
        <time>2018-08-11T17:24:02Z</time>
      </trkpt>
      <trkpt lat="4.5407620" lon="-74.2616220">
        <ele>2571.4</ele>
        <time>2018-08-11T17:24:03Z</time>
      </trkpt>
      <trkpt lat="4.5407370" lon="-74.2616530">
        <ele>2571.4</ele>
        <time>2018-08-11T17:24:04Z</time>
      </trkpt>
      <trkpt lat="4.5407120" lon="-74.2616850">
        <ele>2571.5</ele>
        <time>2018-08-11T17:24:05Z</time>
      </trkpt>
      <trkpt lat="4.5406830" lon="-74.2617120">
        <ele>2571.5</ele>
        <time>2018-08-11T17:24:06Z</time>
      </trkpt>
      <trkpt lat="4.5406520" lon="-74.2617350">
        <ele>2571.6</ele>
        <time>2018-08-11T17:24:07Z</time>
      </trkpt>
      <trkpt lat="4.5406220" lon="-74.2617620">
        <ele>2571.6</ele>
        <time>2018-08-11T17:24:08Z</time>
      </trkpt>
      <trkpt lat="4.5405880" lon="-74.2617880">
        <ele>2571.6</ele>
        <time>2018-08-11T17:24:09Z</time>
      </trkpt>
      <trkpt lat="4.5405570" lon="-74.2618100">
        <ele>2571.5</ele>
        <time>2018-08-11T17:24:10Z</time>
      </trkpt>
      <trkpt lat="4.5405300" lon="-74.2618350">
        <ele>2571.5</ele>
        <time>2018-08-11T17:24:11Z</time>
      </trkpt>
      <trkpt lat="4.5405020" lon="-74.2618620">
        <ele>2571.4</ele>
        <time>2018-08-11T17:24:12Z</time>
      </trkpt>
      <trkpt lat="4.5404720" lon="-74.2618870">
        <ele>2571.3</ele>
        <time>2018-08-11T17:24:13Z</time>
      </trkpt>
      <trkpt lat="4.5404470" lon="-74.2619120">
        <ele>2571.2</ele>
        <time>2018-08-11T17:24:14Z</time>
      </trkpt>
      <trkpt lat="4.5404220" lon="-74.2619330">
        <ele>2571.1</ele>
        <time>2018-08-11T17:24:15Z</time>
      </trkpt>
      <trkpt lat="4.5403970" lon="-74.2619600">
        <ele>2571.0</ele>
        <time>2018-08-11T17:24:17Z</time>
      </trkpt>
      <trkpt lat="4.5404270" lon="-74.2620530">
        <ele>2571.0</ele>
        <time>2018-08-11T17:24:57Z</time>
      </trkpt>
      <trkpt lat="4.5404020" lon="-74.2621020">
        <ele>2571.1</ele>
        <time>2018-08-11T17:24:59Z</time>
      </trkpt>
      <trkpt lat="4.5403900" lon="-74.2621330">
        <ele>2571.1</ele>
        <time>2018-08-11T17:25:00Z</time>
      </trkpt>
      <trkpt lat="4.5403780" lon="-74.2621650">
        <ele>2571.1</ele>
        <time>2018-08-11T17:25:01Z</time>
      </trkpt>
      <trkpt lat="4.5403670" lon="-74.2622020">
        <ele>2571.1</ele>
        <time>2018-08-11T17:25:02Z</time>
      </trkpt>
      <trkpt lat="4.5403530" lon="-74.2622450">
        <ele>2571.1</ele>
        <time>2018-08-11T17:25:03Z</time>
      </trkpt>
      <trkpt lat="4.5403420" lon="-74.2622920">
        <ele>2571.1</ele>
        <time>2018-08-11T17:25:04Z</time>
      </trkpt>
      <trkpt lat="4.5403280" lon="-74.2623380">
        <ele>2571.1</ele>
        <time>2018-08-11T17:25:05Z</time>
      </trkpt>
      <trkpt lat="4.5403130" lon="-74.2623850">
        <ele>2571.1</ele>
        <time>2018-08-11T17:25:06Z</time>
      </trkpt>
      <trkpt lat="4.5403020" lon="-74.2624320">
        <ele>2571.0</ele>
        <time>2018-08-11T17:25:07Z</time>
      </trkpt>
      <trkpt lat="4.5402920" lon="-74.2624800">
        <ele>2570.9</ele>
        <time>2018-08-11T17:25:08Z</time>
      </trkpt>
      <trkpt lat="4.5402780" lon="-74.2625280">
        <ele>2570.8</ele>
        <time>2018-08-11T17:25:09Z</time>
      </trkpt>
      <trkpt lat="4.5402650" lon="-74.2625770">
        <ele>2570.7</ele>
        <time>2018-08-11T17:25:10Z</time>
      </trkpt>
      <trkpt lat="4.5402520" lon="-74.2626270">
        <ele>2570.5</ele>
        <time>2018-08-11T17:25:11Z</time>
      </trkpt>
      <trkpt lat="4.5402370" lon="-74.2626770">
        <ele>2570.4</ele>
        <time>2018-08-11T17:25:12Z</time>
      </trkpt>
      <trkpt lat="4.5402220" lon="-74.2627280">
        <ele>2570.3</ele>
        <time>2018-08-11T17:25:13Z</time>
      </trkpt>
      <trkpt lat="4.5402080" lon="-74.2627820">
        <ele>2570.1</ele>
        <time>2018-08-11T17:25:14Z</time>
      </trkpt>
      <trkpt lat="4.5401920" lon="-74.2628350">
        <ele>2570.0</ele>
        <time>2018-08-11T17:25:15Z</time>
      </trkpt>
      <trkpt lat="4.5401720" lon="-74.2628880">
        <ele>2569.8</ele>
        <time>2018-08-11T17:25:16Z</time>
      </trkpt>
      <trkpt lat="4.5401550" lon="-74.2629430">
        <ele>2569.7</ele>
        <time>2018-08-11T17:25:17Z</time>
      </trkpt>
      <trkpt lat="4.5401420" lon="-74.2630030">
        <ele>2569.5</ele>
        <time>2018-08-11T17:25:18Z</time>
      </trkpt>
      <trkpt lat="4.5401280" lon="-74.2630680">
        <ele>2569.4</ele>
        <time>2018-08-11T17:25:19Z</time>
      </trkpt>
      <trkpt lat="4.5401180" lon="-74.2631350">
        <ele>2569.2</ele>
        <time>2018-08-11T17:25:20Z</time>
      </trkpt>
      <trkpt lat="4.5401080" lon="-74.2632030">
        <ele>2569.0</ele>
        <time>2018-08-11T17:25:21Z</time>
      </trkpt>
      <trkpt lat="4.5401000" lon="-74.2632700">
        <ele>2568.8</ele>
        <time>2018-08-11T17:25:22Z</time>
      </trkpt>
      <trkpt lat="4.5400920" lon="-74.2633350">
        <ele>2568.6</ele>
        <time>2018-08-11T17:25:23Z</time>
      </trkpt>
      <trkpt lat="4.5400870" lon="-74.2633980">
        <ele>2568.4</ele>
        <time>2018-08-11T17:25:24Z</time>
      </trkpt>
      <trkpt lat="4.5400820" lon="-74.2634650">
        <ele>2568.2</ele>
        <time>2018-08-11T17:25:25Z</time>
      </trkpt>
      <trkpt lat="4.5400800" lon="-74.2635320">
        <ele>2568.0</ele>
        <time>2018-08-11T17:25:26Z</time>
      </trkpt>
      <trkpt lat="4.5400820" lon="-74.2635970">
        <ele>2567.7</ele>
        <time>2018-08-11T17:25:27Z</time>
      </trkpt>
      <trkpt lat="4.5400830" lon="-74.2636550">
        <ele>2567.5</ele>
        <time>2018-08-11T17:25:28Z</time>
      </trkpt>
      <trkpt lat="4.5400870" lon="-74.2637130">
        <ele>2567.4</ele>
        <time>2018-08-11T17:25:29Z</time>
      </trkpt>
      <trkpt lat="4.5400880" lon="-74.2637680">
        <ele>2567.2</ele>
        <time>2018-08-11T17:25:30Z</time>
      </trkpt>
      <trkpt lat="4.5400980" lon="-74.2638150">
        <ele>2567.0</ele>
        <time>2018-08-11T17:25:31Z</time>
      </trkpt>
      <trkpt lat="4.5401030" lon="-74.2638580">
        <ele>2567.0</ele>
        <time>2018-08-11T17:25:32Z</time>
      </trkpt>
      <trkpt lat="4.5401070" lon="-74.2639020">
        <ele>2567.0</ele>
        <time>2018-08-11T17:25:33Z</time>
      </trkpt>
      <trkpt lat="4.5401100" lon="-74.2639380">
        <ele>2567.0</ele>
        <time>2018-08-11T17:25:34Z</time>
      </trkpt>
      <trkpt lat="4.5401050" lon="-74.2639680">
        <ele>2567.0</ele>
        <time>2018-08-11T17:25:35Z</time>
      </trkpt>
      <trkpt lat="4.5400900" lon="-74.2639950">
        <ele>2567.0</ele>
        <time>2018-08-11T17:25:36Z</time>
      </trkpt>
      <trkpt lat="4.5400670" lon="-74.2640120">
        <ele>2567.0</ele>
        <time>2018-08-11T17:25:37Z</time>
      </trkpt>
      <trkpt lat="4.5400380" lon="-74.2640150">
        <ele>2567.0</ele>
        <time>2018-08-11T17:25:38Z</time>
      </trkpt>
      <trkpt lat="4.5399880" lon="-74.2640070">
        <ele>2566.9</ele>
        <time>2018-08-11T17:25:40Z</time>
      </trkpt>
      <trkpt lat="4.5399580" lon="-74.2640030">
        <ele>2566.8</ele>
        <time>2018-08-11T17:25:41Z</time>
      </trkpt>
      <trkpt lat="4.5399270" lon="-74.2640000">
        <ele>2566.7</ele>
        <time>2018-08-11T17:25:42Z</time>
      </trkpt>
      <trkpt lat="4.5398950" lon="-74.2639930">
        <ele>2566.6</ele>
        <time>2018-08-11T17:25:43Z</time>
      </trkpt>
      <trkpt lat="4.5398630" lon="-74.2639880">
        <ele>2566.5</ele>
        <time>2018-08-11T17:25:44Z</time>
      </trkpt>
      <trkpt lat="4.5398330" lon="-74.2639870">
        <ele>2566.4</ele>
        <time>2018-08-11T17:25:45Z</time>
      </trkpt>
      <trkpt lat="4.5398030" lon="-74.2639880">
        <ele>2566.3</ele>
        <time>2018-08-11T17:25:46Z</time>
      </trkpt>
      <trkpt lat="4.5397750" lon="-74.2639900">
        <ele>2566.2</ele>
        <time>2018-08-11T17:25:47Z</time>
      </trkpt>
      <trkpt lat="4.5397230" lon="-74.2639970">
        <ele>2566.1</ele>
        <time>2018-08-11T17:25:49Z</time>
      </trkpt>
      <trkpt lat="4.5396720" lon="-74.2639980">
        <ele>2565.8</ele>
        <time>2018-08-11T17:25:51Z</time>
      </trkpt>
      <trkpt lat="4.5396200" lon="-74.2639930">
        <ele>2565.6</ele>
        <time>2018-08-11T17:25:53Z</time>
      </trkpt>
      <trkpt lat="4.5395730" lon="-74.2639870">
        <ele>2565.5</ele>
        <time>2018-08-11T17:25:55Z</time>
      </trkpt>
      <trkpt lat="4.5395280" lon="-74.2639720">
        <ele>2565.3</ele>
        <time>2018-08-11T17:25:57Z</time>
      </trkpt>
      <trkpt lat="4.5394850" lon="-74.2639650">
        <ele>2565.2</ele>
        <time>2018-08-11T17:25:58Z</time>
      </trkpt>
      <trkpt lat="4.5394500" lon="-74.2639670">
        <ele>2565.1</ele>
        <time>2018-08-11T17:25:59Z</time>
      </trkpt>
      <trkpt lat="4.5394200" lon="-74.2639730">
        <ele>2565.1</ele>
        <time>2018-08-11T17:26:00Z</time>
      </trkpt>
      <trkpt lat="4.5393730" lon="-74.2639820">
        <ele>2565.0</ele>
        <time>2018-08-11T17:26:02Z</time>
      </trkpt>
      <trkpt lat="4.5393380" lon="-74.2639950">
        <ele>2564.9</ele>
        <time>2018-08-11T17:26:04Z</time>
      </trkpt>
      <trkpt lat="4.5393150" lon="-74.2640320">
        <ele>2564.9</ele>
        <time>2018-08-11T17:26:06Z</time>
      </trkpt>
      <trkpt lat="4.5392630" lon="-74.2640580">
        <ele>2564.8</ele>
        <time>2018-08-11T17:26:08Z</time>
      </trkpt>
      <trkpt lat="4.5392370" lon="-74.2640680">
        <ele>2564.8</ele>
        <time>2018-08-11T17:26:09Z</time>
      </trkpt>
      <trkpt lat="4.5391880" lon="-74.2640750">
        <ele>2564.8</ele>
        <time>2018-08-11T17:26:11Z</time>
      </trkpt>
      <trkpt lat="4.5391600" lon="-74.2640820">
        <ele>2564.8</ele>
        <time>2018-08-11T17:26:12Z</time>
      </trkpt>
      <trkpt lat="4.5391300" lon="-74.2640870">
        <ele>2564.8</ele>
        <time>2018-08-11T17:26:13Z</time>
      </trkpt>
      <trkpt lat="4.5391020" lon="-74.2640920">
        <ele>2564.8</ele>
        <time>2018-08-11T17:26:14Z</time>
      </trkpt>
      <trkpt lat="4.5390750" lon="-74.2640980">
        <ele>2564.8</ele>
        <time>2018-08-11T17:26:15Z</time>
      </trkpt>
      <trkpt lat="4.5390270" lon="-74.2641150">
        <ele>2564.8</ele>
        <time>2018-08-11T17:26:17Z</time>
      </trkpt>
      <trkpt lat="4.5390000" lon="-74.2641200">
        <ele>2564.9</ele>
        <time>2018-08-11T17:26:18Z</time>
      </trkpt>
      <trkpt lat="4.5389700" lon="-74.2641230">
        <ele>2564.9</ele>
        <time>2018-08-11T17:26:19Z</time>
      </trkpt>
      <trkpt lat="4.5389150" lon="-74.2641330">
        <ele>2564.9</ele>
        <time>2018-08-11T17:26:21Z</time>
      </trkpt>
      <trkpt lat="4.5388870" lon="-74.2641380">
        <ele>2564.9</ele>
        <time>2018-08-11T17:26:22Z</time>
      </trkpt>
      <trkpt lat="4.5388580" lon="-74.2641400">
        <ele>2565.0</ele>
        <time>2018-08-11T17:26:23Z</time>
      </trkpt>
      <trkpt lat="4.5388030" lon="-74.2641470">
        <ele>2565.0</ele>
        <time>2018-08-11T17:26:25Z</time>
      </trkpt>
      <trkpt lat="4.5387470" lon="-74.2641450">
        <ele>2565.1</ele>
        <time>2018-08-11T17:26:27Z</time>
      </trkpt>
      <trkpt lat="4.5387150" lon="-74.2641400">
        <ele>2565.1</ele>
        <time>2018-08-11T17:26:28Z</time>
      </trkpt>
      <trkpt lat="4.5386750" lon="-74.2641430">
        <ele>2565.2</ele>
        <time>2018-08-11T17:26:29Z</time>
      </trkpt>
      <trkpt lat="4.5386400" lon="-74.2641450">
        <ele>2565.2</ele>
        <time>2018-08-11T17:26:30Z</time>
      </trkpt>
      <trkpt lat="4.5386100" lon="-74.2641430">
        <ele>2565.2</ele>
        <time>2018-08-11T17:26:31Z</time>
      </trkpt>
      <trkpt lat="4.5385580" lon="-74.2641480">
        <ele>2565.3</ele>
        <time>2018-08-11T17:26:33Z</time>
      </trkpt>
      <trkpt lat="4.5385300" lon="-74.2641500">
        <ele>2565.3</ele>
        <time>2018-08-11T17:26:34Z</time>
      </trkpt>
      <trkpt lat="4.5384870" lon="-74.2641730">
        <ele>2565.4</ele>
        <time>2018-08-11T17:26:36Z</time>
      </trkpt>
      <trkpt lat="4.5384580" lon="-74.2641770">
        <ele>2565.4</ele>
        <time>2018-08-11T17:26:37Z</time>
      </trkpt>
      <trkpt lat="4.5384300" lon="-74.2641780">
        <ele>2565.4</ele>
        <time>2018-08-11T17:26:38Z</time>
      </trkpt>
      <trkpt lat="4.5383750" lon="-74.2641730">
        <ele>2565.5</ele>
        <time>2018-08-11T17:26:40Z</time>
      </trkpt>
      <trkpt lat="4.5383200" lon="-74.2641700">
        <ele>2565.6</ele>
        <time>2018-08-11T17:26:42Z</time>
      </trkpt>
      <trkpt lat="4.5382900" lon="-74.2641680">
        <ele>2565.6</ele>
        <time>2018-08-11T17:26:43Z</time>
      </trkpt>
      <trkpt lat="4.5382350" lon="-74.2641730">
        <ele>2565.7</ele>
        <time>2018-08-11T17:26:45Z</time>
      </trkpt>
      <trkpt lat="4.5382030" lon="-74.2641770">
        <ele>2565.7</ele>
        <time>2018-08-11T17:26:46Z</time>
      </trkpt>
      <trkpt lat="4.5381720" lon="-74.2641830">
        <ele>2565.7</ele>
        <time>2018-08-11T17:26:47Z</time>
      </trkpt>
      <trkpt lat="4.5381420" lon="-74.2641850">
        <ele>2565.7</ele>
        <time>2018-08-11T17:26:48Z</time>
      </trkpt>
      <trkpt lat="4.5381130" lon="-74.2641850">
        <ele>2565.7</ele>
        <time>2018-08-11T17:26:49Z</time>
      </trkpt>
      <trkpt lat="4.5380830" lon="-74.2641900">
        <ele>2565.8</ele>
        <time>2018-08-11T17:26:50Z</time>
      </trkpt>
      <trkpt lat="4.5380550" lon="-74.2641970">
        <ele>2565.8</ele>
        <time>2018-08-11T17:26:51Z</time>
      </trkpt>
      <trkpt lat="4.5380280" lon="-74.2642080">
        <ele>2565.8</ele>
        <time>2018-08-11T17:26:52Z</time>
      </trkpt>
      <trkpt lat="4.5380000" lon="-74.2642170">
        <ele>2565.8</ele>
        <time>2018-08-11T17:26:53Z</time>
      </trkpt>
      <trkpt lat="4.5379700" lon="-74.2642220">
        <ele>2565.8</ele>
        <time>2018-08-11T17:26:54Z</time>
      </trkpt>
      <trkpt lat="4.5379420" lon="-74.2642270">
        <ele>2565.8</ele>
        <time>2018-08-11T17:26:55Z</time>
      </trkpt>
      <trkpt lat="4.5379120" lon="-74.2642300">
        <ele>2565.8</ele>
        <time>2018-08-11T17:26:56Z</time>
      </trkpt>
      <trkpt lat="4.5378820" lon="-74.2642330">
        <ele>2565.8</ele>
        <time>2018-08-11T17:26:57Z</time>
      </trkpt>
      <trkpt lat="4.5378530" lon="-74.2642420">
        <ele>2565.8</ele>
        <time>2018-08-11T17:26:58Z</time>
      </trkpt>
      <trkpt lat="4.5378270" lon="-74.2642550">
        <ele>2565.8</ele>
        <time>2018-08-11T17:26:59Z</time>
      </trkpt>
      <trkpt lat="4.5378050" lon="-74.2642770">
        <ele>2565.8</ele>
        <time>2018-08-11T17:27:00Z</time>
      </trkpt>
      <trkpt lat="4.5377820" lon="-74.2642920">
        <ele>2592.3</ele>
        <time>2018-08-11T17:27:01Z</time>
      </trkpt>
      <trkpt lat="4.5377350" lon="-74.2643130">
        <ele>2619.0</ele>
        <time>2018-08-11T17:27:03Z</time>
      </trkpt>
      <trkpt lat="4.5377100" lon="-74.2643250">
        <ele>2619.0</ele>
        <time>2018-08-11T17:27:04Z</time>
      </trkpt>
      <trkpt lat="4.5376680" lon="-74.2643450">
        <ele>2619.1</ele>
        <time>2018-08-11T17:27:06Z</time>
      </trkpt>
      <trkpt lat="4.5376380" lon="-74.2643730">
        <ele>2618.8</ele>
        <time>2018-08-11T17:27:08Z</time>
      </trkpt>
      <trkpt lat="4.5376100" lon="-74.2643880">
        <ele>2618.3</ele>
        <time>2018-08-11T17:27:10Z</time>
      </trkpt>
      <trkpt lat="4.5375780" lon="-74.2643950">
        <ele>2618.1</ele>
        <time>2018-08-11T17:27:12Z</time>
      </trkpt>
      <trkpt lat="4.5375430" lon="-74.2643950">
        <ele>2617.8</ele>
        <time>2018-08-11T17:27:14Z</time>
      </trkpt>
      <trkpt lat="4.5375030" lon="-74.2643850">
        <ele>2617.4</ele>
        <time>2018-08-11T17:27:16Z</time>
      </trkpt>
      <trkpt lat="4.5374650" lon="-74.2643580">
        <ele>2616.2</ele>
        <time>2018-08-11T17:27:18Z</time>
      </trkpt>
      <trkpt lat="4.5374280" lon="-74.2643270">
        <ele>2615.9</ele>
        <time>2018-08-11T17:27:20Z</time>
      </trkpt>
      <trkpt lat="4.5373870" lon="-74.2642970">
        <ele>2615.6</ele>
        <time>2018-08-11T17:27:22Z</time>
      </trkpt>
      <trkpt lat="4.5373480" lon="-74.2642650">
        <ele>2615.0</ele>
        <time>2018-08-11T17:27:24Z</time>
      </trkpt>
      <trkpt lat="4.5373270" lon="-74.2642480">
        <ele>2614.8</ele>
        <time>2018-08-11T17:27:25Z</time>
      </trkpt>
      <trkpt lat="4.5373020" lon="-74.2642300">
        <ele>2614.4</ele>
        <time>2018-08-11T17:27:26Z</time>
      </trkpt>
      <trkpt lat="4.5372770" lon="-74.2642130">
        <ele>2614.1</ele>
        <time>2018-08-11T17:27:27Z</time>
      </trkpt>
      <trkpt lat="4.5372320" lon="-74.2641800">
        <ele>2612.9</ele>
        <time>2018-08-11T17:27:29Z</time>
      </trkpt>
      <trkpt lat="4.5372070" lon="-74.2641620">
        <ele>2612.0</ele>
        <time>2018-08-11T17:27:30Z</time>
      </trkpt>
      <trkpt lat="4.5371730" lon="-74.2641450">
        <ele>2610.9</ele>
        <time>2018-08-11T17:27:31Z</time>
      </trkpt>
      <trkpt lat="4.5371420" lon="-74.2641370">
        <ele>2609.9</ele>
        <time>2018-08-11T17:27:32Z</time>
      </trkpt>
      <trkpt lat="4.5371150" lon="-74.2641270">
        <ele>2608.9</ele>
        <time>2018-08-11T17:27:33Z</time>
      </trkpt>
      <trkpt lat="4.5370850" lon="-74.2641180">
        <ele>2608.2</ele>
        <time>2018-08-11T17:27:34Z</time>
      </trkpt>
      <trkpt lat="4.5370530" lon="-74.2641120">
        <ele>2607.6</ele>
        <time>2018-08-11T17:27:35Z</time>
      </trkpt>
      <trkpt lat="4.5370200" lon="-74.2641000">
        <ele>2607.1</ele>
        <time>2018-08-11T17:27:36Z</time>
      </trkpt>
      <trkpt lat="4.5369870" lon="-74.2640880">
        <ele>2606.3</ele>
        <time>2018-08-11T17:27:37Z</time>
      </trkpt>
      <trkpt lat="4.5369500" lon="-74.2640770">
        <ele>2605.3</ele>
        <time>2018-08-11T17:27:38Z</time>
      </trkpt>
      <trkpt lat="4.5369080" lon="-74.2640520">
        <ele>2604.2</ele>
        <time>2018-08-11T17:27:39Z</time>
      </trkpt>
      <trkpt lat="4.5368680" lon="-74.2640270">
        <ele>2603.1</ele>
        <time>2018-08-11T17:27:40Z</time>
      </trkpt>
      <trkpt lat="4.5368230" lon="-74.2640000">
        <ele>2602.5</ele>
        <time>2018-08-11T17:27:41Z</time>
      </trkpt>
      <trkpt lat="4.5367750" lon="-74.2639830">
        <ele>2602.1</ele>
        <time>2018-08-11T17:27:42Z</time>
      </trkpt>
      <trkpt lat="4.5367300" lon="-74.2639680">
        <ele>2601.3</ele>
        <time>2018-08-11T17:27:43Z</time>
      </trkpt>
      <trkpt lat="4.5366820" lon="-74.2639480">
        <ele>2600.4</ele>
        <time>2018-08-11T17:27:44Z</time>
      </trkpt>
      <trkpt lat="4.5366330" lon="-74.2639270">
        <ele>2599.4</ele>
        <time>2018-08-11T17:27:45Z</time>
      </trkpt>
      <trkpt lat="4.5365900" lon="-74.2639120">
        <ele>2598.4</ele>
        <time>2018-08-11T17:27:46Z</time>
      </trkpt>
      <trkpt lat="4.5365450" lon="-74.2638920">
        <ele>2597.3</ele>
        <time>2018-08-11T17:27:47Z</time>
      </trkpt>
      <trkpt lat="4.5365050" lon="-74.2638780">
        <ele>2596.7</ele>
        <time>2018-08-11T17:27:48Z</time>
      </trkpt>
      <trkpt lat="4.5364670" lon="-74.2638650">
        <ele>2596.3</ele>
        <time>2018-08-11T17:27:49Z</time>
      </trkpt>
      <trkpt lat="4.5364320" lon="-74.2638520">
        <ele>2595.7</ele>
        <time>2018-08-11T17:27:50Z</time>
      </trkpt>
      <trkpt lat="4.5363950" lon="-74.2638420">
        <ele>2594.8</ele>
        <time>2018-08-11T17:27:51Z</time>
      </trkpt>
      <trkpt lat="4.5363580" lon="-74.2638320">
        <ele>2593.9</ele>
        <time>2018-08-11T17:27:52Z</time>
      </trkpt>
      <trkpt lat="4.5363250" lon="-74.2638180">
        <ele>2593.4</ele>
        <time>2018-08-11T17:27:53Z</time>
      </trkpt>
      <trkpt lat="4.5362930" lon="-74.2638030">
        <ele>2592.8</ele>
        <time>2018-08-11T17:27:54Z</time>
      </trkpt>
      <trkpt lat="4.5362650" lon="-74.2637880">
        <ele>2592.3</ele>
        <time>2018-08-11T17:27:55Z</time>
      </trkpt>
      <trkpt lat="4.5362380" lon="-74.2637730">
        <ele>2592.0</ele>
        <time>2018-08-11T17:27:56Z</time>
      </trkpt>
      <trkpt lat="4.5362100" lon="-74.2637630">
        <ele>2591.6</ele>
        <time>2018-08-11T17:27:57Z</time>
      </trkpt>
      <trkpt lat="4.5361820" lon="-74.2637500">
        <ele>2591.5</ele>
        <time>2018-08-11T17:27:58Z</time>
      </trkpt>
      <trkpt lat="4.5361550" lon="-74.2637350">
        <ele>2591.6</ele>
        <time>2018-08-11T17:27:59Z</time>
      </trkpt>
      <trkpt lat="4.5361130" lon="-74.2637080">
        <ele>2591.1</ele>
        <time>2018-08-11T17:28:01Z</time>
      </trkpt>
      <trkpt lat="4.5360670" lon="-74.2636880">
        <ele>2589.4</ele>
        <time>2018-08-11T17:28:03Z</time>
      </trkpt>
      <trkpt lat="4.5360430" lon="-74.2636730">
        <ele>2588.4</ele>
        <time>2018-08-11T17:28:04Z</time>
      </trkpt>
      <trkpt lat="4.5360200" lon="-74.2636570">
        <ele>2587.8</ele>
        <time>2018-08-11T17:28:05Z</time>
      </trkpt>
      <trkpt lat="4.5359850" lon="-74.2636220">
        <ele>2586.7</ele>
        <time>2018-08-11T17:28:07Z</time>
      </trkpt>
      <trkpt lat="4.5359550" lon="-74.2635920">
        <ele>2585.8</ele>
        <time>2018-08-11T17:28:09Z</time>
      </trkpt>
      <trkpt lat="4.5359320" lon="-74.2635720">
        <ele>2585.0</ele>
        <time>2018-08-11T17:28:11Z</time>
      </trkpt>
      <trkpt lat="4.5359000" lon="-74.2635470">
        <ele>2584.2</ele>
        <time>2018-08-11T17:28:14Z</time>
      </trkpt>
      <trkpt lat="4.5358750" lon="-74.2635230">
        <ele>2583.5</ele>
        <time>2018-08-11T17:28:16Z</time>
      </trkpt>
      <trkpt lat="4.5358550" lon="-74.2635050">
        <ele>2583.0</ele>
        <time>2018-08-11T17:28:18Z</time>
      </trkpt>
      <trkpt lat="4.5358350" lon="-74.2634850">
        <ele>2582.4</ele>
        <time>2018-08-11T17:28:20Z</time>
      </trkpt>
      <trkpt lat="4.5358120" lon="-74.2634670">
        <ele>2581.7</ele>
        <time>2018-08-11T17:28:22Z</time>
      </trkpt>
      <trkpt lat="4.5357870" lon="-74.2634430">
        <ele>2580.9</ele>
        <time>2018-08-11T17:28:24Z</time>
      </trkpt>
      <trkpt lat="4.5357650" lon="-74.2634270">
        <ele>2580.3</ele>
        <time>2018-08-11T17:28:26Z</time>
      </trkpt>
      <trkpt lat="4.5357330" lon="-74.2634100">
        <ele>2579.7</ele>
        <time>2018-08-11T17:28:29Z</time>
      </trkpt>
      <trkpt lat="4.5356950" lon="-74.2634080">
        <ele>2579.1</ele>
        <time>2018-08-11T17:28:32Z</time>
      </trkpt>
      <trkpt lat="4.5356570" lon="-74.2634130">
        <ele>2578.6</ele>
        <time>2018-08-11T17:28:34Z</time>
      </trkpt>
      <trkpt lat="4.5356180" lon="-74.2634220">
        <ele>2578.0</ele>
        <time>2018-08-11T17:28:37Z</time>
      </trkpt>
      <trkpt lat="4.5355870" lon="-74.2634270">
        <ele>2577.8</ele>
        <time>2018-08-11T17:28:39Z</time>
      </trkpt>
      <trkpt lat="4.5355530" lon="-74.2634280">
        <ele>2577.5</ele>
        <time>2018-08-11T17:28:41Z</time>
      </trkpt>
      <trkpt lat="4.5355230" lon="-74.2634500">
        <ele>2577.4</ele>
        <time>2018-08-11T17:28:43Z</time>
      </trkpt>
      <trkpt lat="4.5354900" lon="-74.2634580">
        <ele>2577.4</ele>
        <time>2018-08-11T17:28:45Z</time>
      </trkpt>
      <trkpt lat="4.5354520" lon="-74.2634650">
        <ele>2577.3</ele>
        <time>2018-08-11T17:28:47Z</time>
      </trkpt>
      <trkpt lat="4.5354170" lon="-74.2634820">
        <ele>2577.1</ele>
        <time>2018-08-11T17:28:49Z</time>
      </trkpt>
      <trkpt lat="4.5353820" lon="-74.2634980">
        <ele>2577.4</ele>
        <time>2018-08-11T17:28:51Z</time>
      </trkpt>
      <trkpt lat="4.5353420" lon="-74.2635070">
        <ele>2577.8</ele>
        <time>2018-08-11T17:28:53Z</time>
      </trkpt>
      <trkpt lat="4.5353000" lon="-74.2635220">
        <ele>2578.0</ele>
        <time>2018-08-11T17:28:55Z</time>
      </trkpt>
      <trkpt lat="4.5352550" lon="-74.2635370">
        <ele>2578.2</ele>
        <time>2018-08-11T17:28:57Z</time>
      </trkpt>
      <trkpt lat="4.5352080" lon="-74.2635520">
        <ele>2578.5</ele>
        <time>2018-08-11T17:28:59Z</time>
      </trkpt>
      <trkpt lat="4.5351620" lon="-74.2635680">
        <ele>2578.7</ele>
        <time>2018-08-11T17:29:01Z</time>
      </trkpt>
      <trkpt lat="4.5351130" lon="-74.2635780">
        <ele>2578.9</ele>
        <time>2018-08-11T17:29:03Z</time>
      </trkpt>
      <trkpt lat="4.5350630" lon="-74.2635930">
        <ele>2578.6</ele>
        <time>2018-08-11T17:29:05Z</time>
      </trkpt>
      <trkpt lat="4.5350180" lon="-74.2636180">
        <ele>2578.2</ele>
        <time>2018-08-11T17:29:07Z</time>
      </trkpt>
      <trkpt lat="4.5349930" lon="-74.2636320">
        <ele>2577.7</ele>
        <time>2018-08-11T17:29:08Z</time>
      </trkpt>
      <trkpt lat="4.5349450" lon="-74.2636520">
        <ele>2576.9</ele>
        <time>2018-08-11T17:29:10Z</time>
      </trkpt>
      <trkpt lat="4.5349200" lon="-74.2636630">
        <ele>2576.6</ele>
        <time>2018-08-11T17:29:11Z</time>
      </trkpt>
      <trkpt lat="4.5348730" lon="-74.2636850">
        <ele>2576.1</ele>
        <time>2018-08-11T17:29:13Z</time>
      </trkpt>
      <trkpt lat="4.5348220" lon="-74.2636920">
        <ele>2575.5</ele>
        <time>2018-08-11T17:29:15Z</time>
      </trkpt>
      <trkpt lat="4.5347930" lon="-74.2636930">
        <ele>2575.2</ele>
        <time>2018-08-11T17:29:16Z</time>
      </trkpt>
      <trkpt lat="4.5347680" lon="-74.2637080">
        <ele>2574.8</ele>
        <time>2018-08-11T17:29:17Z</time>
      </trkpt>
      <trkpt lat="4.5347220" lon="-74.2637380">
        <ele>2573.0</ele>
        <time>2018-08-11T17:29:19Z</time>
      </trkpt>
      <trkpt lat="4.5346820" lon="-74.2637720">
        <ele>2572.0</ele>
        <time>2018-08-11T17:29:21Z</time>
      </trkpt>
      <trkpt lat="4.5346450" lon="-74.2638100">
        <ele>2571.7</ele>
        <time>2018-08-11T17:29:23Z</time>
      </trkpt>
      <trkpt lat="4.5346230" lon="-74.2638550">
        <ele>2571.2</ele>
        <time>2018-08-11T17:29:25Z</time>
      </trkpt>
      <trkpt lat="4.5346000" lon="-74.2639000">
        <ele>2570.7</ele>
        <time>2018-08-11T17:29:27Z</time>
      </trkpt>
      <trkpt lat="4.5345800" lon="-74.2639480">
        <ele>2571.7</ele>
        <time>2018-08-11T17:29:29Z</time>
      </trkpt>
      <trkpt lat="4.5345680" lon="-74.2639770">
        <ele>2572.3</ele>
        <time>2018-08-11T17:29:30Z</time>
      </trkpt>
      <trkpt lat="4.5345570" lon="-74.2640050">
        <ele>2572.6</ele>
        <time>2018-08-11T17:29:31Z</time>
      </trkpt>
      <trkpt lat="4.5345430" lon="-74.2640330">
        <ele>2572.9</ele>
        <time>2018-08-11T17:29:32Z</time>
      </trkpt>
      <trkpt lat="4.5345330" lon="-74.2640620">
        <ele>2572.8</ele>
        <time>2018-08-11T17:29:33Z</time>
      </trkpt>
      <trkpt lat="4.5345250" lon="-74.2640880">
        <ele>2572.7</ele>
        <time>2018-08-11T17:29:34Z</time>
      </trkpt>
      <trkpt lat="4.5345170" lon="-74.2641170">
        <ele>2572.6</ele>
        <time>2018-08-11T17:29:35Z</time>
      </trkpt>
      <trkpt lat="4.5345080" lon="-74.2641470">
        <ele>2572.5</ele>
        <time>2018-08-11T17:29:36Z</time>
      </trkpt>
      <trkpt lat="4.5344950" lon="-74.2641920">
        <ele>2572.0</ele>
        <time>2018-08-11T17:29:38Z</time>
      </trkpt>
      <trkpt lat="4.5344700" lon="-74.2642320">
        <ele>2571.6</ele>
        <time>2018-08-11T17:29:40Z</time>
      </trkpt>
      <trkpt lat="4.5344520" lon="-74.2642550">
        <ele>2571.6</ele>
        <time>2018-08-11T17:29:41Z</time>
      </trkpt>
      <trkpt lat="4.5344370" lon="-74.2642780">
        <ele>2571.3</ele>
        <time>2018-08-11T17:29:42Z</time>
      </trkpt>
      <trkpt lat="4.5344030" lon="-74.2643150">
        <ele>2570.6</ele>
        <time>2018-08-11T17:29:44Z</time>
      </trkpt>
      <trkpt lat="4.5343680" lon="-74.2643520">
        <ele>2570.2</ele>
        <time>2018-08-11T17:29:46Z</time>
      </trkpt>
      <trkpt lat="4.5343320" lon="-74.2643850">
        <ele>2570.0</ele>
        <time>2018-08-11T17:29:48Z</time>
      </trkpt>
      <trkpt lat="4.5343070" lon="-74.2644000">
        <ele>2570.2</ele>
        <time>2018-08-11T17:29:49Z</time>
      </trkpt>
      <trkpt lat="4.5342620" lon="-74.2644280">
        <ele>2571.3</ele>
        <time>2018-08-11T17:29:51Z</time>
      </trkpt>
      <trkpt lat="4.5342180" lon="-74.2644450">
        <ele>2573.1</ele>
        <time>2018-08-11T17:29:53Z</time>
      </trkpt>
      <trkpt lat="4.5341780" lon="-74.2644580">
        <ele>2575.5</ele>
        <time>2018-08-11T17:29:55Z</time>
      </trkpt>
      <trkpt lat="4.5341280" lon="-74.2644700">
        <ele>2578.8</ele>
        <time>2018-08-11T17:29:57Z</time>
      </trkpt>
      <trkpt lat="4.5340730" lon="-74.2644750">
        <ele>2582.6</ele>
        <time>2018-08-11T17:29:59Z</time>
      </trkpt>
      <trkpt lat="4.5340180" lon="-74.2644720">
        <ele>2584.9</ele>
        <time>2018-08-11T17:30:01Z</time>
      </trkpt>
      <trkpt lat="4.5339850" lon="-74.2644680">
        <ele>2586.6</ele>
        <time>2018-08-11T17:30:02Z</time>
      </trkpt>
      <trkpt lat="4.5339550" lon="-74.2644650">
        <ele>2588.4</ele>
        <time>2018-08-11T17:30:03Z</time>
      </trkpt>
      <trkpt lat="4.5339230" lon="-74.2644620">
        <ele>2589.5</ele>
        <time>2018-08-11T17:30:04Z</time>
      </trkpt>
      <trkpt lat="4.5338930" lon="-74.2644600">
        <ele>2590.0</ele>
        <time>2018-08-11T17:30:05Z</time>
      </trkpt>
      <trkpt lat="4.5338620" lon="-74.2644570">
        <ele>2590.3</ele>
        <time>2018-08-11T17:30:06Z</time>
      </trkpt>
      <trkpt lat="4.5338070" lon="-74.2644500">
        <ele>2590.4</ele>
        <time>2018-08-11T17:30:08Z</time>
      </trkpt>
      <trkpt lat="4.5337770" lon="-74.2644470">
        <ele>2589.0</ele>
        <time>2018-08-11T17:30:09Z</time>
      </trkpt>
      <trkpt lat="4.5337480" lon="-74.2644380">
        <ele>2587.4</ele>
        <time>2018-08-11T17:30:10Z</time>
      </trkpt>
      <trkpt lat="4.5336950" lon="-74.2644150">
        <ele>2585.1</ele>
        <time>2018-08-11T17:30:12Z</time>
      </trkpt>
      <trkpt lat="4.5336670" lon="-74.2644000">
        <ele>2584.0</ele>
        <time>2018-08-11T17:30:13Z</time>
      </trkpt>
      <trkpt lat="4.5336380" lon="-74.2643830">
        <ele>2583.3</ele>
        <time>2018-08-11T17:30:14Z</time>
      </trkpt>
      <trkpt lat="4.5336100" lon="-74.2643630">
        <ele>2583.0</ele>
        <time>2018-08-11T17:30:15Z</time>
      </trkpt>
      <trkpt lat="4.5335830" lon="-74.2643430">
        <ele>2582.7</ele>
        <time>2018-08-11T17:30:16Z</time>
      </trkpt>
      <trkpt lat="4.5335580" lon="-74.2643250">
        <ele>2582.2</ele>
        <time>2018-08-11T17:30:17Z</time>
      </trkpt>
      <trkpt lat="4.5335380" lon="-74.2643020">
        <ele>2581.8</ele>
        <time>2018-08-11T17:30:18Z</time>
      </trkpt>
      <trkpt lat="4.5335200" lon="-74.2642770">
        <ele>2581.3</ele>
        <time>2018-08-11T17:30:19Z</time>
      </trkpt>
      <trkpt lat="4.5335030" lon="-74.2642470">
        <ele>2580.6</ele>
        <time>2018-08-11T17:30:20Z</time>
      </trkpt>
      <trkpt lat="4.5334870" lon="-74.2642200">
        <ele>2580.1</ele>
        <time>2018-08-11T17:30:21Z</time>
      </trkpt>
      <trkpt lat="4.5334670" lon="-74.2641970">
        <ele>2580.4</ele>
        <time>2018-08-11T17:30:22Z</time>
      </trkpt>
      <trkpt lat="4.5334480" lon="-74.2641680">
        <ele>2580.8</ele>
        <time>2018-08-11T17:30:23Z</time>
      </trkpt>
      <trkpt lat="4.5334300" lon="-74.2641370">
        <ele>2581.5</ele>
        <time>2018-08-11T17:30:24Z</time>
      </trkpt>
      <trkpt lat="4.5334120" lon="-74.2641130">
        <ele>2582.2</ele>
        <time>2018-08-11T17:30:25Z</time>
      </trkpt>
      <trkpt lat="4.5333930" lon="-74.2640870">
        <ele>2582.5</ele>
        <time>2018-08-11T17:30:26Z</time>
      </trkpt>
      <trkpt lat="4.5333750" lon="-74.2640550">
        <ele>2582.7</ele>
        <time>2018-08-11T17:30:27Z</time>
      </trkpt>
      <trkpt lat="4.5333530" lon="-74.2640220">
        <ele>2583.6</ele>
        <time>2018-08-11T17:30:28Z</time>
      </trkpt>
      <trkpt lat="4.5333300" lon="-74.2639900">
        <ele>2584.5</ele>
        <time>2018-08-11T17:30:29Z</time>
      </trkpt>
      <trkpt lat="4.5333020" lon="-74.2639650">
        <ele>2585.0</ele>
        <time>2018-08-11T17:30:30Z</time>
      </trkpt>
      <trkpt lat="4.5332670" lon="-74.2639430">
        <ele>2585.3</ele>
        <time>2018-08-11T17:30:31Z</time>
      </trkpt>
      <trkpt lat="4.5332280" lon="-74.2639230">
        <ele>2585.4</ele>
        <time>2018-08-11T17:30:32Z</time>
      </trkpt>
      <trkpt lat="4.5331880" lon="-74.2639080">
        <ele>2585.8</ele>
        <time>2018-08-11T17:30:33Z</time>
      </trkpt>
      <trkpt lat="4.5331450" lon="-74.2638980">
        <ele>2586.1</ele>
        <time>2018-08-11T17:30:34Z</time>
      </trkpt>
      <trkpt lat="4.5331000" lon="-74.2638930">
        <ele>2585.9</ele>
        <time>2018-08-11T17:30:35Z</time>
      </trkpt>
      <trkpt lat="4.5330550" lon="-74.2638870">
        <ele>2585.6</ele>
        <time>2018-08-11T17:30:36Z</time>
      </trkpt>
      <trkpt lat="4.5330080" lon="-74.2638730">
        <ele>2585.3</ele>
        <time>2018-08-11T17:30:37Z</time>
      </trkpt>
      <trkpt lat="4.5329650" lon="-74.2638680">
        <ele>2585.1</ele>
        <time>2018-08-11T17:30:38Z</time>
      </trkpt>
      <trkpt lat="4.5329200" lon="-74.2638720">
        <ele>2584.7</ele>
        <time>2018-08-11T17:30:39Z</time>
      </trkpt>
      <trkpt lat="4.5328770" lon="-74.2638750">
        <ele>2584.2</ele>
        <time>2018-08-11T17:30:40Z</time>
      </trkpt>
      <trkpt lat="4.5328330" lon="-74.2638770">
        <ele>2583.4</ele>
        <time>2018-08-11T17:30:41Z</time>
      </trkpt>
      <trkpt lat="4.5327900" lon="-74.2638770">
        <ele>2582.5</ele>
        <time>2018-08-11T17:30:42Z</time>
      </trkpt>
      <trkpt lat="4.5327500" lon="-74.2638750">
        <ele>2581.6</ele>
        <time>2018-08-11T17:30:43Z</time>
      </trkpt>
      <trkpt lat="4.5327120" lon="-74.2638770">
        <ele>2580.7</ele>
        <time>2018-08-11T17:30:44Z</time>
      </trkpt>
      <trkpt lat="4.5326700" lon="-74.2638780">
        <ele>2579.9</ele>
        <time>2018-08-11T17:30:45Z</time>
      </trkpt>
      <trkpt lat="4.5326320" lon="-74.2638780">
        <ele>2579.3</ele>
        <time>2018-08-11T17:30:46Z</time>
      </trkpt>
      <trkpt lat="4.5325930" lon="-74.2638800">
        <ele>2578.7</ele>
        <time>2018-08-11T17:30:47Z</time>
      </trkpt>
      <trkpt lat="4.5325600" lon="-74.2638820">
        <ele>2578.2</ele>
        <time>2018-08-11T17:30:48Z</time>
      </trkpt>
      <trkpt lat="4.5325270" lon="-74.2638800">
        <ele>2577.6</ele>
        <time>2018-08-11T17:30:49Z</time>
      </trkpt>
      <trkpt lat="4.5324920" lon="-74.2638720">
        <ele>2577.2</ele>
        <time>2018-08-11T17:30:50Z</time>
      </trkpt>
      <trkpt lat="4.5324570" lon="-74.2638670">
        <ele>2576.8</ele>
        <time>2018-08-11T17:30:51Z</time>
      </trkpt>
      <trkpt lat="4.5324220" lon="-74.2638670">
        <ele>2576.4</ele>
        <time>2018-08-11T17:30:52Z</time>
      </trkpt>
      <trkpt lat="4.5323850" lon="-74.2638650">
        <ele>2576.3</ele>
        <time>2018-08-11T17:30:53Z</time>
      </trkpt>
      <trkpt lat="4.5323450" lon="-74.2638630">
        <ele>2576.1</ele>
        <time>2018-08-11T17:30:54Z</time>
      </trkpt>
      <trkpt lat="4.5323070" lon="-74.2638680">
        <ele>2576.1</ele>
        <time>2018-08-11T17:30:55Z</time>
      </trkpt>
      <trkpt lat="4.5322680" lon="-74.2638700">
        <ele>2576.2</ele>
        <time>2018-08-11T17:30:56Z</time>
      </trkpt>
      <trkpt lat="4.5322320" lon="-74.2638720">
        <ele>2576.3</ele>
        <time>2018-08-11T17:30:57Z</time>
      </trkpt>
      <trkpt lat="4.5321920" lon="-74.2638750">
        <ele>2576.3</ele>
        <time>2018-08-11T17:30:58Z</time>
      </trkpt>
      <trkpt lat="4.5321500" lon="-74.2638770">
        <ele>2576.4</ele>
        <time>2018-08-11T17:30:59Z</time>
      </trkpt>
      <trkpt lat="4.5321100" lon="-74.2638800">
        <ele>2576.4</ele>
        <time>2018-08-11T17:31:00Z</time>
      </trkpt>
      <trkpt lat="4.5320720" lon="-74.2638870">
        <ele>2576.5</ele>
        <time>2018-08-11T17:31:01Z</time>
      </trkpt>
      <trkpt lat="4.5320330" lon="-74.2638920">
        <ele>2576.6</ele>
        <time>2018-08-11T17:31:02Z</time>
      </trkpt>
      <trkpt lat="4.5319950" lon="-74.2638930">
        <ele>2576.7</ele>
        <time>2018-08-11T17:31:03Z</time>
      </trkpt>
      <trkpt lat="4.5319570" lon="-74.2638970">
        <ele>2576.9</ele>
        <time>2018-08-11T17:31:04Z</time>
      </trkpt>
      <trkpt lat="4.5319170" lon="-74.2639030">
        <ele>2577.2</ele>
        <time>2018-08-11T17:31:05Z</time>
      </trkpt>
      <trkpt lat="4.5318780" lon="-74.2639100">
        <ele>2577.6</ele>
        <time>2018-08-11T17:31:06Z</time>
      </trkpt>
      <trkpt lat="4.5318380" lon="-74.2639130">
        <ele>2578.2</ele>
        <time>2018-08-11T17:31:07Z</time>
      </trkpt>
      <trkpt lat="4.5317980" lon="-74.2639180">
        <ele>2578.8</ele>
        <time>2018-08-11T17:31:08Z</time>
      </trkpt>
      <trkpt lat="4.5317600" lon="-74.2639200">
        <ele>2579.5</ele>
        <time>2018-08-11T17:31:09Z</time>
      </trkpt>
      <trkpt lat="4.5317230" lon="-74.2639180">
        <ele>2580.2</ele>
        <time>2018-08-11T17:31:10Z</time>
      </trkpt>
      <trkpt lat="4.5316850" lon="-74.2639130">
        <ele>2580.9</ele>
        <time>2018-08-11T17:31:11Z</time>
      </trkpt>
      <trkpt lat="4.5316470" lon="-74.2639070">
        <ele>2581.6</ele>
        <time>2018-08-11T17:31:12Z</time>
      </trkpt>
      <trkpt lat="4.5316070" lon="-74.2639070">
        <ele>2582.3</ele>
        <time>2018-08-11T17:31:13Z</time>
      </trkpt>
      <trkpt lat="4.5315670" lon="-74.2639080">
        <ele>2583.0</ele>
        <time>2018-08-11T17:31:14Z</time>
      </trkpt>
      <trkpt lat="4.5315270" lon="-74.2639100">
        <ele>2583.6</ele>
        <time>2018-08-11T17:31:15Z</time>
      </trkpt>
      <trkpt lat="4.5314900" lon="-74.2639080">
        <ele>2584.0</ele>
        <time>2018-08-11T17:31:16Z</time>
      </trkpt>
      <trkpt lat="4.5314520" lon="-74.2639080">
        <ele>2584.4</ele>
        <time>2018-08-11T17:31:17Z</time>
      </trkpt>
      <trkpt lat="4.5314130" lon="-74.2639080">
        <ele>2584.6</ele>
        <time>2018-08-11T17:31:18Z</time>
      </trkpt>
      <trkpt lat="4.5313730" lon="-74.2639100">
        <ele>2584.8</ele>
        <time>2018-08-11T17:31:19Z</time>
      </trkpt>
      <trkpt lat="4.5313350" lon="-74.2639100">
        <ele>2584.9</ele>
        <time>2018-08-11T17:31:20Z</time>
      </trkpt>
      <trkpt lat="4.5312970" lon="-74.2639080">
        <ele>2584.7</ele>
        <time>2018-08-11T17:31:21Z</time>
      </trkpt>
      <trkpt lat="4.5312620" lon="-74.2639100">
        <ele>2584.5</ele>
        <time>2018-08-11T17:31:22Z</time>
      </trkpt>
      <trkpt lat="4.5312220" lon="-74.2639080">
        <ele>2584.2</ele>
        <time>2018-08-11T17:31:23Z</time>
      </trkpt>
      <trkpt lat="4.5311830" lon="-74.2639120">
        <ele>2583.7</ele>
        <time>2018-08-11T17:31:24Z</time>
      </trkpt>
      <trkpt lat="4.5311450" lon="-74.2639170">
        <ele>2583.2</ele>
        <time>2018-08-11T17:31:25Z</time>
      </trkpt>
      <trkpt lat="4.5311070" lon="-74.2639230">
        <ele>2582.6</ele>
        <time>2018-08-11T17:31:26Z</time>
      </trkpt>
      <trkpt lat="4.5310700" lon="-74.2639270">
        <ele>2582.0</ele>
        <time>2018-08-11T17:31:27Z</time>
      </trkpt>
      <trkpt lat="4.5310320" lon="-74.2639300">
        <ele>2581.4</ele>
        <time>2018-08-11T17:31:28Z</time>
      </trkpt>
      <trkpt lat="4.5309930" lon="-74.2639320">
        <ele>2580.8</ele>
        <time>2018-08-11T17:31:29Z</time>
      </trkpt>
      <trkpt lat="4.5309530" lon="-74.2639300">
        <ele>2580.2</ele>
        <time>2018-08-11T17:31:30Z</time>
      </trkpt>
      <trkpt lat="4.5309100" lon="-74.2639280">
        <ele>2579.8</ele>
        <time>2018-08-11T17:31:31Z</time>
      </trkpt>
      <trkpt lat="4.5308680" lon="-74.2639280">
        <ele>2579.4</ele>
        <time>2018-08-11T17:31:32Z</time>
      </trkpt>
      <trkpt lat="4.5308280" lon="-74.2639280">
        <ele>2579.1</ele>
        <time>2018-08-11T17:31:33Z</time>
      </trkpt>
      <trkpt lat="4.5307880" lon="-74.2639300">
        <ele>2579.0</ele>
        <time>2018-08-11T17:31:34Z</time>
      </trkpt>
      <trkpt lat="4.5307470" lon="-74.2639320">
        <ele>2578.9</ele>
        <time>2018-08-11T17:31:35Z</time>
      </trkpt>
      <trkpt lat="4.5307070" lon="-74.2639320">
        <ele>2578.9</ele>
        <time>2018-08-11T17:31:36Z</time>
      </trkpt>
      <trkpt lat="4.5306650" lon="-74.2639320">
        <ele>2579.1</ele>
        <time>2018-08-11T17:31:37Z</time>
      </trkpt>
      <trkpt lat="4.5306250" lon="-74.2639350">
        <ele>2579.3</ele>
        <time>2018-08-11T17:31:38Z</time>
      </trkpt>
      <trkpt lat="4.5305780" lon="-74.2639350">
        <ele>2579.7</ele>
        <time>2018-08-11T17:31:39Z</time>
      </trkpt>
      <trkpt lat="4.5305380" lon="-74.2639370">
        <ele>2580.1</ele>
        <time>2018-08-11T17:31:40Z</time>
      </trkpt>
      <trkpt lat="4.5304980" lon="-74.2639400">
        <ele>2581.1</ele>
        <time>2018-08-11T17:31:41Z</time>
      </trkpt>
      <trkpt lat="4.5304550" lon="-74.2639380">
        <ele>2582.5</ele>
        <time>2018-08-11T17:31:42Z</time>
      </trkpt>
      <trkpt lat="4.5304150" lon="-74.2639350">
        <ele>2583.6</ele>
        <time>2018-08-11T17:31:43Z</time>
      </trkpt>
      <trkpt lat="4.5303750" lon="-74.2639320">
        <ele>2584.6</ele>
        <time>2018-08-11T17:31:44Z</time>
      </trkpt>
      <trkpt lat="4.5303350" lon="-74.2639300">
        <ele>2585.5</ele>
        <time>2018-08-11T17:31:45Z</time>
      </trkpt>
      <trkpt lat="4.5302950" lon="-74.2639330">
        <ele>2586.1</ele>
        <time>2018-08-11T17:31:46Z</time>
      </trkpt>
      <trkpt lat="4.5302520" lon="-74.2639370">
        <ele>2586.8</ele>
        <time>2018-08-11T17:31:47Z</time>
      </trkpt>
      <trkpt lat="4.5302070" lon="-74.2639400">
        <ele>2587.2</ele>
        <time>2018-08-11T17:31:48Z</time>
      </trkpt>
      <trkpt lat="4.5301620" lon="-74.2639420">
        <ele>2587.6</ele>
        <time>2018-08-11T17:31:49Z</time>
      </trkpt>
      <trkpt lat="4.5301170" lon="-74.2639420">
        <ele>2587.6</ele>
        <time>2018-08-11T17:31:50Z</time>
      </trkpt>
      <trkpt lat="4.5300770" lon="-74.2639430">
        <ele>2587.7</ele>
        <time>2018-08-11T17:31:51Z</time>
      </trkpt>
      <trkpt lat="4.5300370" lon="-74.2639520">
        <ele>2587.6</ele>
        <time>2018-08-11T17:31:52Z</time>
      </trkpt>
      <trkpt lat="4.5299980" lon="-74.2639580">
        <ele>2587.6</ele>
        <time>2018-08-11T17:31:53Z</time>
      </trkpt>
      <trkpt lat="4.5299580" lon="-74.2639570">
        <ele>2587.5</ele>
        <time>2018-08-11T17:31:54Z</time>
      </trkpt>
      <trkpt lat="4.5299200" lon="-74.2639550">
        <ele>2587.5</ele>
        <time>2018-08-11T17:31:55Z</time>
      </trkpt>
      <trkpt lat="4.5298870" lon="-74.2639600">
        <ele>2587.6</ele>
        <time>2018-08-11T17:31:56Z</time>
      </trkpt>
      <trkpt lat="4.5298530" lon="-74.2639650">
        <ele>2587.6</ele>
        <time>2018-08-11T17:31:57Z</time>
      </trkpt>
      <trkpt lat="4.5298180" lon="-74.2639670">
        <ele>2587.7</ele>
        <time>2018-08-11T17:31:58Z</time>
      </trkpt>
      <trkpt lat="4.5297820" lon="-74.2639670">
        <ele>2587.7</ele>
        <time>2018-08-11T17:31:59Z</time>
      </trkpt>
      <trkpt lat="4.5297450" lon="-74.2639630">
        <ele>2587.8</ele>
        <time>2018-08-11T17:32:00Z</time>
      </trkpt>
      <trkpt lat="4.5297080" lon="-74.2639630">
        <ele>2587.9</ele>
        <time>2018-08-11T17:32:01Z</time>
      </trkpt>
      <trkpt lat="4.5296730" lon="-74.2639670">
        <ele>2588.0</ele>
        <time>2018-08-11T17:32:02Z</time>
      </trkpt>
      <trkpt lat="4.5296370" lon="-74.2639680">
        <ele>2588.1</ele>
        <time>2018-08-11T17:32:03Z</time>
      </trkpt>
      <trkpt lat="4.5296000" lon="-74.2639720">
        <ele>2588.3</ele>
        <time>2018-08-11T17:32:04Z</time>
      </trkpt>
      <trkpt lat="4.5295680" lon="-74.2639770">
        <ele>2588.5</ele>
        <time>2018-08-11T17:32:05Z</time>
      </trkpt>
      <trkpt lat="4.5295350" lon="-74.2639820">
        <ele>2588.7</ele>
        <time>2018-08-11T17:32:06Z</time>
      </trkpt>
      <trkpt lat="4.5295000" lon="-74.2639880">
        <ele>2588.6</ele>
        <time>2018-08-11T17:32:07Z</time>
      </trkpt>
      <trkpt lat="4.5294620" lon="-74.2639920">
        <ele>2588.5</ele>
        <time>2018-08-11T17:32:08Z</time>
      </trkpt>
      <trkpt lat="4.5294230" lon="-74.2639920">
        <ele>2588.2</ele>
        <time>2018-08-11T17:32:09Z</time>
      </trkpt>
      <trkpt lat="4.5293900" lon="-74.2640030">
        <ele>2587.8</ele>
        <time>2018-08-11T17:32:10Z</time>
      </trkpt>
      <trkpt lat="4.5293550" lon="-74.2640020">
        <ele>2587.5</ele>
        <time>2018-08-11T17:32:11Z</time>
      </trkpt>
      <trkpt lat="4.5293180" lon="-74.2640020">
        <ele>2587.1</ele>
        <time>2018-08-11T17:32:12Z</time>
      </trkpt>
      <trkpt lat="4.5292850" lon="-74.2640050">
        <ele>2586.8</ele>
        <time>2018-08-11T17:32:13Z</time>
      </trkpt>
      <trkpt lat="4.5292520" lon="-74.2640050">
        <ele>2586.6</ele>
        <time>2018-08-11T17:32:14Z</time>
      </trkpt>
      <trkpt lat="4.5292180" lon="-74.2640020">
        <ele>2586.4</ele>
        <time>2018-08-11T17:32:15Z</time>
      </trkpt>
      <trkpt lat="4.5291800" lon="-74.2640000">
        <ele>2586.2</ele>
        <time>2018-08-11T17:32:16Z</time>
      </trkpt>
      <trkpt lat="4.5291420" lon="-74.2640030">
        <ele>2586.1</ele>
        <time>2018-08-11T17:32:17Z</time>
      </trkpt>
      <trkpt lat="4.5291020" lon="-74.2640070">
        <ele>2585.9</ele>
        <time>2018-08-11T17:32:18Z</time>
      </trkpt>
      <trkpt lat="4.5290630" lon="-74.2640080">
        <ele>2585.8</ele>
        <time>2018-08-11T17:32:19Z</time>
      </trkpt>
      <trkpt lat="4.5290230" lon="-74.2640100">
        <ele>2585.6</ele>
        <time>2018-08-11T17:32:20Z</time>
      </trkpt>
      <trkpt lat="4.5289870" lon="-74.2640120">
        <ele>2585.5</ele>
        <time>2018-08-11T17:32:21Z</time>
      </trkpt>
      <trkpt lat="4.5289470" lon="-74.2640120">
        <ele>2585.5</ele>
        <time>2018-08-11T17:32:22Z</time>
      </trkpt>
      <trkpt lat="4.5289120" lon="-74.2640150">
        <ele>2585.5</ele>
        <time>2018-08-11T17:32:23Z</time>
      </trkpt>
      <trkpt lat="4.5288750" lon="-74.2640130">
        <ele>2585.6</ele>
        <time>2018-08-11T17:32:24Z</time>
      </trkpt>
      <trkpt lat="4.5288330" lon="-74.2640130">
        <ele>2585.7</ele>
        <time>2018-08-11T17:32:25Z</time>
      </trkpt>
      <trkpt lat="4.5287930" lon="-74.2640170">
        <ele>2585.7</ele>
        <time>2018-08-11T17:32:26Z</time>
      </trkpt>
      <trkpt lat="4.5287520" lon="-74.2640300">
        <ele>2585.6</ele>
        <time>2018-08-11T17:32:27Z</time>
      </trkpt>
      <trkpt lat="4.5287200" lon="-74.2640430">
        <ele>2585.4</ele>
        <time>2018-08-11T17:32:28Z</time>
      </trkpt>
      <trkpt lat="4.5286820" lon="-74.2640500">
        <ele>2585.0</ele>
        <time>2018-08-11T17:32:29Z</time>
      </trkpt>
      <trkpt lat="4.5286380" lon="-74.2640520">
        <ele>2584.4</ele>
        <time>2018-08-11T17:32:30Z</time>
      </trkpt>
      <trkpt lat="4.5285920" lon="-74.2640570">
        <ele>2583.5</ele>
        <time>2018-08-11T17:32:31Z</time>
      </trkpt>
      <trkpt lat="4.5285500" lon="-74.2640650">
        <ele>2582.8</ele>
        <time>2018-08-11T17:32:32Z</time>
      </trkpt>
      <trkpt lat="4.5285070" lon="-74.2640700">
        <ele>2582.4</ele>
        <time>2018-08-11T17:32:33Z</time>
      </trkpt>
      <trkpt lat="4.5284620" lon="-74.2640700">
        <ele>2581.9</ele>
        <time>2018-08-11T17:32:34Z</time>
      </trkpt>
      <trkpt lat="4.5284180" lon="-74.2640700">
        <ele>2581.3</ele>
        <time>2018-08-11T17:32:35Z</time>
      </trkpt>
      <trkpt lat="4.5283720" lon="-74.2640650">
        <ele>2580.8</ele>
        <time>2018-08-11T17:32:36Z</time>
      </trkpt>
      <trkpt lat="4.5283300" lon="-74.2640650">
        <ele>2580.7</ele>
        <time>2018-08-11T17:32:37Z</time>
      </trkpt>
      <trkpt lat="4.5282920" lon="-74.2640700">
        <ele>2580.5</ele>
        <time>2018-08-11T17:32:38Z</time>
      </trkpt>
      <trkpt lat="4.5282530" lon="-74.2640670">
        <ele>2580.7</ele>
        <time>2018-08-11T17:32:39Z</time>
      </trkpt>
      <trkpt lat="4.5282180" lon="-74.2640650">
        <ele>2580.9</ele>
        <time>2018-08-11T17:32:40Z</time>
      </trkpt>
      <trkpt lat="4.5281850" lon="-74.2640480">
        <ele>2581.4</ele>
        <time>2018-08-11T17:32:41Z</time>
      </trkpt>
      <trkpt lat="4.5281520" lon="-74.2640450">
        <ele>2581.8</ele>
        <time>2018-08-11T17:32:42Z</time>
      </trkpt>
      <trkpt lat="4.5281150" lon="-74.2640420">
        <ele>2582.4</ele>
        <time>2018-08-11T17:32:43Z</time>
      </trkpt>
      <trkpt lat="4.5280800" lon="-74.2640380">
        <ele>2583.1</ele>
        <time>2018-08-11T17:32:44Z</time>
      </trkpt>
      <trkpt lat="4.5280420" lon="-74.2640400">
        <ele>2583.8</ele>
        <time>2018-08-11T17:32:45Z</time>
      </trkpt>
      <trkpt lat="4.5280020" lon="-74.2640430">
        <ele>2584.5</ele>
        <time>2018-08-11T17:32:46Z</time>
      </trkpt>
      <trkpt lat="4.5279630" lon="-74.2640480">
        <ele>2585.2</ele>
        <time>2018-08-11T17:32:47Z</time>
      </trkpt>
      <trkpt lat="4.5279250" lon="-74.2640480">
        <ele>2585.8</ele>
        <time>2018-08-11T17:32:48Z</time>
      </trkpt>
      <trkpt lat="4.5278850" lon="-74.2640450">
        <ele>2586.2</ele>
        <time>2018-08-11T17:32:49Z</time>
      </trkpt>
      <trkpt lat="4.5278500" lon="-74.2640430">
        <ele>2586.6</ele>
        <time>2018-08-11T17:32:50Z</time>
      </trkpt>
      <trkpt lat="4.5278150" lon="-74.2640450">
        <ele>2586.7</ele>
        <time>2018-08-11T17:32:51Z</time>
      </trkpt>
      <trkpt lat="4.5277770" lon="-74.2640470">
        <ele>2586.8</ele>
        <time>2018-08-11T17:32:52Z</time>
      </trkpt>
      <trkpt lat="4.5277400" lon="-74.2640520">
        <ele>2586.7</ele>
        <time>2018-08-11T17:32:53Z</time>
      </trkpt>
      <trkpt lat="4.5277080" lon="-74.2640580">
        <ele>2586.4</ele>
        <time>2018-08-11T17:32:54Z</time>
      </trkpt>
      <trkpt lat="4.5276720" lon="-74.2640670">
        <ele>2586.0</ele>
        <time>2018-08-11T17:32:55Z</time>
      </trkpt>
      <trkpt lat="4.5276320" lon="-74.2640670">
        <ele>2585.4</ele>
        <time>2018-08-11T17:32:56Z</time>
      </trkpt>
      <trkpt lat="4.5276030" lon="-74.2640630">
        <ele>2584.9</ele>
        <time>2018-08-11T17:32:57Z</time>
      </trkpt>
      <trkpt lat="4.5275720" lon="-74.2640680">
        <ele>2584.5</ele>
        <time>2018-08-11T17:32:58Z</time>
      </trkpt>
      <trkpt lat="4.5275420" lon="-74.2640700">
        <ele>2584.2</ele>
        <time>2018-08-11T17:32:59Z</time>
      </trkpt>
      <trkpt lat="4.5275150" lon="-74.2640750">
        <ele>2583.9</ele>
        <time>2018-08-11T17:33:00Z</time>
      </trkpt>
      <trkpt lat="4.5274850" lon="-74.2640780">
        <ele>2583.5</ele>
        <time>2018-08-11T17:33:01Z</time>
      </trkpt>
      <trkpt lat="4.5274520" lon="-74.2640820">
        <ele>2583.2</ele>
        <time>2018-08-11T17:33:02Z</time>
      </trkpt>
      <trkpt lat="4.5274100" lon="-74.2640820">
        <ele>2582.7</ele>
        <time>2018-08-11T17:33:03Z</time>
      </trkpt>
      <trkpt lat="4.5273700" lon="-74.2640880">
        <ele>2582.2</ele>
        <time>2018-08-11T17:33:04Z</time>
      </trkpt>
      <trkpt lat="4.5273300" lon="-74.2640950">
        <ele>2581.6</ele>
        <time>2018-08-11T17:33:05Z</time>
      </trkpt>
      <trkpt lat="4.5272970" lon="-74.2641030">
        <ele>2581.3</ele>
        <time>2018-08-11T17:33:06Z</time>
      </trkpt>
      <trkpt lat="4.5272670" lon="-74.2641050">
        <ele>2580.9</ele>
        <time>2018-08-11T17:33:07Z</time>
      </trkpt>
      <trkpt lat="4.5272330" lon="-74.2641130">
        <ele>2580.6</ele>
        <time>2018-08-11T17:33:08Z</time>
      </trkpt>
      <trkpt lat="4.5271950" lon="-74.2641220">
        <ele>2580.3</ele>
        <time>2018-08-11T17:33:09Z</time>
      </trkpt>
      <trkpt lat="4.5271550" lon="-74.2641320">
        <ele>2580.2</ele>
        <time>2018-08-11T17:33:10Z</time>
      </trkpt>
      <trkpt lat="4.5271130" lon="-74.2641380">
        <ele>2580.3</ele>
        <time>2018-08-11T17:33:11Z</time>
      </trkpt>
      <trkpt lat="4.5270670" lon="-74.2641520">
        <ele>2580.4</ele>
        <time>2018-08-11T17:33:12Z</time>
      </trkpt>
      <trkpt lat="4.5270250" lon="-74.2641600">
        <ele>2580.3</ele>
        <time>2018-08-11T17:33:13Z</time>
      </trkpt>
      <trkpt lat="4.5269870" lon="-74.2641720">
        <ele>2580.3</ele>
        <time>2018-08-11T17:33:14Z</time>
      </trkpt>
      <trkpt lat="4.5269470" lon="-74.2641780">
        <ele>2580.2</ele>
        <time>2018-08-11T17:33:15Z</time>
      </trkpt>
      <trkpt lat="4.5269080" lon="-74.2641830">
        <ele>2580.0</ele>
        <time>2018-08-11T17:33:16Z</time>
      </trkpt>
      <trkpt lat="4.5268670" lon="-74.2641880">
        <ele>2579.8</ele>
        <time>2018-08-11T17:33:17Z</time>
      </trkpt>
      <trkpt lat="4.5268270" lon="-74.2641920">
        <ele>2579.5</ele>
        <time>2018-08-11T17:33:18Z</time>
      </trkpt>
      <trkpt lat="4.5267830" lon="-74.2641970">
        <ele>2579.2</ele>
        <time>2018-08-11T17:33:19Z</time>
      </trkpt>
      <trkpt lat="4.5267400" lon="-74.2642070">
        <ele>2579.0</ele>
        <time>2018-08-11T17:33:20Z</time>
      </trkpt>
      <trkpt lat="4.5267020" lon="-74.2642200">
        <ele>2579.1</ele>
        <time>2018-08-11T17:33:21Z</time>
      </trkpt>
      <trkpt lat="4.5266630" lon="-74.2642320">
        <ele>2579.3</ele>
        <time>2018-08-11T17:33:22Z</time>
      </trkpt>
      <trkpt lat="4.5266250" lon="-74.2642400">
        <ele>2579.4</ele>
        <time>2018-08-11T17:33:23Z</time>
      </trkpt>
      <trkpt lat="4.5265900" lon="-74.2642470">
        <ele>2579.4</ele>
        <time>2018-08-11T17:33:24Z</time>
      </trkpt>
      <trkpt lat="4.5265530" lon="-74.2642570">
        <ele>2579.8</ele>
        <time>2018-08-11T17:33:25Z</time>
      </trkpt>
      <trkpt lat="4.5265130" lon="-74.2642680">
        <ele>2580.3</ele>
        <time>2018-08-11T17:33:26Z</time>
      </trkpt>
      <trkpt lat="4.5264730" lon="-74.2642820">
        <ele>2580.5</ele>
        <time>2018-08-11T17:33:27Z</time>
      </trkpt>
      <trkpt lat="4.5264370" lon="-74.2642980">
        <ele>2580.5</ele>
        <time>2018-08-11T17:33:28Z</time>
      </trkpt>
      <trkpt lat="4.5264020" lon="-74.2643180">
        <ele>2580.5</ele>
        <time>2018-08-11T17:33:29Z</time>
      </trkpt>
      <trkpt lat="4.5263680" lon="-74.2643380">
        <ele>2580.7</ele>
        <time>2018-08-11T17:33:30Z</time>
      </trkpt>
      <trkpt lat="4.5263330" lon="-74.2643600">
        <ele>2580.8</ele>
        <time>2018-08-11T17:33:31Z</time>
      </trkpt>
      <trkpt lat="4.5262980" lon="-74.2643780">
        <ele>2580.8</ele>
        <time>2018-08-11T17:33:32Z</time>
      </trkpt>
      <trkpt lat="4.5262620" lon="-74.2643930">
        <ele>2580.8</ele>
        <time>2018-08-11T17:33:33Z</time>
      </trkpt>
      <trkpt lat="4.5262230" lon="-74.2644050">
        <ele>2580.4</ele>
        <time>2018-08-11T17:33:34Z</time>
      </trkpt>
      <trkpt lat="4.5261850" lon="-74.2644130">
        <ele>2579.9</ele>
        <time>2018-08-11T17:33:35Z</time>
      </trkpt>
      <trkpt lat="4.5261450" lon="-74.2644200">
        <ele>2579.6</ele>
        <time>2018-08-11T17:33:36Z</time>
      </trkpt>
      <trkpt lat="4.5261030" lon="-74.2644230">
        <ele>2579.3</ele>
        <time>2018-08-11T17:33:37Z</time>
      </trkpt>
      <trkpt lat="4.5260630" lon="-74.2644300">
        <ele>2579.0</ele>
        <time>2018-08-11T17:33:38Z</time>
      </trkpt>
      <trkpt lat="4.5260230" lon="-74.2644350">
        <ele>2578.7</ele>
        <time>2018-08-11T17:33:39Z</time>
      </trkpt>
      <trkpt lat="4.5259820" lon="-74.2644420">
        <ele>2578.5</ele>
        <time>2018-08-11T17:33:40Z</time>
      </trkpt>
      <trkpt lat="4.5259420" lon="-74.2644530">
        <ele>2578.5</ele>
        <time>2018-08-11T17:33:41Z</time>
      </trkpt>
      <trkpt lat="4.5259020" lon="-74.2644700">
        <ele>2578.6</ele>
        <time>2018-08-11T17:33:42Z</time>
      </trkpt>
      <trkpt lat="4.5258600" lon="-74.2644900">
        <ele>2578.9</ele>
        <time>2018-08-11T17:33:43Z</time>
      </trkpt>
      <trkpt lat="4.5258180" lon="-74.2645100">
        <ele>2579.4</ele>
        <time>2018-08-11T17:33:44Z</time>
      </trkpt>
      <trkpt lat="4.5257800" lon="-74.2645320">
        <ele>2580.1</ele>
        <time>2018-08-11T17:33:45Z</time>
      </trkpt>
      <trkpt lat="4.5257370" lon="-74.2645500">
        <ele>2581.0</ele>
        <time>2018-08-11T17:33:46Z</time>
      </trkpt>
      <trkpt lat="4.5256950" lon="-74.2645580">
        <ele>2582.0</ele>
        <time>2018-08-11T17:33:47Z</time>
      </trkpt>
      <trkpt lat="4.5256570" lon="-74.2645630">
        <ele>2582.9</ele>
        <time>2018-08-11T17:33:48Z</time>
      </trkpt>
      <trkpt lat="4.5256170" lon="-74.2645680">
        <ele>2583.5</ele>
        <time>2018-08-11T17:33:49Z</time>
      </trkpt>
      <trkpt lat="4.5255770" lon="-74.2645780">
        <ele>2584.0</ele>
        <time>2018-08-11T17:33:50Z</time>
      </trkpt>
      <trkpt lat="4.5255380" lon="-74.2645950">
        <ele>2584.4</ele>
        <time>2018-08-11T17:33:51Z</time>
      </trkpt>
      <trkpt lat="4.5255000" lon="-74.2646120">
        <ele>2584.8</ele>
        <time>2018-08-11T17:33:52Z</time>
      </trkpt>
      <trkpt lat="4.5254620" lon="-74.2646250">
        <ele>2585.1</ele>
        <time>2018-08-11T17:33:53Z</time>
      </trkpt>
      <trkpt lat="4.5254180" lon="-74.2646370">
        <ele>2585.4</ele>
        <time>2018-08-11T17:33:54Z</time>
      </trkpt>
      <trkpt lat="4.5253750" lon="-74.2646480">
        <ele>2585.5</ele>
        <time>2018-08-11T17:33:55Z</time>
      </trkpt>
      <trkpt lat="4.5253330" lon="-74.2646650">
        <ele>2585.6</ele>
        <time>2018-08-11T17:33:56Z</time>
      </trkpt>
      <trkpt lat="4.5252900" lon="-74.2646800">
        <ele>2585.4</ele>
        <time>2018-08-11T17:33:57Z</time>
      </trkpt>
      <trkpt lat="4.5252480" lon="-74.2646950">
        <ele>2585.2</ele>
        <time>2018-08-11T17:33:58Z</time>
      </trkpt>
      <trkpt lat="4.5252070" lon="-74.2647150">
        <ele>2585.0</ele>
        <time>2018-08-11T17:33:59Z</time>
      </trkpt>
      <trkpt lat="4.5251650" lon="-74.2647370">
        <ele>2584.8</ele>
        <time>2018-08-11T17:34:00Z</time>
      </trkpt>
      <trkpt lat="4.5251220" lon="-74.2647530">
        <ele>2584.8</ele>
        <time>2018-08-11T17:34:01Z</time>
      </trkpt>
      <trkpt lat="4.5250800" lon="-74.2647680">
        <ele>2584.7</ele>
        <time>2018-08-11T17:34:02Z</time>
      </trkpt>
      <trkpt lat="4.5250370" lon="-74.2647830">
        <ele>2584.9</ele>
        <time>2018-08-11T17:34:03Z</time>
      </trkpt>
      <trkpt lat="4.5249930" lon="-74.2647970">
        <ele>2585.1</ele>
        <time>2018-08-11T17:34:04Z</time>
      </trkpt>
      <trkpt lat="4.5249480" lon="-74.2648130">
        <ele>2585.4</ele>
        <time>2018-08-11T17:34:05Z</time>
      </trkpt>
      <trkpt lat="4.5249050" lon="-74.2648320">
        <ele>2585.6</ele>
        <time>2018-08-11T17:34:06Z</time>
      </trkpt>
      <trkpt lat="4.5248630" lon="-74.2648470">
        <ele>2585.9</ele>
        <time>2018-08-11T17:34:07Z</time>
      </trkpt>
      <trkpt lat="4.5248130" lon="-74.2648550">
        <ele>2586.0</ele>
        <time>2018-08-11T17:34:08Z</time>
      </trkpt>
      <trkpt lat="4.5247650" lon="-74.2648600">
        <ele>2586.1</ele>
        <time>2018-08-11T17:34:09Z</time>
      </trkpt>
      <trkpt lat="4.5247100" lon="-74.2648670">
        <ele>2585.8</ele>
        <time>2018-08-11T17:34:10Z</time>
      </trkpt>
      <trkpt lat="4.5246620" lon="-74.2648770">
        <ele>2585.3</ele>
        <time>2018-08-11T17:34:11Z</time>
      </trkpt>
      <trkpt lat="4.5246080" lon="-74.2648880">
        <ele>2584.6</ele>
        <time>2018-08-11T17:34:12Z</time>
      </trkpt>
      <trkpt lat="4.5245580" lon="-74.2649050">
        <ele>2583.9</ele>
        <time>2018-08-11T17:34:13Z</time>
      </trkpt>
      <trkpt lat="4.5245020" lon="-74.2649230">
        <ele>2583.1</ele>
        <time>2018-08-11T17:34:14Z</time>
      </trkpt>
      <trkpt lat="4.5244520" lon="-74.2649430">
        <ele>2582.3</ele>
        <time>2018-08-11T17:34:15Z</time>
      </trkpt>
      <trkpt lat="4.5244020" lon="-74.2649620">
        <ele>2581.4</ele>
        <time>2018-08-11T17:34:16Z</time>
      </trkpt>
      <trkpt lat="4.5243520" lon="-74.2649800">
        <ele>2580.6</ele>
        <time>2018-08-11T17:34:17Z</time>
      </trkpt>
      <trkpt lat="4.5243020" lon="-74.2649970">
        <ele>2579.9</ele>
        <time>2018-08-11T17:34:18Z</time>
      </trkpt>
      <trkpt lat="4.5242530" lon="-74.2650100">
        <ele>2579.5</ele>
        <time>2018-08-11T17:34:19Z</time>
      </trkpt>
      <trkpt lat="4.5242050" lon="-74.2650230">
        <ele>2579.1</ele>
        <time>2018-08-11T17:34:20Z</time>
      </trkpt>
      <trkpt lat="4.5241620" lon="-74.2650380">
        <ele>2578.6</ele>
        <time>2018-08-11T17:34:21Z</time>
      </trkpt>
      <trkpt lat="4.5241200" lon="-74.2650580">
        <ele>2578.4</ele>
        <time>2018-08-11T17:34:22Z</time>
      </trkpt>
      <trkpt lat="4.5240770" lon="-74.2650780">
        <ele>2578.2</ele>
        <time>2018-08-11T17:34:23Z</time>
      </trkpt>
      <trkpt lat="4.5240330" lon="-74.2650980">
        <ele>2578.0</ele>
        <time>2018-08-11T17:34:24Z</time>
      </trkpt>
      <trkpt lat="4.5239920" lon="-74.2651130">
        <ele>2577.9</ele>
        <time>2018-08-11T17:34:25Z</time>
      </trkpt>
      <trkpt lat="4.5239480" lon="-74.2651270">
        <ele>2577.6</ele>
        <time>2018-08-11T17:34:26Z</time>
      </trkpt>
      <trkpt lat="4.5239080" lon="-74.2651370">
        <ele>2577.4</ele>
        <time>2018-08-11T17:34:27Z</time>
      </trkpt>
      <trkpt lat="4.5238680" lon="-74.2651470">
        <ele>2577.5</ele>
        <time>2018-08-11T17:34:28Z</time>
      </trkpt>
      <trkpt lat="4.5238280" lon="-74.2651530">
        <ele>2577.6</ele>
        <time>2018-08-11T17:34:29Z</time>
      </trkpt>
      <trkpt lat="4.5237870" lon="-74.2651550">
        <ele>2577.9</ele>
        <time>2018-08-11T17:34:30Z</time>
      </trkpt>
      <trkpt lat="4.5237420" lon="-74.2651580">
        <ele>2578.2</ele>
        <time>2018-08-11T17:34:31Z</time>
      </trkpt>
      <trkpt lat="4.5236970" lon="-74.2651650">
        <ele>2578.7</ele>
        <time>2018-08-11T17:34:32Z</time>
      </trkpt>
      <trkpt lat="4.5236500" lon="-74.2651780">
        <ele>2579.3</ele>
        <time>2018-08-11T17:34:33Z</time>
      </trkpt>
      <trkpt lat="4.5236080" lon="-74.2651970">
        <ele>2579.8</ele>
        <time>2018-08-11T17:34:34Z</time>
      </trkpt>
      <trkpt lat="4.5235700" lon="-74.2652150">
        <ele>2580.4</ele>
        <time>2018-08-11T17:34:35Z</time>
      </trkpt>
      <trkpt lat="4.5235320" lon="-74.2652280">
        <ele>2580.7</ele>
        <time>2018-08-11T17:34:36Z</time>
      </trkpt>
      <trkpt lat="4.5234950" lon="-74.2652370">
        <ele>2581.0</ele>
        <time>2018-08-11T17:34:37Z</time>
      </trkpt>
      <trkpt lat="4.5234570" lon="-74.2652430">
        <ele>2581.6</ele>
        <time>2018-08-11T17:34:38Z</time>
      </trkpt>
      <trkpt lat="4.5234220" lon="-74.2652550">
        <ele>2582.5</ele>
        <time>2018-08-11T17:34:39Z</time>
      </trkpt>
      <trkpt lat="4.5233850" lon="-74.2652770">
        <ele>2583.2</ele>
        <time>2018-08-11T17:34:40Z</time>
      </trkpt>
      <trkpt lat="4.5233470" lon="-74.2652950">
        <ele>2583.5</ele>
        <time>2018-08-11T17:34:41Z</time>
      </trkpt>
      <trkpt lat="4.5233050" lon="-74.2653070">
        <ele>2583.9</ele>
        <time>2018-08-11T17:34:42Z</time>
      </trkpt>
      <trkpt lat="4.5232630" lon="-74.2653150">
        <ele>2584.9</ele>
        <time>2018-08-11T17:34:43Z</time>
      </trkpt>
      <trkpt lat="4.5232230" lon="-74.2653230">
        <ele>2585.8</ele>
        <time>2018-08-11T17:34:44Z</time>
      </trkpt>
      <trkpt lat="4.5231820" lon="-74.2653280">
        <ele>2586.7</ele>
        <time>2018-08-11T17:34:45Z</time>
      </trkpt>
      <trkpt lat="4.5231380" lon="-74.2653380">
        <ele>2587.5</ele>
        <time>2018-08-11T17:34:46Z</time>
      </trkpt>
      <trkpt lat="4.5230950" lon="-74.2653530">
        <ele>2587.5</ele>
        <time>2018-08-11T17:34:47Z</time>
      </trkpt>
      <trkpt lat="4.5230530" lon="-74.2653630">
        <ele>2587.4</ele>
        <time>2018-08-11T17:34:48Z</time>
      </trkpt>
      <trkpt lat="4.5230120" lon="-74.2653750">
        <ele>2587.7</ele>
        <time>2018-08-11T17:34:49Z</time>
      </trkpt>
      <trkpt lat="4.5229730" lon="-74.2653900">
        <ele>2588.0</ele>
        <time>2018-08-11T17:34:50Z</time>
      </trkpt>
      <trkpt lat="4.5229370" lon="-74.2653980">
        <ele>2587.7</ele>
        <time>2018-08-11T17:34:51Z</time>
      </trkpt>
      <trkpt lat="4.5228980" lon="-74.2654150">
        <ele>2587.3</ele>
        <time>2018-08-11T17:34:52Z</time>
      </trkpt>
      <trkpt lat="4.5228570" lon="-74.2654300">
        <ele>2587.6</ele>
        <time>2018-08-11T17:34:53Z</time>
      </trkpt>
      <trkpt lat="4.5228170" lon="-74.2654480">
        <ele>2588.0</ele>
        <time>2018-08-11T17:34:54Z</time>
      </trkpt>
      <trkpt lat="4.5227770" lon="-74.2654650">
        <ele>2588.7</ele>
        <time>2018-08-11T17:34:55Z</time>
      </trkpt>
      <trkpt lat="4.5227330" lon="-74.2654800">
        <ele>2589.6</ele>
        <time>2018-08-11T17:34:56Z</time>
      </trkpt>
      <trkpt lat="4.5226900" lon="-74.2654920">
        <ele>2590.3</ele>
        <time>2018-08-11T17:34:57Z</time>
      </trkpt>
      <trkpt lat="4.5226480" lon="-74.2655080">
        <ele>2590.8</ele>
        <time>2018-08-11T17:34:58Z</time>
      </trkpt>
      <trkpt lat="4.5226050" lon="-74.2655230">
        <ele>2591.7</ele>
        <time>2018-08-11T17:34:59Z</time>
      </trkpt>
      <trkpt lat="4.5225620" lon="-74.2655350">
        <ele>2592.6</ele>
        <time>2018-08-11T17:35:00Z</time>
      </trkpt>
      <trkpt lat="4.5225200" lon="-74.2655550">
        <ele>2593.2</ele>
        <time>2018-08-11T17:35:01Z</time>
      </trkpt>
      <trkpt lat="4.5224780" lon="-74.2655680">
        <ele>2593.7</ele>
        <time>2018-08-11T17:35:02Z</time>
      </trkpt>
      <trkpt lat="4.5224350" lon="-74.2655780">
        <ele>2593.5</ele>
        <time>2018-08-11T17:35:03Z</time>
      </trkpt>
      <trkpt lat="4.5223950" lon="-74.2655850">
        <ele>2593.2</ele>
        <time>2018-08-11T17:35:04Z</time>
      </trkpt>
      <trkpt lat="4.5223570" lon="-74.2655920">
        <ele>2592.9</ele>
        <time>2018-08-11T17:35:05Z</time>
      </trkpt>
      <trkpt lat="4.5223200" lon="-74.2656000">
        <ele>2592.6</ele>
        <time>2018-08-11T17:35:06Z</time>
      </trkpt>
      <trkpt lat="4.5222880" lon="-74.2656120">
        <ele>2592.3</ele>
        <time>2018-08-11T17:35:07Z</time>
      </trkpt>
      <trkpt lat="4.5222580" lon="-74.2656270">
        <ele>2591.8</ele>
        <time>2018-08-11T17:35:08Z</time>
      </trkpt>
      <trkpt lat="4.5222250" lon="-74.2656470">
        <ele>2591.2</ele>
        <time>2018-08-11T17:35:09Z</time>
      </trkpt>
      <trkpt lat="4.5221930" lon="-74.2656670">
        <ele>2590.4</ele>
        <time>2018-08-11T17:35:10Z</time>
      </trkpt>
      <trkpt lat="4.5221620" lon="-74.2656850">
        <ele>2589.6</ele>
        <time>2018-08-11T17:35:11Z</time>
      </trkpt>
      <trkpt lat="4.5221300" lon="-74.2657020">
        <ele>2588.8</ele>
        <time>2018-08-11T17:35:12Z</time>
      </trkpt>
      <trkpt lat="4.5220970" lon="-74.2657170">
        <ele>2588.0</ele>
        <time>2018-08-11T17:35:13Z</time>
      </trkpt>
      <trkpt lat="4.5220580" lon="-74.2657320">
        <ele>2587.1</ele>
        <time>2018-08-11T17:35:14Z</time>
      </trkpt>
      <trkpt lat="4.5220230" lon="-74.2657500">
        <ele>2586.1</ele>
        <time>2018-08-11T17:35:15Z</time>
      </trkpt>
      <trkpt lat="4.5219850" lon="-74.2657600">
        <ele>2585.2</ele>
        <time>2018-08-11T17:35:16Z</time>
      </trkpt>
      <trkpt lat="4.5219350" lon="-74.2657670">
        <ele>2583.8</ele>
        <time>2018-08-11T17:35:17Z</time>
      </trkpt>
      <trkpt lat="4.5218930" lon="-74.2657720">
        <ele>2582.9</ele>
        <time>2018-08-11T17:35:18Z</time>
      </trkpt>
      <trkpt lat="4.5218580" lon="-74.2657850">
        <ele>2582.8</ele>
        <time>2018-08-11T17:35:19Z</time>
      </trkpt>
      <trkpt lat="4.5218200" lon="-74.2658000">
        <ele>2582.6</ele>
        <time>2018-08-11T17:35:20Z</time>
      </trkpt>
      <trkpt lat="4.5217820" lon="-74.2658170">
        <ele>2582.1</ele>
        <time>2018-08-11T17:35:21Z</time>
      </trkpt>
      <trkpt lat="4.5217430" lon="-74.2658320">
        <ele>2581.6</ele>
        <time>2018-08-11T17:35:22Z</time>
      </trkpt>
      <trkpt lat="4.5216970" lon="-74.2658420">
        <ele>2580.8</ele>
        <time>2018-08-11T17:35:23Z</time>
      </trkpt>
      <trkpt lat="4.5216520" lon="-74.2658530">
        <ele>2580.0</ele>
        <time>2018-08-11T17:35:24Z</time>
      </trkpt>
      <trkpt lat="4.5216080" lon="-74.2658680">
        <ele>2580.0</ele>
        <time>2018-08-11T17:35:25Z</time>
      </trkpt>
      <trkpt lat="4.5215620" lon="-74.2658800">
        <ele>2579.9</ele>
        <time>2018-08-11T17:35:26Z</time>
      </trkpt>
      <trkpt lat="4.5215170" lon="-74.2658930">
        <ele>2580.0</ele>
        <time>2018-08-11T17:35:27Z</time>
      </trkpt>
      <trkpt lat="4.5214750" lon="-74.2659070">
        <ele>2580.1</ele>
        <time>2018-08-11T17:35:28Z</time>
      </trkpt>
      <trkpt lat="4.5214320" lon="-74.2659180">
        <ele>2580.6</ele>
        <time>2018-08-11T17:35:29Z</time>
      </trkpt>
      <trkpt lat="4.5213850" lon="-74.2659300">
        <ele>2581.2</ele>
        <time>2018-08-11T17:35:30Z</time>
      </trkpt>
      <trkpt lat="4.5213430" lon="-74.2659400">
        <ele>2581.7</ele>
        <time>2018-08-11T17:35:31Z</time>
      </trkpt>
      <trkpt lat="4.5212980" lon="-74.2659500">
        <ele>2582.1</ele>
        <time>2018-08-11T17:35:32Z</time>
      </trkpt>
      <trkpt lat="4.5212550" lon="-74.2659580">
        <ele>2582.4</ele>
        <time>2018-08-11T17:35:33Z</time>
      </trkpt>
      <trkpt lat="4.5212080" lon="-74.2659680">
        <ele>2582.7</ele>
        <time>2018-08-11T17:35:34Z</time>
      </trkpt>
      <trkpt lat="4.5211630" lon="-74.2659780">
        <ele>2583.1</ele>
        <time>2018-08-11T17:35:35Z</time>
      </trkpt>
      <trkpt lat="4.5211180" lon="-74.2659920">
        <ele>2583.3</ele>
        <time>2018-08-11T17:35:36Z</time>
      </trkpt>
      <trkpt lat="4.5210720" lon="-74.2660070">
        <ele>2583.4</ele>
        <time>2018-08-11T17:35:37Z</time>
      </trkpt>
      <trkpt lat="4.5210230" lon="-74.2660200">
        <ele>2583.0</ele>
        <time>2018-08-11T17:35:38Z</time>
      </trkpt>
      <trkpt lat="4.5209750" lon="-74.2660320">
        <ele>2582.4</ele>
        <time>2018-08-11T17:35:39Z</time>
      </trkpt>
      <trkpt lat="4.5209300" lon="-74.2660480">
        <ele>2582.1</ele>
        <time>2018-08-11T17:35:40Z</time>
      </trkpt>
      <trkpt lat="4.5208850" lon="-74.2660600">
        <ele>2581.9</ele>
        <time>2018-08-11T17:35:41Z</time>
      </trkpt>
      <trkpt lat="4.5208430" lon="-74.2660700">
        <ele>2581.7</ele>
        <time>2018-08-11T17:35:42Z</time>
      </trkpt>
      <trkpt lat="4.5208020" lon="-74.2660800">
        <ele>2581.4</ele>
        <time>2018-08-11T17:35:43Z</time>
      </trkpt>
      <trkpt lat="4.5207630" lon="-74.2660880">
        <ele>2581.5</ele>
        <time>2018-08-11T17:35:44Z</time>
      </trkpt>
      <trkpt lat="4.5207200" lon="-74.2660970">
        <ele>2581.7</ele>
        <time>2018-08-11T17:35:45Z</time>
      </trkpt>
      <trkpt lat="4.5206780" lon="-74.2661080">
        <ele>2581.7</ele>
        <time>2018-08-11T17:35:46Z</time>
      </trkpt>
      <trkpt lat="4.5206270" lon="-74.2661250">
        <ele>2581.7</ele>
        <time>2018-08-11T17:35:47Z</time>
      </trkpt>
      <trkpt lat="4.5205770" lon="-74.2661420">
        <ele>2582.1</ele>
        <time>2018-08-11T17:35:48Z</time>
      </trkpt>
      <trkpt lat="4.5205300" lon="-74.2661550">
        <ele>2582.3</ele>
        <time>2018-08-11T17:35:49Z</time>
      </trkpt>
      <trkpt lat="4.5204850" lon="-74.2661670">
        <ele>2582.4</ele>
        <time>2018-08-11T17:35:50Z</time>
      </trkpt>
      <trkpt lat="4.5204400" lon="-74.2661770">
        <ele>2582.4</ele>
        <time>2018-08-11T17:35:51Z</time>
      </trkpt>
      <trkpt lat="4.5203930" lon="-74.2661850">
        <ele>2582.5</ele>
        <time>2018-08-11T17:35:52Z</time>
      </trkpt>
      <trkpt lat="4.5203500" lon="-74.2661950">
        <ele>2582.8</ele>
        <time>2018-08-11T17:35:53Z</time>
      </trkpt>
      <trkpt lat="4.5203080" lon="-74.2662070">
        <ele>2583.5</ele>
        <time>2018-08-11T17:35:54Z</time>
      </trkpt>
      <trkpt lat="4.5202670" lon="-74.2662170">
        <ele>2584.0</ele>
        <time>2018-08-11T17:35:55Z</time>
      </trkpt>
      <trkpt lat="4.5202250" lon="-74.2662250">
        <ele>2584.0</ele>
        <time>2018-08-11T17:35:56Z</time>
      </trkpt>
      <trkpt lat="4.5201830" lon="-74.2662320">
        <ele>2584.4</ele>
        <time>2018-08-11T17:35:57Z</time>
      </trkpt>
      <trkpt lat="4.5201420" lon="-74.2662350">
        <ele>2585.2</ele>
        <time>2018-08-11T17:35:58Z</time>
      </trkpt>
      <trkpt lat="4.5201000" lon="-74.2662420">
        <ele>2586.0</ele>
        <time>2018-08-11T17:35:59Z</time>
      </trkpt>
      <trkpt lat="4.5200600" lon="-74.2662520">
        <ele>2586.3</ele>
        <time>2018-08-11T17:36:00Z</time>
      </trkpt>
      <trkpt lat="4.5200180" lon="-74.2662620">
        <ele>2586.7</ele>
        <time>2018-08-11T17:36:01Z</time>
      </trkpt>
      <trkpt lat="4.5199750" lon="-74.2662680">
        <ele>2587.9</ele>
        <time>2018-08-11T17:36:02Z</time>
      </trkpt>
      <trkpt lat="4.5199370" lon="-74.2662750">
        <ele>2588.9</ele>
        <time>2018-08-11T17:36:03Z</time>
      </trkpt>
      <trkpt lat="4.5198980" lon="-74.2662820">
        <ele>2589.2</ele>
        <time>2018-08-11T17:36:04Z</time>
      </trkpt>
      <trkpt lat="4.5198600" lon="-74.2662870">
        <ele>2589.5</ele>
        <time>2018-08-11T17:36:05Z</time>
      </trkpt>
      <trkpt lat="4.5198200" lon="-74.2662920">
        <ele>2589.6</ele>
        <time>2018-08-11T17:36:06Z</time>
      </trkpt>
      <trkpt lat="4.5197830" lon="-74.2662980">
        <ele>2589.6</ele>
        <time>2018-08-11T17:36:07Z</time>
      </trkpt>
      <trkpt lat="4.5197430" lon="-74.2663050">
        <ele>2589.6</ele>
        <time>2018-08-11T17:36:08Z</time>
      </trkpt>
      <trkpt lat="4.5197030" lon="-74.2663150">
        <ele>2589.4</ele>
        <time>2018-08-11T17:36:09Z</time>
      </trkpt>
      <trkpt lat="4.5196630" lon="-74.2663230">
        <ele>2589.4</ele>
        <time>2018-08-11T17:36:10Z</time>
      </trkpt>
      <trkpt lat="4.5196230" lon="-74.2663280">
        <ele>2589.6</ele>
        <time>2018-08-11T17:36:11Z</time>
      </trkpt>
      <trkpt lat="4.5195800" lon="-74.2663320">
        <ele>2589.6</ele>
        <time>2018-08-11T17:36:12Z</time>
      </trkpt>
      <trkpt lat="4.5195370" lon="-74.2663330">
        <ele>2588.9</ele>
        <time>2018-08-11T17:36:13Z</time>
      </trkpt>
      <trkpt lat="4.5194930" lon="-74.2663350">
        <ele>2588.2</ele>
        <time>2018-08-11T17:36:14Z</time>
      </trkpt>
      <trkpt lat="4.5194480" lon="-74.2663370">
        <ele>2587.4</ele>
        <time>2018-08-11T17:36:15Z</time>
      </trkpt>
      <trkpt lat="4.5194020" lon="-74.2663430">
        <ele>2586.6</ele>
        <time>2018-08-11T17:36:16Z</time>
      </trkpt>
      <trkpt lat="4.5193570" lon="-74.2663530">
        <ele>2586.0</ele>
        <time>2018-08-11T17:36:17Z</time>
      </trkpt>
      <trkpt lat="4.5193050" lon="-74.2663580">
        <ele>2585.9</ele>
        <time>2018-08-11T17:36:18Z</time>
      </trkpt>
      <trkpt lat="4.5192500" lon="-74.2663630">
        <ele>2586.2</ele>
        <time>2018-08-11T17:36:19Z</time>
      </trkpt>
      <trkpt lat="4.5191980" lon="-74.2663680">
        <ele>2585.8</ele>
        <time>2018-08-11T17:36:20Z</time>
      </trkpt>
      <trkpt lat="4.5191430" lon="-74.2663800">
        <ele>2585.4</ele>
        <time>2018-08-11T17:36:21Z</time>
      </trkpt>
      <trkpt lat="4.5190930" lon="-74.2663900">
        <ele>2585.0</ele>
        <time>2018-08-11T17:36:22Z</time>
      </trkpt>
      <trkpt lat="4.5190430" lon="-74.2663980">
        <ele>2584.9</ele>
        <time>2018-08-11T17:36:23Z</time>
      </trkpt>
      <trkpt lat="4.5189950" lon="-74.2664070">
        <ele>2584.8</ele>
        <time>2018-08-11T17:36:24Z</time>
      </trkpt>
      <trkpt lat="4.5189450" lon="-74.2664150">
        <ele>2584.4</ele>
        <time>2018-08-11T17:36:25Z</time>
      </trkpt>
      <trkpt lat="4.5188920" lon="-74.2664250">
        <ele>2583.8</ele>
        <time>2018-08-11T17:36:26Z</time>
      </trkpt>
      <trkpt lat="4.5188400" lon="-74.2664350">
        <ele>2583.1</ele>
        <time>2018-08-11T17:36:27Z</time>
      </trkpt>
      <trkpt lat="4.5187880" lon="-74.2664470">
        <ele>2582.3</ele>
        <time>2018-08-11T17:36:28Z</time>
      </trkpt>
      <trkpt lat="4.5187380" lon="-74.2664550">
        <ele>2581.5</ele>
        <time>2018-08-11T17:36:29Z</time>
      </trkpt>
      <trkpt lat="4.5186880" lon="-74.2664570">
        <ele>2581.3</ele>
        <time>2018-08-11T17:36:30Z</time>
      </trkpt>
      <trkpt lat="4.5186370" lon="-74.2664600">
        <ele>2581.0</ele>
        <time>2018-08-11T17:36:31Z</time>
      </trkpt>
      <trkpt lat="4.5185830" lon="-74.2664620">
        <ele>2580.7</ele>
        <time>2018-08-11T17:36:32Z</time>
      </trkpt>
      <trkpt lat="4.5185320" lon="-74.2664620">
        <ele>2580.5</ele>
        <time>2018-08-11T17:36:33Z</time>
      </trkpt>
      <trkpt lat="4.5184830" lon="-74.2664620">
        <ele>2580.4</ele>
        <time>2018-08-11T17:36:34Z</time>
      </trkpt>
      <trkpt lat="4.5184370" lon="-74.2664620">
        <ele>2580.5</ele>
        <time>2018-08-11T17:36:35Z</time>
      </trkpt>
      <trkpt lat="4.5183920" lon="-74.2664570">
        <ele>2580.5</ele>
        <time>2018-08-11T17:36:36Z</time>
      </trkpt>
      <trkpt lat="4.5183470" lon="-74.2664470">
        <ele>2580.4</ele>
        <time>2018-08-11T17:36:37Z</time>
      </trkpt>
      <trkpt lat="4.5183050" lon="-74.2664370">
        <ele>2580.4</ele>
        <time>2018-08-11T17:36:38Z</time>
      </trkpt>
      <trkpt lat="4.5182630" lon="-74.2664270">
        <ele>2580.2</ele>
        <time>2018-08-11T17:36:39Z</time>
      </trkpt>
      <trkpt lat="4.5182220" lon="-74.2664130">
        <ele>2580.0</ele>
        <time>2018-08-11T17:36:40Z</time>
      </trkpt>
      <trkpt lat="4.5181750" lon="-74.2663980">
        <ele>2580.0</ele>
        <time>2018-08-11T17:36:41Z</time>
      </trkpt>
      <trkpt lat="4.5181300" lon="-74.2663820">
        <ele>2580.0</ele>
        <time>2018-08-11T17:36:42Z</time>
      </trkpt>
      <trkpt lat="4.5180830" lon="-74.2663630">
        <ele>2579.9</ele>
        <time>2018-08-11T17:36:43Z</time>
      </trkpt>
      <trkpt lat="4.5180370" lon="-74.2663450">
        <ele>2579.7</ele>
        <time>2018-08-11T17:36:44Z</time>
      </trkpt>
      <trkpt lat="4.5179920" lon="-74.2663280">
        <ele>2579.8</ele>
        <time>2018-08-11T17:36:45Z</time>
      </trkpt>
      <trkpt lat="4.5179480" lon="-74.2663070">
        <ele>2580.1</ele>
        <time>2018-08-11T17:36:46Z</time>
      </trkpt>
      <trkpt lat="4.5179070" lon="-74.2662850">
        <ele>2580.1</ele>
        <time>2018-08-11T17:36:47Z</time>
      </trkpt>
      <trkpt lat="4.5178650" lon="-74.2662630">
        <ele>2580.2</ele>
        <time>2018-08-11T17:36:48Z</time>
      </trkpt>
      <trkpt lat="4.5178170" lon="-74.2662500">
        <ele>2580.4</ele>
        <time>2018-08-11T17:36:49Z</time>
      </trkpt>
      <trkpt lat="4.5177720" lon="-74.2662350">
        <ele>2580.5</ele>
        <time>2018-08-11T17:36:50Z</time>
      </trkpt>
      <trkpt lat="4.5177330" lon="-74.2662100">
        <ele>2580.6</ele>
        <time>2018-08-11T17:36:51Z</time>
      </trkpt>
      <trkpt lat="4.5177000" lon="-74.2661880">
        <ele>2580.5</ele>
        <time>2018-08-11T17:36:52Z</time>
      </trkpt>
      <trkpt lat="4.5176650" lon="-74.2661680">
        <ele>2580.3</ele>
        <time>2018-08-11T17:36:53Z</time>
      </trkpt>
      <trkpt lat="4.5176230" lon="-74.2661450">
        <ele>2580.1</ele>
        <time>2018-08-11T17:36:54Z</time>
      </trkpt>
      <trkpt lat="4.5175830" lon="-74.2661280">
        <ele>2579.9</ele>
        <time>2018-08-11T17:36:55Z</time>
      </trkpt>
      <trkpt lat="4.5175430" lon="-74.2661150">
        <ele>2580.0</ele>
        <time>2018-08-11T17:36:56Z</time>
      </trkpt>
      <trkpt lat="4.5175020" lon="-74.2660970">
        <ele>2580.2</ele>
        <time>2018-08-11T17:36:57Z</time>
      </trkpt>
      <trkpt lat="4.5174630" lon="-74.2660750">
        <ele>2580.6</ele>
        <time>2018-08-11T17:36:58Z</time>
      </trkpt>
      <trkpt lat="4.5174320" lon="-74.2660530">
        <ele>2580.8</ele>
        <time>2018-08-11T17:36:59Z</time>
      </trkpt>
      <trkpt lat="4.5174000" lon="-74.2660330">
        <ele>2580.9</ele>
        <time>2018-08-11T17:37:00Z</time>
      </trkpt>
      <trkpt lat="4.5173670" lon="-74.2660120">
        <ele>2581.2</ele>
        <time>2018-08-11T17:37:01Z</time>
      </trkpt>
      <trkpt lat="4.5173330" lon="-74.2659970">
        <ele>2581.6</ele>
        <time>2018-08-11T17:37:02Z</time>
      </trkpt>
      <trkpt lat="4.5172980" lon="-74.2659820">
        <ele>2581.8</ele>
        <time>2018-08-11T17:37:03Z</time>
      </trkpt>
      <trkpt lat="4.5172630" lon="-74.2659630">
        <ele>2582.0</ele>
        <time>2018-08-11T17:37:04Z</time>
      </trkpt>
      <trkpt lat="4.5172300" lon="-74.2659450">
        <ele>2582.6</ele>
        <time>2018-08-11T17:37:05Z</time>
      </trkpt>
      <trkpt lat="4.5171950" lon="-74.2659300">
        <ele>2583.3</ele>
        <time>2018-08-11T17:37:06Z</time>
      </trkpt>
      <trkpt lat="4.5171580" lon="-74.2659120">
        <ele>2583.7</ele>
        <time>2018-08-11T17:37:07Z</time>
      </trkpt>
      <trkpt lat="4.5171230" lon="-74.2658930">
        <ele>2584.0</ele>
        <time>2018-08-11T17:37:08Z</time>
      </trkpt>
      <trkpt lat="4.5170900" lon="-74.2658750">
        <ele>2584.0</ele>
        <time>2018-08-11T17:37:09Z</time>
      </trkpt>
      <trkpt lat="4.5170570" lon="-74.2658550">
        <ele>2584.1</ele>
        <time>2018-08-11T17:37:10Z</time>
      </trkpt>
      <trkpt lat="4.5170250" lon="-74.2658330">
        <ele>2584.0</ele>
        <time>2018-08-11T17:37:11Z</time>
      </trkpt>
      <trkpt lat="4.5169970" lon="-74.2658130">
        <ele>2583.9</ele>
        <time>2018-08-11T17:37:12Z</time>
      </trkpt>
      <trkpt lat="4.5169670" lon="-74.2657980">
        <ele>2583.7</ele>
        <time>2018-08-11T17:37:13Z</time>
      </trkpt>
      <trkpt lat="4.5169350" lon="-74.2657830">
        <ele>2583.3</ele>
        <time>2018-08-11T17:37:14Z</time>
      </trkpt>
      <trkpt lat="4.5168980" lon="-74.2657720">
        <ele>2582.8</ele>
        <time>2018-08-11T17:37:15Z</time>
      </trkpt>
      <trkpt lat="4.5168620" lon="-74.2657630">
        <ele>2582.2</ele>
        <time>2018-08-11T17:37:16Z</time>
      </trkpt>
      <trkpt lat="4.5168220" lon="-74.2657530">
        <ele>2581.6</ele>
        <time>2018-08-11T17:37:17Z</time>
      </trkpt>
      <trkpt lat="4.5167830" lon="-74.2657470">
        <ele>2581.2</ele>
        <time>2018-08-11T17:37:18Z</time>
      </trkpt>
      <trkpt lat="4.5167480" lon="-74.2657380">
        <ele>2580.9</ele>
        <time>2018-08-11T17:37:19Z</time>
      </trkpt>
      <trkpt lat="4.5167170" lon="-74.2657320">
        <ele>2580.6</ele>
        <time>2018-08-11T17:37:20Z</time>
      </trkpt>
      <trkpt lat="4.5166780" lon="-74.2657320">
        <ele>2580.2</ele>
        <time>2018-08-11T17:37:21Z</time>
      </trkpt>
      <trkpt lat="4.5166450" lon="-74.2657370">
        <ele>2580.1</ele>
        <time>2018-08-11T17:37:22Z</time>
      </trkpt>
      <trkpt lat="4.5166130" lon="-74.2657430">
        <ele>2580.1</ele>
        <time>2018-08-11T17:37:23Z</time>
      </trkpt>
      <trkpt lat="4.5165820" lon="-74.2657570">
        <ele>2580.3</ele>
        <time>2018-08-11T17:37:24Z</time>
      </trkpt>
      <trkpt lat="4.5165530" lon="-74.2657720">
        <ele>2580.6</ele>
        <time>2018-08-11T17:37:25Z</time>
      </trkpt>
      <trkpt lat="4.5165230" lon="-74.2657850">
        <ele>2580.6</ele>
        <time>2018-08-11T17:37:26Z</time>
      </trkpt>
      <trkpt lat="4.5164950" lon="-74.2657950">
        <ele>2580.6</ele>
        <time>2018-08-11T17:37:27Z</time>
      </trkpt>
      <trkpt lat="4.5164670" lon="-74.2658070">
        <ele>2580.6</ele>
        <time>2018-08-11T17:37:28Z</time>
      </trkpt>
      <trkpt lat="4.5164400" lon="-74.2658130">
        <ele>2580.5</ele>
        <time>2018-08-11T17:37:29Z</time>
      </trkpt>
      <trkpt lat="4.5164080" lon="-74.2658200">
        <ele>2580.4</ele>
        <time>2018-08-11T17:37:30Z</time>
      </trkpt>
      <trkpt lat="4.5163750" lon="-74.2658300">
        <ele>2580.4</ele>
        <time>2018-08-11T17:37:31Z</time>
      </trkpt>
      <trkpt lat="4.5163420" lon="-74.2658400">
        <ele>2580.4</ele>
        <time>2018-08-11T17:37:32Z</time>
      </trkpt>
      <trkpt lat="4.5163070" lon="-74.2658530">
        <ele>2580.4</ele>
        <time>2018-08-11T17:37:33Z</time>
      </trkpt>
      <trkpt lat="4.5162720" lon="-74.2658680">
        <ele>2580.5</ele>
        <time>2018-08-11T17:37:34Z</time>
      </trkpt>
      <trkpt lat="4.5162380" lon="-74.2658800">
        <ele>2580.5</ele>
        <time>2018-08-11T17:37:35Z</time>
      </trkpt>
      <trkpt lat="4.5162050" lon="-74.2658920">
        <ele>2580.6</ele>
        <time>2018-08-11T17:37:36Z</time>
      </trkpt>
      <trkpt lat="4.5161730" lon="-74.2659020">
        <ele>2580.8</ele>
        <time>2018-08-11T17:37:37Z</time>
      </trkpt>
      <trkpt lat="4.5161430" lon="-74.2659120">
        <ele>2581.0</ele>
        <time>2018-08-11T17:37:38Z</time>
      </trkpt>
      <trkpt lat="4.5161100" lon="-74.2659220">
        <ele>2581.1</ele>
        <time>2018-08-11T17:37:39Z</time>
      </trkpt>
      <trkpt lat="4.5160750" lon="-74.2659330">
        <ele>2581.2</ele>
        <time>2018-08-11T17:37:40Z</time>
      </trkpt>
      <trkpt lat="4.5160380" lon="-74.2659470">
        <ele>2581.2</ele>
        <time>2018-08-11T17:37:41Z</time>
      </trkpt>
      <trkpt lat="4.5160030" lon="-74.2659620">
        <ele>2581.2</ele>
        <time>2018-08-11T17:37:42Z</time>
      </trkpt>
      <trkpt lat="4.5159670" lon="-74.2659770">
        <ele>2581.2</ele>
        <time>2018-08-11T17:37:43Z</time>
      </trkpt>
      <trkpt lat="4.5159300" lon="-74.2659900">
        <ele>2581.0</ele>
        <time>2018-08-11T17:37:44Z</time>
      </trkpt>
      <trkpt lat="4.5158920" lon="-74.2660030">
        <ele>2580.9</ele>
        <time>2018-08-11T17:37:45Z</time>
      </trkpt>
      <trkpt lat="4.5158520" lon="-74.2660170">
        <ele>2580.8</ele>
        <time>2018-08-11T17:37:46Z</time>
      </trkpt>
      <trkpt lat="4.5158170" lon="-74.2660350">
        <ele>2580.7</ele>
        <time>2018-08-11T17:37:47Z</time>
      </trkpt>
      <trkpt lat="4.5157870" lon="-74.2660570">
        <ele>2580.6</ele>
        <time>2018-08-11T17:37:48Z</time>
      </trkpt>
      <trkpt lat="4.5157580" lon="-74.2660730">
        <ele>2580.5</ele>
        <time>2018-08-11T17:37:49Z</time>
      </trkpt>
      <trkpt lat="4.5157270" lon="-74.2660880">
        <ele>2580.4</ele>
        <time>2018-08-11T17:37:50Z</time>
      </trkpt>
      <trkpt lat="4.5156970" lon="-74.2661030">
        <ele>2580.3</ele>
        <time>2018-08-11T17:37:51Z</time>
      </trkpt>
      <trkpt lat="4.5156620" lon="-74.2661230">
        <ele>2580.2</ele>
        <time>2018-08-11T17:37:52Z</time>
      </trkpt>
      <trkpt lat="4.5156270" lon="-74.2661380">
        <ele>2580.1</ele>
        <time>2018-08-11T17:37:53Z</time>
      </trkpt>
      <trkpt lat="4.5155900" lon="-74.2661520">
        <ele>2579.9</ele>
        <time>2018-08-11T17:37:54Z</time>
      </trkpt>
      <trkpt lat="4.5155570" lon="-74.2661620">
        <ele>2579.8</ele>
        <time>2018-08-11T17:37:55Z</time>
      </trkpt>
      <trkpt lat="4.5155200" lon="-74.2661720">
        <ele>2579.8</ele>
        <time>2018-08-11T17:37:56Z</time>
      </trkpt>
      <trkpt lat="4.5154830" lon="-74.2661820">
        <ele>2579.8</ele>
        <time>2018-08-11T17:37:57Z</time>
      </trkpt>
      <trkpt lat="4.5154430" lon="-74.2661900">
        <ele>2579.8</ele>
        <time>2018-08-11T17:37:58Z</time>
      </trkpt>
      <trkpt lat="4.5154020" lon="-74.2662000">
        <ele>2579.9</ele>
        <time>2018-08-11T17:37:59Z</time>
      </trkpt>
      <trkpt lat="4.5153580" lon="-74.2662130">
        <ele>2579.8</ele>
        <time>2018-08-11T17:38:00Z</time>
      </trkpt>
      <trkpt lat="4.5153150" lon="-74.2662250">
        <ele>2579.8</ele>
        <time>2018-08-11T17:38:01Z</time>
      </trkpt>
      <trkpt lat="4.5152720" lon="-74.2662400">
        <ele>2579.7</ele>
        <time>2018-08-11T17:38:02Z</time>
      </trkpt>
      <trkpt lat="4.5152280" lon="-74.2662570">
        <ele>2579.6</ele>
        <time>2018-08-11T17:38:03Z</time>
      </trkpt>
      <trkpt lat="4.5151820" lon="-74.2662730">
        <ele>2579.6</ele>
        <time>2018-08-11T17:38:04Z</time>
      </trkpt>
      <trkpt lat="4.5151350" lon="-74.2662900">
        <ele>2579.6</ele>
        <time>2018-08-11T17:38:05Z</time>
      </trkpt>
      <trkpt lat="4.5150880" lon="-74.2663050">
        <ele>2579.6</ele>
        <time>2018-08-11T17:38:06Z</time>
      </trkpt>
      <trkpt lat="4.5150430" lon="-74.2663200">
        <ele>2579.6</ele>
        <time>2018-08-11T17:38:07Z</time>
      </trkpt>
      <trkpt lat="4.5150050" lon="-74.2663400">
        <ele>2579.6</ele>
        <time>2018-08-11T17:38:08Z</time>
      </trkpt>
      <trkpt lat="4.5149650" lon="-74.2663570">
        <ele>2579.5</ele>
        <time>2018-08-11T17:38:09Z</time>
      </trkpt>
      <trkpt lat="4.5149250" lon="-74.2663700">
        <ele>2579.5</ele>
        <time>2018-08-11T17:38:10Z</time>
      </trkpt>
      <trkpt lat="4.5148870" lon="-74.2663870">
        <ele>2579.6</ele>
        <time>2018-08-11T17:38:11Z</time>
      </trkpt>
      <trkpt lat="4.5148470" lon="-74.2664050">
        <ele>2579.6</ele>
        <time>2018-08-11T17:38:12Z</time>
      </trkpt>
      <trkpt lat="4.5148100" lon="-74.2664250">
        <ele>2579.7</ele>
        <time>2018-08-11T17:38:13Z</time>
      </trkpt>
      <trkpt lat="4.5147680" lon="-74.2664380">
        <ele>2579.7</ele>
        <time>2018-08-11T17:38:14Z</time>
      </trkpt>
      <trkpt lat="4.5147270" lon="-74.2664520">
        <ele>2579.4</ele>
        <time>2018-08-11T17:38:15Z</time>
      </trkpt>
      <trkpt lat="4.5146850" lon="-74.2664650">
        <ele>2579.1</ele>
        <time>2018-08-11T17:38:16Z</time>
      </trkpt>
      <trkpt lat="4.5146450" lon="-74.2664800">
        <ele>2578.5</ele>
        <time>2018-08-11T17:38:17Z</time>
      </trkpt>
      <trkpt lat="4.5146030" lon="-74.2664970">
        <ele>2577.8</ele>
        <time>2018-08-11T17:38:18Z</time>
      </trkpt>
      <trkpt lat="4.5145600" lon="-74.2665080">
        <ele>2577.1</ele>
        <time>2018-08-11T17:38:19Z</time>
      </trkpt>
      <trkpt lat="4.5145180" lon="-74.2665230">
        <ele>2576.5</ele>
        <time>2018-08-11T17:38:20Z</time>
      </trkpt>
      <trkpt lat="4.5144770" lon="-74.2665400">
        <ele>2576.2</ele>
        <time>2018-08-11T17:38:21Z</time>
      </trkpt>
      <trkpt lat="4.5144300" lon="-74.2665570">
        <ele>2575.9</ele>
        <time>2018-08-11T17:38:22Z</time>
      </trkpt>
      <trkpt lat="4.5143880" lon="-74.2665730">
        <ele>2575.8</ele>
        <time>2018-08-11T17:38:23Z</time>
      </trkpt>
      <trkpt lat="4.5143450" lon="-74.2665880">
        <ele>2575.8</ele>
        <time>2018-08-11T17:38:24Z</time>
      </trkpt>
      <trkpt lat="4.5143030" lon="-74.2666070">
        <ele>2575.6</ele>
        <time>2018-08-11T17:38:25Z</time>
      </trkpt>
      <trkpt lat="4.5142630" lon="-74.2666270">
        <ele>2575.5</ele>
        <time>2018-08-11T17:38:26Z</time>
      </trkpt>
      <trkpt lat="4.5142250" lon="-74.2666400">
        <ele>2575.2</ele>
        <time>2018-08-11T17:38:27Z</time>
      </trkpt>
      <trkpt lat="4.5141880" lon="-74.2666530">
        <ele>2575.0</ele>
        <time>2018-08-11T17:38:28Z</time>
      </trkpt>
      <trkpt lat="4.5141450" lon="-74.2666650">
        <ele>2574.9</ele>
        <time>2018-08-11T17:38:29Z</time>
      </trkpt>
      <trkpt lat="4.5141070" lon="-74.2666830">
        <ele>2574.8</ele>
        <time>2018-08-11T17:38:30Z</time>
      </trkpt>
      <trkpt lat="4.5140720" lon="-74.2667030">
        <ele>2574.9</ele>
        <time>2018-08-11T17:38:31Z</time>
      </trkpt>
      <trkpt lat="4.5140380" lon="-74.2667230">
        <ele>2574.9</ele>
        <time>2018-08-11T17:38:32Z</time>
      </trkpt>
      <trkpt lat="4.5140120" lon="-74.2667520">
        <ele>2575.0</ele>
        <time>2018-08-11T17:38:33Z</time>
      </trkpt>
      <trkpt lat="4.5139820" lon="-74.2667820">
        <ele>2575.0</ele>
        <time>2018-08-11T17:38:34Z</time>
      </trkpt>
      <trkpt lat="4.5139500" lon="-74.2668080">
        <ele>2575.0</ele>
        <time>2018-08-11T17:38:35Z</time>
      </trkpt>
      <trkpt lat="4.5139180" lon="-74.2668300">
        <ele>2575.0</ele>
        <time>2018-08-11T17:38:36Z</time>
      </trkpt>
      <trkpt lat="4.5138870" lon="-74.2668520">
        <ele>2575.0</ele>
        <time>2018-08-11T17:38:37Z</time>
      </trkpt>
      <trkpt lat="4.5138580" lon="-74.2668720">
        <ele>2575.0</ele>
        <time>2018-08-11T17:38:38Z</time>
      </trkpt>
      <trkpt lat="4.5138300" lon="-74.2668920">
        <ele>2575.0</ele>
        <time>2018-08-11T17:38:39Z</time>
      </trkpt>
      <trkpt lat="4.5138000" lon="-74.2669100">
        <ele>2575.1</ele>
        <time>2018-08-11T17:38:40Z</time>
      </trkpt>
      <trkpt lat="4.5137680" lon="-74.2669270">
        <ele>2575.2</ele>
        <time>2018-08-11T17:38:41Z</time>
      </trkpt>
      <trkpt lat="4.5137350" lon="-74.2669430">
        <ele>2575.3</ele>
        <time>2018-08-11T17:38:42Z</time>
      </trkpt>
      <trkpt lat="4.5137050" lon="-74.2669600">
        <ele>2575.5</ele>
        <time>2018-08-11T17:38:43Z</time>
      </trkpt>
      <trkpt lat="4.5136750" lon="-74.2669820">
        <ele>2575.7</ele>
        <time>2018-08-11T17:38:44Z</time>
      </trkpt>
      <trkpt lat="4.5136420" lon="-74.2670030">
        <ele>2575.9</ele>
        <time>2018-08-11T17:38:45Z</time>
      </trkpt>
      <trkpt lat="4.5136100" lon="-74.2670250">
        <ele>2575.9</ele>
        <time>2018-08-11T17:38:46Z</time>
      </trkpt>
      <trkpt lat="4.5135780" lon="-74.2670480">
        <ele>2576.0</ele>
        <time>2018-08-11T17:38:47Z</time>
      </trkpt>
      <trkpt lat="4.5135480" lon="-74.2670720">
        <ele>2576.0</ele>
        <time>2018-08-11T17:38:48Z</time>
      </trkpt>
      <trkpt lat="4.5135200" lon="-74.2670950">
        <ele>2576.0</ele>
        <time>2018-08-11T17:38:49Z</time>
      </trkpt>
      <trkpt lat="4.5134850" lon="-74.2671180">
        <ele>2576.0</ele>
        <time>2018-08-11T17:38:50Z</time>
      </trkpt>
      <trkpt lat="4.5134480" lon="-74.2671400">
        <ele>2576.1</ele>
        <time>2018-08-11T17:38:51Z</time>
      </trkpt>
      <trkpt lat="4.5134170" lon="-74.2671630">
        <ele>2576.3</ele>
        <time>2018-08-11T17:38:52Z</time>
      </trkpt>
      <trkpt lat="4.5133820" lon="-74.2671880">
        <ele>2576.5</ele>
        <time>2018-08-11T17:38:53Z</time>
      </trkpt>
      <trkpt lat="4.5133570" lon="-74.2672170">
        <ele>2576.9</ele>
        <time>2018-08-11T17:38:54Z</time>
      </trkpt>
      <trkpt lat="4.5133330" lon="-74.2672450">
        <ele>2577.3</ele>
        <time>2018-08-11T17:38:55Z</time>
      </trkpt>
      <trkpt lat="4.5133020" lon="-74.2672670">
        <ele>2577.5</ele>
        <time>2018-08-11T17:38:56Z</time>
      </trkpt>
      <trkpt lat="4.5132700" lon="-74.2672870">
        <ele>2577.6</ele>
        <time>2018-08-11T17:38:57Z</time>
      </trkpt>
      <trkpt lat="4.5132370" lon="-74.2673070">
        <ele>2577.6</ele>
        <time>2018-08-11T17:38:58Z</time>
      </trkpt>
      <trkpt lat="4.5132030" lon="-74.2673270">
        <ele>2577.5</ele>
        <time>2018-08-11T17:38:59Z</time>
      </trkpt>
      <trkpt lat="4.5131720" lon="-74.2673500">
        <ele>2577.4</ele>
        <time>2018-08-11T17:39:00Z</time>
      </trkpt>
      <trkpt lat="4.5131450" lon="-74.2673750">
        <ele>2577.4</ele>
        <time>2018-08-11T17:39:01Z</time>
      </trkpt>
      <trkpt lat="4.5131180" lon="-74.2673950">
        <ele>2577.5</ele>
        <time>2018-08-11T17:39:02Z</time>
      </trkpt>
      <trkpt lat="4.5130880" lon="-74.2674170">
        <ele>2577.5</ele>
        <time>2018-08-11T17:39:03Z</time>
      </trkpt>
      <trkpt lat="4.5130580" lon="-74.2674400">
        <ele>2577.5</ele>
        <time>2018-08-11T17:39:04Z</time>
      </trkpt>
      <trkpt lat="4.5130250" lon="-74.2674600">
        <ele>2577.4</ele>
        <time>2018-08-11T17:39:05Z</time>
      </trkpt>
      <trkpt lat="4.5129920" lon="-74.2674800">
        <ele>2577.1</ele>
        <time>2018-08-11T17:39:06Z</time>
      </trkpt>
      <trkpt lat="4.5129650" lon="-74.2675020">
        <ele>2576.9</ele>
        <time>2018-08-11T17:39:07Z</time>
      </trkpt>
      <trkpt lat="4.5129380" lon="-74.2675250">
        <ele>2576.7</ele>
        <time>2018-08-11T17:39:08Z</time>
      </trkpt>
      <trkpt lat="4.5129100" lon="-74.2675450">
        <ele>2576.4</ele>
        <time>2018-08-11T17:39:09Z</time>
      </trkpt>
      <trkpt lat="4.5128780" lon="-74.2675670">
        <ele>2576.3</ele>
        <time>2018-08-11T17:39:10Z</time>
      </trkpt>
      <trkpt lat="4.5128430" lon="-74.2675870">
        <ele>2576.1</ele>
        <time>2018-08-11T17:39:11Z</time>
      </trkpt>
      <trkpt lat="4.5128150" lon="-74.2676100">
        <ele>2576.1</ele>
        <time>2018-08-11T17:39:12Z</time>
      </trkpt>
      <trkpt lat="4.5127900" lon="-74.2676330">
        <ele>2576.1</ele>
        <time>2018-08-11T17:39:13Z</time>
      </trkpt>
      <trkpt lat="4.5127630" lon="-74.2676550">
        <ele>2576.1</ele>
        <time>2018-08-11T17:39:14Z</time>
      </trkpt>
      <trkpt lat="4.5127370" lon="-74.2676770">
        <ele>2576.1</ele>
        <time>2018-08-11T17:39:15Z</time>
      </trkpt>
      <trkpt lat="4.5127100" lon="-74.2676970">
        <ele>2576.1</ele>
        <time>2018-08-11T17:39:16Z</time>
      </trkpt>
      <trkpt lat="4.5126830" lon="-74.2677170">
        <ele>2576.0</ele>
        <time>2018-08-11T17:39:17Z</time>
      </trkpt>
      <trkpt lat="4.5126520" lon="-74.2677300">
        <ele>2576.0</ele>
        <time>2018-08-11T17:39:18Z</time>
      </trkpt>
      <trkpt lat="4.5126170" lon="-74.2677370">
        <ele>2576.0</ele>
        <time>2018-08-11T17:39:19Z</time>
      </trkpt>
      <trkpt lat="4.5125830" lon="-74.2677380">
        <ele>2576.0</ele>
        <time>2018-08-11T17:39:20Z</time>
      </trkpt>
      <trkpt lat="4.5125470" lon="-74.2677380">
        <ele>2576.0</ele>
        <time>2018-08-11T17:39:21Z</time>
      </trkpt>
      <trkpt lat="4.5125120" lon="-74.2677370">
        <ele>2576.2</ele>
        <time>2018-08-11T17:39:22Z</time>
      </trkpt>
      <trkpt lat="4.5124750" lon="-74.2677350">
        <ele>2576.3</ele>
        <time>2018-08-11T17:39:23Z</time>
      </trkpt>
      <trkpt lat="4.5124420" lon="-74.2677350">
        <ele>2576.8</ele>
        <time>2018-08-11T17:39:24Z</time>
      </trkpt>
      <trkpt lat="4.5124100" lon="-74.2677330">
        <ele>2577.3</ele>
        <time>2018-08-11T17:39:25Z</time>
      </trkpt>
      <trkpt lat="4.5123800" lon="-74.2677330">
        <ele>2577.7</ele>
        <time>2018-08-11T17:39:26Z</time>
      </trkpt>
      <trkpt lat="4.5123500" lon="-74.2677330">
        <ele>2578.2</ele>
        <time>2018-08-11T17:39:27Z</time>
      </trkpt>
      <trkpt lat="4.5123170" lon="-74.2677350">
        <ele>2578.7</ele>
        <time>2018-08-11T17:39:28Z</time>
      </trkpt>
      <trkpt lat="4.5122770" lon="-74.2677370">
        <ele>2579.1</ele>
        <time>2018-08-11T17:39:29Z</time>
      </trkpt>
      <trkpt lat="4.5122380" lon="-74.2677370">
        <ele>2579.6</ele>
        <time>2018-08-11T17:39:30Z</time>
      </trkpt>
      <trkpt lat="4.5122000" lon="-74.2677380">
        <ele>2580.0</ele>
        <time>2018-08-11T17:39:31Z</time>
      </trkpt>
      <trkpt lat="4.5121620" lon="-74.2677380">
        <ele>2580.5</ele>
        <time>2018-08-11T17:39:32Z</time>
      </trkpt>
      <trkpt lat="4.5121200" lon="-74.2677350">
        <ele>2581.1</ele>
        <time>2018-08-11T17:39:33Z</time>
      </trkpt>
      <trkpt lat="4.5120820" lon="-74.2677330">
        <ele>2581.6</ele>
        <time>2018-08-11T17:39:34Z</time>
      </trkpt>
      <trkpt lat="4.5120430" lon="-74.2677350">
        <ele>2582.2</ele>
        <time>2018-08-11T17:39:35Z</time>
      </trkpt>
      <trkpt lat="4.5120070" lon="-74.2677370">
        <ele>2582.6</ele>
        <time>2018-08-11T17:39:36Z</time>
      </trkpt>
      <trkpt lat="4.5119720" lon="-74.2677350">
        <ele>2583.0</ele>
        <time>2018-08-11T17:39:37Z</time>
      </trkpt>
      <trkpt lat="4.5119370" lon="-74.2677320">
        <ele>2583.2</ele>
        <time>2018-08-11T17:39:38Z</time>
      </trkpt>
      <trkpt lat="4.5119000" lon="-74.2677250">
        <ele>2583.4</ele>
        <time>2018-08-11T17:39:39Z</time>
      </trkpt>
      <trkpt lat="4.5118630" lon="-74.2677200">
        <ele>2583.5</ele>
        <time>2018-08-11T17:39:40Z</time>
      </trkpt>
      <trkpt lat="4.5118250" lon="-74.2677170">
        <ele>2583.7</ele>
        <time>2018-08-11T17:39:41Z</time>
      </trkpt>
      <trkpt lat="4.5117870" lon="-74.2677150">
        <ele>2583.8</ele>
        <time>2018-08-11T17:39:42Z</time>
      </trkpt>
      <trkpt lat="4.5117480" lon="-74.2677130">
        <ele>2584.0</ele>
        <time>2018-08-11T17:39:43Z</time>
      </trkpt>
      <trkpt lat="4.5117080" lon="-74.2677130">
        <ele>2584.2</ele>
        <time>2018-08-11T17:39:44Z</time>
      </trkpt>
      <trkpt lat="4.5116700" lon="-74.2677150">
        <ele>2584.3</ele>
        <time>2018-08-11T17:39:45Z</time>
      </trkpt>
      <trkpt lat="4.5116320" lon="-74.2677180">
        <ele>2584.3</ele>
        <time>2018-08-11T17:39:46Z</time>
      </trkpt>
      <trkpt lat="4.5115970" lon="-74.2677270">
        <ele>2584.2</ele>
        <time>2018-08-11T17:39:47Z</time>
      </trkpt>
      <trkpt lat="4.5115630" lon="-74.2677300">
        <ele>2583.7</ele>
        <time>2018-08-11T17:39:48Z</time>
      </trkpt>
      <trkpt lat="4.5115280" lon="-74.2677300">
        <ele>2583.2</ele>
        <time>2018-08-11T17:39:49Z</time>
      </trkpt>
      <trkpt lat="4.5114920" lon="-74.2677230">
        <ele>2582.6</ele>
        <time>2018-08-11T17:39:50Z</time>
      </trkpt>
      <trkpt lat="4.5114550" lon="-74.2677170">
        <ele>2582.0</ele>
        <time>2018-08-11T17:39:51Z</time>
      </trkpt>
      <trkpt lat="4.5114220" lon="-74.2677170">
        <ele>2581.5</ele>
        <time>2018-08-11T17:39:52Z</time>
      </trkpt>
      <trkpt lat="4.5113900" lon="-74.2677200">
        <ele>2581.1</ele>
        <time>2018-08-11T17:39:53Z</time>
      </trkpt>
      <trkpt lat="4.5113600" lon="-74.2677230">
        <ele>2580.6</ele>
        <time>2018-08-11T17:39:54Z</time>
      </trkpt>
      <trkpt lat="4.5113330" lon="-74.2677150">
        <ele>2580.3</ele>
        <time>2018-08-11T17:39:55Z</time>
      </trkpt>
      <trkpt lat="4.5113050" lon="-74.2677120">
        <ele>2580.1</ele>
        <time>2018-08-11T17:39:56Z</time>
      </trkpt>
      <trkpt lat="4.5112750" lon="-74.2677030">
        <ele>2579.9</ele>
        <time>2018-08-11T17:39:57Z</time>
      </trkpt>
      <trkpt lat="4.5112420" lon="-74.2676980">
        <ele>2579.7</ele>
        <time>2018-08-11T17:39:58Z</time>
      </trkpt>
      <trkpt lat="4.5112100" lon="-74.2676920">
        <ele>2579.7</ele>
        <time>2018-08-11T17:39:59Z</time>
      </trkpt>
      <trkpt lat="4.5111780" lon="-74.2676870">
        <ele>2579.7</ele>
        <time>2018-08-11T17:40:00Z</time>
      </trkpt>
      <trkpt lat="4.5111450" lon="-74.2676850">
        <ele>2579.7</ele>
        <time>2018-08-11T17:40:01Z</time>
      </trkpt>
      <trkpt lat="4.5111100" lon="-74.2676900">
        <ele>2579.7</ele>
        <time>2018-08-11T17:40:02Z</time>
      </trkpt>
      <trkpt lat="4.5110750" lon="-74.2676950">
        <ele>2579.8</ele>
        <time>2018-08-11T17:40:03Z</time>
      </trkpt>
      <trkpt lat="4.5110420" lon="-74.2676970">
        <ele>2579.7</ele>
        <time>2018-08-11T17:40:04Z</time>
      </trkpt>
      <trkpt lat="4.5110100" lon="-74.2677070">
        <ele>2579.7</ele>
        <time>2018-08-11T17:40:05Z</time>
      </trkpt>
      <trkpt lat="4.5109800" lon="-74.2677070">
        <ele>2579.7</ele>
        <time>2018-08-11T17:40:06Z</time>
      </trkpt>
      <trkpt lat="4.5109480" lon="-74.2677050">
        <ele>2579.6</ele>
        <time>2018-08-11T17:40:07Z</time>
      </trkpt>
      <trkpt lat="4.5109150" lon="-74.2677020">
        <ele>2579.6</ele>
        <time>2018-08-11T17:40:08Z</time>
      </trkpt>
      <trkpt lat="4.5108820" lon="-74.2676970">
        <ele>2579.6</ele>
        <time>2018-08-11T17:40:09Z</time>
      </trkpt>
      <trkpt lat="4.5108470" lon="-74.2676920">
        <ele>2579.6</ele>
        <time>2018-08-11T17:40:10Z</time>
      </trkpt>
      <trkpt lat="4.5108120" lon="-74.2676880">
        <ele>2579.6</ele>
        <time>2018-08-11T17:40:11Z</time>
      </trkpt>
      <trkpt lat="4.5107720" lon="-74.2676880">
        <ele>2579.6</ele>
        <time>2018-08-11T17:40:12Z</time>
      </trkpt>
      <trkpt lat="4.5107320" lon="-74.2676880">
        <ele>2579.7</ele>
        <time>2018-08-11T17:40:13Z</time>
      </trkpt>
      <trkpt lat="4.5106920" lon="-74.2676830">
        <ele>2580.0</ele>
        <time>2018-08-11T17:40:14Z</time>
      </trkpt>
      <trkpt lat="4.5106480" lon="-74.2676930">
        <ele>2580.3</ele>
        <time>2018-08-11T17:40:15Z</time>
      </trkpt>
      <trkpt lat="4.5106080" lon="-74.2677030">
        <ele>2580.8</ele>
        <time>2018-08-11T17:40:16Z</time>
      </trkpt>
      <trkpt lat="4.5105700" lon="-74.2677100">
        <ele>2581.3</ele>
        <time>2018-08-11T17:40:17Z</time>
      </trkpt>
      <trkpt lat="4.5105330" lon="-74.2677150">
        <ele>2581.8</ele>
        <time>2018-08-11T17:40:18Z</time>
      </trkpt>
      <trkpt lat="4.5105020" lon="-74.2677200">
        <ele>2582.1</ele>
        <time>2018-08-11T17:40:19Z</time>
      </trkpt>
      <trkpt lat="4.5104700" lon="-74.2677270">
        <ele>2582.5</ele>
        <time>2018-08-11T17:40:20Z</time>
      </trkpt>
      <trkpt lat="4.5104380" lon="-74.2677280">
        <ele>2582.8</ele>
        <time>2018-08-11T17:40:21Z</time>
      </trkpt>
      <trkpt lat="4.5104050" lon="-74.2677330">
        <ele>2583.2</ele>
        <time>2018-08-11T17:40:22Z</time>
      </trkpt>
      <trkpt lat="4.5103730" lon="-74.2677400">
        <ele>2583.6</ele>
        <time>2018-08-11T17:40:23Z</time>
      </trkpt>
      <trkpt lat="4.5103420" lon="-74.2677580">
        <ele>2584.1</ele>
        <time>2018-08-11T17:40:24Z</time>
      </trkpt>
      <trkpt lat="4.5103080" lon="-74.2677630">
        <ele>2584.6</ele>
        <time>2018-08-11T17:40:25Z</time>
      </trkpt>
      <trkpt lat="4.5102770" lon="-74.2677600">
        <ele>2585.0</ele>
        <time>2018-08-11T17:40:26Z</time>
      </trkpt>
      <trkpt lat="4.5102380" lon="-74.2677580">
        <ele>2585.0</ele>
        <time>2018-08-11T17:40:27Z</time>
      </trkpt>
      <trkpt lat="4.5102070" lon="-74.2677550">
        <ele>2585.0</ele>
        <time>2018-08-11T17:40:28Z</time>
      </trkpt>
      <trkpt lat="4.5101730" lon="-74.2677470">
        <ele>2585.2</ele>
        <time>2018-08-11T17:40:29Z</time>
      </trkpt>
      <trkpt lat="4.5101420" lon="-74.2677500">
        <ele>2585.6</ele>
        <time>2018-08-11T17:40:30Z</time>
      </trkpt>
      <trkpt lat="4.5101080" lon="-74.2677520">
        <ele>2586.1</ele>
        <time>2018-08-11T17:40:31Z</time>
      </trkpt>
      <trkpt lat="4.5100730" lon="-74.2677530">
        <ele>2586.5</ele>
        <time>2018-08-11T17:40:32Z</time>
      </trkpt>
      <trkpt lat="4.5100350" lon="-74.2677530">
        <ele>2586.8</ele>
        <time>2018-08-11T17:40:33Z</time>
      </trkpt>
      <trkpt lat="4.5099980" lon="-74.2677520">
        <ele>2587.1</ele>
        <time>2018-08-11T17:40:34Z</time>
      </trkpt>
      <trkpt lat="4.5099620" lon="-74.2677480">
        <ele>2587.2</ele>
        <time>2018-08-11T17:40:35Z</time>
      </trkpt>
      <trkpt lat="4.5099230" lon="-74.2677500">
        <ele>2587.4</ele>
        <time>2018-08-11T17:40:36Z</time>
      </trkpt>
      <trkpt lat="4.5098850" lon="-74.2677470">
        <ele>2587.3</ele>
        <time>2018-08-11T17:40:37Z</time>
      </trkpt>
      <trkpt lat="4.5098470" lon="-74.2677470">
        <ele>2587.3</ele>
        <time>2018-08-11T17:40:38Z</time>
      </trkpt>
      <trkpt lat="4.5098080" lon="-74.2677450">
        <ele>2587.1</ele>
        <time>2018-08-11T17:40:39Z</time>
      </trkpt>
      <trkpt lat="4.5097730" lon="-74.2677420">
        <ele>2586.9</ele>
        <time>2018-08-11T17:40:40Z</time>
      </trkpt>
      <trkpt lat="4.5097330" lon="-74.2677380">
        <ele>2586.6</ele>
        <time>2018-08-11T17:40:41Z</time>
      </trkpt>
      <trkpt lat="4.5096970" lon="-74.2677320">
        <ele>2586.3</ele>
        <time>2018-08-11T17:40:42Z</time>
      </trkpt>
      <trkpt lat="4.5096620" lon="-74.2677270">
        <ele>2585.9</ele>
        <time>2018-08-11T17:40:43Z</time>
      </trkpt>
      <trkpt lat="4.5096250" lon="-74.2677220">
        <ele>2585.3</ele>
        <time>2018-08-11T17:40:44Z</time>
      </trkpt>
      <trkpt lat="4.5095880" lon="-74.2677230">
        <ele>2584.7</ele>
        <time>2018-08-11T17:40:45Z</time>
      </trkpt>
      <trkpt lat="4.5095480" lon="-74.2677300">
        <ele>2583.8</ele>
        <time>2018-08-11T17:40:46Z</time>
      </trkpt>
      <trkpt lat="4.5095120" lon="-74.2677270">
        <ele>2583.0</ele>
        <time>2018-08-11T17:40:47Z</time>
      </trkpt>
      <trkpt lat="4.5094730" lon="-74.2677270">
        <ele>2582.1</ele>
        <time>2018-08-11T17:40:48Z</time>
      </trkpt>
      <trkpt lat="4.5094350" lon="-74.2677270">
        <ele>2581.2</ele>
        <time>2018-08-11T17:40:49Z</time>
      </trkpt>
      <trkpt lat="4.5093980" lon="-74.2677300">
        <ele>2580.2</ele>
        <time>2018-08-11T17:40:50Z</time>
      </trkpt>
      <trkpt lat="4.5093600" lon="-74.2677280">
        <ele>2579.4</ele>
        <time>2018-08-11T17:40:51Z</time>
      </trkpt>
      <trkpt lat="4.5093220" lon="-74.2677280">
        <ele>2578.5</ele>
        <time>2018-08-11T17:40:52Z</time>
      </trkpt>
      <trkpt lat="4.5092850" lon="-74.2677220">
        <ele>2577.8</ele>
        <time>2018-08-11T17:40:53Z</time>
      </trkpt>
      <trkpt lat="4.5092500" lon="-74.2677200">
        <ele>2577.2</ele>
        <time>2018-08-11T17:40:54Z</time>
      </trkpt>
      <trkpt lat="4.5092170" lon="-74.2677220">
        <ele>2576.7</ele>
        <time>2018-08-11T17:40:55Z</time>
      </trkpt>
      <trkpt lat="4.5091770" lon="-74.2677230">
        <ele>2576.4</ele>
        <time>2018-08-11T17:40:56Z</time>
      </trkpt>
      <trkpt lat="4.5091350" lon="-74.2677220">
        <ele>2576.1</ele>
        <time>2018-08-11T17:40:57Z</time>
      </trkpt>
      <trkpt lat="4.5091000" lon="-74.2677220">
        <ele>2576.1</ele>
        <time>2018-08-11T17:40:58Z</time>
      </trkpt>
      <trkpt lat="4.5090620" lon="-74.2677200">
        <ele>2576.0</ele>
        <time>2018-08-11T17:40:59Z</time>
      </trkpt>
      <trkpt lat="4.5090230" lon="-74.2677180">
        <ele>2576.1</ele>
        <time>2018-08-11T17:41:00Z</time>
      </trkpt>
      <trkpt lat="4.5089820" lon="-74.2677150">
        <ele>2576.3</ele>
        <time>2018-08-11T17:41:01Z</time>
      </trkpt>
      <trkpt lat="4.5089370" lon="-74.2677170">
        <ele>2576.6</ele>
        <time>2018-08-11T17:41:02Z</time>
      </trkpt>
      <trkpt lat="4.5088970" lon="-74.2677130">
        <ele>2577.0</ele>
        <time>2018-08-11T17:41:03Z</time>
      </trkpt>
      <trkpt lat="4.5088580" lon="-74.2677130">
        <ele>2577.6</ele>
        <time>2018-08-11T17:41:04Z</time>
      </trkpt>
      <trkpt lat="4.5088180" lon="-74.2677130">
        <ele>2578.5</ele>
        <time>2018-08-11T17:41:05Z</time>
      </trkpt>
      <trkpt lat="4.5087750" lon="-74.2677130">
        <ele>2579.5</ele>
        <time>2018-08-11T17:41:06Z</time>
      </trkpt>
      <trkpt lat="4.5087280" lon="-74.2677120">
        <ele>2580.2</ele>
        <time>2018-08-11T17:41:07Z</time>
      </trkpt>
      <trkpt lat="4.5086780" lon="-74.2677120">
        <ele>2580.8</ele>
        <time>2018-08-11T17:41:08Z</time>
      </trkpt>
      <trkpt lat="4.5086300" lon="-74.2677150">
        <ele>2581.0</ele>
        <time>2018-08-11T17:41:09Z</time>
      </trkpt>
      <trkpt lat="4.5085780" lon="-74.2677130">
        <ele>2581.4</ele>
        <time>2018-08-11T17:41:10Z</time>
      </trkpt>
      <trkpt lat="4.5085250" lon="-74.2677020">
        <ele>2581.5</ele>
        <time>2018-08-11T17:41:11Z</time>
      </trkpt>
      <trkpt lat="4.5084730" lon="-74.2676970">
        <ele>2581.4</ele>
        <time>2018-08-11T17:41:12Z</time>
      </trkpt>
      <trkpt lat="4.5084220" lon="-74.2676920">
        <ele>2581.3</ele>
        <time>2018-08-11T17:41:13Z</time>
      </trkpt>
      <trkpt lat="4.5083730" lon="-74.2676850">
        <ele>2581.5</ele>
        <time>2018-08-11T17:41:14Z</time>
      </trkpt>
      <trkpt lat="4.5083270" lon="-74.2676830">
        <ele>2581.6</ele>
        <time>2018-08-11T17:41:15Z</time>
      </trkpt>
      <trkpt lat="4.5082770" lon="-74.2676800">
        <ele>2581.5</ele>
        <time>2018-08-11T17:41:16Z</time>
      </trkpt>
      <trkpt lat="4.5082280" lon="-74.2676720">
        <ele>2581.5</ele>
        <time>2018-08-11T17:41:17Z</time>
      </trkpt>
      <trkpt lat="4.5081850" lon="-74.2676570">
        <ele>2581.5</ele>
        <time>2018-08-11T17:41:18Z</time>
      </trkpt>
      <trkpt lat="4.5081380" lon="-74.2676430">
        <ele>2581.5</ele>
        <time>2018-08-11T17:41:19Z</time>
      </trkpt>
      <trkpt lat="4.5080930" lon="-74.2676350">
        <ele>2581.4</ele>
        <time>2018-08-11T17:41:20Z</time>
      </trkpt>
      <trkpt lat="4.5080480" lon="-74.2676220">
        <ele>2580.9</ele>
        <time>2018-08-11T17:41:21Z</time>
      </trkpt>
      <trkpt lat="4.5080100" lon="-74.2676000">
        <ele>2580.6</ele>
        <time>2018-08-11T17:41:22Z</time>
      </trkpt>
      <trkpt lat="4.5079700" lon="-74.2675770">
        <ele>2580.4</ele>
        <time>2018-08-11T17:41:23Z</time>
      </trkpt>
      <trkpt lat="4.5079320" lon="-74.2675530">
        <ele>2580.2</ele>
        <time>2018-08-11T17:41:24Z</time>
      </trkpt>
      <trkpt lat="4.5079000" lon="-74.2675280">
        <ele>2580.1</ele>
        <time>2018-08-11T17:41:25Z</time>
      </trkpt>
      <trkpt lat="4.5078680" lon="-74.2675030">
        <ele>2580.1</ele>
        <time>2018-08-11T17:41:26Z</time>
      </trkpt>
      <trkpt lat="4.5078350" lon="-74.2674830">
        <ele>2580.1</ele>
        <time>2018-08-11T17:41:27Z</time>
      </trkpt>
      <trkpt lat="4.5078030" lon="-74.2674600">
        <ele>2580.0</ele>
        <time>2018-08-11T17:41:28Z</time>
      </trkpt>
      <trkpt lat="4.5077680" lon="-74.2674370">
        <ele>2579.6</ele>
        <time>2018-08-11T17:41:29Z</time>
      </trkpt>
      <trkpt lat="4.5077280" lon="-74.2674120">
        <ele>2579.3</ele>
        <time>2018-08-11T17:41:30Z</time>
      </trkpt>
      <trkpt lat="4.5076920" lon="-74.2673930">
        <ele>2579.1</ele>
        <time>2018-08-11T17:41:31Z</time>
      </trkpt>
      <trkpt lat="4.5076530" lon="-74.2673800">
        <ele>2578.5</ele>
        <time>2018-08-11T17:41:32Z</time>
      </trkpt>
      <trkpt lat="4.5076150" lon="-74.2673720">
        <ele>2578.0</ele>
        <time>2018-08-11T17:41:33Z</time>
      </trkpt>
      <trkpt lat="4.5075770" lon="-74.2673580">
        <ele>2577.8</ele>
        <time>2018-08-11T17:41:34Z</time>
      </trkpt>
      <trkpt lat="4.5075330" lon="-74.2673370">
        <ele>2577.6</ele>
        <time>2018-08-11T17:41:35Z</time>
      </trkpt>
      <trkpt lat="4.5074930" lon="-74.2673130">
        <ele>2577.5</ele>
        <time>2018-08-11T17:41:36Z</time>
      </trkpt>
      <trkpt lat="4.5074570" lon="-74.2672920">
        <ele>2577.6</ele>
        <time>2018-08-11T17:41:37Z</time>
      </trkpt>
      <trkpt lat="4.5074200" lon="-74.2672780">
        <ele>2577.9</ele>
        <time>2018-08-11T17:41:38Z</time>
      </trkpt>
      <trkpt lat="4.5073870" lon="-74.2672700">
        <ele>2578.5</ele>
        <time>2018-08-11T17:41:39Z</time>
      </trkpt>
      <trkpt lat="4.5073570" lon="-74.2672680">
        <ele>2579.0</ele>
        <time>2018-08-11T17:41:40Z</time>
      </trkpt>
      <trkpt lat="4.5073270" lon="-74.2672670">
        <ele>2579.7</ele>
        <time>2018-08-11T17:41:41Z</time>
      </trkpt>
      <trkpt lat="4.5072950" lon="-74.2672800">
        <ele>2580.7</ele>
        <time>2018-08-11T17:41:42Z</time>
      </trkpt>
      <trkpt lat="4.5072600" lon="-74.2672930">
        <ele>2581.8</ele>
        <time>2018-08-11T17:41:43Z</time>
      </trkpt>
      <trkpt lat="4.5072300" lon="-74.2673080">
        <ele>2582.8</ele>
        <time>2018-08-11T17:41:44Z</time>
      </trkpt>
      <trkpt lat="4.5072030" lon="-74.2673280">
        <ele>2583.9</ele>
        <time>2018-08-11T17:41:45Z</time>
      </trkpt>
      <trkpt lat="4.5071820" lon="-74.2673520">
        <ele>2584.4</ele>
        <time>2018-08-11T17:41:46Z</time>
      </trkpt>
      <trkpt lat="4.5071600" lon="-74.2673750">
        <ele>2584.8</ele>
        <time>2018-08-11T17:41:47Z</time>
      </trkpt>
      <trkpt lat="4.5071330" lon="-74.2673950">
        <ele>2585.2</ele>
        <time>2018-08-11T17:41:48Z</time>
      </trkpt>
      <trkpt lat="4.5071080" lon="-74.2674220">
        <ele>2585.7</ele>
        <time>2018-08-11T17:41:49Z</time>
      </trkpt>
      <trkpt lat="4.5070870" lon="-74.2674450">
        <ele>2586.1</ele>
        <time>2018-08-11T17:41:50Z</time>
      </trkpt>
      <trkpt lat="4.5070650" lon="-74.2674720">
        <ele>2586.5</ele>
        <time>2018-08-11T17:41:51Z</time>
      </trkpt>
      <trkpt lat="4.5070450" lon="-74.2674980">
        <ele>2586.8</ele>
        <time>2018-08-11T17:41:52Z</time>
      </trkpt>
      <trkpt lat="4.5070250" lon="-74.2675250">
        <ele>2587.2</ele>
        <time>2018-08-11T17:41:53Z</time>
      </trkpt>
      <trkpt lat="4.5070050" lon="-74.2675470">
        <ele>2587.4</ele>
        <time>2018-08-11T17:41:54Z</time>
      </trkpt>
      <trkpt lat="4.5069830" lon="-74.2675680">
        <ele>2587.3</ele>
        <time>2018-08-11T17:41:55Z</time>
      </trkpt>
      <trkpt lat="4.5069600" lon="-74.2675870">
        <ele>2587.3</ele>
        <time>2018-08-11T17:41:56Z</time>
      </trkpt>
      <trkpt lat="4.5069220" lon="-74.2676150">
        <ele>2586.9</ele>
        <time>2018-08-11T17:41:58Z</time>
      </trkpt>
      <trkpt lat="4.5068750" lon="-74.2676380">
        <ele>2586.4</ele>
        <time>2018-08-11T17:42:00Z</time>
      </trkpt>
      <trkpt lat="4.5068520" lon="-74.2676550">
        <ele>2586.2</ele>
        <time>2018-08-11T17:42:01Z</time>
      </trkpt>
      <trkpt lat="4.5068350" lon="-74.2676780">
        <ele>2586.1</ele>
        <time>2018-08-11T17:42:02Z</time>
      </trkpt>
      <trkpt lat="4.5068020" lon="-74.2677130">
        <ele>2585.9</ele>
        <time>2018-08-11T17:42:04Z</time>
      </trkpt>
      <trkpt lat="4.5067620" lon="-74.2677480">
        <ele>2585.9</ele>
        <time>2018-08-11T17:42:06Z</time>
      </trkpt>
      <trkpt lat="4.5067150" lon="-74.2677750">
        <ele>2585.5</ele>
        <time>2018-08-11T17:42:08Z</time>
      </trkpt>
      <trkpt lat="4.5066780" lon="-74.2678020">
        <ele>2584.8</ele>
        <time>2018-08-11T17:42:10Z</time>
      </trkpt>
      <trkpt lat="4.5066470" lon="-74.2678320">
        <ele>2584.3</ele>
        <time>2018-08-11T17:42:12Z</time>
      </trkpt>
      <trkpt lat="4.5066130" lon="-74.2678700">
        <ele>2583.6</ele>
        <time>2018-08-11T17:42:14Z</time>
      </trkpt>
      <trkpt lat="4.5065970" lon="-74.2678930">
        <ele>2583.2</ele>
        <time>2018-08-11T17:42:15Z</time>
      </trkpt>
      <trkpt lat="4.5065780" lon="-74.2679170">
        <ele>2582.8</ele>
        <time>2018-08-11T17:42:16Z</time>
      </trkpt>
      <trkpt lat="4.5065650" lon="-74.2679420">
        <ele>2582.3</ele>
        <time>2018-08-11T17:42:17Z</time>
      </trkpt>
      <trkpt lat="4.5065550" lon="-74.2679930">
        <ele>2580.8</ele>
        <time>2018-08-11T17:42:19Z</time>
      </trkpt>
      <trkpt lat="4.5065650" lon="-74.2680420">
        <ele>2581.3</ele>
        <time>2018-08-11T17:42:21Z</time>
      </trkpt>
      <trkpt lat="4.5065900" lon="-74.2680820">
        <ele>2581.7</ele>
        <time>2018-08-11T17:42:23Z</time>
      </trkpt>
      <trkpt lat="4.5066200" lon="-74.2681030">
        <ele>2582.1</ele>
        <time>2018-08-11T17:42:25Z</time>
      </trkpt>
      <trkpt lat="4.5066470" lon="-74.2681250">
        <ele>2582.4</ele>
        <time>2018-08-11T17:42:27Z</time>
      </trkpt>
      <trkpt lat="4.5066600" lon="-74.2681570">
        <ele>2582.7</ele>
        <time>2018-08-11T17:42:29Z</time>
      </trkpt>
      <trkpt lat="4.5066730" lon="-74.2681850">
        <ele>2583.0</ele>
        <time>2018-08-11T17:42:31Z</time>
      </trkpt>
      <trkpt lat="4.5066870" lon="-74.2682220">
        <ele>2583.4</ele>
        <time>2018-08-11T17:42:33Z</time>
      </trkpt>
      <trkpt lat="4.5066930" lon="-74.2682670">
        <ele>2583.8</ele>
        <time>2018-08-11T17:42:35Z</time>
      </trkpt>
      <trkpt lat="4.5066980" lon="-74.2683120">
        <ele>2584.2</ele>
        <time>2018-08-11T17:42:37Z</time>
      </trkpt>
      <trkpt lat="4.5067100" lon="-74.2683470">
        <ele>2584.5</ele>
        <time>2018-08-11T17:42:39Z</time>
      </trkpt>
      <trkpt lat="4.5067130" lon="-74.2683880">
        <ele>2584.9</ele>
        <time>2018-08-11T17:42:41Z</time>
      </trkpt>
      <trkpt lat="4.5067150" lon="-74.2684270">
        <ele>2585.3</ele>
        <time>2018-08-11T17:42:43Z</time>
      </trkpt>
      <trkpt lat="4.5067170" lon="-74.2684650">
        <ele>2585.6</ele>
        <time>2018-08-11T17:42:45Z</time>
      </trkpt>
      <trkpt lat="4.5067050" lon="-74.2685020">
        <ele>2585.9</ele>
        <time>2018-08-11T17:42:47Z</time>
      </trkpt>
      <trkpt lat="4.5066930" lon="-74.2685380">
        <ele>2586.3</ele>
        <time>2018-08-11T17:42:49Z</time>
      </trkpt>
      <trkpt lat="4.5066780" lon="-74.2685770">
        <ele>2586.7</ele>
        <time>2018-08-11T17:42:51Z</time>
      </trkpt>
      <trkpt lat="4.5066600" lon="-74.2686170">
        <ele>2587.1</ele>
        <time>2018-08-11T17:42:53Z</time>
      </trkpt>
      <trkpt lat="4.5066520" lon="-74.2686580">
        <ele>2587.4</ele>
        <time>2018-08-11T17:42:55Z</time>
      </trkpt>
      <trkpt lat="4.5066420" lon="-74.2686970">
        <ele>2587.8</ele>
        <time>2018-08-11T17:42:57Z</time>
      </trkpt>
      <trkpt lat="4.5066230" lon="-74.2687380">
        <ele>2588.2</ele>
        <time>2018-08-11T17:42:59Z</time>
      </trkpt>
      <trkpt lat="4.5066130" lon="-74.2687770">
        <ele>2588.6</ele>
        <time>2018-08-11T17:43:01Z</time>
      </trkpt>
      <trkpt lat="4.5066130" lon="-74.2688120">
        <ele>2588.9</ele>
        <time>2018-08-11T17:43:03Z</time>
      </trkpt>
      <trkpt lat="4.5066080" lon="-74.2688470">
        <ele>2589.2</ele>
        <time>2018-08-11T17:43:05Z</time>
      </trkpt>
      <trkpt lat="4.5066100" lon="-74.2688830">
        <ele>2589.6</ele>
        <time>2018-08-11T17:43:07Z</time>
      </trkpt>
      <trkpt lat="4.5066200" lon="-74.2689170">
        <ele>2589.9</ele>
        <time>2018-08-11T17:43:09Z</time>
      </trkpt>
      <trkpt lat="4.5066320" lon="-74.2689530">
        <ele>2590.2</ele>
        <time>2018-08-11T17:43:11Z</time>
      </trkpt>
      <trkpt lat="4.5066370" lon="-74.2689920">
        <ele>2590.5</ele>
        <time>2018-08-11T17:43:13Z</time>
      </trkpt>
      <trkpt lat="4.5066400" lon="-74.2690320">
        <ele>2590.8</ele>
        <time>2018-08-11T17:43:15Z</time>
      </trkpt>
      <trkpt lat="4.5066400" lon="-74.2690730">
        <ele>2591.1</ele>
        <time>2018-08-11T17:43:17Z</time>
      </trkpt>
      <trkpt lat="4.5066400" lon="-74.2691080">
        <ele>2591.5</ele>
        <time>2018-08-11T17:43:19Z</time>
      </trkpt>
      <trkpt lat="4.5066350" lon="-74.2691470">
        <ele>2592.0</ele>
        <time>2018-08-11T17:43:21Z</time>
      </trkpt>
      <trkpt lat="4.5066430" lon="-74.2691800">
        <ele>2592.4</ele>
        <time>2018-08-11T17:43:23Z</time>
      </trkpt>
      <trkpt lat="4.5066470" lon="-74.2692170">
        <ele>2592.9</ele>
        <time>2018-08-11T17:43:25Z</time>
      </trkpt>
      <trkpt lat="4.5066530" lon="-74.2692520">
        <ele>2593.4</ele>
        <time>2018-08-11T17:43:27Z</time>
      </trkpt>
      <trkpt lat="4.5066580" lon="-74.2692880">
        <ele>2594.0</ele>
        <time>2018-08-11T17:43:29Z</time>
      </trkpt>
      <trkpt lat="4.5066620" lon="-74.2693270">
        <ele>2594.6</ele>
        <time>2018-08-11T17:43:31Z</time>
      </trkpt>
      <trkpt lat="4.5066650" lon="-74.2693700">
        <ele>2595.3</ele>
        <time>2018-08-11T17:43:33Z</time>
      </trkpt>
      <trkpt lat="4.5066730" lon="-74.2694080">
        <ele>2595.9</ele>
        <time>2018-08-11T17:43:35Z</time>
      </trkpt>
      <trkpt lat="4.5066720" lon="-74.2694380">
        <ele>2596.4</ele>
        <time>2018-08-11T17:43:37Z</time>
      </trkpt>
      <trkpt lat="4.5066650" lon="-74.2694750">
        <ele>2596.9</ele>
        <time>2018-08-11T17:43:39Z</time>
      </trkpt>
      <trkpt lat="4.5066550" lon="-74.2695130">
        <ele>2597.2</ele>
        <time>2018-08-11T17:43:41Z</time>
      </trkpt>
      <trkpt lat="4.5066370" lon="-74.2695480">
        <ele>2597.5</ele>
        <time>2018-08-11T17:43:43Z</time>
      </trkpt>
      <trkpt lat="4.5066230" lon="-74.2695880">
        <ele>2597.8</ele>
        <time>2018-08-11T17:43:45Z</time>
      </trkpt>
      <trkpt lat="4.5066130" lon="-74.2696250">
        <ele>2598.1</ele>
        <time>2018-08-11T17:43:47Z</time>
      </trkpt>
      <trkpt lat="4.5065880" lon="-74.2696530">
        <ele>2598.8</ele>
        <time>2018-08-11T17:43:49Z</time>
      </trkpt>
      <trkpt lat="4.5065530" lon="-74.2696720">
        <ele>2599.5</ele>
        <time>2018-08-11T17:43:51Z</time>
      </trkpt>
      <trkpt lat="4.5065170" lon="-74.2696900">
        <ele>2600.5</ele>
        <time>2018-08-11T17:43:53Z</time>
      </trkpt>
      <trkpt lat="4.5064830" lon="-74.2697170">
        <ele>2601.4</ele>
        <time>2018-08-11T17:43:55Z</time>
      </trkpt>
      <trkpt lat="4.5064470" lon="-74.2697430">
        <ele>2602.2</ele>
        <time>2018-08-11T17:43:57Z</time>
      </trkpt>
      <trkpt lat="4.5064120" lon="-74.2697730">
        <ele>2602.9</ele>
        <time>2018-08-11T17:43:59Z</time>
      </trkpt>
      <trkpt lat="4.5063700" lon="-74.2698000">
        <ele>2603.5</ele>
        <time>2018-08-11T17:44:01Z</time>
      </trkpt>
      <trkpt lat="4.5063250" lon="-74.2698270">
        <ele>2604.3</ele>
        <time>2018-08-11T17:44:03Z</time>
      </trkpt>
      <trkpt lat="4.5063000" lon="-74.2698430">
        <ele>2604.7</ele>
        <time>2018-08-11T17:44:04Z</time>
      </trkpt>
      <trkpt lat="4.5062650" lon="-74.2698800">
        <ele>2605.2</ele>
        <time>2018-08-11T17:44:06Z</time>
      </trkpt>
      <trkpt lat="4.5062280" lon="-74.2699150">
        <ele>2605.7</ele>
        <time>2018-08-11T17:44:08Z</time>
      </trkpt>
      <trkpt lat="4.5061870" lon="-74.2699400">
        <ele>2606.1</ele>
        <time>2018-08-11T17:44:10Z</time>
      </trkpt>
      <trkpt lat="4.5061380" lon="-74.2699630">
        <ele>2606.5</ele>
        <time>2018-08-11T17:44:12Z</time>
      </trkpt>
      <trkpt lat="4.5060930" lon="-74.2699850">
        <ele>2606.9</ele>
        <time>2018-08-11T17:44:14Z</time>
      </trkpt>
      <trkpt lat="4.5060670" lon="-74.2699920">
        <ele>2607.2</ele>
        <time>2018-08-11T17:44:15Z</time>
      </trkpt>
      <trkpt lat="4.5060180" lon="-74.2700080">
        <ele>2607.6</ele>
        <time>2018-08-11T17:44:17Z</time>
      </trkpt>
      <trkpt lat="4.5059680" lon="-74.2700320">
        <ele>2608.1</ele>
        <time>2018-08-11T17:44:19Z</time>
      </trkpt>
      <trkpt lat="4.5059220" lon="-74.2700520">
        <ele>2608.4</ele>
        <time>2018-08-11T17:44:21Z</time>
      </trkpt>
      <trkpt lat="4.5058820" lon="-74.2700750">
        <ele>2608.7</ele>
        <time>2018-08-11T17:44:23Z</time>
      </trkpt>
      <trkpt lat="4.5058450" lon="-74.2701030">
        <ele>2609.0</ele>
        <time>2018-08-11T17:44:25Z</time>
      </trkpt>
      <trkpt lat="4.5058120" lon="-74.2701320">
        <ele>2609.4</ele>
        <time>2018-08-11T17:44:27Z</time>
      </trkpt>
      <trkpt lat="4.5057700" lon="-74.2701520">
        <ele>2609.8</ele>
        <time>2018-08-11T17:44:29Z</time>
      </trkpt>
      <trkpt lat="4.5057270" lon="-74.2701720">
        <ele>2610.4</ele>
        <time>2018-08-11T17:44:31Z</time>
      </trkpt>
      <trkpt lat="4.5056920" lon="-74.2701950">
        <ele>2611.0</ele>
        <time>2018-08-11T17:44:33Z</time>
      </trkpt>
      <trkpt lat="4.5056670" lon="-74.2702070">
        <ele>2611.5</ele>
        <time>2018-08-11T17:44:34Z</time>
      </trkpt>
      <trkpt lat="4.5056400" lon="-74.2702330">
        <ele>2612.2</ele>
        <time>2018-08-11T17:44:36Z</time>
      </trkpt>
      <trkpt lat="4.5056070" lon="-74.2702570">
        <ele>2613.0</ele>
        <time>2018-08-11T17:44:38Z</time>
      </trkpt>
      <trkpt lat="4.5055780" lon="-74.2702800">
        <ele>2613.9</ele>
        <time>2018-08-11T17:44:40Z</time>
      </trkpt>
      <trkpt lat="4.5055500" lon="-74.2703020">
        <ele>2614.6</ele>
        <time>2018-08-11T17:44:42Z</time>
      </trkpt>
      <trkpt lat="4.5055230" lon="-74.2703250">
        <ele>2615.4</ele>
        <time>2018-08-11T17:44:44Z</time>
      </trkpt>
      <trkpt lat="4.5054970" lon="-74.2703530">
        <ele>2616.2</ele>
        <time>2018-08-11T17:44:46Z</time>
      </trkpt>
      <trkpt lat="4.5054780" lon="-74.2703830">
        <ele>2616.9</ele>
        <time>2018-08-11T17:44:48Z</time>
      </trkpt>
      <trkpt lat="4.5054670" lon="-74.2704150">
        <ele>2617.5</ele>
        <time>2018-08-11T17:44:50Z</time>
      </trkpt>
      <trkpt lat="4.5054550" lon="-74.2704500">
        <ele>2618.1</ele>
        <time>2018-08-11T17:44:52Z</time>
      </trkpt>
      <trkpt lat="4.5054420" lon="-74.2704850">
        <ele>2618.5</ele>
        <time>2018-08-11T17:44:54Z</time>
      </trkpt>
      <trkpt lat="4.5054270" lon="-74.2705080">
        <ele>2618.8</ele>
        <time>2018-08-11T17:44:58Z</time>
      </trkpt>
      <trkpt lat="4.5054100" lon="-74.2706300">
        <ele>2620.5</ele>
        <time>2018-08-11T17:45:29Z</time>
      </trkpt>
      <trkpt lat="4.5053980" lon="-74.2706630">
        <ele>2621.0</ele>
        <time>2018-08-11T17:45:31Z</time>
      </trkpt>
      <trkpt lat="4.5053820" lon="-74.2707000">
        <ele>2621.7</ele>
        <time>2018-08-11T17:45:33Z</time>
      </trkpt>
      <trkpt lat="4.5053670" lon="-74.2707370">
        <ele>2622.3</ele>
        <time>2018-08-11T17:45:35Z</time>
      </trkpt>
      <trkpt lat="4.5053550" lon="-74.2707730">
        <ele>2622.9</ele>
        <time>2018-08-11T17:45:37Z</time>
      </trkpt>
      <trkpt lat="4.5053420" lon="-74.2708070">
        <ele>2623.5</ele>
        <time>2018-08-11T17:45:39Z</time>
      </trkpt>
      <trkpt lat="4.5053230" lon="-74.2708450">
        <ele>2623.9</ele>
        <time>2018-08-11T17:45:41Z</time>
      </trkpt>
      <trkpt lat="4.5053080" lon="-74.2708880">
        <ele>2624.4</ele>
        <time>2018-08-11T17:45:43Z</time>
      </trkpt>
      <trkpt lat="4.5052930" lon="-74.2709280">
        <ele>2624.9</ele>
        <time>2018-08-11T17:45:45Z</time>
      </trkpt>
      <trkpt lat="4.5052770" lon="-74.2709730">
        <ele>2625.3</ele>
        <time>2018-08-11T17:45:47Z</time>
      </trkpt>
      <trkpt lat="4.5052650" lon="-74.2710150">
        <ele>2625.8</ele>
        <time>2018-08-11T17:45:49Z</time>
      </trkpt>
      <trkpt lat="4.5052600" lon="-74.2710600">
        <ele>2626.2</ele>
        <time>2018-08-11T17:45:51Z</time>
      </trkpt>
      <trkpt lat="4.5052430" lon="-74.2711030">
        <ele>2626.8</ele>
        <time>2018-08-11T17:45:53Z</time>
      </trkpt>
      <trkpt lat="4.5052180" lon="-74.2711450">
        <ele>2627.5</ele>
        <time>2018-08-11T17:45:55Z</time>
      </trkpt>
      <trkpt lat="4.5051970" lon="-74.2711930">
        <ele>2628.2</ele>
        <time>2018-08-11T17:45:57Z</time>
      </trkpt>
      <trkpt lat="4.5051950" lon="-74.2712230">
        <ele>2628.5</ele>
        <time>2018-08-11T17:45:58Z</time>
      </trkpt>
      <trkpt lat="4.5051820" lon="-74.2712670">
        <ele>2628.9</ele>
        <time>2018-08-11T17:46:00Z</time>
      </trkpt>
      <trkpt lat="4.5051670" lon="-74.2713100">
        <ele>2629.3</ele>
        <time>2018-08-11T17:46:02Z</time>
      </trkpt>
      <trkpt lat="4.5051500" lon="-74.2713580">
        <ele>2629.7</ele>
        <time>2018-08-11T17:46:04Z</time>
      </trkpt>
      <trkpt lat="4.5051380" lon="-74.2714070">
        <ele>2630.2</ele>
        <time>2018-08-11T17:46:06Z</time>
      </trkpt>
      <trkpt lat="4.5051180" lon="-74.2714530">
        <ele>2630.7</ele>
        <time>2018-08-11T17:46:08Z</time>
      </trkpt>
      <trkpt lat="4.5050530" lon="-74.2718080">
        <ele>2635.6</ele>
        <time>2018-08-11T17:46:22Z</time>
      </trkpt>
      <trkpt lat="4.5050570" lon="-74.2718500">
        <ele>2635.9</ele>
        <time>2018-08-11T17:46:24Z</time>
      </trkpt>
      <trkpt lat="4.5050600" lon="-74.2718950">
        <ele>2636.3</ele>
        <time>2018-08-11T17:46:26Z</time>
      </trkpt>
      <trkpt lat="4.5050600" lon="-74.2719330">
        <ele>2636.7</ele>
        <time>2018-08-11T17:46:28Z</time>
      </trkpt>
      <trkpt lat="4.5050670" lon="-74.2719820">
        <ele>2637.1</ele>
        <time>2018-08-11T17:46:30Z</time>
      </trkpt>
      <trkpt lat="4.5050630" lon="-74.2720150">
        <ele>2637.4</ele>
        <time>2018-08-11T17:46:32Z</time>
      </trkpt>
      <trkpt lat="4.5050630" lon="-74.2720600">
        <ele>2637.8</ele>
        <time>2018-08-11T17:46:34Z</time>
      </trkpt>
      <trkpt lat="4.5050580" lon="-74.2721080">
        <ele>2638.1</ele>
        <time>2018-08-11T17:46:36Z</time>
      </trkpt>
      <trkpt lat="4.5050570" lon="-74.2721620">
        <ele>2638.5</ele>
        <time>2018-08-11T17:46:38Z</time>
      </trkpt>
      <trkpt lat="4.5050500" lon="-74.2722070">
        <ele>2639.4</ele>
        <time>2018-08-11T17:46:40Z</time>
      </trkpt>
      <trkpt lat="4.5050450" lon="-74.2722450">
        <ele>2640.4</ele>
        <time>2018-08-11T17:46:42Z</time>
      </trkpt>
      <trkpt lat="4.5050450" lon="-74.2722930">
        <ele>2641.6</ele>
        <time>2018-08-11T17:46:44Z</time>
      </trkpt>
      <trkpt lat="4.5050500" lon="-74.2723480">
        <ele>2644.0</ele>
        <time>2018-08-11T17:46:46Z</time>
      </trkpt>
      <trkpt lat="4.5050550" lon="-74.2724050">
        <ele>2645.3</ele>
        <time>2018-08-11T17:46:48Z</time>
      </trkpt>
      <trkpt lat="4.5050600" lon="-74.2724600">
        <ele>2646.3</ele>
        <time>2018-08-11T17:46:50Z</time>
      </trkpt>
      <trkpt lat="4.5050580" lon="-74.2725080">
        <ele>2647.1</ele>
        <time>2018-08-11T17:46:52Z</time>
      </trkpt>
      <trkpt lat="4.5050500" lon="-74.2725450">
        <ele>2647.5</ele>
        <time>2018-08-11T17:46:54Z</time>
      </trkpt>
      <trkpt lat="4.5050480" lon="-74.2725930">
        <ele>2647.8</ele>
        <time>2018-08-11T17:46:56Z</time>
      </trkpt>
      <trkpt lat="4.5050500" lon="-74.2726230">
        <ele>2647.9</ele>
        <time>2018-08-11T17:46:57Z</time>
      </trkpt>
      <trkpt lat="4.5050530" lon="-74.2726530">
        <ele>2648.1</ele>
        <time>2018-08-11T17:46:58Z</time>
      </trkpt>
      <trkpt lat="4.5050550" lon="-74.2727020">
        <ele>2648.3</ele>
        <time>2018-08-11T17:46:59Z</time>
      </trkpt>
      <trkpt lat="4.5050580" lon="-74.2727380">
        <ele>2648.6</ele>
        <time>2018-08-11T17:47:00Z</time>
      </trkpt>
      <trkpt lat="4.5050600" lon="-74.2727670">
        <ele>2648.7</ele>
        <time>2018-08-11T17:47:01Z</time>
      </trkpt>
      <trkpt lat="4.5050580" lon="-74.2728200">
        <ele>2649.4</ele>
        <time>2018-08-11T17:47:03Z</time>
      </trkpt>
      <trkpt lat="4.5050550" lon="-74.2728680">
        <ele>2649.9</ele>
        <time>2018-08-11T17:47:05Z</time>
      </trkpt>
      <trkpt lat="4.5050530" lon="-74.2729200">
        <ele>2650.6</ele>
        <time>2018-08-11T17:47:07Z</time>
      </trkpt>
      <trkpt lat="4.5050470" lon="-74.2729650">
        <ele>2651.4</ele>
        <time>2018-08-11T17:47:09Z</time>
      </trkpt>
      <trkpt lat="4.5050370" lon="-74.2730070">
        <ele>2652.3</ele>
        <time>2018-08-11T17:47:11Z</time>
      </trkpt>
      <trkpt lat="4.5050350" lon="-74.2730530">
        <ele>2653.4</ele>
        <time>2018-08-11T17:47:13Z</time>
      </trkpt>
      <trkpt lat="4.5050350" lon="-74.2731000">
        <ele>2654.6</ele>
        <time>2018-08-11T17:47:15Z</time>
      </trkpt>
      <trkpt lat="4.5050330" lon="-74.2731280">
        <ele>2655.8</ele>
        <time>2018-08-11T17:47:16Z</time>
      </trkpt>
      <trkpt lat="4.5050330" lon="-74.2731770">
        <ele>2657.2</ele>
        <time>2018-08-11T17:47:18Z</time>
      </trkpt>
      <trkpt lat="4.5050330" lon="-74.2732220">
        <ele>2658.5</ele>
        <time>2018-08-11T17:47:20Z</time>
      </trkpt>
      <trkpt lat="4.5050350" lon="-74.2732730">
        <ele>2659.7</ele>
        <time>2018-08-11T17:47:22Z</time>
      </trkpt>
      <trkpt lat="4.5050320" lon="-74.2733230">
        <ele>2660.8</ele>
        <time>2018-08-11T17:47:24Z</time>
      </trkpt>
      <trkpt lat="4.5050250" lon="-74.2733730">
        <ele>2662.0</ele>
        <time>2018-08-11T17:47:26Z</time>
      </trkpt>
      <trkpt lat="4.5050220" lon="-74.2734270">
        <ele>2661.2</ele>
        <time>2018-08-11T17:47:28Z</time>
      </trkpt>
      <trkpt lat="4.5050220" lon="-74.2734550">
        <ele>2661.3</ele>
        <time>2018-08-11T17:47:29Z</time>
      </trkpt>
      <trkpt lat="4.5050220" lon="-74.2734870">
        <ele>2661.8</ele>
        <time>2018-08-11T17:47:30Z</time>
      </trkpt>
      <trkpt lat="4.5050250" lon="-74.2735350">
        <ele>2663.5</ele>
        <time>2018-08-11T17:47:32Z</time>
      </trkpt>
      <trkpt lat="4.5050270" lon="-74.2735820">
        <ele>2664.1</ele>
        <time>2018-08-11T17:47:34Z</time>
      </trkpt>
      <trkpt lat="4.5050280" lon="-74.2736300">
        <ele>2665.7</ele>
        <time>2018-08-11T17:47:36Z</time>
      </trkpt>
      <trkpt lat="4.5050220" lon="-74.2736820">
        <ele>2666.0</ele>
        <time>2018-08-11T17:47:38Z</time>
      </trkpt>
      <trkpt lat="4.5050150" lon="-74.2737330">
        <ele>2667.4</ele>
        <time>2018-08-11T17:47:40Z</time>
      </trkpt>
      <trkpt lat="4.5050050" lon="-74.2737850">
        <ele>2668.9</ele>
        <time>2018-08-11T17:47:42Z</time>
      </trkpt>
      <trkpt lat="4.5049930" lon="-74.2738330">
        <ele>2670.3</ele>
        <time>2018-08-11T17:47:44Z</time>
      </trkpt>
      <trkpt lat="4.5049870" lon="-74.2738820">
        <ele>2671.5</ele>
        <time>2018-08-11T17:47:46Z</time>
      </trkpt>
      <trkpt lat="4.5049850" lon="-74.2739280">
        <ele>2672.6</ele>
        <time>2018-08-11T17:47:48Z</time>
      </trkpt>
      <trkpt lat="4.5049850" lon="-74.2739730">
        <ele>2674.0</ele>
        <time>2018-08-11T17:47:50Z</time>
      </trkpt>
      <trkpt lat="4.5049870" lon="-74.2740180">
        <ele>2674.7</ele>
        <time>2018-08-11T17:47:52Z</time>
      </trkpt>
      <trkpt lat="4.5049850" lon="-74.2740600">
        <ele>2675.3</ele>
        <time>2018-08-11T17:47:54Z</time>
      </trkpt>
      <trkpt lat="4.5049830" lon="-74.2741080">
        <ele>2675.9</ele>
        <time>2018-08-11T17:47:56Z</time>
      </trkpt>
      <trkpt lat="4.5049900" lon="-74.2741600">
        <ele>2676.6</ele>
        <time>2018-08-11T17:47:58Z</time>
      </trkpt>
      <trkpt lat="4.5049880" lon="-74.2742100">
        <ele>2677.3</ele>
        <time>2018-08-11T17:48:00Z</time>
      </trkpt>
      <trkpt lat="4.5049870" lon="-74.2742500">
        <ele>2678.2</ele>
        <time>2018-08-11T17:48:02Z</time>
      </trkpt>
      <trkpt lat="4.5049850" lon="-74.2742980">
        <ele>2679.1</ele>
        <time>2018-08-11T17:48:04Z</time>
      </trkpt>
      <trkpt lat="4.5049820" lon="-74.2743470">
        <ele>2680.0</ele>
        <time>2018-08-11T17:48:06Z</time>
      </trkpt>
      <trkpt lat="4.5049750" lon="-74.2743970">
        <ele>2680.4</ele>
        <time>2018-08-11T17:48:08Z</time>
      </trkpt>
      <trkpt lat="4.5049770" lon="-74.2744380">
        <ele>2681.5</ele>
        <time>2018-08-11T17:48:10Z</time>
      </trkpt>
      <trkpt lat="4.5049800" lon="-74.2744820">
        <ele>2682.6</ele>
        <time>2018-08-11T17:48:12Z</time>
      </trkpt>
      <trkpt lat="4.5049830" lon="-74.2745220">
        <ele>2684.3</ele>
        <time>2018-08-11T17:48:14Z</time>
      </trkpt>
      <trkpt lat="4.5049850" lon="-74.2745600">
        <ele>2685.7</ele>
        <time>2018-08-11T17:48:16Z</time>
      </trkpt>
      <trkpt lat="4.5049850" lon="-74.2746030">
        <ele>2687.3</ele>
        <time>2018-08-11T17:48:18Z</time>
      </trkpt>
      <trkpt lat="4.5049850" lon="-74.2746500">
        <ele>2689.0</ele>
        <time>2018-08-11T17:48:20Z</time>
      </trkpt>
      <trkpt lat="4.5049850" lon="-74.2746950">
        <ele>2690.7</ele>
        <time>2018-08-11T17:48:22Z</time>
      </trkpt>
      <trkpt lat="4.5049830" lon="-74.2747370">
        <ele>2692.2</ele>
        <time>2018-08-11T17:48:24Z</time>
      </trkpt>
      <trkpt lat="4.5049700" lon="-74.2747800">
        <ele>2693.5</ele>
        <time>2018-08-11T17:48:26Z</time>
      </trkpt>
      <trkpt lat="4.5049550" lon="-74.2748200">
        <ele>2695.0</ele>
        <time>2018-08-11T17:48:28Z</time>
      </trkpt>
      <trkpt lat="4.5049350" lon="-74.2748620">
        <ele>2696.3</ele>
        <time>2018-08-11T17:48:30Z</time>
      </trkpt>
      <trkpt lat="4.5049170" lon="-74.2749050">
        <ele>2697.7</ele>
        <time>2018-08-11T17:48:32Z</time>
      </trkpt>
      <trkpt lat="4.5049000" lon="-74.2749450">
        <ele>2699.0</ele>
        <time>2018-08-11T17:48:34Z</time>
      </trkpt>
      <trkpt lat="4.5048850" lon="-74.2749850">
        <ele>2700.3</ele>
        <time>2018-08-11T17:48:36Z</time>
      </trkpt>
      <trkpt lat="4.5048680" lon="-74.2750230">
        <ele>2701.6</ele>
        <time>2018-08-11T17:48:38Z</time>
      </trkpt>
      <trkpt lat="4.5048430" lon="-74.2750620">
        <ele>2703.1</ele>
        <time>2018-08-11T17:48:40Z</time>
      </trkpt>
      <trkpt lat="4.5048200" lon="-74.2750930">
        <ele>2704.3</ele>
        <time>2018-08-11T17:48:42Z</time>
      </trkpt>
      <trkpt lat="4.5048030" lon="-74.2751330">
        <ele>2705.6</ele>
        <time>2018-08-11T17:48:44Z</time>
      </trkpt>
      <trkpt lat="4.5047820" lon="-74.2751730">
        <ele>2705.8</ele>
        <time>2018-08-11T17:48:46Z</time>
      </trkpt>
      <trkpt lat="4.5047580" lon="-74.2752150">
        <ele>2706.9</ele>
        <time>2018-08-11T17:48:48Z</time>
      </trkpt>
      <trkpt lat="4.5047420" lon="-74.2752600">
        <ele>2708.5</ele>
        <time>2018-08-11T17:48:50Z</time>
      </trkpt>
      <trkpt lat="4.5047370" lon="-74.2753050">
        <ele>2709.3</ele>
        <time>2018-08-11T17:48:52Z</time>
      </trkpt>
      <trkpt lat="4.5047270" lon="-74.2753500">
        <ele>2710.2</ele>
        <time>2018-08-11T17:48:54Z</time>
      </trkpt>
      <trkpt lat="4.5047170" lon="-74.2753930">
        <ele>2711.2</ele>
        <time>2018-08-11T17:48:56Z</time>
      </trkpt>
      <trkpt lat="4.5047050" lon="-74.2754350">
        <ele>2712.3</ele>
        <time>2018-08-11T17:48:58Z</time>
      </trkpt>
      <trkpt lat="4.5046870" lon="-74.2754750">
        <ele>2713.5</ele>
        <time>2018-08-11T17:49:00Z</time>
      </trkpt>
      <trkpt lat="4.5046830" lon="-74.2755130">
        <ele>2713.6</ele>
        <time>2018-08-11T17:49:02Z</time>
      </trkpt>
      <trkpt lat="4.5046670" lon="-74.2755480">
        <ele>2714.8</ele>
        <time>2018-08-11T17:49:04Z</time>
      </trkpt>
      <trkpt lat="4.5046500" lon="-74.2755880">
        <ele>2716.0</ele>
        <time>2018-08-11T17:49:06Z</time>
      </trkpt>
      <trkpt lat="4.5046330" lon="-74.2756300">
        <ele>2717.1</ele>
        <time>2018-08-11T17:49:08Z</time>
      </trkpt>
      <trkpt lat="4.5046180" lon="-74.2756720">
        <ele>2718.0</ele>
        <time>2018-08-11T17:49:10Z</time>
      </trkpt>
      <trkpt lat="4.5046020" lon="-74.2757100">
        <ele>2718.8</ele>
        <time>2018-08-11T17:49:12Z</time>
      </trkpt>
      <trkpt lat="4.5045880" lon="-74.2757530">
        <ele>2719.4</ele>
        <time>2018-08-11T17:49:14Z</time>
      </trkpt>
      <trkpt lat="4.5045830" lon="-74.2757930">
        <ele>2719.8</ele>
        <time>2018-08-11T17:49:16Z</time>
      </trkpt>
      <trkpt lat="4.5045700" lon="-74.2758320">
        <ele>2720.2</ele>
        <time>2018-08-11T17:49:18Z</time>
      </trkpt>
      <trkpt lat="4.5045550" lon="-74.2758700">
        <ele>2720.5</ele>
        <time>2018-08-11T17:49:20Z</time>
      </trkpt>
      <trkpt lat="4.5045370" lon="-74.2759100">
        <ele>2721.0</ele>
        <time>2018-08-11T17:49:22Z</time>
      </trkpt>
      <trkpt lat="4.5045220" lon="-74.2759520">
        <ele>2721.7</ele>
        <time>2018-08-11T17:49:24Z</time>
      </trkpt>
      <trkpt lat="4.5045100" lon="-74.2759930">
        <ele>2722.4</ele>
        <time>2018-08-11T17:49:26Z</time>
      </trkpt>
      <trkpt lat="4.5045000" lon="-74.2760370">
        <ele>2723.1</ele>
        <time>2018-08-11T17:49:28Z</time>
      </trkpt>
      <trkpt lat="4.5044950" lon="-74.2760800">
        <ele>2723.7</ele>
        <time>2018-08-11T17:49:30Z</time>
      </trkpt>
      <trkpt lat="4.5044900" lon="-74.2761250">
        <ele>2724.2</ele>
        <time>2018-08-11T17:49:32Z</time>
      </trkpt>
      <trkpt lat="4.5044930" lon="-74.2761750">
        <ele>2724.6</ele>
        <time>2018-08-11T17:49:34Z</time>
      </trkpt>
      <trkpt lat="4.5044980" lon="-74.2762220">
        <ele>2725.0</ele>
        <time>2018-08-11T17:49:36Z</time>
      </trkpt>
      <trkpt lat="4.5045020" lon="-74.2762680">
        <ele>2725.5</ele>
        <time>2018-08-11T17:49:38Z</time>
      </trkpt>
      <trkpt lat="4.5045080" lon="-74.2763150">
        <ele>2726.1</ele>
        <time>2018-08-11T17:49:40Z</time>
      </trkpt>
      <trkpt lat="4.5045180" lon="-74.2763630">
        <ele>2727.4</ele>
        <time>2018-08-11T17:49:42Z</time>
      </trkpt>
      <trkpt lat="4.5045320" lon="-74.2764050">
        <ele>2728.2</ele>
        <time>2018-08-11T17:49:44Z</time>
      </trkpt>
      <trkpt lat="4.5045470" lon="-74.2764500">
        <ele>2729.0</ele>
        <time>2018-08-11T17:49:46Z</time>
      </trkpt>
      <trkpt lat="4.5045620" lon="-74.2764970">
        <ele>2730.2</ele>
        <time>2018-08-11T17:49:48Z</time>
      </trkpt>
      <trkpt lat="4.5045720" lon="-74.2765380">
        <ele>2731.0</ele>
        <time>2018-08-11T17:49:50Z</time>
      </trkpt>
      <trkpt lat="4.5045820" lon="-74.2765800">
        <ele>2731.9</ele>
        <time>2018-08-11T17:49:52Z</time>
      </trkpt>
      <trkpt lat="4.5045900" lon="-74.2766250">
        <ele>2732.9</ele>
        <time>2018-08-11T17:49:54Z</time>
      </trkpt>
      <trkpt lat="4.5045970" lon="-74.2766720">
        <ele>2734.6</ele>
        <time>2018-08-11T17:49:56Z</time>
      </trkpt>
      <trkpt lat="4.5046030" lon="-74.2767150">
        <ele>2735.9</ele>
        <time>2018-08-11T17:49:58Z</time>
      </trkpt>
      <trkpt lat="4.5046100" lon="-74.2767530">
        <ele>2737.5</ele>
        <time>2018-08-11T17:50:00Z</time>
      </trkpt>
      <trkpt lat="4.5046150" lon="-74.2767930">
        <ele>2739.1</ele>
        <time>2018-08-11T17:50:02Z</time>
      </trkpt>
      <trkpt lat="4.5046180" lon="-74.2768350">
        <ele>2740.9</ele>
        <time>2018-08-11T17:50:04Z</time>
      </trkpt>
      <trkpt lat="4.5046200" lon="-74.2768630">
        <ele>2742.6</ele>
        <time>2018-08-11T17:50:05Z</time>
      </trkpt>
      <trkpt lat="4.5046180" lon="-74.2769150">
        <ele>2744.3</ele>
        <time>2018-08-11T17:50:07Z</time>
      </trkpt>
      <trkpt lat="4.5046070" lon="-74.2769620">
        <ele>2745.8</ele>
        <time>2018-08-11T17:50:09Z</time>
      </trkpt>
      <trkpt lat="4.5045980" lon="-74.2770000">
        <ele>2747.1</ele>
        <time>2018-08-11T17:50:11Z</time>
      </trkpt>
      <trkpt lat="4.5045880" lon="-74.2770400">
        <ele>2748.3</ele>
        <time>2018-08-11T17:50:13Z</time>
      </trkpt>
      <trkpt lat="4.5045700" lon="-74.2770770">
        <ele>2749.4</ele>
        <time>2018-08-11T17:50:15Z</time>
      </trkpt>
      <trkpt lat="4.5045500" lon="-74.2771120">
        <ele>2750.5</ele>
        <time>2018-08-11T17:50:17Z</time>
      </trkpt>
      <trkpt lat="4.5045320" lon="-74.2771480">
        <ele>2750.6</ele>
        <time>2018-08-11T17:50:19Z</time>
      </trkpt>
      <trkpt lat="4.5045150" lon="-74.2771880">
        <ele>2751.5</ele>
        <time>2018-08-11T17:50:21Z</time>
      </trkpt>
      <trkpt lat="4.5044930" lon="-74.2772220">
        <ele>2752.2</ele>
        <time>2018-08-11T17:50:23Z</time>
      </trkpt>
      <trkpt lat="4.5044730" lon="-74.2772570">
        <ele>2753.0</ele>
        <time>2018-08-11T17:50:25Z</time>
      </trkpt>
      <trkpt lat="4.5044550" lon="-74.2772930">
        <ele>2754.0</ele>
        <time>2018-08-11T17:50:27Z</time>
      </trkpt>
      <trkpt lat="4.5044300" lon="-74.2773230">
        <ele>2755.3</ele>
        <time>2018-08-11T17:50:29Z</time>
      </trkpt>
      <trkpt lat="4.5044070" lon="-74.2773600">
        <ele>2755.6</ele>
        <time>2018-08-11T17:50:31Z</time>
      </trkpt>
      <trkpt lat="4.5043880" lon="-74.2773920">
        <ele>2757.1</ele>
        <time>2018-08-11T17:50:33Z</time>
      </trkpt>
      <trkpt lat="4.5043620" lon="-74.2774180">
        <ele>2759.0</ele>
        <time>2018-08-11T17:50:35Z</time>
      </trkpt>
      <trkpt lat="4.5043370" lon="-74.2774500">
        <ele>2760.8</ele>
        <time>2018-08-11T17:50:37Z</time>
      </trkpt>
      <trkpt lat="4.5043200" lon="-74.2774770">
        <ele>2761.0</ele>
        <time>2018-08-11T17:50:39Z</time>
      </trkpt>
      <trkpt lat="4.5042930" lon="-74.2775050">
        <ele>2762.7</ele>
        <time>2018-08-11T17:50:41Z</time>
      </trkpt>
      <trkpt lat="4.5042600" lon="-74.2775280">
        <ele>2762.7</ele>
        <time>2018-08-11T17:50:43Z</time>
      </trkpt>
      <trkpt lat="4.5042280" lon="-74.2775520">
        <ele>2762.8</ele>
        <time>2018-08-11T17:50:45Z</time>
      </trkpt>
      <trkpt lat="4.5042050" lon="-74.2775750">
        <ele>2762.8</ele>
        <time>2018-08-11T17:50:47Z</time>
      </trkpt>
      <trkpt lat="4.5041720" lon="-74.2775920">
        <ele>2762.8</ele>
        <time>2018-08-11T17:50:49Z</time>
      </trkpt>
      <trkpt lat="4.5041280" lon="-74.2775870">
        <ele>2762.9</ele>
        <time>2018-08-11T17:50:51Z</time>
      </trkpt>
      <trkpt lat="4.5040780" lon="-74.2775900">
        <ele>2763.0</ele>
        <time>2018-08-11T17:50:53Z</time>
      </trkpt>
      <trkpt lat="4.5040350" lon="-74.2775970">
        <ele>2763.1</ele>
        <time>2018-08-11T17:50:55Z</time>
      </trkpt>
      <trkpt lat="4.5039970" lon="-74.2776030">
        <ele>2763.3</ele>
        <time>2018-08-11T17:50:57Z</time>
      </trkpt>
      <trkpt lat="4.5039520" lon="-74.2776000">
        <ele>2763.5</ele>
        <time>2018-08-11T17:50:59Z</time>
      </trkpt>
      <trkpt lat="4.5039150" lon="-74.2776050">
        <ele>2763.8</ele>
        <time>2018-08-11T17:51:01Z</time>
      </trkpt>
      <trkpt lat="4.5038870" lon="-74.2776270">
        <ele>2763.8</ele>
        <time>2018-08-11T17:51:03Z</time>
      </trkpt>
      <trkpt lat="4.5038680" lon="-74.2776700">
        <ele>2763.5</ele>
        <time>2018-08-11T17:51:05Z</time>
      </trkpt>
      <trkpt lat="4.5038430" lon="-74.2776980">
        <ele>2763.3</ele>
        <time>2018-08-11T17:51:07Z</time>
      </trkpt>
      <trkpt lat="4.5038180" lon="-74.2777220">
        <ele>2763.0</ele>
        <time>2018-08-11T17:51:09Z</time>
      </trkpt>
      <trkpt lat="4.5037930" lon="-74.2777370">
        <ele>2762.8</ele>
        <time>2018-08-11T17:51:11Z</time>
      </trkpt>
      <trkpt lat="4.5037650" lon="-74.2777420">
        <ele>2762.6</ele>
        <time>2018-08-11T17:51:13Z</time>
      </trkpt>
      <trkpt lat="4.5037330" lon="-74.2777530">
        <ele>2762.4</ele>
        <time>2018-08-11T17:51:15Z</time>
      </trkpt>
      <trkpt lat="4.5037120" lon="-74.2777700">
        <ele>2762.2</ele>
        <time>2018-08-11T17:51:17Z</time>
      </trkpt>
      <trkpt lat="4.5036930" lon="-74.2777900">
        <ele>2761.2</ele>
        <time>2018-08-11T17:51:19Z</time>
      </trkpt>
      <trkpt lat="4.5036620" lon="-74.2778070">
        <ele>2762.3</ele>
        <time>2018-08-11T17:51:22Z</time>
      </trkpt>
      <trkpt lat="4.5036370" lon="-74.2778270">
        <ele>2761.3</ele>
        <time>2018-08-11T17:51:24Z</time>
      </trkpt>
      <trkpt lat="4.5036150" lon="-74.2778450">
        <ele>2762.5</ele>
        <time>2018-08-11T17:51:26Z</time>
      </trkpt>
      <trkpt lat="4.5035920" lon="-74.2778600">
        <ele>2761.5</ele>
        <time>2018-08-11T17:51:28Z</time>
      </trkpt>
      <trkpt lat="4.5035620" lon="-74.2778700">
        <ele>2760.5</ele>
        <time>2018-08-11T17:51:30Z</time>
      </trkpt>
      <trkpt lat="4.5035330" lon="-74.2778850">
        <ele>2761.7</ele>
        <time>2018-08-11T17:51:32Z</time>
      </trkpt>
      <trkpt lat="4.5035070" lon="-74.2779030">
        <ele>2760.7</ele>
        <time>2018-08-11T17:51:34Z</time>
      </trkpt>
      <trkpt lat="4.5034800" lon="-74.2779250">
        <ele>2761.6</ele>
        <time>2018-08-11T17:51:36Z</time>
      </trkpt>
      <trkpt lat="4.5034570" lon="-74.2779430">
        <ele>2760.8</ele>
        <time>2018-08-11T17:51:38Z</time>
      </trkpt>
      <trkpt lat="4.5034320" lon="-74.2779650">
        <ele>2761.5</ele>
        <time>2018-08-11T17:51:40Z</time>
      </trkpt>
      <trkpt lat="4.5034000" lon="-74.2779880">
        <ele>2760.7</ele>
        <time>2018-08-11T17:51:42Z</time>
      </trkpt>
      <trkpt lat="4.5033700" lon="-74.2780100">
        <ele>2760.7</ele>
        <time>2018-08-11T17:51:44Z</time>
      </trkpt>
      <trkpt lat="4.5033400" lon="-74.2780270">
        <ele>2760.7</ele>
        <time>2018-08-11T17:51:46Z</time>
      </trkpt>
      <trkpt lat="4.5033180" lon="-74.2780470">
        <ele>2760.7</ele>
        <time>2018-08-11T17:51:48Z</time>
      </trkpt>
      <trkpt lat="4.5032930" lon="-74.2780650">
        <ele>2760.6</ele>
        <time>2018-08-11T17:51:50Z</time>
      </trkpt>
      <trkpt lat="4.5032720" lon="-74.2780850">
        <ele>2760.6</ele>
        <time>2018-08-11T17:51:52Z</time>
      </trkpt>
      <trkpt lat="4.5032450" lon="-74.2781120">
        <ele>2760.7</ele>
        <time>2018-08-11T17:51:54Z</time>
      </trkpt>
      <trkpt lat="4.5032220" lon="-74.2781400">
        <ele>2760.7</ele>
        <time>2018-08-11T17:51:56Z</time>
      </trkpt>
      <trkpt lat="4.5031970" lon="-74.2781700">
        <ele>2760.7</ele>
        <time>2018-08-11T17:51:58Z</time>
      </trkpt>
      <trkpt lat="4.5031730" lon="-74.2782030">
        <ele>2760.7</ele>
        <time>2018-08-11T17:52:00Z</time>
      </trkpt>
      <trkpt lat="4.5031550" lon="-74.2782380">
        <ele>2760.8</ele>
        <time>2018-08-11T17:52:02Z</time>
      </trkpt>
      <trkpt lat="4.5031350" lon="-74.2782650">
        <ele>2760.8</ele>
        <time>2018-08-11T17:52:04Z</time>
      </trkpt>
      <trkpt lat="4.5031130" lon="-74.2782920">
        <ele>2760.8</ele>
        <time>2018-08-11T17:52:06Z</time>
      </trkpt>
      <trkpt lat="4.5030950" lon="-74.2783200">
        <ele>2760.8</ele>
        <time>2018-08-11T17:52:08Z</time>
      </trkpt>
      <trkpt lat="4.5030830" lon="-74.2783470">
        <ele>2760.8</ele>
        <time>2018-08-11T17:52:09Z</time>
      </trkpt>
      <trkpt lat="4.5030670" lon="-74.2783970">
        <ele>2760.8</ele>
        <time>2018-08-11T17:52:11Z</time>
      </trkpt>
      <trkpt lat="4.5030730" lon="-74.2784500">
        <ele>2760.8</ele>
        <time>2018-08-11T17:52:13Z</time>
      </trkpt>
      <trkpt lat="4.5030750" lon="-74.2784930">
        <ele>2760.8</ele>
        <time>2018-08-11T17:52:15Z</time>
      </trkpt>
      <trkpt lat="4.5030830" lon="-74.2785270">
        <ele>2760.8</ele>
        <time>2018-08-11T17:52:17Z</time>
      </trkpt>
      <trkpt lat="4.5031050" lon="-74.2785550">
        <ele>2760.7</ele>
        <time>2018-08-11T17:52:19Z</time>
      </trkpt>
      <trkpt lat="4.5031130" lon="-74.2785900">
        <ele>2760.7</ele>
        <time>2018-08-11T17:52:21Z</time>
      </trkpt>
      <trkpt lat="4.5031030" lon="-74.2786350">
        <ele>2760.6</ele>
        <time>2018-08-11T17:52:23Z</time>
      </trkpt>
      <trkpt lat="4.5030920" lon="-74.2786630">
        <ele>2760.5</ele>
        <time>2018-08-11T17:52:24Z</time>
      </trkpt>
      <trkpt lat="4.5030800" lon="-74.2786920">
        <ele>2760.4</ele>
        <time>2018-08-11T17:52:25Z</time>
      </trkpt>
      <trkpt lat="4.5030720" lon="-74.2787270">
        <ele>2760.3</ele>
        <time>2018-08-11T17:52:26Z</time>
      </trkpt>
      <trkpt lat="4.5030630" lon="-74.2787630">
        <ele>2760.1</ele>
        <time>2018-08-11T17:52:27Z</time>
      </trkpt>
      <trkpt lat="4.5030550" lon="-74.2788030">
        <ele>2759.9</ele>
        <time>2018-08-11T17:52:28Z</time>
      </trkpt>
      <trkpt lat="4.5030400" lon="-74.2788420">
        <ele>2759.8</ele>
        <time>2018-08-11T17:52:29Z</time>
      </trkpt>
      <trkpt lat="4.5030220" lon="-74.2788770">
        <ele>2759.7</ele>
        <time>2018-08-11T17:52:30Z</time>
      </trkpt>
      <trkpt lat="4.5030000" lon="-74.2789100">
        <ele>2759.6</ele>
        <time>2018-08-11T17:52:31Z</time>
      </trkpt>
      <trkpt lat="4.5029720" lon="-74.2789420">
        <ele>2759.5</ele>
        <time>2018-08-11T17:52:32Z</time>
      </trkpt>
      <trkpt lat="4.5029430" lon="-74.2789720">
        <ele>2759.4</ele>
        <time>2018-08-11T17:52:33Z</time>
      </trkpt>
      <trkpt lat="4.5029100" lon="-74.2790020">
        <ele>2759.3</ele>
        <time>2018-08-11T17:52:34Z</time>
      </trkpt>
      <trkpt lat="4.5028750" lon="-74.2790300">
        <ele>2759.1</ele>
        <time>2018-08-11T17:52:35Z</time>
      </trkpt>
      <trkpt lat="4.5028400" lon="-74.2790580">
        <ele>2758.8</ele>
        <time>2018-08-11T17:52:36Z</time>
      </trkpt>
      <trkpt lat="4.5028030" lon="-74.2790870">
        <ele>2758.5</ele>
        <time>2018-08-11T17:52:37Z</time>
      </trkpt>
      <trkpt lat="4.5027720" lon="-74.2791150">
        <ele>2758.2</ele>
        <time>2018-08-11T17:52:38Z</time>
      </trkpt>
      <trkpt lat="4.5027430" lon="-74.2791430">
        <ele>2758.0</ele>
        <time>2018-08-11T17:52:39Z</time>
      </trkpt>
      <trkpt lat="4.5027070" lon="-74.2791670">
        <ele>2757.7</ele>
        <time>2018-08-11T17:52:40Z</time>
      </trkpt>
      <trkpt lat="4.5026780" lon="-74.2791950">
        <ele>2757.6</ele>
        <time>2018-08-11T17:52:41Z</time>
      </trkpt>
      <trkpt lat="4.5026500" lon="-74.2792220">
        <ele>2757.4</ele>
        <time>2018-08-11T17:52:42Z</time>
      </trkpt>
      <trkpt lat="4.5026170" lon="-74.2792480">
        <ele>2757.3</ele>
        <time>2018-08-11T17:52:43Z</time>
      </trkpt>
      <trkpt lat="4.5025870" lon="-74.2792730">
        <ele>2757.2</ele>
        <time>2018-08-11T17:52:44Z</time>
      </trkpt>
      <trkpt lat="4.5025580" lon="-74.2793000">
        <ele>2757.0</ele>
        <time>2018-08-11T17:52:45Z</time>
      </trkpt>
      <trkpt lat="4.5025230" lon="-74.2793230">
        <ele>2756.8</ele>
        <time>2018-08-11T17:52:46Z</time>
      </trkpt>
      <trkpt lat="4.5024900" lon="-74.2793500">
        <ele>2756.6</ele>
        <time>2018-08-11T17:52:47Z</time>
      </trkpt>
      <trkpt lat="4.5024530" lon="-74.2793730">
        <ele>2756.2</ele>
        <time>2018-08-11T17:52:48Z</time>
      </trkpt>
      <trkpt lat="4.5024180" lon="-74.2793900">
        <ele>2755.9</ele>
        <time>2018-08-11T17:52:49Z</time>
      </trkpt>
      <trkpt lat="4.5023820" lon="-74.2794070">
        <ele>2755.6</ele>
        <time>2018-08-11T17:52:50Z</time>
      </trkpt>
      <trkpt lat="4.5023430" lon="-74.2794230">
        <ele>2755.2</ele>
        <time>2018-08-11T17:52:51Z</time>
      </trkpt>
      <trkpt lat="4.5023100" lon="-74.2794380">
        <ele>2754.9</ele>
        <time>2018-08-11T17:52:52Z</time>
      </trkpt>
      <trkpt lat="4.5022800" lon="-74.2794500">
        <ele>2754.6</ele>
        <time>2018-08-11T17:52:53Z</time>
      </trkpt>
      <trkpt lat="4.5022500" lon="-74.2794600">
        <ele>2754.4</ele>
        <time>2018-08-11T17:52:54Z</time>
      </trkpt>
      <trkpt lat="4.5022180" lon="-74.2794720">
        <ele>2754.0</ele>
        <time>2018-08-11T17:52:55Z</time>
      </trkpt>
      <trkpt lat="4.5021850" lon="-74.2794850">
        <ele>2753.7</ele>
        <time>2018-08-11T17:52:56Z</time>
      </trkpt>
      <trkpt lat="4.5021450" lon="-74.2795030">
        <ele>2753.3</ele>
        <time>2018-08-11T17:52:57Z</time>
      </trkpt>
      <trkpt lat="4.5021080" lon="-74.2795220">
        <ele>2752.9</ele>
        <time>2018-08-11T17:52:58Z</time>
      </trkpt>
      <trkpt lat="4.5020670" lon="-74.2795350">
        <ele>2752.5</ele>
        <time>2018-08-11T17:52:59Z</time>
      </trkpt>
      <trkpt lat="4.5020270" lon="-74.2795450">
        <ele>2752.1</ele>
        <time>2018-08-11T17:53:00Z</time>
      </trkpt>
      <trkpt lat="4.5019870" lon="-74.2795550">
        <ele>2751.7</ele>
        <time>2018-08-11T17:53:01Z</time>
      </trkpt>
      <trkpt lat="4.5019520" lon="-74.2795670">
        <ele>2751.4</ele>
        <time>2018-08-11T17:53:02Z</time>
      </trkpt>
      <trkpt lat="4.5019170" lon="-74.2795780">
        <ele>2751.1</ele>
        <time>2018-08-11T17:53:03Z</time>
      </trkpt>
      <trkpt lat="4.5018820" lon="-74.2795920">
        <ele>2750.7</ele>
        <time>2018-08-11T17:53:04Z</time>
      </trkpt>
      <trkpt lat="4.5018430" lon="-74.2796000">
        <ele>2750.4</ele>
        <time>2018-08-11T17:53:05Z</time>
      </trkpt>
      <trkpt lat="4.5018050" lon="-74.2796100">
        <ele>2750.0</ele>
        <time>2018-08-11T17:53:06Z</time>
      </trkpt>
      <trkpt lat="4.5017650" lon="-74.2796150">
        <ele>2749.7</ele>
        <time>2018-08-11T17:53:07Z</time>
      </trkpt>
      <trkpt lat="4.5017300" lon="-74.2796200">
        <ele>2749.4</ele>
        <time>2018-08-11T17:53:08Z</time>
      </trkpt>
      <trkpt lat="4.5016950" lon="-74.2796270">
        <ele>2749.1</ele>
        <time>2018-08-11T17:53:09Z</time>
      </trkpt>
      <trkpt lat="4.5016570" lon="-74.2796350">
        <ele>2748.8</ele>
        <time>2018-08-11T17:53:10Z</time>
      </trkpt>
      <trkpt lat="4.5016150" lon="-74.2796430">
        <ele>2748.4</ele>
        <time>2018-08-11T17:53:11Z</time>
      </trkpt>
      <trkpt lat="4.5015730" lon="-74.2796520">
        <ele>2748.1</ele>
        <time>2018-08-11T17:53:12Z</time>
      </trkpt>
      <trkpt lat="4.5015280" lon="-74.2796630">
        <ele>2747.8</ele>
        <time>2018-08-11T17:53:13Z</time>
      </trkpt>
      <trkpt lat="4.5014800" lon="-74.2796700">
        <ele>2747.4</ele>
        <time>2018-08-11T17:53:14Z</time>
      </trkpt>
      <trkpt lat="4.5014250" lon="-74.2796770">
        <ele>2747.0</ele>
        <time>2018-08-11T17:53:15Z</time>
      </trkpt>
      <trkpt lat="4.5013750" lon="-74.2796880">
        <ele>2746.6</ele>
        <time>2018-08-11T17:53:16Z</time>
      </trkpt>
      <trkpt lat="4.5013270" lon="-74.2796980">
        <ele>2746.3</ele>
        <time>2018-08-11T17:53:17Z</time>
      </trkpt>
      <trkpt lat="4.5012800" lon="-74.2797100">
        <ele>2745.9</ele>
        <time>2018-08-11T17:53:18Z</time>
      </trkpt>
      <trkpt lat="4.5012350" lon="-74.2797180">
        <ele>2745.6</ele>
        <time>2018-08-11T17:53:19Z</time>
      </trkpt>
      <trkpt lat="4.5011900" lon="-74.2797270">
        <ele>2745.2</ele>
        <time>2018-08-11T17:53:20Z</time>
      </trkpt>
      <trkpt lat="4.5011450" lon="-74.2797420">
        <ele>2744.8</ele>
        <time>2018-08-11T17:53:21Z</time>
      </trkpt>
      <trkpt lat="4.5011030" lon="-74.2797570">
        <ele>2744.4</ele>
        <time>2018-08-11T17:53:22Z</time>
      </trkpt>
      <trkpt lat="4.5010620" lon="-74.2797730">
        <ele>2744.0</ele>
        <time>2018-08-11T17:53:23Z</time>
      </trkpt>
      <trkpt lat="4.5010230" lon="-74.2797950">
        <ele>2743.6</ele>
        <time>2018-08-11T17:53:24Z</time>
      </trkpt>
      <trkpt lat="4.5009820" lon="-74.2798200">
        <ele>2743.1</ele>
        <time>2018-08-11T17:53:25Z</time>
      </trkpt>
      <trkpt lat="4.5009370" lon="-74.2798480">
        <ele>2742.5</ele>
        <time>2018-08-11T17:53:26Z</time>
      </trkpt>
      <trkpt lat="4.5008930" lon="-74.2798780">
        <ele>2742.0</ele>
        <time>2018-08-11T17:53:27Z</time>
      </trkpt>
      <trkpt lat="4.5008500" lon="-74.2799070">
        <ele>2741.5</ele>
        <time>2018-08-11T17:53:28Z</time>
      </trkpt>
      <trkpt lat="4.5008080" lon="-74.2799380">
        <ele>2741.0</ele>
        <time>2018-08-11T17:53:29Z</time>
      </trkpt>
      <trkpt lat="4.5007700" lon="-74.2799700">
        <ele>2740.5</ele>
        <time>2018-08-11T17:53:30Z</time>
      </trkpt>
      <trkpt lat="4.5007300" lon="-74.2799970">
        <ele>2740.0</ele>
        <time>2018-08-11T17:53:31Z</time>
      </trkpt>
      <trkpt lat="4.5006880" lon="-74.2800220">
        <ele>2739.6</ele>
        <time>2018-08-11T17:53:32Z</time>
      </trkpt>
      <trkpt lat="4.5006470" lon="-74.2800450">
        <ele>2739.1</ele>
        <time>2018-08-11T17:53:33Z</time>
      </trkpt>
      <trkpt lat="4.5006080" lon="-74.2800680">
        <ele>2738.7</ele>
        <time>2018-08-11T17:53:34Z</time>
      </trkpt>
      <trkpt lat="4.5005730" lon="-74.2800930">
        <ele>2738.3</ele>
        <time>2018-08-11T17:53:35Z</time>
      </trkpt>
      <trkpt lat="4.5005420" lon="-74.2801180">
        <ele>2738.0</ele>
        <time>2018-08-11T17:53:36Z</time>
      </trkpt>
      <trkpt lat="4.5005150" lon="-74.2801470">
        <ele>2737.6</ele>
        <time>2018-08-11T17:53:37Z</time>
      </trkpt>
      <trkpt lat="4.5004830" lon="-74.2801750">
        <ele>2737.2</ele>
        <time>2018-08-11T17:53:38Z</time>
      </trkpt>
      <trkpt lat="4.5004530" lon="-74.2802030">
        <ele>2736.8</ele>
        <time>2018-08-11T17:53:39Z</time>
      </trkpt>
      <trkpt lat="4.5004280" lon="-74.2802300">
        <ele>2736.5</ele>
        <time>2018-08-11T17:53:40Z</time>
      </trkpt>
      <trkpt lat="4.5004080" lon="-74.2802570">
        <ele>2736.2</ele>
        <time>2018-08-11T17:53:41Z</time>
      </trkpt>
      <trkpt lat="4.5003680" lon="-74.2802800">
        <ele>2735.8</ele>
        <time>2018-08-11T17:53:43Z</time>
      </trkpt>
      <trkpt lat="4.5003520" lon="-74.2802420">
        <ele>2735.9</ele>
        <time>2018-08-11T17:53:45Z</time>
      </trkpt>
      <trkpt lat="4.5003800" lon="-74.2802180">
        <ele>2736.2</ele>
        <time>2018-08-11T17:53:47Z</time>
      </trkpt>
      <trkpt lat="4.5004170" lon="-74.2801920">
        <ele>2736.6</ele>
        <time>2018-08-11T17:53:49Z</time>
      </trkpt>
      <trkpt lat="4.5004470" lon="-74.2801630">
        <ele>2737.0</ele>
        <time>2018-08-11T17:53:51Z</time>
      </trkpt>
      <trkpt lat="4.5004780" lon="-74.2801400">
        <ele>2737.4</ele>
        <time>2018-08-11T17:53:53Z</time>
      </trkpt>
      <trkpt lat="4.5005100" lon="-74.2801220">
        <ele>2737.7</ele>
        <time>2018-08-11T17:53:55Z</time>
      </trkpt>
      <trkpt lat="4.5005420" lon="-74.2800970">
        <ele>2738.0</ele>
        <time>2018-08-11T17:53:57Z</time>
      </trkpt>
      <trkpt lat="4.5005680" lon="-74.2800680">
        <ele>2738.4</ele>
        <time>2018-08-11T17:53:59Z</time>
      </trkpt>
      <trkpt lat="4.5005980" lon="-74.2800400">
        <ele>2738.8</ele>
        <time>2018-08-11T17:54:01Z</time>
      </trkpt>
      <trkpt lat="4.5006320" lon="-74.2800100">
        <ele>2739.2</ele>
        <time>2018-08-11T17:54:03Z</time>
      </trkpt>
      <trkpt lat="4.5006670" lon="-74.2799820">
        <ele>2739.6</ele>
        <time>2018-08-11T17:54:05Z</time>
      </trkpt>
      <trkpt lat="4.5007050" lon="-74.2799580">
        <ele>2740.0</ele>
        <time>2018-08-11T17:54:07Z</time>
      </trkpt>
      <trkpt lat="4.5007350" lon="-74.2799270">
        <ele>2740.4</ele>
        <time>2018-08-11T17:54:09Z</time>
      </trkpt>
      <trkpt lat="4.5007570" lon="-74.2798920">
        <ele>2740.8</ele>
        <time>2018-08-11T17:54:11Z</time>
      </trkpt>
      <trkpt lat="4.5007770" lon="-74.2798580">
        <ele>2741.2</ele>
        <time>2018-08-11T17:54:13Z</time>
      </trkpt>
      <trkpt lat="4.5008070" lon="-74.2798370">
        <ele>2741.5</ele>
        <time>2018-08-11T17:54:15Z</time>
      </trkpt>
      <trkpt lat="4.5008380" lon="-74.2798150">
        <ele>2741.9</ele>
        <time>2018-08-11T17:54:17Z</time>
      </trkpt>
      <trkpt lat="4.5008770" lon="-74.2797950">
        <ele>2742.4</ele>
        <time>2018-08-11T17:54:20Z</time>
      </trkpt>
      <trkpt lat="4.5009020" lon="-74.2797770">
        <ele>2742.7</ele>
        <time>2018-08-11T17:54:22Z</time>
      </trkpt>
      <trkpt lat="4.5009280" lon="-74.2797530">
        <ele>2743.0</ele>
        <time>2018-08-11T17:54:24Z</time>
      </trkpt>
      <trkpt lat="4.5009530" lon="-74.2797320">
        <ele>2743.4</ele>
        <time>2018-08-11T17:54:26Z</time>
      </trkpt>
      <trkpt lat="4.5009850" lon="-74.2797320">
        <ele>2743.7</ele>
        <time>2018-08-11T17:54:27Z</time>
      </trkpt>
      <trkpt lat="4.5010300" lon="-74.2797230">
        <ele>2744.1</ele>
        <time>2018-08-11T17:54:29Z</time>
      </trkpt>
      <trkpt lat="4.5010700" lon="-74.2797100">
        <ele>2744.5</ele>
        <time>2018-08-11T17:54:31Z</time>
      </trkpt>
      <trkpt lat="4.5011000" lon="-74.2796930">
        <ele>2744.8</ele>
        <time>2018-08-11T17:54:33Z</time>
      </trkpt>
      <trkpt lat="4.5011370" lon="-74.2796920">
        <ele>2745.1</ele>
        <time>2018-08-11T17:54:35Z</time>
      </trkpt>
      <trkpt lat="4.5011700" lon="-74.2796900">
        <ele>2745.4</ele>
        <time>2018-08-11T17:54:37Z</time>
      </trkpt>
      <trkpt lat="4.5012100" lon="-74.2796970">
        <ele>2745.7</ele>
        <time>2018-08-11T17:54:39Z</time>
      </trkpt>
      <trkpt lat="4.5012470" lon="-74.2797100">
        <ele>2746.0</ele>
        <time>2018-08-11T17:54:41Z</time>
      </trkpt>
      <trkpt lat="4.5012830" lon="-74.2797030">
        <ele>2746.3</ele>
        <time>2018-08-11T17:54:43Z</time>
      </trkpt>
      <trkpt lat="4.5013200" lon="-74.2796830">
        <ele>2746.6</ele>
        <time>2018-08-11T17:54:45Z</time>
      </trkpt>
      <trkpt lat="4.5013570" lon="-74.2796620">
        <ele>2746.9</ele>
        <time>2018-08-11T17:54:47Z</time>
      </trkpt>
      <trkpt lat="4.5013930" lon="-74.2796570">
        <ele>2747.2</ele>
        <time>2018-08-11T17:54:49Z</time>
      </trkpt>
      <trkpt lat="4.5014300" lon="-74.2796580">
        <ele>2747.4</ele>
        <time>2018-08-11T17:54:51Z</time>
      </trkpt>
      <trkpt lat="4.5014650" lon="-74.2796520">
        <ele>2747.7</ele>
        <time>2018-08-11T17:54:53Z</time>
      </trkpt>
      <trkpt lat="4.5015000" lon="-74.2796480">
        <ele>2747.9</ele>
        <time>2018-08-11T17:54:55Z</time>
      </trkpt>
      <trkpt lat="4.5015370" lon="-74.2796430">
        <ele>2748.2</ele>
        <time>2018-08-11T17:54:57Z</time>
      </trkpt>
      <trkpt lat="4.5015700" lon="-74.2796350">
        <ele>2748.4</ele>
        <time>2018-08-11T17:54:59Z</time>
      </trkpt>
      <trkpt lat="4.5016100" lon="-74.2796280">
        <ele>2748.8</ele>
        <time>2018-08-11T17:55:01Z</time>
      </trkpt>
      <trkpt lat="4.5016420" lon="-74.2796180">
        <ele>2749.0</ele>
        <time>2018-08-11T17:55:03Z</time>
      </trkpt>
      <trkpt lat="4.5016630" lon="-74.2796000">
        <ele>2749.3</ele>
        <time>2018-08-11T17:55:04Z</time>
      </trkpt>
      <trkpt lat="4.5016970" lon="-74.2795850">
        <ele>2749.6</ele>
        <time>2018-08-11T17:55:06Z</time>
      </trkpt>
      <trkpt lat="4.5017280" lon="-74.2795850">
        <ele>2749.8</ele>
        <time>2018-08-11T17:55:09Z</time>
      </trkpt>
      <trkpt lat="4.5017570" lon="-74.2795830">
        <ele>2750.1</ele>
        <time>2018-08-11T17:55:11Z</time>
      </trkpt>
      <trkpt lat="4.5017800" lon="-74.2795670">
        <ele>2750.3</ele>
        <time>2018-08-11T17:55:14Z</time>
      </trkpt>
      <trkpt lat="4.5018170" lon="-74.2795500">
        <ele>2750.7</ele>
        <time>2018-08-11T17:55:17Z</time>
      </trkpt>
      <trkpt lat="4.5018380" lon="-74.2795330">
        <ele>2750.9</ele>
        <time>2018-08-11T17:55:19Z</time>
      </trkpt>
      <trkpt lat="4.5018650" lon="-74.2795170">
        <ele>2751.2</ele>
        <time>2018-08-11T17:55:21Z</time>
      </trkpt>
      <trkpt lat="4.5018980" lon="-74.2795050">
        <ele>2751.5</ele>
        <time>2018-08-11T17:55:23Z</time>
      </trkpt>
      <trkpt lat="4.5019370" lon="-74.2795030">
        <ele>2751.9</ele>
        <time>2018-08-11T17:55:25Z</time>
      </trkpt>
      <trkpt lat="4.5019730" lon="-74.2794930">
        <ele>2752.2</ele>
        <time>2018-08-11T17:55:27Z</time>
      </trkpt>
      <trkpt lat="4.5020100" lon="-74.2794780">
        <ele>2752.6</ele>
        <time>2018-08-11T17:55:29Z</time>
      </trkpt>
      <trkpt lat="4.5020420" lon="-74.2794630">
        <ele>2752.9</ele>
        <time>2018-08-11T17:55:31Z</time>
      </trkpt>
      <trkpt lat="4.5020750" lon="-74.2794420">
        <ele>2753.3</ele>
        <time>2018-08-11T17:55:33Z</time>
      </trkpt>
      <trkpt lat="4.5021130" lon="-74.2794280">
        <ele>2753.7</ele>
        <time>2018-08-11T17:55:35Z</time>
      </trkpt>
      <trkpt lat="4.5021450" lon="-74.2794080">
        <ele>2754.0</ele>
        <time>2018-08-11T17:55:37Z</time>
      </trkpt>
      <trkpt lat="4.5021880" lon="-74.2793980">
        <ele>2754.4</ele>
        <time>2018-08-11T17:55:39Z</time>
      </trkpt>
      <trkpt lat="4.5022270" lon="-74.2793900">
        <ele>2754.8</ele>
        <time>2018-08-11T17:55:41Z</time>
      </trkpt>
      <trkpt lat="4.5022580" lon="-74.2793720">
        <ele>2755.1</ele>
        <time>2018-08-11T17:55:43Z</time>
      </trkpt>
      <trkpt lat="4.5022950" lon="-74.2793630">
        <ele>2755.4</ele>
        <time>2018-08-11T17:55:45Z</time>
      </trkpt>
      <trkpt lat="4.5023320" lon="-74.2793580">
        <ele>2755.7</ele>
        <time>2018-08-11T17:55:47Z</time>
      </trkpt>
      <trkpt lat="4.5023620" lon="-74.2793370">
        <ele>2756.0</ele>
        <time>2018-08-11T17:55:49Z</time>
      </trkpt>
      <trkpt lat="4.5023930" lon="-74.2793220">
        <ele>2756.3</ele>
        <time>2018-08-11T17:55:51Z</time>
      </trkpt>
      <trkpt lat="4.5024280" lon="-74.2793000">
        <ele>2756.6</ele>
        <time>2018-08-11T17:55:53Z</time>
      </trkpt>
      <trkpt lat="4.5024630" lon="-74.2792900">
        <ele>2756.8</ele>
        <time>2018-08-11T17:55:55Z</time>
      </trkpt>
      <trkpt lat="4.5024970" lon="-74.2792620">
        <ele>2757.0</ele>
        <time>2018-08-11T17:55:57Z</time>
      </trkpt>
      <trkpt lat="4.5025220" lon="-74.2792300">
        <ele>2757.2</ele>
        <time>2018-08-11T17:55:59Z</time>
      </trkpt>
      <trkpt lat="4.5025380" lon="-74.2792050">
        <ele>2757.3</ele>
        <time>2018-08-11T17:56:01Z</time>
      </trkpt>
      <trkpt lat="4.5025620" lon="-74.2791900">
        <ele>2757.4</ele>
        <time>2018-08-11T17:56:03Z</time>
      </trkpt>
      <trkpt lat="4.5025920" lon="-74.2791730">
        <ele>2757.5</ele>
        <time>2018-08-11T17:56:05Z</time>
      </trkpt>
      <trkpt lat="4.5026150" lon="-74.2791550">
        <ele>2757.6</ele>
        <time>2018-08-11T17:56:07Z</time>
      </trkpt>
      <trkpt lat="4.5026500" lon="-74.2791400">
        <ele>2757.7</ele>
        <time>2018-08-11T17:56:09Z</time>
      </trkpt>
      <trkpt lat="4.5026780" lon="-74.2791180">
        <ele>2757.9</ele>
        <time>2018-08-11T17:56:11Z</time>
      </trkpt>
      <trkpt lat="4.5027020" lon="-74.2790900">
        <ele>2758.1</ele>
        <time>2018-08-11T17:56:13Z</time>
      </trkpt>
      <trkpt lat="4.5027250" lon="-74.2790680">
        <ele>2758.3</ele>
        <time>2018-08-11T17:56:15Z</time>
      </trkpt>
      <trkpt lat="4.5027550" lon="-74.2790430">
        <ele>2758.6</ele>
        <time>2018-08-11T17:56:17Z</time>
      </trkpt>
      <trkpt lat="4.5027880" lon="-74.2790280">
        <ele>2758.8</ele>
        <time>2018-08-11T17:56:19Z</time>
      </trkpt>
      <trkpt lat="4.5028200" lon="-74.2790170">
        <ele>2759.0</ele>
        <time>2018-08-11T17:56:21Z</time>
      </trkpt>
      <trkpt lat="4.5028530" lon="-74.2789930">
        <ele>2759.3</ele>
        <time>2018-08-11T17:56:23Z</time>
      </trkpt>
      <trkpt lat="4.5028750" lon="-74.2789670">
        <ele>2759.4</ele>
        <time>2018-08-11T17:56:25Z</time>
      </trkpt>
      <trkpt lat="4.5028980" lon="-74.2789300">
        <ele>2759.5</ele>
        <time>2018-08-11T17:56:27Z</time>
      </trkpt>
      <trkpt lat="4.5029220" lon="-74.2789050">
        <ele>2759.6</ele>
        <time>2018-08-11T17:56:29Z</time>
      </trkpt>
      <trkpt lat="4.5029400" lon="-74.2788750">
        <ele>2759.6</ele>
        <time>2018-08-11T17:56:31Z</time>
      </trkpt>
      <trkpt lat="4.5029650" lon="-74.2788470">
        <ele>2759.7</ele>
        <time>2018-08-11T17:56:33Z</time>
      </trkpt>
      <trkpt lat="4.5029850" lon="-74.2788180">
        <ele>2759.8</ele>
        <time>2018-08-11T17:56:35Z</time>
      </trkpt>
      <trkpt lat="4.5030050" lon="-74.2787900">
        <ele>2759.9</ele>
        <time>2018-08-11T17:56:37Z</time>
      </trkpt>
      <trkpt lat="4.5030250" lon="-74.2787580">
        <ele>2760.1</ele>
        <time>2018-08-11T17:56:39Z</time>
      </trkpt>
      <trkpt lat="4.5030370" lon="-74.2787250">
        <ele>2760.2</ele>
        <time>2018-08-11T17:56:41Z</time>
      </trkpt>
      <trkpt lat="4.5030520" lon="-74.2786780">
        <ele>2760.4</ele>
        <time>2018-08-11T17:56:43Z</time>
      </trkpt>
      <trkpt lat="4.5030780" lon="-74.2786370">
        <ele>2760.6</ele>
        <time>2018-08-11T17:56:45Z</time>
      </trkpt>
      <trkpt lat="4.5031020" lon="-74.2786220">
        <ele>2760.6</ele>
        <time>2018-08-11T17:56:46Z</time>
      </trkpt>
      <trkpt lat="4.5031130" lon="-74.2785880">
        <ele>2760.7</ele>
        <time>2018-08-11T17:56:48Z</time>
      </trkpt>
      <trkpt lat="4.5031120" lon="-74.2785520">
        <ele>2760.8</ele>
        <time>2018-08-11T17:56:50Z</time>
      </trkpt>
      <trkpt lat="4.5031190" lon="-74.2784960">
        <ele>2760.8</ele>
        <time>2018-08-11T17:56:52Z</time>
      </trkpt>
      <trkpt lat="4.5031200" lon="-74.2784670">
        <ele>2760.8</ele>
        <time>2018-08-11T17:56:53Z</time>
      </trkpt>
      <trkpt lat="4.5031300" lon="-74.2784400">
        <ele>2760.8</ele>
        <time>2018-08-11T17:56:54Z</time>
      </trkpt>
      <trkpt lat="4.5031570" lon="-74.2783950">
        <ele>2760.8</ele>
        <time>2018-08-11T17:56:56Z</time>
      </trkpt>
      <trkpt lat="4.5031720" lon="-74.2783680">
        <ele>2760.8</ele>
        <time>2018-08-11T17:56:58Z</time>
      </trkpt>
      <trkpt lat="4.5031680" lon="-74.2785670">
        <ele>2760.8</ele>
        <time>2018-08-11T17:57:21Z</time>
      </trkpt>
      <trkpt lat="4.5031750" lon="-74.2785980">
        <ele>2760.8</ele>
        <time>2018-08-11T17:57:22Z</time>
      </trkpt>
      <trkpt lat="4.5031850" lon="-74.2786300">
        <ele>2760.7</ele>
        <time>2018-08-11T17:57:23Z</time>
      </trkpt>
      <trkpt lat="4.5031870" lon="-74.2786750">
        <ele>2760.6</ele>
        <time>2018-08-11T17:57:25Z</time>
      </trkpt>
      <trkpt lat="4.5031880" lon="-74.2787050">
        <ele>2760.5</ele>
        <time>2018-08-11T17:57:26Z</time>
      </trkpt>
      <trkpt lat="4.5031880" lon="-74.2787400">
        <ele>2759.8</ele>
        <time>2018-08-11T17:57:27Z</time>
      </trkpt>
      <trkpt lat="4.5031920" lon="-74.2787750">
        <ele>2759.8</ele>
        <time>2018-08-11T17:57:28Z</time>
      </trkpt>
      <trkpt lat="4.5031930" lon="-74.2788100">
        <ele>2759.7</ele>
        <time>2018-08-11T17:57:29Z</time>
      </trkpt>
      <trkpt lat="4.5031970" lon="-74.2788500">
        <ele>2759.7</ele>
        <time>2018-08-11T17:57:30Z</time>
      </trkpt>
      <trkpt lat="4.5031980" lon="-74.2788930">
        <ele>2759.6</ele>
        <time>2018-08-11T17:57:31Z</time>
      </trkpt>
      <trkpt lat="4.5031980" lon="-74.2789280">
        <ele>2759.6</ele>
        <time>2018-08-11T17:57:32Z</time>
      </trkpt>
      <trkpt lat="4.5032470" lon="-74.2789170">
        <ele>2759.5</ele>
        <time>2018-08-11T17:57:33Z</time>
      </trkpt>
      <trkpt lat="4.5032370" lon="-74.2788530">
        <ele>2759.4</ele>
        <time>2018-08-11T17:57:35Z</time>
      </trkpt>
      <trkpt lat="4.5032770" lon="-74.2788400">
        <ele>2759.2</ele>
        <time>2018-08-11T17:57:37Z</time>
      </trkpt>
      <trkpt lat="4.5033130" lon="-74.2788570">
        <ele>2759.0</ele>
        <time>2018-08-11T17:57:39Z</time>
      </trkpt>
      <trkpt lat="4.5032630" lon="-74.2787500">
        <ele>2759.6</ele>
        <time>2018-08-11T17:57:45Z</time>
      </trkpt>
      <trkpt lat="4.5032470" lon="-74.2787180">
        <ele>2759.7</ele>
        <time>2018-08-11T17:57:46Z</time>
      </trkpt>
      <trkpt lat="4.5032300" lon="-74.2786620">
        <ele>2760.7</ele>
        <time>2018-08-11T17:57:47Z</time>
      </trkpt>
      <trkpt lat="4.5032180" lon="-74.2786080">
        <ele>2760.8</ele>
        <time>2018-08-11T17:57:48Z</time>
      </trkpt>
      <trkpt lat="4.5032130" lon="-74.2785470">
        <ele>2760.8</ele>
        <time>2018-08-11T17:57:49Z</time>
      </trkpt>
      <trkpt lat="4.5032130" lon="-74.2785050">
        <ele>2760.8</ele>
        <time>2018-08-11T17:57:50Z</time>
      </trkpt>
      <trkpt lat="4.5032130" lon="-74.2784720">
        <ele>2760.8</ele>
        <time>2018-08-11T17:57:51Z</time>
      </trkpt>
      <trkpt lat="4.5032120" lon="-74.2784420">
        <ele>2760.8</ele>
        <time>2018-08-11T17:57:52Z</time>
      </trkpt>
      <trkpt lat="4.5032150" lon="-74.2784130">
        <ele>2760.8</ele>
        <time>2018-08-11T17:57:53Z</time>
      </trkpt>
      <trkpt lat="4.5032270" lon="-74.2783800">
        <ele>2760.8</ele>
        <time>2018-08-11T17:57:55Z</time>
      </trkpt>
      <trkpt lat="4.5032480" lon="-74.2783530">
        <ele>2760.8</ele>
        <time>2018-08-11T17:57:57Z</time>
      </trkpt>
      <trkpt lat="4.5032780" lon="-74.2783280">
        <ele>2760.8</ele>
        <time>2018-08-11T17:57:59Z</time>
      </trkpt>
      <trkpt lat="4.5033000" lon="-74.2782900">
        <ele>2760.8</ele>
        <time>2018-08-11T17:58:01Z</time>
      </trkpt>
      <trkpt lat="4.5032980" lon="-74.2782580">
        <ele>2760.7</ele>
        <time>2018-08-11T17:58:03Z</time>
      </trkpt>
      <trkpt lat="4.5033730" lon="-74.2781500">
        <ele>2760.7</ele>
        <time>2018-08-11T17:58:58Z</time>
      </trkpt>
      <trkpt lat="4.5033800" lon="-74.2781830">
        <ele>2760.6</ele>
        <time>2018-08-11T17:59:00Z</time>
      </trkpt>
      <trkpt lat="4.5034500" lon="-74.2782430">
        <ele>2760.7</ele>
        <time>2018-08-11T17:59:26Z</time>
      </trkpt>
      <trkpt lat="4.5034050" lon="-74.2781750">
        <ele>2760.7</ele>
        <time>2018-08-11T17:59:28Z</time>
      </trkpt>
      <trkpt lat="4.5033870" lon="-74.2781550">
        <ele>2760.6</ele>
        <time>2018-08-11T17:59:29Z</time>
      </trkpt>
      <trkpt lat="4.5033530" lon="-74.2782430">
        <ele>2760.7</ele>
        <time>2018-08-11T18:00:02Z</time>
      </trkpt>
      <trkpt lat="4.5033230" lon="-74.2782670">
        <ele>2760.7</ele>
        <time>2018-08-11T18:00:04Z</time>
      </trkpt>
      <trkpt lat="4.5032900" lon="-74.2782850">
        <ele>2760.7</ele>
        <time>2018-08-11T18:00:06Z</time>
      </trkpt>
      <trkpt lat="4.5032630" lon="-74.2783070">
        <ele>2760.8</ele>
        <time>2018-08-11T18:00:08Z</time>
      </trkpt>
      <trkpt lat="4.5032380" lon="-74.2783350">
        <ele>2760.8</ele>
        <time>2018-08-11T18:00:10Z</time>
      </trkpt>
      <trkpt lat="4.5032180" lon="-74.2783600">
        <ele>2760.8</ele>
        <time>2018-08-11T18:00:12Z</time>
      </trkpt>
      <trkpt lat="4.5032070" lon="-74.2784020">
        <ele>2760.8</ele>
        <time>2018-08-11T18:00:14Z</time>
      </trkpt>
      <trkpt lat="4.5031850" lon="-74.2784420">
        <ele>2760.8</ele>
        <time>2018-08-11T18:00:16Z</time>
      </trkpt>
      <trkpt lat="4.5031670" lon="-74.2784780">
        <ele>2760.8</ele>
        <time>2018-08-11T18:00:18Z</time>
      </trkpt>
      <trkpt lat="4.5031530" lon="-74.2785130">
        <ele>2760.8</ele>
        <time>2018-08-11T18:00:20Z</time>
      </trkpt>
      <trkpt lat="4.5031350" lon="-74.2785500">
        <ele>2760.8</ele>
        <time>2018-08-11T18:00:22Z</time>
      </trkpt>
      <trkpt lat="4.5031230" lon="-74.2785880">
        <ele>2760.7</ele>
        <time>2018-08-11T18:00:24Z</time>
      </trkpt>
      <trkpt lat="4.5031070" lon="-74.2786180">
        <ele>2760.7</ele>
        <time>2018-08-11T18:00:26Z</time>
      </trkpt>
      <trkpt lat="4.5030950" lon="-74.2786570">
        <ele>2760.6</ele>
        <time>2018-08-11T18:00:28Z</time>
      </trkpt>
      <trkpt lat="4.5031000" lon="-74.2787150">
        <ele>2760.4</ele>
        <time>2018-08-11T18:00:30Z</time>
      </trkpt>
      <trkpt lat="4.5031150" lon="-74.2787480">
        <ele>2759.9</ele>
        <time>2018-08-11T18:00:31Z</time>
      </trkpt>
      <trkpt lat="4.5031300" lon="-74.2787750">
        <ele>2759.8</ele>
        <time>2018-08-11T18:00:32Z</time>
      </trkpt>
      <trkpt lat="4.5031520" lon="-74.2788000">
        <ele>2759.8</ele>
        <time>2018-08-11T18:00:33Z</time>
      </trkpt>
      <trkpt lat="4.5031720" lon="-74.2788230">
        <ele>2759.7</ele>
        <time>2018-08-11T18:00:34Z</time>
      </trkpt>
      <trkpt lat="4.5031900" lon="-74.2788520">
        <ele>2759.6</ele>
        <time>2018-08-11T18:00:35Z</time>
      </trkpt>
      <trkpt lat="4.5032100" lon="-74.2788720">
        <ele>2759.5</ele>
        <time>2018-08-11T18:00:36Z</time>
      </trkpt>
      <trkpt lat="4.5032480" lon="-74.2789080">
        <ele>2759.2</ele>
        <time>2018-08-11T18:00:38Z</time>
      </trkpt>
      <trkpt lat="4.5032680" lon="-74.2789280">
        <ele>2758.8</ele>
        <time>2018-08-11T18:00:39Z</time>
      </trkpt>
      <trkpt lat="4.5032920" lon="-74.2789430">
        <ele>2758.6</ele>
        <time>2018-08-11T18:00:40Z</time>
      </trkpt>
      <trkpt lat="4.5033350" lon="-74.2789730">
        <ele>2758.3</ele>
        <time>2018-08-11T18:00:42Z</time>
      </trkpt>
      <trkpt lat="4.5033730" lon="-74.2790120">
        <ele>2758.1</ele>
        <time>2018-08-11T18:00:44Z</time>
      </trkpt>
      <trkpt lat="4.5033950" lon="-74.2790300">
        <ele>2758.0</ele>
        <time>2018-08-11T18:00:45Z</time>
      </trkpt>
      <trkpt lat="4.5034180" lon="-74.2790450">
        <ele>2757.9</ele>
        <time>2018-08-11T18:00:46Z</time>
      </trkpt>
      <trkpt lat="4.5034580" lon="-74.2790720">
        <ele>2757.7</ele>
        <time>2018-08-11T18:00:48Z</time>
      </trkpt>
      <trkpt lat="4.5035050" lon="-74.2790970">
        <ele>2757.3</ele>
        <time>2018-08-11T18:00:50Z</time>
      </trkpt>
      <trkpt lat="4.5035320" lon="-74.2791120">
        <ele>2756.9</ele>
        <time>2018-08-11T18:00:51Z</time>
      </trkpt>
      <trkpt lat="4.5035550" lon="-74.2791280">
        <ele>2756.5</ele>
        <time>2018-08-11T18:00:52Z</time>
      </trkpt>
      <trkpt lat="4.5035780" lon="-74.2791430">
        <ele>2756.2</ele>
        <time>2018-08-11T18:00:53Z</time>
      </trkpt>
      <trkpt lat="4.5036020" lon="-74.2791580">
        <ele>2756.0</ele>
        <time>2018-08-11T18:00:54Z</time>
      </trkpt>
      <trkpt lat="4.5036280" lon="-74.2791750">
        <ele>2755.7</ele>
        <time>2018-08-11T18:00:55Z</time>
      </trkpt>
      <trkpt lat="4.5036550" lon="-74.2791950">
        <ele>2755.2</ele>
        <time>2018-08-11T18:00:56Z</time>
      </trkpt>
      <trkpt lat="4.5036770" lon="-74.2792150">
        <ele>2754.6</ele>
        <time>2018-08-11T18:00:57Z</time>
      </trkpt>
      <trkpt lat="4.5036980" lon="-74.2792450">
        <ele>2753.9</ele>
        <time>2018-08-11T18:00:58Z</time>
      </trkpt>
      <trkpt lat="4.5037170" lon="-74.2792670">
        <ele>2753.4</ele>
        <time>2018-08-11T18:00:59Z</time>
      </trkpt>
      <trkpt lat="4.5037430" lon="-74.2793120">
        <ele>2752.4</ele>
        <time>2018-08-11T18:01:01Z</time>
      </trkpt>
      <trkpt lat="4.5037550" lon="-74.2793380">
        <ele>2752.2</ele>
        <time>2018-08-11T18:01:02Z</time>
      </trkpt>
      <trkpt lat="4.5037820" lon="-74.2793830">
        <ele>2751.7</ele>
        <time>2018-08-11T18:01:04Z</time>
      </trkpt>
      <trkpt lat="4.5037980" lon="-74.2794070">
        <ele>2751.5</ele>
        <time>2018-08-11T18:01:05Z</time>
      </trkpt>
      <trkpt lat="4.5038230" lon="-74.2794270">
        <ele>2750.9</ele>
        <time>2018-08-11T18:01:06Z</time>
      </trkpt>
      <trkpt lat="4.5038450" lon="-74.2794450">
        <ele>2750.4</ele>
        <time>2018-08-11T18:01:07Z</time>
      </trkpt>
      <trkpt lat="4.5038620" lon="-74.2794700">
        <ele>2750.1</ele>
        <time>2018-08-11T18:01:08Z</time>
      </trkpt>
      <trkpt lat="4.5038770" lon="-74.2794930">
        <ele>2749.9</ele>
        <time>2018-08-11T18:01:09Z</time>
      </trkpt>
      <trkpt lat="4.5038930" lon="-74.2795150">
        <ele>2749.7</ele>
        <time>2018-08-11T18:01:10Z</time>
      </trkpt>
      <trkpt lat="4.5039130" lon="-74.2795370">
        <ele>2749.4</ele>
        <time>2018-08-11T18:01:11Z</time>
      </trkpt>
      <trkpt lat="4.5039320" lon="-74.2795620">
        <ele>2749.2</ele>
        <time>2018-08-11T18:01:12Z</time>
      </trkpt>
      <trkpt lat="4.5039530" lon="-74.2795830">
        <ele>2748.9</ele>
        <time>2018-08-11T18:01:13Z</time>
      </trkpt>
      <trkpt lat="4.5039730" lon="-74.2796130">
        <ele>2748.2</ele>
        <time>2018-08-11T18:01:14Z</time>
      </trkpt>
      <trkpt lat="4.5039930" lon="-74.2796470">
        <ele>2747.7</ele>
        <time>2018-08-11T18:01:15Z</time>
      </trkpt>
      <trkpt lat="4.5040100" lon="-74.2796780">
        <ele>2747.2</ele>
        <time>2018-08-11T18:01:16Z</time>
      </trkpt>
      <trkpt lat="4.5040200" lon="-74.2797050">
        <ele>2746.7</ele>
        <time>2018-08-11T18:01:17Z</time>
      </trkpt>
      <trkpt lat="4.5040280" lon="-74.2797330">
        <ele>2746.1</ele>
        <time>2018-08-11T18:01:18Z</time>
      </trkpt>
      <trkpt lat="4.5040330" lon="-74.2797600">
        <ele>2745.7</ele>
        <time>2018-08-11T18:01:19Z</time>
      </trkpt>
      <trkpt lat="4.5040400" lon="-74.2797920">
        <ele>2745.3</ele>
        <time>2018-08-11T18:01:20Z</time>
      </trkpt>
      <trkpt lat="4.5040480" lon="-74.2798200">
        <ele>2744.7</ele>
        <time>2018-08-11T18:01:21Z</time>
      </trkpt>
      <trkpt lat="4.5040570" lon="-74.2798480">
        <ele>2744.2</ele>
        <time>2018-08-11T18:01:22Z</time>
      </trkpt>
      <trkpt lat="4.5040650" lon="-74.2798780">
        <ele>2743.8</ele>
        <time>2018-08-11T18:01:23Z</time>
      </trkpt>
      <trkpt lat="4.5040770" lon="-74.2799050">
        <ele>2743.3</ele>
        <time>2018-08-11T18:01:24Z</time>
      </trkpt>
      <trkpt lat="4.5040870" lon="-74.2799330">
        <ele>2742.8</ele>
        <time>2018-08-11T18:01:25Z</time>
      </trkpt>
      <trkpt lat="4.5040970" lon="-74.2799620">
        <ele>2742.2</ele>
        <time>2018-08-11T18:01:26Z</time>
      </trkpt>
      <trkpt lat="4.5041100" lon="-74.2799880">
        <ele>2741.7</ele>
        <time>2018-08-11T18:01:27Z</time>
      </trkpt>
      <trkpt lat="4.5041270" lon="-74.2800130">
        <ele>2741.2</ele>
        <time>2018-08-11T18:01:28Z</time>
      </trkpt>
      <trkpt lat="4.5041420" lon="-74.2800400">
        <ele>2740.7</ele>
        <time>2018-08-11T18:01:29Z</time>
      </trkpt>
      <trkpt lat="4.5041580" lon="-74.2800730">
        <ele>2740.1</ele>
        <time>2018-08-11T18:01:30Z</time>
      </trkpt>
      <trkpt lat="4.5041880" lon="-74.2801200">
        <ele>2739.7</ele>
        <time>2018-08-11T18:01:32Z</time>
      </trkpt>
      <trkpt lat="4.5042050" lon="-74.2801470">
        <ele>2739.3</ele>
        <time>2018-08-11T18:01:33Z</time>
      </trkpt>
      <trkpt lat="4.5042250" lon="-74.2801670">
        <ele>2739.0</ele>
        <time>2018-08-11T18:01:34Z</time>
      </trkpt>
      <trkpt lat="4.5042520" lon="-74.2801900">
        <ele>2738.5</ele>
        <time>2018-08-11T18:01:35Z</time>
      </trkpt>
      <trkpt lat="4.5042800" lon="-74.2802130">
        <ele>2738.0</ele>
        <time>2018-08-11T18:01:36Z</time>
      </trkpt>
      <trkpt lat="4.5043150" lon="-74.2802380">
        <ele>2737.5</ele>
        <time>2018-08-11T18:01:37Z</time>
      </trkpt>
      <trkpt lat="4.5043330" lon="-74.2802600">
        <ele>2737.2</ele>
        <time>2018-08-11T18:01:38Z</time>
      </trkpt>
      <trkpt lat="4.5043620" lon="-74.2802820">
        <ele>2736.8</ele>
        <time>2018-08-11T18:01:39Z</time>
      </trkpt>
      <trkpt lat="4.5043830" lon="-74.2803030">
        <ele>2736.3</ele>
        <time>2018-08-11T18:01:40Z</time>
      </trkpt>
      <trkpt lat="4.5044200" lon="-74.2803430">
        <ele>2735.5</ele>
        <time>2018-08-11T18:01:42Z</time>
      </trkpt>
      <trkpt lat="4.5044330" lon="-74.2803680">
        <ele>2735.3</ele>
        <time>2018-08-11T18:01:43Z</time>
      </trkpt>
      <trkpt lat="4.5044600" lon="-74.2804080">
        <ele>2734.8</ele>
        <time>2018-08-11T18:01:45Z</time>
      </trkpt>
      <trkpt lat="4.5044880" lon="-74.2804470">
        <ele>2734.1</ele>
        <time>2018-08-11T18:01:47Z</time>
      </trkpt>
      <trkpt lat="4.5045070" lon="-74.2804670">
        <ele>2733.7</ele>
        <time>2018-08-11T18:01:48Z</time>
      </trkpt>
      <trkpt lat="4.5045420" lon="-74.2805030">
        <ele>2733.4</ele>
        <time>2018-08-11T18:01:50Z</time>
      </trkpt>
      <trkpt lat="4.5045600" lon="-74.2805250">
        <ele>2733.2</ele>
        <time>2018-08-11T18:01:51Z</time>
      </trkpt>
      <trkpt lat="4.5045750" lon="-74.2805480">
        <ele>2733.0</ele>
        <time>2018-08-11T18:01:52Z</time>
      </trkpt>
      <trkpt lat="4.5045980" lon="-74.2805870">
        <ele>2732.6</ele>
        <time>2018-08-11T18:01:54Z</time>
      </trkpt>
      <trkpt lat="4.5046230" lon="-74.2806320">
        <ele>2731.6</ele>
        <time>2018-08-11T18:01:56Z</time>
      </trkpt>
      <trkpt lat="4.5046620" lon="-74.2806700">
        <ele>2731.0</ele>
        <time>2018-08-11T18:01:58Z</time>
      </trkpt>
      <trkpt lat="4.5046820" lon="-74.2806900">
        <ele>2730.7</ele>
        <time>2018-08-11T18:01:59Z</time>
      </trkpt>
      <trkpt lat="4.5047200" lon="-74.2807280">
        <ele>2729.7</ele>
        <time>2018-08-11T18:02:01Z</time>
      </trkpt>
      <trkpt lat="4.5047650" lon="-74.2807550">
        <ele>2729.2</ele>
        <time>2018-08-11T18:02:03Z</time>
      </trkpt>
      <trkpt lat="4.5047970" lon="-74.2807620">
        <ele>2729.0</ele>
        <time>2018-08-11T18:02:04Z</time>
      </trkpt>
      <trkpt lat="4.5048300" lon="-74.2807700">
        <ele>2728.8</ele>
        <time>2018-08-11T18:02:05Z</time>
      </trkpt>
      <trkpt lat="4.5048650" lon="-74.2807800">
        <ele>2728.6</ele>
        <time>2018-08-11T18:02:06Z</time>
      </trkpt>
      <trkpt lat="4.5048980" lon="-74.2807850">
        <ele>2728.4</ele>
        <time>2018-08-11T18:02:07Z</time>
      </trkpt>
      <trkpt lat="4.5049220" lon="-74.2808000">
        <ele>2728.2</ele>
        <time>2018-08-11T18:02:08Z</time>
      </trkpt>
      <trkpt lat="4.5049530" lon="-74.2808120">
        <ele>2727.8</ele>
        <time>2018-08-11T18:02:09Z</time>
      </trkpt>
      <trkpt lat="4.5049950" lon="-74.2808180">
        <ele>2727.4</ele>
        <time>2018-08-11T18:02:10Z</time>
      </trkpt>
      <trkpt lat="4.5050280" lon="-74.2808180">
        <ele>2727.1</ele>
        <time>2018-08-11T18:02:11Z</time>
      </trkpt>
      <trkpt lat="4.5050700" lon="-74.2808270">
        <ele>2726.9</ele>
        <time>2018-08-11T18:02:12Z</time>
      </trkpt>
      <trkpt lat="4.5051120" lon="-74.2808330">
        <ele>2726.7</ele>
        <time>2018-08-11T18:02:13Z</time>
      </trkpt>
      <trkpt lat="4.5051500" lon="-74.2808350">
        <ele>2726.6</ele>
        <time>2018-08-11T18:02:14Z</time>
      </trkpt>
      <trkpt lat="4.5051850" lon="-74.2808370">
        <ele>2726.5</ele>
        <time>2018-08-11T18:02:15Z</time>
      </trkpt>
      <trkpt lat="4.5052200" lon="-74.2808430">
        <ele>2726.2</ele>
        <time>2018-08-11T18:02:16Z</time>
      </trkpt>
      <trkpt lat="4.5052500" lon="-74.2808500">
        <ele>2725.9</ele>
        <time>2018-08-11T18:02:17Z</time>
      </trkpt>
      <trkpt lat="4.5052780" lon="-74.2808600">
        <ele>2725.6</ele>
        <time>2018-08-11T18:02:18Z</time>
      </trkpt>
      <trkpt lat="4.5053070" lon="-74.2808630">
        <ele>2725.4</ele>
        <time>2018-08-11T18:02:19Z</time>
      </trkpt>
      <trkpt lat="4.5053370" lon="-74.2808680">
        <ele>2725.2</ele>
        <time>2018-08-11T18:02:20Z</time>
      </trkpt>
      <trkpt lat="4.5053730" lon="-74.2808770">
        <ele>2725.0</ele>
        <time>2018-08-11T18:02:21Z</time>
      </trkpt>
      <trkpt lat="4.5054080" lon="-74.2808880">
        <ele>2724.9</ele>
        <time>2018-08-11T18:02:22Z</time>
      </trkpt>
      <trkpt lat="4.5054450" lon="-74.2808970">
        <ele>2724.7</ele>
        <time>2018-08-11T18:02:23Z</time>
      </trkpt>
      <trkpt lat="4.5054800" lon="-74.2809050">
        <ele>2724.6</ele>
        <time>2018-08-11T18:02:24Z</time>
      </trkpt>
      <trkpt lat="4.5055100" lon="-74.2809120">
        <ele>2724.5</ele>
        <time>2018-08-11T18:02:25Z</time>
      </trkpt>
      <trkpt lat="4.5055370" lon="-74.2809200">
        <ele>2724.3</ele>
        <time>2018-08-11T18:02:26Z</time>
      </trkpt>
      <trkpt lat="4.5055670" lon="-74.2809250">
        <ele>2724.0</ele>
        <time>2018-08-11T18:02:27Z</time>
      </trkpt>
      <trkpt lat="4.5055980" lon="-74.2809250">
        <ele>2723.7</ele>
        <time>2018-08-11T18:02:28Z</time>
      </trkpt>
      <trkpt lat="4.5056520" lon="-74.2809220">
        <ele>2723.3</ele>
        <time>2018-08-11T18:02:30Z</time>
      </trkpt>
      <trkpt lat="4.5057070" lon="-74.2809230">
        <ele>2723.1</ele>
        <time>2018-08-11T18:02:32Z</time>
      </trkpt>
      <trkpt lat="4.5057350" lon="-74.2809250">
        <ele>2723.1</ele>
        <time>2018-08-11T18:02:33Z</time>
      </trkpt>
      <trkpt lat="4.5057670" lon="-74.2809330">
        <ele>2723.0</ele>
        <time>2018-08-11T18:02:34Z</time>
      </trkpt>
      <trkpt lat="4.5057950" lon="-74.2809370">
        <ele>2722.9</ele>
        <time>2018-08-11T18:02:35Z</time>
      </trkpt>
      <trkpt lat="4.5058270" lon="-74.2809380">
        <ele>2722.8</ele>
        <time>2018-08-11T18:02:36Z</time>
      </trkpt>
      <trkpt lat="4.5058600" lon="-74.2809470">
        <ele>2722.7</ele>
        <time>2018-08-11T18:02:37Z</time>
      </trkpt>
      <trkpt lat="4.5058880" lon="-74.2809600">
        <ele>2722.5</ele>
        <time>2018-08-11T18:02:38Z</time>
      </trkpt>
      <trkpt lat="4.5059180" lon="-74.2809750">
        <ele>2722.4</ele>
        <time>2018-08-11T18:02:39Z</time>
      </trkpt>
      <trkpt lat="4.5059520" lon="-74.2809850">
        <ele>2722.2</ele>
        <time>2018-08-11T18:02:40Z</time>
      </trkpt>
      <trkpt lat="4.5059830" lon="-74.2809970">
        <ele>2721.9</ele>
        <time>2018-08-11T18:02:41Z</time>
      </trkpt>
      <trkpt lat="4.5060130" lon="-74.2810070">
        <ele>2721.5</ele>
        <time>2018-08-11T18:02:42Z</time>
      </trkpt>
      <trkpt lat="4.5060450" lon="-74.2810170">
        <ele>2721.2</ele>
        <time>2018-08-11T18:02:43Z</time>
      </trkpt>
      <trkpt lat="4.5060730" lon="-74.2810270">
        <ele>2721.0</ele>
        <time>2018-08-11T18:02:44Z</time>
      </trkpt>
      <trkpt lat="4.5061280" lon="-74.2810470">
        <ele>2720.7</ele>
        <time>2018-08-11T18:02:46Z</time>
      </trkpt>
      <trkpt lat="4.5061550" lon="-74.2810550">
        <ele>2720.6</ele>
        <time>2018-08-11T18:02:47Z</time>
      </trkpt>
      <trkpt lat="4.5061830" lon="-74.2810680">
        <ele>2720.5</ele>
        <time>2018-08-11T18:02:48Z</time>
      </trkpt>
      <trkpt lat="4.5062130" lon="-74.2810820">
        <ele>2720.4</ele>
        <time>2018-08-11T18:02:49Z</time>
      </trkpt>
      <trkpt lat="4.5062450" lon="-74.2810980">
        <ele>2720.3</ele>
        <time>2018-08-11T18:02:50Z</time>
      </trkpt>
      <trkpt lat="4.5062730" lon="-74.2811100">
        <ele>2720.1</ele>
        <time>2018-08-11T18:02:51Z</time>
      </trkpt>
      <trkpt lat="4.5063070" lon="-74.2811250">
        <ele>2719.8</ele>
        <time>2018-08-11T18:02:52Z</time>
      </trkpt>
      <trkpt lat="4.5063400" lon="-74.2811380">
        <ele>2719.5</ele>
        <time>2018-08-11T18:02:53Z</time>
      </trkpt>
      <trkpt lat="4.5063730" lon="-74.2811550">
        <ele>2719.2</ele>
        <time>2018-08-11T18:02:54Z</time>
      </trkpt>
      <trkpt lat="4.5064080" lon="-74.2811720">
        <ele>2719.1</ele>
        <time>2018-08-11T18:02:55Z</time>
      </trkpt>
      <trkpt lat="4.5064430" lon="-74.2811870">
        <ele>2719.0</ele>
        <time>2018-08-11T18:02:56Z</time>
      </trkpt>
      <trkpt lat="4.5064820" lon="-74.2812000">
        <ele>2718.9</ele>
        <time>2018-08-11T18:02:57Z</time>
      </trkpt>
      <trkpt lat="4.5065180" lon="-74.2812120">
        <ele>2718.9</ele>
        <time>2018-08-11T18:02:58Z</time>
      </trkpt>
      <trkpt lat="4.5065550" lon="-74.2812250">
        <ele>2718.8</ele>
        <time>2018-08-11T18:02:59Z</time>
      </trkpt>
      <trkpt lat="4.5065900" lon="-74.2812370">
        <ele>2718.8</ele>
        <time>2018-08-11T18:03:00Z</time>
      </trkpt>
      <trkpt lat="4.5066220" lon="-74.2812500">
        <ele>2718.7</ele>
        <time>2018-08-11T18:03:01Z</time>
      </trkpt>
      <trkpt lat="4.5066520" lon="-74.2812620">
        <ele>2718.7</ele>
        <time>2018-08-11T18:03:02Z</time>
      </trkpt>
      <trkpt lat="4.5066800" lon="-74.2812720">
        <ele>2718.7</ele>
        <time>2018-08-11T18:03:03Z</time>
      </trkpt>
      <trkpt lat="4.5067120" lon="-74.2812820">
        <ele>2718.7</ele>
        <time>2018-08-11T18:03:04Z</time>
      </trkpt>
      <trkpt lat="4.5067470" lon="-74.2812920">
        <ele>2718.7</ele>
        <time>2018-08-11T18:03:05Z</time>
      </trkpt>
      <trkpt lat="4.5067870" lon="-74.2813030">
        <ele>2718.6</ele>
        <time>2018-08-11T18:03:06Z</time>
      </trkpt>
      <trkpt lat="4.5068250" lon="-74.2813130">
        <ele>2718.6</ele>
        <time>2018-08-11T18:03:07Z</time>
      </trkpt>
      <trkpt lat="4.5068630" lon="-74.2813220">
        <ele>2718.6</ele>
        <time>2018-08-11T18:03:08Z</time>
      </trkpt>
      <trkpt lat="4.5069050" lon="-74.2813270">
        <ele>2718.6</ele>
        <time>2018-08-11T18:03:09Z</time>
      </trkpt>
      <trkpt lat="4.5069500" lon="-74.2813350">
        <ele>2718.6</ele>
        <time>2018-08-11T18:03:10Z</time>
      </trkpt>
      <trkpt lat="4.5069920" lon="-74.2813470">
        <ele>2718.6</ele>
        <time>2018-08-11T18:03:11Z</time>
      </trkpt>
      <trkpt lat="4.5070300" lon="-74.2813530">
        <ele>2718.6</ele>
        <time>2018-08-11T18:03:12Z</time>
      </trkpt>
      <trkpt lat="4.5070720" lon="-74.2813670">
        <ele>2718.6</ele>
        <time>2018-08-11T18:03:13Z</time>
      </trkpt>
      <trkpt lat="4.5071150" lon="-74.2813730">
        <ele>2718.6</ele>
        <time>2018-08-11T18:03:14Z</time>
      </trkpt>
      <trkpt lat="4.5071550" lon="-74.2813850">
        <ele>2718.6</ele>
        <time>2018-08-11T18:03:15Z</time>
      </trkpt>
      <trkpt lat="4.5071970" lon="-74.2813920">
        <ele>2718.6</ele>
        <time>2018-08-11T18:03:16Z</time>
      </trkpt>
      <trkpt lat="4.5072400" lon="-74.2814020">
        <ele>2718.6</ele>
        <time>2018-08-11T18:03:17Z</time>
      </trkpt>
      <trkpt lat="4.5072850" lon="-74.2814130">
        <ele>2718.6</ele>
        <time>2018-08-11T18:03:18Z</time>
      </trkpt>
      <trkpt lat="4.5073270" lon="-74.2814270">
        <ele>2718.6</ele>
        <time>2018-08-11T18:03:19Z</time>
      </trkpt>
      <trkpt lat="4.5073680" lon="-74.2814430">
        <ele>2718.6</ele>
        <time>2018-08-11T18:03:20Z</time>
      </trkpt>
      <trkpt lat="4.5074080" lon="-74.2814480">
        <ele>2718.6</ele>
        <time>2018-08-11T18:03:21Z</time>
      </trkpt>
      <trkpt lat="4.5074450" lon="-74.2814600">
        <ele>2718.6</ele>
        <time>2018-08-11T18:03:22Z</time>
      </trkpt>
      <trkpt lat="4.5074770" lon="-74.2814820">
        <ele>2718.6</ele>
        <time>2018-08-11T18:03:23Z</time>
      </trkpt>
      <trkpt lat="4.5075150" lon="-74.2814900">
        <ele>2718.6</ele>
        <time>2018-08-11T18:03:24Z</time>
      </trkpt>
      <trkpt lat="4.5075430" lon="-74.2815070">
        <ele>2718.6</ele>
        <time>2018-08-11T18:03:25Z</time>
      </trkpt>
      <trkpt lat="4.5075680" lon="-74.2815220">
        <ele>2718.6</ele>
        <time>2018-08-11T18:03:26Z</time>
      </trkpt>
      <trkpt lat="4.5076130" lon="-74.2815520">
        <ele>2718.6</ele>
        <time>2018-08-11T18:03:28Z</time>
      </trkpt>
      <trkpt lat="4.5076380" lon="-74.2815680">
        <ele>2718.6</ele>
        <time>2018-08-11T18:03:29Z</time>
      </trkpt>
      <trkpt lat="4.5076630" lon="-74.2815830">
        <ele>2718.6</ele>
        <time>2018-08-11T18:03:30Z</time>
      </trkpt>
      <trkpt lat="4.5077120" lon="-74.2816120">
        <ele>2718.6</ele>
        <time>2018-08-11T18:03:32Z</time>
      </trkpt>
      <trkpt lat="4.5077370" lon="-74.2816280">
        <ele>2718.6</ele>
        <time>2018-08-11T18:03:33Z</time>
      </trkpt>
      <trkpt lat="4.5077650" lon="-74.2816430">
        <ele>2718.6</ele>
        <time>2018-08-11T18:03:34Z</time>
      </trkpt>
      <trkpt lat="4.5077930" lon="-74.2816580">
        <ele>2718.6</ele>
        <time>2018-08-11T18:03:35Z</time>
      </trkpt>
      <trkpt lat="4.5078220" lon="-74.2816750">
        <ele>2718.6</ele>
        <time>2018-08-11T18:03:36Z</time>
      </trkpt>
      <trkpt lat="4.5078470" lon="-74.2816920">
        <ele>2718.6</ele>
        <time>2018-08-11T18:03:37Z</time>
      </trkpt>
      <trkpt lat="4.5078870" lon="-74.2817170">
        <ele>2718.6</ele>
        <time>2018-08-11T18:03:39Z</time>
      </trkpt>
      <trkpt lat="4.5079230" lon="-74.2817500">
        <ele>2718.6</ele>
        <time>2018-08-11T18:03:41Z</time>
      </trkpt>
      <trkpt lat="4.5079400" lon="-74.2817720">
        <ele>2718.6</ele>
        <time>2018-08-11T18:03:42Z</time>
      </trkpt>
      <trkpt lat="4.5079620" lon="-74.2817920">
        <ele>2718.6</ele>
        <time>2018-08-11T18:03:43Z</time>
      </trkpt>
      <trkpt lat="4.5079900" lon="-74.2818130">
        <ele>2718.6</ele>
        <time>2018-08-11T18:03:44Z</time>
      </trkpt>
      <trkpt lat="4.5080170" lon="-74.2818370">
        <ele>2718.6</ele>
        <time>2018-08-11T18:03:45Z</time>
      </trkpt>
      <trkpt lat="4.5080470" lon="-74.2818620">
        <ele>2718.6</ele>
        <time>2018-08-11T18:03:46Z</time>
      </trkpt>
      <trkpt lat="4.5080770" lon="-74.2818850">
        <ele>2718.6</ele>
        <time>2018-08-11T18:03:47Z</time>
      </trkpt>
      <trkpt lat="4.5081050" lon="-74.2819080">
        <ele>2718.6</ele>
        <time>2018-08-11T18:03:48Z</time>
      </trkpt>
      <trkpt lat="4.5081380" lon="-74.2819320">
        <ele>2718.6</ele>
        <time>2018-08-11T18:03:49Z</time>
      </trkpt>
      <trkpt lat="4.5081770" lon="-74.2819450">
        <ele>2718.6</ele>
        <time>2018-08-11T18:03:50Z</time>
      </trkpt>
      <trkpt lat="4.5082170" lon="-74.2819520">
        <ele>2718.6</ele>
        <time>2018-08-11T18:03:51Z</time>
      </trkpt>
      <trkpt lat="4.5082680" lon="-74.2819580">
        <ele>2718.6</ele>
        <time>2018-08-11T18:03:52Z</time>
      </trkpt>
      <trkpt lat="4.5083130" lon="-74.2819680">
        <ele>2718.5</ele>
        <time>2018-08-11T18:03:53Z</time>
      </trkpt>
      <trkpt lat="4.5083600" lon="-74.2819830">
        <ele>2718.5</ele>
        <time>2018-08-11T18:03:54Z</time>
      </trkpt>
      <trkpt lat="4.5084030" lon="-74.2819980">
        <ele>2718.5</ele>
        <time>2018-08-11T18:03:55Z</time>
      </trkpt>
      <trkpt lat="4.5084400" lon="-74.2820170">
        <ele>2718.5</ele>
        <time>2018-08-11T18:03:56Z</time>
      </trkpt>
      <trkpt lat="4.5084750" lon="-74.2820320">
        <ele>2718.5</ele>
        <time>2018-08-11T18:03:57Z</time>
      </trkpt>
      <trkpt lat="4.5085080" lon="-74.2820430">
        <ele>2718.4</ele>
        <time>2018-08-11T18:03:58Z</time>
      </trkpt>
      <trkpt lat="4.5085380" lon="-74.2820530">
        <ele>2718.4</ele>
        <time>2018-08-11T18:03:59Z</time>
      </trkpt>
      <trkpt lat="4.5085680" lon="-74.2820630">
        <ele>2718.3</ele>
        <time>2018-08-11T18:04:00Z</time>
      </trkpt>
      <trkpt lat="4.5085970" lon="-74.2820720">
        <ele>2718.2</ele>
        <time>2018-08-11T18:04:01Z</time>
      </trkpt>
      <trkpt lat="4.5086280" lon="-74.2820820">
        <ele>2718.1</ele>
        <time>2018-08-11T18:04:02Z</time>
      </trkpt>
      <trkpt lat="4.5086580" lon="-74.2820900">
        <ele>2718.0</ele>
        <time>2018-08-11T18:04:03Z</time>
      </trkpt>
      <trkpt lat="4.5086870" lon="-74.2820970">
        <ele>2717.7</ele>
        <time>2018-08-11T18:04:04Z</time>
      </trkpt>
      <trkpt lat="4.5087150" lon="-74.2821030">
        <ele>2717.5</ele>
        <time>2018-08-11T18:04:05Z</time>
      </trkpt>
      <trkpt lat="4.5087430" lon="-74.2821100">
        <ele>2717.3</ele>
        <time>2018-08-11T18:04:06Z</time>
      </trkpt>
      <trkpt lat="4.5087750" lon="-74.2821180">
        <ele>2717.2</ele>
        <time>2018-08-11T18:04:07Z</time>
      </trkpt>
      <trkpt lat="4.5088080" lon="-74.2821270">
        <ele>2717.1</ele>
        <time>2018-08-11T18:04:08Z</time>
      </trkpt>
      <trkpt lat="4.5088420" lon="-74.2821320">
        <ele>2717.0</ele>
        <time>2018-08-11T18:04:09Z</time>
      </trkpt>
      <trkpt lat="4.5088780" lon="-74.2821370">
        <ele>2716.8</ele>
        <time>2018-08-11T18:04:10Z</time>
      </trkpt>
      <trkpt lat="4.5089120" lon="-74.2821380">
        <ele>2716.7</ele>
        <time>2018-08-11T18:04:11Z</time>
      </trkpt>
      <trkpt lat="4.5089420" lon="-74.2821420">
        <ele>2716.7</ele>
        <time>2018-08-11T18:04:12Z</time>
      </trkpt>
      <trkpt lat="4.5089730" lon="-74.2821430">
        <ele>2716.6</ele>
        <time>2018-08-11T18:04:13Z</time>
      </trkpt>
      <trkpt lat="4.5090120" lon="-74.2821430">
        <ele>2716.5</ele>
        <time>2018-08-11T18:04:14Z</time>
      </trkpt>
      <trkpt lat="4.5090520" lon="-74.2821470">
        <ele>2716.4</ele>
        <time>2018-08-11T18:04:15Z</time>
      </trkpt>
      <trkpt lat="4.5090900" lon="-74.2821520">
        <ele>2716.1</ele>
        <time>2018-08-11T18:04:16Z</time>
      </trkpt>
      <trkpt lat="4.5091370" lon="-74.2821600">
        <ele>2715.7</ele>
        <time>2018-08-11T18:04:17Z</time>
      </trkpt>
      <trkpt lat="4.5091820" lon="-74.2821700">
        <ele>2715.4</ele>
        <time>2018-08-11T18:04:18Z</time>
      </trkpt>
      <trkpt lat="4.5092250" lon="-74.2821820">
        <ele>2715.3</ele>
        <time>2018-08-11T18:04:19Z</time>
      </trkpt>
      <trkpt lat="4.5092650" lon="-74.2821930">
        <ele>2715.2</ele>
        <time>2018-08-11T18:04:20Z</time>
      </trkpt>
      <trkpt lat="4.5093030" lon="-74.2822030">
        <ele>2715.1</ele>
        <time>2018-08-11T18:04:21Z</time>
      </trkpt>
      <trkpt lat="4.5093430" lon="-74.2822120">
        <ele>2715.1</ele>
        <time>2018-08-11T18:04:22Z</time>
      </trkpt>
      <trkpt lat="4.5093870" lon="-74.2822250">
        <ele>2715.0</ele>
        <time>2018-08-11T18:04:23Z</time>
      </trkpt>
      <trkpt lat="4.5094320" lon="-74.2822380">
        <ele>2714.9</ele>
        <time>2018-08-11T18:04:24Z</time>
      </trkpt>
      <trkpt lat="4.5094720" lon="-74.2822470">
        <ele>2714.9</ele>
        <time>2018-08-11T18:04:25Z</time>
      </trkpt>
      <trkpt lat="4.5095070" lon="-74.2822530">
        <ele>2714.8</ele>
        <time>2018-08-11T18:04:26Z</time>
      </trkpt>
      <trkpt lat="4.5095430" lon="-74.2822620">
        <ele>2714.8</ele>
        <time>2018-08-11T18:04:27Z</time>
      </trkpt>
      <trkpt lat="4.5095780" lon="-74.2822680">
        <ele>2714.7</ele>
        <time>2018-08-11T18:04:28Z</time>
      </trkpt>
      <trkpt lat="4.5096170" lon="-74.2822730">
        <ele>2714.7</ele>
        <time>2018-08-11T18:04:29Z</time>
      </trkpt>
      <trkpt lat="4.5096550" lon="-74.2822830">
        <ele>2714.6</ele>
        <time>2018-08-11T18:04:30Z</time>
      </trkpt>
      <trkpt lat="4.5096870" lon="-74.2822880">
        <ele>2714.5</ele>
        <time>2018-08-11T18:04:31Z</time>
      </trkpt>
      <trkpt lat="4.5097220" lon="-74.2822920">
        <ele>2714.5</ele>
        <time>2018-08-11T18:04:32Z</time>
      </trkpt>
      <trkpt lat="4.5097550" lon="-74.2822970">
        <ele>2714.4</ele>
        <time>2018-08-11T18:04:33Z</time>
      </trkpt>
      <trkpt lat="4.5097850" lon="-74.2823020">
        <ele>2714.4</ele>
        <time>2018-08-11T18:04:34Z</time>
      </trkpt>
      <trkpt lat="4.5098200" lon="-74.2823070">
        <ele>2714.3</ele>
        <time>2018-08-11T18:04:35Z</time>
      </trkpt>
      <trkpt lat="4.5098530" lon="-74.2823130">
        <ele>2714.1</ele>
        <time>2018-08-11T18:04:36Z</time>
      </trkpt>
      <trkpt lat="4.5098830" lon="-74.2823200">
        <ele>2713.7</ele>
        <time>2018-08-11T18:04:37Z</time>
      </trkpt>
      <trkpt lat="4.5099100" lon="-74.2823250">
        <ele>2713.2</ele>
        <time>2018-08-11T18:04:38Z</time>
      </trkpt>
      <trkpt lat="4.5099470" lon="-74.2823300">
        <ele>2712.7</ele>
        <time>2018-08-11T18:04:40Z</time>
      </trkpt>
      <trkpt lat="4.5099730" lon="-74.2823380">
        <ele>2712.2</ele>
        <time>2018-08-11T18:04:42Z</time>
      </trkpt>
      <trkpt lat="4.5100950" lon="-74.2824050">
        <ele>2709.3</ele>
        <time>2018-08-11T18:05:07Z</time>
      </trkpt>
      <trkpt lat="4.5101120" lon="-74.2824500">
        <ele>2708.5</ele>
        <time>2018-08-11T18:05:10Z</time>
      </trkpt>
      <trkpt lat="4.5101200" lon="-74.2824800">
        <ele>2708.0</ele>
        <time>2018-08-11T18:05:12Z</time>
      </trkpt>
      <trkpt lat="4.5101320" lon="-74.2825230">
        <ele>2706.8</ele>
        <time>2018-08-11T18:05:15Z</time>
      </trkpt>
      <trkpt lat="4.5101270" lon="-74.2825730">
        <ele>2706.0</ele>
        <time>2018-08-11T18:05:17Z</time>
      </trkpt>
      <trkpt lat="4.5101220" lon="-74.2826220">
        <ele>2704.8</ele>
        <time>2018-08-11T18:05:19Z</time>
      </trkpt>
      <trkpt lat="4.5101080" lon="-74.2826720">
        <ele>2704.1</ele>
        <time>2018-08-11T18:05:21Z</time>
      </trkpt>
      <trkpt lat="4.5101030" lon="-74.2827230">
        <ele>2703.2</ele>
        <time>2018-08-11T18:05:23Z</time>
      </trkpt>
      <trkpt lat="4.5101000" lon="-74.2827770">
        <ele>2702.0</ele>
        <time>2018-08-11T18:05:25Z</time>
      </trkpt>
      <trkpt lat="4.5100970" lon="-74.2828250">
        <ele>2701.5</ele>
        <time>2018-08-11T18:05:27Z</time>
      </trkpt>
      <trkpt lat="4.5100930" lon="-74.2828570">
        <ele>2700.8</ele>
        <time>2018-08-11T18:05:28Z</time>
      </trkpt>
      <trkpt lat="4.5100880" lon="-74.2828830">
        <ele>2700.5</ele>
        <time>2018-08-11T18:05:29Z</time>
      </trkpt>
      <trkpt lat="4.5100800" lon="-74.2829170">
        <ele>2700.3</ele>
        <time>2018-08-11T18:05:30Z</time>
      </trkpt>
      <trkpt lat="4.5100750" lon="-74.2829500">
        <ele>2700.0</ele>
        <time>2018-08-11T18:05:31Z</time>
      </trkpt>
      <trkpt lat="4.5100750" lon="-74.2829930">
        <ele>2699.6</ele>
        <time>2018-08-11T18:05:32Z</time>
      </trkpt>
      <trkpt lat="4.5100720" lon="-74.2830430">
        <ele>2698.8</ele>
        <time>2018-08-11T18:05:33Z</time>
      </trkpt>
      <trkpt lat="4.5100650" lon="-74.2830880">
        <ele>2698.0</ele>
        <time>2018-08-11T18:05:34Z</time>
      </trkpt>
      <trkpt lat="4.5100570" lon="-74.2831370">
        <ele>2697.5</ele>
        <time>2018-08-11T18:05:35Z</time>
      </trkpt>
      <trkpt lat="4.5100480" lon="-74.2831850">
        <ele>2697.3</ele>
        <time>2018-08-11T18:05:36Z</time>
      </trkpt>
      <trkpt lat="4.5100470" lon="-74.2832320">
        <ele>2697.0</ele>
        <time>2018-08-11T18:05:37Z</time>
      </trkpt>
      <trkpt lat="4.5100470" lon="-74.2832780">
        <ele>2696.7</ele>
        <time>2018-08-11T18:05:38Z</time>
      </trkpt>
      <trkpt lat="4.5100450" lon="-74.2833250">
        <ele>2696.1</ele>
        <time>2018-08-11T18:05:39Z</time>
      </trkpt>
      <trkpt lat="4.5100380" lon="-74.2833750">
        <ele>2695.9</ele>
        <time>2018-08-11T18:05:40Z</time>
      </trkpt>
      <trkpt lat="4.5100350" lon="-74.2834280">
        <ele>2695.7</ele>
        <time>2018-08-11T18:05:41Z</time>
      </trkpt>
      <trkpt lat="4.5100330" lon="-74.2834800">
        <ele>2695.4</ele>
        <time>2018-08-11T18:05:42Z</time>
      </trkpt>
      <trkpt lat="4.5100330" lon="-74.2835320">
        <ele>2695.1</ele>
        <time>2018-08-11T18:05:43Z</time>
      </trkpt>
      <trkpt lat="4.5100280" lon="-74.2835870">
        <ele>2694.7</ele>
        <time>2018-08-11T18:05:44Z</time>
      </trkpt>
      <trkpt lat="4.5100250" lon="-74.2836400">
        <ele>2694.1</ele>
        <time>2018-08-11T18:05:45Z</time>
      </trkpt>
      <trkpt lat="4.5100270" lon="-74.2837000">
        <ele>2693.7</ele>
        <time>2018-08-11T18:05:46Z</time>
      </trkpt>
      <trkpt lat="4.5100220" lon="-74.2837550">
        <ele>2693.5</ele>
        <time>2018-08-11T18:05:47Z</time>
      </trkpt>
      <trkpt lat="4.5100230" lon="-74.2838080">
        <ele>2693.4</ele>
        <time>2018-08-11T18:05:48Z</time>
      </trkpt>
      <trkpt lat="4.5100200" lon="-74.2838620">
        <ele>2693.3</ele>
        <time>2018-08-11T18:05:49Z</time>
      </trkpt>
      <trkpt lat="4.5100150" lon="-74.2839130">
        <ele>2693.2</ele>
        <time>2018-08-11T18:05:50Z</time>
      </trkpt>
      <trkpt lat="4.5100130" lon="-74.2839630">
        <ele>2693.0</ele>
        <time>2018-08-11T18:05:51Z</time>
      </trkpt>
      <trkpt lat="4.5100080" lon="-74.2840150">
        <ele>2692.8</ele>
        <time>2018-08-11T18:05:52Z</time>
      </trkpt>
      <trkpt lat="4.5100020" lon="-74.2840650">
        <ele>2692.4</ele>
        <time>2018-08-11T18:05:53Z</time>
      </trkpt>
      <trkpt lat="4.5099950" lon="-74.2841170">
        <ele>2692.0</ele>
        <time>2018-08-11T18:05:54Z</time>
      </trkpt>
      <trkpt lat="4.5099930" lon="-74.2841700">
        <ele>2692.0</ele>
        <time>2018-08-11T18:05:55Z</time>
      </trkpt>
      <trkpt lat="4.5099920" lon="-74.2842230">
        <ele>2691.9</ele>
        <time>2018-08-11T18:05:56Z</time>
      </trkpt>
      <trkpt lat="4.5099880" lon="-74.2842780">
        <ele>2691.8</ele>
        <time>2018-08-11T18:05:57Z</time>
      </trkpt>
      <trkpt lat="4.5099870" lon="-74.2843330">
        <ele>2691.7</ele>
        <time>2018-08-11T18:05:58Z</time>
      </trkpt>
      <trkpt lat="4.5099850" lon="-74.2843870">
        <ele>2691.6</ele>
        <time>2018-08-11T18:05:59Z</time>
      </trkpt>
      <trkpt lat="4.5099820" lon="-74.2844400">
        <ele>2691.6</ele>
        <time>2018-08-11T18:06:00Z</time>
      </trkpt>
      <trkpt lat="4.5099780" lon="-74.2844970">
        <ele>2691.5</ele>
        <time>2018-08-11T18:06:01Z</time>
      </trkpt>
      <trkpt lat="4.5099730" lon="-74.2845500">
        <ele>2691.5</ele>
        <time>2018-08-11T18:06:02Z</time>
      </trkpt>
      <trkpt lat="4.5099570" lon="-74.2846000">
        <ele>2691.4</ele>
        <time>2018-08-11T18:06:03Z</time>
      </trkpt>
      <trkpt lat="4.5099500" lon="-74.2846520">
        <ele>2691.4</ele>
        <time>2018-08-11T18:06:04Z</time>
      </trkpt>
      <trkpt lat="4.5099470" lon="-74.2847050">
        <ele>2691.4</ele>
        <time>2018-08-11T18:06:05Z</time>
      </trkpt>
      <trkpt lat="4.5099420" lon="-74.2847550">
        <ele>2691.3</ele>
        <time>2018-08-11T18:06:06Z</time>
      </trkpt>
      <trkpt lat="4.5099450" lon="-74.2848030">
        <ele>2691.3</ele>
        <time>2018-08-11T18:06:07Z</time>
      </trkpt>
      <trkpt lat="4.5099500" lon="-74.2848480">
        <ele>2691.3</ele>
        <time>2018-08-11T18:06:08Z</time>
      </trkpt>
      <trkpt lat="4.5099520" lon="-74.2848980">
        <ele>2691.3</ele>
        <time>2018-08-11T18:06:09Z</time>
      </trkpt>
      <trkpt lat="4.5099430" lon="-74.2849470">
        <ele>2691.3</ele>
        <time>2018-08-11T18:06:10Z</time>
      </trkpt>
      <trkpt lat="4.5099400" lon="-74.2849920">
        <ele>2691.3</ele>
        <time>2018-08-11T18:06:11Z</time>
      </trkpt>
      <trkpt lat="4.5099370" lon="-74.2850330">
        <ele>2691.4</ele>
        <time>2018-08-11T18:06:12Z</time>
      </trkpt>
      <trkpt lat="4.5099350" lon="-74.2850730">
        <ele>2691.4</ele>
        <time>2018-08-11T18:06:13Z</time>
      </trkpt>
      <trkpt lat="4.5099430" lon="-74.2851120">
        <ele>2691.4</ele>
        <time>2018-08-11T18:06:14Z</time>
      </trkpt>
      <trkpt lat="4.5099550" lon="-74.2851450">
        <ele>2691.5</ele>
        <time>2018-08-11T18:06:15Z</time>
      </trkpt>
      <trkpt lat="4.5099730" lon="-74.2851700">
        <ele>2691.5</ele>
        <time>2018-08-11T18:06:16Z</time>
      </trkpt>
      <trkpt lat="4.5099980" lon="-74.2851880">
        <ele>2691.6</ele>
        <time>2018-08-11T18:06:17Z</time>
      </trkpt>
      <trkpt lat="4.5100330" lon="-74.2852000">
        <ele>2691.7</ele>
        <time>2018-08-11T18:06:18Z</time>
      </trkpt>
      <trkpt lat="4.5100750" lon="-74.2852100">
        <ele>2691.9</ele>
        <time>2018-08-11T18:06:19Z</time>
      </trkpt>
      <trkpt lat="4.5101150" lon="-74.2852180">
        <ele>2692.1</ele>
        <time>2018-08-11T18:06:20Z</time>
      </trkpt>
      <trkpt lat="4.5101530" lon="-74.2852270">
        <ele>2692.3</ele>
        <time>2018-08-11T18:06:21Z</time>
      </trkpt>
      <trkpt lat="4.5101950" lon="-74.2852450">
        <ele>2692.6</ele>
        <time>2018-08-11T18:06:22Z</time>
      </trkpt>
      <trkpt lat="4.5102380" lon="-74.2852680">
        <ele>2692.7</ele>
        <time>2018-08-11T18:06:23Z</time>
      </trkpt>
      <trkpt lat="4.5102830" lon="-74.2852950">
        <ele>2692.8</ele>
        <time>2018-08-11T18:06:24Z</time>
      </trkpt>
      <trkpt lat="4.5103280" lon="-74.2853250">
        <ele>2692.9</ele>
        <time>2018-08-11T18:06:25Z</time>
      </trkpt>
      <trkpt lat="4.5103730" lon="-74.2853580">
        <ele>2693.0</ele>
        <time>2018-08-11T18:06:26Z</time>
      </trkpt>
      <trkpt lat="4.5104150" lon="-74.2853880">
        <ele>2693.0</ele>
        <time>2018-08-11T18:06:27Z</time>
      </trkpt>
      <trkpt lat="4.5104570" lon="-74.2854220">
        <ele>2693.1</ele>
        <time>2018-08-11T18:06:28Z</time>
      </trkpt>
      <trkpt lat="4.5104980" lon="-74.2854530">
        <ele>2693.1</ele>
        <time>2018-08-11T18:06:29Z</time>
      </trkpt>
      <trkpt lat="4.5105420" lon="-74.2854900">
        <ele>2693.2</ele>
        <time>2018-08-11T18:06:30Z</time>
      </trkpt>
      <trkpt lat="4.5105870" lon="-74.2855250">
        <ele>2693.2</ele>
        <time>2018-08-11T18:06:31Z</time>
      </trkpt>
      <trkpt lat="4.5106320" lon="-74.2855600">
        <ele>2693.3</ele>
        <time>2018-08-11T18:06:32Z</time>
      </trkpt>
      <trkpt lat="4.5106720" lon="-74.2855930">
        <ele>2693.3</ele>
        <time>2018-08-11T18:06:33Z</time>
      </trkpt>
      <trkpt lat="4.5107080" lon="-74.2856270">
        <ele>2693.4</ele>
        <time>2018-08-11T18:06:34Z</time>
      </trkpt>
      <trkpt lat="4.5107520" lon="-74.2856600">
        <ele>2693.4</ele>
        <time>2018-08-11T18:06:35Z</time>
      </trkpt>
      <trkpt lat="4.5107970" lon="-74.2856930">
        <ele>2693.4</ele>
        <time>2018-08-11T18:06:36Z</time>
      </trkpt>
      <trkpt lat="4.5108350" lon="-74.2857250">
        <ele>2693.5</ele>
        <time>2018-08-11T18:06:37Z</time>
      </trkpt>
      <trkpt lat="4.5108730" lon="-74.2857570">
        <ele>2693.5</ele>
        <time>2018-08-11T18:06:38Z</time>
      </trkpt>
      <trkpt lat="4.5109120" lon="-74.2857870">
        <ele>2693.6</ele>
        <time>2018-08-11T18:06:39Z</time>
      </trkpt>
      <trkpt lat="4.5109520" lon="-74.2858130">
        <ele>2693.6</ele>
        <time>2018-08-11T18:06:40Z</time>
      </trkpt>
      <trkpt lat="4.5109920" lon="-74.2858370">
        <ele>2693.7</ele>
        <time>2018-08-11T18:06:41Z</time>
      </trkpt>
      <trkpt lat="4.5110330" lon="-74.2858630">
        <ele>2693.8</ele>
        <time>2018-08-11T18:06:42Z</time>
      </trkpt>
      <trkpt lat="4.5110770" lon="-74.2858920">
        <ele>2693.9</ele>
        <time>2018-08-11T18:06:43Z</time>
      </trkpt>
      <trkpt lat="4.5111200" lon="-74.2859230">
        <ele>2694.2</ele>
        <time>2018-08-11T18:06:44Z</time>
      </trkpt>
      <trkpt lat="4.5111600" lon="-74.2859530">
        <ele>2694.4</ele>
        <time>2018-08-11T18:06:45Z</time>
      </trkpt>
      <trkpt lat="4.5112000" lon="-74.2859850">
        <ele>2694.6</ele>
        <time>2018-08-11T18:06:46Z</time>
      </trkpt>
      <trkpt lat="4.5112430" lon="-74.2860170">
        <ele>2694.9</ele>
        <time>2018-08-11T18:06:47Z</time>
      </trkpt>
      <trkpt lat="4.5112870" lon="-74.2860480">
        <ele>2695.1</ele>
        <time>2018-08-11T18:06:48Z</time>
      </trkpt>
      <trkpt lat="4.5113320" lon="-74.2860820">
        <ele>2695.3</ele>
        <time>2018-08-11T18:06:49Z</time>
      </trkpt>
      <trkpt lat="4.5113730" lon="-74.2861150">
        <ele>2695.4</ele>
        <time>2018-08-11T18:06:50Z</time>
      </trkpt>
      <trkpt lat="4.5114120" lon="-74.2861480">
        <ele>2695.6</ele>
        <time>2018-08-11T18:06:51Z</time>
      </trkpt>
      <trkpt lat="4.5114480" lon="-74.2861870">
        <ele>2695.8</ele>
        <time>2018-08-11T18:06:52Z</time>
      </trkpt>
      <trkpt lat="4.5114880" lon="-74.2862200">
        <ele>2695.9</ele>
        <time>2018-08-11T18:06:53Z</time>
      </trkpt>
      <trkpt lat="4.5115300" lon="-74.2862500">
        <ele>2696.2</ele>
        <time>2018-08-11T18:06:54Z</time>
      </trkpt>
      <trkpt lat="4.5115730" lon="-74.2862780">
        <ele>2696.4</ele>
        <time>2018-08-11T18:06:55Z</time>
      </trkpt>
      <trkpt lat="4.5116170" lon="-74.2863080">
        <ele>2696.7</ele>
        <time>2018-08-11T18:06:56Z</time>
      </trkpt>
      <trkpt lat="4.5116580" lon="-74.2863380">
        <ele>2696.9</ele>
        <time>2018-08-11T18:06:57Z</time>
      </trkpt>
      <trkpt lat="4.5117000" lon="-74.2863680">
        <ele>2697.2</ele>
        <time>2018-08-11T18:06:58Z</time>
      </trkpt>
      <trkpt lat="4.5117420" lon="-74.2863970">
        <ele>2697.4</ele>
        <time>2018-08-11T18:06:59Z</time>
      </trkpt>
      <trkpt lat="4.5117830" lon="-74.2864250">
        <ele>2697.5</ele>
        <time>2018-08-11T18:07:00Z</time>
      </trkpt>
      <trkpt lat="4.5118270" lon="-74.2864570">
        <ele>2697.6</ele>
        <time>2018-08-11T18:07:01Z</time>
      </trkpt>
      <trkpt lat="4.5118680" lon="-74.2864900">
        <ele>2697.7</ele>
        <time>2018-08-11T18:07:02Z</time>
      </trkpt>
      <trkpt lat="4.5119100" lon="-74.2865180">
        <ele>2697.8</ele>
        <time>2018-08-11T18:07:03Z</time>
      </trkpt>
      <trkpt lat="4.5119530" lon="-74.2865480">
        <ele>2697.9</ele>
        <time>2018-08-11T18:07:04Z</time>
      </trkpt>
      <trkpt lat="4.5119930" lon="-74.2865820">
        <ele>2698.0</ele>
        <time>2018-08-11T18:07:05Z</time>
      </trkpt>
      <trkpt lat="4.5120380" lon="-74.2866130">
        <ele>2698.1</ele>
        <time>2018-08-11T18:07:06Z</time>
      </trkpt>
      <trkpt lat="4.5120780" lon="-74.2866380">
        <ele>2698.2</ele>
        <time>2018-08-11T18:07:07Z</time>
      </trkpt>
      <trkpt lat="4.5121250" lon="-74.2866630">
        <ele>2698.5</ele>
        <time>2018-08-11T18:07:08Z</time>
      </trkpt>
      <trkpt lat="4.5121720" lon="-74.2866930">
        <ele>2698.8</ele>
        <time>2018-08-11T18:07:09Z</time>
      </trkpt>
      <trkpt lat="4.5122170" lon="-74.2867250">
        <ele>2699.1</ele>
        <time>2018-08-11T18:07:10Z</time>
      </trkpt>
      <trkpt lat="4.5122550" lon="-74.2867570">
        <ele>2699.3</ele>
        <time>2018-08-11T18:07:11Z</time>
      </trkpt>
      <trkpt lat="4.5122950" lon="-74.2867870">
        <ele>2699.5</ele>
        <time>2018-08-11T18:07:12Z</time>
      </trkpt>
      <trkpt lat="4.5123380" lon="-74.2868220">
        <ele>2699.6</ele>
        <time>2018-08-11T18:07:13Z</time>
      </trkpt>
      <trkpt lat="4.5123850" lon="-74.2868530">
        <ele>2699.7</ele>
        <time>2018-08-11T18:07:14Z</time>
      </trkpt>
      <trkpt lat="4.5124300" lon="-74.2868820">
        <ele>2699.9</ele>
        <time>2018-08-11T18:07:15Z</time>
      </trkpt>
      <trkpt lat="4.5124750" lon="-74.2869080">
        <ele>2700.1</ele>
        <time>2018-08-11T18:07:16Z</time>
      </trkpt>
      <trkpt lat="4.5125170" lon="-74.2869400">
        <ele>2700.3</ele>
        <time>2018-08-11T18:07:17Z</time>
      </trkpt>
      <trkpt lat="4.5125580" lon="-74.2869730">
        <ele>2700.6</ele>
        <time>2018-08-11T18:07:18Z</time>
      </trkpt>
      <trkpt lat="4.5126000" lon="-74.2870070">
        <ele>2701.0</ele>
        <time>2018-08-11T18:07:19Z</time>
      </trkpt>
      <trkpt lat="4.5126400" lon="-74.2870380">
        <ele>2701.3</ele>
        <time>2018-08-11T18:07:20Z</time>
      </trkpt>
      <trkpt lat="4.5126780" lon="-74.2870730">
        <ele>2701.7</ele>
        <time>2018-08-11T18:07:21Z</time>
      </trkpt>
      <trkpt lat="4.5127170" lon="-74.2871080">
        <ele>2702.1</ele>
        <time>2018-08-11T18:07:22Z</time>
      </trkpt>
      <trkpt lat="4.5127500" lon="-74.2871430">
        <ele>2702.5</ele>
        <time>2018-08-11T18:07:23Z</time>
      </trkpt>
      <trkpt lat="4.5127780" lon="-74.2871820">
        <ele>2702.9</ele>
        <time>2018-08-11T18:07:24Z</time>
      </trkpt>
      <trkpt lat="4.5128020" lon="-74.2872220">
        <ele>2703.3</ele>
        <time>2018-08-11T18:07:25Z</time>
      </trkpt>
      <trkpt lat="4.5128250" lon="-74.2872620">
        <ele>2703.7</ele>
        <time>2018-08-11T18:07:26Z</time>
      </trkpt>
      <trkpt lat="4.5128450" lon="-74.2873050">
        <ele>2704.1</ele>
        <time>2018-08-11T18:07:27Z</time>
      </trkpt>
      <trkpt lat="4.5128650" lon="-74.2873480">
        <ele>2704.5</ele>
        <time>2018-08-11T18:07:28Z</time>
      </trkpt>
      <trkpt lat="4.5128830" lon="-74.2873900">
        <ele>2704.9</ele>
        <time>2018-08-11T18:07:29Z</time>
      </trkpt>
      <trkpt lat="4.5129020" lon="-74.2874330">
        <ele>2705.2</ele>
        <time>2018-08-11T18:07:30Z</time>
      </trkpt>
      <trkpt lat="4.5129230" lon="-74.2874750">
        <ele>2705.6</ele>
        <time>2018-08-11T18:07:31Z</time>
      </trkpt>
      <trkpt lat="4.5129470" lon="-74.2875120">
        <ele>2706.0</ele>
        <time>2018-08-11T18:07:32Z</time>
      </trkpt>
      <trkpt lat="4.5129720" lon="-74.2875520">
        <ele>2706.3</ele>
        <time>2018-08-11T18:07:33Z</time>
      </trkpt>
      <trkpt lat="4.5129920" lon="-74.2875930">
        <ele>2706.7</ele>
        <time>2018-08-11T18:07:34Z</time>
      </trkpt>
      <trkpt lat="4.5130120" lon="-74.2876370">
        <ele>2707.0</ele>
        <time>2018-08-11T18:07:35Z</time>
      </trkpt>
      <trkpt lat="4.5130180" lon="-74.2876900">
        <ele>2707.4</ele>
        <time>2018-08-11T18:07:36Z</time>
      </trkpt>
      <trkpt lat="4.5130300" lon="-74.2877350">
        <ele>2707.7</ele>
        <time>2018-08-11T18:07:37Z</time>
      </trkpt>
      <trkpt lat="4.5130430" lon="-74.2877780">
        <ele>2708.0</ele>
        <time>2018-08-11T18:07:38Z</time>
      </trkpt>
      <trkpt lat="4.5130550" lon="-74.2878200">
        <ele>2708.3</ele>
        <time>2018-08-11T18:07:39Z</time>
      </trkpt>
      <trkpt lat="4.5130700" lon="-74.2878580">
        <ele>2708.5</ele>
        <time>2018-08-11T18:07:40Z</time>
      </trkpt>
      <trkpt lat="4.5130870" lon="-74.2879000">
        <ele>2708.8</ele>
        <time>2018-08-11T18:07:41Z</time>
      </trkpt>
      <trkpt lat="4.5131000" lon="-74.2879420">
        <ele>2709.0</ele>
        <time>2018-08-11T18:07:42Z</time>
      </trkpt>
      <trkpt lat="4.5131120" lon="-74.2879800">
        <ele>2709.3</ele>
        <time>2018-08-11T18:07:43Z</time>
      </trkpt>
      <trkpt lat="4.5131280" lon="-74.2880200">
        <ele>2709.5</ele>
        <time>2018-08-11T18:07:44Z</time>
      </trkpt>
      <trkpt lat="4.5131430" lon="-74.2880580">
        <ele>2709.7</ele>
        <time>2018-08-11T18:07:45Z</time>
      </trkpt>
      <trkpt lat="4.5131580" lon="-74.2881000">
        <ele>2709.9</ele>
        <time>2018-08-11T18:07:46Z</time>
      </trkpt>
      <trkpt lat="4.5131680" lon="-74.2881450">
        <ele>2710.0</ele>
        <time>2018-08-11T18:07:47Z</time>
      </trkpt>
      <trkpt lat="4.5131820" lon="-74.2881920">
        <ele>2710.2</ele>
        <time>2018-08-11T18:07:48Z</time>
      </trkpt>
      <trkpt lat="4.5131930" lon="-74.2882350">
        <ele>2710.5</ele>
        <time>2018-08-11T18:07:49Z</time>
      </trkpt>
      <trkpt lat="4.5132030" lon="-74.2882770">
        <ele>2710.7</ele>
        <time>2018-08-11T18:07:50Z</time>
      </trkpt>
      <trkpt lat="4.5132130" lon="-74.2883220">
        <ele>2711.1</ele>
        <time>2018-08-11T18:07:51Z</time>
      </trkpt>
      <trkpt lat="4.5132270" lon="-74.2883620">
        <ele>2711.3</ele>
        <time>2018-08-11T18:07:52Z</time>
      </trkpt>
      <trkpt lat="4.5132350" lon="-74.2884000">
        <ele>2711.6</ele>
        <time>2018-08-11T18:07:53Z</time>
      </trkpt>
      <trkpt lat="4.5132450" lon="-74.2884380">
        <ele>2711.9</ele>
        <time>2018-08-11T18:07:54Z</time>
      </trkpt>
      <trkpt lat="4.5132580" lon="-74.2884730">
        <ele>2712.2</ele>
        <time>2018-08-11T18:07:55Z</time>
      </trkpt>
      <trkpt lat="4.5132730" lon="-74.2885100">
        <ele>2712.5</ele>
        <time>2018-08-11T18:07:56Z</time>
      </trkpt>
      <trkpt lat="4.5132900" lon="-74.2885450">
        <ele>2712.9</ele>
        <time>2018-08-11T18:07:57Z</time>
      </trkpt>
      <trkpt lat="4.5133000" lon="-74.2885780">
        <ele>2713.2</ele>
        <time>2018-08-11T18:07:58Z</time>
      </trkpt>
      <trkpt lat="4.5133100" lon="-74.2886120">
        <ele>2713.6</ele>
        <time>2018-08-11T18:07:59Z</time>
      </trkpt>
      <trkpt lat="4.5133180" lon="-74.2886430">
        <ele>2713.9</ele>
        <time>2018-08-11T18:08:00Z</time>
      </trkpt>
      <trkpt lat="4.5133300" lon="-74.2886730">
        <ele>2714.3</ele>
        <time>2018-08-11T18:08:01Z</time>
      </trkpt>
      <trkpt lat="4.5133420" lon="-74.2887000">
        <ele>2714.6</ele>
        <time>2018-08-11T18:08:02Z</time>
      </trkpt>
      <trkpt lat="4.5133500" lon="-74.2887280">
        <ele>2715.0</ele>
        <time>2018-08-11T18:08:03Z</time>
      </trkpt>
      <trkpt lat="4.5133550" lon="-74.2887570">
        <ele>2715.4</ele>
        <time>2018-08-11T18:08:04Z</time>
      </trkpt>
      <trkpt lat="4.5133630" lon="-74.2887830">
        <ele>2715.8</ele>
        <time>2018-08-11T18:08:05Z</time>
      </trkpt>
      <trkpt lat="4.5133720" lon="-74.2888120">
        <ele>2716.3</ele>
        <time>2018-08-11T18:08:06Z</time>
      </trkpt>
      <trkpt lat="4.5133750" lon="-74.2888520">
        <ele>2716.9</ele>
        <time>2018-08-11T18:08:07Z</time>
      </trkpt>
      <trkpt lat="4.5133980" lon="-74.2888880">
        <ele>2717.8</ele>
        <time>2018-08-11T18:08:08Z</time>
      </trkpt>
      <trkpt lat="4.5134180" lon="-74.2889220">
        <ele>2718.6</ele>
        <time>2018-08-11T18:08:09Z</time>
      </trkpt>
      <trkpt lat="4.5134470" lon="-74.2889600">
        <ele>2719.6</ele>
        <time>2018-08-11T18:08:10Z</time>
      </trkpt>
      <trkpt lat="4.5134780" lon="-74.2889930">
        <ele>2720.6</ele>
        <time>2018-08-11T18:08:11Z</time>
      </trkpt>
      <trkpt lat="4.5135120" lon="-74.2890180">
        <ele>2721.4</ele>
        <time>2018-08-11T18:08:12Z</time>
      </trkpt>
      <trkpt lat="4.5135430" lon="-74.2890330">
        <ele>2722.1</ele>
        <time>2018-08-11T18:08:13Z</time>
      </trkpt>
      <trkpt lat="4.5135720" lon="-74.2890530">
        <ele>2722.7</ele>
        <time>2018-08-11T18:08:14Z</time>
      </trkpt>
      <trkpt lat="4.5135980" lon="-74.2890680">
        <ele>2723.3</ele>
        <time>2018-08-11T18:08:15Z</time>
      </trkpt>
      <trkpt lat="4.5136280" lon="-74.2890780">
        <ele>2723.8</ele>
        <time>2018-08-11T18:08:16Z</time>
      </trkpt>
      <trkpt lat="4.5136750" lon="-74.2890950">
        <ele>2724.6</ele>
        <time>2018-08-11T18:08:18Z</time>
      </trkpt>
      <trkpt lat="4.5137180" lon="-74.2891170">
        <ele>2725.4</ele>
        <time>2018-08-11T18:08:20Z</time>
      </trkpt>
      <trkpt lat="4.5137670" lon="-74.2891400">
        <ele>2726.3</ele>
        <time>2018-08-11T18:08:22Z</time>
      </trkpt>
      <trkpt lat="4.5137880" lon="-74.2891580">
        <ele>2726.7</ele>
        <time>2018-08-11T18:08:23Z</time>
      </trkpt>
      <trkpt lat="4.5138120" lon="-74.2891780">
        <ele>2727.2</ele>
        <time>2018-08-11T18:08:24Z</time>
      </trkpt>
      <trkpt lat="4.5138320" lon="-74.2891970">
        <ele>2727.7</ele>
        <time>2018-08-11T18:08:25Z</time>
      </trkpt>
      <trkpt lat="4.5138580" lon="-74.2892130">
        <ele>2728.1</ele>
        <time>2018-08-11T18:08:26Z</time>
      </trkpt>
      <trkpt lat="4.5138870" lon="-74.2892280">
        <ele>2728.7</ele>
        <time>2018-08-11T18:08:27Z</time>
      </trkpt>
      <trkpt lat="4.5139130" lon="-74.2892380">
        <ele>2729.1</ele>
        <time>2018-08-11T18:08:28Z</time>
      </trkpt>
      <trkpt lat="4.5139400" lon="-74.2892450">
        <ele>2729.6</ele>
        <time>2018-08-11T18:08:29Z</time>
      </trkpt>
      <trkpt lat="4.5139850" lon="-74.2892630">
        <ele>2730.3</ele>
        <time>2018-08-11T18:08:31Z</time>
      </trkpt>
      <trkpt lat="4.5140250" lon="-74.2892970">
        <ele>2731.1</ele>
        <time>2018-08-11T18:08:33Z</time>
      </trkpt>
      <trkpt lat="4.5140530" lon="-74.2893320">
        <ele>2731.8</ele>
        <time>2018-08-11T18:08:35Z</time>
      </trkpt>
      <trkpt lat="4.5140770" lon="-74.2893630">
        <ele>2732.3</ele>
        <time>2018-08-11T18:08:37Z</time>
      </trkpt>
      <trkpt lat="4.5141000" lon="-74.2893850">
        <ele>2732.8</ele>
        <time>2018-08-11T18:08:38Z</time>
      </trkpt>
      <trkpt lat="4.5141300" lon="-74.2894030">
        <ele>2733.3</ele>
        <time>2018-08-11T18:08:39Z</time>
      </trkpt>
      <trkpt lat="4.5141670" lon="-74.2894270">
        <ele>2733.8</ele>
        <time>2018-08-11T18:08:41Z</time>
      </trkpt>
      <trkpt lat="4.5141930" lon="-74.2894530">
        <ele>2734.3</ele>
        <time>2018-08-11T18:08:43Z</time>
      </trkpt>
      <trkpt lat="4.5142170" lon="-74.2894800">
        <ele>2734.6</ele>
        <time>2018-08-11T18:08:45Z</time>
      </trkpt>
      <trkpt lat="4.5142380" lon="-74.2894980">
        <ele>2735.0</ele>
        <time>2018-08-11T18:08:47Z</time>
      </trkpt>
      <trkpt lat="4.5141570" lon="-74.2894270">
        <ele>2733.7</ele>
        <time>2018-08-11T18:09:07Z</time>
      </trkpt>
      <trkpt lat="4.5141220" lon="-74.2894050">
        <ele>2733.2</ele>
        <time>2018-08-11T18:09:09Z</time>
      </trkpt>
      <trkpt lat="4.5140870" lon="-74.2893780">
        <ele>2732.6</ele>
        <time>2018-08-11T18:09:11Z</time>
      </trkpt>
      <trkpt lat="4.5140580" lon="-74.2893470">
        <ele>2732.0</ele>
        <time>2018-08-11T18:09:13Z</time>
      </trkpt>
      <trkpt lat="4.5140350" lon="-74.2893200">
        <ele>2731.5</ele>
        <time>2018-08-11T18:09:15Z</time>
      </trkpt>
      <trkpt lat="4.5140000" lon="-74.2892920">
        <ele>2730.8</ele>
        <time>2018-08-11T18:09:17Z</time>
      </trkpt>
      <trkpt lat="4.5139780" lon="-74.2892720">
        <ele>2730.3</ele>
        <time>2018-08-11T18:09:18Z</time>
      </trkpt>
      <trkpt lat="4.5139450" lon="-74.2892430">
        <ele>2729.7</ele>
        <time>2018-08-11T18:09:20Z</time>
      </trkpt>
      <trkpt lat="4.5139170" lon="-74.2892300">
        <ele>2729.2</ele>
        <time>2018-08-11T18:09:22Z</time>
      </trkpt>
      <trkpt lat="4.5138850" lon="-74.2892130">
        <ele>2728.6</ele>
        <time>2018-08-11T18:09:24Z</time>
      </trkpt>
      <trkpt lat="4.5138550" lon="-74.2892070">
        <ele>2728.1</ele>
        <time>2018-08-11T18:09:26Z</time>
      </trkpt>
      <trkpt lat="4.5138300" lon="-74.2891920">
        <ele>2727.6</ele>
        <time>2018-08-11T18:09:28Z</time>
      </trkpt>
      <trkpt lat="4.5137880" lon="-74.2891730">
        <ele>2726.9</ele>
        <time>2018-08-11T18:09:30Z</time>
      </trkpt>
      <trkpt lat="4.5137500" lon="-74.2891420">
        <ele>2726.1</ele>
        <time>2018-08-11T18:09:32Z</time>
      </trkpt>
      <trkpt lat="4.5137200" lon="-74.2891250">
        <ele>2725.6</ele>
        <time>2018-08-11T18:09:33Z</time>
      </trkpt>
      <trkpt lat="4.5136900" lon="-74.2891130">
        <ele>2725.0</ele>
        <time>2018-08-11T18:09:34Z</time>
      </trkpt>
      <trkpt lat="4.5136570" lon="-74.2891030">
        <ele>2724.5</ele>
        <time>2018-08-11T18:09:35Z</time>
      </trkpt>
      <trkpt lat="4.5136070" lon="-74.2890870">
        <ele>2723.6</ele>
        <time>2018-08-11T18:09:37Z</time>
      </trkpt>
      <trkpt lat="4.5135700" lon="-74.2890750">
        <ele>2722.9</ele>
        <time>2018-08-11T18:09:39Z</time>
      </trkpt>
      <trkpt lat="4.5135300" lon="-74.2890630">
        <ele>2722.2</ele>
        <time>2018-08-11T18:09:41Z</time>
      </trkpt>
      <trkpt lat="4.5134820" lon="-74.2890470">
        <ele>2721.2</ele>
        <time>2018-08-11T18:09:43Z</time>
      </trkpt>
      <trkpt lat="4.5134350" lon="-74.2890230">
        <ele>2720.1</ele>
        <time>2018-08-11T18:09:45Z</time>
      </trkpt>
      <trkpt lat="4.5134080" lon="-74.2889880">
        <ele>2719.1</ele>
        <time>2018-08-11T18:09:47Z</time>
      </trkpt>
      <trkpt lat="4.5133980" lon="-74.2889620">
        <ele>2718.5</ele>
        <time>2018-08-11T18:09:48Z</time>
      </trkpt>
      <trkpt lat="4.5133880" lon="-74.2889330">
        <ele>2717.9</ele>
        <time>2018-08-11T18:09:49Z</time>
      </trkpt>
      <trkpt lat="4.5133830" lon="-74.2889020">
        <ele>2717.3</ele>
        <time>2018-08-11T18:09:50Z</time>
      </trkpt>
      <trkpt lat="4.5133770" lon="-74.2888680">
        <ele>2716.6</ele>
        <time>2018-08-11T18:09:51Z</time>
      </trkpt>
      <trkpt lat="4.5133750" lon="-74.2888330">
        <ele>2716.1</ele>
        <time>2018-08-11T18:09:52Z</time>
      </trkpt>
      <trkpt lat="4.5133680" lon="-74.2888020">
        <ele>2715.5</ele>
        <time>2018-08-11T18:09:53Z</time>
      </trkpt>
      <trkpt lat="4.5133570" lon="-74.2887700">
        <ele>2715.1</ele>
        <time>2018-08-11T18:09:54Z</time>
      </trkpt>
      <trkpt lat="4.5133500" lon="-74.2887380">
        <ele>2714.7</ele>
        <time>2018-08-11T18:09:55Z</time>
      </trkpt>
      <trkpt lat="4.5133400" lon="-74.2887050">
        <ele>2714.3</ele>
        <time>2018-08-11T18:09:56Z</time>
      </trkpt>
      <trkpt lat="4.5133300" lon="-74.2886700">
        <ele>2713.9</ele>
        <time>2018-08-11T18:09:57Z</time>
      </trkpt>
      <trkpt lat="4.5133220" lon="-74.2886330">
        <ele>2713.5</ele>
        <time>2018-08-11T18:09:58Z</time>
      </trkpt>
      <trkpt lat="4.5133120" lon="-74.2885980">
        <ele>2713.1</ele>
        <time>2018-08-11T18:09:59Z</time>
      </trkpt>
      <trkpt lat="4.5133030" lon="-74.2885670">
        <ele>2712.8</ele>
        <time>2018-08-11T18:10:00Z</time>
      </trkpt>
      <trkpt lat="4.5132920" lon="-74.2885380">
        <ele>2712.5</ele>
        <time>2018-08-11T18:10:01Z</time>
      </trkpt>
      <trkpt lat="4.5132900" lon="-74.2884820">
        <ele>2712.1</ele>
        <time>2018-08-11T18:10:02Z</time>
      </trkpt>
      <trkpt lat="4.5132820" lon="-74.2884430">
        <ele>2711.8</ele>
        <time>2018-08-11T18:10:03Z</time>
      </trkpt>
      <trkpt lat="4.5132570" lon="-74.2884080">
        <ele>2711.4</ele>
        <time>2018-08-11T18:10:04Z</time>
      </trkpt>
      <trkpt lat="4.5132430" lon="-74.2883720">
        <ele>2711.2</ele>
        <time>2018-08-11T18:10:05Z</time>
      </trkpt>
      <trkpt lat="4.5132280" lon="-74.2883330">
        <ele>2710.9</ele>
        <time>2018-08-11T18:10:06Z</time>
      </trkpt>
      <trkpt lat="4.5132130" lon="-74.2883000">
        <ele>2710.7</ele>
        <time>2018-08-11T18:10:07Z</time>
      </trkpt>
      <trkpt lat="4.5132020" lon="-74.2882650">
        <ele>2710.4</ele>
        <time>2018-08-11T18:10:08Z</time>
      </trkpt>
      <trkpt lat="4.5131930" lon="-74.2882330">
        <ele>2710.2</ele>
        <time>2018-08-11T18:10:09Z</time>
      </trkpt>
      <trkpt lat="4.5131830" lon="-74.2882000">
        <ele>2710.1</ele>
        <time>2018-08-11T18:10:10Z</time>
      </trkpt>
      <trkpt lat="4.5131750" lon="-74.2881670">
        <ele>2710.0</ele>
        <time>2018-08-11T18:10:11Z</time>
      </trkpt>
      <trkpt lat="4.5131700" lon="-74.2881350">
        <ele>2709.8</ele>
        <time>2018-08-11T18:10:12Z</time>
      </trkpt>
      <trkpt lat="4.5131620" lon="-74.2881050">
        <ele>2709.7</ele>
        <time>2018-08-11T18:10:13Z</time>
      </trkpt>
      <trkpt lat="4.5131500" lon="-74.2880800">
        <ele>2709.6</ele>
        <time>2018-08-11T18:10:14Z</time>
      </trkpt>
      <trkpt lat="4.5131430" lon="-74.2880520">
        <ele>2709.5</ele>
        <time>2018-08-11T18:10:15Z</time>
      </trkpt>
      <trkpt lat="4.5131400" lon="-74.2880200">
        <ele>2709.3</ele>
        <time>2018-08-11T18:10:16Z</time>
      </trkpt>
      <trkpt lat="4.5131330" lon="-74.2879880">
        <ele>2709.1</ele>
        <time>2018-08-11T18:10:17Z</time>
      </trkpt>
      <trkpt lat="4.5131220" lon="-74.2879580">
        <ele>2708.9</ele>
        <time>2018-08-11T18:10:18Z</time>
      </trkpt>
      <trkpt lat="4.5131130" lon="-74.2879230">
        <ele>2708.7</ele>
        <time>2018-08-11T18:10:19Z</time>
      </trkpt>
      <trkpt lat="4.5131020" lon="-74.2878870">
        <ele>2708.5</ele>
        <time>2018-08-11T18:10:20Z</time>
      </trkpt>
      <trkpt lat="4.5130850" lon="-74.2878480">
        <ele>2708.3</ele>
        <time>2018-08-11T18:10:21Z</time>
      </trkpt>
      <trkpt lat="4.5130680" lon="-74.2878050">
        <ele>2708.0</ele>
        <time>2018-08-11T18:10:22Z</time>
      </trkpt>
      <trkpt lat="4.5130520" lon="-74.2877600">
        <ele>2707.7</ele>
        <time>2018-08-11T18:10:23Z</time>
      </trkpt>
      <trkpt lat="4.5130330" lon="-74.2877120">
        <ele>2707.3</ele>
        <time>2018-08-11T18:10:24Z</time>
      </trkpt>
      <trkpt lat="4.5130150" lon="-74.2876630">
        <ele>2706.9</ele>
        <time>2018-08-11T18:10:25Z</time>
      </trkpt>
      <trkpt lat="4.5129970" lon="-74.2876200">
        <ele>2706.6</ele>
        <time>2018-08-11T18:10:26Z</time>
      </trkpt>
      <trkpt lat="4.5129780" lon="-74.2875800">
        <ele>2706.3</ele>
        <time>2018-08-11T18:10:27Z</time>
      </trkpt>
      <trkpt lat="4.5129570" lon="-74.2875370">
        <ele>2705.9</ele>
        <time>2018-08-11T18:10:28Z</time>
      </trkpt>
      <trkpt lat="4.5129350" lon="-74.2874970">
        <ele>2705.5</ele>
        <time>2018-08-11T18:10:29Z</time>
      </trkpt>
      <trkpt lat="4.5129120" lon="-74.2874580">
        <ele>2705.1</ele>
        <time>2018-08-11T18:10:30Z</time>
      </trkpt>
      <trkpt lat="4.5128900" lon="-74.2874170">
        <ele>2704.8</ele>
        <time>2018-08-11T18:10:31Z</time>
      </trkpt>
      <trkpt lat="4.5128700" lon="-74.2873770">
        <ele>2704.4</ele>
        <time>2018-08-11T18:10:32Z</time>
      </trkpt>
      <trkpt lat="4.5128520" lon="-74.2873370">
        <ele>2704.0</ele>
        <time>2018-08-11T18:10:33Z</time>
      </trkpt>
      <trkpt lat="4.5128330" lon="-74.2873000">
        <ele>2703.6</ele>
        <time>2018-08-11T18:10:34Z</time>
      </trkpt>
      <trkpt lat="4.5128170" lon="-74.2872620">
        <ele>2703.3</ele>
        <time>2018-08-11T18:10:35Z</time>
      </trkpt>
      <trkpt lat="4.5127970" lon="-74.2872250">
        <ele>2702.9</ele>
        <time>2018-08-11T18:10:36Z</time>
      </trkpt>
      <trkpt lat="4.5127720" lon="-74.2871850">
        <ele>2702.5</ele>
        <time>2018-08-11T18:10:37Z</time>
      </trkpt>
      <trkpt lat="4.5127430" lon="-74.2871500">
        <ele>2702.2</ele>
        <time>2018-08-11T18:10:38Z</time>
      </trkpt>
      <trkpt lat="4.5127120" lon="-74.2871170">
        <ele>2701.8</ele>
        <time>2018-08-11T18:10:39Z</time>
      </trkpt>
      <trkpt lat="4.5126770" lon="-74.2870870">
        <ele>2701.5</ele>
        <time>2018-08-11T18:10:40Z</time>
      </trkpt>
      <trkpt lat="4.5126380" lon="-74.2870570">
        <ele>2701.1</ele>
        <time>2018-08-11T18:10:41Z</time>
      </trkpt>
      <trkpt lat="4.5126050" lon="-74.2870280">
        <ele>2700.8</ele>
        <time>2018-08-11T18:10:42Z</time>
      </trkpt>
      <trkpt lat="4.5125700" lon="-74.2870000">
        <ele>2700.6</ele>
        <time>2018-08-11T18:10:43Z</time>
      </trkpt>
      <trkpt lat="4.5125320" lon="-74.2869750">
        <ele>2700.3</ele>
        <time>2018-08-11T18:10:44Z</time>
      </trkpt>
      <trkpt lat="4.5124950" lon="-74.2869480">
        <ele>2700.1</ele>
        <time>2018-08-11T18:10:45Z</time>
      </trkpt>
      <trkpt lat="4.5124580" lon="-74.2869220">
        <ele>2699.9</ele>
        <time>2018-08-11T18:10:46Z</time>
      </trkpt>
      <trkpt lat="4.5124230" lon="-74.2868920">
        <ele>2699.8</ele>
        <time>2018-08-11T18:10:47Z</time>
      </trkpt>
      <trkpt lat="4.5123870" lon="-74.2868630">
        <ele>2699.7</ele>
        <time>2018-08-11T18:10:48Z</time>
      </trkpt>
      <trkpt lat="4.5123550" lon="-74.2868320">
        <ele>2699.5</ele>
        <time>2018-08-11T18:10:49Z</time>
      </trkpt>
      <trkpt lat="4.5123230" lon="-74.2868020">
        <ele>2699.4</ele>
        <time>2018-08-11T18:10:50Z</time>
      </trkpt>
      <trkpt lat="4.5122900" lon="-74.2867770">
        <ele>2699.3</ele>
        <time>2018-08-11T18:10:51Z</time>
      </trkpt>
      <trkpt lat="4.5122550" lon="-74.2867520">
        <ele>2699.1</ele>
        <time>2018-08-11T18:10:52Z</time>
      </trkpt>
      <trkpt lat="4.5122180" lon="-74.2867300">
        <ele>2698.9</ele>
        <time>2018-08-11T18:10:53Z</time>
      </trkpt>
      <trkpt lat="4.5121850" lon="-74.2867050">
        <ele>2698.7</ele>
        <time>2018-08-11T18:10:54Z</time>
      </trkpt>
      <trkpt lat="4.5121520" lon="-74.2866780">
        <ele>2698.5</ele>
        <time>2018-08-11T18:10:55Z</time>
      </trkpt>
      <trkpt lat="4.5121150" lon="-74.2866530">
        <ele>2698.3</ele>
        <time>2018-08-11T18:10:56Z</time>
      </trkpt>
      <trkpt lat="4.5120780" lon="-74.2866300">
        <ele>2698.1</ele>
        <time>2018-08-11T18:10:57Z</time>
      </trkpt>
      <trkpt lat="4.5120450" lon="-74.2866070">
        <ele>2698.0</ele>
        <time>2018-08-11T18:10:58Z</time>
      </trkpt>
      <trkpt lat="4.5120120" lon="-74.2865850">
        <ele>2697.9</ele>
        <time>2018-08-11T18:10:59Z</time>
      </trkpt>
      <trkpt lat="4.5119780" lon="-74.2865670">
        <ele>2697.9</ele>
        <time>2018-08-11T18:11:00Z</time>
      </trkpt>
      <trkpt lat="4.5119450" lon="-74.2865480">
        <ele>2697.8</ele>
        <time>2018-08-11T18:11:01Z</time>
      </trkpt>
      <trkpt lat="4.5119150" lon="-74.2865270">
        <ele>2697.7</ele>
        <time>2018-08-11T18:11:02Z</time>
      </trkpt>
      <trkpt lat="4.5118900" lon="-74.2865020">
        <ele>2697.7</ele>
        <time>2018-08-11T18:11:03Z</time>
      </trkpt>
      <trkpt lat="4.5118680" lon="-74.2864680">
        <ele>2697.6</ele>
        <time>2018-08-11T18:11:04Z</time>
      </trkpt>
      <trkpt lat="4.5118470" lon="-74.2864400">
        <ele>2697.6</ele>
        <time>2018-08-11T18:11:05Z</time>
      </trkpt>
      <trkpt lat="4.5118220" lon="-74.2864180">
        <ele>2697.5</ele>
        <time>2018-08-11T18:11:06Z</time>
      </trkpt>
      <trkpt lat="4.5117950" lon="-74.2863970">
        <ele>2697.4</ele>
        <time>2018-08-11T18:11:07Z</time>
      </trkpt>
      <trkpt lat="4.5117630" lon="-74.2863770">
        <ele>2697.2</ele>
        <time>2018-08-11T18:11:08Z</time>
      </trkpt>
      <trkpt lat="4.5117330" lon="-74.2863580">
        <ele>2697.1</ele>
        <time>2018-08-11T18:11:09Z</time>
      </trkpt>
      <trkpt lat="4.5117020" lon="-74.2863430">
        <ele>2696.9</ele>
        <time>2018-08-11T18:11:10Z</time>
      </trkpt>
      <trkpt lat="4.5116730" lon="-74.2863270">
        <ele>2696.7</ele>
        <time>2018-08-11T18:11:11Z</time>
      </trkpt>
      <trkpt lat="4.5116430" lon="-74.2863050">
        <ele>2696.5</ele>
        <time>2018-08-11T18:11:12Z</time>
      </trkpt>
      <trkpt lat="4.5116100" lon="-74.2862820">
        <ele>2696.3</ele>
        <time>2018-08-11T18:11:13Z</time>
      </trkpt>
      <trkpt lat="4.5115770" lon="-74.2862600">
        <ele>2696.2</ele>
        <time>2018-08-11T18:11:14Z</time>
      </trkpt>
      <trkpt lat="4.5115420" lon="-74.2862370">
        <ele>2696.0</ele>
        <time>2018-08-11T18:11:15Z</time>
      </trkpt>
      <trkpt lat="4.5115080" lon="-74.2862120">
        <ele>2695.8</ele>
        <time>2018-08-11T18:11:16Z</time>
      </trkpt>
      <trkpt lat="4.5114750" lon="-74.2861820">
        <ele>2695.7</ele>
        <time>2018-08-11T18:11:17Z</time>
      </trkpt>
      <trkpt lat="4.5114420" lon="-74.2861530">
        <ele>2695.6</ele>
        <time>2018-08-11T18:11:18Z</time>
      </trkpt>
      <trkpt lat="4.5114070" lon="-74.2861230">
        <ele>2695.4</ele>
        <time>2018-08-11T18:11:19Z</time>
      </trkpt>
      <trkpt lat="4.5113720" lon="-74.2860920">
        <ele>2695.3</ele>
        <time>2018-08-11T18:11:20Z</time>
      </trkpt>
      <trkpt lat="4.5113380" lon="-74.2860600">
        <ele>2695.1</ele>
        <time>2018-08-11T18:11:21Z</time>
      </trkpt>
      <trkpt lat="4.5113000" lon="-74.2860300">
        <ele>2694.9</ele>
        <time>2018-08-11T18:11:22Z</time>
      </trkpt>
      <trkpt lat="4.5112580" lon="-74.2860030">
        <ele>2694.7</ele>
        <time>2018-08-11T18:11:23Z</time>
      </trkpt>
      <trkpt lat="4.5112180" lon="-74.2859770">
        <ele>2694.5</ele>
        <time>2018-08-11T18:11:24Z</time>
      </trkpt>
      <trkpt lat="4.5111830" lon="-74.2859500">
        <ele>2694.3</ele>
        <time>2018-08-11T18:11:25Z</time>
      </trkpt>
      <trkpt lat="4.5111450" lon="-74.2859230">
        <ele>2694.0</ele>
        <time>2018-08-11T18:11:26Z</time>
      </trkpt>
      <trkpt lat="4.5111080" lon="-74.2858970">
        <ele>2693.9</ele>
        <time>2018-08-11T18:11:27Z</time>
      </trkpt>
      <trkpt lat="4.5110730" lon="-74.2858720">
        <ele>2693.8</ele>
        <time>2018-08-11T18:11:28Z</time>
      </trkpt>
      <trkpt lat="4.5110380" lon="-74.2858480">
        <ele>2693.7</ele>
        <time>2018-08-11T18:11:29Z</time>
      </trkpt>
      <trkpt lat="4.5110050" lon="-74.2858270">
        <ele>2693.6</ele>
        <time>2018-08-11T18:11:30Z</time>
      </trkpt>
      <trkpt lat="4.5109720" lon="-74.2858020">
        <ele>2693.6</ele>
        <time>2018-08-11T18:11:31Z</time>
      </trkpt>
      <trkpt lat="4.5109430" lon="-74.2857800">
        <ele>2693.5</ele>
        <time>2018-08-11T18:11:32Z</time>
      </trkpt>
      <trkpt lat="4.5109150" lon="-74.2857570">
        <ele>2693.5</ele>
        <time>2018-08-11T18:11:33Z</time>
      </trkpt>
      <trkpt lat="4.5108920" lon="-74.2857330">
        <ele>2693.5</ele>
        <time>2018-08-11T18:11:34Z</time>
      </trkpt>
      <trkpt lat="4.5108750" lon="-74.2857080">
        <ele>2693.5</ele>
        <time>2018-08-11T18:11:35Z</time>
      </trkpt>
      <trkpt lat="4.5108570" lon="-74.2856850">
        <ele>2693.4</ele>
        <time>2018-08-11T18:11:36Z</time>
      </trkpt>
      <trkpt lat="4.5108350" lon="-74.2856680">
        <ele>2693.4</ele>
        <time>2018-08-11T18:11:37Z</time>
      </trkpt>
      <trkpt lat="4.5108100" lon="-74.2856480">
        <ele>2693.4</ele>
        <time>2018-08-11T18:11:38Z</time>
      </trkpt>
      <trkpt lat="4.5107680" lon="-74.2856170">
        <ele>2693.4</ele>
        <time>2018-08-11T18:11:40Z</time>
      </trkpt>
      <trkpt lat="4.5107430" lon="-74.2856000">
        <ele>2693.3</ele>
        <time>2018-08-11T18:11:41Z</time>
      </trkpt>
      <trkpt lat="4.5107170" lon="-74.2855870">
        <ele>2693.3</ele>
        <time>2018-08-11T18:11:42Z</time>
      </trkpt>
      <trkpt lat="4.5106920" lon="-74.2855700">
        <ele>2693.3</ele>
        <time>2018-08-11T18:11:43Z</time>
      </trkpt>
      <trkpt lat="4.5106670" lon="-74.2855530">
        <ele>2693.3</ele>
        <time>2018-08-11T18:11:44Z</time>
      </trkpt>
      <trkpt lat="4.5106400" lon="-74.2855330">
        <ele>2693.2</ele>
        <time>2018-08-11T18:11:45Z</time>
      </trkpt>
      <trkpt lat="4.5106150" lon="-74.2855150">
        <ele>2693.2</ele>
        <time>2018-08-11T18:11:46Z</time>
      </trkpt>
      <trkpt lat="4.5105920" lon="-74.2854970">
        <ele>2693.2</ele>
        <time>2018-08-11T18:11:47Z</time>
      </trkpt>
      <trkpt lat="4.5105680" lon="-74.2854800">
        <ele>2693.2</ele>
        <time>2018-08-11T18:11:48Z</time>
      </trkpt>
      <trkpt lat="4.5105450" lon="-74.2854620">
        <ele>2693.1</ele>
        <time>2018-08-11T18:11:49Z</time>
      </trkpt>
      <trkpt lat="4.5105220" lon="-74.2854450">
        <ele>2693.1</ele>
        <time>2018-08-11T18:11:50Z</time>
      </trkpt>
      <trkpt lat="4.5104970" lon="-74.2854270">
        <ele>2693.1</ele>
        <time>2018-08-11T18:11:51Z</time>
      </trkpt>
      <trkpt lat="4.5104730" lon="-74.2854080">
        <ele>2693.1</ele>
        <time>2018-08-11T18:11:52Z</time>
      </trkpt>
      <trkpt lat="4.5104520" lon="-74.2853920">
        <ele>2693.0</ele>
        <time>2018-08-11T18:11:53Z</time>
      </trkpt>
      <trkpt lat="4.5104300" lon="-74.2853730">
        <ele>2693.0</ele>
        <time>2018-08-11T18:11:54Z</time>
      </trkpt>
      <trkpt lat="4.5104050" lon="-74.2853580">
        <ele>2692.9</ele>
        <time>2018-08-11T18:11:55Z</time>
      </trkpt>
      <trkpt lat="4.5103570" lon="-74.2853380">
        <ele>2692.8</ele>
        <time>2018-08-11T18:11:57Z</time>
      </trkpt>
      <trkpt lat="4.5103330" lon="-74.2853220">
        <ele>2692.8</ele>
        <time>2018-08-11T18:11:58Z</time>
      </trkpt>
      <trkpt lat="4.5103120" lon="-74.2853050">
        <ele>2692.8</ele>
        <time>2018-08-11T18:11:59Z</time>
      </trkpt>
      <trkpt lat="4.5102700" lon="-74.2852770">
        <ele>2692.7</ele>
        <time>2018-08-11T18:12:01Z</time>
      </trkpt>
      <trkpt lat="4.5102330" lon="-74.2852430">
        <ele>2692.5</ele>
        <time>2018-08-11T18:12:03Z</time>
      </trkpt>
      <trkpt lat="4.5101850" lon="-74.2852130">
        <ele>2692.1</ele>
        <time>2018-08-11T18:12:05Z</time>
      </trkpt>
      <trkpt lat="4.5101580" lon="-74.2852030">
        <ele>2692.0</ele>
        <time>2018-08-11T18:12:06Z</time>
      </trkpt>
      <trkpt lat="4.5101320" lon="-74.2851950">
        <ele>2691.8</ele>
        <time>2018-08-11T18:12:07Z</time>
      </trkpt>
      <trkpt lat="4.5100850" lon="-74.2851820">
        <ele>2691.6</ele>
        <time>2018-08-11T18:12:09Z</time>
      </trkpt>
      <trkpt lat="4.5100480" lon="-74.2851670">
        <ele>2691.5</ele>
        <time>2018-08-11T18:12:11Z</time>
      </trkpt>
      <trkpt lat="4.5100180" lon="-74.2851600">
        <ele>2691.5</ele>
        <time>2018-08-11T18:12:13Z</time>
      </trkpt>
      <trkpt lat="4.5099870" lon="-74.2851480">
        <ele>2691.5</ele>
        <time>2018-08-11T18:12:15Z</time>
      </trkpt>
      <trkpt lat="4.5099550" lon="-74.2851270">
        <ele>2691.4</ele>
        <time>2018-08-11T18:12:17Z</time>
      </trkpt>
      <trkpt lat="4.5099370" lon="-74.2850900">
        <ele>2691.4</ele>
        <time>2018-08-11T18:12:19Z</time>
      </trkpt>
      <trkpt lat="4.5099250" lon="-74.2850500">
        <ele>2691.3</ele>
        <time>2018-08-11T18:12:21Z</time>
      </trkpt>
      <trkpt lat="4.5099300" lon="-74.2850150">
        <ele>2691.3</ele>
        <time>2018-08-11T18:12:23Z</time>
      </trkpt>
      <trkpt lat="4.5099420" lon="-74.2849780">
        <ele>2691.3</ele>
        <time>2018-08-11T18:12:25Z</time>
      </trkpt>
      <trkpt lat="4.5099450" lon="-74.2849430">
        <ele>2691.3</ele>
        <time>2018-08-11T18:12:27Z</time>
      </trkpt>
      <trkpt lat="4.5099470" lon="-74.2849070">
        <ele>2691.3</ele>
        <time>2018-08-11T18:12:29Z</time>
      </trkpt>
      <trkpt lat="4.5099520" lon="-74.2848630">
        <ele>2691.3</ele>
        <time>2018-08-11T18:12:31Z</time>
      </trkpt>
      <trkpt lat="4.5099630" lon="-74.2848180">
        <ele>2691.3</ele>
        <time>2018-08-11T18:12:33Z</time>
      </trkpt>
      <trkpt lat="4.5099730" lon="-74.2847770">
        <ele>2691.4</ele>
        <time>2018-08-11T18:12:35Z</time>
      </trkpt>
      <trkpt lat="4.5099780" lon="-74.2847380">
        <ele>2691.4</ele>
        <time>2018-08-11T18:12:37Z</time>
      </trkpt>
      <trkpt lat="4.5099830" lon="-74.2847030">
        <ele>2691.4</ele>
        <time>2018-08-11T18:12:39Z</time>
      </trkpt>
      <trkpt lat="4.5099800" lon="-74.2846680">
        <ele>2691.4</ele>
        <time>2018-08-11T18:12:41Z</time>
      </trkpt>
      <trkpt lat="4.5099770" lon="-74.2846300">
        <ele>2691.4</ele>
        <time>2018-08-11T18:12:43Z</time>
      </trkpt>
      <trkpt lat="4.5099730" lon="-74.2845900">
        <ele>2691.5</ele>
        <time>2018-08-11T18:12:45Z</time>
      </trkpt>
      <trkpt lat="4.5099720" lon="-74.2845470">
        <ele>2691.5</ele>
        <time>2018-08-11T18:12:47Z</time>
      </trkpt>
      <trkpt lat="4.5099770" lon="-74.2845030">
        <ele>2691.6</ele>
        <time>2018-08-11T18:12:49Z</time>
      </trkpt>
      <trkpt lat="4.5099880" lon="-74.2844620">
        <ele>2691.6</ele>
        <time>2018-08-11T18:12:51Z</time>
      </trkpt>
      <trkpt lat="4.5100070" lon="-74.2844170">
        <ele>2691.7</ele>
        <time>2018-08-11T18:12:53Z</time>
      </trkpt>
      <trkpt lat="4.5100120" lon="-74.2843770">
        <ele>2691.7</ele>
        <time>2018-08-11T18:12:55Z</time>
      </trkpt>
      <trkpt lat="4.5100120" lon="-74.2843350">
        <ele>2691.8</ele>
        <time>2018-08-11T18:12:57Z</time>
      </trkpt>
      <trkpt lat="4.5100170" lon="-74.2842900">
        <ele>2691.9</ele>
        <time>2018-08-11T18:12:59Z</time>
      </trkpt>
      <trkpt lat="4.5100250" lon="-74.2842480">
        <ele>2691.9</ele>
        <time>2018-08-11T18:13:01Z</time>
      </trkpt>
      <trkpt lat="4.5100250" lon="-74.2842100">
        <ele>2692.0</ele>
        <time>2018-08-11T18:13:03Z</time>
      </trkpt>
      <trkpt lat="4.5100170" lon="-74.2841700">
        <ele>2692.1</ele>
        <time>2018-08-11T18:13:05Z</time>
      </trkpt>
      <trkpt lat="4.5100180" lon="-74.2841270">
        <ele>2692.3</ele>
        <time>2018-08-11T18:13:07Z</time>
      </trkpt>
      <trkpt lat="4.5100200" lon="-74.2840830">
        <ele>2692.7</ele>
        <time>2018-08-11T18:13:09Z</time>
      </trkpt>
      <trkpt lat="4.5100230" lon="-74.2840450">
        <ele>2692.9</ele>
        <time>2018-08-11T18:13:11Z</time>
      </trkpt>
      <trkpt lat="4.5100150" lon="-74.2840150">
        <ele>2693.0</ele>
        <time>2018-08-11T18:13:13Z</time>
      </trkpt>
      <trkpt lat="4.5100120" lon="-74.2840480">
        <ele>2692.9</ele>
        <time>2018-08-11T18:13:21Z</time>
      </trkpt>
      <trkpt lat="4.5099920" lon="-74.2840850">
        <ele>2692.6</ele>
        <time>2018-08-11T18:13:23Z</time>
      </trkpt>
      <trkpt lat="4.5099850" lon="-74.2841300">
        <ele>2692.2</ele>
        <time>2018-08-11T18:13:25Z</time>
      </trkpt>
      <trkpt lat="4.5099870" lon="-74.2841870">
        <ele>2692.0</ele>
        <time>2018-08-11T18:13:27Z</time>
      </trkpt>
      <trkpt lat="4.5099830" lon="-74.2842200">
        <ele>2692.0</ele>
        <time>2018-08-11T18:13:28Z</time>
      </trkpt>
      <trkpt lat="4.5099780" lon="-74.2842520">
        <ele>2691.9</ele>
        <time>2018-08-11T18:13:29Z</time>
      </trkpt>
      <trkpt lat="4.5099750" lon="-74.2842830">
        <ele>2691.9</ele>
        <time>2018-08-11T18:13:30Z</time>
      </trkpt>
      <trkpt lat="4.5099770" lon="-74.2843150">
        <ele>2691.8</ele>
        <time>2018-08-11T18:13:31Z</time>
      </trkpt>
      <trkpt lat="4.5099780" lon="-74.2843450">
        <ele>2691.8</ele>
        <time>2018-08-11T18:13:32Z</time>
      </trkpt>
      <trkpt lat="4.5099800" lon="-74.2843750">
        <ele>2691.7</ele>
        <time>2018-08-11T18:13:33Z</time>
      </trkpt>
      <trkpt lat="4.5099780" lon="-74.2844070">
        <ele>2691.7</ele>
        <time>2018-08-11T18:13:34Z</time>
      </trkpt>
      <trkpt lat="4.5099770" lon="-74.2844420">
        <ele>2691.6</ele>
        <time>2018-08-11T18:13:35Z</time>
      </trkpt>
      <trkpt lat="4.5099730" lon="-74.2844770">
        <ele>2691.6</ele>
        <time>2018-08-11T18:13:36Z</time>
      </trkpt>
      <trkpt lat="4.5099680" lon="-74.2845150">
        <ele>2691.5</ele>
        <time>2018-08-11T18:13:37Z</time>
      </trkpt>
      <trkpt lat="4.5099620" lon="-74.2845530">
        <ele>2691.5</ele>
        <time>2018-08-11T18:13:38Z</time>
      </trkpt>
      <trkpt lat="4.5099580" lon="-74.2845970">
        <ele>2691.5</ele>
        <time>2018-08-11T18:13:39Z</time>
      </trkpt>
      <trkpt lat="4.5099500" lon="-74.2846450">
        <ele>2691.4</ele>
        <time>2018-08-11T18:13:40Z</time>
      </trkpt>
      <trkpt lat="4.5099450" lon="-74.2846850">
        <ele>2691.4</ele>
        <time>2018-08-11T18:13:41Z</time>
      </trkpt>
      <trkpt lat="4.5099400" lon="-74.2847300">
        <ele>2691.4</ele>
        <time>2018-08-11T18:13:42Z</time>
      </trkpt>
      <trkpt lat="4.5099430" lon="-74.2847700">
        <ele>2691.4</ele>
        <time>2018-08-11T18:13:43Z</time>
      </trkpt>
      <trkpt lat="4.5099450" lon="-74.2848080">
        <ele>2691.3</ele>
        <time>2018-08-11T18:13:44Z</time>
      </trkpt>
      <trkpt lat="4.5099430" lon="-74.2848480">
        <ele>2691.3</ele>
        <time>2018-08-11T18:13:45Z</time>
      </trkpt>
      <trkpt lat="4.5099420" lon="-74.2848880">
        <ele>2691.3</ele>
        <time>2018-08-11T18:13:46Z</time>
      </trkpt>
      <trkpt lat="4.5099400" lon="-74.2849280">
        <ele>2691.3</ele>
        <time>2018-08-11T18:13:47Z</time>
      </trkpt>
      <trkpt lat="4.5099420" lon="-74.2849670">
        <ele>2691.3</ele>
        <time>2018-08-11T18:13:48Z</time>
      </trkpt>
      <trkpt lat="4.5099430" lon="-74.2850020">
        <ele>2691.3</ele>
        <time>2018-08-11T18:13:49Z</time>
      </trkpt>
      <trkpt lat="4.5099470" lon="-74.2850350">
        <ele>2691.3</ele>
        <time>2018-08-11T18:13:50Z</time>
      </trkpt>
      <trkpt lat="4.5099470" lon="-74.2850670">
        <ele>2691.4</ele>
        <time>2018-08-11T18:13:51Z</time>
      </trkpt>
      <trkpt lat="4.5099500" lon="-74.2850970">
        <ele>2691.4</ele>
        <time>2018-08-11T18:13:52Z</time>
      </trkpt>
      <trkpt lat="4.5099620" lon="-74.2851270">
        <ele>2691.4</ele>
        <time>2018-08-11T18:13:53Z</time>
      </trkpt>
      <trkpt lat="4.5099820" lon="-74.2851550">
        <ele>2691.5</ele>
        <time>2018-08-11T18:13:54Z</time>
      </trkpt>
      <trkpt lat="4.5100050" lon="-74.2851800">
        <ele>2691.5</ele>
        <time>2018-08-11T18:13:55Z</time>
      </trkpt>
      <trkpt lat="4.5100330" lon="-74.2851970">
        <ele>2691.6</ele>
        <time>2018-08-11T18:13:56Z</time>
      </trkpt>
      <trkpt lat="4.5100700" lon="-74.2852030">
        <ele>2691.7</ele>
        <time>2018-08-11T18:13:57Z</time>
      </trkpt>
      <trkpt lat="4.5101070" lon="-74.2852080">
        <ele>2691.9</ele>
        <time>2018-08-11T18:13:58Z</time>
      </trkpt>
      <trkpt lat="4.5101450" lon="-74.2852180">
        <ele>2692.1</ele>
        <time>2018-08-11T18:13:59Z</time>
      </trkpt>
      <trkpt lat="4.5101820" lon="-74.2852300">
        <ele>2692.3</ele>
        <time>2018-08-11T18:14:00Z</time>
      </trkpt>
      <trkpt lat="4.5102130" lon="-74.2852400">
        <ele>2692.5</ele>
        <time>2018-08-11T18:14:01Z</time>
      </trkpt>
      <trkpt lat="4.5102520" lon="-74.2852620">
        <ele>2692.7</ele>
        <time>2018-08-11T18:14:03Z</time>
      </trkpt>
      <trkpt lat="4.5102070" lon="-74.2852680">
        <ele>2692.6</ele>
        <time>2018-08-11T18:14:51Z</time>
      </trkpt>
      <trkpt lat="4.5101830" lon="-74.2852430">
        <ele>2692.4</ele>
        <time>2018-08-11T18:14:53Z</time>
      </trkpt>
      <trkpt lat="4.5101520" lon="-74.2852220">
        <ele>2692.2</ele>
        <time>2018-08-11T18:14:55Z</time>
      </trkpt>
      <trkpt lat="4.5101170" lon="-74.2852030">
        <ele>2691.9</ele>
        <time>2018-08-11T18:14:57Z</time>
      </trkpt>
      <trkpt lat="4.5100820" lon="-74.2851930">
        <ele>2691.8</ele>
        <time>2018-08-11T18:14:59Z</time>
      </trkpt>
      <trkpt lat="4.5100430" lon="-74.2851880">
        <ele>2691.6</ele>
        <time>2018-08-11T18:15:01Z</time>
      </trkpt>
      <trkpt lat="4.5100050" lon="-74.2851830">
        <ele>2691.5</ele>
        <time>2018-08-11T18:15:03Z</time>
      </trkpt>
      <trkpt lat="4.5099780" lon="-74.2851670">
        <ele>2691.5</ele>
        <time>2018-08-11T18:15:05Z</time>
      </trkpt>
      <trkpt lat="4.5099580" lon="-74.2851430">
        <ele>2691.4</ele>
        <time>2018-08-11T18:15:07Z</time>
      </trkpt>
      <trkpt lat="4.5099380" lon="-74.2851170">
        <ele>2691.4</ele>
        <time>2018-08-11T18:15:09Z</time>
      </trkpt>
      <trkpt lat="4.5099300" lon="-74.2850770">
        <ele>2691.4</ele>
        <time>2018-08-11T18:15:11Z</time>
      </trkpt>
      <trkpt lat="4.5099350" lon="-74.2850350">
        <ele>2691.3</ele>
        <time>2018-08-11T18:15:13Z</time>
      </trkpt>
      <trkpt lat="4.5099370" lon="-74.2849950">
        <ele>2691.3</ele>
        <time>2018-08-11T18:15:15Z</time>
      </trkpt>
      <trkpt lat="4.5099380" lon="-74.2849530">
        <ele>2691.3</ele>
        <time>2018-08-11T18:15:17Z</time>
      </trkpt>
      <trkpt lat="4.5099450" lon="-74.2849080">
        <ele>2691.3</ele>
        <time>2018-08-11T18:15:19Z</time>
      </trkpt>
      <trkpt lat="4.5099480" lon="-74.2848580">
        <ele>2691.3</ele>
        <time>2018-08-11T18:15:21Z</time>
      </trkpt>
      <trkpt lat="4.5099500" lon="-74.2848220">
        <ele>2691.3</ele>
        <time>2018-08-11T18:15:23Z</time>
      </trkpt>
      <trkpt lat="4.5099520" lon="-74.2847870">
        <ele>2691.4</ele>
        <time>2018-08-11T18:15:25Z</time>
      </trkpt>
      <trkpt lat="4.5099430" lon="-74.2847500">
        <ele>2691.4</ele>
        <time>2018-08-11T18:15:28Z</time>
      </trkpt>
      <trkpt lat="4.5099380" lon="-74.2847170">
        <ele>2691.4</ele>
        <time>2018-08-11T18:15:30Z</time>
      </trkpt>
      <trkpt lat="4.5099380" lon="-74.2846850">
        <ele>2691.4</ele>
        <time>2018-08-11T18:15:32Z</time>
      </trkpt>
      <trkpt lat="4.5099500" lon="-74.2846420">
        <ele>2691.4</ele>
        <time>2018-08-11T18:15:34Z</time>
      </trkpt>
      <trkpt lat="4.5099530" lon="-74.2846020">
        <ele>2691.5</ele>
        <time>2018-08-11T18:15:36Z</time>
      </trkpt>
      <trkpt lat="4.5099620" lon="-74.2845650">
        <ele>2691.5</ele>
        <time>2018-08-11T18:15:38Z</time>
      </trkpt>
      <trkpt lat="4.5099720" lon="-74.2845300">
        <ele>2691.5</ele>
        <time>2018-08-11T18:15:40Z</time>
      </trkpt>
      <trkpt lat="4.5099750" lon="-74.2844980">
        <ele>2691.6</ele>
        <time>2018-08-11T18:15:42Z</time>
      </trkpt>
      <trkpt lat="4.5099850" lon="-74.2844700">
        <ele>2691.6</ele>
        <time>2018-08-11T18:15:44Z</time>
      </trkpt>
      <trkpt lat="4.5099950" lon="-74.2844430">
        <ele>2691.6</ele>
        <time>2018-08-11T18:15:46Z</time>
      </trkpt>
      <trkpt lat="4.5099950" lon="-74.2844070">
        <ele>2691.7</ele>
        <time>2018-08-11T18:15:49Z</time>
      </trkpt>
      <trkpt lat="4.5100170" lon="-74.2843320">
        <ele>2691.8</ele>
        <time>2018-08-11T18:15:51Z</time>
      </trkpt>
      <trkpt lat="4.5100170" lon="-74.2843030">
        <ele>2691.8</ele>
        <time>2018-08-11T18:15:52Z</time>
      </trkpt>
      <trkpt lat="4.5100180" lon="-74.2842700">
        <ele>2691.9</ele>
        <time>2018-08-11T18:15:54Z</time>
      </trkpt>
      <trkpt lat="4.5100170" lon="-74.2842420">
        <ele>2691.9</ele>
        <time>2018-08-11T18:15:56Z</time>
      </trkpt>
      <trkpt lat="4.5100220" lon="-74.2842120">
        <ele>2692.0</ele>
        <time>2018-08-11T18:15:58Z</time>
      </trkpt>
      <trkpt lat="4.5100200" lon="-74.2841770">
        <ele>2692.0</ele>
        <time>2018-08-11T18:16:00Z</time>
      </trkpt>
      <trkpt lat="4.5100180" lon="-74.2841380">
        <ele>2692.2</ele>
        <time>2018-08-11T18:16:02Z</time>
      </trkpt>
      <trkpt lat="4.5100170" lon="-74.2841020">
        <ele>2692.5</ele>
        <time>2018-08-11T18:16:04Z</time>
      </trkpt>
      <trkpt lat="4.5100150" lon="-74.2840700">
        <ele>2692.8</ele>
        <time>2018-08-11T18:16:06Z</time>
      </trkpt>
      <trkpt lat="4.5100170" lon="-74.2840400">
        <ele>2692.9</ele>
        <time>2018-08-11T18:16:08Z</time>
      </trkpt>
      <trkpt lat="4.5100100" lon="-74.2840070">
        <ele>2693.0</ele>
        <time>2018-08-11T18:16:10Z</time>
      </trkpt>
      <trkpt lat="4.5100080" lon="-74.2839730">
        <ele>2693.2</ele>
        <time>2018-08-11T18:16:12Z</time>
      </trkpt>
      <trkpt lat="4.5100100" lon="-74.2839450">
        <ele>2693.2</ele>
        <time>2018-08-11T18:16:14Z</time>
      </trkpt>
      <trkpt lat="4.5100150" lon="-74.2839120">
        <ele>2693.3</ele>
        <time>2018-08-11T18:16:17Z</time>
      </trkpt>
      <trkpt lat="4.5100130" lon="-74.2839430">
        <ele>2693.2</ele>
        <time>2018-08-11T18:16:21Z</time>
      </trkpt>
      <trkpt lat="4.5100020" lon="-74.2839770">
        <ele>2693.2</ele>
        <time>2018-08-11T18:16:23Z</time>
      </trkpt>
      <trkpt lat="4.5099880" lon="-74.2840230">
        <ele>2693.0</ele>
        <time>2018-08-11T18:16:25Z</time>
      </trkpt>
      <trkpt lat="4.5099850" lon="-74.2840520">
        <ele>2692.9</ele>
        <time>2018-08-11T18:16:26Z</time>
      </trkpt>
      <trkpt lat="4.5099800" lon="-74.2840950">
        <ele>2692.6</ele>
        <time>2018-08-11T18:16:28Z</time>
      </trkpt>
      <trkpt lat="4.5099750" lon="-74.2841380">
        <ele>2692.2</ele>
        <time>2018-08-11T18:16:30Z</time>
      </trkpt>
      <trkpt lat="4.5099770" lon="-74.2841920">
        <ele>2692.0</ele>
        <time>2018-08-11T18:16:32Z</time>
      </trkpt>
      <trkpt lat="4.5099750" lon="-74.2842200">
        <ele>2692.0</ele>
        <time>2018-08-11T18:16:33Z</time>
      </trkpt>
      <trkpt lat="4.5099780" lon="-74.2842520">
        <ele>2691.9</ele>
        <time>2018-08-11T18:16:34Z</time>
      </trkpt>
      <trkpt lat="4.5099820" lon="-74.2842830">
        <ele>2691.9</ele>
        <time>2018-08-11T18:16:35Z</time>
      </trkpt>
      <trkpt lat="4.5099830" lon="-74.2843130">
        <ele>2691.8</ele>
        <time>2018-08-11T18:16:36Z</time>
      </trkpt>
      <trkpt lat="4.5099800" lon="-74.2843420">
        <ele>2691.8</ele>
        <time>2018-08-11T18:16:37Z</time>
      </trkpt>
      <trkpt lat="4.5099750" lon="-74.2843700">
        <ele>2691.7</ele>
        <time>2018-08-11T18:16:38Z</time>
      </trkpt>
      <trkpt lat="4.5099720" lon="-74.2844000">
        <ele>2691.7</ele>
        <time>2018-08-11T18:16:39Z</time>
      </trkpt>
      <trkpt lat="4.5099680" lon="-74.2844320">
        <ele>2691.6</ele>
        <time>2018-08-11T18:16:40Z</time>
      </trkpt>
      <trkpt lat="4.5099630" lon="-74.2844630">
        <ele>2691.6</ele>
        <time>2018-08-11T18:16:41Z</time>
      </trkpt>
      <trkpt lat="4.5099600" lon="-74.2844980">
        <ele>2691.6</ele>
        <time>2018-08-11T18:16:42Z</time>
      </trkpt>
      <trkpt lat="4.5099580" lon="-74.2845330">
        <ele>2691.5</ele>
        <time>2018-08-11T18:16:43Z</time>
      </trkpt>
      <trkpt lat="4.5099570" lon="-74.2845700">
        <ele>2691.5</ele>
        <time>2018-08-11T18:16:44Z</time>
      </trkpt>
      <trkpt lat="4.5099530" lon="-74.2846100">
        <ele>2691.5</ele>
        <time>2018-08-11T18:16:45Z</time>
      </trkpt>
      <trkpt lat="4.5099500" lon="-74.2846500">
        <ele>2691.4</ele>
        <time>2018-08-11T18:16:46Z</time>
      </trkpt>
      <trkpt lat="4.5099480" lon="-74.2846880">
        <ele>2691.4</ele>
        <time>2018-08-11T18:16:47Z</time>
      </trkpt>
      <trkpt lat="4.5099480" lon="-74.2847280">
        <ele>2691.4</ele>
        <time>2018-08-11T18:16:48Z</time>
      </trkpt>
      <trkpt lat="4.5099500" lon="-74.2847670">
        <ele>2691.4</ele>
        <time>2018-08-11T18:16:49Z</time>
      </trkpt>
      <trkpt lat="4.5099470" lon="-74.2848080">
        <ele>2691.3</ele>
        <time>2018-08-11T18:16:50Z</time>
      </trkpt>
      <trkpt lat="4.5099400" lon="-74.2848520">
        <ele>2691.3</ele>
        <time>2018-08-11T18:16:51Z</time>
      </trkpt>
      <trkpt lat="4.5099350" lon="-74.2848930">
        <ele>2691.3</ele>
        <time>2018-08-11T18:16:52Z</time>
      </trkpt>
      <trkpt lat="4.5099220" lon="-74.2849330">
        <ele>2691.3</ele>
        <time>2018-08-11T18:16:53Z</time>
      </trkpt>
      <trkpt lat="4.5099120" lon="-74.2849750">
        <ele>2691.3</ele>
        <time>2018-08-11T18:16:54Z</time>
      </trkpt>
      <trkpt lat="4.5099070" lon="-74.2850130">
        <ele>2691.3</ele>
        <time>2018-08-11T18:16:55Z</time>
      </trkpt>
      <trkpt lat="4.5099050" lon="-74.2850480">
        <ele>2691.3</ele>
        <time>2018-08-11T18:16:56Z</time>
      </trkpt>
      <trkpt lat="4.5099120" lon="-74.2850850">
        <ele>2691.4</ele>
        <time>2018-08-11T18:16:57Z</time>
      </trkpt>
      <trkpt lat="4.5099200" lon="-74.2851220">
        <ele>2691.4</ele>
        <time>2018-08-11T18:16:58Z</time>
      </trkpt>
      <trkpt lat="4.5099350" lon="-74.2851570">
        <ele>2691.4</ele>
        <time>2018-08-11T18:16:59Z</time>
      </trkpt>
      <trkpt lat="4.5099550" lon="-74.2851830">
        <ele>2691.5</ele>
        <time>2018-08-11T18:17:00Z</time>
      </trkpt>
      <trkpt lat="4.5099780" lon="-74.2852020">
        <ele>2691.5</ele>
        <time>2018-08-11T18:17:01Z</time>
      </trkpt>
      <trkpt lat="4.5100050" lon="-74.2852150">
        <ele>2691.6</ele>
        <time>2018-08-11T18:17:02Z</time>
      </trkpt>
      <trkpt lat="4.5100380" lon="-74.2852230">
        <ele>2691.7</ele>
        <time>2018-08-11T18:17:03Z</time>
      </trkpt>
      <trkpt lat="4.5100770" lon="-74.2852280">
        <ele>2691.8</ele>
        <time>2018-08-11T18:17:04Z</time>
      </trkpt>
      <trkpt lat="4.5101180" lon="-74.2852350">
        <ele>2692.0</ele>
        <time>2018-08-11T18:17:05Z</time>
      </trkpt>
      <trkpt lat="4.5101600" lon="-74.2852480">
        <ele>2692.3</ele>
        <time>2018-08-11T18:17:06Z</time>
      </trkpt>
      <trkpt lat="4.5102050" lon="-74.2852650">
        <ele>2692.5</ele>
        <time>2018-08-11T18:17:07Z</time>
      </trkpt>
      <trkpt lat="4.5102480" lon="-74.2852880">
        <ele>2692.7</ele>
        <time>2018-08-11T18:17:08Z</time>
      </trkpt>
      <trkpt lat="4.5102920" lon="-74.2853170">
        <ele>2692.8</ele>
        <time>2018-08-11T18:17:09Z</time>
      </trkpt>
      <trkpt lat="4.5103350" lon="-74.2853470">
        <ele>2692.9</ele>
        <time>2018-08-11T18:17:10Z</time>
      </trkpt>
      <trkpt lat="4.5103780" lon="-74.2853770">
        <ele>2692.9</ele>
        <time>2018-08-11T18:17:11Z</time>
      </trkpt>
      <trkpt lat="4.5104180" lon="-74.2854120">
        <ele>2693.0</ele>
        <time>2018-08-11T18:17:12Z</time>
      </trkpt>
      <trkpt lat="4.5104600" lon="-74.2854480">
        <ele>2693.1</ele>
        <time>2018-08-11T18:17:13Z</time>
      </trkpt>
      <trkpt lat="4.5105030" lon="-74.2854850">
        <ele>2693.1</ele>
        <time>2018-08-11T18:17:14Z</time>
      </trkpt>
      <trkpt lat="4.5105470" lon="-74.2855250">
        <ele>2693.2</ele>
        <time>2018-08-11T18:17:15Z</time>
      </trkpt>
      <trkpt lat="4.5105950" lon="-74.2855620">
        <ele>2693.2</ele>
        <time>2018-08-11T18:17:16Z</time>
      </trkpt>
      <trkpt lat="4.5106420" lon="-74.2855970">
        <ele>2693.3</ele>
        <time>2018-08-11T18:17:17Z</time>
      </trkpt>
      <trkpt lat="4.5106920" lon="-74.2856330">
        <ele>2693.3</ele>
        <time>2018-08-11T18:17:18Z</time>
      </trkpt>
      <trkpt lat="4.5107400" lon="-74.2856680">
        <ele>2693.4</ele>
        <time>2018-08-11T18:17:19Z</time>
      </trkpt>
      <trkpt lat="4.5107880" lon="-74.2857030">
        <ele>2693.4</ele>
        <time>2018-08-11T18:17:20Z</time>
      </trkpt>
      <trkpt lat="4.5108330" lon="-74.2857380">
        <ele>2693.5</ele>
        <time>2018-08-11T18:17:21Z</time>
      </trkpt>
      <trkpt lat="4.5108820" lon="-74.2857700">
        <ele>2693.5</ele>
        <time>2018-08-11T18:17:22Z</time>
      </trkpt>
      <trkpt lat="4.5109280" lon="-74.2858020">
        <ele>2693.6</ele>
        <time>2018-08-11T18:17:23Z</time>
      </trkpt>
      <trkpt lat="4.5109770" lon="-74.2858320">
        <ele>2693.6</ele>
        <time>2018-08-11T18:17:24Z</time>
      </trkpt>
      <trkpt lat="4.5110270" lon="-74.2858600">
        <ele>2693.7</ele>
        <time>2018-08-11T18:17:25Z</time>
      </trkpt>
      <trkpt lat="4.5110750" lon="-74.2858920">
        <ele>2693.8</ele>
        <time>2018-08-11T18:17:26Z</time>
      </trkpt>
      <trkpt lat="4.5111180" lon="-74.2859200">
        <ele>2694.0</ele>
        <time>2018-08-11T18:17:27Z</time>
      </trkpt>
      <trkpt lat="4.5111650" lon="-74.2859570">
        <ele>2694.3</ele>
        <time>2018-08-11T18:17:28Z</time>
      </trkpt>
      <trkpt lat="4.5112180" lon="-74.2859930">
        <ele>2694.6</ele>
        <time>2018-08-11T18:17:29Z</time>
      </trkpt>
      <trkpt lat="4.5112750" lon="-74.2860270">
        <ele>2694.9</ele>
        <time>2018-08-11T18:17:30Z</time>
      </trkpt>
      <trkpt lat="4.5113230" lon="-74.2860630">
        <ele>2695.2</ele>
        <time>2018-08-11T18:17:31Z</time>
      </trkpt>
      <trkpt lat="4.5113680" lon="-74.2861000">
        <ele>2695.3</ele>
        <time>2018-08-11T18:17:32Z</time>
      </trkpt>
      <trkpt lat="4.5114120" lon="-74.2861380">
        <ele>2695.5</ele>
        <time>2018-08-11T18:17:33Z</time>
      </trkpt>
      <trkpt lat="4.5114570" lon="-74.2861770">
        <ele>2695.7</ele>
        <time>2018-08-11T18:17:34Z</time>
      </trkpt>
      <trkpt lat="4.5115000" lon="-74.2862130">
        <ele>2695.8</ele>
        <time>2018-08-11T18:17:35Z</time>
      </trkpt>
      <trkpt lat="4.5115450" lon="-74.2862470">
        <ele>2696.1</ele>
        <time>2018-08-11T18:17:36Z</time>
      </trkpt>
      <trkpt lat="4.5115900" lon="-74.2862820">
        <ele>2696.3</ele>
        <time>2018-08-11T18:17:37Z</time>
      </trkpt>
      <trkpt lat="4.5116300" lon="-74.2863170">
        <ele>2696.6</ele>
        <time>2018-08-11T18:17:38Z</time>
      </trkpt>
      <trkpt lat="4.5116730" lon="-74.2863520">
        <ele>2696.9</ele>
        <time>2018-08-11T18:17:39Z</time>
      </trkpt>
      <trkpt lat="4.5117180" lon="-74.2863830">
        <ele>2697.1</ele>
        <time>2018-08-11T18:17:40Z</time>
      </trkpt>
      <trkpt lat="4.5117630" lon="-74.2864120">
        <ele>2697.4</ele>
        <time>2018-08-11T18:17:41Z</time>
      </trkpt>
      <trkpt lat="4.5118080" lon="-74.2864420">
        <ele>2697.5</ele>
        <time>2018-08-11T18:17:42Z</time>
      </trkpt>
      <trkpt lat="4.5118550" lon="-74.2864730">
        <ele>2697.6</ele>
        <time>2018-08-11T18:17:43Z</time>
      </trkpt>
      <trkpt lat="4.5118980" lon="-74.2865050">
        <ele>2697.7</ele>
        <time>2018-08-11T18:17:44Z</time>
      </trkpt>
      <trkpt lat="4.5119400" lon="-74.2865380">
        <ele>2697.8</ele>
        <time>2018-08-11T18:17:45Z</time>
      </trkpt>
      <trkpt lat="4.5119830" lon="-74.2865720">
        <ele>2697.9</ele>
        <time>2018-08-11T18:17:46Z</time>
      </trkpt>
      <trkpt lat="4.5120250" lon="-74.2866070">
        <ele>2698.0</ele>
        <time>2018-08-11T18:17:47Z</time>
      </trkpt>
      <trkpt lat="4.5120680" lon="-74.2866400">
        <ele>2698.1</ele>
        <time>2018-08-11T18:17:48Z</time>
      </trkpt>
      <trkpt lat="4.5121170" lon="-74.2866730">
        <ele>2698.4</ele>
        <time>2018-08-11T18:17:49Z</time>
      </trkpt>
      <trkpt lat="4.5121630" lon="-74.2867050">
        <ele>2698.6</ele>
        <time>2018-08-11T18:17:50Z</time>
      </trkpt>
      <trkpt lat="4.5122050" lon="-74.2867380">
        <ele>2698.9</ele>
        <time>2018-08-11T18:17:51Z</time>
      </trkpt>
      <trkpt lat="4.5122470" lon="-74.2867700">
        <ele>2699.1</ele>
        <time>2018-08-11T18:17:52Z</time>
      </trkpt>
      <trkpt lat="4.5122900" lon="-74.2868020">
        <ele>2699.4</ele>
        <time>2018-08-11T18:17:53Z</time>
      </trkpt>
      <trkpt lat="4.5123370" lon="-74.2868300">
        <ele>2699.5</ele>
        <time>2018-08-11T18:17:54Z</time>
      </trkpt>
      <trkpt lat="4.5123730" lon="-74.2868570">
        <ele>2699.6</ele>
        <time>2018-08-11T18:17:55Z</time>
      </trkpt>
      <trkpt lat="4.5124130" lon="-74.2868900">
        <ele>2699.8</ele>
        <time>2018-08-11T18:17:56Z</time>
      </trkpt>
      <trkpt lat="4.5124550" lon="-74.2869270">
        <ele>2699.9</ele>
        <time>2018-08-11T18:17:57Z</time>
      </trkpt>
      <trkpt lat="4.5125000" lon="-74.2869600">
        <ele>2700.2</ele>
        <time>2018-08-11T18:17:58Z</time>
      </trkpt>
      <trkpt lat="4.5125430" lon="-74.2869920">
        <ele>2700.4</ele>
        <time>2018-08-11T18:17:59Z</time>
      </trkpt>
      <trkpt lat="4.5125850" lon="-74.2870280">
        <ele>2700.8</ele>
        <time>2018-08-11T18:18:00Z</time>
      </trkpt>
      <trkpt lat="4.5126300" lon="-74.2870630">
        <ele>2701.1</ele>
        <time>2018-08-11T18:18:01Z</time>
      </trkpt>
      <trkpt lat="4.5126700" lon="-74.2871020">
        <ele>2701.5</ele>
        <time>2018-08-11T18:18:02Z</time>
      </trkpt>
      <trkpt lat="4.5127100" lon="-74.2871400">
        <ele>2701.9</ele>
        <time>2018-08-11T18:18:03Z</time>
      </trkpt>
      <trkpt lat="4.5127470" lon="-74.2871800">
        <ele>2702.4</ele>
        <time>2018-08-11T18:18:04Z</time>
      </trkpt>
      <trkpt lat="4.5127770" lon="-74.2872230">
        <ele>2702.8</ele>
        <time>2018-08-11T18:18:05Z</time>
      </trkpt>
      <trkpt lat="4.5128030" lon="-74.2872700">
        <ele>2703.2</ele>
        <time>2018-08-11T18:18:06Z</time>
      </trkpt>
      <trkpt lat="4.5128280" lon="-74.2873180">
        <ele>2703.7</ele>
        <time>2018-08-11T18:18:07Z</time>
      </trkpt>
      <trkpt lat="4.5128530" lon="-74.2873630">
        <ele>2704.2</ele>
        <time>2018-08-11T18:18:08Z</time>
      </trkpt>
      <trkpt lat="4.5128780" lon="-74.2874100">
        <ele>2704.6</ele>
        <time>2018-08-11T18:18:09Z</time>
      </trkpt>
      <trkpt lat="4.5129050" lon="-74.2874550">
        <ele>2705.1</ele>
        <time>2018-08-11T18:18:10Z</time>
      </trkpt>
      <trkpt lat="4.5129320" lon="-74.2875020">
        <ele>2705.5</ele>
        <time>2018-08-11T18:18:11Z</time>
      </trkpt>
      <trkpt lat="4.5129550" lon="-74.2875470">
        <ele>2705.9</ele>
        <time>2018-08-11T18:18:12Z</time>
      </trkpt>
      <trkpt lat="4.5129770" lon="-74.2875920">
        <ele>2706.3</ele>
        <time>2018-08-11T18:18:13Z</time>
      </trkpt>
      <trkpt lat="4.5129950" lon="-74.2876380">
        <ele>2706.7</ele>
        <time>2018-08-11T18:18:14Z</time>
      </trkpt>
      <trkpt lat="4.5130130" lon="-74.2876870">
        <ele>2707.0</ele>
        <time>2018-08-11T18:18:15Z</time>
      </trkpt>
      <trkpt lat="4.5130320" lon="-74.2877330">
        <ele>2707.4</ele>
        <time>2018-08-11T18:18:16Z</time>
      </trkpt>
      <trkpt lat="4.5130520" lon="-74.2877850">
        <ele>2707.8</ele>
        <time>2018-08-11T18:18:17Z</time>
      </trkpt>
      <trkpt lat="4.5130700" lon="-74.2878350">
        <ele>2708.1</ele>
        <time>2018-08-11T18:18:18Z</time>
      </trkpt>
      <trkpt lat="4.5130880" lon="-74.2878830">
        <ele>2708.4</ele>
        <time>2018-08-11T18:18:19Z</time>
      </trkpt>
      <trkpt lat="4.5131070" lon="-74.2879300">
        <ele>2708.7</ele>
        <time>2018-08-11T18:18:20Z</time>
      </trkpt>
      <trkpt lat="4.5131220" lon="-74.2879680">
        <ele>2708.9</ele>
        <time>2018-08-11T18:18:21Z</time>
      </trkpt>
      <trkpt lat="4.5131330" lon="-74.2880070">
        <ele>2709.2</ele>
        <time>2018-08-11T18:18:22Z</time>
      </trkpt>
      <trkpt lat="4.5131470" lon="-74.2880400">
        <ele>2709.4</ele>
        <time>2018-08-11T18:18:23Z</time>
      </trkpt>
      <trkpt lat="4.5131580" lon="-74.2880730">
        <ele>2709.6</ele>
        <time>2018-08-11T18:18:24Z</time>
      </trkpt>
      <trkpt lat="4.5131680" lon="-74.2881080">
        <ele>2709.7</ele>
        <time>2018-08-11T18:18:25Z</time>
      </trkpt>
      <trkpt lat="4.5131830" lon="-74.2881470">
        <ele>2709.9</ele>
        <time>2018-08-11T18:18:26Z</time>
      </trkpt>
      <trkpt lat="4.5131970" lon="-74.2881870">
        <ele>2710.0</ele>
        <time>2018-08-11T18:18:27Z</time>
      </trkpt>
      <trkpt lat="4.5132080" lon="-74.2882280">
        <ele>2710.2</ele>
        <time>2018-08-11T18:18:28Z</time>
      </trkpt>
      <trkpt lat="4.5132180" lon="-74.2882750">
        <ele>2710.5</ele>
        <time>2018-08-11T18:18:29Z</time>
      </trkpt>
      <trkpt lat="4.5132320" lon="-74.2883230">
        <ele>2710.8</ele>
        <time>2018-08-11T18:18:30Z</time>
      </trkpt>
      <trkpt lat="4.5132450" lon="-74.2883680">
        <ele>2711.1</ele>
        <time>2018-08-11T18:18:31Z</time>
      </trkpt>
      <trkpt lat="4.5132600" lon="-74.2884050">
        <ele>2711.3</ele>
        <time>2018-08-11T18:18:32Z</time>
      </trkpt>
      <trkpt lat="4.5132720" lon="-74.2884380">
        <ele>2711.6</ele>
        <time>2018-08-11T18:18:33Z</time>
      </trkpt>
      <trkpt lat="4.5132850" lon="-74.2884750">
        <ele>2711.9</ele>
        <time>2018-08-11T18:18:34Z</time>
      </trkpt>
      <trkpt lat="4.5132970" lon="-74.2885120">
        <ele>2712.2</ele>
        <time>2018-08-11T18:18:35Z</time>
      </trkpt>
      <trkpt lat="4.5133120" lon="-74.2885480">
        <ele>2712.5</ele>
        <time>2018-08-11T18:18:36Z</time>
      </trkpt>
      <trkpt lat="4.5133230" lon="-74.2885870">
        <ele>2712.9</ele>
        <time>2018-08-11T18:18:37Z</time>
      </trkpt>
      <trkpt lat="4.5133370" lon="-74.2886270">
        <ele>2713.3</ele>
        <time>2018-08-11T18:18:38Z</time>
      </trkpt>
      <trkpt lat="4.5133450" lon="-74.2886670">
        <ele>2713.7</ele>
        <time>2018-08-11T18:18:39Z</time>
      </trkpt>
      <trkpt lat="4.5133530" lon="-74.2887030">
        <ele>2714.1</ele>
        <time>2018-08-11T18:18:40Z</time>
      </trkpt>
      <trkpt lat="4.5133600" lon="-74.2887400">
        <ele>2714.5</ele>
        <time>2018-08-11T18:18:41Z</time>
      </trkpt>
      <trkpt lat="4.5133680" lon="-74.2887770">
        <ele>2715.0</ele>
        <time>2018-08-11T18:18:42Z</time>
      </trkpt>
      <trkpt lat="4.5133780" lon="-74.2888150">
        <ele>2715.5</ele>
        <time>2018-08-11T18:18:43Z</time>
      </trkpt>
      <trkpt lat="4.5133880" lon="-74.2888520">
        <ele>2716.1</ele>
        <time>2018-08-11T18:18:44Z</time>
      </trkpt>
      <trkpt lat="4.5133920" lon="-74.2888920">
        <ele>2716.8</ele>
        <time>2018-08-11T18:18:45Z</time>
      </trkpt>
      <trkpt lat="4.5134030" lon="-74.2889300">
        <ele>2717.5</ele>
        <time>2018-08-11T18:18:46Z</time>
      </trkpt>
      <trkpt lat="4.5134200" lon="-74.2889670">
        <ele>2718.4</ele>
        <time>2018-08-11T18:18:47Z</time>
      </trkpt>
      <trkpt lat="4.5134400" lon="-74.2890070">
        <ele>2719.3</ele>
        <time>2018-08-11T18:18:48Z</time>
      </trkpt>
      <trkpt lat="4.5134670" lon="-74.2890370">
        <ele>2720.2</ele>
        <time>2018-08-11T18:18:49Z</time>
      </trkpt>
      <trkpt lat="4.5135020" lon="-74.2890550">
        <ele>2721.0</ele>
        <time>2018-08-11T18:18:50Z</time>
      </trkpt>
      <trkpt lat="4.5135420" lon="-74.2890730">
        <ele>2721.9</ele>
        <time>2018-08-11T18:18:51Z</time>
      </trkpt>
      <trkpt lat="4.5135780" lon="-74.2890900">
        <ele>2722.6</ele>
        <time>2018-08-11T18:18:52Z</time>
      </trkpt>
      <trkpt lat="4.5136120" lon="-74.2891070">
        <ele>2723.2</ele>
        <time>2018-08-11T18:18:53Z</time>
      </trkpt>
      <trkpt lat="4.5136450" lon="-74.2891230">
        <ele>2723.9</ele>
        <time>2018-08-11T18:18:54Z</time>
      </trkpt>
      <trkpt lat="4.5136780" lon="-74.2891330">
        <ele>2724.4</ele>
        <time>2018-08-11T18:18:55Z</time>
      </trkpt>
      <trkpt lat="4.5137130" lon="-74.2891420">
        <ele>2725.0</ele>
        <time>2018-08-11T18:18:56Z</time>
      </trkpt>
      <trkpt lat="4.5137470" lon="-74.2891520">
        <ele>2725.6</ele>
        <time>2018-08-11T18:18:57Z</time>
      </trkpt>
      <trkpt lat="4.5137780" lon="-74.2891620">
        <ele>2726.1</ele>
        <time>2018-08-11T18:18:58Z</time>
      </trkpt>
      <trkpt lat="4.5138050" lon="-74.2891780">
        <ele>2726.6</ele>
        <time>2018-08-11T18:18:59Z</time>
      </trkpt>
      <trkpt lat="4.5138320" lon="-74.2891900">
        <ele>2727.1</ele>
        <time>2018-08-11T18:19:00Z</time>
      </trkpt>
      <trkpt lat="4.5138620" lon="-74.2891970">
        <ele>2727.6</ele>
        <time>2018-08-11T18:19:01Z</time>
      </trkpt>
      <trkpt lat="4.5138880" lon="-74.2892080">
        <ele>2728.0</ele>
        <time>2018-08-11T18:19:02Z</time>
      </trkpt>
      <trkpt lat="4.5139150" lon="-74.2892230">
        <ele>2728.5</ele>
        <time>2018-08-11T18:19:03Z</time>
      </trkpt>
      <trkpt lat="4.5139370" lon="-74.2892420">
        <ele>2729.0</ele>
        <time>2018-08-11T18:19:04Z</time>
      </trkpt>
      <trkpt lat="4.5139580" lon="-74.2892580">
        <ele>2729.4</ele>
        <time>2018-08-11T18:19:05Z</time>
      </trkpt>
      <trkpt lat="4.5140050" lon="-74.2892880">
        <ele>2730.3</ele>
        <time>2018-08-11T18:19:07Z</time>
      </trkpt>
      <trkpt lat="4.5140300" lon="-74.2893070">
        <ele>2730.8</ele>
        <time>2018-08-11T18:19:08Z</time>
      </trkpt>
      <trkpt lat="4.5140530" lon="-74.2893250">
        <ele>2731.2</ele>
        <time>2018-08-11T18:19:09Z</time>
      </trkpt>
      <trkpt lat="4.5140870" lon="-74.2893580">
        <ele>2731.9</ele>
        <time>2018-08-11T18:19:11Z</time>
      </trkpt>
      <trkpt lat="4.5141080" lon="-74.2893780">
        <ele>2732.3</ele>
        <time>2018-08-11T18:19:12Z</time>
      </trkpt>
      <trkpt lat="4.5141300" lon="-74.2893950">
        <ele>2732.7</ele>
        <time>2018-08-11T18:19:13Z</time>
      </trkpt>
      <trkpt lat="4.5141720" lon="-74.2894230">
        <ele>2733.4</ele>
        <time>2018-08-11T18:19:15Z</time>
      </trkpt>
      <trkpt lat="4.5142020" lon="-74.2894450">
        <ele>2733.8</ele>
        <time>2018-08-11T18:19:17Z</time>
      </trkpt>
      <trkpt lat="4.5142320" lon="-74.2894780">
        <ele>2734.4</ele>
        <time>2018-08-11T18:19:19Z</time>
      </trkpt>
      <trkpt lat="4.5142730" lon="-74.2895100">
        <ele>2734.9</ele>
        <time>2018-08-11T18:19:21Z</time>
      </trkpt>
      <trkpt lat="4.5143120" lon="-74.2895400">
        <ele>2735.4</ele>
        <time>2018-08-11T18:19:23Z</time>
      </trkpt>
      <trkpt lat="4.5143330" lon="-74.2895580">
        <ele>2735.7</ele>
        <time>2018-08-11T18:19:24Z</time>
      </trkpt>
      <trkpt lat="4.5143700" lon="-74.2895900">
        <ele>2736.2</ele>
        <time>2018-08-11T18:19:26Z</time>
      </trkpt>
      <trkpt lat="4.5144120" lon="-74.2896280">
        <ele>2736.7</ele>
        <time>2018-08-11T18:19:28Z</time>
      </trkpt>
      <trkpt lat="4.5144420" lon="-74.2896620">
        <ele>2737.1</ele>
        <time>2018-08-11T18:19:29Z</time>
      </trkpt>
      <trkpt lat="4.5144650" lon="-74.2896900">
        <ele>2737.4</ele>
        <time>2018-08-11T18:19:30Z</time>
      </trkpt>
      <trkpt lat="4.5144880" lon="-74.2897130">
        <ele>2737.7</ele>
        <time>2018-08-11T18:19:31Z</time>
      </trkpt>
      <trkpt lat="4.5145100" lon="-74.2897330">
        <ele>2737.9</ele>
        <time>2018-08-11T18:19:32Z</time>
      </trkpt>
      <trkpt lat="4.5145420" lon="-74.2897770">
        <ele>2738.3</ele>
        <time>2018-08-11T18:19:34Z</time>
      </trkpt>
      <trkpt lat="4.5145730" lon="-74.2898130">
        <ele>2738.6</ele>
        <time>2018-08-11T18:19:36Z</time>
      </trkpt>
      <trkpt lat="4.5146050" lon="-74.2898520">
        <ele>2738.8</ele>
        <time>2018-08-11T18:19:38Z</time>
      </trkpt>
      <trkpt lat="4.5146400" lon="-74.2898920">
        <ele>2739.0</ele>
        <time>2018-08-11T18:19:40Z</time>
      </trkpt>
      <trkpt lat="4.5146780" lon="-74.2899280">
        <ele>2739.1</ele>
        <time>2018-08-11T18:19:42Z</time>
      </trkpt>
      <trkpt lat="4.5147020" lon="-74.2899430">
        <ele>2739.2</ele>
        <time>2018-08-11T18:19:43Z</time>
      </trkpt>
      <trkpt lat="4.5147220" lon="-74.2899630">
        <ele>2739.2</ele>
        <time>2018-08-11T18:19:44Z</time>
      </trkpt>
      <trkpt lat="4.5147580" lon="-74.2900050">
        <ele>2739.4</ele>
        <time>2018-08-11T18:19:46Z</time>
      </trkpt>
      <trkpt lat="4.5147850" lon="-74.2900200">
        <ele>2739.5</ele>
        <time>2018-08-11T18:19:47Z</time>
      </trkpt>
      <trkpt lat="4.5148120" lon="-74.2900380">
        <ele>2739.5</ele>
        <time>2018-08-11T18:19:48Z</time>
      </trkpt>
      <trkpt lat="4.5148420" lon="-74.2900500">
        <ele>2739.6</ele>
        <time>2018-08-11T18:19:49Z</time>
      </trkpt>
      <trkpt lat="4.5148750" lon="-74.2900600">
        <ele>2739.6</ele>
        <time>2018-08-11T18:19:50Z</time>
      </trkpt>
      <trkpt lat="4.5149120" lon="-74.2900700">
        <ele>2739.7</ele>
        <time>2018-08-11T18:19:51Z</time>
      </trkpt>
      <trkpt lat="4.5149480" lon="-74.2900850">
        <ele>2739.7</ele>
        <time>2018-08-11T18:19:52Z</time>
      </trkpt>
      <trkpt lat="4.5149850" lon="-74.2900980">
        <ele>2739.8</ele>
        <time>2018-08-11T18:19:53Z</time>
      </trkpt>
      <trkpt lat="4.5150230" lon="-74.2901130">
        <ele>2739.9</ele>
        <time>2018-08-11T18:19:54Z</time>
      </trkpt>
      <trkpt lat="4.5150680" lon="-74.2901300">
        <ele>2740.0</ele>
        <time>2018-08-11T18:19:55Z</time>
      </trkpt>
      <trkpt lat="4.5151150" lon="-74.2901480">
        <ele>2740.1</ele>
        <time>2018-08-11T18:19:56Z</time>
      </trkpt>
      <trkpt lat="4.5151670" lon="-74.2901700">
        <ele>2740.3</ele>
        <time>2018-08-11T18:19:57Z</time>
      </trkpt>
      <trkpt lat="4.5152150" lon="-74.2901930">
        <ele>2740.6</ele>
        <time>2018-08-11T18:19:58Z</time>
      </trkpt>
      <trkpt lat="4.5152700" lon="-74.2902270">
        <ele>2740.8</ele>
        <time>2018-08-11T18:19:59Z</time>
      </trkpt>
      <trkpt lat="4.5153280" lon="-74.2902520">
        <ele>2741.1</ele>
        <time>2018-08-11T18:20:00Z</time>
      </trkpt>
      <trkpt lat="4.5153880" lon="-74.2902820">
        <ele>2741.4</ele>
        <time>2018-08-11T18:20:01Z</time>
      </trkpt>
      <trkpt lat="4.5154530" lon="-74.2903130">
        <ele>2741.7</ele>
        <time>2018-08-11T18:20:02Z</time>
      </trkpt>
      <trkpt lat="4.5155130" lon="-74.2903470">
        <ele>2741.9</ele>
        <time>2018-08-11T18:20:03Z</time>
      </trkpt>
      <trkpt lat="4.5155700" lon="-74.2903720">
        <ele>2742.2</ele>
        <time>2018-08-11T18:20:04Z</time>
      </trkpt>
      <trkpt lat="4.5156230" lon="-74.2903970">
        <ele>2742.5</ele>
        <time>2018-08-11T18:20:05Z</time>
      </trkpt>
      <trkpt lat="4.5156800" lon="-74.2904350">
        <ele>2742.8</ele>
        <time>2018-08-11T18:20:06Z</time>
      </trkpt>
      <trkpt lat="4.5157380" lon="-74.2904630">
        <ele>2743.1</ele>
        <time>2018-08-11T18:20:07Z</time>
      </trkpt>
      <trkpt lat="4.5157970" lon="-74.2904900">
        <ele>2743.5</ele>
        <time>2018-08-11T18:20:08Z</time>
      </trkpt>
      <trkpt lat="4.5158570" lon="-74.2905080">
        <ele>2743.8</ele>
        <time>2018-08-11T18:20:09Z</time>
      </trkpt>
      <trkpt lat="4.5159170" lon="-74.2905280">
        <ele>2744.1</ele>
        <time>2018-08-11T18:20:10Z</time>
      </trkpt>
      <trkpt lat="4.5159700" lon="-74.2905480">
        <ele>2744.4</ele>
        <time>2018-08-11T18:20:11Z</time>
      </trkpt>
      <trkpt lat="4.5160250" lon="-74.2905670">
        <ele>2744.7</ele>
        <time>2018-08-11T18:20:12Z</time>
      </trkpt>
      <trkpt lat="4.5160800" lon="-74.2905830">
        <ele>2745.0</ele>
        <time>2018-08-11T18:20:13Z</time>
      </trkpt>
      <trkpt lat="4.5161300" lon="-74.2906020">
        <ele>2745.2</ele>
        <time>2018-08-11T18:20:14Z</time>
      </trkpt>
      <trkpt lat="4.5161750" lon="-74.2906130">
        <ele>2745.4</ele>
        <time>2018-08-11T18:20:15Z</time>
      </trkpt>
      <trkpt lat="4.5162180" lon="-74.2906300">
        <ele>2745.6</ele>
        <time>2018-08-11T18:20:16Z</time>
      </trkpt>
      <trkpt lat="4.5162630" lon="-74.2906450">
        <ele>2745.8</ele>
        <time>2018-08-11T18:20:17Z</time>
      </trkpt>
      <trkpt lat="4.5163080" lon="-74.2906600">
        <ele>2746.0</ele>
        <time>2018-08-11T18:20:18Z</time>
      </trkpt>
      <trkpt lat="4.5163500" lon="-74.2906770">
        <ele>2746.2</ele>
        <time>2018-08-11T18:20:19Z</time>
      </trkpt>
      <trkpt lat="4.5163920" lon="-74.2906950">
        <ele>2746.4</ele>
        <time>2018-08-11T18:20:20Z</time>
      </trkpt>
      <trkpt lat="4.5164300" lon="-74.2907120">
        <ele>2746.6</ele>
        <time>2018-08-11T18:20:21Z</time>
      </trkpt>
      <trkpt lat="4.5164680" lon="-74.2907300">
        <ele>2746.8</ele>
        <time>2018-08-11T18:20:22Z</time>
      </trkpt>
      <trkpt lat="4.5165080" lon="-74.2907450">
        <ele>2747.0</ele>
        <time>2018-08-11T18:20:23Z</time>
      </trkpt>
      <trkpt lat="4.5165580" lon="-74.2907630">
        <ele>2747.2</ele>
        <time>2018-08-11T18:20:24Z</time>
      </trkpt>
      <trkpt lat="4.5166080" lon="-74.2907780">
        <ele>2747.5</ele>
        <time>2018-08-11T18:20:25Z</time>
      </trkpt>
      <trkpt lat="4.5166530" lon="-74.2907900">
        <ele>2747.8</ele>
        <time>2018-08-11T18:20:26Z</time>
      </trkpt>
      <trkpt lat="4.5167050" lon="-74.2908070">
        <ele>2748.1</ele>
        <time>2018-08-11T18:20:27Z</time>
      </trkpt>
      <trkpt lat="4.5167530" lon="-74.2908230">
        <ele>2748.4</ele>
        <time>2018-08-11T18:20:28Z</time>
      </trkpt>
      <trkpt lat="4.5168030" lon="-74.2908400">
        <ele>2748.7</ele>
        <time>2018-08-11T18:20:29Z</time>
      </trkpt>
      <trkpt lat="4.5168580" lon="-74.2908580">
        <ele>2749.1</ele>
        <time>2018-08-11T18:20:30Z</time>
      </trkpt>
      <trkpt lat="4.5169120" lon="-74.2908720">
        <ele>2749.5</ele>
        <time>2018-08-11T18:20:31Z</time>
      </trkpt>
      <trkpt lat="4.5169630" lon="-74.2908850">
        <ele>2749.9</ele>
        <time>2018-08-11T18:20:32Z</time>
      </trkpt>
      <trkpt lat="4.5170130" lon="-74.2908980">
        <ele>2750.3</ele>
        <time>2018-08-11T18:20:33Z</time>
      </trkpt>
      <trkpt lat="4.5170620" lon="-74.2909150">
        <ele>2750.7</ele>
        <time>2018-08-11T18:20:34Z</time>
      </trkpt>
      <trkpt lat="4.5171100" lon="-74.2909280">
        <ele>2751.1</ele>
        <time>2018-08-11T18:20:35Z</time>
      </trkpt>
      <trkpt lat="4.5171530" lon="-74.2909400">
        <ele>2751.4</ele>
        <time>2018-08-11T18:20:36Z</time>
      </trkpt>
      <trkpt lat="4.5171930" lon="-74.2909520">
        <ele>2751.8</ele>
        <time>2018-08-11T18:20:37Z</time>
      </trkpt>
      <trkpt lat="4.5172330" lon="-74.2909650">
        <ele>2752.1</ele>
        <time>2018-08-11T18:20:38Z</time>
      </trkpt>
      <trkpt lat="4.5172730" lon="-74.2909730">
        <ele>2752.5</ele>
        <time>2018-08-11T18:20:39Z</time>
      </trkpt>
      <trkpt lat="4.5173150" lon="-74.2909870">
        <ele>2752.8</ele>
        <time>2018-08-11T18:20:40Z</time>
      </trkpt>
      <trkpt lat="4.5173530" lon="-74.2910030">
        <ele>2753.0</ele>
        <time>2018-08-11T18:20:41Z</time>
      </trkpt>
      <trkpt lat="4.5173880" lon="-74.2910150">
        <ele>2753.3</ele>
        <time>2018-08-11T18:20:42Z</time>
      </trkpt>
      <trkpt lat="4.5174250" lon="-74.2910250">
        <ele>2753.5</ele>
        <time>2018-08-11T18:20:43Z</time>
      </trkpt>
      <trkpt lat="4.5174650" lon="-74.2910400">
        <ele>2753.7</ele>
        <time>2018-08-11T18:20:44Z</time>
      </trkpt>
      <trkpt lat="4.5175020" lon="-74.2910570">
        <ele>2753.8</ele>
        <time>2018-08-11T18:20:45Z</time>
      </trkpt>
      <trkpt lat="4.5175380" lon="-74.2910780">
        <ele>2753.9</ele>
        <time>2018-08-11T18:20:46Z</time>
      </trkpt>
      <trkpt lat="4.5175730" lon="-74.2910930">
        <ele>2754.0</ele>
        <time>2018-08-11T18:20:47Z</time>
      </trkpt>
      <trkpt lat="4.5176070" lon="-74.2911030">
        <ele>2754.0</ele>
        <time>2018-08-11T18:20:48Z</time>
      </trkpt>
      <trkpt lat="4.5176380" lon="-74.2911150">
        <ele>2754.1</ele>
        <time>2018-08-11T18:20:49Z</time>
      </trkpt>
      <trkpt lat="4.5176670" lon="-74.2911250">
        <ele>2754.1</ele>
        <time>2018-08-11T18:20:50Z</time>
      </trkpt>
      <trkpt lat="4.5176920" lon="-74.2911370">
        <ele>2754.2</ele>
        <time>2018-08-11T18:20:51Z</time>
      </trkpt>
      <trkpt lat="4.5177470" lon="-74.2911530">
        <ele>2754.3</ele>
        <time>2018-08-11T18:20:53Z</time>
      </trkpt>
      <trkpt lat="4.5177770" lon="-74.2911630">
        <ele>2754.3</ele>
        <time>2018-08-11T18:20:54Z</time>
      </trkpt>
      <trkpt lat="4.5178070" lon="-74.2911680">
        <ele>2754.4</ele>
        <time>2018-08-11T18:20:55Z</time>
      </trkpt>
      <trkpt lat="4.5178350" lon="-74.2911780">
        <ele>2754.4</ele>
        <time>2018-08-11T18:20:56Z</time>
      </trkpt>
      <trkpt lat="4.5178650" lon="-74.2911870">
        <ele>2754.5</ele>
        <time>2018-08-11T18:20:57Z</time>
      </trkpt>
      <trkpt lat="4.5178950" lon="-74.2912000">
        <ele>2754.5</ele>
        <time>2018-08-11T18:20:58Z</time>
      </trkpt>
      <trkpt lat="4.5179320" lon="-74.2912080">
        <ele>2754.6</ele>
        <time>2018-08-11T18:20:59Z</time>
      </trkpt>
      <trkpt lat="4.5179700" lon="-74.2912130">
        <ele>2754.7</ele>
        <time>2018-08-11T18:21:00Z</time>
      </trkpt>
      <trkpt lat="4.5180120" lon="-74.2912200">
        <ele>2754.8</ele>
        <time>2018-08-11T18:21:01Z</time>
      </trkpt>
      <trkpt lat="4.5180500" lon="-74.2912320">
        <ele>2754.8</ele>
        <time>2018-08-11T18:21:02Z</time>
      </trkpt>
      <trkpt lat="4.5181000" lon="-74.2912420">
        <ele>2755.0</ele>
        <time>2018-08-11T18:21:03Z</time>
      </trkpt>
      <trkpt lat="4.5181550" lon="-74.2912520">
        <ele>2755.2</ele>
        <time>2018-08-11T18:21:04Z</time>
      </trkpt>
      <trkpt lat="4.5182180" lon="-74.2912680">
        <ele>2755.3</ele>
        <time>2018-08-11T18:21:05Z</time>
      </trkpt>
      <trkpt lat="4.5182870" lon="-74.2912900">
        <ele>2755.7</ele>
        <time>2018-08-11T18:21:06Z</time>
      </trkpt>
      <trkpt lat="4.5183580" lon="-74.2913120">
        <ele>2756.2</ele>
        <time>2018-08-11T18:21:07Z</time>
      </trkpt>
      <trkpt lat="4.5184300" lon="-74.2913300">
        <ele>2756.7</ele>
        <time>2018-08-11T18:21:08Z</time>
      </trkpt>
      <trkpt lat="4.5184980" lon="-74.2913470">
        <ele>2757.2</ele>
        <time>2018-08-11T18:21:09Z</time>
      </trkpt>
      <trkpt lat="4.5185620" lon="-74.2913650">
        <ele>2757.7</ele>
        <time>2018-08-11T18:21:10Z</time>
      </trkpt>
      <trkpt lat="4.5186230" lon="-74.2913820">
        <ele>2758.2</ele>
        <time>2018-08-11T18:21:11Z</time>
      </trkpt>
      <trkpt lat="4.5186820" lon="-74.2913970">
        <ele>2758.7</ele>
        <time>2018-08-11T18:21:12Z</time>
      </trkpt>
      <trkpt lat="4.5187330" lon="-74.2914050">
        <ele>2759.2</ele>
        <time>2018-08-11T18:21:13Z</time>
      </trkpt>
      <trkpt lat="4.5187820" lon="-74.2914150">
        <ele>2759.6</ele>
        <time>2018-08-11T18:21:14Z</time>
      </trkpt>
      <trkpt lat="4.5188280" lon="-74.2914230">
        <ele>2760.0</ele>
        <time>2018-08-11T18:21:15Z</time>
      </trkpt>
      <trkpt lat="4.5188730" lon="-74.2914320">
        <ele>2760.4</ele>
        <time>2018-08-11T18:21:16Z</time>
      </trkpt>
      <trkpt lat="4.5189150" lon="-74.2914420">
        <ele>2760.8</ele>
        <time>2018-08-11T18:21:17Z</time>
      </trkpt>
      <trkpt lat="4.5189550" lon="-74.2914500">
        <ele>2761.2</ele>
        <time>2018-08-11T18:21:18Z</time>
      </trkpt>
      <trkpt lat="4.5189930" lon="-74.2914600">
        <ele>2761.6</ele>
        <time>2018-08-11T18:21:19Z</time>
      </trkpt>
      <trkpt lat="4.5190330" lon="-74.2914750">
        <ele>2762.1</ele>
        <time>2018-08-11T18:21:20Z</time>
      </trkpt>
      <trkpt lat="4.5190680" lon="-74.2914900">
        <ele>2762.5</ele>
        <time>2018-08-11T18:21:21Z</time>
      </trkpt>
      <trkpt lat="4.5191070" lon="-74.2915030">
        <ele>2762.9</ele>
        <time>2018-08-11T18:21:22Z</time>
      </trkpt>
      <trkpt lat="4.5191470" lon="-74.2915150">
        <ele>2763.4</ele>
        <time>2018-08-11T18:21:23Z</time>
      </trkpt>
      <trkpt lat="4.5191900" lon="-74.2915270">
        <ele>2763.9</ele>
        <time>2018-08-11T18:21:24Z</time>
      </trkpt>
      <trkpt lat="4.5192350" lon="-74.2915400">
        <ele>2764.4</ele>
        <time>2018-08-11T18:21:25Z</time>
      </trkpt>
      <trkpt lat="4.5192780" lon="-74.2915500">
        <ele>2764.9</ele>
        <time>2018-08-11T18:21:26Z</time>
      </trkpt>
      <trkpt lat="4.5193230" lon="-74.2915600">
        <ele>2765.4</ele>
        <time>2018-08-11T18:21:27Z</time>
      </trkpt>
      <trkpt lat="4.5193650" lon="-74.2915720">
        <ele>2765.8</ele>
        <time>2018-08-11T18:21:28Z</time>
      </trkpt>
      <trkpt lat="4.5194070" lon="-74.2915830">
        <ele>2766.2</ele>
        <time>2018-08-11T18:21:29Z</time>
      </trkpt>
      <trkpt lat="4.5194500" lon="-74.2915970">
        <ele>2766.6</ele>
        <time>2018-08-11T18:21:30Z</time>
      </trkpt>
      <trkpt lat="4.5194920" lon="-74.2916050">
        <ele>2767.0</ele>
        <time>2018-08-11T18:21:31Z</time>
      </trkpt>
      <trkpt lat="4.5195300" lon="-74.2916330">
        <ele>2767.4</ele>
        <time>2018-08-11T18:21:32Z</time>
      </trkpt>
      <trkpt lat="4.5195700" lon="-74.2916520">
        <ele>2767.7</ele>
        <time>2018-08-11T18:21:33Z</time>
      </trkpt>
      <trkpt lat="4.5196080" lon="-74.2916600">
        <ele>2768.0</ele>
        <time>2018-08-11T18:21:34Z</time>
      </trkpt>
      <trkpt lat="4.5196470" lon="-74.2916680">
        <ele>2768.3</ele>
        <time>2018-08-11T18:21:35Z</time>
      </trkpt>
      <trkpt lat="4.5196830" lon="-74.2916800">
        <ele>2768.6</ele>
        <time>2018-08-11T18:21:36Z</time>
      </trkpt>
      <trkpt lat="4.5197180" lon="-74.2916920">
        <ele>2768.8</ele>
        <time>2018-08-11T18:21:37Z</time>
      </trkpt>
      <trkpt lat="4.5197520" lon="-74.2916970">
        <ele>2769.0</ele>
        <time>2018-08-11T18:21:38Z</time>
      </trkpt>
      <trkpt lat="4.5197830" lon="-74.2917000">
        <ele>2769.2</ele>
        <time>2018-08-11T18:21:39Z</time>
      </trkpt>
      <trkpt lat="4.5198150" lon="-74.2917020">
        <ele>2769.4</ele>
        <time>2018-08-11T18:21:40Z</time>
      </trkpt>
      <trkpt lat="4.5198450" lon="-74.2917030">
        <ele>2769.6</ele>
        <time>2018-08-11T18:21:41Z</time>
      </trkpt>
      <trkpt lat="4.5198780" lon="-74.2917120">
        <ele>2769.7</ele>
        <time>2018-08-11T18:21:42Z</time>
      </trkpt>
      <trkpt lat="4.5199070" lon="-74.2917200">
        <ele>2769.9</ele>
        <time>2018-08-11T18:21:43Z</time>
      </trkpt>
      <trkpt lat="4.5199570" lon="-74.2917330">
        <ele>2770.2</ele>
        <time>2018-08-11T18:21:45Z</time>
      </trkpt>
      <trkpt lat="4.5200070" lon="-74.2917420">
        <ele>2770.5</ele>
        <time>2018-08-11T18:21:47Z</time>
      </trkpt>
      <trkpt lat="4.5200570" lon="-74.2917570">
        <ele>2770.7</ele>
        <time>2018-08-11T18:21:49Z</time>
      </trkpt>
      <trkpt lat="4.5201050" lon="-74.2917700">
        <ele>2771.0</ele>
        <time>2018-08-11T18:21:51Z</time>
      </trkpt>
      <trkpt lat="4.5201530" lon="-74.2917830">
        <ele>2771.2</ele>
        <time>2018-08-11T18:21:53Z</time>
      </trkpt>
      <trkpt lat="4.5202020" lon="-74.2917830">
        <ele>2771.4</ele>
        <time>2018-08-11T18:21:55Z</time>
      </trkpt>
      <trkpt lat="4.5202300" lon="-74.2917830">
        <ele>2771.6</ele>
        <time>2018-08-11T18:21:56Z</time>
      </trkpt>
      <trkpt lat="4.5202820" lon="-74.2917920">
        <ele>2771.8</ele>
        <time>2018-08-11T18:21:58Z</time>
      </trkpt>
      <trkpt lat="4.5203320" lon="-74.2917980">
        <ele>2772.0</ele>
        <time>2018-08-11T18:22:00Z</time>
      </trkpt>
      <trkpt lat="4.5203580" lon="-74.2918030">
        <ele>2772.2</ele>
        <time>2018-08-11T18:22:01Z</time>
      </trkpt>
      <trkpt lat="4.5204030" lon="-74.2918220">
        <ele>2772.4</ele>
        <time>2018-08-11T18:22:03Z</time>
      </trkpt>
      <trkpt lat="4.5204300" lon="-74.2918280">
        <ele>2772.5</ele>
        <time>2018-08-11T18:22:04Z</time>
      </trkpt>
      <trkpt lat="4.5204770" lon="-74.2918380">
        <ele>2772.6</ele>
        <time>2018-08-11T18:22:06Z</time>
      </trkpt>
      <trkpt lat="4.5205030" lon="-74.2918520">
        <ele>2772.6</ele>
        <time>2018-08-11T18:22:07Z</time>
      </trkpt>
      <trkpt lat="4.5205330" lon="-74.2918580">
        <ele>2772.6</ele>
        <time>2018-08-11T18:22:08Z</time>
      </trkpt>
      <trkpt lat="4.5205630" lon="-74.2918620">
        <ele>2772.6</ele>
        <time>2018-08-11T18:22:09Z</time>
      </trkpt>
      <trkpt lat="4.5205970" lon="-74.2918650">
        <ele>2772.7</ele>
        <time>2018-08-11T18:22:10Z</time>
      </trkpt>
      <trkpt lat="4.5206300" lon="-74.2918700">
        <ele>2772.7</ele>
        <time>2018-08-11T18:22:11Z</time>
      </trkpt>
      <trkpt lat="4.5206650" lon="-74.2918750">
        <ele>2772.7</ele>
        <time>2018-08-11T18:22:12Z</time>
      </trkpt>
      <trkpt lat="4.5207000" lon="-74.2918820">
        <ele>2772.7</ele>
        <time>2018-08-11T18:22:13Z</time>
      </trkpt>
      <trkpt lat="4.5207320" lon="-74.2918880">
        <ele>2772.8</ele>
        <time>2018-08-11T18:22:14Z</time>
      </trkpt>
      <trkpt lat="4.5207620" lon="-74.2918980">
        <ele>2772.8</ele>
        <time>2018-08-11T18:22:15Z</time>
      </trkpt>
      <trkpt lat="4.5207970" lon="-74.2919070">
        <ele>2772.8</ele>
        <time>2018-08-11T18:22:16Z</time>
      </trkpt>
      <trkpt lat="4.5208370" lon="-74.2919080">
        <ele>2772.9</ele>
        <time>2018-08-11T18:22:17Z</time>
      </trkpt>
      <trkpt lat="4.5208780" lon="-74.2919120">
        <ele>2772.9</ele>
        <time>2018-08-11T18:22:18Z</time>
      </trkpt>
      <trkpt lat="4.5209180" lon="-74.2919180">
        <ele>2772.9</ele>
        <time>2018-08-11T18:22:19Z</time>
      </trkpt>
      <trkpt lat="4.5209620" lon="-74.2919270">
        <ele>2772.9</ele>
        <time>2018-08-11T18:22:20Z</time>
      </trkpt>
      <trkpt lat="4.5210050" lon="-74.2919370">
        <ele>2772.9</ele>
        <time>2018-08-11T18:22:21Z</time>
      </trkpt>
      <trkpt lat="4.5210450" lon="-74.2919500">
        <ele>2773.0</ele>
        <time>2018-08-11T18:22:22Z</time>
      </trkpt>
      <trkpt lat="4.5210830" lon="-74.2919600">
        <ele>2773.0</ele>
        <time>2018-08-11T18:22:23Z</time>
      </trkpt>
      <trkpt lat="4.5211280" lon="-74.2919630">
        <ele>2773.0</ele>
        <time>2018-08-11T18:22:24Z</time>
      </trkpt>
      <trkpt lat="4.5211730" lon="-74.2919680">
        <ele>2773.0</ele>
        <time>2018-08-11T18:22:25Z</time>
      </trkpt>
      <trkpt lat="4.5212250" lon="-74.2919770">
        <ele>2773.1</ele>
        <time>2018-08-11T18:22:26Z</time>
      </trkpt>
      <trkpt lat="4.5212820" lon="-74.2919900">
        <ele>2773.2</ele>
        <time>2018-08-11T18:22:27Z</time>
      </trkpt>
      <trkpt lat="4.5213420" lon="-74.2920020">
        <ele>2773.3</ele>
        <time>2018-08-11T18:22:28Z</time>
      </trkpt>
      <trkpt lat="4.5214070" lon="-74.2920120">
        <ele>2773.6</ele>
        <time>2018-08-11T18:22:29Z</time>
      </trkpt>
      <trkpt lat="4.5214700" lon="-74.2920230">
        <ele>2773.9</ele>
        <time>2018-08-11T18:22:30Z</time>
      </trkpt>
      <trkpt lat="4.5215300" lon="-74.2920330">
        <ele>2774.2</ele>
        <time>2018-08-11T18:22:31Z</time>
      </trkpt>
      <trkpt lat="4.5215870" lon="-74.2920420">
        <ele>2774.4</ele>
        <time>2018-08-11T18:22:32Z</time>
      </trkpt>
      <trkpt lat="4.5216420" lon="-74.2920500">
        <ele>2774.6</ele>
        <time>2018-08-11T18:22:33Z</time>
      </trkpt>
      <trkpt lat="4.5216900" lon="-74.2920630">
        <ele>2774.7</ele>
        <time>2018-08-11T18:22:34Z</time>
      </trkpt>
      <trkpt lat="4.5217430" lon="-74.2920670">
        <ele>2774.7</ele>
        <time>2018-08-11T18:22:35Z</time>
      </trkpt>
      <trkpt lat="4.5217950" lon="-74.2920700">
        <ele>2774.8</ele>
        <time>2018-08-11T18:22:36Z</time>
      </trkpt>
      <trkpt lat="4.5218500" lon="-74.2920700">
        <ele>2774.8</ele>
        <time>2018-08-11T18:22:37Z</time>
      </trkpt>
      <trkpt lat="4.5219070" lon="-74.2920780">
        <ele>2774.9</ele>
        <time>2018-08-11T18:22:38Z</time>
      </trkpt>
      <trkpt lat="4.5219620" lon="-74.2920870">
        <ele>2774.9</ele>
        <time>2018-08-11T18:22:39Z</time>
      </trkpt>
      <trkpt lat="4.5220170" lon="-74.2920980">
        <ele>2774.9</ele>
        <time>2018-08-11T18:22:40Z</time>
      </trkpt>
      <trkpt lat="4.5220720" lon="-74.2921150">
        <ele>2774.9</ele>
        <time>2018-08-11T18:22:41Z</time>
      </trkpt>
      <trkpt lat="4.5221270" lon="-74.2921280">
        <ele>2774.9</ele>
        <time>2018-08-11T18:22:42Z</time>
      </trkpt>
      <trkpt lat="4.5221830" lon="-74.2921380">
        <ele>2774.9</ele>
        <time>2018-08-11T18:22:43Z</time>
      </trkpt>
      <trkpt lat="4.5222420" lon="-74.2921470">
        <ele>2774.9</ele>
        <time>2018-08-11T18:22:44Z</time>
      </trkpt>
      <trkpt lat="4.5223000" lon="-74.2921580">
        <ele>2774.9</ele>
        <time>2018-08-11T18:22:45Z</time>
      </trkpt>
      <trkpt lat="4.5223620" lon="-74.2921630">
        <ele>2774.9</ele>
        <time>2018-08-11T18:22:46Z</time>
      </trkpt>
      <trkpt lat="4.5224220" lon="-74.2921700">
        <ele>2774.9</ele>
        <time>2018-08-11T18:22:47Z</time>
      </trkpt>
      <trkpt lat="4.5224770" lon="-74.2921780">
        <ele>2774.9</ele>
        <time>2018-08-11T18:22:48Z</time>
      </trkpt>
      <trkpt lat="4.5225280" lon="-74.2921920">
        <ele>2774.8</ele>
        <time>2018-08-11T18:22:49Z</time>
      </trkpt>
      <trkpt lat="4.5225770" lon="-74.2922000">
        <ele>2774.8</ele>
        <time>2018-08-11T18:22:50Z</time>
      </trkpt>
      <trkpt lat="4.5226250" lon="-74.2922120">
        <ele>2774.7</ele>
        <time>2018-08-11T18:22:51Z</time>
      </trkpt>
      <trkpt lat="4.5226680" lon="-74.2922220">
        <ele>2774.6</ele>
        <time>2018-08-11T18:22:52Z</time>
      </trkpt>
      <trkpt lat="4.5227150" lon="-74.2922320">
        <ele>2774.4</ele>
        <time>2018-08-11T18:22:53Z</time>
      </trkpt>
      <trkpt lat="4.5227630" lon="-74.2922450">
        <ele>2774.0</ele>
        <time>2018-08-11T18:22:54Z</time>
      </trkpt>
      <trkpt lat="4.5228120" lon="-74.2922670">
        <ele>2773.5</ele>
        <time>2018-08-11T18:22:55Z</time>
      </trkpt>
      <trkpt lat="4.5228650" lon="-74.2922830">
        <ele>2773.1</ele>
        <time>2018-08-11T18:22:56Z</time>
      </trkpt>
      <trkpt lat="4.5229220" lon="-74.2923020">
        <ele>2772.7</ele>
        <time>2018-08-11T18:22:57Z</time>
      </trkpt>
      <trkpt lat="4.5229780" lon="-74.2923170">
        <ele>2771.9</ele>
        <time>2018-08-11T18:22:58Z</time>
      </trkpt>
      <trkpt lat="4.5230370" lon="-74.2923230">
        <ele>2771.1</ele>
        <time>2018-08-11T18:22:59Z</time>
      </trkpt>
      <trkpt lat="4.5230930" lon="-74.2923370">
        <ele>2770.5</ele>
        <time>2018-08-11T18:23:00Z</time>
      </trkpt>
      <trkpt lat="4.5231480" lon="-74.2923550">
        <ele>2769.8</ele>
        <time>2018-08-11T18:23:01Z</time>
      </trkpt>
      <trkpt lat="4.5232030" lon="-74.2923750">
        <ele>2769.5</ele>
        <time>2018-08-11T18:23:02Z</time>
      </trkpt>
      <trkpt lat="4.5232600" lon="-74.2923950">
        <ele>2769.3</ele>
        <time>2018-08-11T18:23:03Z</time>
      </trkpt>
      <trkpt lat="4.5233230" lon="-74.2924130">
        <ele>2769.1</ele>
        <time>2018-08-11T18:23:04Z</time>
      </trkpt>
      <trkpt lat="4.5233830" lon="-74.2924430">
        <ele>2769.0</ele>
        <time>2018-08-11T18:23:05Z</time>
      </trkpt>
      <trkpt lat="4.5234520" lon="-74.2924650">
        <ele>2768.9</ele>
        <time>2018-08-11T18:23:06Z</time>
      </trkpt>
      <trkpt lat="4.5235150" lon="-74.2924880">
        <ele>2769.0</ele>
        <time>2018-08-11T18:23:07Z</time>
      </trkpt>
      <trkpt lat="4.5235830" lon="-74.2925120">
        <ele>2769.0</ele>
        <time>2018-08-11T18:23:08Z</time>
      </trkpt>
      <trkpt lat="4.5236580" lon="-74.2925320">
        <ele>2769.1</ele>
        <time>2018-08-11T18:23:09Z</time>
      </trkpt>
      <trkpt lat="4.5237300" lon="-74.2925500">
        <ele>2769.1</ele>
        <time>2018-08-11T18:23:10Z</time>
      </trkpt>
      <trkpt lat="4.5238000" lon="-74.2925720">
        <ele>2769.3</ele>
        <time>2018-08-11T18:23:11Z</time>
      </trkpt>
      <trkpt lat="4.5238670" lon="-74.2925920">
        <ele>2769.7</ele>
        <time>2018-08-11T18:23:12Z</time>
      </trkpt>
      <trkpt lat="4.5239320" lon="-74.2926050">
        <ele>2770.1</ele>
        <time>2018-08-11T18:23:13Z</time>
      </trkpt>
      <trkpt lat="4.5239970" lon="-74.2926170">
        <ele>2770.5</ele>
        <time>2018-08-11T18:23:14Z</time>
      </trkpt>
      <trkpt lat="4.5240570" lon="-74.2926350">
        <ele>2770.9</ele>
        <time>2018-08-11T18:23:15Z</time>
      </trkpt>
      <trkpt lat="4.5241120" lon="-74.2926570">
        <ele>2771.3</ele>
        <time>2018-08-11T18:23:16Z</time>
      </trkpt>
      <trkpt lat="4.5241620" lon="-74.2926730">
        <ele>2771.7</ele>
        <time>2018-08-11T18:23:17Z</time>
      </trkpt>
      <trkpt lat="4.5242050" lon="-74.2926850">
        <ele>2772.0</ele>
        <time>2018-08-11T18:23:18Z</time>
      </trkpt>
      <trkpt lat="4.5242450" lon="-74.2926980">
        <ele>2772.2</ele>
        <time>2018-08-11T18:23:19Z</time>
      </trkpt>
      <trkpt lat="4.5242820" lon="-74.2927130">
        <ele>2772.5</ele>
        <time>2018-08-11T18:23:20Z</time>
      </trkpt>
      <trkpt lat="4.5243220" lon="-74.2927250">
        <ele>2772.8</ele>
        <time>2018-08-11T18:23:21Z</time>
      </trkpt>
      <trkpt lat="4.5243580" lon="-74.2927330">
        <ele>2773.1</ele>
        <time>2018-08-11T18:23:22Z</time>
      </trkpt>
      <trkpt lat="4.5244000" lon="-74.2927350">
        <ele>2773.5</ele>
        <time>2018-08-11T18:23:23Z</time>
      </trkpt>
      <trkpt lat="4.5244370" lon="-74.2927430">
        <ele>2773.8</ele>
        <time>2018-08-11T18:23:24Z</time>
      </trkpt>
      <trkpt lat="4.5244730" lon="-74.2927520">
        <ele>2774.2</ele>
        <time>2018-08-11T18:23:25Z</time>
      </trkpt>
      <trkpt lat="4.5245080" lon="-74.2927570">
        <ele>2774.5</ele>
        <time>2018-08-11T18:23:26Z</time>
      </trkpt>
      <trkpt lat="4.5245450" lon="-74.2927680">
        <ele>2774.9</ele>
        <time>2018-08-11T18:23:27Z</time>
      </trkpt>
      <trkpt lat="4.5245780" lon="-74.2927870">
        <ele>2775.1</ele>
        <time>2018-08-11T18:23:28Z</time>
      </trkpt>
      <trkpt lat="4.5246070" lon="-74.2928100">
        <ele>2775.3</ele>
        <time>2018-08-11T18:23:29Z</time>
      </trkpt>
      <trkpt lat="4.5246300" lon="-74.2928380">
        <ele>2775.4</ele>
        <time>2018-08-11T18:23:30Z</time>
      </trkpt>
      <trkpt lat="4.5246500" lon="-74.2928750">
        <ele>2775.5</ele>
        <time>2018-08-11T18:23:31Z</time>
      </trkpt>
      <trkpt lat="4.5246670" lon="-74.2929100">
        <ele>2775.5</ele>
        <time>2018-08-11T18:23:32Z</time>
      </trkpt>
      <trkpt lat="4.5246850" lon="-74.2929450">
        <ele>2775.6</ele>
        <time>2018-08-11T18:23:33Z</time>
      </trkpt>
      <trkpt lat="4.5247020" lon="-74.2929830">
        <ele>2775.7</ele>
        <time>2018-08-11T18:23:34Z</time>
      </trkpt>
      <trkpt lat="4.5247180" lon="-74.2930220">
        <ele>2775.8</ele>
        <time>2018-08-11T18:23:35Z</time>
      </trkpt>
      <trkpt lat="4.5247370" lon="-74.2930630">
        <ele>2775.9</ele>
        <time>2018-08-11T18:23:36Z</time>
      </trkpt>
      <trkpt lat="4.5247620" lon="-74.2931080">
        <ele>2776.1</ele>
        <time>2018-08-11T18:23:37Z</time>
      </trkpt>
      <trkpt lat="4.5247970" lon="-74.2931500">
        <ele>2776.3</ele>
        <time>2018-08-11T18:23:38Z</time>
      </trkpt>
      <trkpt lat="4.5248330" lon="-74.2931900">
        <ele>2776.6</ele>
        <time>2018-08-11T18:23:39Z</time>
      </trkpt>
      <trkpt lat="4.5248750" lon="-74.2932300">
        <ele>2776.9</ele>
        <time>2018-08-11T18:23:40Z</time>
      </trkpt>
      <trkpt lat="4.5249270" lon="-74.2932630">
        <ele>2777.2</ele>
        <time>2018-08-11T18:23:41Z</time>
      </trkpt>
      <trkpt lat="4.5249770" lon="-74.2932920">
        <ele>2777.4</ele>
        <time>2018-08-11T18:23:42Z</time>
      </trkpt>
      <trkpt lat="4.5250250" lon="-74.2933080">
        <ele>2777.6</ele>
        <time>2018-08-11T18:23:43Z</time>
      </trkpt>
      <trkpt lat="4.5250700" lon="-74.2933250">
        <ele>2777.8</ele>
        <time>2018-08-11T18:23:44Z</time>
      </trkpt>
      <trkpt lat="4.5251120" lon="-74.2933380">
        <ele>2777.9</ele>
        <time>2018-08-11T18:23:45Z</time>
      </trkpt>
      <trkpt lat="4.5251530" lon="-74.2933470">
        <ele>2778.0</ele>
        <time>2018-08-11T18:23:46Z</time>
      </trkpt>
      <trkpt lat="4.5251930" lon="-74.2933630">
        <ele>2778.0</ele>
        <time>2018-08-11T18:23:47Z</time>
      </trkpt>
      <trkpt lat="4.5252330" lon="-74.2933830">
        <ele>2778.1</ele>
        <time>2018-08-11T18:23:48Z</time>
      </trkpt>
      <trkpt lat="4.5252730" lon="-74.2934030">
        <ele>2778.2</ele>
        <time>2018-08-11T18:23:49Z</time>
      </trkpt>
      <trkpt lat="4.5253150" lon="-74.2934200">
        <ele>2778.4</ele>
        <time>2018-08-11T18:23:50Z</time>
      </trkpt>
      <trkpt lat="4.5253600" lon="-74.2934370">
        <ele>2778.7</ele>
        <time>2018-08-11T18:23:51Z</time>
      </trkpt>
      <trkpt lat="4.5254050" lon="-74.2934580">
        <ele>2779.1</ele>
        <time>2018-08-11T18:23:52Z</time>
      </trkpt>
      <trkpt lat="4.5254450" lon="-74.2934900">
        <ele>2779.5</ele>
        <time>2018-08-11T18:23:53Z</time>
      </trkpt>
      <trkpt lat="4.5254750" lon="-74.2935300">
        <ele>2779.9</ele>
        <time>2018-08-11T18:23:54Z</time>
      </trkpt>
      <trkpt lat="4.5254970" lon="-74.2935770">
        <ele>2780.2</ele>
        <time>2018-08-11T18:23:55Z</time>
      </trkpt>
      <trkpt lat="4.5255180" lon="-74.2936230">
        <ele>2780.5</ele>
        <time>2018-08-11T18:23:56Z</time>
      </trkpt>
      <trkpt lat="4.5255420" lon="-74.2936680">
        <ele>2780.9</ele>
        <time>2018-08-11T18:23:57Z</time>
      </trkpt>
      <trkpt lat="4.5255680" lon="-74.2937130">
        <ele>2781.4</ele>
        <time>2018-08-11T18:23:58Z</time>
      </trkpt>
      <trkpt lat="4.5255980" lon="-74.2937530">
        <ele>2781.9</ele>
        <time>2018-08-11T18:23:59Z</time>
      </trkpt>
      <trkpt lat="4.5256370" lon="-74.2937900">
        <ele>2782.5</ele>
        <time>2018-08-11T18:24:00Z</time>
      </trkpt>
      <trkpt lat="4.5256720" lon="-74.2938280">
        <ele>2783.1</ele>
        <time>2018-08-11T18:24:01Z</time>
      </trkpt>
      <trkpt lat="4.5257070" lon="-74.2938650">
        <ele>2783.7</ele>
        <time>2018-08-11T18:24:02Z</time>
      </trkpt>
      <trkpt lat="4.5257430" lon="-74.2939000">
        <ele>2784.4</ele>
        <time>2018-08-11T18:24:03Z</time>
      </trkpt>
      <trkpt lat="4.5257830" lon="-74.2939300">
        <ele>2785.0</ele>
        <time>2018-08-11T18:24:04Z</time>
      </trkpt>
      <trkpt lat="4.5258250" lon="-74.2939550">
        <ele>2785.7</ele>
        <time>2018-08-11T18:24:05Z</time>
      </trkpt>
      <trkpt lat="4.5258630" lon="-74.2939780">
        <ele>2786.4</ele>
        <time>2018-08-11T18:24:06Z</time>
      </trkpt>
      <trkpt lat="4.5259200" lon="-74.2939920">
        <ele>2787.3</ele>
        <time>2018-08-11T18:24:07Z</time>
      </trkpt>
      <trkpt lat="4.5259580" lon="-74.2940100">
        <ele>2788.1</ele>
        <time>2018-08-11T18:24:08Z</time>
      </trkpt>
      <trkpt lat="4.5259980" lon="-74.2940150">
        <ele>2788.8</ele>
        <time>2018-08-11T18:24:09Z</time>
      </trkpt>
      <trkpt lat="4.5260350" lon="-74.2940150">
        <ele>2789.6</ele>
        <time>2018-08-11T18:24:10Z</time>
      </trkpt>
      <trkpt lat="4.5260730" lon="-74.2940280">
        <ele>2790.5</ele>
        <time>2018-08-11T18:24:11Z</time>
      </trkpt>
      <trkpt lat="4.5261020" lon="-74.2940450">
        <ele>2791.4</ele>
        <time>2018-08-11T18:24:12Z</time>
      </trkpt>
      <trkpt lat="4.5261300" lon="-74.2940570">
        <ele>2792.2</ele>
        <time>2018-08-11T18:24:13Z</time>
      </trkpt>
      <trkpt lat="4.5261550" lon="-74.2940680">
        <ele>2793.0</ele>
        <time>2018-08-11T18:24:14Z</time>
      </trkpt>
      <trkpt lat="4.5261830" lon="-74.2940780">
        <ele>2793.8</ele>
        <time>2018-08-11T18:24:15Z</time>
      </trkpt>
      <trkpt lat="4.5262100" lon="-74.2940920">
        <ele>2794.6</ele>
        <time>2018-08-11T18:24:16Z</time>
      </trkpt>
      <trkpt lat="4.5262350" lon="-74.2941030">
        <ele>2795.3</ele>
        <time>2018-08-11T18:24:17Z</time>
      </trkpt>
      <trkpt lat="4.5262630" lon="-74.2941130">
        <ele>2796.0</ele>
        <time>2018-08-11T18:24:18Z</time>
      </trkpt>
      <trkpt lat="4.5262880" lon="-74.2941270">
        <ele>2796.7</ele>
        <time>2018-08-11T18:24:19Z</time>
      </trkpt>
      <trkpt lat="4.5263130" lon="-74.2941420">
        <ele>2797.3</ele>
        <time>2018-08-11T18:24:20Z</time>
      </trkpt>
      <trkpt lat="4.5263400" lon="-74.2941550">
        <ele>2797.9</ele>
        <time>2018-08-11T18:24:21Z</time>
      </trkpt>
      <trkpt lat="4.5263880" lon="-74.2941850">
        <ele>2799.1</ele>
        <time>2018-08-11T18:24:23Z</time>
      </trkpt>
      <trkpt lat="4.5264100" lon="-74.2942030">
        <ele>2799.7</ele>
        <time>2018-08-11T18:24:24Z</time>
      </trkpt>
      <trkpt lat="4.5264330" lon="-74.2942200">
        <ele>2800.2</ele>
        <time>2018-08-11T18:24:25Z</time>
      </trkpt>
      <trkpt lat="4.5264520" lon="-74.2942420">
        <ele>2800.7</ele>
        <time>2018-08-11T18:24:26Z</time>
      </trkpt>
      <trkpt lat="4.5264720" lon="-74.2942620">
        <ele>2801.3</ele>
        <time>2018-08-11T18:24:27Z</time>
      </trkpt>
      <trkpt lat="4.5264900" lon="-74.2942830">
        <ele>2801.8</ele>
        <time>2018-08-11T18:24:28Z</time>
      </trkpt>
      <trkpt lat="4.5265270" lon="-74.2943180">
        <ele>2802.7</ele>
        <time>2018-08-11T18:24:30Z</time>
      </trkpt>
      <trkpt lat="4.5265700" lon="-74.2943500">
        <ele>2803.7</ele>
        <time>2018-08-11T18:24:32Z</time>
      </trkpt>
      <trkpt lat="4.5265920" lon="-74.2943670">
        <ele>2804.2</ele>
        <time>2018-08-11T18:24:33Z</time>
      </trkpt>
      <trkpt lat="4.5266270" lon="-74.2944000">
        <ele>2805.1</ele>
        <time>2018-08-11T18:24:35Z</time>
      </trkpt>
      <trkpt lat="4.5266580" lon="-74.2944330">
        <ele>2806.1</ele>
        <time>2018-08-11T18:24:37Z</time>
      </trkpt>
      <trkpt lat="4.5266720" lon="-74.2944580">
        <ele>2806.6</ele>
        <time>2018-08-11T18:24:38Z</time>
      </trkpt>
      <trkpt lat="4.5267130" lon="-74.2944930">
        <ele>2807.8</ele>
        <time>2018-08-11T18:24:40Z</time>
      </trkpt>
      <trkpt lat="4.5267350" lon="-74.2945130">
        <ele>2808.5</ele>
        <time>2018-08-11T18:24:41Z</time>
      </trkpt>
      <trkpt lat="4.5267550" lon="-74.2945350">
        <ele>2809.2</ele>
        <time>2018-08-11T18:24:42Z</time>
      </trkpt>
      <trkpt lat="4.5267850" lon="-74.2945720">
        <ele>2810.3</ele>
        <time>2018-08-11T18:24:44Z</time>
      </trkpt>
      <trkpt lat="4.5268120" lon="-74.2946150">
        <ele>2811.3</ele>
        <time>2018-08-11T18:24:46Z</time>
      </trkpt>
      <trkpt lat="4.5268300" lon="-74.2946530">
        <ele>2812.2</ele>
        <time>2018-08-11T18:24:48Z</time>
      </trkpt>
      <trkpt lat="4.5268520" lon="-74.2946900">
        <ele>2813.0</ele>
        <time>2018-08-11T18:24:50Z</time>
      </trkpt>
      <trkpt lat="4.5268730" lon="-74.2947280">
        <ele>2813.8</ele>
        <time>2018-08-11T18:24:52Z</time>
      </trkpt>
      <trkpt lat="4.5268900" lon="-74.2947680">
        <ele>2814.6</ele>
        <time>2018-08-11T18:24:54Z</time>
      </trkpt>
      <trkpt lat="4.5269130" lon="-74.2948030">
        <ele>2815.3</ele>
        <time>2018-08-11T18:24:56Z</time>
      </trkpt>
      <trkpt lat="4.5269400" lon="-74.2948370">
        <ele>2816.1</ele>
        <time>2018-08-11T18:24:58Z</time>
      </trkpt>
      <trkpt lat="4.5269720" lon="-74.2948700">
        <ele>2816.7</ele>
        <time>2018-08-11T18:25:00Z</time>
      </trkpt>
      <trkpt lat="4.5270030" lon="-74.2949020">
        <ele>2817.3</ele>
        <time>2018-08-11T18:25:02Z</time>
      </trkpt>
      <trkpt lat="4.5270400" lon="-74.2949350">
        <ele>2817.9</ele>
        <time>2018-08-11T18:25:04Z</time>
      </trkpt>
      <trkpt lat="4.5270800" lon="-74.2949620">
        <ele>2818.5</ele>
        <time>2018-08-11T18:25:06Z</time>
      </trkpt>
      <trkpt lat="4.5271170" lon="-74.2949900">
        <ele>2819.0</ele>
        <time>2018-08-11T18:25:08Z</time>
      </trkpt>
      <trkpt lat="4.5271480" lon="-74.2950150">
        <ele>2819.4</ele>
        <time>2018-08-11T18:25:10Z</time>
      </trkpt>
      <trkpt lat="4.5271780" lon="-74.2950330">
        <ele>2819.7</ele>
        <time>2018-08-11T18:25:12Z</time>
      </trkpt>
      <trkpt lat="4.5272120" lon="-74.2950580">
        <ele>2820.0</ele>
        <time>2018-08-11T18:25:14Z</time>
      </trkpt>
      <trkpt lat="4.5272480" lon="-74.2950920">
        <ele>2820.4</ele>
        <time>2018-08-11T18:25:16Z</time>
      </trkpt>
      <trkpt lat="4.5272870" lon="-74.2951250">
        <ele>2820.7</ele>
        <time>2018-08-11T18:25:18Z</time>
      </trkpt>
      <trkpt lat="4.5273250" lon="-74.2951520">
        <ele>2820.9</ele>
        <time>2018-08-11T18:25:20Z</time>
      </trkpt>
      <trkpt lat="4.5273620" lon="-74.2951730">
        <ele>2821.0</ele>
        <time>2018-08-11T18:25:22Z</time>
      </trkpt>
      <trkpt lat="4.5273980" lon="-74.2951950">
        <ele>2821.1</ele>
        <time>2018-08-11T18:25:24Z</time>
      </trkpt>
      <trkpt lat="4.5274400" lon="-74.2952150">
        <ele>2821.1</ele>
        <time>2018-08-11T18:25:26Z</time>
      </trkpt>
      <trkpt lat="4.5274770" lon="-74.2952320">
        <ele>2821.2</ele>
        <time>2018-08-11T18:25:28Z</time>
      </trkpt>
      <trkpt lat="4.5275200" lon="-74.2952500">
        <ele>2821.3</ele>
        <time>2018-08-11T18:25:30Z</time>
      </trkpt>
      <trkpt lat="4.5275680" lon="-74.2952670">
        <ele>2821.3</ele>
        <time>2018-08-11T18:25:32Z</time>
      </trkpt>
      <trkpt lat="4.5276170" lon="-74.2952820">
        <ele>2821.3</ele>
        <time>2018-08-11T18:25:34Z</time>
      </trkpt>
      <trkpt lat="4.5276630" lon="-74.2952920">
        <ele>2821.3</ele>
        <time>2018-08-11T18:25:36Z</time>
      </trkpt>
      <trkpt lat="4.5277150" lon="-74.2952950">
        <ele>2821.3</ele>
        <time>2018-08-11T18:25:38Z</time>
      </trkpt>
      <trkpt lat="4.5277400" lon="-74.2953070">
        <ele>2821.3</ele>
        <time>2018-08-11T18:25:39Z</time>
      </trkpt>
      <trkpt lat="4.5277630" lon="-74.2953230">
        <ele>2821.3</ele>
        <time>2018-08-11T18:25:40Z</time>
      </trkpt>
      <trkpt lat="4.5277920" lon="-74.2953370">
        <ele>2821.3</ele>
        <time>2018-08-11T18:25:41Z</time>
      </trkpt>
      <trkpt lat="4.5278220" lon="-74.2953470">
        <ele>2821.3</ele>
        <time>2018-08-11T18:25:42Z</time>
      </trkpt>
      <trkpt lat="4.5278480" lon="-74.2953630">
        <ele>2821.1</ele>
        <time>2018-08-11T18:25:43Z</time>
      </trkpt>
      <trkpt lat="4.5278750" lon="-74.2953800">
        <ele>2821.0</ele>
        <time>2018-08-11T18:25:44Z</time>
      </trkpt>
      <trkpt lat="4.5279100" lon="-74.2953930">
        <ele>2820.7</ele>
        <time>2018-08-11T18:25:45Z</time>
      </trkpt>
      <trkpt lat="4.5279470" lon="-74.2954030">
        <ele>2820.6</ele>
        <time>2018-08-11T18:25:46Z</time>
      </trkpt>
      <trkpt lat="4.5279870" lon="-74.2954170">
        <ele>2820.4</ele>
        <time>2018-08-11T18:25:47Z</time>
      </trkpt>
      <trkpt lat="4.5280270" lon="-74.2954480">
        <ele>2820.3</ele>
        <time>2018-08-11T18:25:48Z</time>
      </trkpt>
      <trkpt lat="4.5280650" lon="-74.2954780">
        <ele>2820.3</ele>
        <time>2018-08-11T18:25:49Z</time>
      </trkpt>
      <trkpt lat="4.5281080" lon="-74.2955120">
        <ele>2820.2</ele>
        <time>2018-08-11T18:25:50Z</time>
      </trkpt>
      <trkpt lat="4.5281620" lon="-74.2955400">
        <ele>2820.1</ele>
        <time>2018-08-11T18:25:51Z</time>
      </trkpt>
      <trkpt lat="4.5282220" lon="-74.2955700">
        <ele>2820.1</ele>
        <time>2018-08-11T18:25:52Z</time>
      </trkpt>
      <trkpt lat="4.5282900" lon="-74.2956000">
        <ele>2820.0</ele>
        <time>2018-08-11T18:25:53Z</time>
      </trkpt>
      <trkpt lat="4.5283630" lon="-74.2956300">
        <ele>2820.0</ele>
        <time>2018-08-11T18:25:54Z</time>
      </trkpt>
      <trkpt lat="4.5284370" lon="-74.2956570">
        <ele>2820.0</ele>
        <time>2018-08-11T18:25:55Z</time>
      </trkpt>
      <trkpt lat="4.5285120" lon="-74.2956730">
        <ele>2820.0</ele>
        <time>2018-08-11T18:25:56Z</time>
      </trkpt>
      <trkpt lat="4.5285800" lon="-74.2956930">
        <ele>2820.1</ele>
        <time>2018-08-11T18:25:57Z</time>
      </trkpt>
      <trkpt lat="4.5286430" lon="-74.2957170">
        <ele>2820.1</ele>
        <time>2018-08-11T18:25:58Z</time>
      </trkpt>
      <trkpt lat="4.5287080" lon="-74.2957420">
        <ele>2820.1</ele>
        <time>2018-08-11T18:25:59Z</time>
      </trkpt>
      <trkpt lat="4.5287730" lon="-74.2957670">
        <ele>2820.1</ele>
        <time>2018-08-11T18:26:00Z</time>
      </trkpt>
      <trkpt lat="4.5288370" lon="-74.2957920">
        <ele>2820.1</ele>
        <time>2018-08-11T18:26:01Z</time>
      </trkpt>
      <trkpt lat="4.5289000" lon="-74.2958150">
        <ele>2820.2</ele>
        <time>2018-08-11T18:26:02Z</time>
      </trkpt>
      <trkpt lat="4.5289550" lon="-74.2958400">
        <ele>2820.2</ele>
        <time>2018-08-11T18:26:03Z</time>
      </trkpt>
      <trkpt lat="4.5290070" lon="-74.2958630">
        <ele>2820.2</ele>
        <time>2018-08-11T18:26:04Z</time>
      </trkpt>
      <trkpt lat="4.5290620" lon="-74.2958870">
        <ele>2820.2</ele>
        <time>2018-08-11T18:26:05Z</time>
      </trkpt>
      <trkpt lat="4.5291120" lon="-74.2959070">
        <ele>2820.3</ele>
        <time>2018-08-11T18:26:06Z</time>
      </trkpt>
      <trkpt lat="4.5291720" lon="-74.2959220">
        <ele>2820.3</ele>
        <time>2018-08-11T18:26:07Z</time>
      </trkpt>
      <trkpt lat="4.5292250" lon="-74.2959420">
        <ele>2820.4</ele>
        <time>2018-08-11T18:26:08Z</time>
      </trkpt>
      <trkpt lat="4.5292780" lon="-74.2959670">
        <ele>2820.6</ele>
        <time>2018-08-11T18:26:09Z</time>
      </trkpt>
      <trkpt lat="4.5293370" lon="-74.2959950">
        <ele>2821.0</ele>
        <time>2018-08-11T18:26:10Z</time>
      </trkpt>
      <trkpt lat="4.5293900" lon="-74.2960370">
        <ele>2821.3</ele>
        <time>2018-08-11T18:26:11Z</time>
      </trkpt>
      <trkpt lat="4.5294480" lon="-74.2960720">
        <ele>2821.6</ele>
        <time>2018-08-11T18:26:12Z</time>
      </trkpt>
      <trkpt lat="4.5295120" lon="-74.2960980">
        <ele>2821.8</ele>
        <time>2018-08-11T18:26:13Z</time>
      </trkpt>
      <trkpt lat="4.5295680" lon="-74.2961250">
        <ele>2822.0</ele>
        <time>2018-08-11T18:26:14Z</time>
      </trkpt>
      <trkpt lat="4.5296250" lon="-74.2961520">
        <ele>2822.1</ele>
        <time>2018-08-11T18:26:15Z</time>
      </trkpt>
      <trkpt lat="4.5296850" lon="-74.2961730">
        <ele>2822.2</ele>
        <time>2018-08-11T18:26:16Z</time>
      </trkpt>
      <trkpt lat="4.5297450" lon="-74.2961980">
        <ele>2822.2</ele>
        <time>2018-08-11T18:26:17Z</time>
      </trkpt>
      <trkpt lat="4.5298030" lon="-74.2962370">
        <ele>2822.3</ele>
        <time>2018-08-11T18:26:18Z</time>
      </trkpt>
      <trkpt lat="4.5298650" lon="-74.2962680">
        <ele>2822.3</ele>
        <time>2018-08-11T18:26:19Z</time>
      </trkpt>
      <trkpt lat="4.5299300" lon="-74.2962980">
        <ele>2822.3</ele>
        <time>2018-08-11T18:26:20Z</time>
      </trkpt>
      <trkpt lat="4.5299920" lon="-74.2963250">
        <ele>2822.4</ele>
        <time>2018-08-11T18:26:21Z</time>
      </trkpt>
      <trkpt lat="4.5300550" lon="-74.2963500">
        <ele>2822.4</ele>
        <time>2018-08-11T18:26:22Z</time>
      </trkpt>
      <trkpt lat="4.5301170" lon="-74.2963720">
        <ele>2822.5</ele>
        <time>2018-08-11T18:26:23Z</time>
      </trkpt>
      <trkpt lat="4.5301730" lon="-74.2963970">
        <ele>2822.5</ele>
        <time>2018-08-11T18:26:24Z</time>
      </trkpt>
      <trkpt lat="4.5302320" lon="-74.2964220">
        <ele>2822.5</ele>
        <time>2018-08-11T18:26:25Z</time>
      </trkpt>
      <trkpt lat="4.5302900" lon="-74.2964470">
        <ele>2822.6</ele>
        <time>2018-08-11T18:26:26Z</time>
      </trkpt>
      <trkpt lat="4.5303500" lon="-74.2964750">
        <ele>2822.7</ele>
        <time>2018-08-11T18:26:27Z</time>
      </trkpt>
      <trkpt lat="4.5304050" lon="-74.2965020">
        <ele>2823.0</ele>
        <time>2018-08-11T18:26:28Z</time>
      </trkpt>
      <trkpt lat="4.5304620" lon="-74.2965280">
        <ele>2823.3</ele>
        <time>2018-08-11T18:26:29Z</time>
      </trkpt>
      <trkpt lat="4.5305170" lon="-74.2965550">
        <ele>2823.7</ele>
        <time>2018-08-11T18:26:30Z</time>
      </trkpt>
      <trkpt lat="4.5305750" lon="-74.2965830">
        <ele>2824.0</ele>
        <time>2018-08-11T18:26:31Z</time>
      </trkpt>
      <trkpt lat="4.5306330" lon="-74.2966100">
        <ele>2824.4</ele>
        <time>2018-08-11T18:26:32Z</time>
      </trkpt>
      <trkpt lat="4.5306930" lon="-74.2966350">
        <ele>2824.5</ele>
        <time>2018-08-11T18:26:33Z</time>
      </trkpt>
      <trkpt lat="4.5307550" lon="-74.2966570">
        <ele>2824.7</ele>
        <time>2018-08-11T18:26:34Z</time>
      </trkpt>
      <trkpt lat="4.5308130" lon="-74.2966780">
        <ele>2824.9</ele>
        <time>2018-08-11T18:26:35Z</time>
      </trkpt>
      <trkpt lat="4.5308730" lon="-74.2967030">
        <ele>2825.1</ele>
        <time>2018-08-11T18:26:36Z</time>
      </trkpt>
      <trkpt lat="4.5309300" lon="-74.2967300">
        <ele>2825.5</ele>
        <time>2018-08-11T18:26:37Z</time>
      </trkpt>
      <trkpt lat="4.5309870" lon="-74.2967580">
        <ele>2825.9</ele>
        <time>2018-08-11T18:26:38Z</time>
      </trkpt>
      <trkpt lat="4.5310380" lon="-74.2967880">
        <ele>2826.3</ele>
        <time>2018-08-11T18:26:39Z</time>
      </trkpt>
      <trkpt lat="4.5310830" lon="-74.2968170">
        <ele>2826.6</ele>
        <time>2018-08-11T18:26:40Z</time>
      </trkpt>
      <trkpt lat="4.5311320" lon="-74.2968420">
        <ele>2826.8</ele>
        <time>2018-08-11T18:26:41Z</time>
      </trkpt>
      <trkpt lat="4.5311820" lon="-74.2968680">
        <ele>2827.0</ele>
        <time>2018-08-11T18:26:42Z</time>
      </trkpt>
      <trkpt lat="4.5312280" lon="-74.2968900">
        <ele>2827.2</ele>
        <time>2018-08-11T18:26:43Z</time>
      </trkpt>
      <trkpt lat="4.5312820" lon="-74.2969080">
        <ele>2827.5</ele>
        <time>2018-08-11T18:26:44Z</time>
      </trkpt>
      <trkpt lat="4.5313320" lon="-74.2969300">
        <ele>2827.9</ele>
        <time>2018-08-11T18:26:45Z</time>
      </trkpt>
      <trkpt lat="4.5313780" lon="-74.2969570">
        <ele>2828.4</ele>
        <time>2018-08-11T18:26:46Z</time>
      </trkpt>
      <trkpt lat="4.5314280" lon="-74.2969820">
        <ele>2828.9</ele>
        <time>2018-08-11T18:26:47Z</time>
      </trkpt>
      <trkpt lat="4.5314800" lon="-74.2969980">
        <ele>2829.4</ele>
        <time>2018-08-11T18:26:48Z</time>
      </trkpt>
      <trkpt lat="4.5315300" lon="-74.2970130">
        <ele>2829.9</ele>
        <time>2018-08-11T18:26:49Z</time>
      </trkpt>
      <trkpt lat="4.5315730" lon="-74.2970330">
        <ele>2830.4</ele>
        <time>2018-08-11T18:26:50Z</time>
      </trkpt>
      <trkpt lat="4.5316150" lon="-74.2970570">
        <ele>2830.9</ele>
        <time>2018-08-11T18:26:51Z</time>
      </trkpt>
      <trkpt lat="4.5316570" lon="-74.2970770">
        <ele>2831.3</ele>
        <time>2018-08-11T18:26:52Z</time>
      </trkpt>
      <trkpt lat="4.5317020" lon="-74.2970980">
        <ele>2831.8</ele>
        <time>2018-08-11T18:26:53Z</time>
      </trkpt>
      <trkpt lat="4.5317470" lon="-74.2971220">
        <ele>2832.3</ele>
        <time>2018-08-11T18:26:54Z</time>
      </trkpt>
      <trkpt lat="4.5317920" lon="-74.2971420">
        <ele>2832.8</ele>
        <time>2018-08-11T18:26:55Z</time>
      </trkpt>
      <trkpt lat="4.5318370" lon="-74.2971570">
        <ele>2833.3</ele>
        <time>2018-08-11T18:26:56Z</time>
      </trkpt>
      <trkpt lat="4.5318820" lon="-74.2971680">
        <ele>2833.8</ele>
        <time>2018-08-11T18:26:57Z</time>
      </trkpt>
      <trkpt lat="4.5319280" lon="-74.2971770">
        <ele>2834.2</ele>
        <time>2018-08-11T18:26:58Z</time>
      </trkpt>
      <trkpt lat="4.5319730" lon="-74.2971800">
        <ele>2834.6</ele>
        <time>2018-08-11T18:26:59Z</time>
      </trkpt>
      <trkpt lat="4.5320200" lon="-74.2971830">
        <ele>2835.1</ele>
        <time>2018-08-11T18:27:00Z</time>
      </trkpt>
      <trkpt lat="4.5320630" lon="-74.2971850">
        <ele>2835.5</ele>
        <time>2018-08-11T18:27:01Z</time>
      </trkpt>
      <trkpt lat="4.5321050" lon="-74.2971850">
        <ele>2835.9</ele>
        <time>2018-08-11T18:27:02Z</time>
      </trkpt>
      <trkpt lat="4.5321470" lon="-74.2971820">
        <ele>2836.3</ele>
        <time>2018-08-11T18:27:03Z</time>
      </trkpt>
      <trkpt lat="4.5321900" lon="-74.2971730">
        <ele>2836.7</ele>
        <time>2018-08-11T18:27:04Z</time>
      </trkpt>
      <trkpt lat="4.5322330" lon="-74.2971650">
        <ele>2837.1</ele>
        <time>2018-08-11T18:27:05Z</time>
      </trkpt>
      <trkpt lat="4.5322750" lon="-74.2971580">
        <ele>2837.5</ele>
        <time>2018-08-11T18:27:06Z</time>
      </trkpt>
      <trkpt lat="4.5323150" lon="-74.2971500">
        <ele>2837.9</ele>
        <time>2018-08-11T18:27:07Z</time>
      </trkpt>
      <trkpt lat="4.5323520" lon="-74.2971420">
        <ele>2838.2</ele>
        <time>2018-08-11T18:27:08Z</time>
      </trkpt>
      <trkpt lat="4.5323920" lon="-74.2971370">
        <ele>2838.6</ele>
        <time>2018-08-11T18:27:09Z</time>
      </trkpt>
      <trkpt lat="4.5324280" lon="-74.2971270">
        <ele>2838.9</ele>
        <time>2018-08-11T18:27:10Z</time>
      </trkpt>
      <trkpt lat="4.5324650" lon="-74.2971180">
        <ele>2839.2</ele>
        <time>2018-08-11T18:27:11Z</time>
      </trkpt>
      <trkpt lat="4.5325050" lon="-74.2971170">
        <ele>2839.6</ele>
        <time>2018-08-11T18:27:12Z</time>
      </trkpt>
      <trkpt lat="4.5325470" lon="-74.2971180">
        <ele>2839.9</ele>
        <time>2018-08-11T18:27:13Z</time>
      </trkpt>
      <trkpt lat="4.5325900" lon="-74.2971170">
        <ele>2840.3</ele>
        <time>2018-08-11T18:27:14Z</time>
      </trkpt>
      <trkpt lat="4.5326320" lon="-74.2971130">
        <ele>2840.7</ele>
        <time>2018-08-11T18:27:15Z</time>
      </trkpt>
      <trkpt lat="4.5326670" lon="-74.2971120">
        <ele>2841.0</ele>
        <time>2018-08-11T18:27:16Z</time>
      </trkpt>
      <trkpt lat="4.5327030" lon="-74.2971120">
        <ele>2841.3</ele>
        <time>2018-08-11T18:27:17Z</time>
      </trkpt>
      <trkpt lat="4.5327380" lon="-74.2971170">
        <ele>2841.6</ele>
        <time>2018-08-11T18:27:18Z</time>
      </trkpt>
      <trkpt lat="4.5327720" lon="-74.2971330">
        <ele>2842.0</ele>
        <time>2018-08-11T18:27:19Z</time>
      </trkpt>
      <trkpt lat="4.5328000" lon="-74.2971520">
        <ele>2842.3</ele>
        <time>2018-08-11T18:27:20Z</time>
      </trkpt>
      <trkpt lat="4.5328250" lon="-74.2971670">
        <ele>2842.6</ele>
        <time>2018-08-11T18:27:21Z</time>
      </trkpt>
      <trkpt lat="4.5328680" lon="-74.2972050">
        <ele>2843.2</ele>
        <time>2018-08-11T18:27:23Z</time>
      </trkpt>
      <trkpt lat="4.5328830" lon="-74.2972300">
        <ele>2843.5</ele>
        <time>2018-08-11T18:27:24Z</time>
      </trkpt>
      <trkpt lat="4.5328900" lon="-74.2972600">
        <ele>2843.8</ele>
        <time>2018-08-11T18:27:25Z</time>
      </trkpt>
      <trkpt lat="4.5328880" lon="-74.2972900">
        <ele>2844.1</ele>
        <time>2018-08-11T18:27:26Z</time>
      </trkpt>
      <trkpt lat="4.5328880" lon="-74.2973200">
        <ele>2844.3</ele>
        <time>2018-08-11T18:27:27Z</time>
      </trkpt>
      <trkpt lat="4.5328900" lon="-74.2973480">
        <ele>2844.6</ele>
        <time>2018-08-11T18:27:28Z</time>
      </trkpt>
      <trkpt lat="4.5328900" lon="-74.2973770">
        <ele>2844.8</ele>
        <time>2018-08-11T18:27:29Z</time>
      </trkpt>
      <trkpt lat="4.5328850" lon="-74.2974050">
        <ele>2845.0</ele>
        <time>2018-08-11T18:27:30Z</time>
      </trkpt>
      <trkpt lat="4.5328820" lon="-74.2974370">
        <ele>2845.3</ele>
        <time>2018-08-11T18:27:31Z</time>
      </trkpt>
      <trkpt lat="4.5328830" lon="-74.2974670">
        <ele>2845.5</ele>
        <time>2018-08-11T18:27:32Z</time>
      </trkpt>
      <trkpt lat="4.5328880" lon="-74.2974980">
        <ele>2845.8</ele>
        <time>2018-08-11T18:27:33Z</time>
      </trkpt>
      <trkpt lat="4.5328930" lon="-74.2975300">
        <ele>2846.0</ele>
        <time>2018-08-11T18:27:34Z</time>
      </trkpt>
      <trkpt lat="4.5328970" lon="-74.2975650">
        <ele>2846.3</ele>
        <time>2018-08-11T18:27:35Z</time>
      </trkpt>
      <trkpt lat="4.5328980" lon="-74.2976000">
        <ele>2846.5</ele>
        <time>2018-08-11T18:27:36Z</time>
      </trkpt>
      <trkpt lat="4.5329020" lon="-74.2976370">
        <ele>2846.7</ele>
        <time>2018-08-11T18:27:37Z</time>
      </trkpt>
      <trkpt lat="4.5328950" lon="-74.2976800">
        <ele>2846.8</ele>
        <time>2018-08-11T18:27:38Z</time>
      </trkpt>
      <trkpt lat="4.5328920" lon="-74.2977280">
        <ele>2847.0</ele>
        <time>2018-08-11T18:27:39Z</time>
      </trkpt>
      <trkpt lat="4.5328900" lon="-74.2977750">
        <ele>2847.1</ele>
        <time>2018-08-11T18:27:40Z</time>
      </trkpt>
      <trkpt lat="4.5328900" lon="-74.2978200">
        <ele>2847.2</ele>
        <time>2018-08-11T18:27:41Z</time>
      </trkpt>
      <trkpt lat="4.5328900" lon="-74.2978600">
        <ele>2847.5</ele>
        <time>2018-08-11T18:27:42Z</time>
      </trkpt>
      <trkpt lat="4.5328950" lon="-74.2979020">
        <ele>2847.9</ele>
        <time>2018-08-11T18:27:43Z</time>
      </trkpt>
      <trkpt lat="4.5328970" lon="-74.2979420">
        <ele>2848.3</ele>
        <time>2018-08-11T18:27:44Z</time>
      </trkpt>
      <trkpt lat="4.5329000" lon="-74.2979770">
        <ele>2848.5</ele>
        <time>2018-08-11T18:27:45Z</time>
      </trkpt>
      <trkpt lat="4.5329030" lon="-74.2980120">
        <ele>2848.7</ele>
        <time>2018-08-11T18:27:46Z</time>
      </trkpt>
      <trkpt lat="4.5329070" lon="-74.2980520">
        <ele>2848.8</ele>
        <time>2018-08-11T18:27:47Z</time>
      </trkpt>
      <trkpt lat="4.5329080" lon="-74.2980900">
        <ele>2848.9</ele>
        <time>2018-08-11T18:27:48Z</time>
      </trkpt>
      <trkpt lat="4.5329080" lon="-74.2981270">
        <ele>2849.1</ele>
        <time>2018-08-11T18:27:49Z</time>
      </trkpt>
      <trkpt lat="4.5329150" lon="-74.2981630">
        <ele>2847.8</ele>
        <time>2018-08-11T18:27:50Z</time>
      </trkpt>
      <trkpt lat="4.5329220" lon="-74.2981980">
        <ele>2847.5</ele>
        <time>2018-08-11T18:27:51Z</time>
      </trkpt>
      <trkpt lat="4.5329270" lon="-74.2982320">
        <ele>2847.4</ele>
        <time>2018-08-11T18:27:52Z</time>
      </trkpt>
      <trkpt lat="4.5329320" lon="-74.2982650">
        <ele>2847.2</ele>
        <time>2018-08-11T18:27:53Z</time>
      </trkpt>
      <trkpt lat="4.5329370" lon="-74.2982980">
        <ele>2846.7</ele>
        <time>2018-08-11T18:27:54Z</time>
      </trkpt>
      <trkpt lat="4.5329380" lon="-74.2983320">
        <ele>2846.1</ele>
        <time>2018-08-11T18:27:55Z</time>
      </trkpt>
      <trkpt lat="4.5329430" lon="-74.2983680">
        <ele>2845.4</ele>
        <time>2018-08-11T18:27:56Z</time>
      </trkpt>
      <trkpt lat="4.5329480" lon="-74.2984030">
        <ele>2844.9</ele>
        <time>2018-08-11T18:27:57Z</time>
      </trkpt>
      <trkpt lat="4.5329520" lon="-74.2984380">
        <ele>2844.1</ele>
        <time>2018-08-11T18:27:58Z</time>
      </trkpt>
      <trkpt lat="4.5329530" lon="-74.2984700">
        <ele>2843.6</ele>
        <time>2018-08-11T18:27:59Z</time>
      </trkpt>
      <trkpt lat="4.5329530" lon="-74.2985030">
        <ele>2843.3</ele>
        <time>2018-08-11T18:28:00Z</time>
      </trkpt>
      <trkpt lat="4.5329570" lon="-74.2985430">
        <ele>2843.1</ele>
        <time>2018-08-11T18:28:01Z</time>
      </trkpt>
      <trkpt lat="4.5329670" lon="-74.2985820">
        <ele>2842.9</ele>
        <time>2018-08-11T18:28:02Z</time>
      </trkpt>
      <trkpt lat="4.5329780" lon="-74.2986180">
        <ele>2842.7</ele>
        <time>2018-08-11T18:28:03Z</time>
      </trkpt>
      <trkpt lat="4.5329730" lon="-74.2986550">
        <ele>2842.1</ele>
        <time>2018-08-11T18:28:04Z</time>
      </trkpt>
      <trkpt lat="4.5329800" lon="-74.2986930">
        <ele>2841.5</ele>
        <time>2018-08-11T18:28:05Z</time>
      </trkpt>
      <trkpt lat="4.5329850" lon="-74.2987280">
        <ele>2841.0</ele>
        <time>2018-08-11T18:28:06Z</time>
      </trkpt>
      <trkpt lat="4.5329820" lon="-74.2987580">
        <ele>2840.5</ele>
        <time>2018-08-11T18:28:07Z</time>
      </trkpt>
      <trkpt lat="4.5329850" lon="-74.2987870">
        <ele>2839.9</ele>
        <time>2018-08-11T18:28:08Z</time>
      </trkpt>
      <trkpt lat="4.5329970" lon="-74.2988370">
        <ele>2839.4</ele>
        <time>2018-08-11T18:28:10Z</time>
      </trkpt>
      <trkpt lat="4.5330100" lon="-74.2988830">
        <ele>2839.1</ele>
        <time>2018-08-11T18:28:12Z</time>
      </trkpt>
      <trkpt lat="4.5330030" lon="-74.2989320">
        <ele>2838.6</ele>
        <time>2018-08-11T18:28:14Z</time>
      </trkpt>
      <trkpt lat="4.5329850" lon="-74.2989680">
        <ele>2837.9</ele>
        <time>2018-08-11T18:28:16Z</time>
      </trkpt>
      <trkpt lat="4.5329770" lon="-74.2990000">
        <ele>2837.3</ele>
        <time>2018-08-11T18:28:18Z</time>
      </trkpt>
      <trkpt lat="4.5329830" lon="-74.2989430">
        <ele>2838.2</ele>
        <time>2018-08-11T18:30:21Z</time>
      </trkpt>
      <trkpt lat="4.5329920" lon="-74.2989150">
        <ele>2838.7</ele>
        <time>2018-08-11T18:30:23Z</time>
      </trkpt>
      <trkpt lat="4.5329930" lon="-74.2988720">
        <ele>2839.1</ele>
        <time>2018-08-11T18:30:26Z</time>
      </trkpt>
      <trkpt lat="4.5329900" lon="-74.2988320">
        <ele>2839.4</ele>
        <time>2018-08-11T18:30:29Z</time>
      </trkpt>
      <trkpt lat="4.5329850" lon="-74.2987950">
        <ele>2839.6</ele>
        <time>2018-08-11T18:30:32Z</time>
      </trkpt>
      <trkpt lat="4.5329780" lon="-74.2987550">
        <ele>2840.3</ele>
        <time>2018-08-11T18:30:35Z</time>
      </trkpt>
      <trkpt lat="4.5329780" lon="-74.2987120">
        <ele>2841.1</ele>
        <time>2018-08-11T18:30:38Z</time>
      </trkpt>
      <trkpt lat="4.5329750" lon="-74.2986820">
        <ele>2841.4</ele>
        <time>2018-08-11T18:30:40Z</time>
      </trkpt>
      <trkpt lat="4.5329750" lon="-74.2986520">
        <ele>2841.9</ele>
        <time>2018-08-11T18:30:42Z</time>
      </trkpt>
      <trkpt lat="4.5329750" lon="-74.2986080">
        <ele>2842.6</ele>
        <time>2018-08-11T18:30:45Z</time>
      </trkpt>
      <trkpt lat="4.5329780" lon="-74.2985700">
        <ele>2842.8</ele>
        <time>2018-08-11T18:30:47Z</time>
      </trkpt>
      <trkpt lat="4.5329730" lon="-74.2985300">
        <ele>2843.0</ele>
        <time>2018-08-11T18:30:49Z</time>
      </trkpt>
      <trkpt lat="4.5329650" lon="-74.2984920">
        <ele>2843.3</ele>
        <time>2018-08-11T18:30:51Z</time>
      </trkpt>
      <trkpt lat="4.5329500" lon="-74.2984480">
        <ele>2843.7</ele>
        <time>2018-08-11T18:30:53Z</time>
      </trkpt>
      <trkpt lat="4.5329500" lon="-74.2984070">
        <ele>2844.4</ele>
        <time>2018-08-11T18:30:55Z</time>
      </trkpt>
      <trkpt lat="4.5329470" lon="-74.2983680">
        <ele>2845.2</ele>
        <time>2018-08-11T18:30:57Z</time>
      </trkpt>
      <trkpt lat="4.5329400" lon="-74.2983300">
        <ele>2845.8</ele>
        <time>2018-08-11T18:30:59Z</time>
      </trkpt>
      <trkpt lat="4.5329320" lon="-74.2982950">
        <ele>2846.5</ele>
        <time>2018-08-11T18:31:01Z</time>
      </trkpt>
      <trkpt lat="4.5329200" lon="-74.2982630">
        <ele>2847.0</ele>
        <time>2018-08-11T18:31:03Z</time>
      </trkpt>
      <trkpt lat="4.5329220" lon="-74.2982170">
        <ele>2847.4</ele>
        <time>2018-08-11T18:31:06Z</time>
      </trkpt>
      <trkpt lat="4.5329230" lon="-74.2981820">
        <ele>2847.5</ele>
        <time>2018-08-11T18:31:08Z</time>
      </trkpt>
      <trkpt lat="4.5329100" lon="-74.2981520">
        <ele>2847.7</ele>
        <time>2018-08-11T18:31:10Z</time>
      </trkpt>
      <trkpt lat="4.5328950" lon="-74.2981180">
        <ele>2849.1</ele>
        <time>2018-08-11T18:31:12Z</time>
      </trkpt>
      <trkpt lat="4.5328970" lon="-74.2980850">
        <ele>2848.9</ele>
        <time>2018-08-11T18:31:14Z</time>
      </trkpt>
      <trkpt lat="4.5328980" lon="-74.2980480">
        <ele>2848.8</ele>
        <time>2018-08-11T18:31:16Z</time>
      </trkpt>
      <trkpt lat="4.5328930" lon="-74.2980080">
        <ele>2848.7</ele>
        <time>2018-08-11T18:31:18Z</time>
      </trkpt>
      <trkpt lat="4.5328980" lon="-74.2979550">
        <ele>2848.5</ele>
        <time>2018-08-11T18:31:20Z</time>
      </trkpt>
      <trkpt lat="4.5329000" lon="-74.2979270">
        <ele>2848.3</ele>
        <time>2018-08-11T18:31:21Z</time>
      </trkpt>
      <trkpt lat="4.5328970" lon="-74.2978950">
        <ele>2848.0</ele>
        <time>2018-08-11T18:31:22Z</time>
      </trkpt>
      <trkpt lat="4.5328980" lon="-74.2978570">
        <ele>2847.6</ele>
        <time>2018-08-11T18:31:23Z</time>
      </trkpt>
      <trkpt lat="4.5328950" lon="-74.2978280">
        <ele>2847.4</ele>
        <time>2018-08-11T18:31:24Z</time>
      </trkpt>
      <trkpt lat="4.5328870" lon="-74.2977800">
        <ele>2847.2</ele>
        <time>2018-08-11T18:31:26Z</time>
      </trkpt>
      <trkpt lat="4.5328820" lon="-74.2977370">
        <ele>2847.0</ele>
        <time>2018-08-11T18:31:28Z</time>
      </trkpt>
      <trkpt lat="4.5328830" lon="-74.2977020">
        <ele>2846.9</ele>
        <time>2018-08-11T18:31:30Z</time>
      </trkpt>
      <trkpt lat="4.5328850" lon="-74.2976630">
        <ele>2846.8</ele>
        <time>2018-08-11T18:31:32Z</time>
      </trkpt>
      <trkpt lat="4.5328730" lon="-74.2976230">
        <ele>2846.7</ele>
        <time>2018-08-11T18:31:34Z</time>
      </trkpt>
      <trkpt lat="4.5328720" lon="-74.2975830">
        <ele>2846.5</ele>
        <time>2018-08-11T18:31:36Z</time>
      </trkpt>
      <trkpt lat="4.5328680" lon="-74.2975380">
        <ele>2846.2</ele>
        <time>2018-08-11T18:31:38Z</time>
      </trkpt>
      <trkpt lat="4.5328670" lon="-74.2974970">
        <ele>2845.9</ele>
        <time>2018-08-11T18:31:40Z</time>
      </trkpt>
      <trkpt lat="4.5328600" lon="-74.2974530">
        <ele>2845.5</ele>
        <time>2018-08-11T18:31:42Z</time>
      </trkpt>
      <trkpt lat="4.5328570" lon="-74.2974030">
        <ele>2845.1</ele>
        <time>2018-08-11T18:31:44Z</time>
      </trkpt>
      <trkpt lat="4.5328550" lon="-74.2973500">
        <ele>2844.7</ele>
        <time>2018-08-11T18:31:46Z</time>
      </trkpt>
      <trkpt lat="4.5328570" lon="-74.2973080">
        <ele>2844.4</ele>
        <time>2018-08-11T18:31:48Z</time>
      </trkpt>
      <trkpt lat="4.5328470" lon="-74.2972570">
        <ele>2843.9</ele>
        <time>2018-08-11T18:31:50Z</time>
      </trkpt>
      <trkpt lat="4.5328350" lon="-74.2972120">
        <ele>2843.5</ele>
        <time>2018-08-11T18:31:52Z</time>
      </trkpt>
      <trkpt lat="4.5328130" lon="-74.2971830">
        <ele>2843.1</ele>
        <time>2018-08-11T18:31:54Z</time>
      </trkpt>
      <trkpt lat="4.5327750" lon="-74.2971550">
        <ele>2842.6</ele>
        <time>2018-08-11T18:31:56Z</time>
      </trkpt>
      <trkpt lat="4.5327470" lon="-74.2971430">
        <ele>2842.3</ele>
        <time>2018-08-11T18:31:57Z</time>
      </trkpt>
      <trkpt lat="4.5327020" lon="-74.2971200">
        <ele>2841.8</ele>
        <time>2018-08-11T18:31:59Z</time>
      </trkpt>
      <trkpt lat="4.5326730" lon="-74.2971180">
        <ele>2841.5</ele>
        <time>2018-08-11T18:32:00Z</time>
      </trkpt>
      <trkpt lat="4.5326420" lon="-74.2971170">
        <ele>2841.3</ele>
        <time>2018-08-11T18:32:01Z</time>
      </trkpt>
      <trkpt lat="4.5326120" lon="-74.2971130">
        <ele>2841.0</ele>
        <time>2018-08-11T18:32:02Z</time>
      </trkpt>
      <trkpt lat="4.5325780" lon="-74.2971120">
        <ele>2840.7</ele>
        <time>2018-08-11T18:32:03Z</time>
      </trkpt>
      <trkpt lat="4.5325500" lon="-74.2971100">
        <ele>2840.4</ele>
        <time>2018-08-11T18:32:04Z</time>
      </trkpt>
      <trkpt lat="4.5325180" lon="-74.2971100">
        <ele>2840.2</ele>
        <time>2018-08-11T18:32:05Z</time>
      </trkpt>
      <trkpt lat="4.5324870" lon="-74.2971120">
        <ele>2839.9</ele>
        <time>2018-08-11T18:32:06Z</time>
      </trkpt>
      <trkpt lat="4.5324530" lon="-74.2971080">
        <ele>2839.6</ele>
        <time>2018-08-11T18:32:07Z</time>
      </trkpt>
      <trkpt lat="4.5324250" lon="-74.2971100">
        <ele>2839.4</ele>
        <time>2018-08-11T18:32:08Z</time>
      </trkpt>
      <trkpt lat="4.5323920" lon="-74.2971130">
        <ele>2839.1</ele>
        <time>2018-08-11T18:32:09Z</time>
      </trkpt>
      <trkpt lat="4.5323550" lon="-74.2971170">
        <ele>2838.8</ele>
        <time>2018-08-11T18:32:10Z</time>
      </trkpt>
      <trkpt lat="4.5323170" lon="-74.2971220">
        <ele>2838.4</ele>
        <time>2018-08-11T18:32:11Z</time>
      </trkpt>
      <trkpt lat="4.5322820" lon="-74.2971280">
        <ele>2838.1</ele>
        <time>2018-08-11T18:32:12Z</time>
      </trkpt>
      <trkpt lat="4.5322500" lon="-74.2971300">
        <ele>2837.8</ele>
        <time>2018-08-11T18:32:13Z</time>
      </trkpt>
      <trkpt lat="4.5322180" lon="-74.2971330">
        <ele>2837.6</ele>
        <time>2018-08-11T18:32:14Z</time>
      </trkpt>
      <trkpt lat="4.5321870" lon="-74.2971370">
        <ele>2837.3</ele>
        <time>2018-08-11T18:32:15Z</time>
      </trkpt>
      <trkpt lat="4.5321580" lon="-74.2971380">
        <ele>2837.0</ele>
        <time>2018-08-11T18:32:16Z</time>
      </trkpt>
      <trkpt lat="4.5321250" lon="-74.2971420">
        <ele>2836.7</ele>
        <time>2018-08-11T18:32:17Z</time>
      </trkpt>
      <trkpt lat="4.5320900" lon="-74.2971470">
        <ele>2836.4</ele>
        <time>2018-08-11T18:32:18Z</time>
      </trkpt>
      <trkpt lat="4.5320500" lon="-74.2971580">
        <ele>2836.0</ele>
        <time>2018-08-11T18:32:19Z</time>
      </trkpt>
      <trkpt lat="4.5320150" lon="-74.2971620">
        <ele>2835.7</ele>
        <time>2018-08-11T18:32:20Z</time>
      </trkpt>
      <trkpt lat="4.5319770" lon="-74.2971630">
        <ele>2835.3</ele>
        <time>2018-08-11T18:32:21Z</time>
      </trkpt>
      <trkpt lat="4.5319380" lon="-74.2971630">
        <ele>2834.9</ele>
        <time>2018-08-11T18:32:22Z</time>
      </trkpt>
      <trkpt lat="4.5319050" lon="-74.2971630">
        <ele>2834.6</ele>
        <time>2018-08-11T18:32:23Z</time>
      </trkpt>
      <trkpt lat="4.5318720" lon="-74.2971600">
        <ele>2834.3</ele>
        <time>2018-08-11T18:32:24Z</time>
      </trkpt>
      <trkpt lat="4.5318470" lon="-74.2971480">
        <ele>2834.0</ele>
        <time>2018-08-11T18:32:25Z</time>
      </trkpt>
      <trkpt lat="4.5318180" lon="-74.2971370">
        <ele>2833.7</ele>
        <time>2018-08-11T18:32:26Z</time>
      </trkpt>
      <trkpt lat="4.5317920" lon="-74.2971270">
        <ele>2833.5</ele>
        <time>2018-08-11T18:32:27Z</time>
      </trkpt>
      <trkpt lat="4.5317470" lon="-74.2970950">
        <ele>2832.9</ele>
        <time>2018-08-11T18:32:29Z</time>
      </trkpt>
      <trkpt lat="4.5316970" lon="-74.2970730">
        <ele>2832.4</ele>
        <time>2018-08-11T18:32:31Z</time>
      </trkpt>
      <trkpt lat="4.5316720" lon="-74.2970620">
        <ele>2832.1</ele>
        <time>2018-08-11T18:32:32Z</time>
      </trkpt>
      <trkpt lat="4.5316430" lon="-74.2970480">
        <ele>2831.8</ele>
        <time>2018-08-11T18:32:33Z</time>
      </trkpt>
      <trkpt lat="4.5316130" lon="-74.2970300">
        <ele>2831.4</ele>
        <time>2018-08-11T18:32:34Z</time>
      </trkpt>
      <trkpt lat="4.5315820" lon="-74.2970180">
        <ele>2831.1</ele>
        <time>2018-08-11T18:32:35Z</time>
      </trkpt>
      <trkpt lat="4.5315520" lon="-74.2970070">
        <ele>2830.8</ele>
        <time>2018-08-11T18:32:36Z</time>
      </trkpt>
      <trkpt lat="4.5315200" lon="-74.2969900">
        <ele>2830.4</ele>
        <time>2018-08-11T18:32:37Z</time>
      </trkpt>
      <trkpt lat="4.5314870" lon="-74.2969730">
        <ele>2830.0</ele>
        <time>2018-08-11T18:32:38Z</time>
      </trkpt>
      <trkpt lat="4.5314550" lon="-74.2969570">
        <ele>2829.7</ele>
        <time>2018-08-11T18:32:39Z</time>
      </trkpt>
      <trkpt lat="4.5314220" lon="-74.2969420">
        <ele>2829.3</ele>
        <time>2018-08-11T18:32:40Z</time>
      </trkpt>
      <trkpt lat="4.5313920" lon="-74.2969280">
        <ele>2829.0</ele>
        <time>2018-08-11T18:32:41Z</time>
      </trkpt>
      <trkpt lat="4.5313630" lon="-74.2969150">
        <ele>2828.7</ele>
        <time>2018-08-11T18:32:42Z</time>
      </trkpt>
      <trkpt lat="4.5313350" lon="-74.2969000">
        <ele>2828.5</ele>
        <time>2018-08-11T18:32:43Z</time>
      </trkpt>
      <trkpt lat="4.5313050" lon="-74.2968870">
        <ele>2828.2</ele>
        <time>2018-08-11T18:32:44Z</time>
      </trkpt>
      <trkpt lat="4.5312750" lon="-74.2968700">
        <ele>2827.9</ele>
        <time>2018-08-11T18:32:45Z</time>
      </trkpt>
      <trkpt lat="4.5312450" lon="-74.2968530">
        <ele>2827.6</ele>
        <time>2018-08-11T18:32:46Z</time>
      </trkpt>
      <trkpt lat="4.5312120" lon="-74.2968370">
        <ele>2827.3</ele>
        <time>2018-08-11T18:32:47Z</time>
      </trkpt>
      <trkpt lat="4.5311780" lon="-74.2968220">
        <ele>2827.2</ele>
        <time>2018-08-11T18:32:48Z</time>
      </trkpt>
      <trkpt lat="4.5311500" lon="-74.2968070">
        <ele>2827.1</ele>
        <time>2018-08-11T18:32:49Z</time>
      </trkpt>
      <trkpt lat="4.5311170" lon="-74.2967900">
        <ele>2826.9</ele>
        <time>2018-08-11T18:32:50Z</time>
      </trkpt>
      <trkpt lat="4.5310850" lon="-74.2967730">
        <ele>2826.8</ele>
        <time>2018-08-11T18:32:51Z</time>
      </trkpt>
      <trkpt lat="4.5310530" lon="-74.2967580">
        <ele>2826.7</ele>
        <time>2018-08-11T18:32:52Z</time>
      </trkpt>
      <trkpt lat="4.5310180" lon="-74.2967450">
        <ele>2826.5</ele>
        <time>2018-08-11T18:32:53Z</time>
      </trkpt>
      <trkpt lat="4.5309820" lon="-74.2967270">
        <ele>2826.3</ele>
        <time>2018-08-11T18:32:54Z</time>
      </trkpt>
      <trkpt lat="4.5309430" lon="-74.2967070">
        <ele>2826.0</ele>
        <time>2018-08-11T18:32:55Z</time>
      </trkpt>
      <trkpt lat="4.5309000" lon="-74.2966850">
        <ele>2825.7</ele>
        <time>2018-08-11T18:32:56Z</time>
      </trkpt>
      <trkpt lat="4.5308550" lon="-74.2966630">
        <ele>2825.4</ele>
        <time>2018-08-11T18:32:57Z</time>
      </trkpt>
      <trkpt lat="4.5308120" lon="-74.2966470">
        <ele>2825.1</ele>
        <time>2018-08-11T18:32:58Z</time>
      </trkpt>
      <trkpt lat="4.5307700" lon="-74.2966270">
        <ele>2824.9</ele>
        <time>2018-08-11T18:32:59Z</time>
      </trkpt>
      <trkpt lat="4.5307270" lon="-74.2966080">
        <ele>2824.8</ele>
        <time>2018-08-11T18:33:00Z</time>
      </trkpt>
      <trkpt lat="4.5306830" lon="-74.2965900">
        <ele>2824.7</ele>
        <time>2018-08-11T18:33:01Z</time>
      </trkpt>
      <trkpt lat="4.5306400" lon="-74.2965730">
        <ele>2824.5</ele>
        <time>2018-08-11T18:33:02Z</time>
      </trkpt>
      <trkpt lat="4.5305970" lon="-74.2965570">
        <ele>2824.4</ele>
        <time>2018-08-11T18:33:03Z</time>
      </trkpt>
      <trkpt lat="4.5305530" lon="-74.2965380">
        <ele>2824.3</ele>
        <time>2018-08-11T18:33:04Z</time>
      </trkpt>
      <trkpt lat="4.5305120" lon="-74.2965230">
        <ele>2824.0</ele>
        <time>2018-08-11T18:33:05Z</time>
      </trkpt>
      <trkpt lat="4.5304700" lon="-74.2965120">
        <ele>2823.8</ele>
        <time>2018-08-11T18:33:06Z</time>
      </trkpt>
      <trkpt lat="4.5304320" lon="-74.2964970">
        <ele>2823.5</ele>
        <time>2018-08-11T18:33:07Z</time>
      </trkpt>
      <trkpt lat="4.5303970" lon="-74.2964820">
        <ele>2823.3</ele>
        <time>2018-08-11T18:33:08Z</time>
      </trkpt>
      <trkpt lat="4.5303630" lon="-74.2964670">
        <ele>2823.1</ele>
        <time>2018-08-11T18:33:09Z</time>
      </trkpt>
      <trkpt lat="4.5303350" lon="-74.2964500">
        <ele>2823.0</ele>
        <time>2018-08-11T18:33:10Z</time>
      </trkpt>
      <trkpt lat="4.5303030" lon="-74.2964320">
        <ele>2822.8</ele>
        <time>2018-08-11T18:33:11Z</time>
      </trkpt>
      <trkpt lat="4.5302700" lon="-74.2964150">
        <ele>2822.7</ele>
        <time>2018-08-11T18:33:12Z</time>
      </trkpt>
      <trkpt lat="4.5302330" lon="-74.2964000">
        <ele>2822.6</ele>
        <time>2018-08-11T18:33:13Z</time>
      </trkpt>
      <trkpt lat="4.5301980" lon="-74.2963830">
        <ele>2822.6</ele>
        <time>2018-08-11T18:33:14Z</time>
      </trkpt>
      <trkpt lat="4.5301650" lon="-74.2963680">
        <ele>2822.5</ele>
        <time>2018-08-11T18:33:15Z</time>
      </trkpt>
      <trkpt lat="4.5301300" lon="-74.2963520">
        <ele>2822.5</ele>
        <time>2018-08-11T18:33:16Z</time>
      </trkpt>
      <trkpt lat="4.5300970" lon="-74.2963420">
        <ele>2822.5</ele>
        <time>2018-08-11T18:33:17Z</time>
      </trkpt>
      <trkpt lat="4.5300580" lon="-74.2963300">
        <ele>2822.5</ele>
        <time>2018-08-11T18:33:18Z</time>
      </trkpt>
      <trkpt lat="4.5300220" lon="-74.2963150">
        <ele>2822.4</ele>
        <time>2018-08-11T18:33:19Z</time>
      </trkpt>
      <trkpt lat="4.5299870" lon="-74.2963000">
        <ele>2822.4</ele>
        <time>2018-08-11T18:33:20Z</time>
      </trkpt>
      <trkpt lat="4.5299520" lon="-74.2962850">
        <ele>2822.4</ele>
        <time>2018-08-11T18:33:21Z</time>
      </trkpt>
      <trkpt lat="4.5299200" lon="-74.2962720">
        <ele>2822.4</ele>
        <time>2018-08-11T18:33:22Z</time>
      </trkpt>
      <trkpt lat="4.5298880" lon="-74.2962600">
        <ele>2822.4</ele>
        <time>2018-08-11T18:33:23Z</time>
      </trkpt>
      <trkpt lat="4.5298520" lon="-74.2962470">
        <ele>2822.3</ele>
        <time>2018-08-11T18:33:24Z</time>
      </trkpt>
      <trkpt lat="4.5298150" lon="-74.2962300">
        <ele>2822.3</ele>
        <time>2018-08-11T18:33:25Z</time>
      </trkpt>
      <trkpt lat="4.5297820" lon="-74.2962130">
        <ele>2822.3</ele>
        <time>2018-08-11T18:33:26Z</time>
      </trkpt>
      <trkpt lat="4.5297480" lon="-74.2961950">
        <ele>2822.3</ele>
        <time>2018-08-11T18:33:27Z</time>
      </trkpt>
      <trkpt lat="4.5297150" lon="-74.2961800">
        <ele>2822.2</ele>
        <time>2018-08-11T18:33:28Z</time>
      </trkpt>
      <trkpt lat="4.5296780" lon="-74.2961630">
        <ele>2822.2</ele>
        <time>2018-08-11T18:33:29Z</time>
      </trkpt>
      <trkpt lat="4.5296420" lon="-74.2961480">
        <ele>2822.2</ele>
        <time>2018-08-11T18:33:30Z</time>
      </trkpt>
      <trkpt lat="4.5296020" lon="-74.2961350">
        <ele>2822.2</ele>
        <time>2018-08-11T18:33:31Z</time>
      </trkpt>
      <trkpt lat="4.5295600" lon="-74.2961230">
        <ele>2822.1</ele>
        <time>2018-08-11T18:33:32Z</time>
      </trkpt>
      <trkpt lat="4.5295220" lon="-74.2961080">
        <ele>2822.0</ele>
        <time>2018-08-11T18:33:33Z</time>
      </trkpt>
      <trkpt lat="4.5294850" lon="-74.2960950">
        <ele>2822.0</ele>
        <time>2018-08-11T18:33:34Z</time>
      </trkpt>
      <trkpt lat="4.5294520" lon="-74.2960770">
        <ele>2821.9</ele>
        <time>2018-08-11T18:33:35Z</time>
      </trkpt>
      <trkpt lat="4.5294220" lon="-74.2960550">
        <ele>2821.8</ele>
        <time>2018-08-11T18:33:36Z</time>
      </trkpt>
      <trkpt lat="4.5293920" lon="-74.2960320">
        <ele>2821.7</ele>
        <time>2018-08-11T18:33:37Z</time>
      </trkpt>
      <trkpt lat="4.5293600" lon="-74.2960100">
        <ele>2821.5</ele>
        <time>2018-08-11T18:33:38Z</time>
      </trkpt>
      <trkpt lat="4.5293270" lon="-74.2959920">
        <ele>2821.4</ele>
        <time>2018-08-11T18:33:39Z</time>
      </trkpt>
      <trkpt lat="4.5292920" lon="-74.2959720">
        <ele>2821.2</ele>
        <time>2018-08-11T18:33:40Z</time>
      </trkpt>
      <trkpt lat="4.5292630" lon="-74.2959530">
        <ele>2821.0</ele>
        <time>2018-08-11T18:33:41Z</time>
      </trkpt>
      <trkpt lat="4.5292280" lon="-74.2959330">
        <ele>2820.8</ele>
        <time>2018-08-11T18:33:42Z</time>
      </trkpt>
      <trkpt lat="4.5291980" lon="-74.2959180">
        <ele>2820.6</ele>
        <time>2018-08-11T18:33:43Z</time>
      </trkpt>
      <trkpt lat="4.5291650" lon="-74.2959070">
        <ele>2820.5</ele>
        <time>2018-08-11T18:33:44Z</time>
      </trkpt>
      <trkpt lat="4.5291330" lon="-74.2958970">
        <ele>2820.4</ele>
        <time>2018-08-11T18:33:45Z</time>
      </trkpt>
      <trkpt lat="4.5291070" lon="-74.2958830">
        <ele>2820.3</ele>
        <time>2018-08-11T18:33:46Z</time>
      </trkpt>
      <trkpt lat="4.5290600" lon="-74.2958620">
        <ele>2820.3</ele>
        <time>2018-08-11T18:33:48Z</time>
      </trkpt>
      <trkpt lat="4.5290330" lon="-74.2958530">
        <ele>2820.3</ele>
        <time>2018-08-11T18:33:49Z</time>
      </trkpt>
      <trkpt lat="4.5290050" lon="-74.2958400">
        <ele>2820.2</ele>
        <time>2018-08-11T18:33:50Z</time>
      </trkpt>
      <trkpt lat="4.5289780" lon="-74.2958270">
        <ele>2820.2</ele>
        <time>2018-08-11T18:33:51Z</time>
      </trkpt>
      <trkpt lat="4.5289530" lon="-74.2958150">
        <ele>2820.2</ele>
        <time>2018-08-11T18:33:52Z</time>
      </trkpt>
      <trkpt lat="4.5289270" lon="-74.2958050">
        <ele>2820.2</ele>
        <time>2018-08-11T18:33:53Z</time>
      </trkpt>
      <trkpt lat="4.5288720" lon="-74.2957870">
        <ele>2820.2</ele>
        <time>2018-08-11T18:33:55Z</time>
      </trkpt>
      <trkpt lat="4.5288450" lon="-74.2957800">
        <ele>2820.2</ele>
        <time>2018-08-11T18:33:56Z</time>
      </trkpt>
      <trkpt lat="4.5287920" lon="-74.2957620">
        <ele>2820.1</ele>
        <time>2018-08-11T18:33:58Z</time>
      </trkpt>
      <trkpt lat="4.5287600" lon="-74.2957570">
        <ele>2820.1</ele>
        <time>2018-08-11T18:33:59Z</time>
      </trkpt>
      <trkpt lat="4.5287280" lon="-74.2957450">
        <ele>2820.1</ele>
        <time>2018-08-11T18:34:00Z</time>
      </trkpt>
      <trkpt lat="4.5286950" lon="-74.2957380">
        <ele>2820.1</ele>
        <time>2018-08-11T18:34:01Z</time>
      </trkpt>
      <trkpt lat="4.5286600" lon="-74.2957370">
        <ele>2820.1</ele>
        <time>2018-08-11T18:34:02Z</time>
      </trkpt>
      <trkpt lat="4.5286270" lon="-74.2957380">
        <ele>2820.1</ele>
        <time>2018-08-11T18:34:03Z</time>
      </trkpt>
      <trkpt lat="4.5285950" lon="-74.2957330">
        <ele>2820.1</ele>
        <time>2018-08-11T18:34:04Z</time>
      </trkpt>
      <trkpt lat="4.5285430" lon="-74.2957080">
        <ele>2820.1</ele>
        <time>2018-08-11T18:34:06Z</time>
      </trkpt>
      <trkpt lat="4.5285130" lon="-74.2956950">
        <ele>2820.1</ele>
        <time>2018-08-11T18:34:07Z</time>
      </trkpt>
      <trkpt lat="4.5284850" lon="-74.2956800">
        <ele>2820.1</ele>
        <time>2018-08-11T18:34:08Z</time>
      </trkpt>
      <trkpt lat="4.5284530" lon="-74.2956670">
        <ele>2820.1</ele>
        <time>2018-08-11T18:34:09Z</time>
      </trkpt>
      <trkpt lat="4.5284250" lon="-74.2956530">
        <ele>2820.0</ele>
        <time>2018-08-11T18:34:10Z</time>
      </trkpt>
      <trkpt lat="4.5283950" lon="-74.2956450">
        <ele>2820.0</ele>
        <time>2018-08-11T18:34:11Z</time>
      </trkpt>
      <trkpt lat="4.5283670" lon="-74.2956370">
        <ele>2820.0</ele>
        <time>2018-08-11T18:34:12Z</time>
      </trkpt>
      <trkpt lat="4.5283400" lon="-74.2956270">
        <ele>2820.0</ele>
        <time>2018-08-11T18:34:13Z</time>
      </trkpt>
      <trkpt lat="4.5282920" lon="-74.2956030">
        <ele>2820.0</ele>
        <time>2018-08-11T18:34:15Z</time>
      </trkpt>
      <trkpt lat="4.5282500" lon="-74.2955770">
        <ele>2820.0</ele>
        <time>2018-08-11T18:34:17Z</time>
      </trkpt>
      <trkpt lat="4.5282120" lon="-74.2955420">
        <ele>2820.0</ele>
        <time>2018-08-11T18:34:19Z</time>
      </trkpt>
      <trkpt lat="4.5281930" lon="-74.2955220">
        <ele>2820.0</ele>
        <time>2018-08-11T18:34:20Z</time>
      </trkpt>
      <trkpt lat="4.5281570" lon="-74.2954920">
        <ele>2820.1</ele>
        <time>2018-08-11T18:34:22Z</time>
      </trkpt>
      <trkpt lat="4.5281170" lon="-74.2954600">
        <ele>2820.1</ele>
        <time>2018-08-11T18:34:24Z</time>
      </trkpt>
      <trkpt lat="4.5280780" lon="-74.2954370">
        <ele>2820.1</ele>
        <time>2018-08-11T18:34:26Z</time>
      </trkpt>
      <trkpt lat="4.5280300" lon="-74.2954170">
        <ele>2820.2</ele>
        <time>2018-08-11T18:34:28Z</time>
      </trkpt>
      <trkpt lat="4.5280030" lon="-74.2954080">
        <ele>2820.3</ele>
        <time>2018-08-11T18:34:29Z</time>
      </trkpt>
      <trkpt lat="4.5279670" lon="-74.2953830">
        <ele>2820.3</ele>
        <time>2018-08-11T18:34:31Z</time>
      </trkpt>
      <trkpt lat="4.5279420" lon="-74.2953720">
        <ele>2820.4</ele>
        <time>2018-08-11T18:34:32Z</time>
      </trkpt>
      <trkpt lat="4.5278970" lon="-74.2953530">
        <ele>2820.5</ele>
        <time>2018-08-11T18:34:34Z</time>
      </trkpt>
      <trkpt lat="4.5278520" lon="-74.2953350">
        <ele>2820.7</ele>
        <time>2018-08-11T18:34:36Z</time>
      </trkpt>
      <trkpt lat="4.5278130" lon="-74.2953200">
        <ele>2820.9</ele>
        <time>2018-08-11T18:34:38Z</time>
      </trkpt>
      <trkpt lat="4.5277780" lon="-74.2952920">
        <ele>2821.2</ele>
        <time>2018-08-11T18:34:40Z</time>
      </trkpt>
      <trkpt lat="4.5277350" lon="-74.2952720">
        <ele>2821.3</ele>
        <time>2018-08-11T18:34:42Z</time>
      </trkpt>
      <trkpt lat="4.5277050" lon="-74.2952700">
        <ele>2821.3</ele>
        <time>2018-08-11T18:34:43Z</time>
      </trkpt>
      <trkpt lat="4.5276750" lon="-74.2952630">
        <ele>2821.3</ele>
        <time>2018-08-11T18:34:44Z</time>
      </trkpt>
      <trkpt lat="4.5276480" lon="-74.2952570">
        <ele>2821.3</ele>
        <time>2018-08-11T18:34:45Z</time>
      </trkpt>
      <trkpt lat="4.5275970" lon="-74.2952470">
        <ele>2821.3</ele>
        <time>2018-08-11T18:34:47Z</time>
      </trkpt>
      <trkpt lat="4.5275720" lon="-74.2952350">
        <ele>2821.3</ele>
        <time>2018-08-11T18:34:48Z</time>
      </trkpt>
      <trkpt lat="4.5275350" lon="-74.2952100">
        <ele>2821.3</ele>
        <time>2018-08-11T18:34:50Z</time>
      </trkpt>
      <trkpt lat="4.5274920" lon="-74.2951870">
        <ele>2821.3</ele>
        <time>2018-08-11T18:34:52Z</time>
      </trkpt>
      <trkpt lat="4.5274570" lon="-74.2951680">
        <ele>2821.3</ele>
        <time>2018-08-11T18:34:54Z</time>
      </trkpt>
      <trkpt lat="4.5274170" lon="-74.2951570">
        <ele>2821.2</ele>
        <time>2018-08-11T18:34:56Z</time>
      </trkpt>
      <trkpt lat="4.5273680" lon="-74.2951380">
        <ele>2821.1</ele>
        <time>2018-08-11T18:34:58Z</time>
      </trkpt>
      <trkpt lat="4.5273220" lon="-74.2951270">
        <ele>2821.0</ele>
        <time>2018-08-11T18:35:00Z</time>
      </trkpt>
      <trkpt lat="4.5272930" lon="-74.2951220">
        <ele>2821.0</ele>
        <time>2018-08-11T18:35:01Z</time>
      </trkpt>
      <trkpt lat="4.5272650" lon="-74.2951150">
        <ele>2821.0</ele>
        <time>2018-08-11T18:35:02Z</time>
      </trkpt>
      <trkpt lat="4.5272220" lon="-74.2950870">
        <ele>2820.8</ele>
        <time>2018-08-11T18:35:04Z</time>
      </trkpt>
      <trkpt lat="4.5271930" lon="-74.2950670">
        <ele>2820.6</ele>
        <time>2018-08-11T18:35:05Z</time>
      </trkpt>
      <trkpt lat="4.5271620" lon="-74.2950500">
        <ele>2820.4</ele>
        <time>2018-08-11T18:35:06Z</time>
      </trkpt>
      <trkpt lat="4.5271320" lon="-74.2950280">
        <ele>2820.1</ele>
        <time>2018-08-11T18:35:07Z</time>
      </trkpt>
      <trkpt lat="4.5271070" lon="-74.2950100">
        <ele>2819.9</ele>
        <time>2018-08-11T18:35:08Z</time>
      </trkpt>
      <trkpt lat="4.5270820" lon="-74.2949930">
        <ele>2819.6</ele>
        <time>2018-08-11T18:35:09Z</time>
      </trkpt>
      <trkpt lat="4.5270570" lon="-74.2949750">
        <ele>2819.3</ele>
        <time>2018-08-11T18:35:10Z</time>
      </trkpt>
      <trkpt lat="4.5270330" lon="-74.2949580">
        <ele>2819.0</ele>
        <time>2018-08-11T18:35:11Z</time>
      </trkpt>
      <trkpt lat="4.5270080" lon="-74.2949400">
        <ele>2818.7</ele>
        <time>2018-08-11T18:35:12Z</time>
      </trkpt>
      <trkpt lat="4.5269800" lon="-74.2949200">
        <ele>2818.4</ele>
        <time>2018-08-11T18:35:13Z</time>
      </trkpt>
      <trkpt lat="4.5269520" lon="-74.2949000">
        <ele>2817.9</ele>
        <time>2018-08-11T18:35:14Z</time>
      </trkpt>
      <trkpt lat="4.5269300" lon="-74.2948750">
        <ele>2817.5</ele>
        <time>2018-08-11T18:35:15Z</time>
      </trkpt>
      <trkpt lat="4.5269030" lon="-74.2948520">
        <ele>2817.1</ele>
        <time>2018-08-11T18:35:16Z</time>
      </trkpt>
      <trkpt lat="4.5268820" lon="-74.2948270">
        <ele>2816.6</ele>
        <time>2018-08-11T18:35:17Z</time>
      </trkpt>
      <trkpt lat="4.5268620" lon="-74.2948000">
        <ele>2816.2</ele>
        <time>2018-08-11T18:35:18Z</time>
      </trkpt>
      <trkpt lat="4.5268430" lon="-74.2947720">
        <ele>2815.6</ele>
        <time>2018-08-11T18:35:19Z</time>
      </trkpt>
      <trkpt lat="4.5268280" lon="-74.2947430">
        <ele>2815.1</ele>
        <time>2018-08-11T18:35:20Z</time>
      </trkpt>
      <trkpt lat="4.5268150" lon="-74.2947100">
        <ele>2814.4</ele>
        <time>2018-08-11T18:35:21Z</time>
      </trkpt>
      <trkpt lat="4.5268020" lon="-74.2946730">
        <ele>2813.7</ele>
        <time>2018-08-11T18:35:22Z</time>
      </trkpt>
      <trkpt lat="4.5267880" lon="-74.2946380">
        <ele>2813.0</ele>
        <time>2018-08-11T18:35:23Z</time>
      </trkpt>
      <trkpt lat="4.5267730" lon="-74.2946070">
        <ele>2812.4</ele>
        <time>2018-08-11T18:35:24Z</time>
      </trkpt>
      <trkpt lat="4.5267550" lon="-74.2945720">
        <ele>2811.6</ele>
        <time>2018-08-11T18:35:25Z</time>
      </trkpt>
      <trkpt lat="4.5267350" lon="-74.2945370">
        <ele>2810.8</ele>
        <time>2018-08-11T18:35:26Z</time>
      </trkpt>
      <trkpt lat="4.5267120" lon="-74.2945030">
        <ele>2809.9</ele>
        <time>2018-08-11T18:35:27Z</time>
      </trkpt>
      <trkpt lat="4.5266850" lon="-74.2944720">
        <ele>2809.0</ele>
        <time>2018-08-11T18:35:28Z</time>
      </trkpt>
      <trkpt lat="4.5266500" lon="-74.2944420">
        <ele>2807.9</ele>
        <time>2018-08-11T18:35:29Z</time>
      </trkpt>
      <trkpt lat="4.5266180" lon="-74.2944120">
        <ele>2806.9</ele>
        <time>2018-08-11T18:35:30Z</time>
      </trkpt>
      <trkpt lat="4.5265880" lon="-74.2943880">
        <ele>2806.2</ele>
        <time>2018-08-11T18:35:31Z</time>
      </trkpt>
      <trkpt lat="4.5265530" lon="-74.2943630">
        <ele>2805.3</ele>
        <time>2018-08-11T18:35:32Z</time>
      </trkpt>
      <trkpt lat="4.5265180" lon="-74.2943420">
        <ele>2804.5</ele>
        <time>2018-08-11T18:35:33Z</time>
      </trkpt>
      <trkpt lat="4.5264830" lon="-74.2943130">
        <ele>2803.7</ele>
        <time>2018-08-11T18:35:34Z</time>
      </trkpt>
      <trkpt lat="4.5264520" lon="-74.2942820">
        <ele>2802.8</ele>
        <time>2018-08-11T18:35:35Z</time>
      </trkpt>
      <trkpt lat="4.5264250" lon="-74.2942520">
        <ele>2802.1</ele>
        <time>2018-08-11T18:35:36Z</time>
      </trkpt>
      <trkpt lat="4.5263900" lon="-74.2942320">
        <ele>2801.4</ele>
        <time>2018-08-11T18:35:37Z</time>
      </trkpt>
      <trkpt lat="4.5263520" lon="-74.2942120">
        <ele>2800.6</ele>
        <time>2018-08-11T18:35:38Z</time>
      </trkpt>
      <trkpt lat="4.5263150" lon="-74.2941950">
        <ele>2799.8</ele>
        <time>2018-08-11T18:35:39Z</time>
      </trkpt>
      <trkpt lat="4.5262820" lon="-74.2941750">
        <ele>2799.1</ele>
        <time>2018-08-11T18:35:40Z</time>
      </trkpt>
      <trkpt lat="4.5262480" lon="-74.2941530">
        <ele>2798.3</ele>
        <time>2018-08-11T18:35:41Z</time>
      </trkpt>
      <trkpt lat="4.5262120" lon="-74.2941320">
        <ele>2797.4</ele>
        <time>2018-08-11T18:35:42Z</time>
      </trkpt>
      <trkpt lat="4.5261770" lon="-74.2941130">
        <ele>2796.5</ele>
        <time>2018-08-11T18:35:43Z</time>
      </trkpt>
      <trkpt lat="4.5261330" lon="-74.2940950">
        <ele>2795.4</ele>
        <time>2018-08-11T18:35:44Z</time>
      </trkpt>
      <trkpt lat="4.5260870" lon="-74.2940770">
        <ele>2794.1</ele>
        <time>2018-08-11T18:35:45Z</time>
      </trkpt>
      <trkpt lat="4.5260400" lon="-74.2940570">
        <ele>2792.7</ele>
        <time>2018-08-11T18:35:46Z</time>
      </trkpt>
      <trkpt lat="4.5259900" lon="-74.2940320">
        <ele>2791.2</ele>
        <time>2018-08-11T18:35:47Z</time>
      </trkpt>
      <trkpt lat="4.5259380" lon="-74.2940070">
        <ele>2789.8</ele>
        <time>2018-08-11T18:35:48Z</time>
      </trkpt>
      <trkpt lat="4.5258930" lon="-74.2939820">
        <ele>2788.8</ele>
        <time>2018-08-11T18:35:49Z</time>
      </trkpt>
      <trkpt lat="4.5258470" lon="-74.2939600">
        <ele>2787.8</ele>
        <time>2018-08-11T18:35:50Z</time>
      </trkpt>
      <trkpt lat="4.5258030" lon="-74.2939300">
        <ele>2786.9</ele>
        <time>2018-08-11T18:35:51Z</time>
      </trkpt>
      <trkpt lat="4.5257580" lon="-74.2939000">
        <ele>2786.1</ele>
        <time>2018-08-11T18:35:52Z</time>
      </trkpt>
      <trkpt lat="4.5257180" lon="-74.2938650">
        <ele>2785.3</ele>
        <time>2018-08-11T18:35:53Z</time>
      </trkpt>
      <trkpt lat="4.5256830" lon="-74.2938270">
        <ele>2784.6</ele>
        <time>2018-08-11T18:35:54Z</time>
      </trkpt>
      <trkpt lat="4.5256500" lon="-74.2937880">
        <ele>2784.0</ele>
        <time>2018-08-11T18:35:55Z</time>
      </trkpt>
      <trkpt lat="4.5256180" lon="-74.2937500">
        <ele>2783.4</ele>
        <time>2018-08-11T18:35:56Z</time>
      </trkpt>
      <trkpt lat="4.5255950" lon="-74.2937080">
        <ele>2782.8</ele>
        <time>2018-08-11T18:35:57Z</time>
      </trkpt>
      <trkpt lat="4.5255720" lon="-74.2936720">
        <ele>2782.3</ele>
        <time>2018-08-11T18:35:58Z</time>
      </trkpt>
      <trkpt lat="4.5255550" lon="-74.2936330">
        <ele>2781.9</ele>
        <time>2018-08-11T18:35:59Z</time>
      </trkpt>
      <trkpt lat="4.5255470" lon="-74.2935930">
        <ele>2781.5</ele>
        <time>2018-08-11T18:36:00Z</time>
      </trkpt>
      <trkpt lat="4.5255300" lon="-74.2935580">
        <ele>2781.1</ele>
        <time>2018-08-11T18:36:01Z</time>
      </trkpt>
      <trkpt lat="4.5255100" lon="-74.2935250">
        <ele>2780.7</ele>
        <time>2018-08-11T18:36:02Z</time>
      </trkpt>
      <trkpt lat="4.5255020" lon="-74.2934970">
        <ele>2780.6</ele>
        <time>2018-08-11T18:36:03Z</time>
      </trkpt>
      <trkpt lat="4.5254850" lon="-74.2934750">
        <ele>2780.4</ele>
        <time>2018-08-11T18:36:04Z</time>
      </trkpt>
      <trkpt lat="4.5254600" lon="-74.2934600">
        <ele>2780.2</ele>
        <time>2018-08-11T18:36:05Z</time>
      </trkpt>
      <trkpt lat="4.5254380" lon="-74.2934420">
        <ele>2780.0</ele>
        <time>2018-08-11T18:36:06Z</time>
      </trkpt>
      <trkpt lat="4.5254170" lon="-74.2934250">
        <ele>2779.8</ele>
        <time>2018-08-11T18:36:07Z</time>
      </trkpt>
      <trkpt lat="4.5253680" lon="-74.2934070">
        <ele>2779.4</ele>
        <time>2018-08-11T18:36:09Z</time>
      </trkpt>
      <trkpt lat="4.5253400" lon="-74.2933980">
        <ele>2779.2</ele>
        <time>2018-08-11T18:36:10Z</time>
      </trkpt>
      <trkpt lat="4.5253130" lon="-74.2933900">
        <ele>2779.0</ele>
        <time>2018-08-11T18:36:11Z</time>
      </trkpt>
      <trkpt lat="4.5252870" lon="-74.2933830">
        <ele>2778.8</ele>
        <time>2018-08-11T18:36:12Z</time>
      </trkpt>
      <trkpt lat="4.5252370" lon="-74.2933730">
        <ele>2778.4</ele>
        <time>2018-08-11T18:36:14Z</time>
      </trkpt>
      <trkpt lat="4.5251930" lon="-74.2933620">
        <ele>2778.2</ele>
        <time>2018-08-11T18:36:16Z</time>
      </trkpt>
      <trkpt lat="4.5251280" lon="-74.2933400">
        <ele>2778.1</ele>
        <time>2018-08-11T18:36:18Z</time>
      </trkpt>
      <trkpt lat="4.5250900" lon="-74.2933250">
        <ele>2778.0</ele>
        <time>2018-08-11T18:36:19Z</time>
      </trkpt>
      <trkpt lat="4.5250480" lon="-74.2933020">
        <ele>2777.9</ele>
        <time>2018-08-11T18:36:20Z</time>
      </trkpt>
      <trkpt lat="4.5250100" lon="-74.2932800">
        <ele>2777.8</ele>
        <time>2018-08-11T18:36:21Z</time>
      </trkpt>
      <trkpt lat="4.5249750" lon="-74.2932600">
        <ele>2777.7</ele>
        <time>2018-08-11T18:36:22Z</time>
      </trkpt>
      <trkpt lat="4.5249430" lon="-74.2932370">
        <ele>2777.6</ele>
        <time>2018-08-11T18:36:23Z</time>
      </trkpt>
      <trkpt lat="4.5249130" lon="-74.2932050">
        <ele>2777.4</ele>
        <time>2018-08-11T18:36:24Z</time>
      </trkpt>
      <trkpt lat="4.5248880" lon="-74.2931770">
        <ele>2777.3</ele>
        <time>2018-08-11T18:36:25Z</time>
      </trkpt>
      <trkpt lat="4.5248650" lon="-74.2931520">
        <ele>2777.1</ele>
        <time>2018-08-11T18:36:26Z</time>
      </trkpt>
      <trkpt lat="4.5248450" lon="-74.2931330">
        <ele>2777.0</ele>
        <time>2018-08-11T18:36:27Z</time>
      </trkpt>
      <trkpt lat="4.5248230" lon="-74.2931050">
        <ele>2776.8</ele>
        <time>2018-08-11T18:36:28Z</time>
      </trkpt>
      <trkpt lat="4.5248030" lon="-74.2930780">
        <ele>2776.6</ele>
        <time>2018-08-11T18:36:29Z</time>
      </trkpt>
      <trkpt lat="4.5247870" lon="-74.2930530">
        <ele>2776.5</ele>
        <time>2018-08-11T18:36:30Z</time>
      </trkpt>
      <trkpt lat="4.5247670" lon="-74.2930270">
        <ele>2776.3</ele>
        <time>2018-08-11T18:36:31Z</time>
      </trkpt>
      <trkpt lat="4.5247480" lon="-74.2930020">
        <ele>2776.2</ele>
        <time>2018-08-11T18:36:32Z</time>
      </trkpt>
      <trkpt lat="4.5247270" lon="-74.2929770">
        <ele>2776.1</ele>
        <time>2018-08-11T18:36:33Z</time>
      </trkpt>
      <trkpt lat="4.5246970" lon="-74.2929380">
        <ele>2775.9</ele>
        <time>2018-08-11T18:36:34Z</time>
      </trkpt>
      <trkpt lat="4.5246830" lon="-74.2929070">
        <ele>2775.8</ele>
        <time>2018-08-11T18:36:35Z</time>
      </trkpt>
      <trkpt lat="4.5246700" lon="-74.2928800">
        <ele>2775.7</ele>
        <time>2018-08-11T18:36:36Z</time>
      </trkpt>
      <trkpt lat="4.5246470" lon="-74.2928520">
        <ele>2775.7</ele>
        <time>2018-08-11T18:36:37Z</time>
      </trkpt>
      <trkpt lat="4.5246300" lon="-74.2928270">
        <ele>2775.6</ele>
        <time>2018-08-11T18:36:38Z</time>
      </trkpt>
      <trkpt lat="4.5246000" lon="-74.2927850">
        <ele>2775.5</ele>
        <time>2018-08-11T18:36:40Z</time>
      </trkpt>
      <trkpt lat="4.5245530" lon="-74.2927580">
        <ele>2775.4</ele>
        <time>2018-08-11T18:36:42Z</time>
      </trkpt>
      <trkpt lat="4.5245270" lon="-74.2927470">
        <ele>2775.4</ele>
        <time>2018-08-11T18:36:43Z</time>
      </trkpt>
      <trkpt lat="4.5244870" lon="-74.2927330">
        <ele>2775.2</ele>
        <time>2018-08-11T18:36:45Z</time>
      </trkpt>
      <trkpt lat="4.5244430" lon="-74.2927150">
        <ele>2775.0</ele>
        <time>2018-08-11T18:36:47Z</time>
      </trkpt>
      <trkpt lat="4.5244080" lon="-74.2927150">
        <ele>2774.7</ele>
        <time>2018-08-11T18:36:48Z</time>
      </trkpt>
      <trkpt lat="4.5243820" lon="-74.2926920">
        <ele>2774.3</ele>
        <time>2018-08-11T18:36:50Z</time>
      </trkpt>
      <trkpt lat="4.5243670" lon="-74.2926600">
        <ele>2774.0</ele>
        <time>2018-08-11T18:36:52Z</time>
      </trkpt>
      <trkpt lat="4.5243380" lon="-74.2926350">
        <ele>2773.6</ele>
        <time>2018-08-11T18:36:54Z</time>
      </trkpt>
      <trkpt lat="4.5242700" lon="-74.2926520">
        <ele>2773.0</ele>
        <time>2018-08-11T18:36:56Z</time>
      </trkpt>
      <trkpt lat="4.5242130" lon="-74.2926650">
        <ele>2772.6</ele>
        <time>2018-08-11T18:36:57Z</time>
      </trkpt>
      <trkpt lat="4.5241650" lon="-74.2926870">
        <ele>2772.2</ele>
        <time>2018-08-11T18:36:58Z</time>
      </trkpt>
      <trkpt lat="4.5241380" lon="-74.2926820">
        <ele>2772.0</ele>
        <time>2018-08-11T18:36:59Z</time>
      </trkpt>
      <trkpt lat="4.5240930" lon="-74.2926420">
        <ele>2771.6</ele>
        <time>2018-08-11T18:37:01Z</time>
      </trkpt>
      <trkpt lat="4.5240480" lon="-74.2926230">
        <ele>2771.3</ele>
        <time>2018-08-11T18:37:03Z</time>
      </trkpt>
      <trkpt lat="4.5240070" lon="-74.2926230">
        <ele>2771.0</ele>
        <time>2018-08-11T18:37:05Z</time>
      </trkpt>
      <trkpt lat="4.5239630" lon="-74.2926200">
        <ele>2770.8</ele>
        <time>2018-08-11T18:37:07Z</time>
      </trkpt>
      <trkpt lat="4.5238970" lon="-74.2926420">
        <ele>2770.3</ele>
        <time>2018-08-11T18:37:09Z</time>
      </trkpt>
      <trkpt lat="4.5238630" lon="-74.2926380">
        <ele>2770.1</ele>
        <time>2018-08-11T18:37:10Z</time>
      </trkpt>
      <trkpt lat="4.5238320" lon="-74.2926250">
        <ele>2769.9</ele>
        <time>2018-08-11T18:37:11Z</time>
      </trkpt>
      <trkpt lat="4.5238030" lon="-74.2926170">
        <ele>2769.7</ele>
        <time>2018-08-11T18:37:12Z</time>
      </trkpt>
      <trkpt lat="4.5237500" lon="-74.2926080">
        <ele>2769.4</ele>
        <time>2018-08-11T18:37:14Z</time>
      </trkpt>
      <trkpt lat="4.5237230" lon="-74.2926000">
        <ele>2769.3</ele>
        <time>2018-08-11T18:37:15Z</time>
      </trkpt>
      <trkpt lat="4.5236950" lon="-74.2925880">
        <ele>2769.2</ele>
        <time>2018-08-11T18:37:16Z</time>
      </trkpt>
      <trkpt lat="4.5236670" lon="-74.2925750">
        <ele>2769.1</ele>
        <time>2018-08-11T18:37:17Z</time>
      </trkpt>
      <trkpt lat="4.5236150" lon="-74.2925470">
        <ele>2769.1</ele>
        <time>2018-08-11T18:37:19Z</time>
      </trkpt>
      <trkpt lat="4.5235870" lon="-74.2925270">
        <ele>2769.1</ele>
        <time>2018-08-11T18:37:20Z</time>
      </trkpt>
      <trkpt lat="4.5235620" lon="-74.2925120">
        <ele>2769.0</ele>
        <time>2018-08-11T18:37:21Z</time>
      </trkpt>
      <trkpt lat="4.5235350" lon="-74.2925030">
        <ele>2769.0</ele>
        <time>2018-08-11T18:37:22Z</time>
      </trkpt>
      <trkpt lat="4.5234930" lon="-74.2925030">
        <ele>2769.0</ele>
        <time>2018-08-11T18:37:24Z</time>
      </trkpt>
      <trkpt lat="4.5234580" lon="-74.2925030">
        <ele>2769.0</ele>
        <time>2018-08-11T18:37:27Z</time>
      </trkpt>
      <trkpt lat="4.5234280" lon="-74.2925050">
        <ele>2769.0</ele>
        <time>2018-08-11T18:37:28Z</time>
      </trkpt>
      <trkpt lat="4.5233830" lon="-74.2924930">
        <ele>2768.9</ele>
        <time>2018-08-11T18:37:29Z</time>
      </trkpt>
      <trkpt lat="4.5233780" lon="-74.2924650">
        <ele>2769.0</ele>
        <time>2018-08-11T18:37:32Z</time>
      </trkpt>
      <trkpt lat="4.5233570" lon="-74.2924470">
        <ele>2769.0</ele>
        <time>2018-08-11T18:37:38Z</time>
      </trkpt>
      <trkpt lat="4.5233030" lon="-74.2924500">
        <ele>2769.1</ele>
        <time>2018-08-11T18:37:40Z</time>
      </trkpt>
      <trkpt lat="4.5232650" lon="-74.2924520">
        <ele>2769.1</ele>
        <time>2018-08-11T18:37:42Z</time>
      </trkpt>
      <trkpt lat="4.5232330" lon="-74.2924320">
        <ele>2769.3</ele>
        <time>2018-08-11T18:37:44Z</time>
      </trkpt>
      <trkpt lat="4.5232120" lon="-74.2924130">
        <ele>2769.4</ele>
        <time>2018-08-11T18:37:47Z</time>
      </trkpt>
      <trkpt lat="4.5231820" lon="-74.2924030">
        <ele>2769.5</ele>
        <time>2018-08-11T18:37:49Z</time>
      </trkpt>
      <trkpt lat="4.5231530" lon="-74.2923870">
        <ele>2769.6</ele>
        <time>2018-08-11T18:37:53Z</time>
      </trkpt>
      <trkpt lat="4.5231250" lon="-74.2923600">
        <ele>2769.8</ele>
        <time>2018-08-11T18:37:57Z</time>
      </trkpt>
      <trkpt lat="4.5230800" lon="-74.2923550">
        <ele>2770.3</ele>
        <time>2018-08-11T18:38:00Z</time>
      </trkpt>
      <trkpt lat="4.5230400" lon="-74.2923480">
        <ele>2770.8</ele>
        <time>2018-08-11T18:38:03Z</time>
      </trkpt>
      <trkpt lat="4.5230080" lon="-74.2923400">
        <ele>2771.2</ele>
        <time>2018-08-11T18:38:05Z</time>
      </trkpt>
      <trkpt lat="4.5229770" lon="-74.2923370">
        <ele>2771.6</ele>
        <time>2018-08-11T18:38:07Z</time>
      </trkpt>
      <trkpt lat="4.5229400" lon="-74.2923300">
        <ele>2772.1</ele>
        <time>2018-08-11T18:38:09Z</time>
      </trkpt>
      <trkpt lat="4.5228950" lon="-74.2923270">
        <ele>2772.7</ele>
        <time>2018-08-11T18:38:12Z</time>
      </trkpt>
      <trkpt lat="4.5228480" lon="-74.2923250">
        <ele>2773.1</ele>
        <time>2018-08-11T18:38:14Z</time>
      </trkpt>
      <trkpt lat="4.5228220" lon="-74.2923200">
        <ele>2773.2</ele>
        <time>2018-08-11T18:38:15Z</time>
      </trkpt>
      <trkpt lat="4.5227780" lon="-74.2923080">
        <ele>2773.5</ele>
        <time>2018-08-11T18:38:17Z</time>
      </trkpt>
      <trkpt lat="4.5227400" lon="-74.2922900">
        <ele>2773.9</ele>
        <time>2018-08-11T18:38:19Z</time>
      </trkpt>
      <trkpt lat="4.5226830" lon="-74.2922700">
        <ele>2774.4</ele>
        <time>2018-08-11T18:38:21Z</time>
      </trkpt>
      <trkpt lat="4.5226480" lon="-74.2922650">
        <ele>2774.6</ele>
        <time>2018-08-11T18:38:22Z</time>
      </trkpt>
      <trkpt lat="4.5226220" lon="-74.2922570">
        <ele>2774.6</ele>
        <time>2018-08-11T18:38:23Z</time>
      </trkpt>
      <trkpt lat="4.5225950" lon="-74.2922470">
        <ele>2774.7</ele>
        <time>2018-08-11T18:38:24Z</time>
      </trkpt>
      <trkpt lat="4.5225620" lon="-74.2922400">
        <ele>2774.7</ele>
        <time>2018-08-11T18:38:25Z</time>
      </trkpt>
      <trkpt lat="4.5225230" lon="-74.2922320">
        <ele>2774.8</ele>
        <time>2018-08-11T18:38:26Z</time>
      </trkpt>
      <trkpt lat="4.5224800" lon="-74.2922270">
        <ele>2774.8</ele>
        <time>2018-08-11T18:38:27Z</time>
      </trkpt>
      <trkpt lat="4.5224350" lon="-74.2922200">
        <ele>2774.9</ele>
        <time>2018-08-11T18:38:28Z</time>
      </trkpt>
      <trkpt lat="4.5223870" lon="-74.2922130">
        <ele>2774.9</ele>
        <time>2018-08-11T18:38:29Z</time>
      </trkpt>
      <trkpt lat="4.5223350" lon="-74.2922070">
        <ele>2774.9</ele>
        <time>2018-08-11T18:38:30Z</time>
      </trkpt>
      <trkpt lat="4.5222830" lon="-74.2921970">
        <ele>2774.9</ele>
        <time>2018-08-11T18:38:31Z</time>
      </trkpt>
      <trkpt lat="4.5222350" lon="-74.2921870">
        <ele>2774.9</ele>
        <time>2018-08-11T18:38:32Z</time>
      </trkpt>
      <trkpt lat="4.5221850" lon="-74.2921750">
        <ele>2774.9</ele>
        <time>2018-08-11T18:38:33Z</time>
      </trkpt>
      <trkpt lat="4.5221380" lon="-74.2921700">
        <ele>2774.9</ele>
        <time>2018-08-11T18:38:34Z</time>
      </trkpt>
      <trkpt lat="4.5220920" lon="-74.2921650">
        <ele>2774.9</ele>
        <time>2018-08-11T18:38:35Z</time>
      </trkpt>
      <trkpt lat="4.5220500" lon="-74.2921600">
        <ele>2774.9</ele>
        <time>2018-08-11T18:38:36Z</time>
      </trkpt>
      <trkpt lat="4.5220130" lon="-74.2921480">
        <ele>2774.9</ele>
        <time>2018-08-11T18:38:37Z</time>
      </trkpt>
      <trkpt lat="4.5219780" lon="-74.2921380">
        <ele>2774.9</ele>
        <time>2018-08-11T18:38:38Z</time>
      </trkpt>
      <trkpt lat="4.5219470" lon="-74.2921270">
        <ele>2774.9</ele>
        <time>2018-08-11T18:38:39Z</time>
      </trkpt>
      <trkpt lat="4.5219170" lon="-74.2921180">
        <ele>2774.9</ele>
        <time>2018-08-11T18:38:40Z</time>
      </trkpt>
      <trkpt lat="4.5218870" lon="-74.2921070">
        <ele>2774.9</ele>
        <time>2018-08-11T18:38:41Z</time>
      </trkpt>
      <trkpt lat="4.5218400" lon="-74.2920850">
        <ele>2774.8</ele>
        <time>2018-08-11T18:38:43Z</time>
      </trkpt>
      <trkpt lat="4.5218100" lon="-74.2920770">
        <ele>2774.8</ele>
        <time>2018-08-11T18:38:44Z</time>
      </trkpt>
      <trkpt lat="4.5217530" lon="-74.2920720">
        <ele>2774.8</ele>
        <time>2018-08-11T18:38:46Z</time>
      </trkpt>
      <trkpt lat="4.5217170" lon="-74.2920650">
        <ele>2774.7</ele>
        <time>2018-08-11T18:38:47Z</time>
      </trkpt>
      <trkpt lat="4.5216730" lon="-74.2920620">
        <ele>2774.7</ele>
        <time>2018-08-11T18:38:48Z</time>
      </trkpt>
      <trkpt lat="4.5216250" lon="-74.2920570">
        <ele>2774.6</ele>
        <time>2018-08-11T18:38:49Z</time>
      </trkpt>
      <trkpt lat="4.5215770" lon="-74.2920450">
        <ele>2774.5</ele>
        <time>2018-08-11T18:38:50Z</time>
      </trkpt>
      <trkpt lat="4.5215220" lon="-74.2920330">
        <ele>2774.3</ele>
        <time>2018-08-11T18:38:51Z</time>
      </trkpt>
      <trkpt lat="4.5214680" lon="-74.2920250">
        <ele>2774.0</ele>
        <time>2018-08-11T18:38:52Z</time>
      </trkpt>
      <trkpt lat="4.5214180" lon="-74.2920200">
        <ele>2773.8</ele>
        <time>2018-08-11T18:38:53Z</time>
      </trkpt>
      <trkpt lat="4.5213700" lon="-74.2920130">
        <ele>2773.6</ele>
        <time>2018-08-11T18:38:54Z</time>
      </trkpt>
      <trkpt lat="4.5213270" lon="-74.2920030">
        <ele>2773.4</ele>
        <time>2018-08-11T18:38:55Z</time>
      </trkpt>
      <trkpt lat="4.5212930" lon="-74.2919880">
        <ele>2773.3</ele>
        <time>2018-08-11T18:38:56Z</time>
      </trkpt>
      <trkpt lat="4.5212620" lon="-74.2919780">
        <ele>2773.2</ele>
        <time>2018-08-11T18:38:57Z</time>
      </trkpt>
      <trkpt lat="4.5212300" lon="-74.2919750">
        <ele>2773.1</ele>
        <time>2018-08-11T18:38:58Z</time>
      </trkpt>
      <trkpt lat="4.5211980" lon="-74.2919720">
        <ele>2773.1</ele>
        <time>2018-08-11T18:38:59Z</time>
      </trkpt>
      <trkpt lat="4.5211630" lon="-74.2919650">
        <ele>2773.1</ele>
        <time>2018-08-11T18:39:00Z</time>
      </trkpt>
      <trkpt lat="4.5211330" lon="-74.2919580">
        <ele>2773.0</ele>
        <time>2018-08-11T18:39:01Z</time>
      </trkpt>
      <trkpt lat="4.5211050" lon="-74.2919570">
        <ele>2773.0</ele>
        <time>2018-08-11T18:39:02Z</time>
      </trkpt>
      <trkpt lat="4.5210750" lon="-74.2919550">
        <ele>2773.0</ele>
        <time>2018-08-11T18:39:03Z</time>
      </trkpt>
      <trkpt lat="4.5210470" lon="-74.2919470">
        <ele>2773.0</ele>
        <time>2018-08-11T18:39:04Z</time>
      </trkpt>
      <trkpt lat="4.5210200" lon="-74.2919370">
        <ele>2773.0</ele>
        <time>2018-08-11T18:39:05Z</time>
      </trkpt>
      <trkpt lat="4.5209900" lon="-74.2919300">
        <ele>2773.0</ele>
        <time>2018-08-11T18:39:06Z</time>
      </trkpt>
      <trkpt lat="4.5209520" lon="-74.2919270">
        <ele>2772.9</ele>
        <time>2018-08-11T18:39:07Z</time>
      </trkpt>
      <trkpt lat="4.5209130" lon="-74.2919170">
        <ele>2772.9</ele>
        <time>2018-08-11T18:39:08Z</time>
      </trkpt>
      <trkpt lat="4.5208730" lon="-74.2919080">
        <ele>2772.9</ele>
        <time>2018-08-11T18:39:09Z</time>
      </trkpt>
      <trkpt lat="4.5208330" lon="-74.2919030">
        <ele>2772.9</ele>
        <time>2018-08-11T18:39:10Z</time>
      </trkpt>
      <trkpt lat="4.5207950" lon="-74.2918970">
        <ele>2772.9</ele>
        <time>2018-08-11T18:39:11Z</time>
      </trkpt>
      <trkpt lat="4.5207620" lon="-74.2918880">
        <ele>2772.8</ele>
        <time>2018-08-11T18:39:12Z</time>
      </trkpt>
      <trkpt lat="4.5207170" lon="-74.2918820">
        <ele>2772.8</ele>
        <time>2018-08-11T18:39:13Z</time>
      </trkpt>
      <trkpt lat="4.5206770" lon="-74.2918750">
        <ele>2772.7</ele>
        <time>2018-08-11T18:39:14Z</time>
      </trkpt>
      <trkpt lat="4.5206430" lon="-74.2918650">
        <ele>2772.7</ele>
        <time>2018-08-11T18:39:15Z</time>
      </trkpt>
      <trkpt lat="4.5206120" lon="-74.2918600">
        <ele>2772.7</ele>
        <time>2018-08-11T18:39:16Z</time>
      </trkpt>
      <trkpt lat="4.5205830" lon="-74.2918550">
        <ele>2772.7</ele>
        <time>2018-08-11T18:39:17Z</time>
      </trkpt>
      <trkpt lat="4.5205550" lon="-74.2918520">
        <ele>2772.6</ele>
        <time>2018-08-11T18:39:18Z</time>
      </trkpt>
      <trkpt lat="4.5205250" lon="-74.2918500">
        <ele>2772.6</ele>
        <time>2018-08-11T18:39:19Z</time>
      </trkpt>
      <trkpt lat="4.5204980" lon="-74.2918430">
        <ele>2772.6</ele>
        <time>2018-08-11T18:39:20Z</time>
      </trkpt>
      <trkpt lat="4.5204500" lon="-74.2918350">
        <ele>2772.6</ele>
        <time>2018-08-11T18:39:22Z</time>
      </trkpt>
      <trkpt lat="4.5204070" lon="-74.2918300">
        <ele>2772.5</ele>
        <time>2018-08-11T18:39:24Z</time>
      </trkpt>
      <trkpt lat="4.5203570" lon="-74.2918170">
        <ele>2772.3</ele>
        <time>2018-08-11T18:39:26Z</time>
      </trkpt>
      <trkpt lat="4.5203120" lon="-74.2918080">
        <ele>2772.1</ele>
        <time>2018-08-11T18:39:28Z</time>
      </trkpt>
      <trkpt lat="4.5202670" lon="-74.2918100">
        <ele>2771.9</ele>
        <time>2018-08-11T18:39:30Z</time>
      </trkpt>
      <trkpt lat="4.5202180" lon="-74.2917930">
        <ele>2771.7</ele>
        <time>2018-08-11T18:39:32Z</time>
      </trkpt>
      <trkpt lat="4.5201680" lon="-74.2917920">
        <ele>2771.4</ele>
        <time>2018-08-11T18:39:34Z</time>
      </trkpt>
      <trkpt lat="4.5201130" lon="-74.2917830">
        <ele>2771.2</ele>
        <time>2018-08-11T18:39:36Z</time>
      </trkpt>
      <trkpt lat="4.5200830" lon="-74.2917680">
        <ele>2771.0</ele>
        <time>2018-08-11T18:39:37Z</time>
      </trkpt>
      <trkpt lat="4.5200500" lon="-74.2917580">
        <ele>2770.9</ele>
        <time>2018-08-11T18:39:38Z</time>
      </trkpt>
      <trkpt lat="4.5200200" lon="-74.2917530">
        <ele>2770.7</ele>
        <time>2018-08-11T18:39:39Z</time>
      </trkpt>
      <trkpt lat="4.5199800" lon="-74.2917500">
        <ele>2770.5</ele>
        <time>2018-08-11T18:39:41Z</time>
      </trkpt>
      <trkpt lat="4.5199230" lon="-74.2917220">
        <ele>2770.2</ele>
        <time>2018-08-11T18:39:43Z</time>
      </trkpt>
      <trkpt lat="4.5198620" lon="-74.2916970">
        <ele>2769.8</ele>
        <time>2018-08-11T18:39:44Z</time>
      </trkpt>
      <trkpt lat="4.5198230" lon="-74.2916770">
        <ele>2769.6</ele>
        <time>2018-08-11T18:39:45Z</time>
      </trkpt>
      <trkpt lat="4.5197900" lon="-74.2916650">
        <ele>2769.4</ele>
        <time>2018-08-11T18:39:46Z</time>
      </trkpt>
      <trkpt lat="4.5197580" lon="-74.2916550">
        <ele>2769.2</ele>
        <time>2018-08-11T18:39:47Z</time>
      </trkpt>
      <trkpt lat="4.5197220" lon="-74.2916470">
        <ele>2769.0</ele>
        <time>2018-08-11T18:39:48Z</time>
      </trkpt>
      <trkpt lat="4.5196850" lon="-74.2916400">
        <ele>2768.7</ele>
        <time>2018-08-11T18:39:49Z</time>
      </trkpt>
      <trkpt lat="4.5196470" lon="-74.2916380">
        <ele>2768.5</ele>
        <time>2018-08-11T18:39:50Z</time>
      </trkpt>
      <trkpt lat="4.5196000" lon="-74.2916320">
        <ele>2768.2</ele>
        <time>2018-08-11T18:39:51Z</time>
      </trkpt>
      <trkpt lat="4.5195530" lon="-74.2916270">
        <ele>2767.8</ele>
        <time>2018-08-11T18:39:52Z</time>
      </trkpt>
      <trkpt lat="4.5195120" lon="-74.2916150">
        <ele>2767.5</ele>
        <time>2018-08-11T18:39:53Z</time>
      </trkpt>
      <trkpt lat="4.5194720" lon="-74.2916050">
        <ele>2767.2</ele>
        <time>2018-08-11T18:39:54Z</time>
      </trkpt>
      <trkpt lat="4.5194400" lon="-74.2915830">
        <ele>2766.8</ele>
        <time>2018-08-11T18:39:55Z</time>
      </trkpt>
      <trkpt lat="4.5193820" lon="-74.2915670">
        <ele>2766.3</ele>
        <time>2018-08-11T18:39:57Z</time>
      </trkpt>
      <trkpt lat="4.5193550" lon="-74.2915730">
        <ele>2766.1</ele>
        <time>2018-08-11T18:39:58Z</time>
      </trkpt>
      <trkpt lat="4.5193250" lon="-74.2915730">
        <ele>2765.8</ele>
        <time>2018-08-11T18:39:59Z</time>
      </trkpt>
      <trkpt lat="4.5192620" lon="-74.2915770">
        <ele>2765.2</ele>
        <time>2018-08-11T18:40:00Z</time>
      </trkpt>
      <trkpt lat="4.5192020" lon="-74.2915720">
        <ele>2764.5</ele>
        <time>2018-08-11T18:40:01Z</time>
      </trkpt>
      <trkpt lat="4.5191420" lon="-74.2915500">
        <ele>2763.8</ele>
        <time>2018-08-11T18:40:02Z</time>
      </trkpt>
      <trkpt lat="4.5190830" lon="-74.2915320">
        <ele>2763.1</ele>
        <time>2018-08-11T18:40:03Z</time>
      </trkpt>
      <trkpt lat="4.5190280" lon="-74.2915130">
        <ele>2762.5</ele>
        <time>2018-08-11T18:40:04Z</time>
      </trkpt>
      <trkpt lat="4.5189700" lon="-74.2914970">
        <ele>2761.9</ele>
        <time>2018-08-11T18:40:05Z</time>
      </trkpt>
      <trkpt lat="4.5189150" lon="-74.2914830">
        <ele>2761.3</ele>
        <time>2018-08-11T18:40:06Z</time>
      </trkpt>
      <trkpt lat="4.5188600" lon="-74.2914720">
        <ele>2760.7</ele>
        <time>2018-08-11T18:40:07Z</time>
      </trkpt>
      <trkpt lat="4.5188070" lon="-74.2914600">
        <ele>2760.2</ele>
        <time>2018-08-11T18:40:08Z</time>
      </trkpt>
      <trkpt lat="4.5187570" lon="-74.2914470">
        <ele>2759.8</ele>
        <time>2018-08-11T18:40:09Z</time>
      </trkpt>
      <trkpt lat="4.5187050" lon="-74.2914270">
        <ele>2759.3</ele>
        <time>2018-08-11T18:40:10Z</time>
      </trkpt>
      <trkpt lat="4.5186550" lon="-74.2914120">
        <ele>2758.8</ele>
        <time>2018-08-11T18:40:11Z</time>
      </trkpt>
      <trkpt lat="4.5186050" lon="-74.2913980">
        <ele>2758.4</ele>
        <time>2018-08-11T18:40:12Z</time>
      </trkpt>
      <trkpt lat="4.5185580" lon="-74.2913820">
        <ele>2758.0</ele>
        <time>2018-08-11T18:40:13Z</time>
      </trkpt>
      <trkpt lat="4.5185150" lon="-74.2913670">
        <ele>2757.7</ele>
        <time>2018-08-11T18:40:14Z</time>
      </trkpt>
      <trkpt lat="4.5184730" lon="-74.2913520">
        <ele>2757.3</ele>
        <time>2018-08-11T18:40:15Z</time>
      </trkpt>
      <trkpt lat="4.5184330" lon="-74.2913380">
        <ele>2757.0</ele>
        <time>2018-08-11T18:40:16Z</time>
      </trkpt>
      <trkpt lat="4.5183930" lon="-74.2913250">
        <ele>2756.7</ele>
        <time>2018-08-11T18:40:17Z</time>
      </trkpt>
      <trkpt lat="4.5183550" lon="-74.2913170">
        <ele>2756.4</ele>
        <time>2018-08-11T18:40:18Z</time>
      </trkpt>
      <trkpt lat="4.5183170" lon="-74.2913120">
        <ele>2756.2</ele>
        <time>2018-08-11T18:40:19Z</time>
      </trkpt>
      <trkpt lat="4.5182800" lon="-74.2913100">
        <ele>2755.9</ele>
        <time>2018-08-11T18:40:20Z</time>
      </trkpt>
      <trkpt lat="4.5182480" lon="-74.2913050">
        <ele>2755.8</ele>
        <time>2018-08-11T18:40:21Z</time>
      </trkpt>
      <trkpt lat="4.5182020" lon="-74.2912930">
        <ele>2755.5</ele>
        <time>2018-08-11T18:40:23Z</time>
      </trkpt>
      <trkpt lat="4.5181500" lon="-74.2912820">
        <ele>2755.3</ele>
        <time>2018-08-11T18:40:25Z</time>
      </trkpt>
      <trkpt lat="4.5181020" lon="-74.2912680">
        <ele>2755.1</ele>
        <time>2018-08-11T18:40:27Z</time>
      </trkpt>
      <trkpt lat="4.5180570" lon="-74.2912530">
        <ele>2755.0</ele>
        <time>2018-08-11T18:40:29Z</time>
      </trkpt>
      <trkpt lat="4.5180120" lon="-74.2912420">
        <ele>2754.9</ele>
        <time>2018-08-11T18:40:31Z</time>
      </trkpt>
      <trkpt lat="4.5179770" lon="-74.2912300">
        <ele>2754.8</ele>
        <time>2018-08-11T18:40:33Z</time>
      </trkpt>
      <trkpt lat="4.5179300" lon="-74.2912220">
        <ele>2754.7</ele>
        <time>2018-08-11T18:40:35Z</time>
      </trkpt>
      <trkpt lat="4.5178820" lon="-74.2912050">
        <ele>2754.6</ele>
        <time>2018-08-11T18:40:37Z</time>
      </trkpt>
      <trkpt lat="4.5178320" lon="-74.2911920">
        <ele>2754.5</ele>
        <time>2018-08-11T18:40:39Z</time>
      </trkpt>
      <trkpt lat="4.5178000" lon="-74.2911830">
        <ele>2754.5</ele>
        <time>2018-08-11T18:40:40Z</time>
      </trkpt>
      <trkpt lat="4.5177750" lon="-74.2911700">
        <ele>2754.4</ele>
        <time>2018-08-11T18:40:41Z</time>
      </trkpt>
      <trkpt lat="4.5177450" lon="-74.2911600">
        <ele>2754.4</ele>
        <time>2018-08-11T18:40:42Z</time>
      </trkpt>
      <trkpt lat="4.5177020" lon="-74.2911450">
        <ele>2754.3</ele>
        <time>2018-08-11T18:40:44Z</time>
      </trkpt>
      <trkpt lat="4.5176530" lon="-74.2911300">
        <ele>2754.2</ele>
        <time>2018-08-11T18:40:46Z</time>
      </trkpt>
      <trkpt lat="4.5176230" lon="-74.2911220">
        <ele>2754.1</ele>
        <time>2018-08-11T18:40:47Z</time>
      </trkpt>
      <trkpt lat="4.5175700" lon="-74.2910980">
        <ele>2754.0</ele>
        <time>2018-08-11T18:40:49Z</time>
      </trkpt>
      <trkpt lat="4.5175330" lon="-74.2910780">
        <ele>2754.0</ele>
        <time>2018-08-11T18:40:50Z</time>
      </trkpt>
      <trkpt lat="4.5174980" lon="-74.2910600">
        <ele>2753.9</ele>
        <time>2018-08-11T18:40:51Z</time>
      </trkpt>
      <trkpt lat="4.5174650" lon="-74.2910450">
        <ele>2753.8</ele>
        <time>2018-08-11T18:40:52Z</time>
      </trkpt>
      <trkpt lat="4.5174280" lon="-74.2910350">
        <ele>2753.7</ele>
        <time>2018-08-11T18:40:53Z</time>
      </trkpt>
      <trkpt lat="4.5173970" lon="-74.2910220">
        <ele>2753.5</ele>
        <time>2018-08-11T18:40:54Z</time>
      </trkpt>
      <trkpt lat="4.5173650" lon="-74.2910100">
        <ele>2753.4</ele>
        <time>2018-08-11T18:40:55Z</time>
      </trkpt>
      <trkpt lat="4.5173300" lon="-74.2909970">
        <ele>2753.1</ele>
        <time>2018-08-11T18:40:56Z</time>
      </trkpt>
      <trkpt lat="4.5172950" lon="-74.2909750">
        <ele>2752.9</ele>
        <time>2018-08-11T18:40:57Z</time>
      </trkpt>
      <trkpt lat="4.5172650" lon="-74.2909670">
        <ele>2752.7</ele>
        <time>2018-08-11T18:40:58Z</time>
      </trkpt>
      <trkpt lat="4.5172330" lon="-74.2909580">
        <ele>2752.4</ele>
        <time>2018-08-11T18:40:59Z</time>
      </trkpt>
      <trkpt lat="4.5172020" lon="-74.2909530">
        <ele>2752.2</ele>
        <time>2018-08-11T18:41:00Z</time>
      </trkpt>
      <trkpt lat="4.5171630" lon="-74.2909350">
        <ele>2751.9</ele>
        <time>2018-08-11T18:41:01Z</time>
      </trkpt>
      <trkpt lat="4.5171270" lon="-74.2909180">
        <ele>2751.5</ele>
        <time>2018-08-11T18:41:02Z</time>
      </trkpt>
      <trkpt lat="4.5170880" lon="-74.2909020">
        <ele>2751.2</ele>
        <time>2018-08-11T18:41:03Z</time>
      </trkpt>
      <trkpt lat="4.5170420" lon="-74.2908820">
        <ele>2750.8</ele>
        <time>2018-08-11T18:41:04Z</time>
      </trkpt>
      <trkpt lat="4.5169970" lon="-74.2908620">
        <ele>2750.4</ele>
        <time>2018-08-11T18:41:05Z</time>
      </trkpt>
      <trkpt lat="4.5169470" lon="-74.2908450">
        <ele>2750.0</ele>
        <time>2018-08-11T18:41:06Z</time>
      </trkpt>
      <trkpt lat="4.5169020" lon="-74.2908270">
        <ele>2749.7</ele>
        <time>2018-08-11T18:41:07Z</time>
      </trkpt>
      <trkpt lat="4.5168550" lon="-74.2908100">
        <ele>2749.3</ele>
        <time>2018-08-11T18:41:08Z</time>
      </trkpt>
      <trkpt lat="4.5168080" lon="-74.2907930">
        <ele>2749.0</ele>
        <time>2018-08-11T18:41:09Z</time>
      </trkpt>
      <trkpt lat="4.5167650" lon="-74.2907750">
        <ele>2748.7</ele>
        <time>2018-08-11T18:41:10Z</time>
      </trkpt>
      <trkpt lat="4.5167220" lon="-74.2907600">
        <ele>2748.4</ele>
        <time>2018-08-11T18:41:11Z</time>
      </trkpt>
      <trkpt lat="4.5166730" lon="-74.2907450">
        <ele>2748.1</ele>
        <time>2018-08-11T18:41:12Z</time>
      </trkpt>
      <trkpt lat="4.5166280" lon="-74.2907300">
        <ele>2747.8</ele>
        <time>2018-08-11T18:41:13Z</time>
      </trkpt>
      <trkpt lat="4.5165870" lon="-74.2907150">
        <ele>2747.5</ele>
        <time>2018-08-11T18:41:14Z</time>
      </trkpt>
      <trkpt lat="4.5165480" lon="-74.2907020">
        <ele>2747.3</ele>
        <time>2018-08-11T18:41:15Z</time>
      </trkpt>
      <trkpt lat="4.5165100" lon="-74.2906870">
        <ele>2747.1</ele>
        <time>2018-08-11T18:41:16Z</time>
      </trkpt>
      <trkpt lat="4.5164700" lon="-74.2906650">
        <ele>2746.9</ele>
        <time>2018-08-11T18:41:17Z</time>
      </trkpt>
      <trkpt lat="4.5164300" lon="-74.2906430">
        <ele>2746.7</ele>
        <time>2018-08-11T18:41:18Z</time>
      </trkpt>
      <trkpt lat="4.5163900" lon="-74.2906330">
        <ele>2746.5</ele>
        <time>2018-08-11T18:41:19Z</time>
      </trkpt>
      <trkpt lat="4.5163520" lon="-74.2906150">
        <ele>2746.3</ele>
        <time>2018-08-11T18:41:20Z</time>
      </trkpt>
      <trkpt lat="4.5163130" lon="-74.2906000">
        <ele>2746.1</ele>
        <time>2018-08-11T18:41:21Z</time>
      </trkpt>
      <trkpt lat="4.5162770" lon="-74.2905880">
        <ele>2746.0</ele>
        <time>2018-08-11T18:41:22Z</time>
      </trkpt>
      <trkpt lat="4.5162350" lon="-74.2905750">
        <ele>2745.8</ele>
        <time>2018-08-11T18:41:23Z</time>
      </trkpt>
      <trkpt lat="4.5161900" lon="-74.2905630">
        <ele>2745.6</ele>
        <time>2018-08-11T18:41:24Z</time>
      </trkpt>
      <trkpt lat="4.5161450" lon="-74.2905480">
        <ele>2745.4</ele>
        <time>2018-08-11T18:41:25Z</time>
      </trkpt>
      <trkpt lat="4.5160970" lon="-74.2905300">
        <ele>2745.2</ele>
        <time>2018-08-11T18:41:26Z</time>
      </trkpt>
      <trkpt lat="4.5160400" lon="-74.2905080">
        <ele>2744.9</ele>
        <time>2018-08-11T18:41:27Z</time>
      </trkpt>
      <trkpt lat="4.5159880" lon="-74.2904870">
        <ele>2744.6</ele>
        <time>2018-08-11T18:41:28Z</time>
      </trkpt>
      <trkpt lat="4.5159350" lon="-74.2904750">
        <ele>2744.3</ele>
        <time>2018-08-11T18:41:29Z</time>
      </trkpt>
      <trkpt lat="4.5158800" lon="-74.2904620">
        <ele>2744.1</ele>
        <time>2018-08-11T18:41:30Z</time>
      </trkpt>
      <trkpt lat="4.5158270" lon="-74.2904470">
        <ele>2743.8</ele>
        <time>2018-08-11T18:41:31Z</time>
      </trkpt>
      <trkpt lat="4.5157730" lon="-74.2904300">
        <ele>2743.5</ele>
        <time>2018-08-11T18:41:32Z</time>
      </trkpt>
      <trkpt lat="4.5157220" lon="-74.2904100">
        <ele>2743.2</ele>
        <time>2018-08-11T18:41:33Z</time>
      </trkpt>
      <trkpt lat="4.5156750" lon="-74.2903900">
        <ele>2743.0</ele>
        <time>2018-08-11T18:41:34Z</time>
      </trkpt>
      <trkpt lat="4.5156320" lon="-74.2903680">
        <ele>2742.7</ele>
        <time>2018-08-11T18:41:35Z</time>
      </trkpt>
      <trkpt lat="4.5155900" lon="-74.2903550">
        <ele>2742.5</ele>
        <time>2018-08-11T18:41:36Z</time>
      </trkpt>
      <trkpt lat="4.5155480" lon="-74.2903430">
        <ele>2742.3</ele>
        <time>2018-08-11T18:41:37Z</time>
      </trkpt>
      <trkpt lat="4.5155070" lon="-74.2903270">
        <ele>2742.1</ele>
        <time>2018-08-11T18:41:38Z</time>
      </trkpt>
      <trkpt lat="4.5154650" lon="-74.2903120">
        <ele>2741.9</ele>
        <time>2018-08-11T18:41:39Z</time>
      </trkpt>
      <trkpt lat="4.5154270" lon="-74.2902950">
        <ele>2741.8</ele>
        <time>2018-08-11T18:41:40Z</time>
      </trkpt>
      <trkpt lat="4.5153920" lon="-74.2902780">
        <ele>2741.6</ele>
        <time>2018-08-11T18:41:41Z</time>
      </trkpt>
      <trkpt lat="4.5153580" lon="-74.2902620">
        <ele>2741.5</ele>
        <time>2018-08-11T18:41:42Z</time>
      </trkpt>
      <trkpt lat="4.5153270" lon="-74.2902500">
        <ele>2741.3</ele>
        <time>2018-08-11T18:41:43Z</time>
      </trkpt>
      <trkpt lat="4.5152930" lon="-74.2902400">
        <ele>2741.2</ele>
        <time>2018-08-11T18:41:44Z</time>
      </trkpt>
      <trkpt lat="4.5152600" lon="-74.2902230">
        <ele>2741.0</ele>
        <time>2018-08-11T18:41:45Z</time>
      </trkpt>
      <trkpt lat="4.5152270" lon="-74.2902070">
        <ele>2740.9</ele>
        <time>2018-08-11T18:41:46Z</time>
      </trkpt>
      <trkpt lat="4.5151930" lon="-74.2901950">
        <ele>2740.7</ele>
        <time>2018-08-11T18:41:47Z</time>
      </trkpt>
      <trkpt lat="4.5151550" lon="-74.2901930">
        <ele>2740.6</ele>
        <time>2018-08-11T18:41:48Z</time>
      </trkpt>
      <trkpt lat="4.5151200" lon="-74.2901850">
        <ele>2740.4</ele>
        <time>2018-08-11T18:41:49Z</time>
      </trkpt>
      <trkpt lat="4.5150900" lon="-74.2901720">
        <ele>2740.3</ele>
        <time>2018-08-11T18:41:50Z</time>
      </trkpt>
      <trkpt lat="4.5150630" lon="-74.2901500">
        <ele>2740.2</ele>
        <time>2018-08-11T18:41:51Z</time>
      </trkpt>
      <trkpt lat="4.5150330" lon="-74.2901300">
        <ele>2740.0</ele>
        <time>2018-08-11T18:41:52Z</time>
      </trkpt>
      <trkpt lat="4.5150030" lon="-74.2901220">
        <ele>2739.9</ele>
        <time>2018-08-11T18:41:53Z</time>
      </trkpt>
      <trkpt lat="4.5149700" lon="-74.2901150">
        <ele>2739.9</ele>
        <time>2018-08-11T18:41:54Z</time>
      </trkpt>
      <trkpt lat="4.5149380" lon="-74.2901030">
        <ele>2739.8</ele>
        <time>2018-08-11T18:41:55Z</time>
      </trkpt>
      <trkpt lat="4.5149130" lon="-74.2900850">
        <ele>2739.8</ele>
        <time>2018-08-11T18:41:56Z</time>
      </trkpt>
      <trkpt lat="4.5148880" lon="-74.2900700">
        <ele>2739.7</ele>
        <time>2018-08-11T18:41:57Z</time>
      </trkpt>
      <trkpt lat="4.5148400" lon="-74.2900600">
        <ele>2739.7</ele>
        <time>2018-08-11T18:41:59Z</time>
      </trkpt>
      <trkpt lat="4.5148000" lon="-74.2900380">
        <ele>2739.6</ele>
        <time>2018-08-11T18:42:01Z</time>
      </trkpt>
      <trkpt lat="4.5147700" lon="-74.2900050">
        <ele>2739.5</ele>
        <time>2018-08-11T18:42:03Z</time>
      </trkpt>
      <trkpt lat="4.5147350" lon="-74.2899670">
        <ele>2739.4</ele>
        <time>2018-08-11T18:42:05Z</time>
      </trkpt>
      <trkpt lat="4.5147180" lon="-74.2899420">
        <ele>2739.3</ele>
        <time>2018-08-11T18:42:06Z</time>
      </trkpt>
      <trkpt lat="4.5146920" lon="-74.2899150">
        <ele>2739.2</ele>
        <time>2018-08-11T18:42:07Z</time>
      </trkpt>
      <trkpt lat="4.5146680" lon="-74.2898830">
        <ele>2739.1</ele>
        <time>2018-08-11T18:42:08Z</time>
      </trkpt>
      <trkpt lat="4.5146450" lon="-74.2898620">
        <ele>2739.1</ele>
        <time>2018-08-11T18:42:09Z</time>
      </trkpt>
      <trkpt lat="4.5146170" lon="-74.2898400">
        <ele>2739.0</ele>
        <time>2018-08-11T18:42:10Z</time>
      </trkpt>
      <trkpt lat="4.5145870" lon="-74.2898170">
        <ele>2738.9</ele>
        <time>2018-08-11T18:42:11Z</time>
      </trkpt>
      <trkpt lat="4.5145580" lon="-74.2897900">
        <ele>2738.7</ele>
        <time>2018-08-11T18:42:12Z</time>
      </trkpt>
      <trkpt lat="4.5145280" lon="-74.2897600">
        <ele>2738.5</ele>
        <time>2018-08-11T18:42:13Z</time>
      </trkpt>
      <trkpt lat="4.5144980" lon="-74.2897280">
        <ele>2738.2</ele>
        <time>2018-08-11T18:42:14Z</time>
      </trkpt>
      <trkpt lat="4.5144750" lon="-74.2896970">
        <ele>2738.0</ele>
        <time>2018-08-11T18:42:15Z</time>
      </trkpt>
      <trkpt lat="4.5144520" lon="-74.2896670">
        <ele>2737.7</ele>
        <time>2018-08-11T18:42:16Z</time>
      </trkpt>
      <trkpt lat="4.5144270" lon="-74.2896420">
        <ele>2737.4</ele>
        <time>2018-08-11T18:42:17Z</time>
      </trkpt>
      <trkpt lat="4.5143950" lon="-74.2896130">
        <ele>2737.0</ele>
        <time>2018-08-11T18:42:18Z</time>
      </trkpt>
      <trkpt lat="4.5143650" lon="-74.2895800">
        <ele>2736.6</ele>
        <time>2018-08-11T18:42:19Z</time>
      </trkpt>
      <trkpt lat="4.5143370" lon="-74.2895520">
        <ele>2736.2</ele>
        <time>2018-08-11T18:42:20Z</time>
      </trkpt>
      <trkpt lat="4.5143100" lon="-74.2895280">
        <ele>2735.9</ele>
        <time>2018-08-11T18:42:21Z</time>
      </trkpt>
      <trkpt lat="4.5142830" lon="-74.2894980">
        <ele>2735.5</ele>
        <time>2018-08-11T18:42:22Z</time>
      </trkpt>
      <trkpt lat="4.5142600" lon="-74.2894730">
        <ele>2735.2</ele>
        <time>2018-08-11T18:42:23Z</time>
      </trkpt>
      <trkpt lat="4.5142400" lon="-74.2894500">
        <ele>2734.8</ele>
        <time>2018-08-11T18:42:24Z</time>
      </trkpt>
      <trkpt lat="4.5142070" lon="-74.2894230">
        <ele>2734.4</ele>
        <time>2018-08-11T18:42:26Z</time>
      </trkpt>
      <trkpt lat="4.5141650" lon="-74.2894000">
        <ele>2733.8</ele>
        <time>2018-08-11T18:42:28Z</time>
      </trkpt>
      <trkpt lat="4.5141370" lon="-74.2893830">
        <ele>2733.4</ele>
        <time>2018-08-11T18:42:29Z</time>
      </trkpt>
      <trkpt lat="4.5141130" lon="-74.2893680">
        <ele>2733.0</ele>
        <time>2018-08-11T18:42:30Z</time>
      </trkpt>
      <trkpt lat="4.5140920" lon="-74.2893520">
        <ele>2732.7</ele>
        <time>2018-08-11T18:42:31Z</time>
      </trkpt>
      <trkpt lat="4.5140700" lon="-74.2893350">
        <ele>2732.3</ele>
        <time>2018-08-11T18:42:32Z</time>
      </trkpt>
      <trkpt lat="4.5140330" lon="-74.2893050">
        <ele>2731.6</ele>
        <time>2018-08-11T18:42:34Z</time>
      </trkpt>
      <trkpt lat="4.5140120" lon="-74.2892870">
        <ele>2731.2</ele>
        <time>2018-08-11T18:42:35Z</time>
      </trkpt>
      <trkpt lat="4.5139770" lon="-74.2892480">
        <ele>2730.4</ele>
        <time>2018-08-11T18:42:37Z</time>
      </trkpt>
      <trkpt lat="4.5139380" lon="-74.2892230">
        <ele>2729.7</ele>
        <time>2018-08-11T18:42:39Z</time>
      </trkpt>
      <trkpt lat="4.5138930" lon="-74.2891980">
        <ele>2728.9</ele>
        <time>2018-08-11T18:42:41Z</time>
      </trkpt>
      <trkpt lat="4.5138450" lon="-74.2891650">
        <ele>2728.0</ele>
        <time>2018-08-11T18:42:43Z</time>
      </trkpt>
      <trkpt lat="4.5138200" lon="-74.2891470">
        <ele>2727.5</ele>
        <time>2018-08-11T18:42:44Z</time>
      </trkpt>
      <trkpt lat="4.5137920" lon="-74.2891280">
        <ele>2726.9</ele>
        <time>2018-08-11T18:42:45Z</time>
      </trkpt>
      <trkpt lat="4.5137600" lon="-74.2891130">
        <ele>2726.4</ele>
        <time>2018-08-11T18:42:46Z</time>
      </trkpt>
      <trkpt lat="4.5137300" lon="-74.2890980">
        <ele>2725.9</ele>
        <time>2018-08-11T18:42:47Z</time>
      </trkpt>
      <trkpt lat="4.5137020" lon="-74.2890830">
        <ele>2725.4</ele>
        <time>2018-08-11T18:42:48Z</time>
      </trkpt>
      <trkpt lat="4.5136700" lon="-74.2890650">
        <ele>2724.8</ele>
        <time>2018-08-11T18:42:49Z</time>
      </trkpt>
      <trkpt lat="4.5136420" lon="-74.2890420">
        <ele>2724.2</ele>
        <time>2018-08-11T18:42:50Z</time>
      </trkpt>
      <trkpt lat="4.5136120" lon="-74.2890300">
        <ele>2723.6</ele>
        <time>2018-08-11T18:42:51Z</time>
      </trkpt>
      <trkpt lat="4.5135780" lon="-74.2890200">
        <ele>2723.0</ele>
        <time>2018-08-11T18:42:52Z</time>
      </trkpt>
      <trkpt lat="4.5135450" lon="-74.2890000">
        <ele>2722.4</ele>
        <time>2018-08-11T18:42:53Z</time>
      </trkpt>
      <trkpt lat="4.5135170" lon="-74.2889870">
        <ele>2721.8</ele>
        <time>2018-08-11T18:42:54Z</time>
      </trkpt>
      <trkpt lat="4.5134900" lon="-74.2889680">
        <ele>2721.2</ele>
        <time>2018-08-11T18:42:55Z</time>
      </trkpt>
      <trkpt lat="4.5134720" lon="-74.2889470">
        <ele>2720.6</ele>
        <time>2018-08-11T18:42:56Z</time>
      </trkpt>
      <trkpt lat="4.5134530" lon="-74.2889200">
        <ele>2719.9</ele>
        <time>2018-08-11T18:42:57Z</time>
      </trkpt>
      <trkpt lat="4.5134330" lon="-74.2888730">
        <ele>2718.8</ele>
        <time>2018-08-11T18:42:59Z</time>
      </trkpt>
      <trkpt lat="4.5134270" lon="-74.2888370">
        <ele>2718.0</ele>
        <time>2018-08-11T18:43:00Z</time>
      </trkpt>
      <trkpt lat="4.5134180" lon="-74.2888050">
        <ele>2717.4</ele>
        <time>2018-08-11T18:43:01Z</time>
      </trkpt>
      <trkpt lat="4.5134130" lon="-74.2887680">
        <ele>2716.7</ele>
        <time>2018-08-11T18:43:02Z</time>
      </trkpt>
      <trkpt lat="4.5134080" lon="-74.2887400">
        <ele>2716.2</ele>
        <time>2018-08-11T18:43:03Z</time>
      </trkpt>
      <trkpt lat="4.5133970" lon="-74.2887150">
        <ele>2715.8</ele>
        <time>2018-08-11T18:43:04Z</time>
      </trkpt>
      <trkpt lat="4.5133850" lon="-74.2886900">
        <ele>2715.4</ele>
        <time>2018-08-11T18:43:05Z</time>
      </trkpt>
      <trkpt lat="4.5133730" lon="-74.2886550">
        <ele>2714.9</ele>
        <time>2018-08-11T18:43:06Z</time>
      </trkpt>
      <trkpt lat="4.5133630" lon="-74.2886220">
        <ele>2714.4</ele>
        <time>2018-08-11T18:43:07Z</time>
      </trkpt>
      <trkpt lat="4.5133550" lon="-74.2885830">
        <ele>2714.0</ele>
        <time>2018-08-11T18:43:08Z</time>
      </trkpt>
      <trkpt lat="4.5133470" lon="-74.2885480">
        <ele>2713.6</ele>
        <time>2018-08-11T18:43:09Z</time>
      </trkpt>
      <trkpt lat="4.5133280" lon="-74.2885220">
        <ele>2713.3</ele>
        <time>2018-08-11T18:43:10Z</time>
      </trkpt>
      <trkpt lat="4.5133180" lon="-74.2884870">
        <ele>2713.0</ele>
        <time>2018-08-11T18:43:11Z</time>
      </trkpt>
      <trkpt lat="4.5133080" lon="-74.2884500">
        <ele>2712.6</ele>
        <time>2018-08-11T18:43:12Z</time>
      </trkpt>
      <trkpt lat="4.5133000" lon="-74.2884150">
        <ele>2712.3</ele>
        <time>2018-08-11T18:43:13Z</time>
      </trkpt>
      <trkpt lat="4.5132900" lon="-74.2883800">
        <ele>2712.0</ele>
        <time>2018-08-11T18:43:14Z</time>
      </trkpt>
      <trkpt lat="4.5132780" lon="-74.2883420">
        <ele>2711.7</ele>
        <time>2018-08-11T18:43:15Z</time>
      </trkpt>
      <trkpt lat="4.5132650" lon="-74.2883020">
        <ele>2711.4</ele>
        <time>2018-08-11T18:43:16Z</time>
      </trkpt>
      <trkpt lat="4.5132420" lon="-74.2882520">
        <ele>2711.1</ele>
        <time>2018-08-11T18:43:17Z</time>
      </trkpt>
      <trkpt lat="4.5132230" lon="-74.2882050">
        <ele>2710.7</ele>
        <time>2018-08-11T18:43:18Z</time>
      </trkpt>
      <trkpt lat="4.5132080" lon="-74.2881600">
        <ele>2710.4</ele>
        <time>2018-08-11T18:43:19Z</time>
      </trkpt>
      <trkpt lat="4.5131980" lon="-74.2881180">
        <ele>2710.2</ele>
        <time>2018-08-11T18:43:20Z</time>
      </trkpt>
      <trkpt lat="4.5131830" lon="-74.2880770">
        <ele>2710.0</ele>
        <time>2018-08-11T18:43:21Z</time>
      </trkpt>
      <trkpt lat="4.5131720" lon="-74.2880380">
        <ele>2709.9</ele>
        <time>2018-08-11T18:43:22Z</time>
      </trkpt>
      <trkpt lat="4.5131620" lon="-74.2880030">
        <ele>2709.7</ele>
        <time>2018-08-11T18:43:23Z</time>
      </trkpt>
      <trkpt lat="4.5131500" lon="-74.2879750">
        <ele>2709.6</ele>
        <time>2018-08-11T18:43:24Z</time>
      </trkpt>
      <trkpt lat="4.5131370" lon="-74.2879380">
        <ele>2709.4</ele>
        <time>2018-08-11T18:43:25Z</time>
      </trkpt>
      <trkpt lat="4.5131220" lon="-74.2879000">
        <ele>2709.2</ele>
        <time>2018-08-11T18:43:26Z</time>
      </trkpt>
      <trkpt lat="4.5131050" lon="-74.2878620">
        <ele>2709.0</ele>
        <time>2018-08-11T18:43:27Z</time>
      </trkpt>
      <trkpt lat="4.5130880" lon="-74.2878220">
        <ele>2708.7</ele>
        <time>2018-08-11T18:43:28Z</time>
      </trkpt>
      <trkpt lat="4.5130700" lon="-74.2877780">
        <ele>2708.5</ele>
        <time>2018-08-11T18:43:29Z</time>
      </trkpt>
      <trkpt lat="4.5130530" lon="-74.2877300">
        <ele>2708.2</ele>
        <time>2018-08-11T18:43:30Z</time>
      </trkpt>
      <trkpt lat="4.5130380" lon="-74.2876800">
        <ele>2707.8</ele>
        <time>2018-08-11T18:43:31Z</time>
      </trkpt>
      <trkpt lat="4.5130150" lon="-74.2876330">
        <ele>2707.5</ele>
        <time>2018-08-11T18:43:32Z</time>
      </trkpt>
      <trkpt lat="4.5129930" lon="-74.2875820">
        <ele>2707.1</ele>
        <time>2018-08-11T18:43:33Z</time>
      </trkpt>
      <trkpt lat="4.5129670" lon="-74.2875300">
        <ele>2706.7</ele>
        <time>2018-08-11T18:43:34Z</time>
      </trkpt>
      <trkpt lat="4.5129420" lon="-74.2874800">
        <ele>2706.2</ele>
        <time>2018-08-11T18:43:35Z</time>
      </trkpt>
      <trkpt lat="4.5129170" lon="-74.2874300">
        <ele>2705.8</ele>
        <time>2018-08-11T18:43:36Z</time>
      </trkpt>
      <trkpt lat="4.5128920" lon="-74.2873820">
        <ele>2705.4</ele>
        <time>2018-08-11T18:43:37Z</time>
      </trkpt>
      <trkpt lat="4.5128670" lon="-74.2873400">
        <ele>2705.0</ele>
        <time>2018-08-11T18:43:38Z</time>
      </trkpt>
      <trkpt lat="4.5128400" lon="-74.2872970">
        <ele>2704.6</ele>
        <time>2018-08-11T18:43:39Z</time>
      </trkpt>
      <trkpt lat="4.5128170" lon="-74.2872520">
        <ele>2704.1</ele>
        <time>2018-08-11T18:43:40Z</time>
      </trkpt>
      <trkpt lat="4.5127920" lon="-74.2872070">
        <ele>2703.7</ele>
        <time>2018-08-11T18:43:41Z</time>
      </trkpt>
      <trkpt lat="4.5127670" lon="-74.2871670">
        <ele>2703.3</ele>
        <time>2018-08-11T18:43:42Z</time>
      </trkpt>
      <trkpt lat="4.5127370" lon="-74.2871280">
        <ele>2702.9</ele>
        <time>2018-08-11T18:43:43Z</time>
      </trkpt>
      <trkpt lat="4.5127030" lon="-74.2870900">
        <ele>2702.4</ele>
        <time>2018-08-11T18:43:44Z</time>
      </trkpt>
      <trkpt lat="4.5126700" lon="-74.2870550">
        <ele>2702.1</ele>
        <time>2018-08-11T18:43:45Z</time>
      </trkpt>
      <trkpt lat="4.5126330" lon="-74.2870250">
        <ele>2701.7</ele>
        <time>2018-08-11T18:43:46Z</time>
      </trkpt>
      <trkpt lat="4.5125950" lon="-74.2870000">
        <ele>2701.4</ele>
        <time>2018-08-11T18:43:47Z</time>
      </trkpt>
      <trkpt lat="4.5125530" lon="-74.2869770">
        <ele>2701.0</ele>
        <time>2018-08-11T18:43:48Z</time>
      </trkpt>
      <trkpt lat="4.5125150" lon="-74.2869480">
        <ele>2700.7</ele>
        <time>2018-08-11T18:43:49Z</time>
      </trkpt>
      <trkpt lat="4.5124770" lon="-74.2869180">
        <ele>2700.5</ele>
        <time>2018-08-11T18:43:50Z</time>
      </trkpt>
      <trkpt lat="4.5124370" lon="-74.2868830">
        <ele>2700.2</ele>
        <time>2018-08-11T18:43:51Z</time>
      </trkpt>
      <trkpt lat="4.5123970" lon="-74.2868500">
        <ele>2700.0</ele>
        <time>2018-08-11T18:43:52Z</time>
      </trkpt>
      <trkpt lat="4.5123650" lon="-74.2868220">
        <ele>2699.8</ele>
        <time>2018-08-11T18:43:53Z</time>
      </trkpt>
      <trkpt lat="4.5123300" lon="-74.2867980">
        <ele>2699.7</ele>
        <time>2018-08-11T18:43:54Z</time>
      </trkpt>
      <trkpt lat="4.5122880" lon="-74.2867820">
        <ele>2699.6</ele>
        <time>2018-08-11T18:43:55Z</time>
      </trkpt>
      <trkpt lat="4.5122480" lon="-74.2867600">
        <ele>2699.5</ele>
        <time>2018-08-11T18:43:56Z</time>
      </trkpt>
      <trkpt lat="4.5122130" lon="-74.2867330">
        <ele>2699.4</ele>
        <time>2018-08-11T18:43:57Z</time>
      </trkpt>
      <trkpt lat="4.5121730" lon="-74.2867020">
        <ele>2699.2</ele>
        <time>2018-08-11T18:43:58Z</time>
      </trkpt>
      <trkpt lat="4.5121350" lon="-74.2866700">
        <ele>2698.9</ele>
        <time>2018-08-11T18:43:59Z</time>
      </trkpt>
      <trkpt lat="4.5120970" lon="-74.2866400">
        <ele>2698.7</ele>
        <time>2018-08-11T18:44:00Z</time>
      </trkpt>
      <trkpt lat="4.5120600" lon="-74.2866150">
        <ele>2698.5</ele>
        <time>2018-08-11T18:44:01Z</time>
      </trkpt>
      <trkpt lat="4.5120200" lon="-74.2865920">
        <ele>2698.2</ele>
        <time>2018-08-11T18:44:02Z</time>
      </trkpt>
      <trkpt lat="4.5119820" lon="-74.2865700">
        <ele>2698.1</ele>
        <time>2018-08-11T18:44:03Z</time>
      </trkpt>
      <trkpt lat="4.5119500" lon="-74.2865450">
        <ele>2698.0</ele>
        <time>2018-08-11T18:44:04Z</time>
      </trkpt>
      <trkpt lat="4.5119150" lon="-74.2865170">
        <ele>2697.9</ele>
        <time>2018-08-11T18:44:05Z</time>
      </trkpt>
      <trkpt lat="4.5118830" lon="-74.2864870">
        <ele>2697.8</ele>
        <time>2018-08-11T18:44:06Z</time>
      </trkpt>
      <trkpt lat="4.5118550" lon="-74.2864570">
        <ele>2697.8</ele>
        <time>2018-08-11T18:44:07Z</time>
      </trkpt>
      <trkpt lat="4.5118270" lon="-74.2864250">
        <ele>2697.7</ele>
        <time>2018-08-11T18:44:08Z</time>
      </trkpt>
      <trkpt lat="4.5117970" lon="-74.2863980">
        <ele>2697.6</ele>
        <time>2018-08-11T18:44:09Z</time>
      </trkpt>
      <trkpt lat="4.5117670" lon="-74.2863700">
        <ele>2697.6</ele>
        <time>2018-08-11T18:44:10Z</time>
      </trkpt>
      <trkpt lat="4.5117320" lon="-74.2863450">
        <ele>2697.5</ele>
        <time>2018-08-11T18:44:11Z</time>
      </trkpt>
      <trkpt lat="4.5116920" lon="-74.2863300">
        <ele>2697.4</ele>
        <time>2018-08-11T18:44:12Z</time>
      </trkpt>
      <trkpt lat="4.5116570" lon="-74.2863100">
        <ele>2697.2</ele>
        <time>2018-08-11T18:44:13Z</time>
      </trkpt>
      <trkpt lat="4.5116250" lon="-74.2862880">
        <ele>2697.0</ele>
        <time>2018-08-11T18:44:14Z</time>
      </trkpt>
      <trkpt lat="4.5115920" lon="-74.2862670">
        <ele>2696.8</ele>
        <time>2018-08-11T18:44:15Z</time>
      </trkpt>
      <trkpt lat="4.5115550" lon="-74.2862450">
        <ele>2696.6</ele>
        <time>2018-08-11T18:44:16Z</time>
      </trkpt>
      <trkpt lat="4.5115150" lon="-74.2862200">
        <ele>2696.4</ele>
        <time>2018-08-11T18:44:17Z</time>
      </trkpt>
      <trkpt lat="4.5114770" lon="-74.2861930">
        <ele>2696.1</ele>
        <time>2018-08-11T18:44:18Z</time>
      </trkpt>
      <trkpt lat="4.5114380" lon="-74.2861650">
        <ele>2695.9</ele>
        <time>2018-08-11T18:44:19Z</time>
      </trkpt>
      <trkpt lat="4.5114020" lon="-74.2861350">
        <ele>2695.8</ele>
        <time>2018-08-11T18:44:20Z</time>
      </trkpt>
      <trkpt lat="4.5113670" lon="-74.2861050">
        <ele>2695.6</ele>
        <time>2018-08-11T18:44:21Z</time>
      </trkpt>
      <trkpt lat="4.5113320" lon="-74.2860750">
        <ele>2695.5</ele>
        <time>2018-08-11T18:44:22Z</time>
      </trkpt>
      <trkpt lat="4.5112970" lon="-74.2860380">
        <ele>2695.4</ele>
        <time>2018-08-11T18:44:23Z</time>
      </trkpt>
      <trkpt lat="4.5112580" lon="-74.2860080">
        <ele>2695.2</ele>
        <time>2018-08-11T18:44:24Z</time>
      </trkpt>
      <trkpt lat="4.5112120" lon="-74.2859780">
        <ele>2695.0</ele>
        <time>2018-08-11T18:44:25Z</time>
      </trkpt>
      <trkpt lat="4.5111680" lon="-74.2859480">
        <ele>2694.8</ele>
        <time>2018-08-11T18:44:26Z</time>
      </trkpt>
      <trkpt lat="4.5111280" lon="-74.2859180">
        <ele>2694.5</ele>
        <time>2018-08-11T18:44:27Z</time>
      </trkpt>
      <trkpt lat="4.5110880" lon="-74.2858830">
        <ele>2694.3</ele>
        <time>2018-08-11T18:44:28Z</time>
      </trkpt>
      <trkpt lat="4.5110500" lon="-74.2858570">
        <ele>2694.1</ele>
        <time>2018-08-11T18:44:29Z</time>
      </trkpt>
      <trkpt lat="4.5110170" lon="-74.2858330">
        <ele>2693.9</ele>
        <time>2018-08-11T18:44:30Z</time>
      </trkpt>
      <trkpt lat="4.5109830" lon="-74.2858100">
        <ele>2693.8</ele>
        <time>2018-08-11T18:44:31Z</time>
      </trkpt>
      <trkpt lat="4.5109550" lon="-74.2857900">
        <ele>2693.7</ele>
        <time>2018-08-11T18:44:32Z</time>
      </trkpt>
      <trkpt lat="4.5109280" lon="-74.2857730">
        <ele>2693.7</ele>
        <time>2018-08-11T18:44:33Z</time>
      </trkpt>
      <trkpt lat="4.5109020" lon="-74.2857550">
        <ele>2693.6</ele>
        <time>2018-08-11T18:44:34Z</time>
      </trkpt>
      <trkpt lat="4.5108780" lon="-74.2857400">
        <ele>2693.6</ele>
        <time>2018-08-11T18:44:35Z</time>
      </trkpt>
      <trkpt lat="4.5108550" lon="-74.2857220">
        <ele>2693.6</ele>
        <time>2018-08-11T18:44:36Z</time>
      </trkpt>
      <trkpt lat="4.5108220" lon="-74.2856900">
        <ele>2693.5</ele>
        <time>2018-08-11T18:44:38Z</time>
      </trkpt>
      <trkpt lat="4.5107920" lon="-74.2856480">
        <ele>2693.5</ele>
        <time>2018-08-11T18:44:40Z</time>
      </trkpt>
      <trkpt lat="4.5107730" lon="-74.2856270">
        <ele>2693.5</ele>
        <time>2018-08-11T18:44:41Z</time>
      </trkpt>
      <trkpt lat="4.5107520" lon="-74.2856100">
        <ele>2693.4</ele>
        <time>2018-08-11T18:44:42Z</time>
      </trkpt>
      <trkpt lat="4.5107280" lon="-74.2855950">
        <ele>2693.4</ele>
        <time>2018-08-11T18:44:43Z</time>
      </trkpt>
      <trkpt lat="4.5107070" lon="-74.2855770">
        <ele>2693.4</ele>
        <time>2018-08-11T18:44:44Z</time>
      </trkpt>
      <trkpt lat="4.5106820" lon="-74.2855600">
        <ele>2693.4</ele>
        <time>2018-08-11T18:44:45Z</time>
      </trkpt>
      <trkpt lat="4.5106580" lon="-74.2855420">
        <ele>2693.3</ele>
        <time>2018-08-11T18:44:46Z</time>
      </trkpt>
      <trkpt lat="4.5106330" lon="-74.2855220">
        <ele>2693.3</ele>
        <time>2018-08-11T18:44:47Z</time>
      </trkpt>
      <trkpt lat="4.5106080" lon="-74.2855030">
        <ele>2693.3</ele>
        <time>2018-08-11T18:44:48Z</time>
      </trkpt>
      <trkpt lat="4.5105830" lon="-74.2854880">
        <ele>2693.3</ele>
        <time>2018-08-11T18:44:49Z</time>
      </trkpt>
      <trkpt lat="4.5105580" lon="-74.2854750">
        <ele>2693.3</ele>
        <time>2018-08-11T18:44:50Z</time>
      </trkpt>
      <trkpt lat="4.5105300" lon="-74.2854630">
        <ele>2693.2</ele>
        <time>2018-08-11T18:44:51Z</time>
      </trkpt>
      <trkpt lat="4.5105070" lon="-74.2854480">
        <ele>2693.2</ele>
        <time>2018-08-11T18:44:52Z</time>
      </trkpt>
      <trkpt lat="4.5104850" lon="-74.2854300">
        <ele>2693.2</ele>
        <time>2018-08-11T18:44:53Z</time>
      </trkpt>
      <trkpt lat="4.5104580" lon="-74.2854080">
        <ele>2693.2</ele>
        <time>2018-08-11T18:44:54Z</time>
      </trkpt>
      <trkpt lat="4.5104350" lon="-74.2853870">
        <ele>2693.1</ele>
        <time>2018-08-11T18:44:55Z</time>
      </trkpt>
      <trkpt lat="4.5104100" lon="-74.2853680">
        <ele>2693.1</ele>
        <time>2018-08-11T18:44:56Z</time>
      </trkpt>
      <trkpt lat="4.5103820" lon="-74.2853570">
        <ele>2693.1</ele>
        <time>2018-08-11T18:44:57Z</time>
      </trkpt>
      <trkpt lat="4.5103520" lon="-74.2853430">
        <ele>2693.0</ele>
        <time>2018-08-11T18:44:58Z</time>
      </trkpt>
      <trkpt lat="4.5103080" lon="-74.2853170">
        <ele>2693.0</ele>
        <time>2018-08-11T18:45:00Z</time>
      </trkpt>
      <trkpt lat="4.5102850" lon="-74.2853020">
        <ele>2692.9</ele>
        <time>2018-08-11T18:45:01Z</time>
      </trkpt>
      <trkpt lat="4.5102600" lon="-74.2852880">
        <ele>2692.9</ele>
        <time>2018-08-11T18:45:02Z</time>
      </trkpt>
      <trkpt lat="4.5102350" lon="-74.2852750">
        <ele>2692.8</ele>
        <time>2018-08-11T18:45:03Z</time>
      </trkpt>
      <trkpt lat="4.5102100" lon="-74.2852630">
        <ele>2692.8</ele>
        <time>2018-08-11T18:45:04Z</time>
      </trkpt>
      <trkpt lat="4.5101580" lon="-74.2852430">
        <ele>2692.7</ele>
        <time>2018-08-11T18:45:06Z</time>
      </trkpt>
      <trkpt lat="4.5101320" lon="-74.2852320">
        <ele>2692.7</ele>
        <time>2018-08-11T18:45:07Z</time>
      </trkpt>
      <trkpt lat="4.5100850" lon="-74.2852150">
        <ele>2692.4</ele>
        <time>2018-08-11T18:45:09Z</time>
      </trkpt>
      <trkpt lat="4.5100400" lon="-74.2852120">
        <ele>2692.2</ele>
        <time>2018-08-11T18:45:11Z</time>
      </trkpt>
      <trkpt lat="4.5100000" lon="-74.2852020">
        <ele>2691.9</ele>
        <time>2018-08-11T18:45:13Z</time>
      </trkpt>
      <trkpt lat="4.5099720" lon="-74.2851830">
        <ele>2691.8</ele>
        <time>2018-08-11T18:45:15Z</time>
      </trkpt>
      <trkpt lat="4.5099420" lon="-74.2851520">
        <ele>2691.6</ele>
        <time>2018-08-11T18:45:17Z</time>
      </trkpt>
      <trkpt lat="4.5099250" lon="-74.2851050">
        <ele>2691.5</ele>
        <time>2018-08-11T18:45:19Z</time>
      </trkpt>
      <trkpt lat="4.5099280" lon="-74.2850570">
        <ele>2691.4</ele>
        <time>2018-08-11T18:45:21Z</time>
      </trkpt>
      <trkpt lat="4.5099370" lon="-74.2850100">
        <ele>2691.4</ele>
        <time>2018-08-11T18:45:23Z</time>
      </trkpt>
      <trkpt lat="4.5099420" lon="-74.2849830">
        <ele>2691.4</ele>
        <time>2018-08-11T18:45:24Z</time>
      </trkpt>
      <trkpt lat="4.5099430" lon="-74.2849530">
        <ele>2691.3</ele>
        <time>2018-08-11T18:45:25Z</time>
      </trkpt>
      <trkpt lat="4.5099500" lon="-74.2849030">
        <ele>2691.3</ele>
        <time>2018-08-11T18:45:27Z</time>
      </trkpt>
      <trkpt lat="4.5099520" lon="-74.2848530">
        <ele>2691.3</ele>
        <time>2018-08-11T18:45:29Z</time>
      </trkpt>
      <trkpt lat="4.5099550" lon="-74.2848020">
        <ele>2691.3</ele>
        <time>2018-08-11T18:45:31Z</time>
      </trkpt>
      <trkpt lat="4.5099520" lon="-74.2847500">
        <ele>2691.3</ele>
        <time>2018-08-11T18:45:33Z</time>
      </trkpt>
      <trkpt lat="4.5099530" lon="-74.2846950">
        <ele>2691.3</ele>
        <time>2018-08-11T18:45:35Z</time>
      </trkpt>
      <trkpt lat="4.5099550" lon="-74.2846670">
        <ele>2691.4</ele>
        <time>2018-08-11T18:45:36Z</time>
      </trkpt>
      <trkpt lat="4.5099570" lon="-74.2846370">
        <ele>2691.4</ele>
        <time>2018-08-11T18:45:37Z</time>
      </trkpt>
      <trkpt lat="4.5099570" lon="-74.2845820">
        <ele>2691.4</ele>
        <time>2018-08-11T18:45:39Z</time>
      </trkpt>
      <trkpt lat="4.5099650" lon="-74.2845280">
        <ele>2691.4</ele>
        <time>2018-08-11T18:45:41Z</time>
      </trkpt>
      <trkpt lat="4.5099730" lon="-74.2844800">
        <ele>2691.5</ele>
        <time>2018-08-11T18:45:43Z</time>
      </trkpt>
      <trkpt lat="4.5099850" lon="-74.2844300">
        <ele>2691.5</ele>
        <time>2018-08-11T18:45:45Z</time>
      </trkpt>
      <trkpt lat="4.5099980" lon="-74.2843830">
        <ele>2691.6</ele>
        <time>2018-08-11T18:45:47Z</time>
      </trkpt>
      <trkpt lat="4.5100080" lon="-74.2843350">
        <ele>2691.6</ele>
        <time>2018-08-11T18:45:49Z</time>
      </trkpt>
      <trkpt lat="4.5100070" lon="-74.2842850">
        <ele>2691.7</ele>
        <time>2018-08-11T18:45:51Z</time>
      </trkpt>
      <trkpt lat="4.5100050" lon="-74.2842450">
        <ele>2691.7</ele>
        <time>2018-08-11T18:45:53Z</time>
      </trkpt>
      <trkpt lat="4.5100020" lon="-74.2841970">
        <ele>2691.8</ele>
        <time>2018-08-11T18:45:55Z</time>
      </trkpt>
      <trkpt lat="4.5099980" lon="-74.2841570">
        <ele>2691.9</ele>
        <time>2018-08-11T18:45:56Z</time>
      </trkpt>
      <trkpt lat="4.5100050" lon="-74.2841050">
        <ele>2692.0</ele>
        <time>2018-08-11T18:45:58Z</time>
      </trkpt>
      <trkpt lat="4.5100120" lon="-74.2840580">
        <ele>2692.0</ele>
        <time>2018-08-11T18:46:00Z</time>
      </trkpt>
      <trkpt lat="4.5100170" lon="-74.2840270">
        <ele>2692.1</ele>
        <time>2018-08-11T18:46:01Z</time>
      </trkpt>
      <trkpt lat="4.5100180" lon="-74.2839820">
        <ele>2692.5</ele>
        <time>2018-08-11T18:46:03Z</time>
      </trkpt>
      <trkpt lat="4.5100180" lon="-74.2839350">
        <ele>2692.8</ele>
        <time>2018-08-11T18:46:05Z</time>
      </trkpt>
      <trkpt lat="4.5100220" lon="-74.2838930">
        <ele>2693.0</ele>
        <time>2018-08-11T18:46:07Z</time>
      </trkpt>
      <trkpt lat="4.5100250" lon="-74.2838520">
        <ele>2693.2</ele>
        <time>2018-08-11T18:46:09Z</time>
      </trkpt>
      <trkpt lat="4.5100230" lon="-74.2838050">
        <ele>2693.3</ele>
        <time>2018-08-11T18:46:11Z</time>
      </trkpt>
      <trkpt lat="4.5100280" lon="-74.2837650">
        <ele>2693.3</ele>
        <time>2018-08-11T18:46:13Z</time>
      </trkpt>
      <trkpt lat="4.5100300" lon="-74.2837270">
        <ele>2693.4</ele>
        <time>2018-08-11T18:46:15Z</time>
      </trkpt>
      <trkpt lat="4.5100350" lon="-74.2836850">
        <ele>2693.5</ele>
        <time>2018-08-11T18:46:17Z</time>
      </trkpt>
      <trkpt lat="4.5100400" lon="-74.2836480">
        <ele>2693.6</ele>
        <time>2018-08-11T18:46:19Z</time>
      </trkpt>
      <trkpt lat="4.5100380" lon="-74.2836080">
        <ele>2693.8</ele>
        <time>2018-08-11T18:46:21Z</time>
      </trkpt>
      <trkpt lat="4.5100380" lon="-74.2835670">
        <ele>2694.1</ele>
        <time>2018-08-11T18:46:23Z</time>
      </trkpt>
      <trkpt lat="4.5100430" lon="-74.2835230">
        <ele>2694.5</ele>
        <time>2018-08-11T18:46:25Z</time>
      </trkpt>
      <trkpt lat="4.5100550" lon="-74.2834900">
        <ele>2694.9</ele>
        <time>2018-08-11T18:46:27Z</time>
      </trkpt>
      <trkpt lat="4.5100700" lon="-74.2834530">
        <ele>2695.2</ele>
        <time>2018-08-11T18:46:29Z</time>
      </trkpt>
      <trkpt lat="4.5100720" lon="-74.2834200">
        <ele>2695.4</ele>
        <time>2018-08-11T18:46:31Z</time>
      </trkpt>
      <trkpt lat="4.5100680" lon="-74.2833850">
        <ele>2695.5</ele>
        <time>2018-08-11T18:46:33Z</time>
      </trkpt>
      <trkpt lat="4.5100650" lon="-74.2833480">
        <ele>2695.7</ele>
        <time>2018-08-11T18:46:35Z</time>
      </trkpt>
      <trkpt lat="4.5100670" lon="-74.2833120">
        <ele>2695.9</ele>
        <time>2018-08-11T18:46:37Z</time>
      </trkpt>
      <trkpt lat="4.5100630" lon="-74.2832730">
        <ele>2696.0</ele>
        <time>2018-08-11T18:46:39Z</time>
      </trkpt>
      <trkpt lat="4.5100600" lon="-74.2832370">
        <ele>2696.3</ele>
        <time>2018-08-11T18:46:41Z</time>
      </trkpt>
      <trkpt lat="4.5100530" lon="-74.2832000">
        <ele>2696.8</ele>
        <time>2018-08-11T18:46:43Z</time>
      </trkpt>
      <trkpt lat="4.5100520" lon="-74.2831600">
        <ele>2697.0</ele>
        <time>2018-08-11T18:46:45Z</time>
      </trkpt>
      <trkpt lat="4.5100600" lon="-74.2831270">
        <ele>2697.2</ele>
        <time>2018-08-11T18:46:47Z</time>
      </trkpt>
      <trkpt lat="4.5100750" lon="-74.2830930">
        <ele>2697.4</ele>
        <time>2018-08-11T18:46:49Z</time>
      </trkpt>
      <trkpt lat="4.5100780" lon="-74.2830570">
        <ele>2697.5</ele>
        <time>2018-08-11T18:46:51Z</time>
      </trkpt>
      <trkpt lat="4.5100780" lon="-74.2830200">
        <ele>2698.0</ele>
        <time>2018-08-11T18:46:53Z</time>
      </trkpt>
      <trkpt lat="4.5100770" lon="-74.2829920">
        <ele>2698.4</ele>
        <time>2018-08-11T18:46:55Z</time>
      </trkpt>
      <trkpt lat="4.5100800" lon="-74.2829570">
        <ele>2699.1</ele>
        <time>2018-08-11T18:46:57Z</time>
      </trkpt>
      <trkpt lat="4.5100820" lon="-74.2829170">
        <ele>2699.6</ele>
        <time>2018-08-11T18:46:59Z</time>
      </trkpt>
      <trkpt lat="4.5100820" lon="-74.2828850">
        <ele>2699.9</ele>
        <time>2018-08-11T18:47:01Z</time>
      </trkpt>
      <trkpt lat="4.5100850" lon="-74.2828570">
        <ele>2700.2</ele>
        <time>2018-08-11T18:47:03Z</time>
      </trkpt>
      <trkpt lat="4.5100920" lon="-74.2828300">
        <ele>2700.4</ele>
        <time>2018-08-11T18:47:05Z</time>
      </trkpt>
      <trkpt lat="4.5101020" lon="-74.2827930">
        <ele>2700.6</ele>
        <time>2018-08-11T18:47:08Z</time>
      </trkpt>
      <trkpt lat="4.5101050" lon="-74.2827650">
        <ele>2701.2</ele>
        <time>2018-08-11T18:47:10Z</time>
      </trkpt>
      <trkpt lat="4.5101150" lon="-74.2827350">
        <ele>2701.7</ele>
        <time>2018-08-11T18:47:12Z</time>
      </trkpt>
      <trkpt lat="4.5101250" lon="-74.2826980">
        <ele>2702.1</ele>
        <time>2018-08-11T18:47:14Z</time>
      </trkpt>
      <trkpt lat="4.5101220" lon="-74.2826670">
        <ele>2702.8</ele>
        <time>2018-08-11T18:47:16Z</time>
      </trkpt>
      <trkpt lat="4.5101170" lon="-74.2826380">
        <ele>2703.5</ele>
        <time>2018-08-11T18:47:18Z</time>
      </trkpt>
      <trkpt lat="4.5101220" lon="-74.2826000">
        <ele>2704.1</ele>
        <time>2018-08-11T18:47:21Z</time>
      </trkpt>
      <trkpt lat="4.5101320" lon="-74.2825680">
        <ele>2704.5</ele>
        <time>2018-08-11T18:47:24Z</time>
      </trkpt>
      <trkpt lat="4.5101420" lon="-74.2825320">
        <ele>2705.2</ele>
        <time>2018-08-11T18:47:27Z</time>
      </trkpt>
      <trkpt lat="4.5101400" lon="-74.2824970">
        <ele>2706.1</ele>
        <time>2018-08-11T18:47:29Z</time>
      </trkpt>
      <trkpt lat="4.5101230" lon="-74.2824620">
        <ele>2706.6</ele>
        <time>2018-08-11T18:47:32Z</time>
      </trkpt>
      <trkpt lat="4.5101170" lon="-74.2824350">
        <ele>2707.3</ele>
        <time>2018-08-11T18:47:34Z</time>
      </trkpt>
      <trkpt lat="4.5101120" lon="-74.2824080">
        <ele>2708.0</ele>
        <time>2018-08-11T18:47:36Z</time>
      </trkpt>
      <trkpt lat="4.5100930" lon="-74.2823800">
        <ele>2708.5</ele>
        <time>2018-08-11T18:47:38Z</time>
      </trkpt>
      <trkpt lat="4.5100680" lon="-74.2823670">
        <ele>2708.9</ele>
        <time>2018-08-11T18:47:40Z</time>
      </trkpt>
      <trkpt lat="4.5100430" lon="-74.2823450">
        <ele>2709.7</ele>
        <time>2018-08-11T18:47:42Z</time>
      </trkpt>
      <trkpt lat="4.5100120" lon="-74.2823270">
        <ele>2710.4</ele>
        <time>2018-08-11T18:47:44Z</time>
      </trkpt>
      <trkpt lat="4.5099750" lon="-74.2823130">
        <ele>2710.9</ele>
        <time>2018-08-11T18:47:46Z</time>
      </trkpt>
      <trkpt lat="4.5099280" lon="-74.2823230">
        <ele>2712.2</ele>
        <time>2018-08-11T18:47:48Z</time>
      </trkpt>
      <trkpt lat="4.5099020" lon="-74.2823300">
        <ele>2712.7</ele>
        <time>2018-08-11T18:47:49Z</time>
      </trkpt>
      <trkpt lat="4.5098520" lon="-74.2823350">
        <ele>2713.4</ele>
        <time>2018-08-11T18:47:51Z</time>
      </trkpt>
      <trkpt lat="4.5098080" lon="-74.2823320">
        <ele>2714.1</ele>
        <time>2018-08-11T18:47:53Z</time>
      </trkpt>
      <trkpt lat="4.5097630" lon="-74.2823170">
        <ele>2714.3</ele>
        <time>2018-08-11T18:47:55Z</time>
      </trkpt>
      <trkpt lat="4.5097330" lon="-74.2823120">
        <ele>2714.4</ele>
        <time>2018-08-11T18:47:56Z</time>
      </trkpt>
      <trkpt lat="4.5096820" lon="-74.2823050">
        <ele>2714.5</ele>
        <time>2018-08-11T18:47:58Z</time>
      </trkpt>
      <trkpt lat="4.5096200" lon="-74.2822750">
        <ele>2714.6</ele>
        <time>2018-08-11T18:48:00Z</time>
      </trkpt>
      <trkpt lat="4.5095730" lon="-74.2822630">
        <ele>2714.7</ele>
        <time>2018-08-11T18:48:02Z</time>
      </trkpt>
      <trkpt lat="4.5095350" lon="-74.2822680">
        <ele>2714.7</ele>
        <time>2018-08-11T18:48:04Z</time>
      </trkpt>
      <trkpt lat="4.5094970" lon="-74.2822670">
        <ele>2714.8</ele>
        <time>2018-08-11T18:48:06Z</time>
      </trkpt>
      <trkpt lat="4.5094700" lon="-74.2822580">
        <ele>2714.8</ele>
        <time>2018-08-11T18:48:07Z</time>
      </trkpt>
      <trkpt lat="4.5094220" lon="-74.2822420">
        <ele>2714.9</ele>
        <time>2018-08-11T18:48:09Z</time>
      </trkpt>
      <trkpt lat="4.5093950" lon="-74.2822320">
        <ele>2714.9</ele>
        <time>2018-08-11T18:48:10Z</time>
      </trkpt>
      <trkpt lat="4.5093680" lon="-74.2822230">
        <ele>2715.0</ele>
        <time>2018-08-11T18:48:11Z</time>
      </trkpt>
      <trkpt lat="4.5093380" lon="-74.2822150">
        <ele>2715.0</ele>
        <time>2018-08-11T18:48:12Z</time>
      </trkpt>
      <trkpt lat="4.5093100" lon="-74.2822070">
        <ele>2715.0</ele>
        <time>2018-08-11T18:48:13Z</time>
      </trkpt>
      <trkpt lat="4.5092830" lon="-74.2822020">
        <ele>2715.1</ele>
        <time>2018-08-11T18:48:14Z</time>
      </trkpt>
      <trkpt lat="4.5092550" lon="-74.2821950">
        <ele>2715.1</ele>
        <time>2018-08-11T18:48:15Z</time>
      </trkpt>
      <trkpt lat="4.5092220" lon="-74.2821900">
        <ele>2715.2</ele>
        <time>2018-08-11T18:48:16Z</time>
      </trkpt>
      <trkpt lat="4.5091920" lon="-74.2821850">
        <ele>2715.3</ele>
        <time>2018-08-11T18:48:17Z</time>
      </trkpt>
      <trkpt lat="4.5091580" lon="-74.2821820">
        <ele>2715.4</ele>
        <time>2018-08-11T18:48:18Z</time>
      </trkpt>
      <trkpt lat="4.5091300" lon="-74.2821750">
        <ele>2715.4</ele>
        <time>2018-08-11T18:48:19Z</time>
      </trkpt>
      <trkpt lat="4.5090980" lon="-74.2821720">
        <ele>2715.6</ele>
        <time>2018-08-11T18:48:20Z</time>
      </trkpt>
      <trkpt lat="4.5090700" lon="-74.2821670">
        <ele>2715.9</ele>
        <time>2018-08-11T18:48:21Z</time>
      </trkpt>
      <trkpt lat="4.5090180" lon="-74.2821620">
        <ele>2716.3</ele>
        <time>2018-08-11T18:48:23Z</time>
      </trkpt>
      <trkpt lat="4.5089900" lon="-74.2821570">
        <ele>2716.4</ele>
        <time>2018-08-11T18:48:24Z</time>
      </trkpt>
      <trkpt lat="4.5089630" lon="-74.2821520">
        <ele>2716.5</ele>
        <time>2018-08-11T18:48:25Z</time>
      </trkpt>
      <trkpt lat="4.5089320" lon="-74.2821470">
        <ele>2716.6</ele>
        <time>2018-08-11T18:48:26Z</time>
      </trkpt>
      <trkpt lat="4.5088750" lon="-74.2821420">
        <ele>2716.7</ele>
        <time>2018-08-11T18:48:28Z</time>
      </trkpt>
      <trkpt lat="4.5088170" lon="-74.2821380">
        <ele>2716.9</ele>
        <time>2018-08-11T18:48:30Z</time>
      </trkpt>
      <trkpt lat="4.5087780" lon="-74.2821300">
        <ele>2717.0</ele>
        <time>2018-08-11T18:48:31Z</time>
      </trkpt>
      <trkpt lat="4.5087220" lon="-74.2821350">
        <ele>2717.2</ele>
        <time>2018-08-11T18:48:33Z</time>
      </trkpt>
      <trkpt lat="4.5086670" lon="-74.2821270">
        <ele>2717.5</ele>
        <time>2018-08-11T18:48:35Z</time>
      </trkpt>
      <trkpt lat="4.5086380" lon="-74.2821270">
        <ele>2717.7</ele>
        <time>2018-08-11T18:48:36Z</time>
      </trkpt>
      <trkpt lat="4.5086120" lon="-74.2821180">
        <ele>2718.0</ele>
        <time>2018-08-11T18:48:37Z</time>
      </trkpt>
      <trkpt lat="4.5085750" lon="-74.2821070">
        <ele>2718.1</ele>
        <time>2018-08-11T18:48:38Z</time>
      </trkpt>
      <trkpt lat="4.5085350" lon="-74.2820950">
        <ele>2718.2</ele>
        <time>2018-08-11T18:48:39Z</time>
      </trkpt>
      <trkpt lat="4.5084930" lon="-74.2820750">
        <ele>2718.4</ele>
        <time>2018-08-11T18:48:40Z</time>
      </trkpt>
      <trkpt lat="4.5084530" lon="-74.2820550">
        <ele>2718.4</ele>
        <time>2018-08-11T18:48:41Z</time>
      </trkpt>
      <trkpt lat="4.5084220" lon="-74.2820370">
        <ele>2718.5</ele>
        <time>2018-08-11T18:48:42Z</time>
      </trkpt>
      <trkpt lat="4.5083970" lon="-74.2820180">
        <ele>2718.5</ele>
        <time>2018-08-11T18:48:43Z</time>
      </trkpt>
      <trkpt lat="4.5083450" lon="-74.2820020">
        <ele>2718.5</ele>
        <time>2018-08-11T18:48:45Z</time>
      </trkpt>
      <trkpt lat="4.5083180" lon="-74.2819930">
        <ele>2718.5</ele>
        <time>2018-08-11T18:48:46Z</time>
      </trkpt>
      <trkpt lat="4.5082720" lon="-74.2819780">
        <ele>2718.5</ele>
        <time>2018-08-11T18:48:48Z</time>
      </trkpt>
      <trkpt lat="4.5082470" lon="-74.2819650">
        <ele>2718.5</ele>
        <time>2018-08-11T18:48:49Z</time>
      </trkpt>
      <trkpt lat="4.5082220" lon="-74.2819500">
        <ele>2718.6</ele>
        <time>2018-08-11T18:48:50Z</time>
      </trkpt>
      <trkpt lat="4.5081900" lon="-74.2819350">
        <ele>2718.6</ele>
        <time>2018-08-11T18:48:51Z</time>
      </trkpt>
      <trkpt lat="4.5081650" lon="-74.2819220">
        <ele>2718.6</ele>
        <time>2018-08-11T18:48:52Z</time>
      </trkpt>
      <trkpt lat="4.5081430" lon="-74.2819050">
        <ele>2718.6</ele>
        <time>2018-08-11T18:48:53Z</time>
      </trkpt>
      <trkpt lat="4.5080970" lon="-74.2818730">
        <ele>2718.6</ele>
        <time>2018-08-11T18:48:55Z</time>
      </trkpt>
      <trkpt lat="4.5080720" lon="-74.2818620">
        <ele>2718.6</ele>
        <time>2018-08-11T18:48:56Z</time>
      </trkpt>
      <trkpt lat="4.5080450" lon="-74.2818500">
        <ele>2718.6</ele>
        <time>2018-08-11T18:48:57Z</time>
      </trkpt>
      <trkpt lat="4.5079930" lon="-74.2818280">
        <ele>2718.6</ele>
        <time>2018-08-11T18:48:59Z</time>
      </trkpt>
      <trkpt lat="4.5079680" lon="-74.2818150">
        <ele>2718.6</ele>
        <time>2018-08-11T18:49:00Z</time>
      </trkpt>
      <trkpt lat="4.5079270" lon="-74.2817680">
        <ele>2718.6</ele>
        <time>2018-08-11T18:49:02Z</time>
      </trkpt>
      <trkpt lat="4.5078970" lon="-74.2817330">
        <ele>2718.6</ele>
        <time>2018-08-11T18:49:03Z</time>
      </trkpt>
      <trkpt lat="4.5078620" lon="-74.2816950">
        <ele>2718.6</ele>
        <time>2018-08-11T18:49:04Z</time>
      </trkpt>
      <trkpt lat="4.5078300" lon="-74.2816620">
        <ele>2718.6</ele>
        <time>2018-08-11T18:49:05Z</time>
      </trkpt>
      <trkpt lat="4.5077880" lon="-74.2816270">
        <ele>2718.6</ele>
        <time>2018-08-11T18:49:06Z</time>
      </trkpt>
      <trkpt lat="4.5077480" lon="-74.2815920">
        <ele>2718.6</ele>
        <time>2018-08-11T18:49:07Z</time>
      </trkpt>
      <trkpt lat="4.5077120" lon="-74.2815620">
        <ele>2718.6</ele>
        <time>2018-08-11T18:49:08Z</time>
      </trkpt>
      <trkpt lat="4.5076700" lon="-74.2815330">
        <ele>2718.6</ele>
        <time>2018-08-11T18:49:09Z</time>
      </trkpt>
      <trkpt lat="4.5076250" lon="-74.2815030">
        <ele>2718.6</ele>
        <time>2018-08-11T18:49:10Z</time>
      </trkpt>
      <trkpt lat="4.5075750" lon="-74.2814750">
        <ele>2718.6</ele>
        <time>2018-08-11T18:49:11Z</time>
      </trkpt>
      <trkpt lat="4.5075370" lon="-74.2814500">
        <ele>2718.6</ele>
        <time>2018-08-11T18:49:12Z</time>
      </trkpt>
      <trkpt lat="4.5074970" lon="-74.2814300">
        <ele>2718.6</ele>
        <time>2018-08-11T18:49:13Z</time>
      </trkpt>
      <trkpt lat="4.5074580" lon="-74.2814150">
        <ele>2718.6</ele>
        <time>2018-08-11T18:49:14Z</time>
      </trkpt>
      <trkpt lat="4.5074230" lon="-74.2814020">
        <ele>2718.6</ele>
        <time>2018-08-11T18:49:15Z</time>
      </trkpt>
      <trkpt lat="4.5073880" lon="-74.2813900">
        <ele>2718.6</ele>
        <time>2018-08-11T18:49:16Z</time>
      </trkpt>
      <trkpt lat="4.5073550" lon="-74.2813800">
        <ele>2718.6</ele>
        <time>2018-08-11T18:49:17Z</time>
      </trkpt>
      <trkpt lat="4.5073200" lon="-74.2813770">
        <ele>2718.6</ele>
        <time>2018-08-11T18:49:18Z</time>
      </trkpt>
      <trkpt lat="4.5072750" lon="-74.2813770">
        <ele>2718.6</ele>
        <time>2018-08-11T18:49:19Z</time>
      </trkpt>
      <trkpt lat="4.5072370" lon="-74.2813750">
        <ele>2718.6</ele>
        <time>2018-08-11T18:49:20Z</time>
      </trkpt>
      <trkpt lat="4.5071970" lon="-74.2813700">
        <ele>2718.6</ele>
        <time>2018-08-11T18:49:21Z</time>
      </trkpt>
      <trkpt lat="4.5071600" lon="-74.2813630">
        <ele>2718.6</ele>
        <time>2018-08-11T18:49:22Z</time>
      </trkpt>
      <trkpt lat="4.5071120" lon="-74.2813570">
        <ele>2718.6</ele>
        <time>2018-08-11T18:49:23Z</time>
      </trkpt>
      <trkpt lat="4.5070670" lon="-74.2813500">
        <ele>2718.6</ele>
        <time>2018-08-11T18:49:24Z</time>
      </trkpt>
      <trkpt lat="4.5070230" lon="-74.2813430">
        <ele>2718.6</ele>
        <time>2018-08-11T18:49:25Z</time>
      </trkpt>
      <trkpt lat="4.5069820" lon="-74.2813350">
        <ele>2718.6</ele>
        <time>2018-08-11T18:49:26Z</time>
      </trkpt>
      <trkpt lat="4.5069450" lon="-74.2813250">
        <ele>2718.6</ele>
        <time>2018-08-11T18:49:27Z</time>
      </trkpt>
      <trkpt lat="4.5069120" lon="-74.2813130">
        <ele>2718.6</ele>
        <time>2018-08-11T18:49:28Z</time>
      </trkpt>
      <trkpt lat="4.5068830" lon="-74.2813070">
        <ele>2718.6</ele>
        <time>2018-08-11T18:49:29Z</time>
      </trkpt>
      <trkpt lat="4.5068550" lon="-74.2813000">
        <ele>2718.6</ele>
        <time>2018-08-11T18:49:30Z</time>
      </trkpt>
      <trkpt lat="4.5068230" lon="-74.2812930">
        <ele>2718.6</ele>
        <time>2018-08-11T18:49:31Z</time>
      </trkpt>
      <trkpt lat="4.5067370" lon="-74.2812880">
        <ele>2718.6</ele>
        <time>2018-08-11T18:49:33Z</time>
      </trkpt>
      <trkpt lat="4.5067100" lon="-74.2812800">
        <ele>2718.7</ele>
        <time>2018-08-11T18:49:34Z</time>
      </trkpt>
      <trkpt lat="4.5066700" lon="-74.2812650">
        <ele>2718.7</ele>
        <time>2018-08-11T18:49:36Z</time>
      </trkpt>
      <trkpt lat="4.5066400" lon="-74.2812550">
        <ele>2718.7</ele>
        <time>2018-08-11T18:49:37Z</time>
      </trkpt>
      <trkpt lat="4.5066080" lon="-74.2812470">
        <ele>2718.7</ele>
        <time>2018-08-11T18:49:38Z</time>
      </trkpt>
      <trkpt lat="4.5065800" lon="-74.2812350">
        <ele>2718.8</ele>
        <time>2018-08-11T18:49:39Z</time>
      </trkpt>
      <trkpt lat="4.5065530" lon="-74.2812230">
        <ele>2718.8</ele>
        <time>2018-08-11T18:49:40Z</time>
      </trkpt>
      <trkpt lat="4.5065000" lon="-74.2812020">
        <ele>2718.9</ele>
        <time>2018-08-11T18:49:42Z</time>
      </trkpt>
      <trkpt lat="4.5064720" lon="-74.2811920">
        <ele>2718.9</ele>
        <time>2018-08-11T18:49:43Z</time>
      </trkpt>
      <trkpt lat="4.5064450" lon="-74.2811820">
        <ele>2718.9</ele>
        <time>2018-08-11T18:49:44Z</time>
      </trkpt>
      <trkpt lat="4.5064200" lon="-74.2811680">
        <ele>2719.0</ele>
        <time>2018-08-11T18:49:45Z</time>
      </trkpt>
      <trkpt lat="4.5063700" lon="-74.2811550">
        <ele>2719.1</ele>
        <time>2018-08-11T18:49:47Z</time>
      </trkpt>
      <trkpt lat="4.5063220" lon="-74.2811380">
        <ele>2719.3</ele>
        <time>2018-08-11T18:49:49Z</time>
      </trkpt>
      <trkpt lat="4.5062780" lon="-74.2811150">
        <ele>2719.7</ele>
        <time>2018-08-11T18:49:51Z</time>
      </trkpt>
      <trkpt lat="4.5062430" lon="-74.2810900">
        <ele>2720.1</ele>
        <time>2018-08-11T18:49:53Z</time>
      </trkpt>
      <trkpt lat="4.5062030" lon="-74.2810700">
        <ele>2720.3</ele>
        <time>2018-08-11T18:49:55Z</time>
      </trkpt>
      <trkpt lat="4.5061600" lon="-74.2810500">
        <ele>2720.5</ele>
        <time>2018-08-11T18:49:57Z</time>
      </trkpt>
      <trkpt lat="4.5061220" lon="-74.2810320">
        <ele>2720.6</ele>
        <time>2018-08-11T18:49:59Z</time>
      </trkpt>
      <trkpt lat="4.5060780" lon="-74.2810170">
        <ele>2720.8</ele>
        <time>2018-08-11T18:50:01Z</time>
      </trkpt>
      <trkpt lat="4.5060330" lon="-74.2810020">
        <ele>2721.1</ele>
        <time>2018-08-11T18:50:03Z</time>
      </trkpt>
      <trkpt lat="4.5060020" lon="-74.2810000">
        <ele>2721.3</ele>
        <time>2018-08-11T18:50:04Z</time>
      </trkpt>
      <trkpt lat="4.5059500" lon="-74.2809820">
        <ele>2721.8</ele>
        <time>2018-08-11T18:50:06Z</time>
      </trkpt>
      <trkpt lat="4.5059220" lon="-74.2809770">
        <ele>2722.1</ele>
        <time>2018-08-11T18:50:07Z</time>
      </trkpt>
      <trkpt lat="4.5058750" lon="-74.2809630">
        <ele>2722.4</ele>
        <time>2018-08-11T18:50:09Z</time>
      </trkpt>
      <trkpt lat="4.5058270" lon="-74.2809500">
        <ele>2722.6</ele>
        <time>2018-08-11T18:50:11Z</time>
      </trkpt>
      <trkpt lat="4.5057830" lon="-74.2809430">
        <ele>2722.8</ele>
        <time>2018-08-11T18:50:13Z</time>
      </trkpt>
      <trkpt lat="4.5057400" lon="-74.2809380">
        <ele>2722.9</ele>
        <time>2018-08-11T18:50:15Z</time>
      </trkpt>
      <trkpt lat="4.5056980" lon="-74.2809350">
        <ele>2723.0</ele>
        <time>2018-08-11T18:50:17Z</time>
      </trkpt>
      <trkpt lat="4.5056630" lon="-74.2809280">
        <ele>2723.1</ele>
        <time>2018-08-11T18:50:19Z</time>
      </trkpt>
      <trkpt lat="4.5056300" lon="-74.2809200">
        <ele>2723.2</ele>
        <time>2018-08-11T18:50:21Z</time>
      </trkpt>
      <trkpt lat="4.5055920" lon="-74.2809150">
        <ele>2723.4</ele>
        <time>2018-08-11T18:50:23Z</time>
      </trkpt>
      <trkpt lat="4.5055530" lon="-74.2809080">
        <ele>2723.7</ele>
        <time>2018-08-11T18:50:25Z</time>
      </trkpt>
      <trkpt lat="4.5055120" lon="-74.2808980">
        <ele>2724.1</ele>
        <time>2018-08-11T18:50:27Z</time>
      </trkpt>
      <trkpt lat="4.5054700" lon="-74.2808870">
        <ele>2724.4</ele>
        <time>2018-08-11T18:50:29Z</time>
      </trkpt>
      <trkpt lat="4.5054250" lon="-74.2808720">
        <ele>2724.6</ele>
        <time>2018-08-11T18:50:31Z</time>
      </trkpt>
      <trkpt lat="4.5053830" lon="-74.2808570">
        <ele>2724.8</ele>
        <time>2018-08-11T18:50:33Z</time>
      </trkpt>
      <trkpt lat="4.5053250" lon="-74.2808480">
        <ele>2725.1</ele>
        <time>2018-08-11T18:50:35Z</time>
      </trkpt>
      <trkpt lat="4.5052970" lon="-74.2808470">
        <ele>2725.2</ele>
        <time>2018-08-11T18:50:36Z</time>
      </trkpt>
      <trkpt lat="4.5052670" lon="-74.2808470">
        <ele>2725.3</ele>
        <time>2018-08-11T18:50:37Z</time>
      </trkpt>
      <trkpt lat="4.5052200" lon="-74.2808420">
        <ele>2725.7</ele>
        <time>2018-08-11T18:50:39Z</time>
      </trkpt>
      <trkpt lat="4.5051720" lon="-74.2808280">
        <ele>2726.2</ele>
        <time>2018-08-11T18:50:41Z</time>
      </trkpt>
      <trkpt lat="4.5051450" lon="-74.2808230">
        <ele>2726.5</ele>
        <time>2018-08-11T18:50:42Z</time>
      </trkpt>
      <trkpt lat="4.5050950" lon="-74.2808170">
        <ele>2726.6</ele>
        <time>2018-08-11T18:50:44Z</time>
      </trkpt>
      <trkpt lat="4.5050500" lon="-74.2808250">
        <ele>2726.8</ele>
        <time>2018-08-11T18:50:46Z</time>
      </trkpt>
      <trkpt lat="4.5050100" lon="-74.2808330">
        <ele>2726.9</ele>
        <time>2018-08-11T18:50:48Z</time>
      </trkpt>
      <trkpt lat="4.5049770" lon="-74.2808270">
        <ele>2727.1</ele>
        <time>2018-08-11T18:50:50Z</time>
      </trkpt>
      <trkpt lat="4.5049400" lon="-74.2808180">
        <ele>2727.5</ele>
        <time>2018-08-11T18:50:52Z</time>
      </trkpt>
      <trkpt lat="4.5049030" lon="-74.2808100">
        <ele>2727.9</ele>
        <time>2018-08-11T18:50:54Z</time>
      </trkpt>
      <trkpt lat="4.5048630" lon="-74.2808100">
        <ele>2728.3</ele>
        <time>2018-08-11T18:50:56Z</time>
      </trkpt>
      <trkpt lat="4.5048350" lon="-74.2808100">
        <ele>2728.5</ele>
        <time>2018-08-11T18:50:58Z</time>
      </trkpt>
      <trkpt lat="4.5048080" lon="-74.2808000">
        <ele>2728.7</ele>
        <time>2018-08-11T18:51:00Z</time>
      </trkpt>
      <trkpt lat="4.5047800" lon="-74.2807930">
        <ele>2728.8</ele>
        <time>2018-08-11T18:51:02Z</time>
      </trkpt>
      <trkpt lat="4.5047550" lon="-74.2807780">
        <ele>2729.0</ele>
        <time>2018-08-11T18:51:04Z</time>
      </trkpt>
      <trkpt lat="4.5047200" lon="-74.2807620">
        <ele>2729.2</ele>
        <time>2018-08-11T18:51:06Z</time>
      </trkpt>
      <trkpt lat="4.5046920" lon="-74.2807450">
        <ele>2729.4</ele>
        <time>2018-08-11T18:51:08Z</time>
      </trkpt>
      <trkpt lat="4.5046720" lon="-74.2807200">
        <ele>2729.9</ele>
        <time>2018-08-11T18:51:10Z</time>
      </trkpt>
      <trkpt lat="4.5046550" lon="-74.2806950">
        <ele>2730.4</ele>
        <time>2018-08-11T18:51:12Z</time>
      </trkpt>
      <trkpt lat="4.5046280" lon="-74.2806720">
        <ele>2730.9</ele>
        <time>2018-08-11T18:51:14Z</time>
      </trkpt>
      <trkpt lat="4.5046100" lon="-74.2806400">
        <ele>2731.3</ele>
        <time>2018-08-11T18:51:16Z</time>
      </trkpt>
      <trkpt lat="4.5045880" lon="-74.2806200">
        <ele>2731.7</ele>
        <time>2018-08-11T18:51:18Z</time>
      </trkpt>
      <trkpt lat="4.5045770" lon="-74.2805920">
        <ele>2732.3</ele>
        <time>2018-08-11T18:51:20Z</time>
      </trkpt>
      <trkpt lat="4.5045680" lon="-74.2805620">
        <ele>2732.7</ele>
        <time>2018-08-11T18:51:22Z</time>
      </trkpt>
      <trkpt lat="4.5045470" lon="-74.2805420">
        <ele>2732.9</ele>
        <time>2018-08-11T18:51:24Z</time>
      </trkpt>
      <trkpt lat="4.5045230" lon="-74.2805220">
        <ele>2733.2</ele>
        <time>2018-08-11T18:51:26Z</time>
      </trkpt>
      <trkpt lat="4.5045080" lon="-74.2804980">
        <ele>2733.4</ele>
        <time>2018-08-11T18:51:28Z</time>
      </trkpt>
      <trkpt lat="4.5044950" lon="-74.2804580">
        <ele>2733.6</ele>
        <time>2018-08-11T18:51:31Z</time>
      </trkpt>
      <trkpt lat="4.5044750" lon="-74.2804350">
        <ele>2734.0</ele>
        <time>2018-08-11T18:51:33Z</time>
      </trkpt>
      <trkpt lat="4.5044530" lon="-74.2804150">
        <ele>2734.4</ele>
        <time>2018-08-11T18:51:35Z</time>
      </trkpt>
      <trkpt lat="4.5044230" lon="-74.2803880">
        <ele>2735.0</ele>
        <time>2018-08-11T18:51:37Z</time>
      </trkpt>
      <trkpt lat="4.5044020" lon="-74.2803600">
        <ele>2735.3</ele>
        <time>2018-08-11T18:51:39Z</time>
      </trkpt>
      <trkpt lat="4.5043780" lon="-74.2803380">
        <ele>2735.6</ele>
        <time>2018-08-11T18:51:42Z</time>
      </trkpt>
      <trkpt lat="4.5043580" lon="-74.2803200">
        <ele>2735.9</ele>
        <time>2018-08-11T18:51:44Z</time>
      </trkpt>
      <trkpt lat="4.5043370" lon="-74.2802950">
        <ele>2736.4</ele>
        <time>2018-08-11T18:51:46Z</time>
      </trkpt>
      <trkpt lat="4.5043230" lon="-74.2802680">
        <ele>2737.0</ele>
        <time>2018-08-11T18:51:49Z</time>
      </trkpt>
      <trkpt lat="4.5043070" lon="-74.2802370">
        <ele>2737.3</ele>
        <time>2018-08-11T18:51:52Z</time>
      </trkpt>
      <trkpt lat="4.5042770" lon="-74.2802220">
        <ele>2737.7</ele>
        <time>2018-08-11T18:51:54Z</time>
      </trkpt>
      <trkpt lat="4.5042530" lon="-74.2802070">
        <ele>2737.9</ele>
        <time>2018-08-11T18:51:56Z</time>
      </trkpt>
      <trkpt lat="4.5042220" lon="-74.2801900">
        <ele>2738.5</ele>
        <time>2018-08-11T18:51:58Z</time>
      </trkpt>
      <trkpt lat="4.5041950" lon="-74.2801720">
        <ele>2738.9</ele>
        <time>2018-08-11T18:52:00Z</time>
      </trkpt>
      <trkpt lat="4.5041730" lon="-74.2801470">
        <ele>2739.3</ele>
        <time>2018-08-11T18:52:02Z</time>
      </trkpt>
      <trkpt lat="4.5041630" lon="-74.2801130">
        <ele>2739.7</ele>
        <time>2018-08-11T18:52:04Z</time>
      </trkpt>
      <trkpt lat="4.5041500" lon="-74.2800830">
        <ele>2740.0</ele>
        <time>2018-08-11T18:52:06Z</time>
      </trkpt>
      <trkpt lat="4.5041370" lon="-74.2800430">
        <ele>2740.4</ele>
        <time>2018-08-11T18:52:08Z</time>
      </trkpt>
      <trkpt lat="4.5041150" lon="-74.2800130">
        <ele>2741.0</ele>
        <time>2018-08-11T18:52:10Z</time>
      </trkpt>
      <trkpt lat="4.5041100" lon="-74.2799830">
        <ele>2741.6</ele>
        <time>2018-08-11T18:52:12Z</time>
      </trkpt>
      <trkpt lat="4.5041130" lon="-74.2799520">
        <ele>2742.0</ele>
        <time>2018-08-11T18:52:14Z</time>
      </trkpt>
      <trkpt lat="4.5041070" lon="-74.2799250">
        <ele>2742.5</ele>
        <time>2018-08-11T18:52:16Z</time>
      </trkpt>
      <trkpt lat="4.5040870" lon="-74.2799030">
        <ele>2743.1</ele>
        <time>2018-08-11T18:52:18Z</time>
      </trkpt>
      <trkpt lat="4.5040650" lon="-74.2798820">
        <ele>2743.6</ele>
        <time>2018-08-11T18:52:20Z</time>
      </trkpt>
      <trkpt lat="4.5040520" lon="-74.2798480">
        <ele>2744.1</ele>
        <time>2018-08-11T18:52:22Z</time>
      </trkpt>
      <trkpt lat="4.5040370" lon="-74.2798180">
        <ele>2744.7</ele>
        <time>2018-08-11T18:52:24Z</time>
      </trkpt>
      <trkpt lat="4.5040300" lon="-74.2797900">
        <ele>2745.2</ele>
        <time>2018-08-11T18:52:26Z</time>
      </trkpt>
      <trkpt lat="4.5040180" lon="-74.2797500">
        <ele>2745.8</ele>
        <time>2018-08-11T18:52:29Z</time>
      </trkpt>
      <trkpt lat="4.5040180" lon="-74.2797180">
        <ele>2746.3</ele>
        <time>2018-08-11T18:52:31Z</time>
      </trkpt>
      <trkpt lat="4.5040120" lon="-74.2796920">
        <ele>2746.8</ele>
        <time>2018-08-11T18:52:33Z</time>
      </trkpt>
      <trkpt lat="4.5039900" lon="-74.2796700">
        <ele>2747.4</ele>
        <time>2018-08-11T18:52:35Z</time>
      </trkpt>
      <trkpt lat="4.5039630" lon="-74.2796480">
        <ele>2747.8</ele>
        <time>2018-08-11T18:52:37Z</time>
      </trkpt>
      <trkpt lat="4.5039270" lon="-74.2796200">
        <ele>2748.5</ele>
        <time>2018-08-11T18:52:39Z</time>
      </trkpt>
      <trkpt lat="4.5038900" lon="-74.2795970">
        <ele>2749.1</ele>
        <time>2018-08-11T18:52:41Z</time>
      </trkpt>
      <trkpt lat="4.5038680" lon="-74.2795730">
        <ele>2749.4</ele>
        <time>2018-08-11T18:52:43Z</time>
      </trkpt>
      <trkpt lat="4.5038500" lon="-74.2795500">
        <ele>2749.6</ele>
        <time>2018-08-11T18:52:45Z</time>
      </trkpt>
      <trkpt lat="4.5038280" lon="-74.2795250">
        <ele>2749.9</ele>
        <time>2018-08-11T18:52:47Z</time>
      </trkpt>
      <trkpt lat="4.5038150" lon="-74.2794950">
        <ele>2750.1</ele>
        <time>2018-08-11T18:52:49Z</time>
      </trkpt>
      <trkpt lat="4.5037980" lon="-74.2794680">
        <ele>2750.5</ele>
        <time>2018-08-11T18:52:51Z</time>
      </trkpt>
      <trkpt lat="4.5037780" lon="-74.2794400">
        <ele>2751.1</ele>
        <time>2018-08-11T18:52:53Z</time>
      </trkpt>
      <trkpt lat="4.5037680" lon="-74.2794130">
        <ele>2751.6</ele>
        <time>2018-08-11T18:52:55Z</time>
      </trkpt>
      <trkpt lat="4.5037380" lon="-74.2793950">
        <ele>2751.8</ele>
        <time>2018-08-11T18:52:57Z</time>
      </trkpt>
      <trkpt lat="4.5037150" lon="-74.2793620">
        <ele>2752.2</ele>
        <time>2018-08-11T18:53:00Z</time>
      </trkpt>
      <trkpt lat="4.5036980" lon="-74.2793370">
        <ele>2752.4</ele>
        <time>2018-08-11T18:53:02Z</time>
      </trkpt>
      <trkpt lat="4.5036930" lon="-74.2793020">
        <ele>2753.1</ele>
        <time>2018-08-11T18:53:04Z</time>
      </trkpt>
      <trkpt lat="4.5036900" lon="-74.2792700">
        <ele>2753.8</ele>
        <time>2018-08-11T18:53:06Z</time>
      </trkpt>
      <trkpt lat="4.5036680" lon="-74.2792430">
        <ele>2754.3</ele>
        <time>2018-08-11T18:53:08Z</time>
      </trkpt>
      <trkpt lat="4.5036550" lon="-74.2792000">
        <ele>2755.1</ele>
        <time>2018-08-11T18:53:10Z</time>
      </trkpt>
      <trkpt lat="4.5036330" lon="-74.2791750">
        <ele>2755.7</ele>
        <time>2018-08-11T18:53:12Z</time>
      </trkpt>
      <trkpt lat="4.5036030" lon="-74.2791530">
        <ele>2756.0</ele>
        <time>2018-08-11T18:53:14Z</time>
      </trkpt>
      <trkpt lat="4.5035750" lon="-74.2791350">
        <ele>2756.3</ele>
        <time>2018-08-11T18:53:16Z</time>
      </trkpt>
      <trkpt lat="4.5035500" lon="-74.2791170">
        <ele>2756.7</ele>
        <time>2018-08-11T18:53:18Z</time>
      </trkpt>
      <trkpt lat="4.5035230" lon="-74.2791030">
        <ele>2757.2</ele>
        <time>2018-08-11T18:53:20Z</time>
      </trkpt>
      <trkpt lat="4.5034970" lon="-74.2790920">
        <ele>2757.4</ele>
        <time>2018-08-11T18:53:22Z</time>
      </trkpt>
      <trkpt lat="4.5034730" lon="-74.2790680">
        <ele>2757.6</ele>
        <time>2018-08-11T18:53:24Z</time>
      </trkpt>
      <trkpt lat="4.5034520" lon="-74.2790470">
        <ele>2757.8</ele>
        <time>2018-08-11T18:53:26Z</time>
      </trkpt>
      <trkpt lat="4.5034150" lon="-74.2790280">
        <ele>2758.0</ele>
        <time>2018-08-11T18:53:28Z</time>
      </trkpt>
      <trkpt lat="4.5033830" lon="-74.2790170">
        <ele>2758.1</ele>
        <time>2018-08-11T18:53:30Z</time>
      </trkpt>
      <trkpt lat="4.5033500" lon="-74.2789950">
        <ele>2758.2</ele>
        <time>2018-08-11T18:53:32Z</time>
      </trkpt>
      <trkpt lat="4.5033230" lon="-74.2789630">
        <ele>2758.4</ele>
        <time>2018-08-11T18:53:34Z</time>
      </trkpt>
      <trkpt lat="4.5032970" lon="-74.2789400">
        <ele>2758.6</ele>
        <time>2018-08-11T18:53:36Z</time>
      </trkpt>
      <trkpt lat="4.5032680" lon="-74.2789170">
        <ele>2759.0</ele>
        <time>2018-08-11T18:53:38Z</time>
      </trkpt>
      <trkpt lat="4.5032330" lon="-74.2789020">
        <ele>2759.4</ele>
        <time>2018-08-11T18:53:40Z</time>
      </trkpt>
      <trkpt lat="4.5032020" lon="-74.2788670">
        <ele>2759.5</ele>
        <time>2018-08-11T18:53:42Z</time>
      </trkpt>
      <trkpt lat="4.5031750" lon="-74.2788350">
        <ele>2759.7</ele>
        <time>2018-08-11T18:53:44Z</time>
      </trkpt>
      <trkpt lat="4.5031530" lon="-74.2788050">
        <ele>2759.8</ele>
        <time>2018-08-11T18:53:46Z</time>
      </trkpt>
      <trkpt lat="4.5031350" lon="-74.2787820">
        <ele>2759.8</ele>
        <time>2018-08-11T18:53:48Z</time>
      </trkpt>
      <trkpt lat="4.5031120" lon="-74.2787570">
        <ele>2759.9</ele>
        <time>2018-08-11T18:53:50Z</time>
      </trkpt>
      <trkpt lat="4.5030820" lon="-74.2787370">
        <ele>2760.3</ele>
        <time>2018-08-11T18:53:52Z</time>
      </trkpt>
      <trkpt lat="4.5030670" lon="-74.2787120">
        <ele>2760.4</ele>
        <time>2018-08-11T18:53:54Z</time>
      </trkpt>
      <trkpt lat="4.5030750" lon="-74.2786750">
        <ele>2760.5</ele>
        <time>2018-08-11T18:53:56Z</time>
      </trkpt>
      <trkpt lat="4.5030850" lon="-74.2786380">
        <ele>2760.6</ele>
        <time>2018-08-11T18:53:58Z</time>
      </trkpt>
      <trkpt lat="4.5031000" lon="-74.2785980">
        <ele>2760.7</ele>
        <time>2018-08-11T18:54:00Z</time>
      </trkpt>
      <trkpt lat="4.5031220" lon="-74.2785580">
        <ele>2760.8</ele>
        <time>2018-08-11T18:54:02Z</time>
      </trkpt>
      <trkpt lat="4.5031370" lon="-74.2785330">
        <ele>2760.8</ele>
        <time>2018-08-11T18:54:03Z</time>
      </trkpt>
      <trkpt lat="4.5031480" lon="-74.2785070">
        <ele>2760.8</ele>
        <time>2018-08-11T18:54:04Z</time>
      </trkpt>
      <trkpt lat="4.5031620" lon="-74.2784720">
        <ele>2760.8</ele>
        <time>2018-08-11T18:54:05Z</time>
      </trkpt>
      <trkpt lat="4.5031780" lon="-74.2784370">
        <ele>2760.8</ele>
        <time>2018-08-11T18:54:06Z</time>
      </trkpt>
      <trkpt lat="4.5031930" lon="-74.2783970">
        <ele>2760.8</ele>
        <time>2018-08-11T18:54:07Z</time>
      </trkpt>
      <trkpt lat="4.5032180" lon="-74.2783580">
        <ele>2760.8</ele>
        <time>2018-08-11T18:54:08Z</time>
      </trkpt>
      <trkpt lat="4.5032380" lon="-74.2783200">
        <ele>2760.7</ele>
        <time>2018-08-11T18:54:09Z</time>
      </trkpt>
      <trkpt lat="4.5032650" lon="-74.2782820">
        <ele>2760.7</ele>
        <time>2018-08-11T18:54:10Z</time>
      </trkpt>
      <trkpt lat="4.5032930" lon="-74.2782450">
        <ele>2760.6</ele>
        <time>2018-08-11T18:54:11Z</time>
      </trkpt>
      <trkpt lat="4.5033180" lon="-74.2782120">
        <ele>2760.6</ele>
        <time>2018-08-11T18:54:12Z</time>
      </trkpt>
      <trkpt lat="4.5033530" lon="-74.2781820">
        <ele>2760.7</ele>
        <time>2018-08-11T18:54:13Z</time>
      </trkpt>
      <trkpt lat="4.5033970" lon="-74.2781530">
        <ele>2760.7</ele>
        <time>2018-08-11T18:54:14Z</time>
      </trkpt>
      <trkpt lat="4.5034400" lon="-74.2781220">
        <ele>2760.7</ele>
        <time>2018-08-11T18:54:15Z</time>
      </trkpt>
      <trkpt lat="4.5034820" lon="-74.2780920">
        <ele>2760.7</ele>
        <time>2018-08-11T18:54:16Z</time>
      </trkpt>
      <trkpt lat="4.5035330" lon="-74.2780680">
        <ele>2760.7</ele>
        <time>2018-08-11T18:54:17Z</time>
      </trkpt>
      <trkpt lat="4.5035970" lon="-74.2780530">
        <ele>2760.7</ele>
        <time>2018-08-11T18:54:18Z</time>
      </trkpt>
      <trkpt lat="4.5036630" lon="-74.2780430">
        <ele>2760.6</ele>
        <time>2018-08-11T18:54:19Z</time>
      </trkpt>
      <trkpt lat="4.5037330" lon="-74.2780380">
        <ele>2760.6</ele>
        <time>2018-08-11T18:54:20Z</time>
      </trkpt>
      <trkpt lat="4.5038050" lon="-74.2780330">
        <ele>2760.6</ele>
        <time>2018-08-11T18:54:21Z</time>
      </trkpt>
      <trkpt lat="4.5038780" lon="-74.2780280">
        <ele>2760.6</ele>
        <time>2018-08-11T18:54:22Z</time>
      </trkpt>
      <trkpt lat="4.5039520" lon="-74.2780220">
        <ele>2760.5</ele>
        <time>2018-08-11T18:54:23Z</time>
      </trkpt>
      <trkpt lat="4.5040230" lon="-74.2780170">
        <ele>2760.4</ele>
        <time>2018-08-11T18:54:24Z</time>
      </trkpt>
      <trkpt lat="4.5040920" lon="-74.2780150">
        <ele>2760.4</ele>
        <time>2018-08-11T18:54:25Z</time>
      </trkpt>
      <trkpt lat="4.5041580" lon="-74.2780120">
        <ele>2760.4</ele>
        <time>2018-08-11T18:54:26Z</time>
      </trkpt>
      <trkpt lat="4.5042280" lon="-74.2780080">
        <ele>2760.4</ele>
        <time>2018-08-11T18:54:27Z</time>
      </trkpt>
      <trkpt lat="4.5042930" lon="-74.2780020">
        <ele>2760.4</ele>
        <time>2018-08-11T18:54:28Z</time>
      </trkpt>
      <trkpt lat="4.5043570" lon="-74.2779920">
        <ele>2760.4</ele>
        <time>2018-08-11T18:54:29Z</time>
      </trkpt>
      <trkpt lat="4.5044200" lon="-74.2779780">
        <ele>2760.4</ele>
        <time>2018-08-11T18:54:30Z</time>
      </trkpt>
      <trkpt lat="4.5044830" lon="-74.2779620">
        <ele>2760.4</ele>
        <time>2018-08-11T18:54:31Z</time>
      </trkpt>
      <trkpt lat="4.5045420" lon="-74.2779450">
        <ele>2760.5</ele>
        <time>2018-08-11T18:54:32Z</time>
      </trkpt>
      <trkpt lat="4.5045970" lon="-74.2779320">
        <ele>2760.6</ele>
        <time>2018-08-11T18:54:33Z</time>
      </trkpt>
      <trkpt lat="4.5046420" lon="-74.2779230">
        <ele>2760.8</ele>
        <time>2018-08-11T18:54:34Z</time>
      </trkpt>
      <trkpt lat="4.5046870" lon="-74.2779180">
        <ele>2760.9</ele>
        <time>2018-08-11T18:54:35Z</time>
      </trkpt>
      <trkpt lat="4.5047330" lon="-74.2779170">
        <ele>2761.1</ele>
        <time>2018-08-11T18:54:36Z</time>
      </trkpt>
      <trkpt lat="4.5047750" lon="-74.2779150">
        <ele>2761.1</ele>
        <time>2018-08-11T18:54:37Z</time>
      </trkpt>
      <trkpt lat="4.5048170" lon="-74.2779000">
        <ele>2761.1</ele>
        <time>2018-08-11T18:54:38Z</time>
      </trkpt>
      <trkpt lat="4.5048520" lon="-74.2778800">
        <ele>2761.2</ele>
        <time>2018-08-11T18:54:39Z</time>
      </trkpt>
      <trkpt lat="4.5048780" lon="-74.2778550">
        <ele>2761.2</ele>
        <time>2018-08-11T18:54:40Z</time>
      </trkpt>
      <trkpt lat="4.5048950" lon="-74.2778270">
        <ele>2761.2</ele>
        <time>2018-08-11T18:54:41Z</time>
      </trkpt>
      <trkpt lat="4.5048680" lon="-74.2777700">
        <ele>2761.3</ele>
        <time>2018-08-11T18:54:43Z</time>
      </trkpt>
      <trkpt lat="4.5048030" lon="-74.2777430">
        <ele>2761.4</ele>
        <time>2018-08-11T18:54:44Z</time>
      </trkpt>
      <trkpt lat="4.5047150" lon="-74.2777480">
        <ele>2761.7</ele>
        <time>2018-08-11T18:54:45Z</time>
      </trkpt>
      <trkpt lat="4.5046570" lon="-74.2777500">
        <ele>2761.8</ele>
        <time>2018-08-11T18:54:46Z</time>
      </trkpt>
      <trkpt lat="4.5045880" lon="-74.2777530">
        <ele>2762.0</ele>
        <time>2018-08-11T18:54:47Z</time>
      </trkpt>
      <trkpt lat="4.5045130" lon="-74.2777530">
        <ele>2762.2</ele>
        <time>2018-08-11T18:54:48Z</time>
      </trkpt>
      <trkpt lat="4.5044430" lon="-74.2777500">
        <ele>2762.3</ele>
        <time>2018-08-11T18:54:49Z</time>
      </trkpt>
      <trkpt lat="4.5043730" lon="-74.2777450">
        <ele>2762.5</ele>
        <time>2018-08-11T18:54:50Z</time>
      </trkpt>
      <trkpt lat="4.5043100" lon="-74.2777450">
        <ele>2762.6</ele>
        <time>2018-08-11T18:54:51Z</time>
      </trkpt>
      <trkpt lat="4.5042500" lon="-74.2777380">
        <ele>2762.7</ele>
        <time>2018-08-11T18:54:52Z</time>
      </trkpt>
      <trkpt lat="4.5041870" lon="-74.2777330">
        <ele>2762.8</ele>
        <time>2018-08-11T18:54:53Z</time>
      </trkpt>
      <trkpt lat="4.5041270" lon="-74.2777270">
        <ele>2762.8</ele>
        <time>2018-08-11T18:54:54Z</time>
      </trkpt>
      <trkpt lat="4.5040680" lon="-74.2777180">
        <ele>2762.9</ele>
        <time>2018-08-11T18:54:55Z</time>
      </trkpt>
      <trkpt lat="4.5040070" lon="-74.2777150">
        <ele>2763.1</ele>
        <time>2018-08-11T18:54:56Z</time>
      </trkpt>
      <trkpt lat="4.5039620" lon="-74.2776970">
        <ele>2763.3</ele>
        <time>2018-08-11T18:54:57Z</time>
      </trkpt>
      <trkpt lat="4.5039120" lon="-74.2776700">
        <ele>2763.7</ele>
        <time>2018-08-11T18:54:58Z</time>
      </trkpt>
      <trkpt lat="4.5038600" lon="-74.2776400">
        <ele>2763.5</ele>
        <time>2018-08-11T18:54:59Z</time>
      </trkpt>
      <trkpt lat="4.5038070" lon="-74.2776120">
        <ele>2762.8</ele>
        <time>2018-08-11T18:55:00Z</time>
      </trkpt>
      <trkpt lat="4.5037530" lon="-74.2775830">
        <ele>2762.0</ele>
        <time>2018-08-11T18:55:01Z</time>
      </trkpt>
      <trkpt lat="4.5036980" lon="-74.2775550">
        <ele>2761.1</ele>
        <time>2018-08-11T18:55:02Z</time>
      </trkpt>
      <trkpt lat="4.5036430" lon="-74.2775230">
        <ele>2760.2</ele>
        <time>2018-08-11T18:55:03Z</time>
      </trkpt>
      <trkpt lat="4.5035930" lon="-74.2774900">
        <ele>2759.2</ele>
        <time>2018-08-11T18:55:04Z</time>
      </trkpt>
      <trkpt lat="4.5035570" lon="-74.2774500">
        <ele>2758.4</ele>
        <time>2018-08-11T18:55:05Z</time>
      </trkpt>
      <trkpt lat="4.5035220" lon="-74.2774030">
        <ele>2757.4</ele>
        <time>2018-08-11T18:55:06Z</time>
      </trkpt>
      <trkpt lat="4.5034970" lon="-74.2773520">
        <ele>2756.6</ele>
        <time>2018-08-11T18:55:07Z</time>
      </trkpt>
      <trkpt lat="4.5034680" lon="-74.2772980">
        <ele>2755.8</ele>
        <time>2018-08-11T18:55:08Z</time>
      </trkpt>
      <trkpt lat="4.5034450" lon="-74.2772430">
        <ele>2755.0</ele>
        <time>2018-08-11T18:55:09Z</time>
      </trkpt>
      <trkpt lat="4.5034220" lon="-74.2771920">
        <ele>2754.4</ele>
        <time>2018-08-11T18:55:10Z</time>
      </trkpt>
      <trkpt lat="4.5033950" lon="-74.2771400">
        <ele>2753.8</ele>
        <time>2018-08-11T18:55:11Z</time>
      </trkpt>
      <trkpt lat="4.5033680" lon="-74.2770850">
        <ele>2753.2</ele>
        <time>2018-08-11T18:55:12Z</time>
      </trkpt>
      <trkpt lat="4.5033380" lon="-74.2770330">
        <ele>2752.6</ele>
        <time>2018-08-11T18:55:13Z</time>
      </trkpt>
      <trkpt lat="4.5032770" lon="-74.2769580">
        <ele>2751.2</ele>
        <time>2018-08-11T18:55:14Z</time>
      </trkpt>
      <trkpt lat="4.5032230" lon="-74.2768980">
        <ele>2750.0</ele>
        <time>2018-08-11T18:55:15Z</time>
      </trkpt>
      <trkpt lat="4.5031800" lon="-74.2768420">
        <ele>2748.8</ele>
        <time>2018-08-11T18:55:16Z</time>
      </trkpt>
      <trkpt lat="4.5031350" lon="-74.2767830">
        <ele>2747.6</ele>
        <time>2018-08-11T18:55:17Z</time>
      </trkpt>
      <trkpt lat="4.5030780" lon="-74.2767280">
        <ele>2746.5</ele>
        <time>2018-08-11T18:55:18Z</time>
      </trkpt>
      <trkpt lat="4.5030150" lon="-74.2766770">
        <ele>2745.4</ele>
        <time>2018-08-11T18:55:19Z</time>
      </trkpt>
      <trkpt lat="4.5029530" lon="-74.2766300">
        <ele>2744.4</ele>
        <time>2018-08-11T18:55:20Z</time>
      </trkpt>
      <trkpt lat="4.5028930" lon="-74.2765830">
        <ele>2743.7</ele>
        <time>2018-08-11T18:55:21Z</time>
      </trkpt>
      <trkpt lat="4.5028420" lon="-74.2765270">
        <ele>2743.1</ele>
        <time>2018-08-11T18:55:22Z</time>
      </trkpt>
      <trkpt lat="4.5027970" lon="-74.2764720">
        <ele>2742.5</ele>
        <time>2018-08-11T18:55:23Z</time>
      </trkpt>
      <trkpt lat="4.5027530" lon="-74.2764170">
        <ele>2741.9</ele>
        <time>2018-08-11T18:55:24Z</time>
      </trkpt>
      <trkpt lat="4.5027150" lon="-74.2763550">
        <ele>2741.3</ele>
        <time>2018-08-11T18:55:25Z</time>
      </trkpt>
      <trkpt lat="4.5026730" lon="-74.2763020">
        <ele>2740.8</ele>
        <time>2018-08-11T18:55:26Z</time>
      </trkpt>
      <trkpt lat="4.5026270" lon="-74.2762470">
        <ele>2740.4</ele>
        <time>2018-08-11T18:55:27Z</time>
      </trkpt>
      <trkpt lat="4.5025800" lon="-74.2761900">
        <ele>2739.9</ele>
        <time>2018-08-11T18:55:28Z</time>
      </trkpt>
      <trkpt lat="4.5025330" lon="-74.2761270">
        <ele>2739.1</ele>
        <time>2018-08-11T18:55:29Z</time>
      </trkpt>
      <trkpt lat="4.5024830" lon="-74.2760700">
        <ele>2738.3</ele>
        <time>2018-08-11T18:55:30Z</time>
      </trkpt>
      <trkpt lat="4.5024250" lon="-74.2760150">
        <ele>2737.6</ele>
        <time>2018-08-11T18:55:31Z</time>
      </trkpt>
      <trkpt lat="4.5023600" lon="-74.2759650">
        <ele>2736.9</ele>
        <time>2018-08-11T18:55:32Z</time>
      </trkpt>
      <trkpt lat="4.5023020" lon="-74.2759170">
        <ele>2736.0</ele>
        <time>2018-08-11T18:55:33Z</time>
      </trkpt>
      <trkpt lat="4.5022320" lon="-74.2758730">
        <ele>2735.2</ele>
        <time>2018-08-11T18:55:34Z</time>
      </trkpt>
      <trkpt lat="4.5021550" lon="-74.2758370">
        <ele>2734.7</ele>
        <time>2018-08-11T18:55:35Z</time>
      </trkpt>
      <trkpt lat="4.5020770" lon="-74.2758020">
        <ele>2734.1</ele>
        <time>2018-08-11T18:55:36Z</time>
      </trkpt>
      <trkpt lat="4.5020030" lon="-74.2757680">
        <ele>2733.6</ele>
        <time>2018-08-11T18:55:37Z</time>
      </trkpt>
      <trkpt lat="4.5019370" lon="-74.2757300">
        <ele>2733.1</ele>
        <time>2018-08-11T18:55:38Z</time>
      </trkpt>
      <trkpt lat="4.5018720" lon="-74.2756920">
        <ele>2732.5</ele>
        <time>2018-08-11T18:55:39Z</time>
      </trkpt>
      <trkpt lat="4.5018170" lon="-74.2756470">
        <ele>2731.9</ele>
        <time>2018-08-11T18:55:40Z</time>
      </trkpt>
      <trkpt lat="4.5017700" lon="-74.2755930">
        <ele>2731.4</ele>
        <time>2018-08-11T18:55:41Z</time>
      </trkpt>
      <trkpt lat="4.5017380" lon="-74.2755420">
        <ele>2731.0</ele>
        <time>2018-08-11T18:55:42Z</time>
      </trkpt>
      <trkpt lat="4.5017030" lon="-74.2754800">
        <ele>2730.5</ele>
        <time>2018-08-11T18:55:43Z</time>
      </trkpt>
      <trkpt lat="4.5016800" lon="-74.2754220">
        <ele>2730.1</ele>
        <time>2018-08-11T18:55:44Z</time>
      </trkpt>
      <trkpt lat="4.5016450" lon="-74.2753670">
        <ele>2729.5</ele>
        <time>2018-08-11T18:55:45Z</time>
      </trkpt>
      <trkpt lat="4.5016200" lon="-74.2753100">
        <ele>2728.9</ele>
        <time>2018-08-11T18:55:46Z</time>
      </trkpt>
      <trkpt lat="4.5016030" lon="-74.2752500">
        <ele>2728.1</ele>
        <time>2018-08-11T18:55:47Z</time>
      </trkpt>
      <trkpt lat="4.5015830" lon="-74.2751870">
        <ele>2727.1</ele>
        <time>2018-08-11T18:55:48Z</time>
      </trkpt>
      <trkpt lat="4.5015750" lon="-74.2751250">
        <ele>2726.1</ele>
        <time>2018-08-11T18:55:49Z</time>
      </trkpt>
      <trkpt lat="4.5015780" lon="-74.2750670">
        <ele>2725.1</ele>
        <time>2018-08-11T18:55:50Z</time>
      </trkpt>
      <trkpt lat="4.5015920" lon="-74.2750070">
        <ele>2724.0</ele>
        <time>2018-08-11T18:55:51Z</time>
      </trkpt>
      <trkpt lat="4.5016130" lon="-74.2749470">
        <ele>2722.9</ele>
        <time>2018-08-11T18:55:52Z</time>
      </trkpt>
      <trkpt lat="4.5016400" lon="-74.2748900">
        <ele>2721.8</ele>
        <time>2018-08-11T18:55:53Z</time>
      </trkpt>
      <trkpt lat="4.5016750" lon="-74.2748320">
        <ele>2720.6</ele>
        <time>2018-08-11T18:55:54Z</time>
      </trkpt>
      <trkpt lat="4.5017150" lon="-74.2747770">
        <ele>2719.5</ele>
        <time>2018-08-11T18:55:55Z</time>
      </trkpt>
      <trkpt lat="4.5017630" lon="-74.2747320">
        <ele>2718.4</ele>
        <time>2018-08-11T18:55:56Z</time>
      </trkpt>
      <trkpt lat="4.5018150" lon="-74.2746930">
        <ele>2717.6</ele>
        <time>2018-08-11T18:55:57Z</time>
      </trkpt>
      <trkpt lat="4.5018680" lon="-74.2746580">
        <ele>2716.8</ele>
        <time>2018-08-11T18:55:58Z</time>
      </trkpt>
      <trkpt lat="4.5019170" lon="-74.2746270">
        <ele>2715.8</ele>
        <time>2018-08-11T18:55:59Z</time>
      </trkpt>
      <trkpt lat="4.5019630" lon="-74.2745950">
        <ele>2714.8</ele>
        <time>2018-08-11T18:56:00Z</time>
      </trkpt>
      <trkpt lat="4.5020130" lon="-74.2745650">
        <ele>2714.0</ele>
        <time>2018-08-11T18:56:01Z</time>
      </trkpt>
      <trkpt lat="4.5020670" lon="-74.2745330">
        <ele>2713.2</ele>
        <time>2018-08-11T18:56:02Z</time>
      </trkpt>
      <trkpt lat="4.5021220" lon="-74.2745030">
        <ele>2712.4</ele>
        <time>2018-08-11T18:56:03Z</time>
      </trkpt>
      <trkpt lat="4.5021730" lon="-74.2744700">
        <ele>2711.6</ele>
        <time>2018-08-11T18:56:04Z</time>
      </trkpt>
      <trkpt lat="4.5022170" lon="-74.2744380">
        <ele>2710.8</ele>
        <time>2018-08-11T18:56:05Z</time>
      </trkpt>
      <trkpt lat="4.5022670" lon="-74.2744050">
        <ele>2709.8</ele>
        <time>2018-08-11T18:56:06Z</time>
      </trkpt>
      <trkpt lat="4.5023150" lon="-74.2743700">
        <ele>2708.8</ele>
        <time>2018-08-11T18:56:07Z</time>
      </trkpt>
      <trkpt lat="4.5023600" lon="-74.2743320">
        <ele>2708.0</ele>
        <time>2018-08-11T18:56:08Z</time>
      </trkpt>
      <trkpt lat="4.5024080" lon="-74.2742880">
        <ele>2707.1</ele>
        <time>2018-08-11T18:56:09Z</time>
      </trkpt>
      <trkpt lat="4.5024550" lon="-74.2742450">
        <ele>2706.3</ele>
        <time>2018-08-11T18:56:10Z</time>
      </trkpt>
      <trkpt lat="4.5024920" lon="-74.2741980">
        <ele>2705.5</ele>
        <time>2018-08-11T18:56:11Z</time>
      </trkpt>
      <trkpt lat="4.5025280" lon="-74.2741450">
        <ele>2704.7</ele>
        <time>2018-08-11T18:56:12Z</time>
      </trkpt>
      <trkpt lat="4.5025570" lon="-74.2740870">
        <ele>2703.9</ele>
        <time>2018-08-11T18:56:13Z</time>
      </trkpt>
      <trkpt lat="4.5025800" lon="-74.2740230">
        <ele>2703.0</ele>
        <time>2018-08-11T18:56:14Z</time>
      </trkpt>
      <trkpt lat="4.5025970" lon="-74.2739620">
        <ele>2702.0</ele>
        <time>2018-08-11T18:56:15Z</time>
      </trkpt>
      <trkpt lat="4.5026120" lon="-74.2739030">
        <ele>2701.1</ele>
        <time>2018-08-11T18:56:16Z</time>
      </trkpt>
      <trkpt lat="4.5026230" lon="-74.2738420">
        <ele>2700.1</ele>
        <time>2018-08-11T18:56:17Z</time>
      </trkpt>
      <trkpt lat="4.5026330" lon="-74.2737780">
        <ele>2699.1</ele>
        <time>2018-08-11T18:56:18Z</time>
      </trkpt>
      <trkpt lat="4.5026470" lon="-74.2737180">
        <ele>2698.1</ele>
        <time>2018-08-11T18:56:19Z</time>
      </trkpt>
      <trkpt lat="4.5026600" lon="-74.2736580">
        <ele>2697.2</ele>
        <time>2018-08-11T18:56:20Z</time>
      </trkpt>
      <trkpt lat="4.5026730" lon="-74.2735950">
        <ele>2696.3</ele>
        <time>2018-08-11T18:56:21Z</time>
      </trkpt>
      <trkpt lat="4.5026930" lon="-74.2735320">
        <ele>2695.3</ele>
        <time>2018-08-11T18:56:22Z</time>
      </trkpt>
      <trkpt lat="4.5027170" lon="-74.2734680">
        <ele>2694.4</ele>
        <time>2018-08-11T18:56:23Z</time>
      </trkpt>
      <trkpt lat="4.5027470" lon="-74.2734070">
        <ele>2693.6</ele>
        <time>2018-08-11T18:56:24Z</time>
      </trkpt>
      <trkpt lat="4.5027770" lon="-74.2733480">
        <ele>2693.0</ele>
        <time>2018-08-11T18:56:25Z</time>
      </trkpt>
      <trkpt lat="4.5028050" lon="-74.2732870">
        <ele>2692.4</ele>
        <time>2018-08-11T18:56:26Z</time>
      </trkpt>
      <trkpt lat="4.5028300" lon="-74.2732270">
        <ele>2691.6</ele>
        <time>2018-08-11T18:56:27Z</time>
      </trkpt>
      <trkpt lat="4.5028600" lon="-74.2731670">
        <ele>2690.7</ele>
        <time>2018-08-11T18:56:28Z</time>
      </trkpt>
      <trkpt lat="4.5028900" lon="-74.2731080">
        <ele>2690.2</ele>
        <time>2018-08-11T18:56:29Z</time>
      </trkpt>
      <trkpt lat="4.5029220" lon="-74.2730530">
        <ele>2689.6</ele>
        <time>2018-08-11T18:56:30Z</time>
      </trkpt>
      <trkpt lat="4.5029530" lon="-74.2730030">
        <ele>2689.0</ele>
        <time>2018-08-11T18:56:31Z</time>
      </trkpt>
      <trkpt lat="4.5029850" lon="-74.2729630">
        <ele>2688.6</ele>
        <time>2018-08-11T18:56:32Z</time>
      </trkpt>
      <trkpt lat="4.5030070" lon="-74.2729180">
        <ele>2688.3</ele>
        <time>2018-08-11T18:56:33Z</time>
      </trkpt>
      <trkpt lat="4.5030220" lon="-74.2728720">
        <ele>2688.0</ele>
        <time>2018-08-11T18:56:34Z</time>
      </trkpt>
      <trkpt lat="4.5030330" lon="-74.2728280">
        <ele>2687.6</ele>
        <time>2018-08-11T18:56:35Z</time>
      </trkpt>
      <trkpt lat="4.5030280" lon="-74.2727900">
        <ele>2687.2</ele>
        <time>2018-08-11T18:56:36Z</time>
      </trkpt>
      <trkpt lat="4.5029820" lon="-74.2727750">
        <ele>2686.8</ele>
        <time>2018-08-11T18:56:37Z</time>
      </trkpt>
      <trkpt lat="4.5029330" lon="-74.2727650">
        <ele>2686.4</ele>
        <time>2018-08-11T18:56:38Z</time>
      </trkpt>
      <trkpt lat="4.5028800" lon="-74.2727600">
        <ele>2686.1</ele>
        <time>2018-08-11T18:56:39Z</time>
      </trkpt>
      <trkpt lat="4.5028200" lon="-74.2727630">
        <ele>2685.5</ele>
        <time>2018-08-11T18:56:40Z</time>
      </trkpt>
      <trkpt lat="4.5027600" lon="-74.2727670">
        <ele>2684.9</ele>
        <time>2018-08-11T18:56:41Z</time>
      </trkpt>
      <trkpt lat="4.5026980" lon="-74.2727720">
        <ele>2684.3</ele>
        <time>2018-08-11T18:56:42Z</time>
      </trkpt>
      <trkpt lat="4.5026350" lon="-74.2727780">
        <ele>2683.7</ele>
        <time>2018-08-11T18:56:43Z</time>
      </trkpt>
      <trkpt lat="4.5025720" lon="-74.2727900">
        <ele>2683.1</ele>
        <time>2018-08-11T18:56:44Z</time>
      </trkpt>
      <trkpt lat="4.5025070" lon="-74.2728100">
        <ele>2682.5</ele>
        <time>2018-08-11T18:56:45Z</time>
      </trkpt>
      <trkpt lat="4.5024350" lon="-74.2728300">
        <ele>2681.7</ele>
        <time>2018-08-11T18:56:46Z</time>
      </trkpt>
      <trkpt lat="4.5023520" lon="-74.2728470">
        <ele>2680.9</ele>
        <time>2018-08-11T18:56:47Z</time>
      </trkpt>
      <trkpt lat="4.5022780" lon="-74.2728650">
        <ele>2680.2</ele>
        <time>2018-08-11T18:56:48Z</time>
      </trkpt>
      <trkpt lat="4.5022120" lon="-74.2728880">
        <ele>2679.2</ele>
        <time>2018-08-11T18:56:49Z</time>
      </trkpt>
      <trkpt lat="4.5021520" lon="-74.2729070">
        <ele>2677.9</ele>
        <time>2018-08-11T18:56:50Z</time>
      </trkpt>
      <trkpt lat="4.5021000" lon="-74.2729220">
        <ele>2676.8</ele>
        <time>2018-08-11T18:56:51Z</time>
      </trkpt>
      <trkpt lat="4.5020530" lon="-74.2729270">
        <ele>2675.7</ele>
        <time>2018-08-11T18:56:52Z</time>
      </trkpt>
      <trkpt lat="4.5020120" lon="-74.2729130">
        <ele>2674.7</ele>
        <time>2018-08-11T18:56:53Z</time>
      </trkpt>
      <trkpt lat="4.5019700" lon="-74.2728770">
        <ele>2674.0</ele>
        <time>2018-08-11T18:56:54Z</time>
      </trkpt>
      <trkpt lat="4.5019450" lon="-74.2728350">
        <ele>2673.6</ele>
        <time>2018-08-11T18:56:55Z</time>
      </trkpt>
      <trkpt lat="4.5019500" lon="-74.2727870">
        <ele>2673.2</ele>
        <time>2018-08-11T18:56:56Z</time>
      </trkpt>
      <trkpt lat="4.5019680" lon="-74.2727430">
        <ele>2672.9</ele>
        <time>2018-08-11T18:56:57Z</time>
      </trkpt>
      <trkpt lat="4.5020000" lon="-74.2727000">
        <ele>2672.6</ele>
        <time>2018-08-11T18:56:58Z</time>
      </trkpt>
      <trkpt lat="4.5020380" lon="-74.2726600">
        <ele>2672.3</ele>
        <time>2018-08-11T18:56:59Z</time>
      </trkpt>
      <trkpt lat="4.5020730" lon="-74.2726200">
        <ele>2672.0</ele>
        <time>2018-08-11T18:57:00Z</time>
      </trkpt>
      <trkpt lat="4.5021070" lon="-74.2725820">
        <ele>2671.8</ele>
        <time>2018-08-11T18:57:01Z</time>
      </trkpt>
      <trkpt lat="4.5021420" lon="-74.2725450">
        <ele>2671.4</ele>
        <time>2018-08-11T18:57:02Z</time>
      </trkpt>
      <trkpt lat="4.5021780" lon="-74.2725070">
        <ele>2671.1</ele>
        <time>2018-08-11T18:57:03Z</time>
      </trkpt>
      <trkpt lat="4.5022130" lon="-74.2724650">
        <ele>2670.7</ele>
        <time>2018-08-11T18:57:04Z</time>
      </trkpt>
      <trkpt lat="4.5022520" lon="-74.2724200">
        <ele>2670.1</ele>
        <time>2018-08-11T18:57:05Z</time>
      </trkpt>
      <trkpt lat="4.5022850" lon="-74.2723750">
        <ele>2669.5</ele>
        <time>2018-08-11T18:57:06Z</time>
      </trkpt>
      <trkpt lat="4.5023150" lon="-74.2723280">
        <ele>2668.7</ele>
        <time>2018-08-11T18:57:07Z</time>
      </trkpt>
      <trkpt lat="4.5023470" lon="-74.2722770">
        <ele>2667.9</ele>
        <time>2018-08-11T18:57:08Z</time>
      </trkpt>
      <trkpt lat="4.5023820" lon="-74.2722250">
        <ele>2667.1</ele>
        <time>2018-08-11T18:57:09Z</time>
      </trkpt>
      <trkpt lat="4.5024170" lon="-74.2721800">
        <ele>2666.3</ele>
        <time>2018-08-11T18:57:10Z</time>
      </trkpt>
      <trkpt lat="4.5024550" lon="-74.2721320">
        <ele>2665.6</ele>
        <time>2018-08-11T18:57:11Z</time>
      </trkpt>
      <trkpt lat="4.5024900" lon="-74.2720830">
        <ele>2664.9</ele>
        <time>2018-08-11T18:57:12Z</time>
      </trkpt>
      <trkpt lat="4.5025350" lon="-74.2720380">
        <ele>2664.3</ele>
        <time>2018-08-11T18:57:13Z</time>
      </trkpt>
      <trkpt lat="4.5025820" lon="-74.2719930">
        <ele>2663.8</ele>
        <time>2018-08-11T18:57:14Z</time>
      </trkpt>
      <trkpt lat="4.5026320" lon="-74.2719520">
        <ele>2663.3</ele>
        <time>2018-08-11T18:57:15Z</time>
      </trkpt>
      <trkpt lat="4.5026850" lon="-74.2719100">
        <ele>2662.8</ele>
        <time>2018-08-11T18:57:16Z</time>
      </trkpt>
      <trkpt lat="4.5027450" lon="-74.2718720">
        <ele>2662.5</ele>
        <time>2018-08-11T18:57:17Z</time>
      </trkpt>
      <trkpt lat="4.5028030" lon="-74.2718330">
        <ele>2662.2</ele>
        <time>2018-08-11T18:57:18Z</time>
      </trkpt>
      <trkpt lat="4.5028670" lon="-74.2718020">
        <ele>2661.8</ele>
        <time>2018-08-11T18:57:19Z</time>
      </trkpt>
      <trkpt lat="4.5029450" lon="-74.2717780">
        <ele>2661.4</ele>
        <time>2018-08-11T18:57:20Z</time>
      </trkpt>
      <trkpt lat="4.5030150" lon="-74.2717600">
        <ele>2661.2</ele>
        <time>2018-08-11T18:57:21Z</time>
      </trkpt>
      <trkpt lat="4.5031000" lon="-74.2717530">
        <ele>2661.1</ele>
        <time>2018-08-11T18:57:22Z</time>
      </trkpt>
      <trkpt lat="4.5031700" lon="-74.2717470">
        <ele>2661.1</ele>
        <time>2018-08-11T18:57:23Z</time>
      </trkpt>
      <trkpt lat="4.5032370" lon="-74.2717420">
        <ele>2661.1</ele>
        <time>2018-08-11T18:57:24Z</time>
      </trkpt>
      <trkpt lat="4.5032980" lon="-74.2717380">
        <ele>2661.1</ele>
        <time>2018-08-11T18:57:25Z</time>
      </trkpt>
      <trkpt lat="4.5033600" lon="-74.2717350">
        <ele>2661.0</ele>
        <time>2018-08-11T18:57:26Z</time>
      </trkpt>
      <trkpt lat="4.5034200" lon="-74.2717200">
        <ele>2660.9</ele>
        <time>2018-08-11T18:57:27Z</time>
      </trkpt>
      <trkpt lat="4.5034780" lon="-74.2717030">
        <ele>2660.7</ele>
        <time>2018-08-11T18:57:28Z</time>
      </trkpt>
      <trkpt lat="4.5035380" lon="-74.2716870">
        <ele>2660.6</ele>
        <time>2018-08-11T18:57:29Z</time>
      </trkpt>
      <trkpt lat="4.5035950" lon="-74.2716670">
        <ele>2660.5</ele>
        <time>2018-08-11T18:57:30Z</time>
      </trkpt>
      <trkpt lat="4.5036500" lon="-74.2716430">
        <ele>2660.3</ele>
        <time>2018-08-11T18:57:31Z</time>
      </trkpt>
      <trkpt lat="4.5037030" lon="-74.2716180">
        <ele>2660.1</ele>
        <time>2018-08-11T18:57:32Z</time>
      </trkpt>
      <trkpt lat="4.5037500" lon="-74.2716030">
        <ele>2660.0</ele>
        <time>2018-08-11T18:57:33Z</time>
      </trkpt>
      <trkpt lat="4.5037970" lon="-74.2715930">
        <ele>2659.8</ele>
        <time>2018-08-11T18:57:34Z</time>
      </trkpt>
      <trkpt lat="4.5038430" lon="-74.2715950">
        <ele>2659.6</ele>
        <time>2018-08-11T18:57:35Z</time>
      </trkpt>
      <trkpt lat="4.5038880" lon="-74.2716150">
        <ele>2659.4</ele>
        <time>2018-08-11T18:57:36Z</time>
      </trkpt>
      <trkpt lat="4.5039300" lon="-74.2716450">
        <ele>2659.2</ele>
        <time>2018-08-11T18:57:37Z</time>
      </trkpt>
      <trkpt lat="4.5039620" lon="-74.2716870">
        <ele>2658.9</ele>
        <time>2018-08-11T18:57:38Z</time>
      </trkpt>
      <trkpt lat="4.5039830" lon="-74.2717430">
        <ele>2658.7</ele>
        <time>2018-08-11T18:57:39Z</time>
      </trkpt>
      <trkpt lat="4.5039950" lon="-74.2718030">
        <ele>2658.5</ele>
        <time>2018-08-11T18:57:40Z</time>
      </trkpt>
      <trkpt lat="4.5040100" lon="-74.2718620">
        <ele>2658.2</ele>
        <time>2018-08-11T18:57:41Z</time>
      </trkpt>
      <trkpt lat="4.5040220" lon="-74.2719200">
        <ele>2657.9</ele>
        <time>2018-08-11T18:57:42Z</time>
      </trkpt>
      <trkpt lat="4.5040330" lon="-74.2719770">
        <ele>2657.6</ele>
        <time>2018-08-11T18:57:43Z</time>
      </trkpt>
      <trkpt lat="4.5040400" lon="-74.2720330">
        <ele>2657.3</ele>
        <time>2018-08-11T18:57:44Z</time>
      </trkpt>
      <trkpt lat="4.5040480" lon="-74.2720920">
        <ele>2657.0</ele>
        <time>2018-08-11T18:57:45Z</time>
      </trkpt>
      <trkpt lat="4.5040570" lon="-74.2721530">
        <ele>2656.8</ele>
        <time>2018-08-11T18:57:46Z</time>
      </trkpt>
      <trkpt lat="4.5040600" lon="-74.2722180">
        <ele>2656.5</ele>
        <time>2018-08-11T18:57:47Z</time>
      </trkpt>
      <trkpt lat="4.5040630" lon="-74.2722830">
        <ele>2656.3</ele>
        <time>2018-08-11T18:57:48Z</time>
      </trkpt>
      <trkpt lat="4.5040550" lon="-74.2723600">
        <ele>2656.1</ele>
        <time>2018-08-11T18:57:49Z</time>
      </trkpt>
      <trkpt lat="4.5040530" lon="-74.2724200">
        <ele>2655.9</ele>
        <time>2018-08-11T18:57:50Z</time>
      </trkpt>
      <trkpt lat="4.5040520" lon="-74.2724850">
        <ele>2655.7</ele>
        <time>2018-08-11T18:57:51Z</time>
      </trkpt>
      <trkpt lat="4.5040430" lon="-74.2725470">
        <ele>2655.5</ele>
        <time>2018-08-11T18:57:52Z</time>
      </trkpt>
      <trkpt lat="4.5040280" lon="-74.2726130">
        <ele>2655.3</ele>
        <time>2018-08-11T18:57:53Z</time>
      </trkpt>
      <trkpt lat="4.5040250" lon="-74.2726830">
        <ele>2655.1</ele>
        <time>2018-08-11T18:57:54Z</time>
      </trkpt>
      <trkpt lat="4.5040120" lon="-74.2727500">
        <ele>2654.9</ele>
        <time>2018-08-11T18:57:55Z</time>
      </trkpt>
      <trkpt lat="4.5040080" lon="-74.2728170">
        <ele>2654.7</ele>
        <time>2018-08-11T18:57:56Z</time>
      </trkpt>
      <trkpt lat="4.5040030" lon="-74.2728780">
        <ele>2654.5</ele>
        <time>2018-08-11T18:57:57Z</time>
      </trkpt>
      <trkpt lat="4.5039880" lon="-74.2729420">
        <ele>2654.2</ele>
        <time>2018-08-11T18:57:58Z</time>
      </trkpt>
      <trkpt lat="4.5039620" lon="-74.2730100">
        <ele>2653.9</ele>
        <time>2018-08-11T18:57:59Z</time>
      </trkpt>
      <trkpt lat="4.5039480" lon="-74.2730720">
        <ele>2653.7</ele>
        <time>2018-08-11T18:58:00Z</time>
      </trkpt>
      <trkpt lat="4.5039380" lon="-74.2731280">
        <ele>2653.5</ele>
        <time>2018-08-11T18:58:01Z</time>
      </trkpt>
      <trkpt lat="4.5039330" lon="-74.2731850">
        <ele>2653.3</ele>
        <time>2018-08-11T18:58:02Z</time>
      </trkpt>
      <trkpt lat="4.5039470" lon="-74.2732330">
        <ele>2653.1</ele>
        <time>2018-08-11T18:58:03Z</time>
      </trkpt>
      <trkpt lat="4.5039630" lon="-74.2732800">
        <ele>2652.8</ele>
        <time>2018-08-11T18:58:04Z</time>
      </trkpt>
      <trkpt lat="4.5040130" lon="-74.2733020">
        <ele>2652.5</ele>
        <time>2018-08-11T18:58:05Z</time>
      </trkpt>
      <trkpt lat="4.5040650" lon="-74.2733100">
        <ele>2652.2</ele>
        <time>2018-08-11T18:58:06Z</time>
      </trkpt>
      <trkpt lat="4.5041250" lon="-74.2733070">
        <ele>2651.7</ele>
        <time>2018-08-11T18:58:07Z</time>
      </trkpt>
      <trkpt lat="4.5041820" lon="-74.2732970">
        <ele>2651.4</ele>
        <time>2018-08-11T18:58:08Z</time>
      </trkpt>
      <trkpt lat="4.5042380" lon="-74.2732820">
        <ele>2651.0</ele>
        <time>2018-08-11T18:58:09Z</time>
      </trkpt>
      <trkpt lat="4.5042970" lon="-74.2732620">
        <ele>2650.3</ele>
        <time>2018-08-11T18:58:10Z</time>
      </trkpt>
      <trkpt lat="4.5043500" lon="-74.2732400">
        <ele>2649.6</ele>
        <time>2018-08-11T18:58:11Z</time>
      </trkpt>
      <trkpt lat="4.5043970" lon="-74.2732170">
        <ele>2649.1</ele>
        <time>2018-08-11T18:58:12Z</time>
      </trkpt>
      <trkpt lat="4.5044470" lon="-74.2731950">
        <ele>2648.5</ele>
        <time>2018-08-11T18:58:13Z</time>
      </trkpt>
      <trkpt lat="4.5045000" lon="-74.2731680">
        <ele>2647.9</ele>
        <time>2018-08-11T18:58:14Z</time>
      </trkpt>
      <trkpt lat="4.5045530" lon="-74.2731320">
        <ele>2647.2</ele>
        <time>2018-08-11T18:58:15Z</time>
      </trkpt>
      <trkpt lat="4.5045970" lon="-74.2730830">
        <ele>2646.6</ele>
        <time>2018-08-11T18:58:16Z</time>
      </trkpt>
      <trkpt lat="4.5046320" lon="-74.2730250">
        <ele>2645.9</ele>
        <time>2018-08-11T18:58:17Z</time>
      </trkpt>
      <trkpt lat="4.5046530" lon="-74.2729520">
        <ele>2645.1</ele>
        <time>2018-08-11T18:58:18Z</time>
      </trkpt>
      <trkpt lat="4.5046820" lon="-74.2728730">
        <ele>2644.1</ele>
        <time>2018-08-11T18:58:19Z</time>
      </trkpt>
      <trkpt lat="4.5047000" lon="-74.2727880">
        <ele>2643.4</ele>
        <time>2018-08-11T18:58:20Z</time>
      </trkpt>
      <trkpt lat="4.5047180" lon="-74.2727020">
        <ele>2642.9</ele>
        <time>2018-08-11T18:58:21Z</time>
      </trkpt>
      <trkpt lat="4.5047330" lon="-74.2726170">
        <ele>2642.1</ele>
        <time>2018-08-11T18:58:22Z</time>
      </trkpt>
      <trkpt lat="4.5047530" lon="-74.2725250">
        <ele>2641.3</ele>
        <time>2018-08-11T18:58:23Z</time>
      </trkpt>
      <trkpt lat="4.5047730" lon="-74.2724370">
        <ele>2640.8</ele>
        <time>2018-08-11T18:58:24Z</time>
      </trkpt>
      <trkpt lat="4.5047970" lon="-74.2723570">
        <ele>2640.3</ele>
        <time>2018-08-11T18:58:25Z</time>
      </trkpt>
      <trkpt lat="4.5048200" lon="-74.2722830">
        <ele>2639.9</ele>
        <time>2018-08-11T18:58:26Z</time>
      </trkpt>
      <trkpt lat="4.5048420" lon="-74.2722170">
        <ele>2639.4</ele>
        <time>2018-08-11T18:58:27Z</time>
      </trkpt>
      <trkpt lat="4.5048570" lon="-74.2721550">
        <ele>2639.0</ele>
        <time>2018-08-11T18:58:28Z</time>
      </trkpt>
      <trkpt lat="4.5048720" lon="-74.2720930">
        <ele>2638.5</ele>
        <time>2018-08-11T18:58:29Z</time>
      </trkpt>
      <trkpt lat="4.5048870" lon="-74.2720320">
        <ele>2638.0</ele>
        <time>2018-08-11T18:58:30Z</time>
      </trkpt>
      <trkpt lat="4.5048980" lon="-74.2719650">
        <ele>2637.4</ele>
        <time>2018-08-11T18:58:31Z</time>
      </trkpt>
      <trkpt lat="4.5049150" lon="-74.2718980">
        <ele>2636.8</ele>
        <time>2018-08-11T18:58:32Z</time>
      </trkpt>
      <trkpt lat="4.5049350" lon="-74.2718330">
        <ele>2636.1</ele>
        <time>2018-08-11T18:58:33Z</time>
      </trkpt>
      <trkpt lat="4.5049570" lon="-74.2717670">
        <ele>2635.5</ele>
        <time>2018-08-11T18:58:34Z</time>
      </trkpt>
      <trkpt lat="4.5049820" lon="-74.2716980">
        <ele>2634.8</ele>
        <time>2018-08-11T18:58:35Z</time>
      </trkpt>
      <trkpt lat="4.5050050" lon="-74.2716330">
        <ele>2633.6</ele>
        <time>2018-08-11T18:58:36Z</time>
      </trkpt>
      <trkpt lat="4.5050350" lon="-74.2715700">
        <ele>2632.4</ele>
        <time>2018-08-11T18:58:37Z</time>
      </trkpt>
      <trkpt lat="4.5050600" lon="-74.2715080">
        <ele>2631.4</ele>
        <time>2018-08-11T18:58:38Z</time>
      </trkpt>
      <trkpt lat="4.5050870" lon="-74.2714430">
        <ele>2630.7</ele>
        <time>2018-08-11T18:58:39Z</time>
      </trkpt>
      <trkpt lat="4.5051150" lon="-74.2713750">
        <ele>2630.0</ele>
        <time>2018-08-11T18:58:40Z</time>
      </trkpt>
      <trkpt lat="4.5051400" lon="-74.2713070">
        <ele>2629.3</ele>
        <time>2018-08-11T18:58:41Z</time>
      </trkpt>
      <trkpt lat="4.5051720" lon="-74.2712380">
        <ele>2628.7</ele>
        <time>2018-08-11T18:58:42Z</time>
      </trkpt>
      <trkpt lat="4.5052020" lon="-74.2711680">
        <ele>2627.8</ele>
        <time>2018-08-11T18:58:43Z</time>
      </trkpt>
      <trkpt lat="4.5052320" lon="-74.2710930">
        <ele>2626.7</ele>
        <time>2018-08-11T18:58:44Z</time>
      </trkpt>
      <trkpt lat="4.5052580" lon="-74.2710170">
        <ele>2625.8</ele>
        <time>2018-08-11T18:58:45Z</time>
      </trkpt>
      <trkpt lat="4.5052820" lon="-74.2709420">
        <ele>2625.0</ele>
        <time>2018-08-11T18:58:46Z</time>
      </trkpt>
      <trkpt lat="4.5053100" lon="-74.2708700">
        <ele>2624.2</ele>
        <time>2018-08-11T18:58:47Z</time>
      </trkpt>
      <trkpt lat="4.5053350" lon="-74.2708020">
        <ele>2623.4</ele>
        <time>2018-08-11T18:58:48Z</time>
      </trkpt>
      <trkpt lat="4.5053670" lon="-74.2707280">
        <ele>2622.1</ele>
        <time>2018-08-11T18:58:49Z</time>
      </trkpt>
      <trkpt lat="4.5053950" lon="-74.2706570">
        <ele>2620.9</ele>
        <time>2018-08-11T18:58:50Z</time>
      </trkpt>
      <trkpt lat="4.5054320" lon="-74.2705880">
        <ele>2619.8</ele>
        <time>2018-08-11T18:58:51Z</time>
      </trkpt>
      <trkpt lat="4.5054630" lon="-74.2705200">
        <ele>2618.8</ele>
        <time>2018-08-11T18:58:52Z</time>
      </trkpt>
      <trkpt lat="4.5054870" lon="-74.2704570">
        <ele>2618.0</ele>
        <time>2018-08-11T18:58:53Z</time>
      </trkpt>
      <trkpt lat="4.5055050" lon="-74.2704050">
        <ele>2617.0</ele>
        <time>2018-08-11T18:58:54Z</time>
      </trkpt>
      <trkpt lat="4.5055200" lon="-74.2703600">
        <ele>2616.1</ele>
        <time>2018-08-11T18:58:55Z</time>
      </trkpt>
      <trkpt lat="4.5055330" lon="-74.2703220">
        <ele>2615.2</ele>
        <time>2018-08-11T18:58:56Z</time>
      </trkpt>
      <trkpt lat="4.5055580" lon="-74.2702870">
        <ele>2614.3</ele>
        <time>2018-08-11T18:58:57Z</time>
      </trkpt>
      <trkpt lat="4.5055830" lon="-74.2702570">
        <ele>2613.4</ele>
        <time>2018-08-11T18:58:58Z</time>
      </trkpt>
      <trkpt lat="4.5056150" lon="-74.2702270">
        <ele>2612.5</ele>
        <time>2018-08-11T18:58:59Z</time>
      </trkpt>
      <trkpt lat="4.5056470" lon="-74.2701970">
        <ele>2611.6</ele>
        <time>2018-08-11T18:59:00Z</time>
      </trkpt>
      <trkpt lat="4.5056900" lon="-74.2701630">
        <ele>2610.7</ele>
        <time>2018-08-11T18:59:01Z</time>
      </trkpt>
      <trkpt lat="4.5057380" lon="-74.2701270">
        <ele>2609.9</ele>
        <time>2018-08-11T18:59:02Z</time>
      </trkpt>
      <trkpt lat="4.5057920" lon="-74.2700900">
        <ele>2609.3</ele>
        <time>2018-08-11T18:59:03Z</time>
      </trkpt>
      <trkpt lat="4.5058520" lon="-74.2700480">
        <ele>2608.7</ele>
        <time>2018-08-11T18:59:04Z</time>
      </trkpt>
      <trkpt lat="4.5059170" lon="-74.2700120">
        <ele>2608.3</ele>
        <time>2018-08-11T18:59:05Z</time>
      </trkpt>
      <trkpt lat="4.5059820" lon="-74.2699780">
        <ele>2607.7</ele>
        <time>2018-08-11T18:59:06Z</time>
      </trkpt>
      <trkpt lat="4.5060450" lon="-74.2699430">
        <ele>2607.0</ele>
        <time>2018-08-11T18:59:07Z</time>
      </trkpt>
      <trkpt lat="4.5061070" lon="-74.2699100">
        <ele>2606.4</ele>
        <time>2018-08-11T18:59:08Z</time>
      </trkpt>
      <trkpt lat="4.5061680" lon="-74.2698770">
        <ele>2605.9</ele>
        <time>2018-08-11T18:59:09Z</time>
      </trkpt>
      <trkpt lat="4.5062270" lon="-74.2698470">
        <ele>2605.3</ele>
        <time>2018-08-11T18:59:10Z</time>
      </trkpt>
      <trkpt lat="4.5062850" lon="-74.2698200">
        <ele>2604.6</ele>
        <time>2018-08-11T18:59:11Z</time>
      </trkpt>
      <trkpt lat="4.5063420" lon="-74.2697900">
        <ele>2603.7</ele>
        <time>2018-08-11T18:59:12Z</time>
      </trkpt>
      <trkpt lat="4.5063980" lon="-74.2697570">
        <ele>2602.8</ele>
        <time>2018-08-11T18:59:13Z</time>
      </trkpt>
      <trkpt lat="4.5064570" lon="-74.2697200">
        <ele>2601.7</ele>
        <time>2018-08-11T18:59:14Z</time>
      </trkpt>
      <trkpt lat="4.5065100" lon="-74.2696880">
        <ele>2600.5</ele>
        <time>2018-08-11T18:59:15Z</time>
      </trkpt>
      <trkpt lat="4.5065500" lon="-74.2696580">
        <ele>2599.3</ele>
        <time>2018-08-11T18:59:16Z</time>
      </trkpt>
      <trkpt lat="4.5065780" lon="-74.2696280">
        <ele>2598.6</ele>
        <time>2018-08-11T18:59:17Z</time>
      </trkpt>
      <trkpt lat="4.5065950" lon="-74.2696000">
        <ele>2597.9</ele>
        <time>2018-08-11T18:59:18Z</time>
      </trkpt>
      <trkpt lat="4.5066030" lon="-74.2695620">
        <ele>2597.7</ele>
        <time>2018-08-11T18:59:20Z</time>
      </trkpt>
      <trkpt lat="4.5066080" lon="-74.2695230">
        <ele>2597.4</ele>
        <time>2018-08-11T18:59:22Z</time>
      </trkpt>
      <trkpt lat="4.5066180" lon="-74.2694720">
        <ele>2597.0</ele>
        <time>2018-08-11T18:59:24Z</time>
      </trkpt>
      <trkpt lat="4.5066230" lon="-74.2694370">
        <ele>2596.5</ele>
        <time>2018-08-11T18:59:25Z</time>
      </trkpt>
      <trkpt lat="4.5066280" lon="-74.2694020">
        <ele>2596.0</ele>
        <time>2018-08-11T18:59:26Z</time>
      </trkpt>
      <trkpt lat="4.5066350" lon="-74.2693620">
        <ele>2595.3</ele>
        <time>2018-08-11T18:59:27Z</time>
      </trkpt>
      <trkpt lat="4.5066380" lon="-74.2693220">
        <ele>2594.6</ele>
        <time>2018-08-11T18:59:28Z</time>
      </trkpt>
      <trkpt lat="4.5066370" lon="-74.2692800">
        <ele>2593.9</ele>
        <time>2018-08-11T18:59:29Z</time>
      </trkpt>
      <trkpt lat="4.5066330" lon="-74.2692380">
        <ele>2593.3</ele>
        <time>2018-08-11T18:59:30Z</time>
      </trkpt>
      <trkpt lat="4.5066300" lon="-74.2691970">
        <ele>2592.7</ele>
        <time>2018-08-11T18:59:31Z</time>
      </trkpt>
      <trkpt lat="4.5066250" lon="-74.2691520">
        <ele>2592.1</ele>
        <time>2018-08-11T18:59:32Z</time>
      </trkpt>
      <trkpt lat="4.5066180" lon="-74.2691070">
        <ele>2591.5</ele>
        <time>2018-08-11T18:59:33Z</time>
      </trkpt>
      <trkpt lat="4.5066080" lon="-74.2690600">
        <ele>2591.0</ele>
        <time>2018-08-11T18:59:34Z</time>
      </trkpt>
      <trkpt lat="4.5066000" lon="-74.2690120">
        <ele>2590.6</ele>
        <time>2018-08-11T18:59:35Z</time>
      </trkpt>
      <trkpt lat="4.5065870" lon="-74.2689650">
        <ele>2590.3</ele>
        <time>2018-08-11T18:59:36Z</time>
      </trkpt>
      <trkpt lat="4.5065780" lon="-74.2689180">
        <ele>2589.8</ele>
        <time>2018-08-11T18:59:37Z</time>
      </trkpt>
      <trkpt lat="4.5065770" lon="-74.2688720">
        <ele>2589.4</ele>
        <time>2018-08-11T18:59:38Z</time>
      </trkpt>
      <trkpt lat="4.5065750" lon="-74.2688270">
        <ele>2589.0</ele>
        <time>2018-08-11T18:59:39Z</time>
      </trkpt>
      <trkpt lat="4.5065720" lon="-74.2687820">
        <ele>2588.5</ele>
        <time>2018-08-11T18:59:40Z</time>
      </trkpt>
      <trkpt lat="4.5065780" lon="-74.2687380">
        <ele>2588.1</ele>
        <time>2018-08-11T18:59:41Z</time>
      </trkpt>
      <trkpt lat="4.5065930" lon="-74.2686930">
        <ele>2587.6</ele>
        <time>2018-08-11T18:59:42Z</time>
      </trkpt>
      <trkpt lat="4.5066070" lon="-74.2686480">
        <ele>2587.2</ele>
        <time>2018-08-11T18:59:43Z</time>
      </trkpt>
      <trkpt lat="4.5066230" lon="-74.2686020">
        <ele>2586.7</ele>
        <time>2018-08-11T18:59:44Z</time>
      </trkpt>
      <trkpt lat="4.5066430" lon="-74.2685570">
        <ele>2586.3</ele>
        <time>2018-08-11T18:59:45Z</time>
      </trkpt>
      <trkpt lat="4.5066580" lon="-74.2685130">
        <ele>2585.8</ele>
        <time>2018-08-11T18:59:46Z</time>
      </trkpt>
      <trkpt lat="4.5066700" lon="-74.2684670">
        <ele>2585.4</ele>
        <time>2018-08-11T18:59:47Z</time>
      </trkpt>
      <trkpt lat="4.5066730" lon="-74.2684220">
        <ele>2585.0</ele>
        <time>2018-08-11T18:59:48Z</time>
      </trkpt>
      <trkpt lat="4.5066720" lon="-74.2683750">
        <ele>2584.5</ele>
        <time>2018-08-11T18:59:49Z</time>
      </trkpt>
      <trkpt lat="4.5066670" lon="-74.2683280">
        <ele>2584.1</ele>
        <time>2018-08-11T18:59:50Z</time>
      </trkpt>
      <trkpt lat="4.5066530" lon="-74.2682800">
        <ele>2583.6</ele>
        <time>2018-08-11T18:59:51Z</time>
      </trkpt>
      <trkpt lat="4.5066380" lon="-74.2682320">
        <ele>2583.2</ele>
        <time>2018-08-11T18:59:52Z</time>
      </trkpt>
      <trkpt lat="4.5066250" lon="-74.2681830">
        <ele>2582.7</ele>
        <time>2018-08-11T18:59:53Z</time>
      </trkpt>
      <trkpt lat="4.5066100" lon="-74.2681370">
        <ele>2582.2</ele>
        <time>2018-08-11T18:59:54Z</time>
      </trkpt>
      <trkpt lat="4.5065970" lon="-74.2680880">
        <ele>2581.7</ele>
        <time>2018-08-11T18:59:55Z</time>
      </trkpt>
      <trkpt lat="4.5065730" lon="-74.2680430">
        <ele>2581.2</ele>
        <time>2018-08-11T18:59:56Z</time>
      </trkpt>
      <trkpt lat="4.5065330" lon="-74.2680170">
        <ele>2580.7</ele>
        <time>2018-08-11T18:59:57Z</time>
      </trkpt>
      <trkpt lat="4.5064600" lon="-74.2680150">
        <ele>2580.0</ele>
        <time>2018-08-11T18:59:58Z</time>
      </trkpt>
      <trkpt lat="4.5063950" lon="-74.2680200">
        <ele>2579.4</ele>
        <time>2018-08-11T18:59:59Z</time>
      </trkpt>
      <trkpt lat="4.5063330" lon="-74.2680330">
        <ele>2578.9</ele>
        <time>2018-08-11T19:00:00Z</time>
      </trkpt>
      <trkpt lat="4.5062650" lon="-74.2680520">
        <ele>2578.3</ele>
        <time>2018-08-11T19:00:01Z</time>
      </trkpt>
      <trkpt lat="4.5062000" lon="-74.2680650">
        <ele>2577.7</ele>
        <time>2018-08-11T19:00:02Z</time>
      </trkpt>
      <trkpt lat="4.5061370" lon="-74.2680750">
        <ele>2577.3</ele>
        <time>2018-08-11T19:00:03Z</time>
      </trkpt>
      <trkpt lat="4.5060730" lon="-74.2680820">
        <ele>2577.0</ele>
        <time>2018-08-11T19:00:04Z</time>
      </trkpt>
      <trkpt lat="4.5060080" lon="-74.2680880">
        <ele>2576.7</ele>
        <time>2018-08-11T19:00:05Z</time>
      </trkpt>
      <trkpt lat="4.5059420" lon="-74.2680930">
        <ele>2576.6</ele>
        <time>2018-08-11T19:00:06Z</time>
      </trkpt>
      <trkpt lat="4.5058770" lon="-74.2680930">
        <ele>2576.4</ele>
        <time>2018-08-11T19:00:07Z</time>
      </trkpt>
      <trkpt lat="4.5058130" lon="-74.2680930">
        <ele>2576.4</ele>
        <time>2018-08-11T19:00:08Z</time>
      </trkpt>
      <trkpt lat="4.5057530" lon="-74.2680970">
        <ele>2576.3</ele>
        <time>2018-08-11T19:00:09Z</time>
      </trkpt>
      <trkpt lat="4.5057000" lon="-74.2681050">
        <ele>2576.3</ele>
        <time>2018-08-11T19:00:10Z</time>
      </trkpt>
      <trkpt lat="4.5056450" lon="-74.2681170">
        <ele>2576.3</ele>
        <time>2018-08-11T19:00:11Z</time>
      </trkpt>
      <trkpt lat="4.5055830" lon="-74.2681230">
        <ele>2576.2</ele>
        <time>2018-08-11T19:00:12Z</time>
      </trkpt>
      <trkpt lat="4.5055430" lon="-74.2681250">
        <ele>2576.2</ele>
        <time>2018-08-11T19:00:13Z</time>
      </trkpt>
      <trkpt lat="4.5054920" lon="-74.2681320">
        <ele>2576.1</ele>
        <time>2018-08-11T19:00:14Z</time>
      </trkpt>
      <trkpt lat="4.5054400" lon="-74.2681350">
        <ele>2576.1</ele>
        <time>2018-08-11T19:00:15Z</time>
      </trkpt>
      <trkpt lat="4.5053900" lon="-74.2681350">
        <ele>2576.1</ele>
        <time>2018-08-11T19:00:16Z</time>
      </trkpt>
      <trkpt lat="4.5053380" lon="-74.2681370">
        <ele>2576.0</ele>
        <time>2018-08-11T19:00:17Z</time>
      </trkpt>
      <trkpt lat="4.5052880" lon="-74.2681430">
        <ele>2576.0</ele>
        <time>2018-08-11T19:00:18Z</time>
      </trkpt>
      <trkpt lat="4.5052370" lon="-74.2681580">
        <ele>2576.0</ele>
        <time>2018-08-11T19:00:19Z</time>
      </trkpt>
      <trkpt lat="4.5051900" lon="-74.2681630">
        <ele>2575.9</ele>
        <time>2018-08-11T19:00:20Z</time>
      </trkpt>
      <trkpt lat="4.5051270" lon="-74.2681680">
        <ele>2575.9</ele>
        <time>2018-08-11T19:00:21Z</time>
      </trkpt>
      <trkpt lat="4.5050600" lon="-74.2681730">
        <ele>2575.7</ele>
        <time>2018-08-11T19:00:22Z</time>
      </trkpt>
      <trkpt lat="4.5049850" lon="-74.2681830">
        <ele>2575.6</ele>
        <time>2018-08-11T19:00:23Z</time>
      </trkpt>
      <trkpt lat="4.5049220" lon="-74.2681970">
        <ele>2575.3</ele>
        <time>2018-08-11T19:00:24Z</time>
      </trkpt>
      <trkpt lat="4.5048350" lon="-74.2682170">
        <ele>2575.0</ele>
        <time>2018-08-11T19:00:25Z</time>
      </trkpt>
      <trkpt lat="4.5047530" lon="-74.2682320">
        <ele>2574.7</ele>
        <time>2018-08-11T19:00:26Z</time>
      </trkpt>
      <trkpt lat="4.5046600" lon="-74.2682450">
        <ele>2574.3</ele>
        <time>2018-08-11T19:00:27Z</time>
      </trkpt>
      <trkpt lat="4.5045720" lon="-74.2682620">
        <ele>2574.0</ele>
        <time>2018-08-11T19:00:28Z</time>
      </trkpt>
      <trkpt lat="4.5044570" lon="-74.2682650">
        <ele>2573.5</ele>
        <time>2018-08-11T19:00:29Z</time>
      </trkpt>
      <trkpt lat="4.5043680" lon="-74.2682800">
        <ele>2573.2</ele>
        <time>2018-08-11T19:00:30Z</time>
      </trkpt>
      <trkpt lat="4.5042870" lon="-74.2682970">
        <ele>2572.9</ele>
        <time>2018-08-11T19:00:31Z</time>
      </trkpt>
      <trkpt lat="4.5042120" lon="-74.2683130">
        <ele>2572.8</ele>
        <time>2018-08-11T19:00:32Z</time>
      </trkpt>
      <trkpt lat="4.5041370" lon="-74.2683280">
        <ele>2572.7</ele>
        <time>2018-08-11T19:00:33Z</time>
      </trkpt>
      <trkpt lat="4.5040630" lon="-74.2683370">
        <ele>2572.7</ele>
        <time>2018-08-11T19:00:34Z</time>
      </trkpt>
      <trkpt lat="4.5039930" lon="-74.2683500">
        <ele>2572.6</ele>
        <time>2018-08-11T19:00:35Z</time>
      </trkpt>
      <trkpt lat="4.5039250" lon="-74.2683630">
        <ele>2572.6</ele>
        <time>2018-08-11T19:00:36Z</time>
      </trkpt>
      <trkpt lat="4.5038570" lon="-74.2683780">
        <ele>2572.6</ele>
        <time>2018-08-11T19:00:37Z</time>
      </trkpt>
      <trkpt lat="4.5037900" lon="-74.2683930">
        <ele>2572.6</ele>
        <time>2018-08-11T19:00:38Z</time>
      </trkpt>
      <trkpt lat="4.5037270" lon="-74.2684020">
        <ele>2572.6</ele>
        <time>2018-08-11T19:00:39Z</time>
      </trkpt>
      <trkpt lat="4.5036630" lon="-74.2684170">
        <ele>2572.6</ele>
        <time>2018-08-11T19:00:40Z</time>
      </trkpt>
      <trkpt lat="4.5035980" lon="-74.2684280">
        <ele>2572.6</ele>
        <time>2018-08-11T19:00:41Z</time>
      </trkpt>
      <trkpt lat="4.5035430" lon="-74.2684400">
        <ele>2572.6</ele>
        <time>2018-08-11T19:00:42Z</time>
      </trkpt>
      <trkpt lat="4.5034880" lon="-74.2684480">
        <ele>2572.6</ele>
        <time>2018-08-11T19:00:43Z</time>
      </trkpt>
      <trkpt lat="4.5034350" lon="-74.2684600">
        <ele>2572.7</ele>
        <time>2018-08-11T19:00:44Z</time>
      </trkpt>
      <trkpt lat="4.5033820" lon="-74.2684770">
        <ele>2572.7</ele>
        <time>2018-08-11T19:00:45Z</time>
      </trkpt>
      <trkpt lat="4.5033300" lon="-74.2684930">
        <ele>2572.7</ele>
        <time>2018-08-11T19:00:46Z</time>
      </trkpt>
      <trkpt lat="4.5032850" lon="-74.2685170">
        <ele>2572.7</ele>
        <time>2018-08-11T19:00:47Z</time>
      </trkpt>
      <trkpt lat="4.5032350" lon="-74.2685470">
        <ele>2572.7</ele>
        <time>2018-08-11T19:00:48Z</time>
      </trkpt>
      <trkpt lat="4.5031880" lon="-74.2685750">
        <ele>2572.7</ele>
        <time>2018-08-11T19:00:49Z</time>
      </trkpt>
      <trkpt lat="4.5031400" lon="-74.2686080">
        <ele>2572.8</ele>
        <time>2018-08-11T19:00:50Z</time>
      </trkpt>
      <trkpt lat="4.5030930" lon="-74.2686420">
        <ele>2572.8</ele>
        <time>2018-08-11T19:00:51Z</time>
      </trkpt>
      <trkpt lat="4.5030470" lon="-74.2686750">
        <ele>2572.8</ele>
        <time>2018-08-11T19:00:52Z</time>
      </trkpt>
      <trkpt lat="4.5029970" lon="-74.2687050">
        <ele>2572.8</ele>
        <time>2018-08-11T19:00:53Z</time>
      </trkpt>
      <trkpt lat="4.5029500" lon="-74.2687400">
        <ele>2572.8</ele>
        <time>2018-08-11T19:00:54Z</time>
      </trkpt>
      <trkpt lat="4.5029030" lon="-74.2687650">
        <ele>2572.9</ele>
        <time>2018-08-11T19:00:55Z</time>
      </trkpt>
      <trkpt lat="4.5028520" lon="-74.2687900">
        <ele>2572.9</ele>
        <time>2018-08-11T19:00:56Z</time>
      </trkpt>
      <trkpt lat="4.5028000" lon="-74.2687870">
        <ele>2572.9</ele>
        <time>2018-08-11T19:00:57Z</time>
      </trkpt>
      <trkpt lat="4.5027470" lon="-74.2687900">
        <ele>2572.9</ele>
        <time>2018-08-11T19:00:58Z</time>
      </trkpt>
      <trkpt lat="4.5026820" lon="-74.2687980">
        <ele>2572.9</ele>
        <time>2018-08-11T19:00:59Z</time>
      </trkpt>
      <trkpt lat="4.5026250" lon="-74.2688020">
        <ele>2573.0</ele>
        <time>2018-08-11T19:01:00Z</time>
      </trkpt>
      <trkpt lat="4.5025720" lon="-74.2688070">
        <ele>2573.0</ele>
        <time>2018-08-11T19:01:01Z</time>
      </trkpt>
      <trkpt lat="4.5025200" lon="-74.2688070">
        <ele>2573.0</ele>
        <time>2018-08-11T19:01:02Z</time>
      </trkpt>
      <trkpt lat="4.5024630" lon="-74.2688030">
        <ele>2573.0</ele>
        <time>2018-08-11T19:01:03Z</time>
      </trkpt>
      <trkpt lat="4.5024120" lon="-74.2688000">
        <ele>2573.0</ele>
        <time>2018-08-11T19:01:04Z</time>
      </trkpt>
      <trkpt lat="4.5023620" lon="-74.2687850">
        <ele>2573.0</ele>
        <time>2018-08-11T19:01:05Z</time>
      </trkpt>
      <trkpt lat="4.5023050" lon="-74.2687920">
        <ele>2573.0</ele>
        <time>2018-08-11T19:01:06Z</time>
      </trkpt>
      <trkpt lat="4.5022500" lon="-74.2688000">
        <ele>2573.0</ele>
        <time>2018-08-11T19:01:07Z</time>
      </trkpt>
      <trkpt lat="4.5021870" lon="-74.2688120">
        <ele>2573.0</ele>
        <time>2018-08-11T19:01:08Z</time>
      </trkpt>
      <trkpt lat="4.5021280" lon="-74.2688200">
        <ele>2573.1</ele>
        <time>2018-08-11T19:01:09Z</time>
      </trkpt>
      <trkpt lat="4.5020700" lon="-74.2688200">
        <ele>2573.1</ele>
        <time>2018-08-11T19:01:10Z</time>
      </trkpt>
      <trkpt lat="4.5020100" lon="-74.2688100">
        <ele>2573.1</ele>
        <time>2018-08-11T19:01:11Z</time>
      </trkpt>
      <trkpt lat="4.5019520" lon="-74.2688050">
        <ele>2573.1</ele>
        <time>2018-08-11T19:01:12Z</time>
      </trkpt>
      <trkpt lat="4.5018980" lon="-74.2688020">
        <ele>2573.1</ele>
        <time>2018-08-11T19:01:13Z</time>
      </trkpt>
      <trkpt lat="4.5018380" lon="-74.2688050">
        <ele>2573.1</ele>
        <time>2018-08-11T19:01:14Z</time>
      </trkpt>
      <trkpt lat="4.5017820" lon="-74.2688100">
        <ele>2573.1</ele>
        <time>2018-08-11T19:01:15Z</time>
      </trkpt>
      <trkpt lat="4.5017280" lon="-74.2688080">
        <ele>2573.1</ele>
        <time>2018-08-11T19:01:16Z</time>
      </trkpt>
      <trkpt lat="4.5016770" lon="-74.2688100">
        <ele>2573.1</ele>
        <time>2018-08-11T19:01:17Z</time>
      </trkpt>
      <trkpt lat="4.5016220" lon="-74.2688180">
        <ele>2573.1</ele>
        <time>2018-08-11T19:01:18Z</time>
      </trkpt>
      <trkpt lat="4.5015650" lon="-74.2688250">
        <ele>2573.1</ele>
        <time>2018-08-11T19:01:19Z</time>
      </trkpt>
      <trkpt lat="4.5015100" lon="-74.2688330">
        <ele>2573.1</ele>
        <time>2018-08-11T19:01:20Z</time>
      </trkpt>
      <trkpt lat="4.5014530" lon="-74.2688430">
        <ele>2573.1</ele>
        <time>2018-08-11T19:01:21Z</time>
      </trkpt>
      <trkpt lat="4.5014000" lon="-74.2688530">
        <ele>2573.1</ele>
        <time>2018-08-11T19:01:22Z</time>
      </trkpt>
      <trkpt lat="4.5013500" lon="-74.2688600">
        <ele>2573.1</ele>
        <time>2018-08-11T19:01:23Z</time>
      </trkpt>
      <trkpt lat="4.5013020" lon="-74.2688670">
        <ele>2573.0</ele>
        <time>2018-08-11T19:01:24Z</time>
      </trkpt>
      <trkpt lat="4.5012500" lon="-74.2688750">
        <ele>2573.0</ele>
        <time>2018-08-11T19:01:25Z</time>
      </trkpt>
      <trkpt lat="4.5011980" lon="-74.2688870">
        <ele>2573.0</ele>
        <time>2018-08-11T19:01:26Z</time>
      </trkpt>
      <trkpt lat="4.5011430" lon="-74.2688980">
        <ele>2573.0</ele>
        <time>2018-08-11T19:01:27Z</time>
      </trkpt>
      <trkpt lat="4.5010870" lon="-74.2689120">
        <ele>2572.9</ele>
        <time>2018-08-11T19:01:28Z</time>
      </trkpt>
      <trkpt lat="4.5010250" lon="-74.2689280">
        <ele>2572.9</ele>
        <time>2018-08-11T19:01:29Z</time>
      </trkpt>
      <trkpt lat="4.5009620" lon="-74.2689370">
        <ele>2572.8</ele>
        <time>2018-08-11T19:01:30Z</time>
      </trkpt>
      <trkpt lat="4.5009050" lon="-74.2689470">
        <ele>2572.8</ele>
        <time>2018-08-11T19:01:31Z</time>
      </trkpt>
      <trkpt lat="4.5008480" lon="-74.2689580">
        <ele>2572.7</ele>
        <time>2018-08-11T19:01:32Z</time>
      </trkpt>
      <trkpt lat="4.5007870" lon="-74.2689720">
        <ele>2572.6</ele>
        <time>2018-08-11T19:01:33Z</time>
      </trkpt>
      <trkpt lat="4.5007270" lon="-74.2689800">
        <ele>2572.4</ele>
        <time>2018-08-11T19:01:34Z</time>
      </trkpt>
      <trkpt lat="4.5006670" lon="-74.2689900">
        <ele>2572.2</ele>
        <time>2018-08-11T19:01:35Z</time>
      </trkpt>
      <trkpt lat="4.5005930" lon="-74.2689920">
        <ele>2572.0</ele>
        <time>2018-08-11T19:01:36Z</time>
      </trkpt>
      <trkpt lat="4.5005200" lon="-74.2689950">
        <ele>2571.9</ele>
        <time>2018-08-11T19:01:37Z</time>
      </trkpt>
      <trkpt lat="4.5004480" lon="-74.2689980">
        <ele>2571.9</ele>
        <time>2018-08-11T19:01:38Z</time>
      </trkpt>
      <trkpt lat="4.5003870" lon="-74.2690000">
        <ele>2571.8</ele>
        <time>2018-08-11T19:01:39Z</time>
      </trkpt>
      <trkpt lat="4.5003320" lon="-74.2689980">
        <ele>2571.8</ele>
        <time>2018-08-11T19:01:40Z</time>
      </trkpt>
      <trkpt lat="4.5002800" lon="-74.2689950">
        <ele>2571.8</ele>
        <time>2018-08-11T19:01:41Z</time>
      </trkpt>
      <trkpt lat="4.5002280" lon="-74.2689920">
        <ele>2571.8</ele>
        <time>2018-08-11T19:01:42Z</time>
      </trkpt>
      <trkpt lat="4.5001750" lon="-74.2689800">
        <ele>2571.8</ele>
        <time>2018-08-11T19:01:43Z</time>
      </trkpt>
      <trkpt lat="4.5001200" lon="-74.2689680">
        <ele>2571.8</ele>
        <time>2018-08-11T19:01:44Z</time>
      </trkpt>
      <trkpt lat="4.5000670" lon="-74.2689580">
        <ele>2571.8</ele>
        <time>2018-08-11T19:01:45Z</time>
      </trkpt>
      <trkpt lat="4.5000150" lon="-74.2689480">
        <ele>2571.8</ele>
        <time>2018-08-11T19:01:46Z</time>
      </trkpt>
      <trkpt lat="4.4999650" lon="-74.2689320">
        <ele>2571.8</ele>
        <time>2018-08-11T19:01:47Z</time>
      </trkpt>
      <trkpt lat="4.4999150" lon="-74.2689180">
        <ele>2571.8</ele>
        <time>2018-08-11T19:01:48Z</time>
      </trkpt>
      <trkpt lat="4.4998650" lon="-74.2689100">
        <ele>2571.8</ele>
        <time>2018-08-11T19:01:49Z</time>
      </trkpt>
      <trkpt lat="4.4998150" lon="-74.2688970">
        <ele>2571.8</ele>
        <time>2018-08-11T19:01:50Z</time>
      </trkpt>
      <trkpt lat="4.4997670" lon="-74.2688820">
        <ele>2571.9</ele>
        <time>2018-08-11T19:01:51Z</time>
      </trkpt>
      <trkpt lat="4.4997200" lon="-74.2688720">
        <ele>2571.9</ele>
        <time>2018-08-11T19:01:52Z</time>
      </trkpt>
      <trkpt lat="4.4996730" lon="-74.2688650">
        <ele>2571.9</ele>
        <time>2018-08-11T19:01:53Z</time>
      </trkpt>
      <trkpt lat="4.4996230" lon="-74.2688630">
        <ele>2572.0</ele>
        <time>2018-08-11T19:01:54Z</time>
      </trkpt>
      <trkpt lat="4.4995750" lon="-74.2688600">
        <ele>2572.1</ele>
        <time>2018-08-11T19:01:55Z</time>
      </trkpt>
      <trkpt lat="4.4995270" lon="-74.2688580">
        <ele>2572.2</ele>
        <time>2018-08-11T19:01:56Z</time>
      </trkpt>
      <trkpt lat="4.4994750" lon="-74.2688620">
        <ele>2572.3</ele>
        <time>2018-08-11T19:01:57Z</time>
      </trkpt>
      <trkpt lat="4.4994230" lon="-74.2688630">
        <ele>2572.5</ele>
        <time>2018-08-11T19:01:58Z</time>
      </trkpt>
      <trkpt lat="4.4993720" lon="-74.2688630">
        <ele>2572.6</ele>
        <time>2018-08-11T19:01:59Z</time>
      </trkpt>
      <trkpt lat="4.4993230" lon="-74.2688650">
        <ele>2572.9</ele>
        <time>2018-08-11T19:02:00Z</time>
      </trkpt>
      <trkpt lat="4.4992780" lon="-74.2688650">
        <ele>2573.2</ele>
        <time>2018-08-11T19:02:01Z</time>
      </trkpt>
      <trkpt lat="4.4992320" lon="-74.2688650">
        <ele>2573.5</ele>
        <time>2018-08-11T19:02:02Z</time>
      </trkpt>
      <trkpt lat="4.4991880" lon="-74.2688620">
        <ele>2573.8</ele>
        <time>2018-08-11T19:02:03Z</time>
      </trkpt>
      <trkpt lat="4.4991470" lon="-74.2688600">
        <ele>2574.0</ele>
        <time>2018-08-11T19:02:04Z</time>
      </trkpt>
      <trkpt lat="4.4991030" lon="-74.2688580">
        <ele>2574.1</ele>
        <time>2018-08-11T19:02:05Z</time>
      </trkpt>
      <trkpt lat="4.4990600" lon="-74.2688550">
        <ele>2574.2</ele>
        <time>2018-08-11T19:02:06Z</time>
      </trkpt>
      <trkpt lat="4.4990150" lon="-74.2688520">
        <ele>2574.3</ele>
        <time>2018-08-11T19:02:07Z</time>
      </trkpt>
      <trkpt lat="4.4989750" lon="-74.2688500">
        <ele>2574.4</ele>
        <time>2018-08-11T19:02:08Z</time>
      </trkpt>
      <trkpt lat="4.4989320" lon="-74.2688420">
        <ele>2574.4</ele>
        <time>2018-08-11T19:02:09Z</time>
      </trkpt>
      <trkpt lat="4.4988920" lon="-74.2688350">
        <ele>2574.4</ele>
        <time>2018-08-11T19:02:10Z</time>
      </trkpt>
      <trkpt lat="4.4988500" lon="-74.2688330">
        <ele>2574.5</ele>
        <time>2018-08-11T19:02:11Z</time>
      </trkpt>
      <trkpt lat="4.4988080" lon="-74.2688300">
        <ele>2574.5</ele>
        <time>2018-08-11T19:02:12Z</time>
      </trkpt>
      <trkpt lat="4.4987680" lon="-74.2688300">
        <ele>2574.5</ele>
        <time>2018-08-11T19:02:13Z</time>
      </trkpt>
      <trkpt lat="4.4987280" lon="-74.2688330">
        <ele>2574.6</ele>
        <time>2018-08-11T19:02:14Z</time>
      </trkpt>
      <trkpt lat="4.4986900" lon="-74.2688380">
        <ele>2574.6</ele>
        <time>2018-08-11T19:02:15Z</time>
      </trkpt>
      <trkpt lat="4.4986450" lon="-74.2688430">
        <ele>2574.6</ele>
        <time>2018-08-11T19:02:16Z</time>
      </trkpt>
      <trkpt lat="4.4986000" lon="-74.2688470">
        <ele>2574.7</ele>
        <time>2018-08-11T19:02:17Z</time>
      </trkpt>
      <trkpt lat="4.4985530" lon="-74.2688550">
        <ele>2574.7</ele>
        <time>2018-08-11T19:02:18Z</time>
      </trkpt>
      <trkpt lat="4.4985100" lon="-74.2688580">
        <ele>2574.8</ele>
        <time>2018-08-11T19:02:19Z</time>
      </trkpt>
      <trkpt lat="4.4984650" lon="-74.2688650">
        <ele>2574.8</ele>
        <time>2018-08-11T19:02:20Z</time>
      </trkpt>
      <trkpt lat="4.4984200" lon="-74.2688730">
        <ele>2574.8</ele>
        <time>2018-08-11T19:02:21Z</time>
      </trkpt>
      <trkpt lat="4.4983770" lon="-74.2688800">
        <ele>2574.9</ele>
        <time>2018-08-11T19:02:22Z</time>
      </trkpt>
      <trkpt lat="4.4983330" lon="-74.2688920">
        <ele>2574.9</ele>
        <time>2018-08-11T19:02:23Z</time>
      </trkpt>
      <trkpt lat="4.4982850" lon="-74.2689070">
        <ele>2574.9</ele>
        <time>2018-08-11T19:02:24Z</time>
      </trkpt>
      <trkpt lat="4.4982380" lon="-74.2689150">
        <ele>2575.0</ele>
        <time>2018-08-11T19:02:25Z</time>
      </trkpt>
      <trkpt lat="4.4981950" lon="-74.2689250">
        <ele>2575.1</ele>
        <time>2018-08-11T19:02:26Z</time>
      </trkpt>
      <trkpt lat="4.4981500" lon="-74.2689350">
        <ele>2575.2</ele>
        <time>2018-08-11T19:02:27Z</time>
      </trkpt>
      <trkpt lat="4.4981050" lon="-74.2689450">
        <ele>2575.3</ele>
        <time>2018-08-11T19:02:28Z</time>
      </trkpt>
      <trkpt lat="4.4980600" lon="-74.2689550">
        <ele>2575.5</ele>
        <time>2018-08-11T19:02:29Z</time>
      </trkpt>
      <trkpt lat="4.4980130" lon="-74.2689600">
        <ele>2575.7</ele>
        <time>2018-08-11T19:02:30Z</time>
      </trkpt>
      <trkpt lat="4.4979670" lon="-74.2689650">
        <ele>2576.0</ele>
        <time>2018-08-11T19:02:31Z</time>
      </trkpt>
      <trkpt lat="4.4979150" lon="-74.2689720">
        <ele>2576.3</ele>
        <time>2018-08-11T19:02:32Z</time>
      </trkpt>
      <trkpt lat="4.4978680" lon="-74.2689730">
        <ele>2576.6</ele>
        <time>2018-08-11T19:02:33Z</time>
      </trkpt>
      <trkpt lat="4.4978200" lon="-74.2689770">
        <ele>2576.8</ele>
        <time>2018-08-11T19:02:34Z</time>
      </trkpt>
      <trkpt lat="4.4977720" lon="-74.2689800">
        <ele>2576.9</ele>
        <time>2018-08-11T19:02:35Z</time>
      </trkpt>
      <trkpt lat="4.4977280" lon="-74.2689770">
        <ele>2576.9</ele>
        <time>2018-08-11T19:02:36Z</time>
      </trkpt>
      <trkpt lat="4.4976820" lon="-74.2689680">
        <ele>2577.0</ele>
        <time>2018-08-11T19:02:37Z</time>
      </trkpt>
      <trkpt lat="4.4976320" lon="-74.2689600">
        <ele>2577.0</ele>
        <time>2018-08-11T19:02:38Z</time>
      </trkpt>
      <trkpt lat="4.4975780" lon="-74.2689550">
        <ele>2577.1</ele>
        <time>2018-08-11T19:02:39Z</time>
      </trkpt>
      <trkpt lat="4.4975200" lon="-74.2689450">
        <ele>2577.1</ele>
        <time>2018-08-11T19:02:40Z</time>
      </trkpt>
      <trkpt lat="4.4974680" lon="-74.2689330">
        <ele>2577.2</ele>
        <time>2018-08-11T19:02:41Z</time>
      </trkpt>
      <trkpt lat="4.4974150" lon="-74.2689180">
        <ele>2577.2</ele>
        <time>2018-08-11T19:02:42Z</time>
      </trkpt>
      <trkpt lat="4.4973580" lon="-74.2689100">
        <ele>2577.2</ele>
        <time>2018-08-11T19:02:43Z</time>
      </trkpt>
      <trkpt lat="4.4973080" lon="-74.2689000">
        <ele>2577.2</ele>
        <time>2018-08-11T19:02:44Z</time>
      </trkpt>
      <trkpt lat="4.4972550" lon="-74.2688920">
        <ele>2577.2</ele>
        <time>2018-08-11T19:02:45Z</time>
      </trkpt>
      <trkpt lat="4.4972020" lon="-74.2688750">
        <ele>2577.3</ele>
        <time>2018-08-11T19:02:46Z</time>
      </trkpt>
      <trkpt lat="4.4971500" lon="-74.2688600">
        <ele>2577.3</ele>
        <time>2018-08-11T19:02:47Z</time>
      </trkpt>
      <trkpt lat="4.4971000" lon="-74.2688430">
        <ele>2577.3</ele>
        <time>2018-08-11T19:02:48Z</time>
      </trkpt>
      <trkpt lat="4.4970500" lon="-74.2688230">
        <ele>2577.4</ele>
        <time>2018-08-11T19:02:49Z</time>
      </trkpt>
      <trkpt lat="4.4970000" lon="-74.2688120">
        <ele>2577.4</ele>
        <time>2018-08-11T19:02:50Z</time>
      </trkpt>
      <trkpt lat="4.4969470" lon="-74.2688050">
        <ele>2577.4</ele>
        <time>2018-08-11T19:02:51Z</time>
      </trkpt>
      <trkpt lat="4.4968980" lon="-74.2688000">
        <ele>2577.4</ele>
        <time>2018-08-11T19:02:52Z</time>
      </trkpt>
      <trkpt lat="4.4968470" lon="-74.2688030">
        <ele>2577.4</ele>
        <time>2018-08-11T19:02:53Z</time>
      </trkpt>
      <trkpt lat="4.4967920" lon="-74.2688170">
        <ele>2577.4</ele>
        <time>2018-08-11T19:02:54Z</time>
      </trkpt>
      <trkpt lat="4.4967350" lon="-74.2688350">
        <ele>2577.4</ele>
        <time>2018-08-11T19:02:55Z</time>
      </trkpt>
      <trkpt lat="4.4966770" lon="-74.2688570">
        <ele>2577.3</ele>
        <time>2018-08-11T19:02:56Z</time>
      </trkpt>
      <trkpt lat="4.4966050" lon="-74.2688850">
        <ele>2577.3</ele>
        <time>2018-08-11T19:02:57Z</time>
      </trkpt>
      <trkpt lat="4.4965400" lon="-74.2689070">
        <ele>2577.1</ele>
        <time>2018-08-11T19:02:58Z</time>
      </trkpt>
      <trkpt lat="4.4964680" lon="-74.2689320">
        <ele>2577.0</ele>
        <time>2018-08-11T19:02:59Z</time>
      </trkpt>
      <trkpt lat="4.4964020" lon="-74.2689380">
        <ele>2576.9</ele>
        <time>2018-08-11T19:03:00Z</time>
      </trkpt>
      <trkpt lat="4.4963350" lon="-74.2689370">
        <ele>2576.8</ele>
        <time>2018-08-11T19:03:01Z</time>
      </trkpt>
      <trkpt lat="4.4962730" lon="-74.2689230">
        <ele>2576.6</ele>
        <time>2018-08-11T19:03:02Z</time>
      </trkpt>
      <trkpt lat="4.4962120" lon="-74.2689020">
        <ele>2576.4</ele>
        <time>2018-08-11T19:03:03Z</time>
      </trkpt>
      <trkpt lat="4.4961520" lon="-74.2688750">
        <ele>2576.2</ele>
        <time>2018-08-11T19:03:04Z</time>
      </trkpt>
      <trkpt lat="4.4960900" lon="-74.2688470">
        <ele>2576.0</ele>
        <time>2018-08-11T19:03:05Z</time>
      </trkpt>
      <trkpt lat="4.4960320" lon="-74.2688130">
        <ele>2576.0</ele>
        <time>2018-08-11T19:03:06Z</time>
      </trkpt>
      <trkpt lat="4.4959730" lon="-74.2687800">
        <ele>2576.0</ele>
        <time>2018-08-11T19:03:07Z</time>
      </trkpt>
      <trkpt lat="4.4959200" lon="-74.2687480">
        <ele>2575.9</ele>
        <time>2018-08-11T19:03:08Z</time>
      </trkpt>
      <trkpt lat="4.4958680" lon="-74.2687220">
        <ele>2575.9</ele>
        <time>2018-08-11T19:03:09Z</time>
      </trkpt>
      <trkpt lat="4.4958080" lon="-74.2686970">
        <ele>2575.9</ele>
        <time>2018-08-11T19:03:10Z</time>
      </trkpt>
      <trkpt lat="4.4957480" lon="-74.2686770">
        <ele>2575.9</ele>
        <time>2018-08-11T19:03:11Z</time>
      </trkpt>
      <trkpt lat="4.4956830" lon="-74.2686530">
        <ele>2575.9</ele>
        <time>2018-08-11T19:03:12Z</time>
      </trkpt>
      <trkpt lat="4.4956230" lon="-74.2686320">
        <ele>2575.9</ele>
        <time>2018-08-11T19:03:13Z</time>
      </trkpt>
      <trkpt lat="4.4955600" lon="-74.2686080">
        <ele>2575.8</ele>
        <time>2018-08-11T19:03:14Z</time>
      </trkpt>
      <trkpt lat="4.4954950" lon="-74.2685900">
        <ele>2575.8</ele>
        <time>2018-08-11T19:03:15Z</time>
      </trkpt>
      <trkpt lat="4.4954330" lon="-74.2685730">
        <ele>2575.8</ele>
        <time>2018-08-11T19:03:16Z</time>
      </trkpt>
      <trkpt lat="4.4953720" lon="-74.2685630">
        <ele>2575.8</ele>
        <time>2018-08-11T19:03:17Z</time>
      </trkpt>
      <trkpt lat="4.4953120" lon="-74.2685480">
        <ele>2575.9</ele>
        <time>2018-08-11T19:03:18Z</time>
      </trkpt>
      <trkpt lat="4.4952500" lon="-74.2685300">
        <ele>2575.9</ele>
        <time>2018-08-11T19:03:19Z</time>
      </trkpt>
      <trkpt lat="4.4951880" lon="-74.2685100">
        <ele>2575.9</ele>
        <time>2018-08-11T19:03:20Z</time>
      </trkpt>
      <trkpt lat="4.4951250" lon="-74.2684950">
        <ele>2575.9</ele>
        <time>2018-08-11T19:03:21Z</time>
      </trkpt>
      <trkpt lat="4.4950670" lon="-74.2684850">
        <ele>2575.9</ele>
        <time>2018-08-11T19:03:22Z</time>
      </trkpt>
      <trkpt lat="4.4950070" lon="-74.2684780">
        <ele>2575.9</ele>
        <time>2018-08-11T19:03:23Z</time>
      </trkpt>
      <trkpt lat="4.4949470" lon="-74.2684730">
        <ele>2575.9</ele>
        <time>2018-08-11T19:03:24Z</time>
      </trkpt>
      <trkpt lat="4.4948830" lon="-74.2684730">
        <ele>2575.9</ele>
        <time>2018-08-11T19:03:25Z</time>
      </trkpt>
      <trkpt lat="4.4948200" lon="-74.2684770">
        <ele>2575.9</ele>
        <time>2018-08-11T19:03:26Z</time>
      </trkpt>
      <trkpt lat="4.4947500" lon="-74.2684830">
        <ele>2576.0</ele>
        <time>2018-08-11T19:03:27Z</time>
      </trkpt>
      <trkpt lat="4.4946870" lon="-74.2684880">
        <ele>2576.0</ele>
        <time>2018-08-11T19:03:28Z</time>
      </trkpt>
      <trkpt lat="4.4946230" lon="-74.2684950">
        <ele>2576.0</ele>
        <time>2018-08-11T19:03:29Z</time>
      </trkpt>
      <trkpt lat="4.4945600" lon="-74.2685020">
        <ele>2576.0</ele>
        <time>2018-08-11T19:03:30Z</time>
      </trkpt>
      <trkpt lat="4.4945000" lon="-74.2685070">
        <ele>2576.0</ele>
        <time>2018-08-11T19:03:31Z</time>
      </trkpt>
      <trkpt lat="4.4944370" lon="-74.2685120">
        <ele>2576.0</ele>
        <time>2018-08-11T19:03:32Z</time>
      </trkpt>
      <trkpt lat="4.4943750" lon="-74.2685130">
        <ele>2576.0</ele>
        <time>2018-08-11T19:03:33Z</time>
      </trkpt>
      <trkpt lat="4.4943120" lon="-74.2685170">
        <ele>2576.0</ele>
        <time>2018-08-11T19:03:34Z</time>
      </trkpt>
      <trkpt lat="4.4942520" lon="-74.2685150">
        <ele>2576.0</ele>
        <time>2018-08-11T19:03:35Z</time>
      </trkpt>
      <trkpt lat="4.4941930" lon="-74.2685200">
        <ele>2576.1</ele>
        <time>2018-08-11T19:03:36Z</time>
      </trkpt>
      <trkpt lat="4.4941330" lon="-74.2685280">
        <ele>2576.1</ele>
        <time>2018-08-11T19:03:37Z</time>
      </trkpt>
      <trkpt lat="4.4940770" lon="-74.2685380">
        <ele>2576.1</ele>
        <time>2018-08-11T19:03:38Z</time>
      </trkpt>
      <trkpt lat="4.4940200" lon="-74.2685450">
        <ele>2576.1</ele>
        <time>2018-08-11T19:03:39Z</time>
      </trkpt>
      <trkpt lat="4.4939650" lon="-74.2685470">
        <ele>2576.1</ele>
        <time>2018-08-11T19:03:40Z</time>
      </trkpt>
      <trkpt lat="4.4939080" lon="-74.2685530">
        <ele>2576.2</ele>
        <time>2018-08-11T19:03:41Z</time>
      </trkpt>
      <trkpt lat="4.4938420" lon="-74.2685680">
        <ele>2576.2</ele>
        <time>2018-08-11T19:03:42Z</time>
      </trkpt>
      <trkpt lat="4.4937800" lon="-74.2685670">
        <ele>2576.2</ele>
        <time>2018-08-11T19:03:43Z</time>
      </trkpt>
      <trkpt lat="4.4937270" lon="-74.2685500">
        <ele>2576.2</ele>
        <time>2018-08-11T19:03:44Z</time>
      </trkpt>
      <trkpt lat="4.4936820" lon="-74.2685170">
        <ele>2576.3</ele>
        <time>2018-08-11T19:03:45Z</time>
      </trkpt>
      <trkpt lat="4.4936500" lon="-74.2684770">
        <ele>2576.3</ele>
        <time>2018-08-11T19:03:46Z</time>
      </trkpt>
      <trkpt lat="4.4936230" lon="-74.2684300">
        <ele>2576.3</ele>
        <time>2018-08-11T19:03:47Z</time>
      </trkpt>
      <trkpt lat="4.4936020" lon="-74.2683770">
        <ele>2576.3</ele>
        <time>2018-08-11T19:03:48Z</time>
      </trkpt>
      <trkpt lat="4.4935800" lon="-74.2683230">
        <ele>2576.3</ele>
        <time>2018-08-11T19:03:49Z</time>
      </trkpt>
      <trkpt lat="4.4935600" lon="-74.2682730">
        <ele>2576.4</ele>
        <time>2018-08-11T19:03:50Z</time>
      </trkpt>
      <trkpt lat="4.4935370" lon="-74.2682180">
        <ele>2576.4</ele>
        <time>2018-08-11T19:03:51Z</time>
      </trkpt>
      <trkpt lat="4.4935150" lon="-74.2681670">
        <ele>2576.4</ele>
        <time>2018-08-11T19:03:52Z</time>
      </trkpt>
      <trkpt lat="4.4934880" lon="-74.2681180">
        <ele>2576.4</ele>
        <time>2018-08-11T19:03:53Z</time>
      </trkpt>
      <trkpt lat="4.4934500" lon="-74.2680800">
        <ele>2576.4</ele>
        <time>2018-08-11T19:03:54Z</time>
      </trkpt>
      <trkpt lat="4.4934050" lon="-74.2680500">
        <ele>2576.5</ele>
        <time>2018-08-11T19:03:55Z</time>
      </trkpt>
      <trkpt lat="4.4933580" lon="-74.2680280">
        <ele>2576.5</ele>
        <time>2018-08-11T19:03:56Z</time>
      </trkpt>
      <trkpt lat="4.4933100" lon="-74.2680130">
        <ele>2576.5</ele>
        <time>2018-08-11T19:03:57Z</time>
      </trkpt>
      <trkpt lat="4.4932580" lon="-74.2680030">
        <ele>2576.5</ele>
        <time>2018-08-11T19:03:58Z</time>
      </trkpt>
      <trkpt lat="4.4932050" lon="-74.2680020">
        <ele>2576.5</ele>
        <time>2018-08-11T19:03:59Z</time>
      </trkpt>
      <trkpt lat="4.4931520" lon="-74.2679970">
        <ele>2576.6</ele>
        <time>2018-08-11T19:04:00Z</time>
      </trkpt>
      <trkpt lat="4.4930970" lon="-74.2679930">
        <ele>2576.6</ele>
        <time>2018-08-11T19:04:01Z</time>
      </trkpt>
      <trkpt lat="4.4930450" lon="-74.2679900">
        <ele>2576.6</ele>
        <time>2018-08-11T19:04:02Z</time>
      </trkpt>
      <trkpt lat="4.4929950" lon="-74.2679850">
        <ele>2576.6</ele>
        <time>2018-08-11T19:04:03Z</time>
      </trkpt>
      <trkpt lat="4.4929430" lon="-74.2679820">
        <ele>2576.6</ele>
        <time>2018-08-11T19:04:04Z</time>
      </trkpt>
      <trkpt lat="4.4928920" lon="-74.2679780">
        <ele>2576.6</ele>
        <time>2018-08-11T19:04:05Z</time>
      </trkpt>
      <trkpt lat="4.4928400" lon="-74.2679720">
        <ele>2576.6</ele>
        <time>2018-08-11T19:04:06Z</time>
      </trkpt>
      <trkpt lat="4.4927900" lon="-74.2679700">
        <ele>2576.6</ele>
        <time>2018-08-11T19:04:07Z</time>
      </trkpt>
      <trkpt lat="4.4927400" lon="-74.2679670">
        <ele>2576.6</ele>
        <time>2018-08-11T19:04:08Z</time>
      </trkpt>
      <trkpt lat="4.4926900" lon="-74.2679620">
        <ele>2576.6</ele>
        <time>2018-08-11T19:04:09Z</time>
      </trkpt>
      <trkpt lat="4.4926420" lon="-74.2679620">
        <ele>2576.7</ele>
        <time>2018-08-11T19:04:10Z</time>
      </trkpt>
      <trkpt lat="4.4925920" lon="-74.2679600">
        <ele>2576.7</ele>
        <time>2018-08-11T19:04:11Z</time>
      </trkpt>
      <trkpt lat="4.4925430" lon="-74.2679550">
        <ele>2576.7</ele>
        <time>2018-08-11T19:04:12Z</time>
      </trkpt>
      <trkpt lat="4.4924930" lon="-74.2679530">
        <ele>2576.7</ele>
        <time>2018-08-11T19:04:13Z</time>
      </trkpt>
      <trkpt lat="4.4924430" lon="-74.2679530">
        <ele>2576.7</ele>
        <time>2018-08-11T19:04:14Z</time>
      </trkpt>
      <trkpt lat="4.4923900" lon="-74.2679580">
        <ele>2576.7</ele>
        <time>2018-08-11T19:04:15Z</time>
      </trkpt>
      <trkpt lat="4.4923380" lon="-74.2679670">
        <ele>2576.7</ele>
        <time>2018-08-11T19:04:16Z</time>
      </trkpt>
      <trkpt lat="4.4922870" lon="-74.2679730">
        <ele>2576.8</ele>
        <time>2018-08-11T19:04:17Z</time>
      </trkpt>
      <trkpt lat="4.4922330" lon="-74.2679870">
        <ele>2576.8</ele>
        <time>2018-08-11T19:04:18Z</time>
      </trkpt>
      <trkpt lat="4.4921820" lon="-74.2680020">
        <ele>2576.8</ele>
        <time>2018-08-11T19:04:19Z</time>
      </trkpt>
      <trkpt lat="4.4921270" lon="-74.2680220">
        <ele>2576.8</ele>
        <time>2018-08-11T19:04:20Z</time>
      </trkpt>
      <trkpt lat="4.4920730" lon="-74.2680400">
        <ele>2576.8</ele>
        <time>2018-08-11T19:04:21Z</time>
      </trkpt>
      <trkpt lat="4.4920270" lon="-74.2680620">
        <ele>2576.8</ele>
        <time>2018-08-11T19:04:22Z</time>
      </trkpt>
      <trkpt lat="4.4919800" lon="-74.2680850">
        <ele>2576.8</ele>
        <time>2018-08-11T19:04:23Z</time>
      </trkpt>
      <trkpt lat="4.4919330" lon="-74.2681150">
        <ele>2576.9</ele>
        <time>2018-08-11T19:04:24Z</time>
      </trkpt>
      <trkpt lat="4.4918880" lon="-74.2681430">
        <ele>2576.9</ele>
        <time>2018-08-11T19:04:25Z</time>
      </trkpt>
      <trkpt lat="4.4918480" lon="-74.2681750">
        <ele>2576.9</ele>
        <time>2018-08-11T19:04:26Z</time>
      </trkpt>
      <trkpt lat="4.4918080" lon="-74.2682100">
        <ele>2576.9</ele>
        <time>2018-08-11T19:04:27Z</time>
      </trkpt>
      <trkpt lat="4.4917720" lon="-74.2682520">
        <ele>2576.9</ele>
        <time>2018-08-11T19:04:28Z</time>
      </trkpt>
      <trkpt lat="4.4917280" lon="-74.2682930">
        <ele>2576.9</ele>
        <time>2018-08-11T19:04:29Z</time>
      </trkpt>
      <trkpt lat="4.4916880" lon="-74.2683380">
        <ele>2577.0</ele>
        <time>2018-08-11T19:04:30Z</time>
      </trkpt>
      <trkpt lat="4.4916500" lon="-74.2683880">
        <ele>2577.0</ele>
        <time>2018-08-11T19:04:31Z</time>
      </trkpt>
      <trkpt lat="4.4916130" lon="-74.2684370">
        <ele>2577.0</ele>
        <time>2018-08-11T19:04:32Z</time>
      </trkpt>
      <trkpt lat="4.4915800" lon="-74.2684870">
        <ele>2577.0</ele>
        <time>2018-08-11T19:04:33Z</time>
      </trkpt>
      <trkpt lat="4.4915480" lon="-74.2685400">
        <ele>2577.0</ele>
        <time>2018-08-11T19:04:34Z</time>
      </trkpt>
      <trkpt lat="4.4915200" lon="-74.2685920">
        <ele>2577.0</ele>
        <time>2018-08-11T19:04:35Z</time>
      </trkpt>
      <trkpt lat="4.4914900" lon="-74.2686450">
        <ele>2577.1</ele>
        <time>2018-08-11T19:04:36Z</time>
      </trkpt>
      <trkpt lat="4.4914620" lon="-74.2686970">
        <ele>2577.1</ele>
        <time>2018-08-11T19:04:37Z</time>
      </trkpt>
      <trkpt lat="4.4914330" lon="-74.2687470">
        <ele>2577.1</ele>
        <time>2018-08-11T19:04:38Z</time>
      </trkpt>
      <trkpt lat="4.4913930" lon="-74.2687950">
        <ele>2577.1</ele>
        <time>2018-08-11T19:04:39Z</time>
      </trkpt>
      <trkpt lat="4.4913550" lon="-74.2688430">
        <ele>2577.2</ele>
        <time>2018-08-11T19:04:40Z</time>
      </trkpt>
      <trkpt lat="4.4913200" lon="-74.2688920">
        <ele>2577.2</ele>
        <time>2018-08-11T19:04:41Z</time>
      </trkpt>
      <trkpt lat="4.4912750" lon="-74.2689270">
        <ele>2577.2</ele>
        <time>2018-08-11T19:04:42Z</time>
      </trkpt>
      <trkpt lat="4.4912230" lon="-74.2689530">
        <ele>2577.3</ele>
        <time>2018-08-11T19:04:43Z</time>
      </trkpt>
      <trkpt lat="4.4911700" lon="-74.2689700">
        <ele>2577.3</ele>
        <time>2018-08-11T19:04:44Z</time>
      </trkpt>
      <trkpt lat="4.4911200" lon="-74.2689800">
        <ele>2577.3</ele>
        <time>2018-08-11T19:04:45Z</time>
      </trkpt>
      <trkpt lat="4.4910600" lon="-74.2689830">
        <ele>2577.3</ele>
        <time>2018-08-11T19:04:46Z</time>
      </trkpt>
      <trkpt lat="4.4910050" lon="-74.2689830">
        <ele>2577.3</ele>
        <time>2018-08-11T19:04:47Z</time>
      </trkpt>
      <trkpt lat="4.4909480" lon="-74.2689830">
        <ele>2577.3</ele>
        <time>2018-08-11T19:04:48Z</time>
      </trkpt>
      <trkpt lat="4.4908920" lon="-74.2689800">
        <ele>2577.4</ele>
        <time>2018-08-11T19:04:49Z</time>
      </trkpt>
      <trkpt lat="4.4908350" lon="-74.2689770">
        <ele>2577.4</ele>
        <time>2018-08-11T19:04:50Z</time>
      </trkpt>
      <trkpt lat="4.4907800" lon="-74.2689720">
        <ele>2577.4</ele>
        <time>2018-08-11T19:04:51Z</time>
      </trkpt>
      <trkpt lat="4.4907270" lon="-74.2689700">
        <ele>2577.4</ele>
        <time>2018-08-11T19:04:52Z</time>
      </trkpt>
      <trkpt lat="4.4906770" lon="-74.2689680">
        <ele>2577.4</ele>
        <time>2018-08-11T19:04:53Z</time>
      </trkpt>
      <trkpt lat="4.4906250" lon="-74.2689670">
        <ele>2577.4</ele>
        <time>2018-08-11T19:04:54Z</time>
      </trkpt>
      <trkpt lat="4.4905750" lon="-74.2689680">
        <ele>2577.4</ele>
        <time>2018-08-11T19:04:55Z</time>
      </trkpt>
      <trkpt lat="4.4905250" lon="-74.2689670">
        <ele>2577.4</ele>
        <time>2018-08-11T19:04:56Z</time>
      </trkpt>
      <trkpt lat="4.4904770" lon="-74.2689630">
        <ele>2577.4</ele>
        <time>2018-08-11T19:04:57Z</time>
      </trkpt>
      <trkpt lat="4.4904330" lon="-74.2689600">
        <ele>2577.4</ele>
        <time>2018-08-11T19:04:58Z</time>
      </trkpt>
      <trkpt lat="4.4903900" lon="-74.2689550">
        <ele>2577.4</ele>
        <time>2018-08-11T19:04:59Z</time>
      </trkpt>
      <trkpt lat="4.4903430" lon="-74.2689520">
        <ele>2577.4</ele>
        <time>2018-08-11T19:05:00Z</time>
      </trkpt>
      <trkpt lat="4.4903000" lon="-74.2689500">
        <ele>2577.5</ele>
        <time>2018-08-11T19:05:01Z</time>
      </trkpt>
      <trkpt lat="4.4902550" lon="-74.2689450">
        <ele>2577.5</ele>
        <time>2018-08-11T19:05:02Z</time>
      </trkpt>
      <trkpt lat="4.4902070" lon="-74.2689380">
        <ele>2577.5</ele>
        <time>2018-08-11T19:05:03Z</time>
      </trkpt>
      <trkpt lat="4.4901620" lon="-74.2689300">
        <ele>2577.5</ele>
        <time>2018-08-11T19:05:04Z</time>
      </trkpt>
      <trkpt lat="4.4901130" lon="-74.2689250">
        <ele>2577.5</ele>
        <time>2018-08-11T19:05:05Z</time>
      </trkpt>
      <trkpt lat="4.4900630" lon="-74.2689200">
        <ele>2577.5</ele>
        <time>2018-08-11T19:05:06Z</time>
      </trkpt>
      <trkpt lat="4.4900080" lon="-74.2689180">
        <ele>2577.5</ele>
        <time>2018-08-11T19:05:07Z</time>
      </trkpt>
      <trkpt lat="4.4899550" lon="-74.2689150">
        <ele>2577.5</ele>
        <time>2018-08-11T19:05:08Z</time>
      </trkpt>
      <trkpt lat="4.4899020" lon="-74.2689120">
        <ele>2577.5</ele>
        <time>2018-08-11T19:05:09Z</time>
      </trkpt>
      <trkpt lat="4.4898500" lon="-74.2689070">
        <ele>2577.5</ele>
        <time>2018-08-11T19:05:10Z</time>
      </trkpt>
      <trkpt lat="4.4897950" lon="-74.2688970">
        <ele>2577.6</ele>
        <time>2018-08-11T19:05:11Z</time>
      </trkpt>
      <trkpt lat="4.4897430" lon="-74.2688830">
        <ele>2577.6</ele>
        <time>2018-08-11T19:05:12Z</time>
      </trkpt>
      <trkpt lat="4.4896920" lon="-74.2688780">
        <ele>2577.6</ele>
        <time>2018-08-11T19:05:13Z</time>
      </trkpt>
      <trkpt lat="4.4896330" lon="-74.2688630">
        <ele>2577.6</ele>
        <time>2018-08-11T19:05:14Z</time>
      </trkpt>
      <trkpt lat="4.4895730" lon="-74.2688530">
        <ele>2577.6</ele>
        <time>2018-08-11T19:05:15Z</time>
      </trkpt>
      <trkpt lat="4.4895180" lon="-74.2688400">
        <ele>2577.6</ele>
        <time>2018-08-11T19:05:16Z</time>
      </trkpt>
      <trkpt lat="4.4894650" lon="-74.2688280">
        <ele>2577.6</ele>
        <time>2018-08-11T19:05:17Z</time>
      </trkpt>
      <trkpt lat="4.4894130" lon="-74.2688120">
        <ele>2577.6</ele>
        <time>2018-08-11T19:05:18Z</time>
      </trkpt>
      <trkpt lat="4.4893620" lon="-74.2687930">
        <ele>2577.6</ele>
        <time>2018-08-11T19:05:19Z</time>
      </trkpt>
      <trkpt lat="4.4893130" lon="-74.2687730">
        <ele>2577.6</ele>
        <time>2018-08-11T19:05:20Z</time>
      </trkpt>
      <trkpt lat="4.4892650" lon="-74.2687580">
        <ele>2577.7</ele>
        <time>2018-08-11T19:05:21Z</time>
      </trkpt>
      <trkpt lat="4.4892150" lon="-74.2687450">
        <ele>2577.7</ele>
        <time>2018-08-11T19:05:22Z</time>
      </trkpt>
      <trkpt lat="4.4891680" lon="-74.2687300">
        <ele>2577.7</ele>
        <time>2018-08-11T19:05:23Z</time>
      </trkpt>
      <trkpt lat="4.4891220" lon="-74.2687120">
        <ele>2577.7</ele>
        <time>2018-08-11T19:05:24Z</time>
      </trkpt>
      <trkpt lat="4.4890730" lon="-74.2686900">
        <ele>2577.7</ele>
        <time>2018-08-11T19:05:25Z</time>
      </trkpt>
      <trkpt lat="4.4890250" lon="-74.2686700">
        <ele>2577.7</ele>
        <time>2018-08-11T19:05:26Z</time>
      </trkpt>
      <trkpt lat="4.4889780" lon="-74.2686500">
        <ele>2577.7</ele>
        <time>2018-08-11T19:05:27Z</time>
      </trkpt>
      <trkpt lat="4.4889300" lon="-74.2686280">
        <ele>2577.7</ele>
        <time>2018-08-11T19:05:28Z</time>
      </trkpt>
      <trkpt lat="4.4888820" lon="-74.2686080">
        <ele>2577.7</ele>
        <time>2018-08-11T19:05:29Z</time>
      </trkpt>
      <trkpt lat="4.4888320" lon="-74.2685870">
        <ele>2577.7</ele>
        <time>2018-08-11T19:05:30Z</time>
      </trkpt>
      <trkpt lat="4.4887800" lon="-74.2685670">
        <ele>2577.7</ele>
        <time>2018-08-11T19:05:31Z</time>
      </trkpt>
      <trkpt lat="4.4887300" lon="-74.2685430">
        <ele>2577.7</ele>
        <time>2018-08-11T19:05:32Z</time>
      </trkpt>
      <trkpt lat="4.4886800" lon="-74.2685220">
        <ele>2577.8</ele>
        <time>2018-08-11T19:05:33Z</time>
      </trkpt>
      <trkpt lat="4.4886280" lon="-74.2685020">
        <ele>2577.8</ele>
        <time>2018-08-11T19:05:34Z</time>
      </trkpt>
      <trkpt lat="4.4885780" lon="-74.2684780">
        <ele>2577.8</ele>
        <time>2018-08-11T19:05:35Z</time>
      </trkpt>
      <trkpt lat="4.4885270" lon="-74.2684570">
        <ele>2577.8</ele>
        <time>2018-08-11T19:05:36Z</time>
      </trkpt>
      <trkpt lat="4.4884750" lon="-74.2684370">
        <ele>2577.8</ele>
        <time>2018-08-11T19:05:37Z</time>
      </trkpt>
      <trkpt lat="4.4884270" lon="-74.2684130">
        <ele>2577.8</ele>
        <time>2018-08-11T19:05:38Z</time>
      </trkpt>
      <trkpt lat="4.4883780" lon="-74.2683900">
        <ele>2577.8</ele>
        <time>2018-08-11T19:05:39Z</time>
      </trkpt>
      <trkpt lat="4.4883280" lon="-74.2683680">
        <ele>2577.8</ele>
        <time>2018-08-11T19:05:40Z</time>
      </trkpt>
      <trkpt lat="4.4882780" lon="-74.2683450">
        <ele>2577.8</ele>
        <time>2018-08-11T19:05:41Z</time>
      </trkpt>
      <trkpt lat="4.4882280" lon="-74.2683220">
        <ele>2577.8</ele>
        <time>2018-08-11T19:05:42Z</time>
      </trkpt>
      <trkpt lat="4.4881780" lon="-74.2682970">
        <ele>2577.8</ele>
        <time>2018-08-11T19:05:43Z</time>
      </trkpt>
      <trkpt lat="4.4881250" lon="-74.2682620">
        <ele>2577.9</ele>
        <time>2018-08-11T19:05:44Z</time>
      </trkpt>
      <trkpt lat="4.4880750" lon="-74.2682350">
        <ele>2577.9</ele>
        <time>2018-08-11T19:05:45Z</time>
      </trkpt>
      <trkpt lat="4.4880270" lon="-74.2682130">
        <ele>2577.9</ele>
        <time>2018-08-11T19:05:46Z</time>
      </trkpt>
      <trkpt lat="4.4879820" lon="-74.2681930">
        <ele>2577.9</ele>
        <time>2018-08-11T19:05:47Z</time>
      </trkpt>
      <trkpt lat="4.4879400" lon="-74.2681720">
        <ele>2577.9</ele>
        <time>2018-08-11T19:05:48Z</time>
      </trkpt>
      <trkpt lat="4.4878980" lon="-74.2681500">
        <ele>2577.9</ele>
        <time>2018-08-11T19:05:49Z</time>
      </trkpt>
      <trkpt lat="4.4878570" lon="-74.2681270">
        <ele>2577.9</ele>
        <time>2018-08-11T19:05:50Z</time>
      </trkpt>
      <trkpt lat="4.4878130" lon="-74.2681050">
        <ele>2577.9</ele>
        <time>2018-08-11T19:05:51Z</time>
      </trkpt>
      <trkpt lat="4.4877680" lon="-74.2680850">
        <ele>2577.9</ele>
        <time>2018-08-11T19:05:52Z</time>
      </trkpt>
      <trkpt lat="4.4877270" lon="-74.2680670">
        <ele>2578.0</ele>
        <time>2018-08-11T19:05:53Z</time>
      </trkpt>
      <trkpt lat="4.4876870" lon="-74.2680500">
        <ele>2578.0</ele>
        <time>2018-08-11T19:05:54Z</time>
      </trkpt>
      <trkpt lat="4.4876430" lon="-74.2680320">
        <ele>2578.0</ele>
        <time>2018-08-11T19:05:55Z</time>
      </trkpt>
      <trkpt lat="4.4876020" lon="-74.2680130">
        <ele>2578.0</ele>
        <time>2018-08-11T19:05:56Z</time>
      </trkpt>
      <trkpt lat="4.4875570" lon="-74.2679950">
        <ele>2578.0</ele>
        <time>2018-08-11T19:05:57Z</time>
      </trkpt>
      <trkpt lat="4.4875120" lon="-74.2679800">
        <ele>2578.1</ele>
        <time>2018-08-11T19:05:58Z</time>
      </trkpt>
      <trkpt lat="4.4874650" lon="-74.2679630">
        <ele>2578.2</ele>
        <time>2018-08-11T19:05:59Z</time>
      </trkpt>
      <trkpt lat="4.4874150" lon="-74.2679480">
        <ele>2578.2</ele>
        <time>2018-08-11T19:06:00Z</time>
      </trkpt>
      <trkpt lat="4.4873620" lon="-74.2679330">
        <ele>2578.3</ele>
        <time>2018-08-11T19:06:01Z</time>
      </trkpt>
      <trkpt lat="4.4873050" lon="-74.2679200">
        <ele>2578.4</ele>
        <time>2018-08-11T19:06:02Z</time>
      </trkpt>
      <trkpt lat="4.4872470" lon="-74.2679100">
        <ele>2578.5</ele>
        <time>2018-08-11T19:06:03Z</time>
      </trkpt>
      <trkpt lat="4.4871850" lon="-74.2679030">
        <ele>2578.6</ele>
        <time>2018-08-11T19:06:04Z</time>
      </trkpt>
      <trkpt lat="4.4871220" lon="-74.2678980">
        <ele>2578.7</ele>
        <time>2018-08-11T19:06:05Z</time>
      </trkpt>
      <trkpt lat="4.4870600" lon="-74.2678930">
        <ele>2578.8</ele>
        <time>2018-08-11T19:06:06Z</time>
      </trkpt>
      <trkpt lat="4.4869980" lon="-74.2678920">
        <ele>2578.8</ele>
        <time>2018-08-11T19:06:07Z</time>
      </trkpt>
      <trkpt lat="4.4869370" lon="-74.2678900">
        <ele>2578.9</ele>
        <time>2018-08-11T19:06:08Z</time>
      </trkpt>
      <trkpt lat="4.4868720" lon="-74.2678870">
        <ele>2579.0</ele>
        <time>2018-08-11T19:06:09Z</time>
      </trkpt>
      <trkpt lat="4.4868070" lon="-74.2678850">
        <ele>2579.0</ele>
        <time>2018-08-11T19:06:10Z</time>
      </trkpt>
      <trkpt lat="4.4867400" lon="-74.2678830">
        <ele>2579.1</ele>
        <time>2018-08-11T19:06:11Z</time>
      </trkpt>
      <trkpt lat="4.4866730" lon="-74.2678770">
        <ele>2579.1</ele>
        <time>2018-08-11T19:06:12Z</time>
      </trkpt>
      <trkpt lat="4.4866070" lon="-74.2678700">
        <ele>2579.2</ele>
        <time>2018-08-11T19:06:13Z</time>
      </trkpt>
      <trkpt lat="4.4865450" lon="-74.2678670">
        <ele>2579.2</ele>
        <time>2018-08-11T19:06:14Z</time>
      </trkpt>
      <trkpt lat="4.4864830" lon="-74.2678680">
        <ele>2579.3</ele>
        <time>2018-08-11T19:06:15Z</time>
      </trkpt>
      <trkpt lat="4.4864230" lon="-74.2678700">
        <ele>2579.3</ele>
        <time>2018-08-11T19:06:16Z</time>
      </trkpt>
      <trkpt lat="4.4863650" lon="-74.2678680">
        <ele>2579.4</ele>
        <time>2018-08-11T19:06:17Z</time>
      </trkpt>
      <trkpt lat="4.4863070" lon="-74.2678680">
        <ele>2579.5</ele>
        <time>2018-08-11T19:06:18Z</time>
      </trkpt>
      <trkpt lat="4.4862500" lon="-74.2678720">
        <ele>2579.5</ele>
        <time>2018-08-11T19:06:19Z</time>
      </trkpt>
      <trkpt lat="4.4861930" lon="-74.2678720">
        <ele>2579.5</ele>
        <time>2018-08-11T19:06:20Z</time>
      </trkpt>
      <trkpt lat="4.4861350" lon="-74.2678670">
        <ele>2579.5</ele>
        <time>2018-08-11T19:06:21Z</time>
      </trkpt>
      <trkpt lat="4.4860750" lon="-74.2678520">
        <ele>2579.6</ele>
        <time>2018-08-11T19:06:22Z</time>
      </trkpt>
      <trkpt lat="4.4860150" lon="-74.2678380">
        <ele>2579.6</ele>
        <time>2018-08-11T19:06:23Z</time>
      </trkpt>
      <trkpt lat="4.4859570" lon="-74.2678200">
        <ele>2579.7</ele>
        <time>2018-08-11T19:06:24Z</time>
      </trkpt>
      <trkpt lat="4.4859000" lon="-74.2677980">
        <ele>2579.8</ele>
        <time>2018-08-11T19:06:25Z</time>
      </trkpt>
      <trkpt lat="4.4858430" lon="-74.2677700">
        <ele>2579.9</ele>
        <time>2018-08-11T19:06:26Z</time>
      </trkpt>
      <trkpt lat="4.4857900" lon="-74.2677380">
        <ele>2580.0</ele>
        <time>2018-08-11T19:06:27Z</time>
      </trkpt>
      <trkpt lat="4.4857420" lon="-74.2677020">
        <ele>2579.8</ele>
        <time>2018-08-11T19:06:28Z</time>
      </trkpt>
      <trkpt lat="4.4856970" lon="-74.2676620">
        <ele>2579.5</ele>
        <time>2018-08-11T19:06:29Z</time>
      </trkpt>
      <trkpt lat="4.4856570" lon="-74.2676180">
        <ele>2579.3</ele>
        <time>2018-08-11T19:06:30Z</time>
      </trkpt>
      <trkpt lat="4.4856200" lon="-74.2675650">
        <ele>2579.0</ele>
        <time>2018-08-11T19:06:31Z</time>
      </trkpt>
      <trkpt lat="4.4855870" lon="-74.2675170">
        <ele>2578.6</ele>
        <time>2018-08-11T19:06:32Z</time>
      </trkpt>
      <trkpt lat="4.4855520" lon="-74.2674680">
        <ele>2578.4</ele>
        <time>2018-08-11T19:06:33Z</time>
      </trkpt>
      <trkpt lat="4.4855230" lon="-74.2674180">
        <ele>2578.3</ele>
        <time>2018-08-11T19:06:34Z</time>
      </trkpt>
      <trkpt lat="4.4855000" lon="-74.2673680">
        <ele>2578.1</ele>
        <time>2018-08-11T19:06:35Z</time>
      </trkpt>
      <trkpt lat="4.4854770" lon="-74.2673170">
        <ele>2578.0</ele>
        <time>2018-08-11T19:06:36Z</time>
      </trkpt>
      <trkpt lat="4.4854500" lon="-74.2672680">
        <ele>2577.8</ele>
        <time>2018-08-11T19:06:37Z</time>
      </trkpt>
      <trkpt lat="4.4854200" lon="-74.2672180">
        <ele>2577.7</ele>
        <time>2018-08-11T19:06:38Z</time>
      </trkpt>
      <trkpt lat="4.4853870" lon="-74.2671720">
        <ele>2577.5</ele>
        <time>2018-08-11T19:06:39Z</time>
      </trkpt>
      <trkpt lat="4.4853570" lon="-74.2671250">
        <ele>2577.4</ele>
        <time>2018-08-11T19:06:40Z</time>
      </trkpt>
      <trkpt lat="4.4853300" lon="-74.2670800">
        <ele>2577.2</ele>
        <time>2018-08-11T19:06:41Z</time>
      </trkpt>
      <trkpt lat="4.4853070" lon="-74.2670350">
        <ele>2577.1</ele>
        <time>2018-08-11T19:06:42Z</time>
      </trkpt>
      <trkpt lat="4.4852820" lon="-74.2669920">
        <ele>2577.0</ele>
        <time>2018-08-11T19:06:43Z</time>
      </trkpt>
      <trkpt lat="4.4852630" lon="-74.2669470">
        <ele>2576.8</ele>
        <time>2018-08-11T19:06:44Z</time>
      </trkpt>
      <trkpt lat="4.4852470" lon="-74.2669000">
        <ele>2576.7</ele>
        <time>2018-08-11T19:06:45Z</time>
      </trkpt>
      <trkpt lat="4.4852300" lon="-74.2668500">
        <ele>2576.6</ele>
        <time>2018-08-11T19:06:46Z</time>
      </trkpt>
      <trkpt lat="4.4852230" lon="-74.2668050">
        <ele>2576.4</ele>
        <time>2018-08-11T19:06:47Z</time>
      </trkpt>
      <trkpt lat="4.4852200" lon="-74.2667570">
        <ele>2576.3</ele>
        <time>2018-08-11T19:06:48Z</time>
      </trkpt>
      <trkpt lat="4.4852280" lon="-74.2667070">
        <ele>2576.1</ele>
        <time>2018-08-11T19:06:49Z</time>
      </trkpt>
      <trkpt lat="4.4852370" lon="-74.2666580">
        <ele>2576.0</ele>
        <time>2018-08-11T19:06:50Z</time>
      </trkpt>
      <trkpt lat="4.4852400" lon="-74.2666070">
        <ele>2575.8</ele>
        <time>2018-08-11T19:06:51Z</time>
      </trkpt>
      <trkpt lat="4.4852430" lon="-74.2665550">
        <ele>2575.7</ele>
        <time>2018-08-11T19:06:52Z</time>
      </trkpt>
      <trkpt lat="4.4852450" lon="-74.2665050">
        <ele>2575.6</ele>
        <time>2018-08-11T19:06:53Z</time>
      </trkpt>
      <trkpt lat="4.4852450" lon="-74.2664570">
        <ele>2575.5</ele>
        <time>2018-08-11T19:06:54Z</time>
      </trkpt>
      <trkpt lat="4.4852450" lon="-74.2664070">
        <ele>2575.4</ele>
        <time>2018-08-11T19:06:55Z</time>
      </trkpt>
      <trkpt lat="4.4852480" lon="-74.2663530">
        <ele>2575.2</ele>
        <time>2018-08-11T19:06:56Z</time>
      </trkpt>
      <trkpt lat="4.4852550" lon="-74.2662980">
        <ele>2575.1</ele>
        <time>2018-08-11T19:06:57Z</time>
      </trkpt>
      <trkpt lat="4.4852600" lon="-74.2662420">
        <ele>2575.0</ele>
        <time>2018-08-11T19:06:58Z</time>
      </trkpt>
      <trkpt lat="4.4852600" lon="-74.2661870">
        <ele>2574.9</ele>
        <time>2018-08-11T19:06:59Z</time>
      </trkpt>
      <trkpt lat="4.4852580" lon="-74.2661330">
        <ele>2574.8</ele>
        <time>2018-08-11T19:07:00Z</time>
      </trkpt>
      <trkpt lat="4.4852570" lon="-74.2660800">
        <ele>2574.6</ele>
        <time>2018-08-11T19:07:01Z</time>
      </trkpt>
      <trkpt lat="4.4852530" lon="-74.2660320">
        <ele>2574.5</ele>
        <time>2018-08-11T19:07:02Z</time>
      </trkpt>
      <trkpt lat="4.4852480" lon="-74.2659820">
        <ele>2574.4</ele>
        <time>2018-08-11T19:07:03Z</time>
      </trkpt>
      <trkpt lat="4.4852420" lon="-74.2659320">
        <ele>2574.3</ele>
        <time>2018-08-11T19:07:04Z</time>
      </trkpt>
      <trkpt lat="4.4852330" lon="-74.2658870">
        <ele>2574.2</ele>
        <time>2018-08-11T19:07:05Z</time>
      </trkpt>
      <trkpt lat="4.4852300" lon="-74.2658420">
        <ele>2574.0</ele>
        <time>2018-08-11T19:07:06Z</time>
      </trkpt>
      <trkpt lat="4.4852230" lon="-74.2657970">
        <ele>2573.9</ele>
        <time>2018-08-11T19:07:07Z</time>
      </trkpt>
      <trkpt lat="4.4852180" lon="-74.2657500">
        <ele>2573.8</ele>
        <time>2018-08-11T19:07:08Z</time>
      </trkpt>
      <trkpt lat="4.4852150" lon="-74.2657030">
        <ele>2573.7</ele>
        <time>2018-08-11T19:07:09Z</time>
      </trkpt>
      <trkpt lat="4.4852120" lon="-74.2656570">
        <ele>2573.4</ele>
        <time>2018-08-11T19:07:10Z</time>
      </trkpt>
      <trkpt lat="4.4852100" lon="-74.2656080">
        <ele>2573.2</ele>
        <time>2018-08-11T19:07:11Z</time>
      </trkpt>
      <trkpt lat="4.4852080" lon="-74.2655580">
        <ele>2573.1</ele>
        <time>2018-08-11T19:07:12Z</time>
      </trkpt>
      <trkpt lat="4.4852070" lon="-74.2655100">
        <ele>2572.9</ele>
        <time>2018-08-11T19:07:13Z</time>
      </trkpt>
      <trkpt lat="4.4852030" lon="-74.2654620">
        <ele>2572.8</ele>
        <time>2018-08-11T19:07:14Z</time>
      </trkpt>
      <trkpt lat="4.4852070" lon="-74.2654150">
        <ele>2572.7</ele>
        <time>2018-08-11T19:07:15Z</time>
      </trkpt>
      <trkpt lat="4.4852050" lon="-74.2653750">
        <ele>2572.5</ele>
        <time>2018-08-11T19:07:16Z</time>
      </trkpt>
      <trkpt lat="4.4851980" lon="-74.2653380">
        <ele>2572.4</ele>
        <time>2018-08-11T19:07:17Z</time>
      </trkpt>
      <trkpt lat="4.4852070" lon="-74.2652920">
        <ele>2572.3</ele>
        <time>2018-08-11T19:07:18Z</time>
      </trkpt>
      <trkpt lat="4.4852200" lon="-74.2652450">
        <ele>2572.2</ele>
        <time>2018-08-11T19:07:19Z</time>
      </trkpt>
      <trkpt lat="4.4852350" lon="-74.2651980">
        <ele>2572.0</ele>
        <time>2018-08-11T19:07:20Z</time>
      </trkpt>
      <trkpt lat="4.4852500" lon="-74.2651450">
        <ele>2571.8</ele>
        <time>2018-08-11T19:07:21Z</time>
      </trkpt>
      <trkpt lat="4.4852700" lon="-74.2650980">
        <ele>2571.6</ele>
        <time>2018-08-11T19:07:22Z</time>
      </trkpt>
      <trkpt lat="4.4852970" lon="-74.2650530">
        <ele>2571.4</ele>
        <time>2018-08-11T19:07:23Z</time>
      </trkpt>
      <trkpt lat="4.4853320" lon="-74.2650130">
        <ele>2571.2</ele>
        <time>2018-08-11T19:07:24Z</time>
      </trkpt>
      <trkpt lat="4.4853650" lon="-74.2649770">
        <ele>2570.9</ele>
        <time>2018-08-11T19:07:25Z</time>
      </trkpt>
      <trkpt lat="4.4854030" lon="-74.2649380">
        <ele>2570.7</ele>
        <time>2018-08-11T19:07:26Z</time>
      </trkpt>
      <trkpt lat="4.4854380" lon="-74.2648980">
        <ele>2570.4</ele>
        <time>2018-08-11T19:07:27Z</time>
      </trkpt>
      <trkpt lat="4.4854750" lon="-74.2648580">
        <ele>2570.2</ele>
        <time>2018-08-11T19:07:28Z</time>
      </trkpt>
      <trkpt lat="4.4855150" lon="-74.2648200">
        <ele>2570.0</ele>
        <time>2018-08-11T19:07:29Z</time>
      </trkpt>
      <trkpt lat="4.4855550" lon="-74.2647880">
        <ele>2569.8</ele>
        <time>2018-08-11T19:07:30Z</time>
      </trkpt>
      <trkpt lat="4.4855950" lon="-74.2647570">
        <ele>2569.6</ele>
        <time>2018-08-11T19:07:31Z</time>
      </trkpt>
      <trkpt lat="4.4856320" lon="-74.2647200">
        <ele>2569.4</ele>
        <time>2018-08-11T19:07:32Z</time>
      </trkpt>
      <trkpt lat="4.4856680" lon="-74.2646820">
        <ele>2569.2</ele>
        <time>2018-08-11T19:07:33Z</time>
      </trkpt>
      <trkpt lat="4.4857070" lon="-74.2646430">
        <ele>2569.1</ele>
        <time>2018-08-11T19:07:34Z</time>
      </trkpt>
      <trkpt lat="4.4857480" lon="-74.2646030">
        <ele>2568.9</ele>
        <time>2018-08-11T19:07:35Z</time>
      </trkpt>
      <trkpt lat="4.4857930" lon="-74.2645630">
        <ele>2568.7</ele>
        <time>2018-08-11T19:07:36Z</time>
      </trkpt>
      <trkpt lat="4.4858380" lon="-74.2645300">
        <ele>2568.5</ele>
        <time>2018-08-11T19:07:37Z</time>
      </trkpt>
      <trkpt lat="4.4858830" lon="-74.2644930">
        <ele>2568.3</ele>
        <time>2018-08-11T19:07:38Z</time>
      </trkpt>
      <trkpt lat="4.4859250" lon="-74.2644570">
        <ele>2568.1</ele>
        <time>2018-08-11T19:07:39Z</time>
      </trkpt>
      <trkpt lat="4.4859620" lon="-74.2644220">
        <ele>2568.0</ele>
        <time>2018-08-11T19:07:40Z</time>
      </trkpt>
      <trkpt lat="4.4860020" lon="-74.2643900">
        <ele>2568.0</ele>
        <time>2018-08-11T19:07:41Z</time>
      </trkpt>
      <trkpt lat="4.4860430" lon="-74.2643570">
        <ele>2568.0</ele>
        <time>2018-08-11T19:07:42Z</time>
      </trkpt>
      <trkpt lat="4.4860870" lon="-74.2643220">
        <ele>2568.0</ele>
        <time>2018-08-11T19:07:43Z</time>
      </trkpt>
      <trkpt lat="4.4861280" lon="-74.2642870">
        <ele>2568.0</ele>
        <time>2018-08-11T19:07:44Z</time>
      </trkpt>
      <trkpt lat="4.4861670" lon="-74.2642550">
        <ele>2568.0</ele>
        <time>2018-08-11T19:07:45Z</time>
      </trkpt>
      <trkpt lat="4.4862000" lon="-74.2642230">
        <ele>2568.0</ele>
        <time>2018-08-11T19:07:46Z</time>
      </trkpt>
      <trkpt lat="4.4862300" lon="-74.2641900">
        <ele>2568.0</ele>
        <time>2018-08-11T19:07:47Z</time>
      </trkpt>
      <trkpt lat="4.4862620" lon="-74.2641550">
        <ele>2568.0</ele>
        <time>2018-08-11T19:07:48Z</time>
      </trkpt>
      <trkpt lat="4.4862970" lon="-74.2641250">
        <ele>2568.0</ele>
        <time>2018-08-11T19:07:49Z</time>
      </trkpt>
      <trkpt lat="4.4863370" lon="-74.2640850">
        <ele>2568.0</ele>
        <time>2018-08-11T19:07:50Z</time>
      </trkpt>
      <trkpt lat="4.4863750" lon="-74.2640520">
        <ele>2568.2</ele>
        <time>2018-08-11T19:07:51Z</time>
      </trkpt>
      <trkpt lat="4.4864120" lon="-74.2640180">
        <ele>2568.3</ele>
        <time>2018-08-11T19:07:52Z</time>
      </trkpt>
      <trkpt lat="4.4864500" lon="-74.2639830">
        <ele>2568.4</ele>
        <time>2018-08-11T19:07:53Z</time>
      </trkpt>
      <trkpt lat="4.4864870" lon="-74.2639500">
        <ele>2568.6</ele>
        <time>2018-08-11T19:07:54Z</time>
      </trkpt>
      <trkpt lat="4.4865320" lon="-74.2639200">
        <ele>2568.7</ele>
        <time>2018-08-11T19:07:55Z</time>
      </trkpt>
      <trkpt lat="4.4865730" lon="-74.2638900">
        <ele>2568.9</ele>
        <time>2018-08-11T19:07:56Z</time>
      </trkpt>
      <trkpt lat="4.4866130" lon="-74.2638600">
        <ele>2569.1</ele>
        <time>2018-08-11T19:07:57Z</time>
      </trkpt>
      <trkpt lat="4.4866550" lon="-74.2638270">
        <ele>2569.4</ele>
        <time>2018-08-11T19:07:58Z</time>
      </trkpt>
      <trkpt lat="4.4866930" lon="-74.2637950">
        <ele>2569.6</ele>
        <time>2018-08-11T19:07:59Z</time>
      </trkpt>
      <trkpt lat="4.4867330" lon="-74.2637650">
        <ele>2569.9</ele>
        <time>2018-08-11T19:08:00Z</time>
      </trkpt>
      <trkpt lat="4.4867730" lon="-74.2637330">
        <ele>2570.2</ele>
        <time>2018-08-11T19:08:01Z</time>
      </trkpt>
      <trkpt lat="4.4868130" lon="-74.2637030">
        <ele>2570.5</ele>
        <time>2018-08-11T19:08:02Z</time>
      </trkpt>
      <trkpt lat="4.4868580" lon="-74.2636730">
        <ele>2570.9</ele>
        <time>2018-08-11T19:08:03Z</time>
      </trkpt>
      <trkpt lat="4.4869000" lon="-74.2636400">
        <ele>2571.5</ele>
        <time>2018-08-11T19:08:04Z</time>
      </trkpt>
      <trkpt lat="4.4869370" lon="-74.2636020">
        <ele>2571.9</ele>
        <time>2018-08-11T19:08:05Z</time>
      </trkpt>
      <trkpt lat="4.4869730" lon="-74.2635630">
        <ele>2572.6</ele>
        <time>2018-08-11T19:08:06Z</time>
      </trkpt>
      <trkpt lat="4.4870080" lon="-74.2635280">
        <ele>2573.0</ele>
        <time>2018-08-11T19:08:07Z</time>
      </trkpt>
      <trkpt lat="4.4870430" lon="-74.2634970">
        <ele>2572.9</ele>
        <time>2018-08-11T19:08:08Z</time>
      </trkpt>
      <trkpt lat="4.4870870" lon="-74.2634620">
        <ele>2572.8</ele>
        <time>2018-08-11T19:08:09Z</time>
      </trkpt>
      <trkpt lat="4.4871300" lon="-74.2634280">
        <ele>2572.8</ele>
        <time>2018-08-11T19:08:10Z</time>
      </trkpt>
      <trkpt lat="4.4871680" lon="-74.2633930">
        <ele>2572.7</ele>
        <time>2018-08-11T19:08:11Z</time>
      </trkpt>
      <trkpt lat="4.4872080" lon="-74.2633620">
        <ele>2572.6</ele>
        <time>2018-08-11T19:08:12Z</time>
      </trkpt>
      <trkpt lat="4.4872420" lon="-74.2633300">
        <ele>2572.6</ele>
        <time>2018-08-11T19:08:13Z</time>
      </trkpt>
      <trkpt lat="4.4872750" lon="-74.2632950">
        <ele>2572.5</ele>
        <time>2018-08-11T19:08:14Z</time>
      </trkpt>
      <trkpt lat="4.4873080" lon="-74.2632670">
        <ele>2572.5</ele>
        <time>2018-08-11T19:08:15Z</time>
      </trkpt>
      <trkpt lat="4.4873530" lon="-74.2632300">
        <ele>2572.4</ele>
        <time>2018-08-11T19:08:16Z</time>
      </trkpt>
      <trkpt lat="4.4873950" lon="-74.2631980">
        <ele>2572.3</ele>
        <time>2018-08-11T19:08:17Z</time>
      </trkpt>
      <trkpt lat="4.4874330" lon="-74.2631680">
        <ele>2572.3</ele>
        <time>2018-08-11T19:08:18Z</time>
      </trkpt>
      <trkpt lat="4.4874800" lon="-74.2631370">
        <ele>2572.2</ele>
        <time>2018-08-11T19:08:19Z</time>
      </trkpt>
      <trkpt lat="4.4875220" lon="-74.2631080">
        <ele>2572.1</ele>
        <time>2018-08-11T19:08:20Z</time>
      </trkpt>
      <trkpt lat="4.4875780" lon="-74.2630750">
        <ele>2572.0</ele>
        <time>2018-08-11T19:08:21Z</time>
      </trkpt>
      <trkpt lat="4.4876150" lon="-74.2630430">
        <ele>2572.0</ele>
        <time>2018-08-11T19:08:22Z</time>
      </trkpt>
      <trkpt lat="4.4876530" lon="-74.2630120">
        <ele>2571.9</ele>
        <time>2018-08-11T19:08:23Z</time>
      </trkpt>
      <trkpt lat="4.4876930" lon="-74.2629780">
        <ele>2571.8</ele>
        <time>2018-08-11T19:08:24Z</time>
      </trkpt>
      <trkpt lat="4.4877320" lon="-74.2629470">
        <ele>2571.8</ele>
        <time>2018-08-11T19:08:25Z</time>
      </trkpt>
      <trkpt lat="4.4877680" lon="-74.2629150">
        <ele>2571.7</ele>
        <time>2018-08-11T19:08:26Z</time>
      </trkpt>
      <trkpt lat="4.4878000" lon="-74.2628820">
        <ele>2571.7</ele>
        <time>2018-08-11T19:08:27Z</time>
      </trkpt>
      <trkpt lat="4.4878370" lon="-74.2628500">
        <ele>2571.6</ele>
        <time>2018-08-11T19:08:28Z</time>
      </trkpt>
      <trkpt lat="4.4878700" lon="-74.2628180">
        <ele>2571.6</ele>
        <time>2018-08-11T19:08:29Z</time>
      </trkpt>
      <trkpt lat="4.4879020" lon="-74.2627850">
        <ele>2571.4</ele>
        <time>2018-08-11T19:08:30Z</time>
      </trkpt>
      <trkpt lat="4.4879350" lon="-74.2627520">
        <ele>2571.2</ele>
        <time>2018-08-11T19:08:31Z</time>
      </trkpt>
      <trkpt lat="4.4879700" lon="-74.2627220">
        <ele>2571.1</ele>
        <time>2018-08-11T19:08:32Z</time>
      </trkpt>
      <trkpt lat="4.4880000" lon="-74.2626950">
        <ele>2571.0</ele>
        <time>2018-08-11T19:08:33Z</time>
      </trkpt>
      <trkpt lat="4.4880350" lon="-74.2626680">
        <ele>2570.9</ele>
        <time>2018-08-11T19:08:34Z</time>
      </trkpt>
      <trkpt lat="4.4880750" lon="-74.2626350">
        <ele>2570.8</ele>
        <time>2018-08-11T19:08:35Z</time>
      </trkpt>
      <trkpt lat="4.4881130" lon="-74.2626030">
        <ele>2570.7</ele>
        <time>2018-08-11T19:08:36Z</time>
      </trkpt>
      <trkpt lat="4.4881530" lon="-74.2625680">
        <ele>2570.6</ele>
        <time>2018-08-11T19:08:37Z</time>
      </trkpt>
      <trkpt lat="4.4881920" lon="-74.2625420">
        <ele>2570.5</ele>
        <time>2018-08-11T19:08:38Z</time>
      </trkpt>
      <trkpt lat="4.4882330" lon="-74.2625130">
        <ele>2570.4</ele>
        <time>2018-08-11T19:08:39Z</time>
      </trkpt>
      <trkpt lat="4.4882700" lon="-74.2624770">
        <ele>2570.3</ele>
        <time>2018-08-11T19:08:40Z</time>
      </trkpt>
      <trkpt lat="4.4883070" lon="-74.2624400">
        <ele>2570.2</ele>
        <time>2018-08-11T19:08:41Z</time>
      </trkpt>
      <trkpt lat="4.4883430" lon="-74.2624070">
        <ele>2570.1</ele>
        <time>2018-08-11T19:08:42Z</time>
      </trkpt>
      <trkpt lat="4.4883800" lon="-74.2623750">
        <ele>2570.0</ele>
        <time>2018-08-11T19:08:43Z</time>
      </trkpt>
      <trkpt lat="4.4884130" lon="-74.2623420">
        <ele>2570.1</ele>
        <time>2018-08-11T19:08:44Z</time>
      </trkpt>
      <trkpt lat="4.4884500" lon="-74.2623080">
        <ele>2570.2</ele>
        <time>2018-08-11T19:08:45Z</time>
      </trkpt>
      <trkpt lat="4.4884830" lon="-74.2622780">
        <ele>2570.3</ele>
        <time>2018-08-11T19:08:46Z</time>
      </trkpt>
      <trkpt lat="4.4885180" lon="-74.2622470">
        <ele>2570.3</ele>
        <time>2018-08-11T19:08:47Z</time>
      </trkpt>
      <trkpt lat="4.4885530" lon="-74.2622150">
        <ele>2570.4</ele>
        <time>2018-08-11T19:08:48Z</time>
      </trkpt>
      <trkpt lat="4.4885900" lon="-74.2621830">
        <ele>2570.5</ele>
        <time>2018-08-11T19:08:49Z</time>
      </trkpt>
      <trkpt lat="4.4886250" lon="-74.2621570">
        <ele>2570.6</ele>
        <time>2018-08-11T19:08:50Z</time>
      </trkpt>
      <trkpt lat="4.4886630" lon="-74.2621280">
        <ele>2570.7</ele>
        <time>2018-08-11T19:08:51Z</time>
      </trkpt>
      <trkpt lat="4.4886980" lon="-74.2620950">
        <ele>2570.8</ele>
        <time>2018-08-11T19:08:52Z</time>
      </trkpt>
      <trkpt lat="4.4887370" lon="-74.2620630">
        <ele>2570.9</ele>
        <time>2018-08-11T19:08:53Z</time>
      </trkpt>
      <trkpt lat="4.4887750" lon="-74.2620370">
        <ele>2570.9</ele>
        <time>2018-08-11T19:08:54Z</time>
      </trkpt>
      <trkpt lat="4.4888130" lon="-74.2620130">
        <ele>2571.1</ele>
        <time>2018-08-11T19:08:55Z</time>
      </trkpt>
      <trkpt lat="4.4888520" lon="-74.2619870">
        <ele>2571.2</ele>
        <time>2018-08-11T19:08:56Z</time>
      </trkpt>
      <trkpt lat="4.4888900" lon="-74.2619550">
        <ele>2571.3</ele>
        <time>2018-08-11T19:08:57Z</time>
      </trkpt>
      <trkpt lat="4.4889300" lon="-74.2619230">
        <ele>2571.4</ele>
        <time>2018-08-11T19:08:58Z</time>
      </trkpt>
      <trkpt lat="4.4889730" lon="-74.2618870">
        <ele>2571.5</ele>
        <time>2018-08-11T19:08:59Z</time>
      </trkpt>
      <trkpt lat="4.4890150" lon="-74.2618530">
        <ele>2571.7</ele>
        <time>2018-08-11T19:09:00Z</time>
      </trkpt>
      <trkpt lat="4.4890530" lon="-74.2618180">
        <ele>2571.8</ele>
        <time>2018-08-11T19:09:01Z</time>
      </trkpt>
      <trkpt lat="4.4890970" lon="-74.2617820">
        <ele>2571.9</ele>
        <time>2018-08-11T19:09:02Z</time>
      </trkpt>
      <trkpt lat="4.4891380" lon="-74.2617430">
        <ele>2572.1</ele>
        <time>2018-08-11T19:09:03Z</time>
      </trkpt>
      <trkpt lat="4.4891800" lon="-74.2617070">
        <ele>2572.3</ele>
        <time>2018-08-11T19:09:04Z</time>
      </trkpt>
      <trkpt lat="4.4892220" lon="-74.2616670">
        <ele>2572.4</ele>
        <time>2018-08-11T19:09:05Z</time>
      </trkpt>
      <trkpt lat="4.4892630" lon="-74.2616280">
        <ele>2572.6</ele>
        <time>2018-08-11T19:09:06Z</time>
      </trkpt>
      <trkpt lat="4.4893050" lon="-74.2615920">
        <ele>2572.8</ele>
        <time>2018-08-11T19:09:07Z</time>
      </trkpt>
      <trkpt lat="4.4893480" lon="-74.2615550">
        <ele>2573.0</ele>
        <time>2018-08-11T19:09:08Z</time>
      </trkpt>
      <trkpt lat="4.4893950" lon="-74.2615180">
        <ele>2573.0</ele>
        <time>2018-08-11T19:09:09Z</time>
      </trkpt>
      <trkpt lat="4.4894450" lon="-74.2614780">
        <ele>2573.0</ele>
        <time>2018-08-11T19:09:10Z</time>
      </trkpt>
      <trkpt lat="4.4894880" lon="-74.2614420">
        <ele>2573.0</ele>
        <time>2018-08-11T19:09:11Z</time>
      </trkpt>
      <trkpt lat="4.4895300" lon="-74.2614020">
        <ele>2573.0</ele>
        <time>2018-08-11T19:09:12Z</time>
      </trkpt>
      <trkpt lat="4.4895700" lon="-74.2613630">
        <ele>2572.9</ele>
        <time>2018-08-11T19:09:13Z</time>
      </trkpt>
      <trkpt lat="4.4896100" lon="-74.2613250">
        <ele>2572.9</ele>
        <time>2018-08-11T19:09:14Z</time>
      </trkpt>
      <trkpt lat="4.4896530" lon="-74.2612880">
        <ele>2572.9</ele>
        <time>2018-08-11T19:09:15Z</time>
      </trkpt>
      <trkpt lat="4.4896980" lon="-74.2612550">
        <ele>2572.8</ele>
        <time>2018-08-11T19:09:16Z</time>
      </trkpt>
      <trkpt lat="4.4897380" lon="-74.2612250">
        <ele>2572.8</ele>
        <time>2018-08-11T19:09:17Z</time>
      </trkpt>
      <trkpt lat="4.4897770" lon="-74.2611930">
        <ele>2572.8</ele>
        <time>2018-08-11T19:09:18Z</time>
      </trkpt>
      <trkpt lat="4.4898150" lon="-74.2611620">
        <ele>2572.7</ele>
        <time>2018-08-11T19:09:19Z</time>
      </trkpt>
      <trkpt lat="4.4898520" lon="-74.2611330">
        <ele>2572.7</ele>
        <time>2018-08-11T19:09:20Z</time>
      </trkpt>
      <trkpt lat="4.4898930" lon="-74.2611100">
        <ele>2572.7</ele>
        <time>2018-08-11T19:09:21Z</time>
      </trkpt>
      <trkpt lat="4.4899300" lon="-74.2610750">
        <ele>2572.6</ele>
        <time>2018-08-11T19:09:22Z</time>
      </trkpt>
      <trkpt lat="4.4899670" lon="-74.2610400">
        <ele>2572.6</ele>
        <time>2018-08-11T19:09:23Z</time>
      </trkpt>
      <trkpt lat="4.4900170" lon="-74.2609980">
        <ele>2572.5</ele>
        <time>2018-08-11T19:09:24Z</time>
      </trkpt>
      <trkpt lat="4.4900600" lon="-74.2609700">
        <ele>2572.5</ele>
        <time>2018-08-11T19:09:25Z</time>
      </trkpt>
      <trkpt lat="4.4901030" lon="-74.2609400">
        <ele>2572.5</ele>
        <time>2018-08-11T19:09:26Z</time>
      </trkpt>
      <trkpt lat="4.4901420" lon="-74.2609130">
        <ele>2572.4</ele>
        <time>2018-08-11T19:09:27Z</time>
      </trkpt>
      <trkpt lat="4.4901800" lon="-74.2608800">
        <ele>2572.4</ele>
        <time>2018-08-11T19:09:28Z</time>
      </trkpt>
      <trkpt lat="4.4902200" lon="-74.2608450">
        <ele>2572.3</ele>
        <time>2018-08-11T19:09:29Z</time>
      </trkpt>
      <trkpt lat="4.4902580" lon="-74.2608120">
        <ele>2572.3</ele>
        <time>2018-08-11T19:09:30Z</time>
      </trkpt>
      <trkpt lat="4.4902980" lon="-74.2607780">
        <ele>2572.2</ele>
        <time>2018-08-11T19:09:31Z</time>
      </trkpt>
      <trkpt lat="4.4903370" lon="-74.2607450">
        <ele>2572.2</ele>
        <time>2018-08-11T19:09:32Z</time>
      </trkpt>
      <trkpt lat="4.4903700" lon="-74.2607150">
        <ele>2572.2</ele>
        <time>2018-08-11T19:09:33Z</time>
      </trkpt>
      <trkpt lat="4.4904020" lon="-74.2606870">
        <ele>2572.1</ele>
        <time>2018-08-11T19:09:34Z</time>
      </trkpt>
      <trkpt lat="4.4904350" lon="-74.2606570">
        <ele>2572.1</ele>
        <time>2018-08-11T19:09:35Z</time>
      </trkpt>
      <trkpt lat="4.4904700" lon="-74.2606280">
        <ele>2572.1</ele>
        <time>2018-08-11T19:09:36Z</time>
      </trkpt>
      <trkpt lat="4.4905070" lon="-74.2605950">
        <ele>2572.0</ele>
        <time>2018-08-11T19:09:37Z</time>
      </trkpt>
      <trkpt lat="4.4905400" lon="-74.2605620">
        <ele>2572.0</ele>
        <time>2018-08-11T19:09:38Z</time>
      </trkpt>
      <trkpt lat="4.4905780" lon="-74.2605300">
        <ele>2572.0</ele>
        <time>2018-08-11T19:09:39Z</time>
      </trkpt>
      <trkpt lat="4.4906120" lon="-74.2604950">
        <ele>2572.1</ele>
        <time>2018-08-11T19:09:40Z</time>
      </trkpt>
      <trkpt lat="4.4906470" lon="-74.2604630">
        <ele>2572.1</ele>
        <time>2018-08-11T19:09:41Z</time>
      </trkpt>
      <trkpt lat="4.4906820" lon="-74.2604350">
        <ele>2572.1</ele>
        <time>2018-08-11T19:09:42Z</time>
      </trkpt>
      <trkpt lat="4.4907180" lon="-74.2604050">
        <ele>2572.1</ele>
        <time>2018-08-11T19:09:43Z</time>
      </trkpt>
      <trkpt lat="4.4907550" lon="-74.2603770">
        <ele>2572.2</ele>
        <time>2018-08-11T19:09:44Z</time>
      </trkpt>
      <trkpt lat="4.4907880" lon="-74.2603520">
        <ele>2572.2</ele>
        <time>2018-08-11T19:09:45Z</time>
      </trkpt>
      <trkpt lat="4.4908150" lon="-74.2603230">
        <ele>2572.2</ele>
        <time>2018-08-11T19:09:46Z</time>
      </trkpt>
      <trkpt lat="4.4908450" lon="-74.2602930">
        <ele>2572.2</ele>
        <time>2018-08-11T19:09:47Z</time>
      </trkpt>
      <trkpt lat="4.4908650" lon="-74.2602670">
        <ele>2572.2</ele>
        <time>2018-08-11T19:09:48Z</time>
      </trkpt>
      <trkpt lat="4.4908900" lon="-74.2602400">
        <ele>2572.3</ele>
        <time>2018-08-11T19:09:49Z</time>
      </trkpt>
      <trkpt lat="4.4909120" lon="-74.2602150">
        <ele>2572.3</ele>
        <time>2018-08-11T19:09:50Z</time>
      </trkpt>
      <trkpt lat="4.4909580" lon="-74.2601780">
        <ele>2572.4</ele>
        <time>2018-08-11T19:09:52Z</time>
      </trkpt>
      <trkpt lat="4.4909830" lon="-74.2601480">
        <ele>2572.4</ele>
        <time>2018-08-11T19:09:53Z</time>
      </trkpt>
      <trkpt lat="4.4910050" lon="-74.2601130">
        <ele>2572.5</ele>
        <time>2018-08-11T19:09:54Z</time>
      </trkpt>
      <trkpt lat="4.4910230" lon="-74.2600750">
        <ele>2572.5</ele>
        <time>2018-08-11T19:09:55Z</time>
      </trkpt>
      <trkpt lat="4.4910350" lon="-74.2600350">
        <ele>2572.6</ele>
        <time>2018-08-11T19:09:56Z</time>
      </trkpt>
      <trkpt lat="4.4910480" lon="-74.2599980">
        <ele>2572.6</ele>
        <time>2018-08-11T19:09:57Z</time>
      </trkpt>
      <trkpt lat="4.4910620" lon="-74.2599620">
        <ele>2572.7</ele>
        <time>2018-08-11T19:09:58Z</time>
      </trkpt>
      <trkpt lat="4.4910800" lon="-74.2599280">
        <ele>2572.7</ele>
        <time>2018-08-11T19:09:59Z</time>
      </trkpt>
      <trkpt lat="4.4910920" lon="-74.2598970">
        <ele>2572.7</ele>
        <time>2018-08-11T19:10:00Z</time>
      </trkpt>
      <trkpt lat="4.4911200" lon="-74.2598500">
        <ele>2572.8</ele>
        <time>2018-08-11T19:10:01Z</time>
      </trkpt>
      <trkpt lat="4.4911350" lon="-74.2598130">
        <ele>2572.8</ele>
        <time>2018-08-11T19:10:02Z</time>
      </trkpt>
      <trkpt lat="4.4911520" lon="-74.2597770">
        <ele>2572.9</ele>
        <time>2018-08-11T19:10:03Z</time>
      </trkpt>
      <trkpt lat="4.4911650" lon="-74.2597420">
        <ele>2572.9</ele>
        <time>2018-08-11T19:10:04Z</time>
      </trkpt>
      <trkpt lat="4.4911800" lon="-74.2597070">
        <ele>2573.0</ele>
        <time>2018-08-11T19:10:05Z</time>
      </trkpt>
      <trkpt lat="4.4911980" lon="-74.2596730">
        <ele>2573.0</ele>
        <time>2018-08-11T19:10:06Z</time>
      </trkpt>
      <trkpt lat="4.4912100" lon="-74.2596400">
        <ele>2573.1</ele>
        <time>2018-08-11T19:10:07Z</time>
      </trkpt>
      <trkpt lat="4.4912230" lon="-74.2596050">
        <ele>2573.2</ele>
        <time>2018-08-11T19:10:08Z</time>
      </trkpt>
      <trkpt lat="4.4912350" lon="-74.2595680">
        <ele>2573.2</ele>
        <time>2018-08-11T19:10:09Z</time>
      </trkpt>
      <trkpt lat="4.4912480" lon="-74.2595380">
        <ele>2573.3</ele>
        <time>2018-08-11T19:10:10Z</time>
      </trkpt>
      <trkpt lat="4.4912580" lon="-74.2595100">
        <ele>2573.5</ele>
        <time>2018-08-11T19:10:11Z</time>
      </trkpt>
      <trkpt lat="4.4912650" lon="-74.2594830">
        <ele>2573.6</ele>
        <time>2018-08-11T19:10:12Z</time>
      </trkpt>
      <trkpt lat="4.4912700" lon="-74.2594550">
        <ele>2573.6</ele>
        <time>2018-08-11T19:10:13Z</time>
      </trkpt>
      <trkpt lat="4.4912770" lon="-74.2594270">
        <ele>2573.7</ele>
        <time>2018-08-11T19:10:14Z</time>
      </trkpt>
      <trkpt lat="4.4912870" lon="-74.2593980">
        <ele>2573.9</ele>
        <time>2018-08-11T19:10:15Z</time>
      </trkpt>
      <trkpt lat="4.4912970" lon="-74.2593680">
        <ele>2574.0</ele>
        <time>2018-08-11T19:10:16Z</time>
      </trkpt>
      <trkpt lat="4.4913080" lon="-74.2593420">
        <ele>2574.0</ele>
        <time>2018-08-11T19:10:17Z</time>
      </trkpt>
      <trkpt lat="4.4913200" lon="-74.2593150">
        <ele>2574.0</ele>
        <time>2018-08-11T19:10:18Z</time>
      </trkpt>
      <trkpt lat="4.4913370" lon="-74.2592920">
        <ele>2574.0</ele>
        <time>2018-08-11T19:10:19Z</time>
      </trkpt>
      <trkpt lat="4.4913550" lon="-74.2592720">
        <ele>2574.0</ele>
        <time>2018-08-11T19:10:20Z</time>
      </trkpt>
      <trkpt lat="4.4913750" lon="-74.2592530">
        <ele>2574.0</ele>
        <time>2018-08-11T19:10:21Z</time>
      </trkpt>
      <trkpt lat="4.4913970" lon="-74.2592350">
        <ele>2574.0</ele>
        <time>2018-08-11T19:10:22Z</time>
      </trkpt>
      <trkpt lat="4.4914230" lon="-74.2592150">
        <ele>2574.0</ele>
        <time>2018-08-11T19:10:23Z</time>
      </trkpt>
      <trkpt lat="4.4914500" lon="-74.2591930">
        <ele>2574.0</ele>
        <time>2018-08-11T19:10:24Z</time>
      </trkpt>
      <trkpt lat="4.4914780" lon="-74.2591750">
        <ele>2574.0</ele>
        <time>2018-08-11T19:10:25Z</time>
      </trkpt>
      <trkpt lat="4.4915070" lon="-74.2591620">
        <ele>2574.0</ele>
        <time>2018-08-11T19:10:26Z</time>
      </trkpt>
      <trkpt lat="4.4915420" lon="-74.2591500">
        <ele>2574.0</ele>
        <time>2018-08-11T19:10:27Z</time>
      </trkpt>
      <trkpt lat="4.4915770" lon="-74.2591300">
        <ele>2574.0</ele>
        <time>2018-08-11T19:10:28Z</time>
      </trkpt>
      <trkpt lat="4.4916080" lon="-74.2591070">
        <ele>2574.0</ele>
        <time>2018-08-11T19:10:29Z</time>
      </trkpt>
      <trkpt lat="4.4916430" lon="-74.2590850">
        <ele>2574.0</ele>
        <time>2018-08-11T19:10:30Z</time>
      </trkpt>
      <trkpt lat="4.4916820" lon="-74.2590680">
        <ele>2574.1</ele>
        <time>2018-08-11T19:10:31Z</time>
      </trkpt>
      <trkpt lat="4.4917220" lon="-74.2590520">
        <ele>2574.1</ele>
        <time>2018-08-11T19:10:32Z</time>
      </trkpt>
      <trkpt lat="4.4917620" lon="-74.2590330">
        <ele>2574.1</ele>
        <time>2018-08-11T19:10:33Z</time>
      </trkpt>
      <trkpt lat="4.4918080" lon="-74.2590150">
        <ele>2574.1</ele>
        <time>2018-08-11T19:10:34Z</time>
      </trkpt>
      <trkpt lat="4.4918520" lon="-74.2589930">
        <ele>2574.1</ele>
        <time>2018-08-11T19:10:35Z</time>
      </trkpt>
      <trkpt lat="4.4918970" lon="-74.2589680">
        <ele>2574.1</ele>
        <time>2018-08-11T19:10:36Z</time>
      </trkpt>
      <trkpt lat="4.4919470" lon="-74.2589400">
        <ele>2574.1</ele>
        <time>2018-08-11T19:10:37Z</time>
      </trkpt>
      <trkpt lat="4.4920000" lon="-74.2589120">
        <ele>2574.2</ele>
        <time>2018-08-11T19:10:38Z</time>
      </trkpt>
      <trkpt lat="4.4920530" lon="-74.2588850">
        <ele>2574.2</ele>
        <time>2018-08-11T19:10:39Z</time>
      </trkpt>
      <trkpt lat="4.4921080" lon="-74.2588580">
        <ele>2574.3</ele>
        <time>2018-08-11T19:10:40Z</time>
      </trkpt>
      <trkpt lat="4.4921620" lon="-74.2588320">
        <ele>2574.3</ele>
        <time>2018-08-11T19:10:41Z</time>
      </trkpt>
      <trkpt lat="4.4922200" lon="-74.2588070">
        <ele>2574.3</ele>
        <time>2018-08-11T19:10:42Z</time>
      </trkpt>
      <trkpt lat="4.4922770" lon="-74.2587820">
        <ele>2574.4</ele>
        <time>2018-08-11T19:10:43Z</time>
      </trkpt>
      <trkpt lat="4.4923320" lon="-74.2587600">
        <ele>2574.4</ele>
        <time>2018-08-11T19:10:44Z</time>
      </trkpt>
      <trkpt lat="4.4923830" lon="-74.2587370">
        <ele>2574.5</ele>
        <time>2018-08-11T19:10:45Z</time>
      </trkpt>
      <trkpt lat="4.4924350" lon="-74.2587130">
        <ele>2574.5</ele>
        <time>2018-08-11T19:10:46Z</time>
      </trkpt>
      <trkpt lat="4.4924850" lon="-74.2586920">
        <ele>2574.6</ele>
        <time>2018-08-11T19:10:47Z</time>
      </trkpt>
      <trkpt lat="4.4925350" lon="-74.2586700">
        <ele>2574.6</ele>
        <time>2018-08-11T19:10:48Z</time>
      </trkpt>
      <trkpt lat="4.4925850" lon="-74.2586500">
        <ele>2574.7</ele>
        <time>2018-08-11T19:10:49Z</time>
      </trkpt>
      <trkpt lat="4.4926380" lon="-74.2586280">
        <ele>2574.7</ele>
        <time>2018-08-11T19:10:50Z</time>
      </trkpt>
      <trkpt lat="4.4926920" lon="-74.2586050">
        <ele>2574.7</ele>
        <time>2018-08-11T19:10:51Z</time>
      </trkpt>
      <trkpt lat="4.4927430" lon="-74.2585820">
        <ele>2574.8</ele>
        <time>2018-08-11T19:10:52Z</time>
      </trkpt>
      <trkpt lat="4.4927980" lon="-74.2585570">
        <ele>2574.8</ele>
        <time>2018-08-11T19:10:53Z</time>
      </trkpt>
      <trkpt lat="4.4928580" lon="-74.2585270">
        <ele>2574.8</ele>
        <time>2018-08-11T19:10:54Z</time>
      </trkpt>
      <trkpt lat="4.4929230" lon="-74.2585000">
        <ele>2574.8</ele>
        <time>2018-08-11T19:10:55Z</time>
      </trkpt>
      <trkpt lat="4.4929850" lon="-74.2584750">
        <ele>2574.9</ele>
        <time>2018-08-11T19:10:56Z</time>
      </trkpt>
      <trkpt lat="4.4930430" lon="-74.2584520">
        <ele>2574.9</ele>
        <time>2018-08-11T19:10:57Z</time>
      </trkpt>
      <trkpt lat="4.4930980" lon="-74.2584230">
        <ele>2574.9</ele>
        <time>2018-08-11T19:10:58Z</time>
      </trkpt>
      <trkpt lat="4.4931570" lon="-74.2583970">
        <ele>2574.9</ele>
        <time>2018-08-11T19:10:59Z</time>
      </trkpt>
      <trkpt lat="4.4932180" lon="-74.2583680">
        <ele>2574.9</ele>
        <time>2018-08-11T19:11:00Z</time>
      </trkpt>
      <trkpt lat="4.4932830" lon="-74.2583350">
        <ele>2574.8</ele>
        <time>2018-08-11T19:11:01Z</time>
      </trkpt>
      <trkpt lat="4.4933470" lon="-74.2583030">
        <ele>2574.6</ele>
        <time>2018-08-11T19:11:02Z</time>
      </trkpt>
      <trkpt lat="4.4934080" lon="-74.2582700">
        <ele>2574.4</ele>
        <time>2018-08-11T19:11:03Z</time>
      </trkpt>
      <trkpt lat="4.4934700" lon="-74.2582370">
        <ele>2574.3</ele>
        <time>2018-08-11T19:11:04Z</time>
      </trkpt>
      <trkpt lat="4.4935320" lon="-74.2582050">
        <ele>2574.1</ele>
        <time>2018-08-11T19:11:05Z</time>
      </trkpt>
      <trkpt lat="4.4935920" lon="-74.2581750">
        <ele>2574.0</ele>
        <time>2018-08-11T19:11:06Z</time>
      </trkpt>
      <trkpt lat="4.4936520" lon="-74.2581450">
        <ele>2574.0</ele>
        <time>2018-08-11T19:11:07Z</time>
      </trkpt>
      <trkpt lat="4.4937080" lon="-74.2581150">
        <ele>2574.0</ele>
        <time>2018-08-11T19:11:08Z</time>
      </trkpt>
      <trkpt lat="4.4937600" lon="-74.2580880">
        <ele>2574.0</ele>
        <time>2018-08-11T19:11:09Z</time>
      </trkpt>
      <trkpt lat="4.4938100" lon="-74.2580620">
        <ele>2574.0</ele>
        <time>2018-08-11T19:11:10Z</time>
      </trkpt>
      <trkpt lat="4.4938620" lon="-74.2580350">
        <ele>2574.0</ele>
        <time>2018-08-11T19:11:11Z</time>
      </trkpt>
      <trkpt lat="4.4939150" lon="-74.2580080">
        <ele>2574.0</ele>
        <time>2018-08-11T19:11:12Z</time>
      </trkpt>
      <trkpt lat="4.4939720" lon="-74.2579820">
        <ele>2574.0</ele>
        <time>2018-08-11T19:11:13Z</time>
      </trkpt>
      <trkpt lat="4.4940270" lon="-74.2579580">
        <ele>2573.9</ele>
        <time>2018-08-11T19:11:14Z</time>
      </trkpt>
      <trkpt lat="4.4940830" lon="-74.2579350">
        <ele>2573.8</ele>
        <time>2018-08-11T19:11:15Z</time>
      </trkpt>
      <trkpt lat="4.4941400" lon="-74.2579100">
        <ele>2573.7</ele>
        <time>2018-08-11T19:11:16Z</time>
      </trkpt>
      <trkpt lat="4.4941930" lon="-74.2578850">
        <ele>2573.6</ele>
        <time>2018-08-11T19:11:17Z</time>
      </trkpt>
      <trkpt lat="4.4942530" lon="-74.2578580">
        <ele>2573.6</ele>
        <time>2018-08-11T19:11:18Z</time>
      </trkpt>
      <trkpt lat="4.4943100" lon="-74.2578330">
        <ele>2573.5</ele>
        <time>2018-08-11T19:11:19Z</time>
      </trkpt>
      <trkpt lat="4.4943670" lon="-74.2578100">
        <ele>2573.4</ele>
        <time>2018-08-11T19:11:20Z</time>
      </trkpt>
      <trkpt lat="4.4944250" lon="-74.2577880">
        <ele>2573.4</ele>
        <time>2018-08-11T19:11:21Z</time>
      </trkpt>
      <trkpt lat="4.4944820" lon="-74.2577670">
        <ele>2573.3</ele>
        <time>2018-08-11T19:11:22Z</time>
      </trkpt>
      <trkpt lat="4.4945430" lon="-74.2577450">
        <ele>2573.3</ele>
        <time>2018-08-11T19:11:23Z</time>
      </trkpt>
      <trkpt lat="4.4946030" lon="-74.2577220">
        <ele>2573.2</ele>
        <time>2018-08-11T19:11:24Z</time>
      </trkpt>
      <trkpt lat="4.4946620" lon="-74.2577020">
        <ele>2573.2</ele>
        <time>2018-08-11T19:11:25Z</time>
      </trkpt>
      <trkpt lat="4.4947220" lon="-74.2576870">
        <ele>2573.1</ele>
        <time>2018-08-11T19:11:26Z</time>
      </trkpt>
      <trkpt lat="4.4947800" lon="-74.2576670">
        <ele>2573.1</ele>
        <time>2018-08-11T19:11:27Z</time>
      </trkpt>
      <trkpt lat="4.4948380" lon="-74.2576430">
        <ele>2573.0</ele>
        <time>2018-08-11T19:11:28Z</time>
      </trkpt>
      <trkpt lat="4.4949000" lon="-74.2576200">
        <ele>2573.0</ele>
        <time>2018-08-11T19:11:29Z</time>
      </trkpt>
      <trkpt lat="4.4949630" lon="-74.2576000">
        <ele>2572.9</ele>
        <time>2018-08-11T19:11:30Z</time>
      </trkpt>
      <trkpt lat="4.4950320" lon="-74.2575770">
        <ele>2572.8</ele>
        <time>2018-08-11T19:11:31Z</time>
      </trkpt>
      <trkpt lat="4.4950980" lon="-74.2575530">
        <ele>2572.7</ele>
        <time>2018-08-11T19:11:32Z</time>
      </trkpt>
      <trkpt lat="4.4951620" lon="-74.2575280">
        <ele>2572.7</ele>
        <time>2018-08-11T19:11:33Z</time>
      </trkpt>
      <trkpt lat="4.4952270" lon="-74.2575070">
        <ele>2572.6</ele>
        <time>2018-08-11T19:11:34Z</time>
      </trkpt>
      <trkpt lat="4.4952920" lon="-74.2574830">
        <ele>2572.2</ele>
        <time>2018-08-11T19:11:35Z</time>
      </trkpt>
      <trkpt lat="4.4953580" lon="-74.2574600">
        <ele>2572.0</ele>
        <time>2018-08-11T19:11:36Z</time>
      </trkpt>
      <trkpt lat="4.4954230" lon="-74.2574350">
        <ele>2572.0</ele>
        <time>2018-08-11T19:11:37Z</time>
      </trkpt>
      <trkpt lat="4.4954870" lon="-74.2574080">
        <ele>2572.0</ele>
        <time>2018-08-11T19:11:38Z</time>
      </trkpt>
      <trkpt lat="4.4955500" lon="-74.2573870">
        <ele>2572.0</ele>
        <time>2018-08-11T19:11:39Z</time>
      </trkpt>
      <trkpt lat="4.4956130" lon="-74.2573650">
        <ele>2572.1</ele>
        <time>2018-08-11T19:11:40Z</time>
      </trkpt>
      <trkpt lat="4.4956720" lon="-74.2573420">
        <ele>2572.1</ele>
        <time>2018-08-11T19:11:41Z</time>
      </trkpt>
      <trkpt lat="4.4957300" lon="-74.2573180">
        <ele>2572.1</ele>
        <time>2018-08-11T19:11:42Z</time>
      </trkpt>
      <trkpt lat="4.4957880" lon="-74.2572970">
        <ele>2572.2</ele>
        <time>2018-08-11T19:11:43Z</time>
      </trkpt>
      <trkpt lat="4.4958420" lon="-74.2572780">
        <ele>2572.2</ele>
        <time>2018-08-11T19:11:44Z</time>
      </trkpt>
      <trkpt lat="4.4958950" lon="-74.2572570">
        <ele>2572.2</ele>
        <time>2018-08-11T19:11:45Z</time>
      </trkpt>
      <trkpt lat="4.4959480" lon="-74.2572380">
        <ele>2572.2</ele>
        <time>2018-08-11T19:11:46Z</time>
      </trkpt>
      <trkpt lat="4.4960020" lon="-74.2572200">
        <ele>2572.2</ele>
        <time>2018-08-11T19:11:47Z</time>
      </trkpt>
      <trkpt lat="4.4960550" lon="-74.2572000">
        <ele>2572.3</ele>
        <time>2018-08-11T19:11:48Z</time>
      </trkpt>
      <trkpt lat="4.4961100" lon="-74.2571820">
        <ele>2572.3</ele>
        <time>2018-08-11T19:11:49Z</time>
      </trkpt>
      <trkpt lat="4.4961650" lon="-74.2571630">
        <ele>2572.2</ele>
        <time>2018-08-11T19:11:50Z</time>
      </trkpt>
      <trkpt lat="4.4962220" lon="-74.2571450">
        <ele>2572.2</ele>
        <time>2018-08-11T19:11:51Z</time>
      </trkpt>
      <trkpt lat="4.4962800" lon="-74.2571250">
        <ele>2572.1</ele>
        <time>2018-08-11T19:11:52Z</time>
      </trkpt>
      <trkpt lat="4.4963370" lon="-74.2571050">
        <ele>2572.0</ele>
        <time>2018-08-11T19:11:53Z</time>
      </trkpt>
      <trkpt lat="4.4963920" lon="-74.2570850">
        <ele>2572.0</ele>
        <time>2018-08-11T19:11:54Z</time>
      </trkpt>
      <trkpt lat="4.4964450" lon="-74.2570650">
        <ele>2572.0</ele>
        <time>2018-08-11T19:11:55Z</time>
      </trkpt>
      <trkpt lat="4.4965020" lon="-74.2570480">
        <ele>2572.2</ele>
        <time>2018-08-11T19:11:56Z</time>
      </trkpt>
      <trkpt lat="4.4965580" lon="-74.2570280">
        <ele>2572.5</ele>
        <time>2018-08-11T19:11:57Z</time>
      </trkpt>
      <trkpt lat="4.4966080" lon="-74.2570020">
        <ele>2572.9</ele>
        <time>2018-08-11T19:11:58Z</time>
      </trkpt>
      <trkpt lat="4.4966680" lon="-74.2569730">
        <ele>2573.4</ele>
        <time>2018-08-11T19:11:59Z</time>
      </trkpt>
      <trkpt lat="4.4967300" lon="-74.2569420">
        <ele>2573.5</ele>
        <time>2018-08-11T19:12:00Z</time>
      </trkpt>
      <trkpt lat="4.4967880" lon="-74.2569100">
        <ele>2573.4</ele>
        <time>2018-08-11T19:12:01Z</time>
      </trkpt>
      <trkpt lat="4.4968520" lon="-74.2568800">
        <ele>2573.2</ele>
        <time>2018-08-11T19:12:02Z</time>
      </trkpt>
      <trkpt lat="4.4969130" lon="-74.2568430">
        <ele>2573.2</ele>
        <time>2018-08-11T19:12:03Z</time>
      </trkpt>
      <trkpt lat="4.4969780" lon="-74.2568050">
        <ele>2573.1</ele>
        <time>2018-08-11T19:12:04Z</time>
      </trkpt>
      <trkpt lat="4.4970430" lon="-74.2567670">
        <ele>2573.1</ele>
        <time>2018-08-11T19:12:05Z</time>
      </trkpt>
      <trkpt lat="4.4971080" lon="-74.2567300">
        <ele>2572.6</ele>
        <time>2018-08-11T19:12:06Z</time>
      </trkpt>
      <trkpt lat="4.4971730" lon="-74.2566930">
        <ele>2572.0</ele>
        <time>2018-08-11T19:12:07Z</time>
      </trkpt>
      <trkpt lat="4.4972450" lon="-74.2566530">
        <ele>2572.0</ele>
        <time>2018-08-11T19:12:08Z</time>
      </trkpt>
      <trkpt lat="4.4973130" lon="-74.2566120">
        <ele>2572.1</ele>
        <time>2018-08-11T19:12:09Z</time>
      </trkpt>
      <trkpt lat="4.4973780" lon="-74.2565670">
        <ele>2572.1</ele>
        <time>2018-08-11T19:12:10Z</time>
      </trkpt>
      <trkpt lat="4.4974430" lon="-74.2565250">
        <ele>2572.2</ele>
        <time>2018-08-11T19:12:11Z</time>
      </trkpt>
      <trkpt lat="4.4975120" lon="-74.2564780">
        <ele>2572.3</ele>
        <time>2018-08-11T19:12:12Z</time>
      </trkpt>
      <trkpt lat="4.4975780" lon="-74.2564320">
        <ele>2572.3</ele>
        <time>2018-08-11T19:12:13Z</time>
      </trkpt>
      <trkpt lat="4.4976430" lon="-74.2563830">
        <ele>2572.4</ele>
        <time>2018-08-11T19:12:14Z</time>
      </trkpt>
      <trkpt lat="4.4977070" lon="-74.2563330">
        <ele>2572.4</ele>
        <time>2018-08-11T19:12:15Z</time>
      </trkpt>
      <trkpt lat="4.4977700" lon="-74.2562800">
        <ele>2572.4</ele>
        <time>2018-08-11T19:12:16Z</time>
      </trkpt>
      <trkpt lat="4.4978330" lon="-74.2562300">
        <ele>2572.5</ele>
        <time>2018-08-11T19:12:17Z</time>
      </trkpt>
      <trkpt lat="4.4978950" lon="-74.2561820">
        <ele>2572.5</ele>
        <time>2018-08-11T19:12:18Z</time>
      </trkpt>
      <trkpt lat="4.4979600" lon="-74.2561330">
        <ele>2572.6</ele>
        <time>2018-08-11T19:12:19Z</time>
      </trkpt>
      <trkpt lat="4.4980230" lon="-74.2560800">
        <ele>2572.6</ele>
        <time>2018-08-11T19:12:20Z</time>
      </trkpt>
      <trkpt lat="4.4980870" lon="-74.2560270">
        <ele>2572.6</ele>
        <time>2018-08-11T19:12:21Z</time>
      </trkpt>
      <trkpt lat="4.4981470" lon="-74.2559730">
        <ele>2572.6</ele>
        <time>2018-08-11T19:12:22Z</time>
      </trkpt>
      <trkpt lat="4.4982070" lon="-74.2559170">
        <ele>2572.6</ele>
        <time>2018-08-11T19:12:23Z</time>
      </trkpt>
      <trkpt lat="4.4982620" lon="-74.2558600">
        <ele>2572.7</ele>
        <time>2018-08-11T19:12:24Z</time>
      </trkpt>
      <trkpt lat="4.4983200" lon="-74.2558050">
        <ele>2572.7</ele>
        <time>2018-08-11T19:12:25Z</time>
      </trkpt>
      <trkpt lat="4.4983770" lon="-74.2557520">
        <ele>2572.8</ele>
        <time>2018-08-11T19:12:26Z</time>
      </trkpt>
      <trkpt lat="4.4984320" lon="-74.2557020">
        <ele>2572.8</ele>
        <time>2018-08-11T19:12:27Z</time>
      </trkpt>
      <trkpt lat="4.4984820" lon="-74.2556500">
        <ele>2572.8</ele>
        <time>2018-08-11T19:12:28Z</time>
      </trkpt>
      <trkpt lat="4.4985350" lon="-74.2556050">
        <ele>2572.9</ele>
        <time>2018-08-11T19:12:29Z</time>
      </trkpt>
      <trkpt lat="4.4985880" lon="-74.2555530">
        <ele>2572.9</ele>
        <time>2018-08-11T19:12:30Z</time>
      </trkpt>
      <trkpt lat="4.4986450" lon="-74.2555000">
        <ele>2573.0</ele>
        <time>2018-08-11T19:12:31Z</time>
      </trkpt>
      <trkpt lat="4.4987020" lon="-74.2554430">
        <ele>2573.1</ele>
        <time>2018-08-11T19:12:32Z</time>
      </trkpt>
      <trkpt lat="4.4987570" lon="-74.2553900">
        <ele>2573.1</ele>
        <time>2018-08-11T19:12:33Z</time>
      </trkpt>
      <trkpt lat="4.4988120" lon="-74.2553380">
        <ele>2573.2</ele>
        <time>2018-08-11T19:12:34Z</time>
      </trkpt>
      <trkpt lat="4.4988630" lon="-74.2552900">
        <ele>2573.3</ele>
        <time>2018-08-11T19:12:35Z</time>
      </trkpt>
      <trkpt lat="4.4989300" lon="-74.2552370">
        <ele>2573.4</ele>
        <time>2018-08-11T19:12:36Z</time>
      </trkpt>
      <trkpt lat="4.4989830" lon="-74.2551830">
        <ele>2573.5</ele>
        <time>2018-08-11T19:12:37Z</time>
      </trkpt>
      <trkpt lat="4.4990320" lon="-74.2551330">
        <ele>2573.6</ele>
        <time>2018-08-11T19:12:38Z</time>
      </trkpt>
      <trkpt lat="4.4990780" lon="-74.2550800">
        <ele>2573.6</ele>
        <time>2018-08-11T19:12:39Z</time>
      </trkpt>
      <trkpt lat="4.4991280" lon="-74.2550280">
        <ele>2573.7</ele>
        <time>2018-08-11T19:12:40Z</time>
      </trkpt>
      <trkpt lat="4.4991750" lon="-74.2549780">
        <ele>2573.8</ele>
        <time>2018-08-11T19:12:41Z</time>
      </trkpt>
      <trkpt lat="4.4992250" lon="-74.2549280">
        <ele>2573.8</ele>
        <time>2018-08-11T19:12:42Z</time>
      </trkpt>
      <trkpt lat="4.4992750" lon="-74.2548800">
        <ele>2574.0</ele>
        <time>2018-08-11T19:12:43Z</time>
      </trkpt>
      <trkpt lat="4.4993320" lon="-74.2548270">
        <ele>2574.1</ele>
        <time>2018-08-11T19:12:44Z</time>
      </trkpt>
      <trkpt lat="4.4993900" lon="-74.2547730">
        <ele>2574.2</ele>
        <time>2018-08-11T19:12:45Z</time>
      </trkpt>
      <trkpt lat="4.4994500" lon="-74.2547170">
        <ele>2574.3</ele>
        <time>2018-08-11T19:12:46Z</time>
      </trkpt>
      <trkpt lat="4.4995050" lon="-74.2546620">
        <ele>2574.3</ele>
        <time>2018-08-11T19:12:47Z</time>
      </trkpt>
      <trkpt lat="4.4995670" lon="-74.2546050">
        <ele>2574.4</ele>
        <time>2018-08-11T19:12:48Z</time>
      </trkpt>
      <trkpt lat="4.4996270" lon="-74.2545470">
        <ele>2574.5</ele>
        <time>2018-08-11T19:12:49Z</time>
      </trkpt>
      <trkpt lat="4.4996900" lon="-74.2544870">
        <ele>2574.6</ele>
        <time>2018-08-11T19:12:50Z</time>
      </trkpt>
      <trkpt lat="4.4997550" lon="-74.2544250">
        <ele>2574.7</ele>
        <time>2018-08-11T19:12:51Z</time>
      </trkpt>
      <trkpt lat="4.4998230" lon="-74.2543600">
        <ele>2574.9</ele>
        <time>2018-08-11T19:12:52Z</time>
      </trkpt>
      <trkpt lat="4.4998900" lon="-74.2542980">
        <ele>2575.0</ele>
        <time>2018-08-11T19:12:53Z</time>
      </trkpt>
      <trkpt lat="4.4999600" lon="-74.2542320">
        <ele>2575.1</ele>
        <time>2018-08-11T19:12:54Z</time>
      </trkpt>
      <trkpt lat="4.5000300" lon="-74.2541670">
        <ele>2575.2</ele>
        <time>2018-08-11T19:12:55Z</time>
      </trkpt>
      <trkpt lat="4.5001020" lon="-74.2541050">
        <ele>2575.4</ele>
        <time>2018-08-11T19:12:56Z</time>
      </trkpt>
      <trkpt lat="4.5001680" lon="-74.2540450">
        <ele>2575.5</ele>
        <time>2018-08-11T19:12:57Z</time>
      </trkpt>
      <trkpt lat="4.5002320" lon="-74.2539870">
        <ele>2575.6</ele>
        <time>2018-08-11T19:12:58Z</time>
      </trkpt>
      <trkpt lat="4.5002950" lon="-74.2539280">
        <ele>2575.7</ele>
        <time>2018-08-11T19:12:59Z</time>
      </trkpt>
      <trkpt lat="4.5003550" lon="-74.2538730">
        <ele>2575.8</ele>
        <time>2018-08-11T19:13:00Z</time>
      </trkpt>
      <trkpt lat="4.5004100" lon="-74.2538180">
        <ele>2575.8</ele>
        <time>2018-08-11T19:13:01Z</time>
      </trkpt>
      <trkpt lat="4.5004680" lon="-74.2537700">
        <ele>2575.9</ele>
        <time>2018-08-11T19:13:02Z</time>
      </trkpt>
      <trkpt lat="4.5005230" lon="-74.2537130">
        <ele>2576.0</ele>
        <time>2018-08-11T19:13:03Z</time>
      </trkpt>
      <trkpt lat="4.5005750" lon="-74.2536600">
        <ele>2576.0</ele>
        <time>2018-08-11T19:13:04Z</time>
      </trkpt>
      <trkpt lat="4.5006300" lon="-74.2536100">
        <ele>2576.1</ele>
        <time>2018-08-11T19:13:05Z</time>
      </trkpt>
      <trkpt lat="4.5006830" lon="-74.2535600">
        <ele>2576.2</ele>
        <time>2018-08-11T19:13:06Z</time>
      </trkpt>
      <trkpt lat="4.5007330" lon="-74.2535150">
        <ele>2576.2</ele>
        <time>2018-08-11T19:13:07Z</time>
      </trkpt>
      <trkpt lat="4.5007870" lon="-74.2534720">
        <ele>2576.3</ele>
        <time>2018-08-11T19:13:08Z</time>
      </trkpt>
      <trkpt lat="4.5008400" lon="-74.2534330">
        <ele>2576.4</ele>
        <time>2018-08-11T19:13:09Z</time>
      </trkpt>
      <trkpt lat="4.5008950" lon="-74.2533900">
        <ele>2576.5</ele>
        <time>2018-08-11T19:13:10Z</time>
      </trkpt>
      <trkpt lat="4.5009480" lon="-74.2533420">
        <ele>2576.6</ele>
        <time>2018-08-11T19:13:11Z</time>
      </trkpt>
      <trkpt lat="4.5010000" lon="-74.2532920">
        <ele>2576.7</ele>
        <time>2018-08-11T19:13:12Z</time>
      </trkpt>
      <trkpt lat="4.5010500" lon="-74.2532400">
        <ele>2576.7</ele>
        <time>2018-08-11T19:13:13Z</time>
      </trkpt>
      <trkpt lat="4.5011000" lon="-74.2531870">
        <ele>2576.8</ele>
        <time>2018-08-11T19:13:14Z</time>
      </trkpt>
      <trkpt lat="4.5011450" lon="-74.2531300">
        <ele>2576.9</ele>
        <time>2018-08-11T19:13:15Z</time>
      </trkpt>
      <trkpt lat="4.5011930" lon="-74.2530720">
        <ele>2577.0</ele>
        <time>2018-08-11T19:13:16Z</time>
      </trkpt>
      <trkpt lat="4.5012470" lon="-74.2530150">
        <ele>2577.0</ele>
        <time>2018-08-11T19:13:17Z</time>
      </trkpt>
      <trkpt lat="4.5012970" lon="-74.2529600">
        <ele>2577.0</ele>
        <time>2018-08-11T19:13:18Z</time>
      </trkpt>
      <trkpt lat="4.5013480" lon="-74.2529080">
        <ele>2576.9</ele>
        <time>2018-08-11T19:13:19Z</time>
      </trkpt>
      <trkpt lat="4.5014020" lon="-74.2528530">
        <ele>2576.9</ele>
        <time>2018-08-11T19:13:20Z</time>
      </trkpt>
      <trkpt lat="4.5014580" lon="-74.2527970">
        <ele>2576.8</ele>
        <time>2018-08-11T19:13:21Z</time>
      </trkpt>
      <trkpt lat="4.5015170" lon="-74.2527400">
        <ele>2576.8</ele>
        <time>2018-08-11T19:13:22Z</time>
      </trkpt>
      <trkpt lat="4.5015750" lon="-74.2526870">
        <ele>2576.8</ele>
        <time>2018-08-11T19:13:23Z</time>
      </trkpt>
      <trkpt lat="4.5016320" lon="-74.2526350">
        <ele>2576.7</ele>
        <time>2018-08-11T19:13:24Z</time>
      </trkpt>
      <trkpt lat="4.5016880" lon="-74.2525820">
        <ele>2576.7</ele>
        <time>2018-08-11T19:13:25Z</time>
      </trkpt>
      <trkpt lat="4.5017470" lon="-74.2525270">
        <ele>2576.7</ele>
        <time>2018-08-11T19:13:26Z</time>
      </trkpt>
      <trkpt lat="4.5018050" lon="-74.2524730">
        <ele>2576.6</ele>
        <time>2018-08-11T19:13:27Z</time>
      </trkpt>
      <trkpt lat="4.5018630" lon="-74.2524200">
        <ele>2576.6</ele>
        <time>2018-08-11T19:13:28Z</time>
      </trkpt>
      <trkpt lat="4.5019220" lon="-74.2523650">
        <ele>2576.6</ele>
        <time>2018-08-11T19:13:29Z</time>
      </trkpt>
      <trkpt lat="4.5019780" lon="-74.2523130">
        <ele>2576.6</ele>
        <time>2018-08-11T19:13:30Z</time>
      </trkpt>
      <trkpt lat="4.5020350" lon="-74.2522620">
        <ele>2576.5</ele>
        <time>2018-08-11T19:13:31Z</time>
      </trkpt>
      <trkpt lat="4.5020930" lon="-74.2522070">
        <ele>2576.5</ele>
        <time>2018-08-11T19:13:32Z</time>
      </trkpt>
      <trkpt lat="4.5021550" lon="-74.2521500">
        <ele>2576.5</ele>
        <time>2018-08-11T19:13:33Z</time>
      </trkpt>
      <trkpt lat="4.5022180" lon="-74.2520950">
        <ele>2576.4</ele>
        <time>2018-08-11T19:13:34Z</time>
      </trkpt>
      <trkpt lat="4.5022750" lon="-74.2520380">
        <ele>2576.4</ele>
        <time>2018-08-11T19:13:35Z</time>
      </trkpt>
      <trkpt lat="4.5023330" lon="-74.2519750">
        <ele>2576.4</ele>
        <time>2018-08-11T19:13:36Z</time>
      </trkpt>
      <trkpt lat="4.5023920" lon="-74.2519130">
        <ele>2576.4</ele>
        <time>2018-08-11T19:13:37Z</time>
      </trkpt>
      <trkpt lat="4.5024500" lon="-74.2518520">
        <ele>2576.3</ele>
        <time>2018-08-11T19:13:38Z</time>
      </trkpt>
      <trkpt lat="4.5025100" lon="-74.2517930">
        <ele>2576.3</ele>
        <time>2018-08-11T19:13:39Z</time>
      </trkpt>
      <trkpt lat="4.5025680" lon="-74.2517350">
        <ele>2576.3</ele>
        <time>2018-08-11T19:13:40Z</time>
      </trkpt>
      <trkpt lat="4.5026270" lon="-74.2516820">
        <ele>2576.3</ele>
        <time>2018-08-11T19:13:41Z</time>
      </trkpt>
      <trkpt lat="4.5026850" lon="-74.2516270">
        <ele>2576.2</ele>
        <time>2018-08-11T19:13:42Z</time>
      </trkpt>
      <trkpt lat="4.5027400" lon="-74.2515720">
        <ele>2576.2</ele>
        <time>2018-08-11T19:13:43Z</time>
      </trkpt>
      <trkpt lat="4.5027920" lon="-74.2515170">
        <ele>2576.2</ele>
        <time>2018-08-11T19:13:44Z</time>
      </trkpt>
      <trkpt lat="4.5028450" lon="-74.2514630">
        <ele>2576.2</ele>
        <time>2018-08-11T19:13:45Z</time>
      </trkpt>
      <trkpt lat="4.5028970" lon="-74.2514120">
        <ele>2576.2</ele>
        <time>2018-08-11T19:13:46Z</time>
      </trkpt>
      <trkpt lat="4.5029500" lon="-74.2513580">
        <ele>2576.1</ele>
        <time>2018-08-11T19:13:47Z</time>
      </trkpt>
      <trkpt lat="4.5030080" lon="-74.2513020">
        <ele>2576.1</ele>
        <time>2018-08-11T19:13:48Z</time>
      </trkpt>
      <trkpt lat="4.5030620" lon="-74.2512480">
        <ele>2576.0</ele>
        <time>2018-08-11T19:13:49Z</time>
      </trkpt>
      <trkpt lat="4.5031150" lon="-74.2511950">
        <ele>2576.0</ele>
        <time>2018-08-11T19:13:50Z</time>
      </trkpt>
      <trkpt lat="4.5031700" lon="-74.2511420">
        <ele>2576.0</ele>
        <time>2018-08-11T19:13:51Z</time>
      </trkpt>
      <trkpt lat="4.5032280" lon="-74.2510880">
        <ele>2576.0</ele>
        <time>2018-08-11T19:13:52Z</time>
      </trkpt>
      <trkpt lat="4.5032850" lon="-74.2510380">
        <ele>2575.9</ele>
        <time>2018-08-11T19:13:53Z</time>
      </trkpt>
      <trkpt lat="4.5033400" lon="-74.2509850">
        <ele>2575.9</ele>
        <time>2018-08-11T19:13:54Z</time>
      </trkpt>
      <trkpt lat="4.5033970" lon="-74.2509300">
        <ele>2575.8</ele>
        <time>2018-08-11T19:13:55Z</time>
      </trkpt>
      <trkpt lat="4.5034580" lon="-74.2508720">
        <ele>2575.8</ele>
        <time>2018-08-11T19:13:56Z</time>
      </trkpt>
      <trkpt lat="4.5035170" lon="-74.2508150">
        <ele>2575.8</ele>
        <time>2018-08-11T19:13:57Z</time>
      </trkpt>
      <trkpt lat="4.5035730" lon="-74.2507570">
        <ele>2575.7</ele>
        <time>2018-08-11T19:13:58Z</time>
      </trkpt>
      <trkpt lat="4.5036330" lon="-74.2507000">
        <ele>2575.7</ele>
        <time>2018-08-11T19:13:59Z</time>
      </trkpt>
      <trkpt lat="4.5036920" lon="-74.2506420">
        <ele>2575.7</ele>
        <time>2018-08-11T19:14:00Z</time>
      </trkpt>
      <trkpt lat="4.5037480" lon="-74.2505870">
        <ele>2575.6</ele>
        <time>2018-08-11T19:14:01Z</time>
      </trkpt>
      <trkpt lat="4.5038080" lon="-74.2505320">
        <ele>2575.6</ele>
        <time>2018-08-11T19:14:02Z</time>
      </trkpt>
      <trkpt lat="4.5038650" lon="-74.2504770">
        <ele>2575.6</ele>
        <time>2018-08-11T19:14:03Z</time>
      </trkpt>
      <trkpt lat="4.5039220" lon="-74.2504250">
        <ele>2575.6</ele>
        <time>2018-08-11T19:14:04Z</time>
      </trkpt>
      <trkpt lat="4.5039800" lon="-74.2503820">
        <ele>2575.5</ele>
        <time>2018-08-11T19:14:05Z</time>
      </trkpt>
      <trkpt lat="4.5040350" lon="-74.2503300">
        <ele>2575.5</ele>
        <time>2018-08-11T19:14:06Z</time>
      </trkpt>
      <trkpt lat="4.5040930" lon="-74.2502750">
        <ele>2575.5</ele>
        <time>2018-08-11T19:14:07Z</time>
      </trkpt>
      <trkpt lat="4.5041480" lon="-74.2502200">
        <ele>2575.4</ele>
        <time>2018-08-11T19:14:08Z</time>
      </trkpt>
      <trkpt lat="4.5042080" lon="-74.2501650">
        <ele>2575.4</ele>
        <time>2018-08-11T19:14:09Z</time>
      </trkpt>
      <trkpt lat="4.5042650" lon="-74.2501080">
        <ele>2575.3</ele>
        <time>2018-08-11T19:14:10Z</time>
      </trkpt>
      <trkpt lat="4.5043230" lon="-74.2500500">
        <ele>2575.3</ele>
        <time>2018-08-11T19:14:11Z</time>
      </trkpt>
      <trkpt lat="4.5043830" lon="-74.2499970">
        <ele>2575.3</ele>
        <time>2018-08-11T19:14:12Z</time>
      </trkpt>
      <trkpt lat="4.5044400" lon="-74.2499450">
        <ele>2575.2</ele>
        <time>2018-08-11T19:14:13Z</time>
      </trkpt>
      <trkpt lat="4.5044950" lon="-74.2498930">
        <ele>2575.2</ele>
        <time>2018-08-11T19:14:14Z</time>
      </trkpt>
      <trkpt lat="4.5045530" lon="-74.2498420">
        <ele>2575.2</ele>
        <time>2018-08-11T19:14:15Z</time>
      </trkpt>
      <trkpt lat="4.5046130" lon="-74.2497880">
        <ele>2575.1</ele>
        <time>2018-08-11T19:14:16Z</time>
      </trkpt>
      <trkpt lat="4.5046730" lon="-74.2497320">
        <ele>2575.1</ele>
        <time>2018-08-11T19:14:17Z</time>
      </trkpt>
      <trkpt lat="4.5047330" lon="-74.2496780">
        <ele>2575.1</ele>
        <time>2018-08-11T19:14:18Z</time>
      </trkpt>
      <trkpt lat="4.5047920" lon="-74.2496250">
        <ele>2574.9</ele>
        <time>2018-08-11T19:14:19Z</time>
      </trkpt>
      <trkpt lat="4.5048480" lon="-74.2495700">
        <ele>2574.7</ele>
        <time>2018-08-11T19:14:20Z</time>
      </trkpt>
      <trkpt lat="4.5049020" lon="-74.2495170">
        <ele>2574.5</ele>
        <time>2018-08-11T19:14:21Z</time>
      </trkpt>
      <trkpt lat="4.5049530" lon="-74.2494630">
        <ele>2574.4</ele>
        <time>2018-08-11T19:14:22Z</time>
      </trkpt>
      <trkpt lat="4.5050030" lon="-74.2494100">
        <ele>2574.3</ele>
        <time>2018-08-11T19:14:23Z</time>
      </trkpt>
      <trkpt lat="4.5050550" lon="-74.2493620">
        <ele>2574.2</ele>
        <time>2018-08-11T19:14:24Z</time>
      </trkpt>
      <trkpt lat="4.5051030" lon="-74.2493120">
        <ele>2574.0</ele>
        <time>2018-08-11T19:14:25Z</time>
      </trkpt>
      <trkpt lat="4.5051530" lon="-74.2492620">
        <ele>2573.8</ele>
        <time>2018-08-11T19:14:26Z</time>
      </trkpt>
      <trkpt lat="4.5052020" lon="-74.2492130">
        <ele>2573.8</ele>
        <time>2018-08-11T19:14:27Z</time>
      </trkpt>
      <trkpt lat="4.5052500" lon="-74.2491650">
        <ele>2573.7</ele>
        <time>2018-08-11T19:14:28Z</time>
      </trkpt>
      <trkpt lat="4.5052980" lon="-74.2491200">
        <ele>2573.6</ele>
        <time>2018-08-11T19:14:29Z</time>
      </trkpt>
      <trkpt lat="4.5053480" lon="-74.2490730">
        <ele>2573.5</ele>
        <time>2018-08-11T19:14:30Z</time>
      </trkpt>
      <trkpt lat="4.5053970" lon="-74.2490270">
        <ele>2573.5</ele>
        <time>2018-08-11T19:14:31Z</time>
      </trkpt>
      <trkpt lat="4.5054470" lon="-74.2489800">
        <ele>2573.4</ele>
        <time>2018-08-11T19:14:32Z</time>
      </trkpt>
      <trkpt lat="4.5054930" lon="-74.2489350">
        <ele>2573.3</ele>
        <time>2018-08-11T19:14:33Z</time>
      </trkpt>
      <trkpt lat="4.5055350" lon="-74.2488930">
        <ele>2573.3</ele>
        <time>2018-08-11T19:14:34Z</time>
      </trkpt>
      <trkpt lat="4.5055700" lon="-74.2488600">
        <ele>2573.2</ele>
        <time>2018-08-11T19:14:35Z</time>
      </trkpt>
      <trkpt lat="4.5055520" lon="-74.2488980">
        <ele>2573.3</ele>
        <time>2018-08-11T19:14:42Z</time>
      </trkpt>
      <trkpt lat="4.5055270" lon="-74.2489270">
        <ele>2573.3</ele>
        <time>2018-08-11T19:14:44Z</time>
      </trkpt>
      <trkpt lat="4.5054930" lon="-74.2489630">
        <ele>2573.3</ele>
        <time>2018-08-11T19:14:46Z</time>
      </trkpt>
      <trkpt lat="4.5054550" lon="-74.2489950">
        <ele>2573.4</ele>
        <time>2018-08-11T19:14:48Z</time>
      </trkpt>
      <trkpt lat="4.5054280" lon="-74.2490270">
        <ele>2573.4</ele>
        <time>2018-08-11T19:14:50Z</time>
      </trkpt>
      <trkpt lat="4.5053980" lon="-74.2490520">
        <ele>2573.5</ele>
        <time>2018-08-11T19:14:53Z</time>
      </trkpt>
      <trkpt lat="4.5054470" lon="-74.2490520">
        <ele>2573.4</ele>
        <time>2018-08-11T19:14:56Z</time>
      </trkpt>
      <trkpt lat="4.5054700" lon="-74.2490670">
        <ele>2573.4</ele>
        <time>2018-08-11T19:14:58Z</time>
      </trkpt>
      <trkpt lat="4.5054850" lon="-74.2490370">
        <ele>2573.4</ele>
        <time>2018-08-11T19:15:05Z</time>
      </trkpt>
      <trkpt lat="4.5055100" lon="-74.2490050">
        <ele>2573.3</ele>
        <time>2018-08-11T19:15:08Z</time>
      </trkpt>
      <trkpt lat="4.5055420" lon="-74.2489550">
        <ele>2573.3</ele>
        <time>2018-08-11T19:15:10Z</time>
      </trkpt>
      <trkpt lat="4.5055600" lon="-74.2489300">
        <ele>2573.2</ele>
        <time>2018-08-11T19:15:11Z</time>
      </trkpt>
      <trkpt lat="4.5055850" lon="-74.2489070">
        <ele>2573.2</ele>
        <time>2018-08-11T19:15:12Z</time>
      </trkpt>
      <trkpt lat="4.5056080" lon="-74.2488850">
        <ele>2573.2</ele>
        <time>2018-08-11T19:15:13Z</time>
      </trkpt>
      <trkpt lat="4.5056330" lon="-74.2488600">
        <ele>2573.2</ele>
        <time>2018-08-11T19:15:14Z</time>
      </trkpt>
      <trkpt lat="4.5056570" lon="-74.2488350">
        <ele>2573.2</ele>
        <time>2018-08-11T19:15:15Z</time>
      </trkpt>
      <trkpt lat="4.5056800" lon="-74.2488080">
        <ele>2573.2</ele>
        <time>2018-08-11T19:15:16Z</time>
      </trkpt>
      <trkpt lat="4.5057070" lon="-74.2487830">
        <ele>2573.1</ele>
        <time>2018-08-11T19:15:17Z</time>
      </trkpt>
      <trkpt lat="4.5057320" lon="-74.2487580">
        <ele>2573.1</ele>
        <time>2018-08-11T19:15:18Z</time>
      </trkpt>
      <trkpt lat="4.5057580" lon="-74.2487300">
        <ele>2573.1</ele>
        <time>2018-08-11T19:15:19Z</time>
      </trkpt>
      <trkpt lat="4.5057870" lon="-74.2487080">
        <ele>2573.1</ele>
        <time>2018-08-11T19:15:20Z</time>
      </trkpt>
      <trkpt lat="4.5058180" lon="-74.2486900">
        <ele>2573.0</ele>
        <time>2018-08-11T19:15:21Z</time>
      </trkpt>
      <trkpt lat="4.5058430" lon="-74.2486700">
        <ele>2573.0</ele>
        <time>2018-08-11T19:15:22Z</time>
      </trkpt>
      <trkpt lat="4.5058700" lon="-74.2486480">
        <ele>2573.0</ele>
        <time>2018-08-11T19:15:23Z</time>
      </trkpt>
      <trkpt lat="4.5058970" lon="-74.2486230">
        <ele>2573.0</ele>
        <time>2018-08-11T19:15:24Z</time>
      </trkpt>
      <trkpt lat="4.5059200" lon="-74.2486000">
        <ele>2573.0</ele>
        <time>2018-08-11T19:15:25Z</time>
      </trkpt>
      <trkpt lat="4.5059420" lon="-74.2485770">
        <ele>2573.0</ele>
        <time>2018-08-11T19:15:26Z</time>
      </trkpt>
      <trkpt lat="4.5059620" lon="-74.2485530">
        <ele>2573.0</ele>
        <time>2018-08-11T19:15:27Z</time>
      </trkpt>
      <trkpt lat="4.5059800" lon="-74.2485280">
        <ele>2572.9</ele>
        <time>2018-08-11T19:15:28Z</time>
      </trkpt>
      <trkpt lat="4.5059980" lon="-74.2485020">
        <ele>2572.9</ele>
        <time>2018-08-11T19:15:29Z</time>
      </trkpt>
      <trkpt lat="4.5060150" lon="-74.2484730">
        <ele>2572.9</ele>
        <time>2018-08-11T19:15:30Z</time>
      </trkpt>
      <trkpt lat="4.5060300" lon="-74.2484420">
        <ele>2572.9</ele>
        <time>2018-08-11T19:15:31Z</time>
      </trkpt>
      <trkpt lat="4.5060500" lon="-74.2484070">
        <ele>2572.9</ele>
        <time>2018-08-11T19:15:32Z</time>
      </trkpt>
      <trkpt lat="4.5060750" lon="-74.2483770">
        <ele>2572.9</ele>
        <time>2018-08-11T19:15:33Z</time>
      </trkpt>
      <trkpt lat="4.5061020" lon="-74.2483470">
        <ele>2572.9</ele>
        <time>2018-08-11T19:15:34Z</time>
      </trkpt>
      <trkpt lat="4.5061350" lon="-74.2483130">
        <ele>2572.9</ele>
        <time>2018-08-11T19:15:35Z</time>
      </trkpt>
      <trkpt lat="4.5061750" lon="-74.2482870">
        <ele>2572.8</ele>
        <time>2018-08-11T19:15:36Z</time>
      </trkpt>
      <trkpt lat="4.5062080" lon="-74.2482580">
        <ele>2572.8</ele>
        <time>2018-08-11T19:15:37Z</time>
      </trkpt>
      <trkpt lat="4.5062420" lon="-74.2482250">
        <ele>2572.8</ele>
        <time>2018-08-11T19:15:38Z</time>
      </trkpt>
      <trkpt lat="4.5062750" lon="-74.2481880">
        <ele>2572.8</ele>
        <time>2018-08-11T19:15:39Z</time>
      </trkpt>
      <trkpt lat="4.5063100" lon="-74.2481480">
        <ele>2572.8</ele>
        <time>2018-08-11T19:15:40Z</time>
      </trkpt>
      <trkpt lat="4.5063550" lon="-74.2481080">
        <ele>2572.8</ele>
        <time>2018-08-11T19:15:41Z</time>
      </trkpt>
      <trkpt lat="4.5064000" lon="-74.2480650">
        <ele>2572.8</ele>
        <time>2018-08-11T19:15:42Z</time>
      </trkpt>
      <trkpt lat="4.5064450" lon="-74.2480230">
        <ele>2572.7</ele>
        <time>2018-08-11T19:15:43Z</time>
      </trkpt>
      <trkpt lat="4.5064900" lon="-74.2479820">
        <ele>2572.7</ele>
        <time>2018-08-11T19:15:44Z</time>
      </trkpt>
      <trkpt lat="4.5065350" lon="-74.2479370">
        <ele>2572.7</ele>
        <time>2018-08-11T19:15:45Z</time>
      </trkpt>
      <trkpt lat="4.5065780" lon="-74.2478920">
        <ele>2572.6</ele>
        <time>2018-08-11T19:15:46Z</time>
      </trkpt>
      <trkpt lat="4.5066220" lon="-74.2478480">
        <ele>2572.6</ele>
        <time>2018-08-11T19:15:47Z</time>
      </trkpt>
      <trkpt lat="4.5066680" lon="-74.2478050">
        <ele>2572.6</ele>
        <time>2018-08-11T19:15:48Z</time>
      </trkpt>
      <trkpt lat="4.5067150" lon="-74.2477580">
        <ele>2572.6</ele>
        <time>2018-08-11T19:15:49Z</time>
      </trkpt>
      <trkpt lat="4.5067600" lon="-74.2477120">
        <ele>2572.5</ele>
        <time>2018-08-11T19:15:50Z</time>
      </trkpt>
      <trkpt lat="4.5068080" lon="-74.2476670">
        <ele>2572.5</ele>
        <time>2018-08-11T19:15:51Z</time>
      </trkpt>
      <trkpt lat="4.5068570" lon="-74.2476200">
        <ele>2572.5</ele>
        <time>2018-08-11T19:15:52Z</time>
      </trkpt>
      <trkpt lat="4.5069080" lon="-74.2475680">
        <ele>2572.5</ele>
        <time>2018-08-11T19:15:53Z</time>
      </trkpt>
      <trkpt lat="4.5069600" lon="-74.2475200">
        <ele>2572.5</ele>
        <time>2018-08-11T19:15:54Z</time>
      </trkpt>
      <trkpt lat="4.5070120" lon="-74.2474720">
        <ele>2572.5</ele>
        <time>2018-08-11T19:15:55Z</time>
      </trkpt>
      <trkpt lat="4.5070620" lon="-74.2474220">
        <ele>2572.5</ele>
        <time>2018-08-11T19:15:56Z</time>
      </trkpt>
      <trkpt lat="4.5071130" lon="-74.2473720">
        <ele>2572.5</ele>
        <time>2018-08-11T19:15:57Z</time>
      </trkpt>
      <trkpt lat="4.5071650" lon="-74.2473200">
        <ele>2572.5</ele>
        <time>2018-08-11T19:15:58Z</time>
      </trkpt>
      <trkpt lat="4.5072130" lon="-74.2472700">
        <ele>2572.5</ele>
        <time>2018-08-11T19:15:59Z</time>
      </trkpt>
      <trkpt lat="4.5072620" lon="-74.2472200">
        <ele>2572.4</ele>
        <time>2018-08-11T19:16:00Z</time>
      </trkpt>
      <trkpt lat="4.5073080" lon="-74.2471730">
        <ele>2572.4</ele>
        <time>2018-08-11T19:16:01Z</time>
      </trkpt>
      <trkpt lat="4.5073550" lon="-74.2471280">
        <ele>2572.4</ele>
        <time>2018-08-11T19:16:02Z</time>
      </trkpt>
      <trkpt lat="4.5074000" lon="-74.2470820">
        <ele>2572.4</ele>
        <time>2018-08-11T19:16:03Z</time>
      </trkpt>
      <trkpt lat="4.5074500" lon="-74.2470330">
        <ele>2572.4</ele>
        <time>2018-08-11T19:16:04Z</time>
      </trkpt>
      <trkpt lat="4.5074980" lon="-74.2469870">
        <ele>2572.4</ele>
        <time>2018-08-11T19:16:05Z</time>
      </trkpt>
      <trkpt lat="4.5075450" lon="-74.2469430">
        <ele>2572.4</ele>
        <time>2018-08-11T19:16:06Z</time>
      </trkpt>
      <trkpt lat="4.5075930" lon="-74.2469030">
        <ele>2572.4</ele>
        <time>2018-08-11T19:16:07Z</time>
      </trkpt>
      <trkpt lat="4.5076430" lon="-74.2468570">
        <ele>2572.4</ele>
        <time>2018-08-11T19:16:08Z</time>
      </trkpt>
      <trkpt lat="4.5076930" lon="-74.2468100">
        <ele>2572.4</ele>
        <time>2018-08-11T19:16:09Z</time>
      </trkpt>
      <trkpt lat="4.5077450" lon="-74.2467600">
        <ele>2572.3</ele>
        <time>2018-08-11T19:16:10Z</time>
      </trkpt>
      <trkpt lat="4.5077880" lon="-74.2467150">
        <ele>2572.3</ele>
        <time>2018-08-11T19:16:11Z</time>
      </trkpt>
      <trkpt lat="4.5078370" lon="-74.2466700">
        <ele>2572.3</ele>
        <time>2018-08-11T19:16:12Z</time>
      </trkpt>
      <trkpt lat="4.5078800" lon="-74.2466270">
        <ele>2572.3</ele>
        <time>2018-08-11T19:16:13Z</time>
      </trkpt>
      <trkpt lat="4.5079270" lon="-74.2465780">
        <ele>2572.3</ele>
        <time>2018-08-11T19:16:14Z</time>
      </trkpt>
      <trkpt lat="4.5079750" lon="-74.2465330">
        <ele>2572.3</ele>
        <time>2018-08-11T19:16:15Z</time>
      </trkpt>
      <trkpt lat="4.5080220" lon="-74.2464850">
        <ele>2572.3</ele>
        <time>2018-08-11T19:16:16Z</time>
      </trkpt>
      <trkpt lat="4.5080670" lon="-74.2464380">
        <ele>2572.2</ele>
        <time>2018-08-11T19:16:17Z</time>
      </trkpt>
      <trkpt lat="4.5081120" lon="-74.2463930">
        <ele>2572.2</ele>
        <time>2018-08-11T19:16:18Z</time>
      </trkpt>
      <trkpt lat="4.5081570" lon="-74.2463500">
        <ele>2572.2</ele>
        <time>2018-08-11T19:16:19Z</time>
      </trkpt>
      <trkpt lat="4.5082050" lon="-74.2463050">
        <ele>2572.2</ele>
        <time>2018-08-11T19:16:20Z</time>
      </trkpt>
      <trkpt lat="4.5082520" lon="-74.2462580">
        <ele>2572.2</ele>
        <time>2018-08-11T19:16:21Z</time>
      </trkpt>
      <trkpt lat="4.5083030" lon="-74.2462100">
        <ele>2572.1</ele>
        <time>2018-08-11T19:16:22Z</time>
      </trkpt>
      <trkpt lat="4.5083500" lon="-74.2461700">
        <ele>2572.1</ele>
        <time>2018-08-11T19:16:23Z</time>
      </trkpt>
      <trkpt lat="4.5083980" lon="-74.2461280">
        <ele>2572.1</ele>
        <time>2018-08-11T19:16:24Z</time>
      </trkpt>
      <trkpt lat="4.5084480" lon="-74.2460870">
        <ele>2572.1</ele>
        <time>2018-08-11T19:16:25Z</time>
      </trkpt>
      <trkpt lat="4.5084920" lon="-74.2460450">
        <ele>2572.1</ele>
        <time>2018-08-11T19:16:26Z</time>
      </trkpt>
      <trkpt lat="4.5085330" lon="-74.2460070">
        <ele>2572.0</ele>
        <time>2018-08-11T19:16:27Z</time>
      </trkpt>
      <trkpt lat="4.5085670" lon="-74.2459680">
        <ele>2572.0</ele>
        <time>2018-08-11T19:16:28Z</time>
      </trkpt>
      <trkpt lat="4.5086020" lon="-74.2459250">
        <ele>2572.0</ele>
        <time>2018-08-11T19:16:29Z</time>
      </trkpt>
      <trkpt lat="4.5086420" lon="-74.2458830">
        <ele>2572.0</ele>
        <time>2018-08-11T19:16:30Z</time>
      </trkpt>
      <trkpt lat="4.5086820" lon="-74.2458430">
        <ele>2572.0</ele>
        <time>2018-08-11T19:16:31Z</time>
      </trkpt>
      <trkpt lat="4.5087250" lon="-74.2458000">
        <ele>2572.0</ele>
        <time>2018-08-11T19:16:32Z</time>
      </trkpt>
      <trkpt lat="4.5087700" lon="-74.2457570">
        <ele>2572.0</ele>
        <time>2018-08-11T19:16:33Z</time>
      </trkpt>
      <trkpt lat="4.5088150" lon="-74.2457120">
        <ele>2571.9</ele>
        <time>2018-08-11T19:16:34Z</time>
      </trkpt>
      <trkpt lat="4.5088650" lon="-74.2456670">
        <ele>2571.9</ele>
        <time>2018-08-11T19:16:35Z</time>
      </trkpt>
      <trkpt lat="4.5089100" lon="-74.2456230">
        <ele>2571.9</ele>
        <time>2018-08-11T19:16:36Z</time>
      </trkpt>
      <trkpt lat="4.5089500" lon="-74.2455800">
        <ele>2571.9</ele>
        <time>2018-08-11T19:16:37Z</time>
      </trkpt>
      <trkpt lat="4.5089920" lon="-74.2455380">
        <ele>2571.9</ele>
        <time>2018-08-11T19:16:38Z</time>
      </trkpt>
      <trkpt lat="4.5090400" lon="-74.2455000">
        <ele>2571.9</ele>
        <time>2018-08-11T19:16:39Z</time>
      </trkpt>
      <trkpt lat="4.5090850" lon="-74.2454530">
        <ele>2571.9</ele>
        <time>2018-08-11T19:16:40Z</time>
      </trkpt>
      <trkpt lat="4.5091320" lon="-74.2454120">
        <ele>2571.9</ele>
        <time>2018-08-11T19:16:41Z</time>
      </trkpt>
      <trkpt lat="4.5091800" lon="-74.2453770">
        <ele>2571.9</ele>
        <time>2018-08-11T19:16:42Z</time>
      </trkpt>
      <trkpt lat="4.5092320" lon="-74.2453400">
        <ele>2571.9</ele>
        <time>2018-08-11T19:16:43Z</time>
      </trkpt>
      <trkpt lat="4.5092800" lon="-74.2453030">
        <ele>2571.9</ele>
        <time>2018-08-11T19:16:44Z</time>
      </trkpt>
      <trkpt lat="4.5093280" lon="-74.2452650">
        <ele>2571.8</ele>
        <time>2018-08-11T19:16:45Z</time>
      </trkpt>
      <trkpt lat="4.5093750" lon="-74.2452270">
        <ele>2571.8</ele>
        <time>2018-08-11T19:16:46Z</time>
      </trkpt>
      <trkpt lat="4.5094280" lon="-74.2451870">
        <ele>2571.8</ele>
        <time>2018-08-11T19:16:47Z</time>
      </trkpt>
      <trkpt lat="4.5094780" lon="-74.2451500">
        <ele>2571.8</ele>
        <time>2018-08-11T19:16:48Z</time>
      </trkpt>
      <trkpt lat="4.5095230" lon="-74.2451120">
        <ele>2571.8</ele>
        <time>2018-08-11T19:16:49Z</time>
      </trkpt>
      <trkpt lat="4.5095730" lon="-74.2450750">
        <ele>2571.8</ele>
        <time>2018-08-11T19:16:50Z</time>
      </trkpt>
      <trkpt lat="4.5096200" lon="-74.2450350">
        <ele>2571.8</ele>
        <time>2018-08-11T19:16:51Z</time>
      </trkpt>
      <trkpt lat="4.5096770" lon="-74.2449900">
        <ele>2571.8</ele>
        <time>2018-08-11T19:16:52Z</time>
      </trkpt>
      <trkpt lat="4.5097250" lon="-74.2449530">
        <ele>2571.8</ele>
        <time>2018-08-11T19:16:53Z</time>
      </trkpt>
      <trkpt lat="4.5097770" lon="-74.2449180">
        <ele>2571.8</ele>
        <time>2018-08-11T19:16:54Z</time>
      </trkpt>
      <trkpt lat="4.5098350" lon="-74.2448820">
        <ele>2571.8</ele>
        <time>2018-08-11T19:16:55Z</time>
      </trkpt>
      <trkpt lat="4.5098920" lon="-74.2448500">
        <ele>2571.8</ele>
        <time>2018-08-11T19:16:56Z</time>
      </trkpt>
      <trkpt lat="4.5099500" lon="-74.2448150">
        <ele>2571.8</ele>
        <time>2018-08-11T19:16:57Z</time>
      </trkpt>
      <trkpt lat="4.5100080" lon="-74.2447800">
        <ele>2571.8</ele>
        <time>2018-08-11T19:16:58Z</time>
      </trkpt>
      <trkpt lat="4.5100600" lon="-74.2447520">
        <ele>2571.8</ele>
        <time>2018-08-11T19:16:59Z</time>
      </trkpt>
      <trkpt lat="4.5101130" lon="-74.2447220">
        <ele>2571.8</ele>
        <time>2018-08-11T19:17:00Z</time>
      </trkpt>
      <trkpt lat="4.5101630" lon="-74.2446920">
        <ele>2571.8</ele>
        <time>2018-08-11T19:17:01Z</time>
      </trkpt>
      <trkpt lat="4.5102220" lon="-74.2446570">
        <ele>2571.8</ele>
        <time>2018-08-11T19:17:02Z</time>
      </trkpt>
      <trkpt lat="4.5102830" lon="-74.2446270">
        <ele>2571.8</ele>
        <time>2018-08-11T19:17:03Z</time>
      </trkpt>
      <trkpt lat="4.5103380" lon="-74.2445970">
        <ele>2571.8</ele>
        <time>2018-08-11T19:17:04Z</time>
      </trkpt>
      <trkpt lat="4.5104000" lon="-74.2445680">
        <ele>2571.8</ele>
        <time>2018-08-11T19:17:05Z</time>
      </trkpt>
      <trkpt lat="4.5104630" lon="-74.2445420">
        <ele>2571.8</ele>
        <time>2018-08-11T19:17:06Z</time>
      </trkpt>
      <trkpt lat="4.5105280" lon="-74.2445150">
        <ele>2571.8</ele>
        <time>2018-08-11T19:17:07Z</time>
      </trkpt>
      <trkpt lat="4.5106030" lon="-74.2444880">
        <ele>2571.8</ele>
        <time>2018-08-11T19:17:08Z</time>
      </trkpt>
      <trkpt lat="4.5107220" lon="-74.2444630">
        <ele>2571.7</ele>
        <time>2018-08-11T19:17:09Z</time>
      </trkpt>
      <trkpt lat="4.5107930" lon="-74.2444370">
        <ele>2571.7</ele>
        <time>2018-08-11T19:17:10Z</time>
      </trkpt>
      <trkpt lat="4.5108630" lon="-74.2444030">
        <ele>2571.7</ele>
        <time>2018-08-11T19:17:11Z</time>
      </trkpt>
      <trkpt lat="4.5109300" lon="-74.2443750">
        <ele>2571.7</ele>
        <time>2018-08-11T19:17:12Z</time>
      </trkpt>
      <trkpt lat="4.5109920" lon="-74.2443520">
        <ele>2571.7</ele>
        <time>2018-08-11T19:17:13Z</time>
      </trkpt>
      <trkpt lat="4.5110500" lon="-74.2443320">
        <ele>2571.7</ele>
        <time>2018-08-11T19:17:14Z</time>
      </trkpt>
      <trkpt lat="4.5111180" lon="-74.2443050">
        <ele>2571.7</ele>
        <time>2018-08-11T19:17:15Z</time>
      </trkpt>
      <trkpt lat="4.5111880" lon="-74.2442780">
        <ele>2571.7</ele>
        <time>2018-08-11T19:17:16Z</time>
      </trkpt>
      <trkpt lat="4.5112620" lon="-74.2442520">
        <ele>2571.7</ele>
        <time>2018-08-11T19:17:17Z</time>
      </trkpt>
      <trkpt lat="4.5113300" lon="-74.2442330">
        <ele>2571.7</ele>
        <time>2018-08-11T19:17:18Z</time>
      </trkpt>
      <trkpt lat="4.5113950" lon="-74.2442120">
        <ele>2571.7</ele>
        <time>2018-08-11T19:17:19Z</time>
      </trkpt>
      <trkpt lat="4.5114670" lon="-74.2441900">
        <ele>2571.7</ele>
        <time>2018-08-11T19:17:20Z</time>
      </trkpt>
      <trkpt lat="4.5115420" lon="-74.2441670">
        <ele>2571.7</ele>
        <time>2018-08-11T19:17:21Z</time>
      </trkpt>
      <trkpt lat="4.5116150" lon="-74.2441480">
        <ele>2571.7</ele>
        <time>2018-08-11T19:17:22Z</time>
      </trkpt>
      <trkpt lat="4.5116830" lon="-74.2441300">
        <ele>2571.7</ele>
        <time>2018-08-11T19:17:23Z</time>
      </trkpt>
      <trkpt lat="4.5117500" lon="-74.2441130">
        <ele>2571.6</ele>
        <time>2018-08-11T19:17:24Z</time>
      </trkpt>
      <trkpt lat="4.5118180" lon="-74.2440980">
        <ele>2571.6</ele>
        <time>2018-08-11T19:17:25Z</time>
      </trkpt>
      <trkpt lat="4.5118980" lon="-74.2440780">
        <ele>2571.6</ele>
        <time>2018-08-11T19:17:26Z</time>
      </trkpt>
      <trkpt lat="4.5119730" lon="-74.2440630">
        <ele>2571.6</ele>
        <time>2018-08-11T19:17:27Z</time>
      </trkpt>
      <trkpt lat="4.5120470" lon="-74.2440500">
        <ele>2571.6</ele>
        <time>2018-08-11T19:17:28Z</time>
      </trkpt>
      <trkpt lat="4.5121250" lon="-74.2440370">
        <ele>2571.6</ele>
        <time>2018-08-11T19:17:29Z</time>
      </trkpt>
      <trkpt lat="4.5122050" lon="-74.2440250">
        <ele>2571.6</ele>
        <time>2018-08-11T19:17:30Z</time>
      </trkpt>
      <trkpt lat="4.5122870" lon="-74.2440150">
        <ele>2571.6</ele>
        <time>2018-08-11T19:17:31Z</time>
      </trkpt>
      <trkpt lat="4.5123700" lon="-74.2440030">
        <ele>2571.6</ele>
        <time>2018-08-11T19:17:32Z</time>
      </trkpt>
      <trkpt lat="4.5124480" lon="-74.2439980">
        <ele>2571.6</ele>
        <time>2018-08-11T19:17:33Z</time>
      </trkpt>
      <trkpt lat="4.5125320" lon="-74.2439900">
        <ele>2571.6</ele>
        <time>2018-08-11T19:17:34Z</time>
      </trkpt>
      <trkpt lat="4.5126080" lon="-74.2439830">
        <ele>2571.6</ele>
        <time>2018-08-11T19:17:35Z</time>
      </trkpt>
      <trkpt lat="4.5126870" lon="-74.2439770">
        <ele>2571.7</ele>
        <time>2018-08-11T19:17:36Z</time>
      </trkpt>
      <trkpt lat="4.5127580" lon="-74.2439750">
        <ele>2571.7</ele>
        <time>2018-08-11T19:17:37Z</time>
      </trkpt>
      <trkpt lat="4.5128320" lon="-74.2439700">
        <ele>2571.7</ele>
        <time>2018-08-11T19:17:38Z</time>
      </trkpt>
      <trkpt lat="4.5129080" lon="-74.2439580">
        <ele>2571.7</ele>
        <time>2018-08-11T19:17:39Z</time>
      </trkpt>
      <trkpt lat="4.5129970" lon="-74.2439520">
        <ele>2571.8</ele>
        <time>2018-08-11T19:17:40Z</time>
      </trkpt>
      <trkpt lat="4.5130730" lon="-74.2439470">
        <ele>2571.8</ele>
        <time>2018-08-11T19:17:41Z</time>
      </trkpt>
      <trkpt lat="4.5131500" lon="-74.2439480">
        <ele>2571.8</ele>
        <time>2018-08-11T19:17:42Z</time>
      </trkpt>
      <trkpt lat="4.5132250" lon="-74.2439480">
        <ele>2571.9</ele>
        <time>2018-08-11T19:17:43Z</time>
      </trkpt>
      <trkpt lat="4.5132970" lon="-74.2439500">
        <ele>2571.9</ele>
        <time>2018-08-11T19:17:44Z</time>
      </trkpt>
      <trkpt lat="4.5133670" lon="-74.2439530">
        <ele>2572.0</ele>
        <time>2018-08-11T19:17:45Z</time>
      </trkpt>
      <trkpt lat="4.5134330" lon="-74.2439530">
        <ele>2572.0</ele>
        <time>2018-08-11T19:17:46Z</time>
      </trkpt>
      <trkpt lat="4.5135020" lon="-74.2439470">
        <ele>2572.1</ele>
        <time>2018-08-11T19:17:47Z</time>
      </trkpt>
      <trkpt lat="4.5135700" lon="-74.2439400">
        <ele>2572.1</ele>
        <time>2018-08-11T19:17:48Z</time>
      </trkpt>
      <trkpt lat="4.5136380" lon="-74.2439350">
        <ele>2572.2</ele>
        <time>2018-08-11T19:17:49Z</time>
      </trkpt>
      <trkpt lat="4.5137070" lon="-74.2439350">
        <ele>2572.2</ele>
        <time>2018-08-11T19:17:50Z</time>
      </trkpt>
      <trkpt lat="4.5137750" lon="-74.2439400">
        <ele>2572.3</ele>
        <time>2018-08-11T19:17:51Z</time>
      </trkpt>
      <trkpt lat="4.5138450" lon="-74.2439550">
        <ele>2572.3</ele>
        <time>2018-08-11T19:17:52Z</time>
      </trkpt>
      <trkpt lat="4.5139130" lon="-74.2439630">
        <ele>2572.3</ele>
        <time>2018-08-11T19:17:53Z</time>
      </trkpt>
      <trkpt lat="4.5139820" lon="-74.2439750">
        <ele>2572.4</ele>
        <time>2018-08-11T19:17:54Z</time>
      </trkpt>
      <trkpt lat="4.5140480" lon="-74.2439900">
        <ele>2572.4</ele>
        <time>2018-08-11T19:17:55Z</time>
      </trkpt>
      <trkpt lat="4.5141130" lon="-74.2440070">
        <ele>2572.5</ele>
        <time>2018-08-11T19:17:56Z</time>
      </trkpt>
      <trkpt lat="4.5141800" lon="-74.2440150">
        <ele>2572.5</ele>
        <time>2018-08-11T19:17:57Z</time>
      </trkpt>
      <trkpt lat="4.5142480" lon="-74.2440280">
        <ele>2572.6</ele>
        <time>2018-08-11T19:17:58Z</time>
      </trkpt>
      <trkpt lat="4.5143150" lon="-74.2440400">
        <ele>2572.6</ele>
        <time>2018-08-11T19:17:59Z</time>
      </trkpt>
      <trkpt lat="4.5143800" lon="-74.2440550">
        <ele>2572.6</ele>
        <time>2018-08-11T19:18:00Z</time>
      </trkpt>
      <trkpt lat="4.5144480" lon="-74.2440750">
        <ele>2572.6</ele>
        <time>2018-08-11T19:18:01Z</time>
      </trkpt>
      <trkpt lat="4.5145200" lon="-74.2440920">
        <ele>2572.6</ele>
        <time>2018-08-11T19:18:02Z</time>
      </trkpt>
      <trkpt lat="4.5145930" lon="-74.2441080">
        <ele>2572.6</ele>
        <time>2018-08-11T19:18:03Z</time>
      </trkpt>
      <trkpt lat="4.5146580" lon="-74.2441250">
        <ele>2572.7</ele>
        <time>2018-08-11T19:18:04Z</time>
      </trkpt>
      <trkpt lat="4.5147280" lon="-74.2441420">
        <ele>2572.7</ele>
        <time>2018-08-11T19:18:05Z</time>
      </trkpt>
      <trkpt lat="4.5147950" lon="-74.2441600">
        <ele>2572.7</ele>
        <time>2018-08-11T19:18:06Z</time>
      </trkpt>
      <trkpt lat="4.5148620" lon="-74.2441870">
        <ele>2572.7</ele>
        <time>2018-08-11T19:18:07Z</time>
      </trkpt>
      <trkpt lat="4.5149280" lon="-74.2442120">
        <ele>2572.7</ele>
        <time>2018-08-11T19:18:08Z</time>
      </trkpt>
      <trkpt lat="4.5149970" lon="-74.2442330">
        <ele>2572.7</ele>
        <time>2018-08-11T19:18:09Z</time>
      </trkpt>
      <trkpt lat="4.5150630" lon="-74.2442530">
        <ele>2572.8</ele>
        <time>2018-08-11T19:18:10Z</time>
      </trkpt>
      <trkpt lat="4.5151270" lon="-74.2442830">
        <ele>2572.8</ele>
        <time>2018-08-11T19:18:11Z</time>
      </trkpt>
      <trkpt lat="4.5151900" lon="-74.2443170">
        <ele>2572.8</ele>
        <time>2018-08-11T19:18:12Z</time>
      </trkpt>
      <trkpt lat="4.5152570" lon="-74.2443420">
        <ele>2572.8</ele>
        <time>2018-08-11T19:18:13Z</time>
      </trkpt>
      <trkpt lat="4.5153230" lon="-74.2443670">
        <ele>2572.8</ele>
        <time>2018-08-11T19:18:14Z</time>
      </trkpt>
      <trkpt lat="4.5153930" lon="-74.2443830">
        <ele>2572.8</ele>
        <time>2018-08-11T19:18:15Z</time>
      </trkpt>
      <trkpt lat="4.5154620" lon="-74.2444030">
        <ele>2572.8</ele>
        <time>2018-08-11T19:18:16Z</time>
      </trkpt>
      <trkpt lat="4.5155330" lon="-74.2444220">
        <ele>2572.8</ele>
        <time>2018-08-11T19:18:17Z</time>
      </trkpt>
      <trkpt lat="4.5156030" lon="-74.2444400">
        <ele>2572.8</ele>
        <time>2018-08-11T19:18:18Z</time>
      </trkpt>
      <trkpt lat="4.5156720" lon="-74.2444620">
        <ele>2572.8</ele>
        <time>2018-08-11T19:18:19Z</time>
      </trkpt>
      <trkpt lat="4.5157430" lon="-74.2444820">
        <ele>2572.8</ele>
        <time>2018-08-11T19:18:20Z</time>
      </trkpt>
      <trkpt lat="4.5158120" lon="-74.2445020">
        <ele>2572.8</ele>
        <time>2018-08-11T19:18:21Z</time>
      </trkpt>
      <trkpt lat="4.5158800" lon="-74.2445220">
        <ele>2572.8</ele>
        <time>2018-08-11T19:18:22Z</time>
      </trkpt>
      <trkpt lat="4.5159480" lon="-74.2445420">
        <ele>2572.8</ele>
        <time>2018-08-11T19:18:23Z</time>
      </trkpt>
      <trkpt lat="4.5160170" lon="-74.2445620">
        <ele>2572.8</ele>
        <time>2018-08-11T19:18:24Z</time>
      </trkpt>
      <trkpt lat="4.5160870" lon="-74.2445800">
        <ele>2572.8</ele>
        <time>2018-08-11T19:18:25Z</time>
      </trkpt>
      <trkpt lat="4.5161520" lon="-74.2446050">
        <ele>2572.8</ele>
        <time>2018-08-11T19:18:26Z</time>
      </trkpt>
      <trkpt lat="4.5162180" lon="-74.2446270">
        <ele>2572.8</ele>
        <time>2018-08-11T19:18:27Z</time>
      </trkpt>
      <trkpt lat="4.5162900" lon="-74.2446500">
        <ele>2572.8</ele>
        <time>2018-08-11T19:18:28Z</time>
      </trkpt>
      <trkpt lat="4.5163600" lon="-74.2446720">
        <ele>2572.8</ele>
        <time>2018-08-11T19:18:29Z</time>
      </trkpt>
      <trkpt lat="4.5164280" lon="-74.2446930">
        <ele>2572.8</ele>
        <time>2018-08-11T19:18:30Z</time>
      </trkpt>
      <trkpt lat="4.5164970" lon="-74.2447130">
        <ele>2572.8</ele>
        <time>2018-08-11T19:18:31Z</time>
      </trkpt>
      <trkpt lat="4.5165630" lon="-74.2447350">
        <ele>2572.8</ele>
        <time>2018-08-11T19:18:32Z</time>
      </trkpt>
      <trkpt lat="4.5166300" lon="-74.2447550">
        <ele>2572.8</ele>
        <time>2018-08-11T19:18:33Z</time>
      </trkpt>
      <trkpt lat="4.5166980" lon="-74.2447770">
        <ele>2572.8</ele>
        <time>2018-08-11T19:18:34Z</time>
      </trkpt>
      <trkpt lat="4.5167680" lon="-74.2447970">
        <ele>2572.8</ele>
        <time>2018-08-11T19:18:35Z</time>
      </trkpt>
      <trkpt lat="4.5168400" lon="-74.2448170">
        <ele>2572.8</ele>
        <time>2018-08-11T19:18:36Z</time>
      </trkpt>
      <trkpt lat="4.5169100" lon="-74.2448280">
        <ele>2572.8</ele>
        <time>2018-08-11T19:18:37Z</time>
      </trkpt>
      <trkpt lat="4.5169770" lon="-74.2448420">
        <ele>2572.8</ele>
        <time>2018-08-11T19:18:38Z</time>
      </trkpt>
      <trkpt lat="4.5170450" lon="-74.2448550">
        <ele>2572.8</ele>
        <time>2018-08-11T19:18:39Z</time>
      </trkpt>
      <trkpt lat="4.5171130" lon="-74.2448650">
        <ele>2572.8</ele>
        <time>2018-08-11T19:18:40Z</time>
      </trkpt>
      <trkpt lat="4.5171800" lon="-74.2448730">
        <ele>2572.8</ele>
        <time>2018-08-11T19:18:41Z</time>
      </trkpt>
      <trkpt lat="4.5172500" lon="-74.2448770">
        <ele>2572.8</ele>
        <time>2018-08-11T19:18:42Z</time>
      </trkpt>
      <trkpt lat="4.5173200" lon="-74.2448820">
        <ele>2572.8</ele>
        <time>2018-08-11T19:18:43Z</time>
      </trkpt>
      <trkpt lat="4.5173880" lon="-74.2448820">
        <ele>2572.8</ele>
        <time>2018-08-11T19:18:44Z</time>
      </trkpt>
      <trkpt lat="4.5174500" lon="-74.2448820">
        <ele>2572.8</ele>
        <time>2018-08-11T19:18:45Z</time>
      </trkpt>
      <trkpt lat="4.5175180" lon="-74.2448750">
        <ele>2572.8</ele>
        <time>2018-08-11T19:18:46Z</time>
      </trkpt>
      <trkpt lat="4.5175830" lon="-74.2448720">
        <ele>2572.8</ele>
        <time>2018-08-11T19:18:47Z</time>
      </trkpt>
      <trkpt lat="4.5176450" lon="-74.2448650">
        <ele>2572.8</ele>
        <time>2018-08-11T19:18:48Z</time>
      </trkpt>
      <trkpt lat="4.5177050" lon="-74.2448600">
        <ele>2572.8</ele>
        <time>2018-08-11T19:18:49Z</time>
      </trkpt>
      <trkpt lat="4.5177650" lon="-74.2448550">
        <ele>2572.8</ele>
        <time>2018-08-11T19:18:50Z</time>
      </trkpt>
      <trkpt lat="4.5178220" lon="-74.2448470">
        <ele>2572.8</ele>
        <time>2018-08-11T19:18:51Z</time>
      </trkpt>
      <trkpt lat="4.5178870" lon="-74.2448320">
        <ele>2572.8</ele>
        <time>2018-08-11T19:18:52Z</time>
      </trkpt>
      <trkpt lat="4.5179530" lon="-74.2448130">
        <ele>2572.8</ele>
        <time>2018-08-11T19:18:53Z</time>
      </trkpt>
      <trkpt lat="4.5180170" lon="-74.2447950">
        <ele>2572.8</ele>
        <time>2018-08-11T19:18:54Z</time>
      </trkpt>
      <trkpt lat="4.5180830" lon="-74.2447750">
        <ele>2572.8</ele>
        <time>2018-08-11T19:18:55Z</time>
      </trkpt>
      <trkpt lat="4.5181500" lon="-74.2447520">
        <ele>2572.8</ele>
        <time>2018-08-11T19:18:56Z</time>
      </trkpt>
      <trkpt lat="4.5182180" lon="-74.2447280">
        <ele>2572.8</ele>
        <time>2018-08-11T19:18:57Z</time>
      </trkpt>
      <trkpt lat="4.5182830" lon="-74.2447070">
        <ele>2572.8</ele>
        <time>2018-08-11T19:18:58Z</time>
      </trkpt>
      <trkpt lat="4.5183470" lon="-74.2446850">
        <ele>2572.8</ele>
        <time>2018-08-11T19:18:59Z</time>
      </trkpt>
      <trkpt lat="4.5184070" lon="-74.2446620">
        <ele>2572.8</ele>
        <time>2018-08-11T19:19:00Z</time>
      </trkpt>
      <trkpt lat="4.5184700" lon="-74.2446330">
        <ele>2572.7</ele>
        <time>2018-08-11T19:19:01Z</time>
      </trkpt>
      <trkpt lat="4.5185280" lon="-74.2446070">
        <ele>2572.7</ele>
        <time>2018-08-11T19:19:02Z</time>
      </trkpt>
      <trkpt lat="4.5185850" lon="-74.2445800">
        <ele>2572.7</ele>
        <time>2018-08-11T19:19:03Z</time>
      </trkpt>
      <trkpt lat="4.5186420" lon="-74.2445530">
        <ele>2572.7</ele>
        <time>2018-08-11T19:19:04Z</time>
      </trkpt>
      <trkpt lat="4.5187020" lon="-74.2445250">
        <ele>2572.7</ele>
        <time>2018-08-11T19:19:05Z</time>
      </trkpt>
      <trkpt lat="4.5187620" lon="-74.2445000">
        <ele>2572.7</ele>
        <time>2018-08-11T19:19:06Z</time>
      </trkpt>
      <trkpt lat="4.5188220" lon="-74.2444750">
        <ele>2572.7</ele>
        <time>2018-08-11T19:19:07Z</time>
      </trkpt>
      <trkpt lat="4.5188780" lon="-74.2444500">
        <ele>2572.7</ele>
        <time>2018-08-11T19:19:08Z</time>
      </trkpt>
      <trkpt lat="4.5189380" lon="-74.2444230">
        <ele>2572.7</ele>
        <time>2018-08-11T19:19:09Z</time>
      </trkpt>
      <trkpt lat="4.5189950" lon="-74.2443970">
        <ele>2572.7</ele>
        <time>2018-08-11T19:19:10Z</time>
      </trkpt>
      <trkpt lat="4.5190530" lon="-74.2443720">
        <ele>2572.7</ele>
        <time>2018-08-11T19:19:11Z</time>
      </trkpt>
      <trkpt lat="4.5191130" lon="-74.2443430">
        <ele>2572.7</ele>
        <time>2018-08-11T19:19:12Z</time>
      </trkpt>
      <trkpt lat="4.5191750" lon="-74.2443130">
        <ele>2572.7</ele>
        <time>2018-08-11T19:19:13Z</time>
      </trkpt>
      <trkpt lat="4.5192330" lon="-74.2442850">
        <ele>2572.7</ele>
        <time>2018-08-11T19:19:14Z</time>
      </trkpt>
      <trkpt lat="4.5192950" lon="-74.2442530">
        <ele>2572.7</ele>
        <time>2018-08-11T19:19:15Z</time>
      </trkpt>
      <trkpt lat="4.5193520" lon="-74.2442250">
        <ele>2572.7</ele>
        <time>2018-08-11T19:19:16Z</time>
      </trkpt>
      <trkpt lat="4.5194080" lon="-74.2442020">
        <ele>2572.8</ele>
        <time>2018-08-11T19:19:17Z</time>
      </trkpt>
      <trkpt lat="4.5194650" lon="-74.2441750">
        <ele>2572.8</ele>
        <time>2018-08-11T19:19:18Z</time>
      </trkpt>
      <trkpt lat="4.5195230" lon="-74.2441480">
        <ele>2572.8</ele>
        <time>2018-08-11T19:19:19Z</time>
      </trkpt>
      <trkpt lat="4.5195800" lon="-74.2441230">
        <ele>2572.8</ele>
        <time>2018-08-11T19:19:20Z</time>
      </trkpt>
      <trkpt lat="4.5196400" lon="-74.2440980">
        <ele>2572.8</ele>
        <time>2018-08-11T19:19:21Z</time>
      </trkpt>
      <trkpt lat="4.5196980" lon="-74.2440720">
        <ele>2572.9</ele>
        <time>2018-08-11T19:19:22Z</time>
      </trkpt>
      <trkpt lat="4.5197570" lon="-74.2440470">
        <ele>2572.9</ele>
        <time>2018-08-11T19:19:23Z</time>
      </trkpt>
      <trkpt lat="4.5198170" lon="-74.2440180">
        <ele>2572.9</ele>
        <time>2018-08-11T19:19:24Z</time>
      </trkpt>
      <trkpt lat="4.5198770" lon="-74.2439920">
        <ele>2573.0</ele>
        <time>2018-08-11T19:19:25Z</time>
      </trkpt>
      <trkpt lat="4.5199370" lon="-74.2439670">
        <ele>2573.0</ele>
        <time>2018-08-11T19:19:26Z</time>
      </trkpt>
      <trkpt lat="4.5199970" lon="-74.2439420">
        <ele>2573.0</ele>
        <time>2018-08-11T19:19:27Z</time>
      </trkpt>
      <trkpt lat="4.5200550" lon="-74.2439170">
        <ele>2573.1</ele>
        <time>2018-08-11T19:19:28Z</time>
      </trkpt>
      <trkpt lat="4.5201120" lon="-74.2438930">
        <ele>2573.1</ele>
        <time>2018-08-11T19:19:29Z</time>
      </trkpt>
      <trkpt lat="4.5201670" lon="-74.2438720">
        <ele>2573.2</ele>
        <time>2018-08-11T19:19:30Z</time>
      </trkpt>
      <trkpt lat="4.5202180" lon="-74.2438500">
        <ele>2573.2</ele>
        <time>2018-08-11T19:19:31Z</time>
      </trkpt>
      <trkpt lat="4.5202700" lon="-74.2438280">
        <ele>2573.2</ele>
        <time>2018-08-11T19:19:32Z</time>
      </trkpt>
      <trkpt lat="4.5203230" lon="-74.2438050">
        <ele>2573.3</ele>
        <time>2018-08-11T19:19:33Z</time>
      </trkpt>
      <trkpt lat="4.5203780" lon="-74.2437800">
        <ele>2573.3</ele>
        <time>2018-08-11T19:19:34Z</time>
      </trkpt>
      <trkpt lat="4.5204320" lon="-74.2437550">
        <ele>2573.3</ele>
        <time>2018-08-11T19:19:35Z</time>
      </trkpt>
      <trkpt lat="4.5204850" lon="-74.2437330">
        <ele>2573.4</ele>
        <time>2018-08-11T19:19:36Z</time>
      </trkpt>
      <trkpt lat="4.5205400" lon="-74.2437100">
        <ele>2573.4</ele>
        <time>2018-08-11T19:19:37Z</time>
      </trkpt>
      <trkpt lat="4.5205970" lon="-74.2436850">
        <ele>2573.4</ele>
        <time>2018-08-11T19:19:38Z</time>
      </trkpt>
      <trkpt lat="4.5206500" lon="-74.2436580">
        <ele>2573.5</ele>
        <time>2018-08-11T19:19:39Z</time>
      </trkpt>
      <trkpt lat="4.5207080" lon="-74.2436320">
        <ele>2573.5</ele>
        <time>2018-08-11T19:19:40Z</time>
      </trkpt>
      <trkpt lat="4.5207670" lon="-74.2436030">
        <ele>2573.5</ele>
        <time>2018-08-11T19:19:41Z</time>
      </trkpt>
      <trkpt lat="4.5208250" lon="-74.2435770">
        <ele>2573.6</ele>
        <time>2018-08-11T19:19:42Z</time>
      </trkpt>
      <trkpt lat="4.5208850" lon="-74.2435480">
        <ele>2573.6</ele>
        <time>2018-08-11T19:19:43Z</time>
      </trkpt>
      <trkpt lat="4.5209430" lon="-74.2435230">
        <ele>2573.6</ele>
        <time>2018-08-11T19:19:44Z</time>
      </trkpt>
      <trkpt lat="4.5210080" lon="-74.2434970">
        <ele>2573.6</ele>
        <time>2018-08-11T19:19:45Z</time>
      </trkpt>
      <trkpt lat="4.5210730" lon="-74.2434670">
        <ele>2573.6</ele>
        <time>2018-08-11T19:19:46Z</time>
      </trkpt>
      <trkpt lat="4.5211400" lon="-74.2434320">
        <ele>2573.6</ele>
        <time>2018-08-11T19:19:47Z</time>
      </trkpt>
      <trkpt lat="4.5212030" lon="-74.2434000">
        <ele>2573.7</ele>
        <time>2018-08-11T19:19:48Z</time>
      </trkpt>
      <trkpt lat="4.5212670" lon="-74.2433720">
        <ele>2573.7</ele>
        <time>2018-08-11T19:19:49Z</time>
      </trkpt>
      <trkpt lat="4.5213320" lon="-74.2433420">
        <ele>2573.7</ele>
        <time>2018-08-11T19:19:50Z</time>
      </trkpt>
      <trkpt lat="4.5214000" lon="-74.2433120">
        <ele>2573.7</ele>
        <time>2018-08-11T19:19:51Z</time>
      </trkpt>
      <trkpt lat="4.5214720" lon="-74.2432780">
        <ele>2573.7</ele>
        <time>2018-08-11T19:19:52Z</time>
      </trkpt>
      <trkpt lat="4.5215420" lon="-74.2432450">
        <ele>2573.7</ele>
        <time>2018-08-11T19:19:53Z</time>
      </trkpt>
      <trkpt lat="4.5216120" lon="-74.2432130">
        <ele>2573.7</ele>
        <time>2018-08-11T19:19:54Z</time>
      </trkpt>
      <trkpt lat="4.5216830" lon="-74.2431830">
        <ele>2573.7</ele>
        <time>2018-08-11T19:19:55Z</time>
      </trkpt>
      <trkpt lat="4.5217570" lon="-74.2431520">
        <ele>2573.7</ele>
        <time>2018-08-11T19:19:56Z</time>
      </trkpt>
      <trkpt lat="4.5218270" lon="-74.2431200">
        <ele>2573.7</ele>
        <time>2018-08-11T19:19:57Z</time>
      </trkpt>
      <trkpt lat="4.5218980" lon="-74.2430870">
        <ele>2573.7</ele>
        <time>2018-08-11T19:19:58Z</time>
      </trkpt>
      <trkpt lat="4.5219680" lon="-74.2430550">
        <ele>2573.7</ele>
        <time>2018-08-11T19:19:59Z</time>
      </trkpt>
      <trkpt lat="4.5220370" lon="-74.2430230">
        <ele>2573.7</ele>
        <time>2018-08-11T19:20:00Z</time>
      </trkpt>
      <trkpt lat="4.5221050" lon="-74.2429920">
        <ele>2573.6</ele>
        <time>2018-08-11T19:20:01Z</time>
      </trkpt>
      <trkpt lat="4.5221730" lon="-74.2429580">
        <ele>2573.6</ele>
        <time>2018-08-11T19:20:02Z</time>
      </trkpt>
      <trkpt lat="4.5222420" lon="-74.2429250">
        <ele>2573.6</ele>
        <time>2018-08-11T19:20:03Z</time>
      </trkpt>
      <trkpt lat="4.5223030" lon="-74.2428970">
        <ele>2573.6</ele>
        <time>2018-08-11T19:20:04Z</time>
      </trkpt>
      <trkpt lat="4.5223670" lon="-74.2428670">
        <ele>2573.5</ele>
        <time>2018-08-11T19:20:05Z</time>
      </trkpt>
      <trkpt lat="4.5224300" lon="-74.2428380">
        <ele>2573.5</ele>
        <time>2018-08-11T19:20:06Z</time>
      </trkpt>
      <trkpt lat="4.5224930" lon="-74.2428080">
        <ele>2573.5</ele>
        <time>2018-08-11T19:20:07Z</time>
      </trkpt>
      <trkpt lat="4.5225530" lon="-74.2427800">
        <ele>2573.4</ele>
        <time>2018-08-11T19:20:08Z</time>
      </trkpt>
      <trkpt lat="4.5226170" lon="-74.2427520">
        <ele>2573.4</ele>
        <time>2018-08-11T19:20:09Z</time>
      </trkpt>
      <trkpt lat="4.5226780" lon="-74.2427230">
        <ele>2573.3</ele>
        <time>2018-08-11T19:20:10Z</time>
      </trkpt>
      <trkpt lat="4.5227420" lon="-74.2426950">
        <ele>2573.3</ele>
        <time>2018-08-11T19:20:11Z</time>
      </trkpt>
      <trkpt lat="4.5228000" lon="-74.2426700">
        <ele>2573.2</ele>
        <time>2018-08-11T19:20:12Z</time>
      </trkpt>
      <trkpt lat="4.5228580" lon="-74.2426450">
        <ele>2573.2</ele>
        <time>2018-08-11T19:20:13Z</time>
      </trkpt>
      <trkpt lat="4.5229180" lon="-74.2426170">
        <ele>2573.1</ele>
        <time>2018-08-11T19:20:14Z</time>
      </trkpt>
      <trkpt lat="4.5229780" lon="-74.2425950">
        <ele>2573.0</ele>
        <time>2018-08-11T19:20:15Z</time>
      </trkpt>
      <trkpt lat="4.5230430" lon="-74.2425720">
        <ele>2572.9</ele>
        <time>2018-08-11T19:20:16Z</time>
      </trkpt>
      <trkpt lat="4.5231020" lon="-74.2425470">
        <ele>2572.9</ele>
        <time>2018-08-11T19:20:17Z</time>
      </trkpt>
      <trkpt lat="4.5231580" lon="-74.2425180">
        <ele>2572.8</ele>
        <time>2018-08-11T19:20:18Z</time>
      </trkpt>
      <trkpt lat="4.5232150" lon="-74.2424930">
        <ele>2572.8</ele>
        <time>2018-08-11T19:20:19Z</time>
      </trkpt>
      <trkpt lat="4.5232730" lon="-74.2424680">
        <ele>2572.7</ele>
        <time>2018-08-11T19:20:20Z</time>
      </trkpt>
      <trkpt lat="4.5233320" lon="-74.2424420">
        <ele>2572.6</ele>
        <time>2018-08-11T19:20:21Z</time>
      </trkpt>
      <trkpt lat="4.5233880" lon="-74.2424150">
        <ele>2572.6</ele>
        <time>2018-08-11T19:20:22Z</time>
      </trkpt>
      <trkpt lat="4.5234420" lon="-74.2423900">
        <ele>2572.5</ele>
        <time>2018-08-11T19:20:23Z</time>
      </trkpt>
      <trkpt lat="4.5234950" lon="-74.2423670">
        <ele>2572.5</ele>
        <time>2018-08-11T19:20:24Z</time>
      </trkpt>
      <trkpt lat="4.5235500" lon="-74.2423400">
        <ele>2572.4</ele>
        <time>2018-08-11T19:20:25Z</time>
      </trkpt>
      <trkpt lat="4.5236050" lon="-74.2423170">
        <ele>2572.4</ele>
        <time>2018-08-11T19:20:26Z</time>
      </trkpt>
      <trkpt lat="4.5236580" lon="-74.2422980">
        <ele>2572.3</ele>
        <time>2018-08-11T19:20:27Z</time>
      </trkpt>
      <trkpt lat="4.5237120" lon="-74.2422800">
        <ele>2572.3</ele>
        <time>2018-08-11T19:20:28Z</time>
      </trkpt>
      <trkpt lat="4.5237650" lon="-74.2422650">
        <ele>2572.3</ele>
        <time>2018-08-11T19:20:29Z</time>
      </trkpt>
      <trkpt lat="4.5238030" lon="-74.2422480">
        <ele>2572.3</ele>
        <time>2018-08-11T19:20:30Z</time>
      </trkpt>
      <trkpt lat="4.5238350" lon="-74.2422320">
        <ele>2572.3</ele>
        <time>2018-08-11T19:20:31Z</time>
      </trkpt>
      <trkpt lat="4.5238750" lon="-74.2422130">
        <ele>2572.2</ele>
        <time>2018-08-11T19:20:32Z</time>
      </trkpt>
      <trkpt lat="4.5239080" lon="-74.2421950">
        <ele>2572.2</ele>
        <time>2018-08-11T19:20:33Z</time>
      </trkpt>
      <trkpt lat="4.5239430" lon="-74.2421720">
        <ele>2572.2</ele>
        <time>2018-08-11T19:20:34Z</time>
      </trkpt>
      <trkpt lat="4.5239830" lon="-74.2421480">
        <ele>2572.2</ele>
        <time>2018-08-11T19:20:35Z</time>
      </trkpt>
      <trkpt lat="4.5240230" lon="-74.2421230">
        <ele>2572.1</ele>
        <time>2018-08-11T19:20:36Z</time>
      </trkpt>
      <trkpt lat="4.5240630" lon="-74.2421000">
        <ele>2572.1</ele>
        <time>2018-08-11T19:20:37Z</time>
      </trkpt>
      <trkpt lat="4.5241080" lon="-74.2420770">
        <ele>2572.1</ele>
        <time>2018-08-11T19:20:38Z</time>
      </trkpt>
      <trkpt lat="4.5241500" lon="-74.2420570">
        <ele>2572.1</ele>
        <time>2018-08-11T19:20:39Z</time>
      </trkpt>
      <trkpt lat="4.5241930" lon="-74.2420380">
        <ele>2572.1</ele>
        <time>2018-08-11T19:20:40Z</time>
      </trkpt>
      <trkpt lat="4.5242400" lon="-74.2420180">
        <ele>2572.1</ele>
        <time>2018-08-11T19:20:41Z</time>
      </trkpt>
      <trkpt lat="4.5242870" lon="-74.2419980">
        <ele>2572.1</ele>
        <time>2018-08-11T19:20:42Z</time>
      </trkpt>
      <trkpt lat="4.5243320" lon="-74.2419770">
        <ele>2572.1</ele>
        <time>2018-08-11T19:20:43Z</time>
      </trkpt>
      <trkpt lat="4.5243800" lon="-74.2419550">
        <ele>2572.0</ele>
        <time>2018-08-11T19:20:44Z</time>
      </trkpt>
      <trkpt lat="4.5244280" lon="-74.2419350">
        <ele>2572.0</ele>
        <time>2018-08-11T19:20:45Z</time>
      </trkpt>
      <trkpt lat="4.5244780" lon="-74.2419230">
        <ele>2572.0</ele>
        <time>2018-08-11T19:20:46Z</time>
      </trkpt>
      <trkpt lat="4.5245270" lon="-74.2418970">
        <ele>2572.0</ele>
        <time>2018-08-11T19:20:47Z</time>
      </trkpt>
      <trkpt lat="4.5245780" lon="-74.2418730">
        <ele>2572.0</ele>
        <time>2018-08-11T19:20:48Z</time>
      </trkpt>
      <trkpt lat="4.5246280" lon="-74.2418480">
        <ele>2572.0</ele>
        <time>2018-08-11T19:20:49Z</time>
      </trkpt>
      <trkpt lat="4.5246820" lon="-74.2418250">
        <ele>2572.0</ele>
        <time>2018-08-11T19:20:50Z</time>
      </trkpt>
      <trkpt lat="4.5247370" lon="-74.2418020">
        <ele>2572.0</ele>
        <time>2018-08-11T19:20:51Z</time>
      </trkpt>
      <trkpt lat="4.5247920" lon="-74.2417780">
        <ele>2572.0</ele>
        <time>2018-08-11T19:20:52Z</time>
      </trkpt>
      <trkpt lat="4.5248500" lon="-74.2417520">
        <ele>2572.0</ele>
        <time>2018-08-11T19:20:53Z</time>
      </trkpt>
      <trkpt lat="4.5249050" lon="-74.2417280">
        <ele>2572.0</ele>
        <time>2018-08-11T19:20:54Z</time>
      </trkpt>
      <trkpt lat="4.5249620" lon="-74.2417030">
        <ele>2572.1</ele>
        <time>2018-08-11T19:20:55Z</time>
      </trkpt>
      <trkpt lat="4.5250250" lon="-74.2416730">
        <ele>2572.1</ele>
        <time>2018-08-11T19:20:56Z</time>
      </trkpt>
      <trkpt lat="4.5250870" lon="-74.2416430">
        <ele>2572.1</ele>
        <time>2018-08-11T19:20:57Z</time>
      </trkpt>
      <trkpt lat="4.5251470" lon="-74.2416150">
        <ele>2572.2</ele>
        <time>2018-08-11T19:20:58Z</time>
      </trkpt>
      <trkpt lat="4.5252100" lon="-74.2415870">
        <ele>2572.2</ele>
        <time>2018-08-11T19:20:59Z</time>
      </trkpt>
      <trkpt lat="4.5252730" lon="-74.2415580">
        <ele>2572.2</ele>
        <time>2018-08-11T19:21:00Z</time>
      </trkpt>
      <trkpt lat="4.5253370" lon="-74.2415250">
        <ele>2572.3</ele>
        <time>2018-08-11T19:21:01Z</time>
      </trkpt>
      <trkpt lat="4.5253980" lon="-74.2414920">
        <ele>2572.3</ele>
        <time>2018-08-11T19:21:02Z</time>
      </trkpt>
      <trkpt lat="4.5254620" lon="-74.2414620">
        <ele>2572.3</ele>
        <time>2018-08-11T19:21:03Z</time>
      </trkpt>
      <trkpt lat="4.5255250" lon="-74.2414330">
        <ele>2572.3</ele>
        <time>2018-08-11T19:21:04Z</time>
      </trkpt>
      <trkpt lat="4.5255830" lon="-74.2414050">
        <ele>2572.4</ele>
        <time>2018-08-11T19:21:05Z</time>
      </trkpt>
      <trkpt lat="4.5256400" lon="-74.2413770">
        <ele>2572.4</ele>
        <time>2018-08-11T19:21:06Z</time>
      </trkpt>
      <trkpt lat="4.5257000" lon="-74.2413470">
        <ele>2572.4</ele>
        <time>2018-08-11T19:21:07Z</time>
      </trkpt>
      <trkpt lat="4.5257620" lon="-74.2413180">
        <ele>2572.5</ele>
        <time>2018-08-11T19:21:08Z</time>
      </trkpt>
      <trkpt lat="4.5258250" lon="-74.2412920">
        <ele>2572.5</ele>
        <time>2018-08-11T19:21:09Z</time>
      </trkpt>
      <trkpt lat="4.5258850" lon="-74.2412630">
        <ele>2572.5</ele>
        <time>2018-08-11T19:21:10Z</time>
      </trkpt>
      <trkpt lat="4.5259470" lon="-74.2412350">
        <ele>2572.5</ele>
        <time>2018-08-11T19:21:11Z</time>
      </trkpt>
      <trkpt lat="4.5260070" lon="-74.2412070">
        <ele>2572.6</ele>
        <time>2018-08-11T19:21:12Z</time>
      </trkpt>
      <trkpt lat="4.5260670" lon="-74.2411800">
        <ele>2572.6</ele>
        <time>2018-08-11T19:21:13Z</time>
      </trkpt>
      <trkpt lat="4.5261250" lon="-74.2411550">
        <ele>2572.6</ele>
        <time>2018-08-11T19:21:14Z</time>
      </trkpt>
      <trkpt lat="4.5261820" lon="-74.2411270">
        <ele>2572.6</ele>
        <time>2018-08-11T19:21:15Z</time>
      </trkpt>
      <trkpt lat="4.5262370" lon="-74.2410980">
        <ele>2572.6</ele>
        <time>2018-08-11T19:21:16Z</time>
      </trkpt>
      <trkpt lat="4.5262980" lon="-74.2410670">
        <ele>2572.6</ele>
        <time>2018-08-11T19:21:17Z</time>
      </trkpt>
      <trkpt lat="4.5263550" lon="-74.2410400">
        <ele>2572.6</ele>
        <time>2018-08-11T19:21:18Z</time>
      </trkpt>
      <trkpt lat="4.5264150" lon="-74.2410150">
        <ele>2572.6</ele>
        <time>2018-08-11T19:21:19Z</time>
      </trkpt>
      <trkpt lat="4.5264700" lon="-74.2409930">
        <ele>2572.7</ele>
        <time>2018-08-11T19:21:20Z</time>
      </trkpt>
      <trkpt lat="4.5265220" lon="-74.2409680">
        <ele>2572.7</ele>
        <time>2018-08-11T19:21:21Z</time>
      </trkpt>
      <trkpt lat="4.5265800" lon="-74.2409420">
        <ele>2572.7</ele>
        <time>2018-08-11T19:21:22Z</time>
      </trkpt>
      <trkpt lat="4.5266320" lon="-74.2409170">
        <ele>2572.7</ele>
        <time>2018-08-11T19:21:23Z</time>
      </trkpt>
      <trkpt lat="4.5266870" lon="-74.2408920">
        <ele>2572.7</ele>
        <time>2018-08-11T19:21:24Z</time>
      </trkpt>
      <trkpt lat="4.5267430" lon="-74.2408650">
        <ele>2572.7</ele>
        <time>2018-08-11T19:21:25Z</time>
      </trkpt>
      <trkpt lat="4.5268020" lon="-74.2408380">
        <ele>2572.7</ele>
        <time>2018-08-11T19:21:26Z</time>
      </trkpt>
      <trkpt lat="4.5268600" lon="-74.2408070">
        <ele>2572.7</ele>
        <time>2018-08-11T19:21:27Z</time>
      </trkpt>
      <trkpt lat="4.5269130" lon="-74.2407800">
        <ele>2572.7</ele>
        <time>2018-08-11T19:21:28Z</time>
      </trkpt>
      <trkpt lat="4.5269750" lon="-74.2407520">
        <ele>2572.7</ele>
        <time>2018-08-11T19:21:29Z</time>
      </trkpt>
      <trkpt lat="4.5270350" lon="-74.2407230">
        <ele>2572.7</ele>
        <time>2018-08-11T19:21:30Z</time>
      </trkpt>
      <trkpt lat="4.5271000" lon="-74.2406970">
        <ele>2572.8</ele>
        <time>2018-08-11T19:21:31Z</time>
      </trkpt>
      <trkpt lat="4.5271580" lon="-74.2406700">
        <ele>2572.8</ele>
        <time>2018-08-11T19:21:32Z</time>
      </trkpt>
      <trkpt lat="4.5272200" lon="-74.2406430">
        <ele>2572.8</ele>
        <time>2018-08-11T19:21:33Z</time>
      </trkpt>
      <trkpt lat="4.5272770" lon="-74.2406150">
        <ele>2572.8</ele>
        <time>2018-08-11T19:21:34Z</time>
      </trkpt>
      <trkpt lat="4.5273300" lon="-74.2405880">
        <ele>2572.8</ele>
        <time>2018-08-11T19:21:35Z</time>
      </trkpt>
      <trkpt lat="4.5273950" lon="-74.2405600">
        <ele>2572.8</ele>
        <time>2018-08-11T19:21:36Z</time>
      </trkpt>
      <trkpt lat="4.5274570" lon="-74.2405300">
        <ele>2572.8</ele>
        <time>2018-08-11T19:21:37Z</time>
      </trkpt>
      <trkpt lat="4.5275120" lon="-74.2405020">
        <ele>2572.8</ele>
        <time>2018-08-11T19:21:38Z</time>
      </trkpt>
      <trkpt lat="4.5275670" lon="-74.2404750">
        <ele>2572.8</ele>
        <time>2018-08-11T19:21:39Z</time>
      </trkpt>
      <trkpt lat="4.5276270" lon="-74.2404450">
        <ele>2572.8</ele>
        <time>2018-08-11T19:21:40Z</time>
      </trkpt>
      <trkpt lat="4.5276850" lon="-74.2404150">
        <ele>2572.8</ele>
        <time>2018-08-11T19:21:41Z</time>
      </trkpt>
      <trkpt lat="4.5277450" lon="-74.2403900">
        <ele>2572.8</ele>
        <time>2018-08-11T19:21:42Z</time>
      </trkpt>
      <trkpt lat="4.5278050" lon="-74.2403600">
        <ele>2572.8</ele>
        <time>2018-08-11T19:21:43Z</time>
      </trkpt>
      <trkpt lat="4.5278670" lon="-74.2403300">
        <ele>2572.8</ele>
        <time>2018-08-11T19:21:44Z</time>
      </trkpt>
      <trkpt lat="4.5279300" lon="-74.2403020">
        <ele>2572.8</ele>
        <time>2018-08-11T19:21:45Z</time>
      </trkpt>
      <trkpt lat="4.5279950" lon="-74.2402730">
        <ele>2572.8</ele>
        <time>2018-08-11T19:21:46Z</time>
      </trkpt>
      <trkpt lat="4.5280570" lon="-74.2402450">
        <ele>2572.8</ele>
        <time>2018-08-11T19:21:47Z</time>
      </trkpt>
      <trkpt lat="4.5281220" lon="-74.2402130">
        <ele>2572.8</ele>
        <time>2018-08-11T19:21:48Z</time>
      </trkpt>
      <trkpt lat="4.5282050" lon="-74.2401850">
        <ele>2572.8</ele>
        <time>2018-08-11T19:21:49Z</time>
      </trkpt>
      <trkpt lat="4.5282730" lon="-74.2401580">
        <ele>2572.8</ele>
        <time>2018-08-11T19:21:50Z</time>
      </trkpt>
      <trkpt lat="4.5283430" lon="-74.2401230">
        <ele>2572.8</ele>
        <time>2018-08-11T19:21:51Z</time>
      </trkpt>
      <trkpt lat="4.5284170" lon="-74.2400900">
        <ele>2572.8</ele>
        <time>2018-08-11T19:21:52Z</time>
      </trkpt>
      <trkpt lat="4.5284870" lon="-74.2400600">
        <ele>2572.8</ele>
        <time>2018-08-11T19:21:53Z</time>
      </trkpt>
      <trkpt lat="4.5285580" lon="-74.2400300">
        <ele>2572.8</ele>
        <time>2018-08-11T19:21:54Z</time>
      </trkpt>
      <trkpt lat="4.5286280" lon="-74.2400020">
        <ele>2572.8</ele>
        <time>2018-08-11T19:21:55Z</time>
      </trkpt>
      <trkpt lat="4.5286970" lon="-74.2399770">
        <ele>2572.8</ele>
        <time>2018-08-11T19:21:56Z</time>
      </trkpt>
      <trkpt lat="4.5287600" lon="-74.2399550">
        <ele>2572.8</ele>
        <time>2018-08-11T19:21:57Z</time>
      </trkpt>
      <trkpt lat="4.5288280" lon="-74.2399320">
        <ele>2572.7</ele>
        <time>2018-08-11T19:21:58Z</time>
      </trkpt>
      <trkpt lat="4.5288980" lon="-74.2399070">
        <ele>2572.7</ele>
        <time>2018-08-11T19:21:59Z</time>
      </trkpt>
      <trkpt lat="4.5289670" lon="-74.2398850">
        <ele>2572.7</ele>
        <time>2018-08-11T19:22:00Z</time>
      </trkpt>
      <trkpt lat="4.5290320" lon="-74.2398670">
        <ele>2572.7</ele>
        <time>2018-08-11T19:22:01Z</time>
      </trkpt>
      <trkpt lat="4.5291030" lon="-74.2398500">
        <ele>2572.7</ele>
        <time>2018-08-11T19:22:02Z</time>
      </trkpt>
      <trkpt lat="4.5291770" lon="-74.2398320">
        <ele>2572.6</ele>
        <time>2018-08-11T19:22:03Z</time>
      </trkpt>
      <trkpt lat="4.5292480" lon="-74.2398170">
        <ele>2572.6</ele>
        <time>2018-08-11T19:22:04Z</time>
      </trkpt>
      <trkpt lat="4.5293180" lon="-74.2398080">
        <ele>2572.6</ele>
        <time>2018-08-11T19:22:05Z</time>
      </trkpt>
      <trkpt lat="4.5293880" lon="-74.2397980">
        <ele>2572.5</ele>
        <time>2018-08-11T19:22:06Z</time>
      </trkpt>
      <trkpt lat="4.5294570" lon="-74.2397920">
        <ele>2572.5</ele>
        <time>2018-08-11T19:22:07Z</time>
      </trkpt>
      <trkpt lat="4.5295280" lon="-74.2397850">
        <ele>2572.4</ele>
        <time>2018-08-11T19:22:08Z</time>
      </trkpt>
      <trkpt lat="4.5296000" lon="-74.2397830">
        <ele>2572.3</ele>
        <time>2018-08-11T19:22:09Z</time>
      </trkpt>
      <trkpt lat="4.5296770" lon="-74.2397800">
        <ele>2572.2</ele>
        <time>2018-08-11T19:22:10Z</time>
      </trkpt>
      <trkpt lat="4.5297500" lon="-74.2397820">
        <ele>2572.1</ele>
        <time>2018-08-11T19:22:11Z</time>
      </trkpt>
      <trkpt lat="4.5298180" lon="-74.2397880">
        <ele>2572.0</ele>
        <time>2018-08-11T19:22:12Z</time>
      </trkpt>
      <trkpt lat="4.5298900" lon="-74.2397920">
        <ele>2571.8</ele>
        <time>2018-08-11T19:22:13Z</time>
      </trkpt>
      <trkpt lat="4.5299580" lon="-74.2397970">
        <ele>2571.5</ele>
        <time>2018-08-11T19:22:14Z</time>
      </trkpt>
      <trkpt lat="4.5300300" lon="-74.2398050">
        <ele>2571.2</ele>
        <time>2018-08-11T19:22:15Z</time>
      </trkpt>
      <trkpt lat="4.5301020" lon="-74.2398120">
        <ele>2570.9</ele>
        <time>2018-08-11T19:22:16Z</time>
      </trkpt>
      <trkpt lat="4.5301780" lon="-74.2398170">
        <ele>2570.5</ele>
        <time>2018-08-11T19:22:17Z</time>
      </trkpt>
      <trkpt lat="4.5302480" lon="-74.2398280">
        <ele>2570.3</ele>
        <time>2018-08-11T19:22:18Z</time>
      </trkpt>
      <trkpt lat="4.5303100" lon="-74.2398380">
        <ele>2570.0</ele>
        <time>2018-08-11T19:22:19Z</time>
      </trkpt>
      <trkpt lat="4.5303820" lon="-74.2398620">
        <ele>2569.7</ele>
        <time>2018-08-11T19:22:20Z</time>
      </trkpt>
      <trkpt lat="4.5304420" lon="-74.2399070">
        <ele>2569.4</ele>
        <time>2018-08-11T19:22:21Z</time>
      </trkpt>
      <trkpt lat="4.5305150" lon="-74.2399300">
        <ele>2569.1</ele>
        <time>2018-08-11T19:22:22Z</time>
      </trkpt>
      <trkpt lat="4.5305880" lon="-74.2399550">
        <ele>2568.8</ele>
        <time>2018-08-11T19:22:23Z</time>
      </trkpt>
      <trkpt lat="4.5306550" lon="-74.2399800">
        <ele>2568.6</ele>
        <time>2018-08-11T19:22:24Z</time>
      </trkpt>
      <trkpt lat="4.5307250" lon="-74.2400050">
        <ele>2568.4</ele>
        <time>2018-08-11T19:22:25Z</time>
      </trkpt>
      <trkpt lat="4.5307920" lon="-74.2400220">
        <ele>2568.1</ele>
        <time>2018-08-11T19:22:26Z</time>
      </trkpt>
      <trkpt lat="4.5308620" lon="-74.2400420">
        <ele>2568.0</ele>
        <time>2018-08-11T19:22:27Z</time>
      </trkpt>
      <trkpt lat="4.5309320" lon="-74.2400730">
        <ele>2567.9</ele>
        <time>2018-08-11T19:22:28Z</time>
      </trkpt>
      <trkpt lat="4.5310030" lon="-74.2401120">
        <ele>2567.8</ele>
        <time>2018-08-11T19:22:29Z</time>
      </trkpt>
      <trkpt lat="4.5310770" lon="-74.2401530">
        <ele>2567.7</ele>
        <time>2018-08-11T19:22:30Z</time>
      </trkpt>
      <trkpt lat="4.5311550" lon="-74.2401980">
        <ele>2567.6</ele>
        <time>2018-08-11T19:22:31Z</time>
      </trkpt>
      <trkpt lat="4.5312330" lon="-74.2402500">
        <ele>2567.5</ele>
        <time>2018-08-11T19:22:32Z</time>
      </trkpt>
      <trkpt lat="4.5313120" lon="-74.2403050">
        <ele>2567.4</ele>
        <time>2018-08-11T19:22:33Z</time>
      </trkpt>
      <trkpt lat="4.5313920" lon="-74.2403650">
        <ele>2567.3</ele>
        <time>2018-08-11T19:22:34Z</time>
      </trkpt>
      <trkpt lat="4.5314770" lon="-74.2404230">
        <ele>2567.2</ele>
        <time>2018-08-11T19:22:35Z</time>
      </trkpt>
      <trkpt lat="4.5315580" lon="-74.2404850">
        <ele>2567.2</ele>
        <time>2018-08-11T19:22:36Z</time>
      </trkpt>
      <trkpt lat="4.5316380" lon="-74.2405530">
        <ele>2567.1</ele>
        <time>2018-08-11T19:22:37Z</time>
      </trkpt>
      <trkpt lat="4.5317250" lon="-74.2406180">
        <ele>2567.1</ele>
        <time>2018-08-11T19:22:38Z</time>
      </trkpt>
      <trkpt lat="4.5318130" lon="-74.2406850">
        <ele>2567.1</ele>
        <time>2018-08-11T19:22:39Z</time>
      </trkpt>
      <trkpt lat="4.5319020" lon="-74.2407520">
        <ele>2567.1</ele>
        <time>2018-08-11T19:22:40Z</time>
      </trkpt>
      <trkpt lat="4.5319900" lon="-74.2408180">
        <ele>2567.1</ele>
        <time>2018-08-11T19:22:41Z</time>
      </trkpt>
      <trkpt lat="4.5320770" lon="-74.2408920">
        <ele>2567.1</ele>
        <time>2018-08-11T19:22:42Z</time>
      </trkpt>
      <trkpt lat="4.5321680" lon="-74.2409620">
        <ele>2567.1</ele>
        <time>2018-08-11T19:22:43Z</time>
      </trkpt>
      <trkpt lat="4.5322600" lon="-74.2410300">
        <ele>2567.2</ele>
        <time>2018-08-11T19:22:44Z</time>
      </trkpt>
      <trkpt lat="4.5323530" lon="-74.2411030">
        <ele>2567.2</ele>
        <time>2018-08-11T19:22:45Z</time>
      </trkpt>
      <trkpt lat="4.5324570" lon="-74.2411770">
        <ele>2567.2</ele>
        <time>2018-08-11T19:22:46Z</time>
      </trkpt>
      <trkpt lat="4.5325550" lon="-74.2412530">
        <ele>2567.3</ele>
        <time>2018-08-11T19:22:47Z</time>
      </trkpt>
      <trkpt lat="4.5326500" lon="-74.2413320">
        <ele>2567.4</ele>
        <time>2018-08-11T19:22:48Z</time>
      </trkpt>
      <trkpt lat="4.5327470" lon="-74.2414120">
        <ele>2567.4</ele>
        <time>2018-08-11T19:22:49Z</time>
      </trkpt>
      <trkpt lat="4.5328470" lon="-74.2414920">
        <ele>2567.5</ele>
        <time>2018-08-11T19:22:50Z</time>
      </trkpt>
      <trkpt lat="4.5329480" lon="-74.2415680">
        <ele>2567.5</ele>
        <time>2018-08-11T19:22:51Z</time>
      </trkpt>
      <trkpt lat="4.5330500" lon="-74.2416450">
        <ele>2567.6</ele>
        <time>2018-08-11T19:22:52Z</time>
      </trkpt>
      <trkpt lat="4.5331480" lon="-74.2417220">
        <ele>2567.6</ele>
        <time>2018-08-11T19:22:53Z</time>
      </trkpt>
      <trkpt lat="4.5332470" lon="-74.2418030">
        <ele>2567.6</ele>
        <time>2018-08-11T19:22:54Z</time>
      </trkpt>
      <trkpt lat="4.5333450" lon="-74.2418820">
        <ele>2567.6</ele>
        <time>2018-08-11T19:22:55Z</time>
      </trkpt>
      <trkpt lat="4.5334450" lon="-74.2419600">
        <ele>2567.6</ele>
        <time>2018-08-11T19:22:56Z</time>
      </trkpt>
      <trkpt lat="4.5335480" lon="-74.2420370">
        <ele>2567.6</ele>
        <time>2018-08-11T19:22:57Z</time>
      </trkpt>
      <trkpt lat="4.5336500" lon="-74.2421130">
        <ele>2567.6</ele>
        <time>2018-08-11T19:22:58Z</time>
      </trkpt>
      <trkpt lat="4.5337520" lon="-74.2421900">
        <ele>2567.5</ele>
        <time>2018-08-11T19:22:59Z</time>
      </trkpt>
      <trkpt lat="4.5338500" lon="-74.2422700">
        <ele>2567.5</ele>
        <time>2018-08-11T19:23:00Z</time>
      </trkpt>
      <trkpt lat="4.5339470" lon="-74.2423480">
        <ele>2567.4</ele>
        <time>2018-08-11T19:23:01Z</time>
      </trkpt>
      <trkpt lat="4.5340450" lon="-74.2424250">
        <ele>2567.3</ele>
        <time>2018-08-11T19:23:02Z</time>
      </trkpt>
      <trkpt lat="4.5341370" lon="-74.2425020">
        <ele>2567.3</ele>
        <time>2018-08-11T19:23:03Z</time>
      </trkpt>
      <trkpt lat="4.5342300" lon="-74.2425750">
        <ele>2567.2</ele>
        <time>2018-08-11T19:23:04Z</time>
      </trkpt>
      <trkpt lat="4.5343300" lon="-74.2426480">
        <ele>2567.1</ele>
        <time>2018-08-11T19:23:05Z</time>
      </trkpt>
      <trkpt lat="4.5344250" lon="-74.2427230">
        <ele>2567.1</ele>
        <time>2018-08-11T19:23:06Z</time>
      </trkpt>
      <trkpt lat="4.5345220" lon="-74.2427970">
        <ele>2567.0</ele>
        <time>2018-08-11T19:23:07Z</time>
      </trkpt>
      <trkpt lat="4.5346150" lon="-74.2428700">
        <ele>2567.0</ele>
        <time>2018-08-11T19:23:08Z</time>
      </trkpt>
      <trkpt lat="4.5347070" lon="-74.2429370">
        <ele>2567.0</ele>
        <time>2018-08-11T19:23:09Z</time>
      </trkpt>
      <trkpt lat="4.5347980" lon="-74.2430030">
        <ele>2567.0</ele>
        <time>2018-08-11T19:23:10Z</time>
      </trkpt>
      <trkpt lat="4.5348880" lon="-74.2430770">
        <ele>2566.9</ele>
        <time>2018-08-11T19:23:11Z</time>
      </trkpt>
      <trkpt lat="4.5349780" lon="-74.2431520">
        <ele>2566.9</ele>
        <time>2018-08-11T19:23:12Z</time>
      </trkpt>
      <trkpt lat="4.5350670" lon="-74.2432270">
        <ele>2566.9</ele>
        <time>2018-08-11T19:23:13Z</time>
      </trkpt>
      <trkpt lat="4.5351550" lon="-74.2433030">
        <ele>2566.8</ele>
        <time>2018-08-11T19:23:14Z</time>
      </trkpt>
      <trkpt lat="4.5352430" lon="-74.2433780">
        <ele>2566.8</ele>
        <time>2018-08-11T19:23:15Z</time>
      </trkpt>
      <trkpt lat="4.5353300" lon="-74.2434480">
        <ele>2566.8</ele>
        <time>2018-08-11T19:23:16Z</time>
      </trkpt>
      <trkpt lat="4.5354200" lon="-74.2435170">
        <ele>2566.7</ele>
        <time>2018-08-11T19:23:17Z</time>
      </trkpt>
      <trkpt lat="4.5355100" lon="-74.2435830">
        <ele>2566.7</ele>
        <time>2018-08-11T19:23:18Z</time>
      </trkpt>
      <trkpt lat="4.5356000" lon="-74.2436520">
        <ele>2566.6</ele>
        <time>2018-08-11T19:23:19Z</time>
      </trkpt>
      <trkpt lat="4.5356800" lon="-74.2437150">
        <ele>2566.6</ele>
        <time>2018-08-11T19:23:20Z</time>
      </trkpt>
      <trkpt lat="4.5357600" lon="-74.2437750">
        <ele>2566.5</ele>
        <time>2018-08-11T19:23:21Z</time>
      </trkpt>
      <trkpt lat="4.5358420" lon="-74.2438380">
        <ele>2566.5</ele>
        <time>2018-08-11T19:23:22Z</time>
      </trkpt>
      <trkpt lat="4.5359220" lon="-74.2438980">
        <ele>2566.4</ele>
        <time>2018-08-11T19:23:23Z</time>
      </trkpt>
      <trkpt lat="4.5360020" lon="-74.2439580">
        <ele>2566.3</ele>
        <time>2018-08-11T19:23:24Z</time>
      </trkpt>
      <trkpt lat="4.5360850" lon="-74.2440180">
        <ele>2566.2</ele>
        <time>2018-08-11T19:23:25Z</time>
      </trkpt>
      <trkpt lat="4.5361700" lon="-74.2440780">
        <ele>2566.2</ele>
        <time>2018-08-11T19:23:26Z</time>
      </trkpt>
      <trkpt lat="4.5362480" lon="-74.2441420">
        <ele>2566.1</ele>
        <time>2018-08-11T19:23:27Z</time>
      </trkpt>
      <trkpt lat="4.5363250" lon="-74.2442020">
        <ele>2566.0</ele>
        <time>2018-08-11T19:23:28Z</time>
      </trkpt>
      <trkpt lat="4.5364070" lon="-74.2442630">
        <ele>2566.0</ele>
        <time>2018-08-11T19:23:29Z</time>
      </trkpt>
      <trkpt lat="4.5364880" lon="-74.2443230">
        <ele>2565.9</ele>
        <time>2018-08-11T19:23:30Z</time>
      </trkpt>
      <trkpt lat="4.5365680" lon="-74.2443830">
        <ele>2565.9</ele>
        <time>2018-08-11T19:23:31Z</time>
      </trkpt>
      <trkpt lat="4.5366470" lon="-74.2444450">
        <ele>2565.9</ele>
        <time>2018-08-11T19:23:32Z</time>
      </trkpt>
      <trkpt lat="4.5367220" lon="-74.2445030">
        <ele>2565.8</ele>
        <time>2018-08-11T19:23:33Z</time>
      </trkpt>
      <trkpt lat="4.5367950" lon="-74.2445620">
        <ele>2565.8</ele>
        <time>2018-08-11T19:23:34Z</time>
      </trkpt>
      <trkpt lat="4.5368650" lon="-74.2446170">
        <ele>2565.8</ele>
        <time>2018-08-11T19:23:35Z</time>
      </trkpt>
      <trkpt lat="4.5369300" lon="-74.2446750">
        <ele>2565.8</ele>
        <time>2018-08-11T19:23:36Z</time>
      </trkpt>
      <trkpt lat="4.5370000" lon="-74.2447300">
        <ele>2565.7</ele>
        <time>2018-08-11T19:23:37Z</time>
      </trkpt>
      <trkpt lat="4.5370630" lon="-74.2447920">
        <ele>2565.7</ele>
        <time>2018-08-11T19:23:38Z</time>
      </trkpt>
      <trkpt lat="4.5371280" lon="-74.2448500">
        <ele>2565.7</ele>
        <time>2018-08-11T19:23:39Z</time>
      </trkpt>
      <trkpt lat="4.5371850" lon="-74.2449030">
        <ele>2565.7</ele>
        <time>2018-08-11T19:23:40Z</time>
      </trkpt>
      <trkpt lat="4.5372370" lon="-74.2449500">
        <ele>2565.7</ele>
        <time>2018-08-11T19:23:41Z</time>
      </trkpt>
      <trkpt lat="4.5372820" lon="-74.2449880">
        <ele>2565.7</ele>
        <time>2018-08-11T19:23:42Z</time>
      </trkpt>
      <trkpt lat="4.5373370" lon="-74.2450280">
        <ele>2565.7</ele>
        <time>2018-08-11T19:23:43Z</time>
      </trkpt>
      <trkpt lat="4.5373930" lon="-74.2450750">
        <ele>2565.7</ele>
        <time>2018-08-11T19:23:44Z</time>
      </trkpt>
      <trkpt lat="4.5374500" lon="-74.2451170">
        <ele>2565.6</ele>
        <time>2018-08-11T19:23:45Z</time>
      </trkpt>
      <trkpt lat="4.5375080" lon="-74.2451580">
        <ele>2565.6</ele>
        <time>2018-08-11T19:23:46Z</time>
      </trkpt>
      <trkpt lat="4.5375720" lon="-74.2451970">
        <ele>2565.6</ele>
        <time>2018-08-11T19:23:47Z</time>
      </trkpt>
      <trkpt lat="4.5376380" lon="-74.2452400">
        <ele>2565.6</ele>
        <time>2018-08-11T19:23:48Z</time>
      </trkpt>
      <trkpt lat="4.5377080" lon="-74.2452820">
        <ele>2565.6</ele>
        <time>2018-08-11T19:23:49Z</time>
      </trkpt>
      <trkpt lat="4.5377750" lon="-74.2453280">
        <ele>2565.6</ele>
        <time>2018-08-11T19:23:50Z</time>
      </trkpt>
      <trkpt lat="4.5378480" lon="-74.2453800">
        <ele>2565.6</ele>
        <time>2018-08-11T19:23:51Z</time>
      </trkpt>
      <trkpt lat="4.5379180" lon="-74.2454350">
        <ele>2565.6</ele>
        <time>2018-08-11T19:23:52Z</time>
      </trkpt>
      <trkpt lat="4.5379880" lon="-74.2454920">
        <ele>2565.6</ele>
        <time>2018-08-11T19:23:53Z</time>
      </trkpt>
      <trkpt lat="4.5380680" lon="-74.2455520">
        <ele>2565.6</ele>
        <time>2018-08-11T19:23:54Z</time>
      </trkpt>
      <trkpt lat="4.5381450" lon="-74.2456130">
        <ele>2565.6</ele>
        <time>2018-08-11T19:23:55Z</time>
      </trkpt>
      <trkpt lat="4.5382170" lon="-74.2456720">
        <ele>2565.6</ele>
        <time>2018-08-11T19:23:56Z</time>
      </trkpt>
      <trkpt lat="4.5382880" lon="-74.2457270">
        <ele>2565.6</ele>
        <time>2018-08-11T19:23:57Z</time>
      </trkpt>
      <trkpt lat="4.5383600" lon="-74.2457850">
        <ele>2565.6</ele>
        <time>2018-08-11T19:23:58Z</time>
      </trkpt>
      <trkpt lat="4.5384330" lon="-74.2458430">
        <ele>2565.6</ele>
        <time>2018-08-11T19:23:59Z</time>
      </trkpt>
      <trkpt lat="4.5385070" lon="-74.2459000">
        <ele>2565.6</ele>
        <time>2018-08-11T19:24:00Z</time>
      </trkpt>
      <trkpt lat="4.5385780" lon="-74.2459570">
        <ele>2565.6</ele>
        <time>2018-08-11T19:24:01Z</time>
      </trkpt>
      <trkpt lat="4.5386480" lon="-74.2460180">
        <ele>2565.7</ele>
        <time>2018-08-11T19:24:02Z</time>
      </trkpt>
      <trkpt lat="4.5387180" lon="-74.2460800">
        <ele>2565.7</ele>
        <time>2018-08-11T19:24:03Z</time>
      </trkpt>
      <trkpt lat="4.5387930" lon="-74.2461370">
        <ele>2565.7</ele>
        <time>2018-08-11T19:24:04Z</time>
      </trkpt>
      <trkpt lat="4.5388670" lon="-74.2461930">
        <ele>2565.7</ele>
        <time>2018-08-11T19:24:05Z</time>
      </trkpt>
      <trkpt lat="4.5389380" lon="-74.2462530">
        <ele>2565.7</ele>
        <time>2018-08-11T19:24:06Z</time>
      </trkpt>
      <trkpt lat="4.5390120" lon="-74.2463130">
        <ele>2565.7</ele>
        <time>2018-08-11T19:24:07Z</time>
      </trkpt>
      <trkpt lat="4.5390870" lon="-74.2463700">
        <ele>2565.7</ele>
        <time>2018-08-11T19:24:08Z</time>
      </trkpt>
      <trkpt lat="4.5391600" lon="-74.2464280">
        <ele>2565.7</ele>
        <time>2018-08-11T19:24:09Z</time>
      </trkpt>
      <trkpt lat="4.5392330" lon="-74.2464900">
        <ele>2565.7</ele>
        <time>2018-08-11T19:24:10Z</time>
      </trkpt>
      <trkpt lat="4.5393070" lon="-74.2465500">
        <ele>2565.7</ele>
        <time>2018-08-11T19:24:11Z</time>
      </trkpt>
      <trkpt lat="4.5393820" lon="-74.2466080">
        <ele>2565.7</ele>
        <time>2018-08-11T19:24:12Z</time>
      </trkpt>
      <trkpt lat="4.5394580" lon="-74.2466650">
        <ele>2565.7</ele>
        <time>2018-08-11T19:24:13Z</time>
      </trkpt>
      <trkpt lat="4.5395380" lon="-74.2467200">
        <ele>2565.7</ele>
        <time>2018-08-11T19:24:14Z</time>
      </trkpt>
      <trkpt lat="4.5396200" lon="-74.2467720">
        <ele>2565.7</ele>
        <time>2018-08-11T19:24:15Z</time>
      </trkpt>
      <trkpt lat="4.5397020" lon="-74.2468200">
        <ele>2565.7</ele>
        <time>2018-08-11T19:24:16Z</time>
      </trkpt>
      <trkpt lat="4.5397820" lon="-74.2468630">
        <ele>2565.6</ele>
        <time>2018-08-11T19:24:17Z</time>
      </trkpt>
      <trkpt lat="4.5398630" lon="-74.2469020">
        <ele>2565.5</ele>
        <time>2018-08-11T19:24:18Z</time>
      </trkpt>
      <trkpt lat="4.5399470" lon="-74.2469330">
        <ele>2565.3</ele>
        <time>2018-08-11T19:24:19Z</time>
      </trkpt>
      <trkpt lat="4.5400280" lon="-74.2469600">
        <ele>2565.0</ele>
        <time>2018-08-11T19:24:20Z</time>
      </trkpt>
      <trkpt lat="4.5401080" lon="-74.2469830">
        <ele>2564.6</ele>
        <time>2018-08-11T19:24:21Z</time>
      </trkpt>
      <trkpt lat="4.5401920" lon="-74.2470020">
        <ele>2564.1</ele>
        <time>2018-08-11T19:24:22Z</time>
      </trkpt>
      <trkpt lat="4.5402750" lon="-74.2470180">
        <ele>2563.9</ele>
        <time>2018-08-11T19:24:23Z</time>
      </trkpt>
      <trkpt lat="4.5403570" lon="-74.2470320">
        <ele>2563.8</ele>
        <time>2018-08-11T19:24:24Z</time>
      </trkpt>
      <trkpt lat="4.5404380" lon="-74.2470420">
        <ele>2563.7</ele>
        <time>2018-08-11T19:24:25Z</time>
      </trkpt>
      <trkpt lat="4.5405180" lon="-74.2470430">
        <ele>2563.6</ele>
        <time>2018-08-11T19:24:26Z</time>
      </trkpt>
      <trkpt lat="4.5406000" lon="-74.2470400">
        <ele>2563.5</ele>
        <time>2018-08-11T19:24:27Z</time>
      </trkpt>
      <trkpt lat="4.5406720" lon="-74.2470350">
        <ele>2563.4</ele>
        <time>2018-08-11T19:24:28Z</time>
      </trkpt>
      <trkpt lat="4.5407450" lon="-74.2470250">
        <ele>2563.3</ele>
        <time>2018-08-11T19:24:29Z</time>
      </trkpt>
      <trkpt lat="4.5408230" lon="-74.2470120">
        <ele>2563.2</ele>
        <time>2018-08-11T19:24:30Z</time>
      </trkpt>
      <trkpt lat="4.5409000" lon="-74.2470020">
        <ele>2563.1</ele>
        <time>2018-08-11T19:24:31Z</time>
      </trkpt>
      <trkpt lat="4.5409800" lon="-74.2469850">
        <ele>2563.0</ele>
        <time>2018-08-11T19:24:32Z</time>
      </trkpt>
      <trkpt lat="4.5410600" lon="-74.2469630">
        <ele>2563.0</ele>
        <time>2018-08-11T19:24:33Z</time>
      </trkpt>
      <trkpt lat="4.5411380" lon="-74.2469320">
        <ele>2563.0</ele>
        <time>2018-08-11T19:24:34Z</time>
      </trkpt>
      <trkpt lat="4.5412100" lon="-74.2468970">
        <ele>2563.0</ele>
        <time>2018-08-11T19:24:35Z</time>
      </trkpt>
      <trkpt lat="4.5412830" lon="-74.2468570">
        <ele>2563.0</ele>
        <time>2018-08-11T19:24:36Z</time>
      </trkpt>
      <trkpt lat="4.5413500" lon="-74.2468150">
        <ele>2563.0</ele>
        <time>2018-08-11T19:24:37Z</time>
      </trkpt>
      <trkpt lat="4.5414150" lon="-74.2467720">
        <ele>2562.9</ele>
        <time>2018-08-11T19:24:38Z</time>
      </trkpt>
      <trkpt lat="4.5414870" lon="-74.2467230">
        <ele>2562.9</ele>
        <time>2018-08-11T19:24:39Z</time>
      </trkpt>
      <trkpt lat="4.5415580" lon="-74.2466770">
        <ele>2562.8</ele>
        <time>2018-08-11T19:24:40Z</time>
      </trkpt>
      <trkpt lat="4.5416300" lon="-74.2466300">
        <ele>2562.7</ele>
        <time>2018-08-11T19:24:41Z</time>
      </trkpt>
      <trkpt lat="4.5417020" lon="-74.2465800">
        <ele>2562.6</ele>
        <time>2018-08-11T19:24:42Z</time>
      </trkpt>
      <trkpt lat="4.5417730" lon="-74.2465300">
        <ele>2562.5</ele>
        <time>2018-08-11T19:24:43Z</time>
      </trkpt>
      <trkpt lat="4.5418480" lon="-74.2464820">
        <ele>2562.3</ele>
        <time>2018-08-11T19:24:44Z</time>
      </trkpt>
      <trkpt lat="4.5419250" lon="-74.2464320">
        <ele>2562.1</ele>
        <time>2018-08-11T19:24:45Z</time>
      </trkpt>
      <trkpt lat="4.5420000" lon="-74.2463780">
        <ele>2561.9</ele>
        <time>2018-08-11T19:24:46Z</time>
      </trkpt>
      <trkpt lat="4.5420730" lon="-74.2463230">
        <ele>2561.5</ele>
        <time>2018-08-11T19:24:47Z</time>
      </trkpt>
      <trkpt lat="4.5421450" lon="-74.2462650">
        <ele>2561.2</ele>
        <time>2018-08-11T19:24:48Z</time>
      </trkpt>
      <trkpt lat="4.5422180" lon="-74.2462080">
        <ele>2560.8</ele>
        <time>2018-08-11T19:24:49Z</time>
      </trkpt>
      <trkpt lat="4.5422930" lon="-74.2461500">
        <ele>2560.2</ele>
        <time>2018-08-11T19:24:50Z</time>
      </trkpt>
      <trkpt lat="4.5423700" lon="-74.2460930">
        <ele>2559.6</ele>
        <time>2018-08-11T19:24:51Z</time>
      </trkpt>
      <trkpt lat="4.5424480" lon="-74.2460350">
        <ele>2559.0</ele>
        <time>2018-08-11T19:24:52Z</time>
      </trkpt>
      <trkpt lat="4.5425250" lon="-74.2459770">
        <ele>2558.3</ele>
        <time>2018-08-11T19:24:53Z</time>
      </trkpt>
      <trkpt lat="4.5426020" lon="-74.2459180">
        <ele>2557.9</ele>
        <time>2018-08-11T19:24:54Z</time>
      </trkpt>
      <trkpt lat="4.5426830" lon="-74.2458630">
        <ele>2557.4</ele>
        <time>2018-08-11T19:24:55Z</time>
      </trkpt>
      <trkpt lat="4.5427630" lon="-74.2458050">
        <ele>2557.0</ele>
        <time>2018-08-11T19:24:56Z</time>
      </trkpt>
      <trkpt lat="4.5428420" lon="-74.2457470">
        <ele>2556.9</ele>
        <time>2018-08-11T19:24:57Z</time>
      </trkpt>
      <trkpt lat="4.5429200" lon="-74.2456900">
        <ele>2556.8</ele>
        <time>2018-08-11T19:24:58Z</time>
      </trkpt>
      <trkpt lat="4.5429950" lon="-74.2456330">
        <ele>2556.7</ele>
        <time>2018-08-11T19:24:59Z</time>
      </trkpt>
      <trkpt lat="4.5430720" lon="-74.2455770">
        <ele>2556.6</ele>
        <time>2018-08-11T19:25:00Z</time>
      </trkpt>
      <trkpt lat="4.5431480" lon="-74.2455180">
        <ele>2556.4</ele>
        <time>2018-08-11T19:25:01Z</time>
      </trkpt>
      <trkpt lat="4.5432220" lon="-74.2454620">
        <ele>2556.3</ele>
        <time>2018-08-11T19:25:02Z</time>
      </trkpt>
      <trkpt lat="4.5432930" lon="-74.2454050">
        <ele>2556.2</ele>
        <time>2018-08-11T19:25:03Z</time>
      </trkpt>
      <trkpt lat="4.5433650" lon="-74.2453520">
        <ele>2556.1</ele>
        <time>2018-08-11T19:25:04Z</time>
      </trkpt>
      <trkpt lat="4.5434380" lon="-74.2452950">
        <ele>2556.0</ele>
        <time>2018-08-11T19:25:05Z</time>
      </trkpt>
      <trkpt lat="4.5435130" lon="-74.2452370">
        <ele>2555.8</ele>
        <time>2018-08-11T19:25:06Z</time>
      </trkpt>
      <trkpt lat="4.5435850" lon="-74.2451780">
        <ele>2555.7</ele>
        <time>2018-08-11T19:25:07Z</time>
      </trkpt>
      <trkpt lat="4.5436580" lon="-74.2451180">
        <ele>2555.5</ele>
        <time>2018-08-11T19:25:08Z</time>
      </trkpt>
      <trkpt lat="4.5437330" lon="-74.2450600">
        <ele>2555.4</ele>
        <time>2018-08-11T19:25:09Z</time>
      </trkpt>
      <trkpt lat="4.5438080" lon="-74.2450020">
        <ele>2555.2</ele>
        <time>2018-08-11T19:25:10Z</time>
      </trkpt>
      <trkpt lat="4.5438870" lon="-74.2449430">
        <ele>2555.1</ele>
        <time>2018-08-11T19:25:11Z</time>
      </trkpt>
      <trkpt lat="4.5439620" lon="-74.2448870">
        <ele>2554.9</ele>
        <time>2018-08-11T19:25:12Z</time>
      </trkpt>
      <trkpt lat="4.5440370" lon="-74.2448320">
        <ele>2554.7</ele>
        <time>2018-08-11T19:25:13Z</time>
      </trkpt>
      <trkpt lat="4.5441120" lon="-74.2447800">
        <ele>2554.5</ele>
        <time>2018-08-11T19:25:14Z</time>
      </trkpt>
      <trkpt lat="4.5441870" lon="-74.2447280">
        <ele>2554.3</ele>
        <time>2018-08-11T19:25:15Z</time>
      </trkpt>
      <trkpt lat="4.5442580" lon="-74.2446750">
        <ele>2554.2</ele>
        <time>2018-08-11T19:25:16Z</time>
      </trkpt>
      <trkpt lat="4.5443320" lon="-74.2446180">
        <ele>2554.0</ele>
        <time>2018-08-11T19:25:17Z</time>
      </trkpt>
      <trkpt lat="4.5444020" lon="-74.2445650">
        <ele>2553.8</ele>
        <time>2018-08-11T19:25:18Z</time>
      </trkpt>
      <trkpt lat="4.5444730" lon="-74.2445120">
        <ele>2553.6</ele>
        <time>2018-08-11T19:25:19Z</time>
      </trkpt>
      <trkpt lat="4.5445430" lon="-74.2444570">
        <ele>2553.3</ele>
        <time>2018-08-11T19:25:20Z</time>
      </trkpt>
      <trkpt lat="4.5446130" lon="-74.2444030">
        <ele>2553.1</ele>
        <time>2018-08-11T19:25:21Z</time>
      </trkpt>
      <trkpt lat="4.5446850" lon="-74.2443500">
        <ele>2552.9</ele>
        <time>2018-08-11T19:25:22Z</time>
      </trkpt>
      <trkpt lat="4.5447570" lon="-74.2442950">
        <ele>2552.7</ele>
        <time>2018-08-11T19:25:23Z</time>
      </trkpt>
      <trkpt lat="4.5448280" lon="-74.2442400">
        <ele>2552.5</ele>
        <time>2018-08-11T19:25:24Z</time>
      </trkpt>
      <trkpt lat="4.5448980" lon="-74.2441870">
        <ele>2552.4</ele>
        <time>2018-08-11T19:25:25Z</time>
      </trkpt>
      <trkpt lat="4.5449650" lon="-74.2441350">
        <ele>2552.2</ele>
        <time>2018-08-11T19:25:26Z</time>
      </trkpt>
      <trkpt lat="4.5450320" lon="-74.2440820">
        <ele>2552.1</ele>
        <time>2018-08-11T19:25:27Z</time>
      </trkpt>
      <trkpt lat="4.5450980" lon="-74.2440300">
        <ele>2552.0</ele>
        <time>2018-08-11T19:25:28Z</time>
      </trkpt>
      <trkpt lat="4.5451650" lon="-74.2439800">
        <ele>2552.0</ele>
        <time>2018-08-11T19:25:29Z</time>
      </trkpt>
      <trkpt lat="4.5452320" lon="-74.2439320">
        <ele>2552.0</ele>
        <time>2018-08-11T19:25:30Z</time>
      </trkpt>
      <trkpt lat="4.5452970" lon="-74.2438800">
        <ele>2552.0</ele>
        <time>2018-08-11T19:25:31Z</time>
      </trkpt>
      <trkpt lat="4.5453600" lon="-74.2438280">
        <ele>2552.0</ele>
        <time>2018-08-11T19:25:32Z</time>
      </trkpt>
      <trkpt lat="4.5454220" lon="-74.2437800">
        <ele>2552.1</ele>
        <time>2018-08-11T19:25:33Z</time>
      </trkpt>
      <trkpt lat="4.5454780" lon="-74.2437320">
        <ele>2552.2</ele>
        <time>2018-08-11T19:25:34Z</time>
      </trkpt>
      <trkpt lat="4.5455380" lon="-74.2436920">
        <ele>2552.3</ele>
        <time>2018-08-11T19:25:35Z</time>
      </trkpt>
      <trkpt lat="4.5455900" lon="-74.2436500">
        <ele>2552.5</ele>
        <time>2018-08-11T19:25:36Z</time>
      </trkpt>
      <trkpt lat="4.5456450" lon="-74.2436080">
        <ele>2552.6</ele>
        <time>2018-08-11T19:25:37Z</time>
      </trkpt>
      <trkpt lat="4.5457000" lon="-74.2435630">
        <ele>2552.7</ele>
        <time>2018-08-11T19:25:38Z</time>
      </trkpt>
      <trkpt lat="4.5457600" lon="-74.2435170">
        <ele>2552.8</ele>
        <time>2018-08-11T19:25:39Z</time>
      </trkpt>
      <trkpt lat="4.5458150" lon="-74.2434720">
        <ele>2552.8</ele>
        <time>2018-08-11T19:25:40Z</time>
      </trkpt>
      <trkpt lat="4.5458730" lon="-74.2434270">
        <ele>2552.9</ele>
        <time>2018-08-11T19:25:41Z</time>
      </trkpt>
      <trkpt lat="4.5459300" lon="-74.2433830">
        <ele>2552.9</ele>
        <time>2018-08-11T19:25:42Z</time>
      </trkpt>
      <trkpt lat="4.5459830" lon="-74.2433400">
        <ele>2552.9</ele>
        <time>2018-08-11T19:25:43Z</time>
      </trkpt>
      <trkpt lat="4.5460420" lon="-74.2432950">
        <ele>2553.0</ele>
        <time>2018-08-11T19:25:44Z</time>
      </trkpt>
      <trkpt lat="4.5461020" lon="-74.2432480">
        <ele>2553.1</ele>
        <time>2018-08-11T19:25:45Z</time>
      </trkpt>
      <trkpt lat="4.5461600" lon="-74.2432000">
        <ele>2553.1</ele>
        <time>2018-08-11T19:25:46Z</time>
      </trkpt>
      <trkpt lat="4.5462170" lon="-74.2431550">
        <ele>2553.2</ele>
        <time>2018-08-11T19:25:47Z</time>
      </trkpt>
      <trkpt lat="4.5462700" lon="-74.2431100">
        <ele>2553.4</ele>
        <time>2018-08-11T19:25:48Z</time>
      </trkpt>
      <trkpt lat="4.5463230" lon="-74.2430650">
        <ele>2553.5</ele>
        <time>2018-08-11T19:25:49Z</time>
      </trkpt>
      <trkpt lat="4.5463820" lon="-74.2430200">
        <ele>2553.6</ele>
        <time>2018-08-11T19:25:50Z</time>
      </trkpt>
      <trkpt lat="4.5464400" lon="-74.2429770">
        <ele>2553.7</ele>
        <time>2018-08-11T19:25:51Z</time>
      </trkpt>
      <trkpt lat="4.5464970" lon="-74.2429330">
        <ele>2553.8</ele>
        <time>2018-08-11T19:25:52Z</time>
      </trkpt>
      <trkpt lat="4.5465500" lon="-74.2428900">
        <ele>2553.9</ele>
        <time>2018-08-11T19:25:53Z</time>
      </trkpt>
      <trkpt lat="4.5466030" lon="-74.2428480">
        <ele>2554.0</ele>
        <time>2018-08-11T19:25:54Z</time>
      </trkpt>
      <trkpt lat="4.5466550" lon="-74.2428030">
        <ele>2554.2</ele>
        <time>2018-08-11T19:25:55Z</time>
      </trkpt>
      <trkpt lat="4.5467080" lon="-74.2427600">
        <ele>2554.3</ele>
        <time>2018-08-11T19:25:56Z</time>
      </trkpt>
      <trkpt lat="4.5467600" lon="-74.2427180">
        <ele>2554.4</ele>
        <time>2018-08-11T19:25:57Z</time>
      </trkpt>
      <trkpt lat="4.5468130" lon="-74.2426730">
        <ele>2554.5</ele>
        <time>2018-08-11T19:25:58Z</time>
      </trkpt>
      <trkpt lat="4.5468670" lon="-74.2426280">
        <ele>2554.6</ele>
        <time>2018-08-11T19:25:59Z</time>
      </trkpt>
      <trkpt lat="4.5469200" lon="-74.2425850">
        <ele>2554.7</ele>
        <time>2018-08-11T19:26:00Z</time>
      </trkpt>
      <trkpt lat="4.5469720" lon="-74.2425420">
        <ele>2554.8</ele>
        <time>2018-08-11T19:26:01Z</time>
      </trkpt>
      <trkpt lat="4.5470250" lon="-74.2424950">
        <ele>2554.8</ele>
        <time>2018-08-11T19:26:02Z</time>
      </trkpt>
      <trkpt lat="4.5470770" lon="-74.2424520">
        <ele>2554.8</ele>
        <time>2018-08-11T19:26:03Z</time>
      </trkpt>
      <trkpt lat="4.5471280" lon="-74.2424070">
        <ele>2554.8</ele>
        <time>2018-08-11T19:26:04Z</time>
      </trkpt>
      <trkpt lat="4.5471820" lon="-74.2423620">
        <ele>2554.8</ele>
        <time>2018-08-11T19:26:05Z</time>
      </trkpt>
      <trkpt lat="4.5472430" lon="-74.2423180">
        <ele>2554.8</ele>
        <time>2018-08-11T19:26:06Z</time>
      </trkpt>
      <trkpt lat="4.5473000" lon="-74.2422770">
        <ele>2554.8</ele>
        <time>2018-08-11T19:26:07Z</time>
      </trkpt>
      <trkpt lat="4.5473530" lon="-74.2422320">
        <ele>2554.8</ele>
        <time>2018-08-11T19:26:08Z</time>
      </trkpt>
      <trkpt lat="4.5474100" lon="-74.2421880">
        <ele>2554.8</ele>
        <time>2018-08-11T19:26:09Z</time>
      </trkpt>
      <trkpt lat="4.5474630" lon="-74.2421450">
        <ele>2554.8</ele>
        <time>2018-08-11T19:26:10Z</time>
      </trkpt>
      <trkpt lat="4.5475150" lon="-74.2421000">
        <ele>2554.8</ele>
        <time>2018-08-11T19:26:11Z</time>
      </trkpt>
      <trkpt lat="4.5475720" lon="-74.2420530">
        <ele>2554.9</ele>
        <time>2018-08-11T19:26:12Z</time>
      </trkpt>
      <trkpt lat="4.5476250" lon="-74.2420080">
        <ele>2555.0</ele>
        <time>2018-08-11T19:26:13Z</time>
      </trkpt>
      <trkpt lat="4.5476820" lon="-74.2419630">
        <ele>2555.1</ele>
        <time>2018-08-11T19:26:14Z</time>
      </trkpt>
      <trkpt lat="4.5477370" lon="-74.2419180">
        <ele>2555.2</ele>
        <time>2018-08-11T19:26:15Z</time>
      </trkpt>
      <trkpt lat="4.5477930" lon="-74.2418720">
        <ele>2555.3</ele>
        <time>2018-08-11T19:26:16Z</time>
      </trkpt>
      <trkpt lat="4.5478520" lon="-74.2418280">
        <ele>2555.3</ele>
        <time>2018-08-11T19:26:17Z</time>
      </trkpt>
      <trkpt lat="4.5479070" lon="-74.2417830">
        <ele>2555.3</ele>
        <time>2018-08-11T19:26:18Z</time>
      </trkpt>
      <trkpt lat="4.5479570" lon="-74.2417380">
        <ele>2555.3</ele>
        <time>2018-08-11T19:26:19Z</time>
      </trkpt>
      <trkpt lat="4.5480100" lon="-74.2416930">
        <ele>2555.3</ele>
        <time>2018-08-11T19:26:20Z</time>
      </trkpt>
      <trkpt lat="4.5480650" lon="-74.2416470">
        <ele>2555.3</ele>
        <time>2018-08-11T19:26:21Z</time>
      </trkpt>
      <trkpt lat="4.5481200" lon="-74.2416000">
        <ele>2555.3</ele>
        <time>2018-08-11T19:26:22Z</time>
      </trkpt>
      <trkpt lat="4.5481720" lon="-74.2415550">
        <ele>2555.3</ele>
        <time>2018-08-11T19:26:23Z</time>
      </trkpt>
      <trkpt lat="4.5482250" lon="-74.2415130">
        <ele>2555.2</ele>
        <time>2018-08-11T19:26:24Z</time>
      </trkpt>
      <trkpt lat="4.5482780" lon="-74.2414700">
        <ele>2555.2</ele>
        <time>2018-08-11T19:26:25Z</time>
      </trkpt>
      <trkpt lat="4.5483330" lon="-74.2414280">
        <ele>2555.2</ele>
        <time>2018-08-11T19:26:26Z</time>
      </trkpt>
      <trkpt lat="4.5483880" lon="-74.2413850">
        <ele>2555.2</ele>
        <time>2018-08-11T19:26:27Z</time>
      </trkpt>
      <trkpt lat="4.5484420" lon="-74.2413400">
        <ele>2555.2</ele>
        <time>2018-08-11T19:26:28Z</time>
      </trkpt>
      <trkpt lat="4.5484970" lon="-74.2412920">
        <ele>2555.2</ele>
        <time>2018-08-11T19:26:29Z</time>
      </trkpt>
      <trkpt lat="4.5485500" lon="-74.2412450">
        <ele>2555.2</ele>
        <time>2018-08-11T19:26:30Z</time>
      </trkpt>
      <trkpt lat="4.5486000" lon="-74.2411980">
        <ele>2555.3</ele>
        <time>2018-08-11T19:26:31Z</time>
      </trkpt>
      <trkpt lat="4.5486520" lon="-74.2411520">
        <ele>2555.3</ele>
        <time>2018-08-11T19:26:32Z</time>
      </trkpt>
      <trkpt lat="4.5487020" lon="-74.2411080">
        <ele>2555.3</ele>
        <time>2018-08-11T19:26:33Z</time>
      </trkpt>
      <trkpt lat="4.5487570" lon="-74.2410630">
        <ele>2555.3</ele>
        <time>2018-08-11T19:26:34Z</time>
      </trkpt>
      <trkpt lat="4.5488120" lon="-74.2410180">
        <ele>2555.4</ele>
        <time>2018-08-11T19:26:35Z</time>
      </trkpt>
      <trkpt lat="4.5488650" lon="-74.2409750">
        <ele>2555.4</ele>
        <time>2018-08-11T19:26:36Z</time>
      </trkpt>
      <trkpt lat="4.5489270" lon="-74.2409320">
        <ele>2555.3</ele>
        <time>2018-08-11T19:26:37Z</time>
      </trkpt>
      <trkpt lat="4.5489800" lon="-74.2408870">
        <ele>2555.3</ele>
        <time>2018-08-11T19:26:38Z</time>
      </trkpt>
      <trkpt lat="4.5490320" lon="-74.2408420">
        <ele>2555.3</ele>
        <time>2018-08-11T19:26:39Z</time>
      </trkpt>
      <trkpt lat="4.5490870" lon="-74.2407950">
        <ele>2555.3</ele>
        <time>2018-08-11T19:26:40Z</time>
      </trkpt>
      <trkpt lat="4.5491380" lon="-74.2407520">
        <ele>2555.3</ele>
        <time>2018-08-11T19:26:41Z</time>
      </trkpt>
      <trkpt lat="4.5491920" lon="-74.2407080">
        <ele>2555.3</ele>
        <time>2018-08-11T19:26:42Z</time>
      </trkpt>
      <trkpt lat="4.5492480" lon="-74.2406630">
        <ele>2555.3</ele>
        <time>2018-08-11T19:26:43Z</time>
      </trkpt>
      <trkpt lat="4.5493030" lon="-74.2406200">
        <ele>2555.3</ele>
        <time>2018-08-11T19:26:44Z</time>
      </trkpt>
      <trkpt lat="4.5493580" lon="-74.2405750">
        <ele>2555.3</ele>
        <time>2018-08-11T19:26:45Z</time>
      </trkpt>
      <trkpt lat="4.5494100" lon="-74.2405280">
        <ele>2555.3</ele>
        <time>2018-08-11T19:26:46Z</time>
      </trkpt>
      <trkpt lat="4.5494620" lon="-74.2404850">
        <ele>2555.2</ele>
        <time>2018-08-11T19:26:47Z</time>
      </trkpt>
      <trkpt lat="4.5495150" lon="-74.2404400">
        <ele>2555.2</ele>
        <time>2018-08-11T19:26:48Z</time>
      </trkpt>
      <trkpt lat="4.5495680" lon="-74.2403950">
        <ele>2555.1</ele>
        <time>2018-08-11T19:26:49Z</time>
      </trkpt>
      <trkpt lat="4.5496220" lon="-74.2403520">
        <ele>2555.1</ele>
        <time>2018-08-11T19:26:50Z</time>
      </trkpt>
      <trkpt lat="4.5496720" lon="-74.2403070">
        <ele>2555.1</ele>
        <time>2018-08-11T19:26:51Z</time>
      </trkpt>
      <trkpt lat="4.5497230" lon="-74.2402620">
        <ele>2555.2</ele>
        <time>2018-08-11T19:26:52Z</time>
      </trkpt>
      <trkpt lat="4.5497780" lon="-74.2402180">
        <ele>2555.2</ele>
        <time>2018-08-11T19:26:53Z</time>
      </trkpt>
      <trkpt lat="4.5498330" lon="-74.2401730">
        <ele>2555.3</ele>
        <time>2018-08-11T19:26:54Z</time>
      </trkpt>
      <trkpt lat="4.5498850" lon="-74.2401270">
        <ele>2555.3</ele>
        <time>2018-08-11T19:26:55Z</time>
      </trkpt>
      <trkpt lat="4.5499330" lon="-74.2400800">
        <ele>2555.3</ele>
        <time>2018-08-11T19:26:56Z</time>
      </trkpt>
      <trkpt lat="4.5499830" lon="-74.2400350">
        <ele>2555.2</ele>
        <time>2018-08-11T19:26:57Z</time>
      </trkpt>
      <trkpt lat="4.5500350" lon="-74.2399900">
        <ele>2555.1</ele>
        <time>2018-08-11T19:26:58Z</time>
      </trkpt>
      <trkpt lat="4.5500870" lon="-74.2399450">
        <ele>2555.0</ele>
        <time>2018-08-11T19:26:59Z</time>
      </trkpt>
      <trkpt lat="4.5501400" lon="-74.2398980">
        <ele>2554.9</ele>
        <time>2018-08-11T19:27:00Z</time>
      </trkpt>
      <trkpt lat="4.5501950" lon="-74.2398520">
        <ele>2554.9</ele>
        <time>2018-08-11T19:27:01Z</time>
      </trkpt>
      <trkpt lat="4.5502520" lon="-74.2398070">
        <ele>2554.8</ele>
        <time>2018-08-11T19:27:02Z</time>
      </trkpt>
      <trkpt lat="4.5503070" lon="-74.2397600">
        <ele>2554.8</ele>
        <time>2018-08-11T19:27:03Z</time>
      </trkpt>
      <trkpt lat="4.5503630" lon="-74.2397130">
        <ele>2554.7</ele>
        <time>2018-08-11T19:27:04Z</time>
      </trkpt>
      <trkpt lat="4.5504200" lon="-74.2396680">
        <ele>2554.6</ele>
        <time>2018-08-11T19:27:05Z</time>
      </trkpt>
      <trkpt lat="4.5504800" lon="-74.2396220">
        <ele>2554.6</ele>
        <time>2018-08-11T19:27:06Z</time>
      </trkpt>
      <trkpt lat="4.5505400" lon="-74.2395730">
        <ele>2554.5</ele>
        <time>2018-08-11T19:27:07Z</time>
      </trkpt>
      <trkpt lat="4.5505980" lon="-74.2395300">
        <ele>2554.5</ele>
        <time>2018-08-11T19:27:08Z</time>
      </trkpt>
      <trkpt lat="4.5506570" lon="-74.2394800">
        <ele>2554.4</ele>
        <time>2018-08-11T19:27:09Z</time>
      </trkpt>
      <trkpt lat="4.5507130" lon="-74.2394320">
        <ele>2554.4</ele>
        <time>2018-08-11T19:27:10Z</time>
      </trkpt>
      <trkpt lat="4.5507700" lon="-74.2393870">
        <ele>2554.3</ele>
        <time>2018-08-11T19:27:11Z</time>
      </trkpt>
      <trkpt lat="4.5508230" lon="-74.2393420">
        <ele>2554.3</ele>
        <time>2018-08-11T19:27:12Z</time>
      </trkpt>
      <trkpt lat="4.5508800" lon="-74.2392950">
        <ele>2554.2</ele>
        <time>2018-08-11T19:27:13Z</time>
      </trkpt>
      <trkpt lat="4.5509330" lon="-74.2392480">
        <ele>2554.2</ele>
        <time>2018-08-11T19:27:14Z</time>
      </trkpt>
      <trkpt lat="4.5509900" lon="-74.2392030">
        <ele>2554.2</ele>
        <time>2018-08-11T19:27:15Z</time>
      </trkpt>
      <trkpt lat="4.5510450" lon="-74.2391580">
        <ele>2554.2</ele>
        <time>2018-08-11T19:27:16Z</time>
      </trkpt>
      <trkpt lat="4.5511000" lon="-74.2391080">
        <ele>2554.3</ele>
        <time>2018-08-11T19:27:17Z</time>
      </trkpt>
      <trkpt lat="4.5511580" lon="-74.2390600">
        <ele>2554.3</ele>
        <time>2018-08-11T19:27:18Z</time>
      </trkpt>
      <trkpt lat="4.5512170" lon="-74.2390100">
        <ele>2554.3</ele>
        <time>2018-08-11T19:27:19Z</time>
      </trkpt>
      <trkpt lat="4.5512770" lon="-74.2389600">
        <ele>2554.4</ele>
        <time>2018-08-11T19:27:20Z</time>
      </trkpt>
      <trkpt lat="4.5513370" lon="-74.2389100">
        <ele>2554.4</ele>
        <time>2018-08-11T19:27:21Z</time>
      </trkpt>
      <trkpt lat="4.5514000" lon="-74.2388600">
        <ele>2554.4</ele>
        <time>2018-08-11T19:27:22Z</time>
      </trkpt>
      <trkpt lat="4.5514620" lon="-74.2388100">
        <ele>2554.4</ele>
        <time>2018-08-11T19:27:23Z</time>
      </trkpt>
      <trkpt lat="4.5515220" lon="-74.2387600">
        <ele>2554.4</ele>
        <time>2018-08-11T19:27:24Z</time>
      </trkpt>
      <trkpt lat="4.5515830" lon="-74.2387080">
        <ele>2554.4</ele>
        <time>2018-08-11T19:27:25Z</time>
      </trkpt>
      <trkpt lat="4.5516430" lon="-74.2386550">
        <ele>2554.4</ele>
        <time>2018-08-11T19:27:26Z</time>
      </trkpt>
      <trkpt lat="4.5517050" lon="-74.2386030">
        <ele>2554.4</ele>
        <time>2018-08-11T19:27:27Z</time>
      </trkpt>
      <trkpt lat="4.5517670" lon="-74.2385520">
        <ele>2554.4</ele>
        <time>2018-08-11T19:27:28Z</time>
      </trkpt>
      <trkpt lat="4.5518280" lon="-74.2385000">
        <ele>2554.4</ele>
        <time>2018-08-11T19:27:29Z</time>
      </trkpt>
      <trkpt lat="4.5518900" lon="-74.2384480">
        <ele>2554.3</ele>
        <time>2018-08-11T19:27:30Z</time>
      </trkpt>
      <trkpt lat="4.5519500" lon="-74.2383970">
        <ele>2554.1</ele>
        <time>2018-08-11T19:27:31Z</time>
      </trkpt>
      <trkpt lat="4.5520100" lon="-74.2383450">
        <ele>2554.0</ele>
        <time>2018-08-11T19:27:32Z</time>
      </trkpt>
      <trkpt lat="4.5520720" lon="-74.2382930">
        <ele>2553.8</ele>
        <time>2018-08-11T19:27:33Z</time>
      </trkpt>
      <trkpt lat="4.5521350" lon="-74.2382420">
        <ele>2553.8</ele>
        <time>2018-08-11T19:27:34Z</time>
      </trkpt>
      <trkpt lat="4.5521980" lon="-74.2381900">
        <ele>2553.8</ele>
        <time>2018-08-11T19:27:35Z</time>
      </trkpt>
      <trkpt lat="4.5522600" lon="-74.2381380">
        <ele>2553.8</ele>
        <time>2018-08-11T19:27:36Z</time>
      </trkpt>
      <trkpt lat="4.5523230" lon="-74.2380870">
        <ele>2553.9</ele>
        <time>2018-08-11T19:27:37Z</time>
      </trkpt>
      <trkpt lat="4.5523850" lon="-74.2380370">
        <ele>2553.9</ele>
        <time>2018-08-11T19:27:38Z</time>
      </trkpt>
      <trkpt lat="4.5524470" lon="-74.2379830">
        <ele>2554.0</ele>
        <time>2018-08-11T19:27:39Z</time>
      </trkpt>
      <trkpt lat="4.5525100" lon="-74.2379320">
        <ele>2554.0</ele>
        <time>2018-08-11T19:27:40Z</time>
      </trkpt>
      <trkpt lat="4.5525720" lon="-74.2378820">
        <ele>2554.0</ele>
        <time>2018-08-11T19:27:41Z</time>
      </trkpt>
      <trkpt lat="4.5526320" lon="-74.2378300">
        <ele>2554.0</ele>
        <time>2018-08-11T19:27:42Z</time>
      </trkpt>
      <trkpt lat="4.5526920" lon="-74.2377800">
        <ele>2554.0</ele>
        <time>2018-08-11T19:27:43Z</time>
      </trkpt>
      <trkpt lat="4.5527480" lon="-74.2377300">
        <ele>2554.1</ele>
        <time>2018-08-11T19:27:44Z</time>
      </trkpt>
      <trkpt lat="4.5528050" lon="-74.2376830">
        <ele>2554.1</ele>
        <time>2018-08-11T19:27:45Z</time>
      </trkpt>
      <trkpt lat="4.5528600" lon="-74.2376380">
        <ele>2554.1</ele>
        <time>2018-08-11T19:27:46Z</time>
      </trkpt>
      <trkpt lat="4.5529130" lon="-74.2375930">
        <ele>2554.1</ele>
        <time>2018-08-11T19:27:47Z</time>
      </trkpt>
      <trkpt lat="4.5529630" lon="-74.2375480">
        <ele>2554.2</ele>
        <time>2018-08-11T19:27:48Z</time>
      </trkpt>
      <trkpt lat="4.5530130" lon="-74.2375080">
        <ele>2554.3</ele>
        <time>2018-08-11T19:27:49Z</time>
      </trkpt>
      <trkpt lat="4.5530620" lon="-74.2374650">
        <ele>2554.4</ele>
        <time>2018-08-11T19:27:50Z</time>
      </trkpt>
      <trkpt lat="4.5531120" lon="-74.2374200">
        <ele>2554.4</ele>
        <time>2018-08-11T19:27:51Z</time>
      </trkpt>
      <trkpt lat="4.5531630" lon="-74.2373750">
        <ele>2554.5</ele>
        <time>2018-08-11T19:27:52Z</time>
      </trkpt>
      <trkpt lat="4.5532150" lon="-74.2373300">
        <ele>2554.5</ele>
        <time>2018-08-11T19:27:53Z</time>
      </trkpt>
      <trkpt lat="4.5532680" lon="-74.2372850">
        <ele>2554.6</ele>
        <time>2018-08-11T19:27:54Z</time>
      </trkpt>
      <trkpt lat="4.5533220" lon="-74.2372400">
        <ele>2554.7</ele>
        <time>2018-08-11T19:27:55Z</time>
      </trkpt>
      <trkpt lat="4.5533750" lon="-74.2371970">
        <ele>2554.7</ele>
        <time>2018-08-11T19:27:56Z</time>
      </trkpt>
      <trkpt lat="4.5534280" lon="-74.2371520">
        <ele>2554.8</ele>
        <time>2018-08-11T19:27:57Z</time>
      </trkpt>
      <trkpt lat="4.5534830" lon="-74.2371070">
        <ele>2554.9</ele>
        <time>2018-08-11T19:27:58Z</time>
      </trkpt>
      <trkpt lat="4.5535370" lon="-74.2370620">
        <ele>2554.9</ele>
        <time>2018-08-11T19:27:59Z</time>
      </trkpt>
      <trkpt lat="4.5535920" lon="-74.2370150">
        <ele>2555.0</ele>
        <time>2018-08-11T19:28:00Z</time>
      </trkpt>
      <trkpt lat="4.5536470" lon="-74.2369680">
        <ele>2555.0</ele>
        <time>2018-08-11T19:28:01Z</time>
      </trkpt>
      <trkpt lat="4.5536980" lon="-74.2369230">
        <ele>2555.0</ele>
        <time>2018-08-11T19:28:02Z</time>
      </trkpt>
      <trkpt lat="4.5537520" lon="-74.2368770">
        <ele>2555.1</ele>
        <time>2018-08-11T19:28:03Z</time>
      </trkpt>
      <trkpt lat="4.5538050" lon="-74.2368300">
        <ele>2555.1</ele>
        <time>2018-08-11T19:28:04Z</time>
      </trkpt>
      <trkpt lat="4.5538580" lon="-74.2367850">
        <ele>2555.1</ele>
        <time>2018-08-11T19:28:05Z</time>
      </trkpt>
      <trkpt lat="4.5539100" lon="-74.2367400">
        <ele>2555.1</ele>
        <time>2018-08-11T19:28:06Z</time>
      </trkpt>
      <trkpt lat="4.5539620" lon="-74.2366970">
        <ele>2555.1</ele>
        <time>2018-08-11T19:28:07Z</time>
      </trkpt>
      <trkpt lat="4.5540150" lon="-74.2366550">
        <ele>2555.1</ele>
        <time>2018-08-11T19:28:08Z</time>
      </trkpt>
      <trkpt lat="4.5540670" lon="-74.2366100">
        <ele>2555.0</ele>
        <time>2018-08-11T19:28:09Z</time>
      </trkpt>
      <trkpt lat="4.5541200" lon="-74.2365770">
        <ele>2554.9</ele>
        <time>2018-08-11T19:28:10Z</time>
      </trkpt>
      <trkpt lat="4.5541720" lon="-74.2365370">
        <ele>2554.9</ele>
        <time>2018-08-11T19:28:11Z</time>
      </trkpt>
      <trkpt lat="4.5542200" lon="-74.2364970">
        <ele>2554.8</ele>
        <time>2018-08-11T19:28:12Z</time>
      </trkpt>
      <trkpt lat="4.5542700" lon="-74.2364520">
        <ele>2554.8</ele>
        <time>2018-08-11T19:28:13Z</time>
      </trkpt>
      <trkpt lat="4.5543200" lon="-74.2364050">
        <ele>2554.9</ele>
        <time>2018-08-11T19:28:14Z</time>
      </trkpt>
      <trkpt lat="4.5543720" lon="-74.2363630">
        <ele>2555.0</ele>
        <time>2018-08-11T19:28:15Z</time>
      </trkpt>
      <trkpt lat="4.5544230" lon="-74.2363200">
        <ele>2555.1</ele>
        <time>2018-08-11T19:28:16Z</time>
      </trkpt>
      <trkpt lat="4.5544730" lon="-74.2362770">
        <ele>2555.2</ele>
        <time>2018-08-11T19:28:17Z</time>
      </trkpt>
      <trkpt lat="4.5545230" lon="-74.2362330">
        <ele>2555.2</ele>
        <time>2018-08-11T19:28:18Z</time>
      </trkpt>
      <trkpt lat="4.5545780" lon="-74.2361880">
        <ele>2555.2</ele>
        <time>2018-08-11T19:28:19Z</time>
      </trkpt>
      <trkpt lat="4.5546300" lon="-74.2361450">
        <ele>2555.2</ele>
        <time>2018-08-11T19:28:20Z</time>
      </trkpt>
      <trkpt lat="4.5546800" lon="-74.2361020">
        <ele>2555.2</ele>
        <time>2018-08-11T19:28:21Z</time>
      </trkpt>
      <trkpt lat="4.5547320" lon="-74.2360580">
        <ele>2555.2</ele>
        <time>2018-08-11T19:28:22Z</time>
      </trkpt>
      <trkpt lat="4.5547830" lon="-74.2360150">
        <ele>2555.2</ele>
        <time>2018-08-11T19:28:23Z</time>
      </trkpt>
      <trkpt lat="4.5548350" lon="-74.2359700">
        <ele>2555.2</ele>
        <time>2018-08-11T19:28:24Z</time>
      </trkpt>
      <trkpt lat="4.5548920" lon="-74.2359250">
        <ele>2555.1</ele>
        <time>2018-08-11T19:28:25Z</time>
      </trkpt>
      <trkpt lat="4.5549500" lon="-74.2358820">
        <ele>2555.0</ele>
        <time>2018-08-11T19:28:26Z</time>
      </trkpt>
      <trkpt lat="4.5550070" lon="-74.2358380">
        <ele>2555.0</ele>
        <time>2018-08-11T19:28:27Z</time>
      </trkpt>
      <trkpt lat="4.5550620" lon="-74.2357930">
        <ele>2555.0</ele>
        <time>2018-08-11T19:28:28Z</time>
      </trkpt>
      <trkpt lat="4.5551150" lon="-74.2357480">
        <ele>2555.0</ele>
        <time>2018-08-11T19:28:29Z</time>
      </trkpt>
      <trkpt lat="4.5551730" lon="-74.2357020">
        <ele>2555.0</ele>
        <time>2018-08-11T19:28:30Z</time>
      </trkpt>
      <trkpt lat="4.5552300" lon="-74.2356530">
        <ele>2555.0</ele>
        <time>2018-08-11T19:28:31Z</time>
      </trkpt>
      <trkpt lat="4.5552850" lon="-74.2356050">
        <ele>2555.0</ele>
        <time>2018-08-11T19:28:32Z</time>
      </trkpt>
      <trkpt lat="4.5553450" lon="-74.2355550">
        <ele>2555.0</ele>
        <time>2018-08-11T19:28:33Z</time>
      </trkpt>
      <trkpt lat="4.5554020" lon="-74.2355070">
        <ele>2555.0</ele>
        <time>2018-08-11T19:28:34Z</time>
      </trkpt>
      <trkpt lat="4.5554570" lon="-74.2354600">
        <ele>2554.9</ele>
        <time>2018-08-11T19:28:35Z</time>
      </trkpt>
      <trkpt lat="4.5555130" lon="-74.2354120">
        <ele>2554.9</ele>
        <time>2018-08-11T19:28:36Z</time>
      </trkpt>
      <trkpt lat="4.5555680" lon="-74.2353650">
        <ele>2554.9</ele>
        <time>2018-08-11T19:28:37Z</time>
      </trkpt>
      <trkpt lat="4.5556270" lon="-74.2353170">
        <ele>2554.9</ele>
        <time>2018-08-11T19:28:38Z</time>
      </trkpt>
      <trkpt lat="4.5556870" lon="-74.2352650">
        <ele>2554.9</ele>
        <time>2018-08-11T19:28:39Z</time>
      </trkpt>
      <trkpt lat="4.5557450" lon="-74.2352150">
        <ele>2554.9</ele>
        <time>2018-08-11T19:28:40Z</time>
      </trkpt>
      <trkpt lat="4.5558000" lon="-74.2351730">
        <ele>2554.9</ele>
        <time>2018-08-11T19:28:41Z</time>
      </trkpt>
      <trkpt lat="4.5558520" lon="-74.2351280">
        <ele>2554.9</ele>
        <time>2018-08-11T19:28:42Z</time>
      </trkpt>
      <trkpt lat="4.5559050" lon="-74.2350850">
        <ele>2554.9</ele>
        <time>2018-08-11T19:28:43Z</time>
      </trkpt>
      <trkpt lat="4.5559580" lon="-74.2350420">
        <ele>2554.8</ele>
        <time>2018-08-11T19:28:44Z</time>
      </trkpt>
      <trkpt lat="4.5560120" lon="-74.2349980">
        <ele>2554.8</ele>
        <time>2018-08-11T19:28:45Z</time>
      </trkpt>
      <trkpt lat="4.5560620" lon="-74.2349530">
        <ele>2554.8</ele>
        <time>2018-08-11T19:28:46Z</time>
      </trkpt>
      <trkpt lat="4.5561130" lon="-74.2349070">
        <ele>2554.8</ele>
        <time>2018-08-11T19:28:47Z</time>
      </trkpt>
      <trkpt lat="4.5561670" lon="-74.2348620">
        <ele>2554.8</ele>
        <time>2018-08-11T19:28:48Z</time>
      </trkpt>
      <trkpt lat="4.5562220" lon="-74.2348180">
        <ele>2554.8</ele>
        <time>2018-08-11T19:28:49Z</time>
      </trkpt>
      <trkpt lat="4.5562780" lon="-74.2347720">
        <ele>2554.7</ele>
        <time>2018-08-11T19:28:50Z</time>
      </trkpt>
      <trkpt lat="4.5563320" lon="-74.2347230">
        <ele>2554.7</ele>
        <time>2018-08-11T19:28:51Z</time>
      </trkpt>
      <trkpt lat="4.5563850" lon="-74.2346770">
        <ele>2554.7</ele>
        <time>2018-08-11T19:28:52Z</time>
      </trkpt>
      <trkpt lat="4.5564420" lon="-74.2346320">
        <ele>2554.7</ele>
        <time>2018-08-11T19:28:53Z</time>
      </trkpt>
      <trkpt lat="4.5564970" lon="-74.2345870">
        <ele>2554.6</ele>
        <time>2018-08-11T19:28:54Z</time>
      </trkpt>
      <trkpt lat="4.5565520" lon="-74.2345420">
        <ele>2554.5</ele>
        <time>2018-08-11T19:28:55Z</time>
      </trkpt>
      <trkpt lat="4.5566070" lon="-74.2344970">
        <ele>2554.4</ele>
        <time>2018-08-11T19:28:56Z</time>
      </trkpt>
      <trkpt lat="4.5566630" lon="-74.2344480">
        <ele>2554.3</ele>
        <time>2018-08-11T19:28:57Z</time>
      </trkpt>
      <trkpt lat="4.5567180" lon="-74.2344020">
        <ele>2554.1</ele>
        <time>2018-08-11T19:28:58Z</time>
      </trkpt>
      <trkpt lat="4.5567770" lon="-74.2343550">
        <ele>2554.0</ele>
        <time>2018-08-11T19:28:59Z</time>
      </trkpt>
      <trkpt lat="4.5568350" lon="-74.2343080">
        <ele>2553.8</ele>
        <time>2018-08-11T19:29:00Z</time>
      </trkpt>
      <trkpt lat="4.5568900" lon="-74.2342650">
        <ele>2553.6</ele>
        <time>2018-08-11T19:29:01Z</time>
      </trkpt>
      <trkpt lat="4.5569420" lon="-74.2342200">
        <ele>2553.5</ele>
        <time>2018-08-11T19:29:02Z</time>
      </trkpt>
      <trkpt lat="4.5569930" lon="-74.2341750">
        <ele>2553.3</ele>
        <time>2018-08-11T19:29:03Z</time>
      </trkpt>
      <trkpt lat="4.5570470" lon="-74.2341300">
        <ele>2553.2</ele>
        <time>2018-08-11T19:29:04Z</time>
      </trkpt>
      <trkpt lat="4.5571000" lon="-74.2340830">
        <ele>2553.1</ele>
        <time>2018-08-11T19:29:05Z</time>
      </trkpt>
      <trkpt lat="4.5571550" lon="-74.2340380">
        <ele>2553.0</ele>
        <time>2018-08-11T19:29:06Z</time>
      </trkpt>
      <trkpt lat="4.5572070" lon="-74.2339930">
        <ele>2553.0</ele>
        <time>2018-08-11T19:29:07Z</time>
      </trkpt>
      <trkpt lat="4.5572600" lon="-74.2339480">
        <ele>2552.9</ele>
        <time>2018-08-11T19:29:08Z</time>
      </trkpt>
      <trkpt lat="4.5573150" lon="-74.2339000">
        <ele>2552.8</ele>
        <time>2018-08-11T19:29:09Z</time>
      </trkpt>
      <trkpt lat="4.5573650" lon="-74.2338530">
        <ele>2552.8</ele>
        <time>2018-08-11T19:29:10Z</time>
      </trkpt>
      <trkpt lat="4.5574200" lon="-74.2338080">
        <ele>2552.7</ele>
        <time>2018-08-11T19:29:11Z</time>
      </trkpt>
      <trkpt lat="4.5574750" lon="-74.2337670">
        <ele>2552.6</ele>
        <time>2018-08-11T19:29:12Z</time>
      </trkpt>
      <trkpt lat="4.5575330" lon="-74.2337200">
        <ele>2552.6</ele>
        <time>2018-08-11T19:29:13Z</time>
      </trkpt>
      <trkpt lat="4.5575900" lon="-74.2336750">
        <ele>2552.5</ele>
        <time>2018-08-11T19:29:14Z</time>
      </trkpt>
      <trkpt lat="4.5576450" lon="-74.2336300">
        <ele>2552.5</ele>
        <time>2018-08-11T19:29:15Z</time>
      </trkpt>
      <trkpt lat="4.5577000" lon="-74.2335830">
        <ele>2552.4</ele>
        <time>2018-08-11T19:29:16Z</time>
      </trkpt>
      <trkpt lat="4.5577550" lon="-74.2335380">
        <ele>2552.4</ele>
        <time>2018-08-11T19:29:17Z</time>
      </trkpt>
      <trkpt lat="4.5578120" lon="-74.2334900">
        <ele>2552.4</ele>
        <time>2018-08-11T19:29:18Z</time>
      </trkpt>
      <trkpt lat="4.5578680" lon="-74.2334420">
        <ele>2552.4</ele>
        <time>2018-08-11T19:29:19Z</time>
      </trkpt>
      <trkpt lat="4.5579250" lon="-74.2333930">
        <ele>2552.4</ele>
        <time>2018-08-11T19:29:20Z</time>
      </trkpt>
      <trkpt lat="4.5579780" lon="-74.2333470">
        <ele>2552.3</ele>
        <time>2018-08-11T19:29:21Z</time>
      </trkpt>
      <trkpt lat="4.5580370" lon="-74.2332980">
        <ele>2552.3</ele>
        <time>2018-08-11T19:29:22Z</time>
      </trkpt>
      <trkpt lat="4.5580930" lon="-74.2332500">
        <ele>2552.3</ele>
        <time>2018-08-11T19:29:23Z</time>
      </trkpt>
      <trkpt lat="4.5581500" lon="-74.2332030">
        <ele>2552.3</ele>
        <time>2018-08-11T19:29:24Z</time>
      </trkpt>
      <trkpt lat="4.5582080" lon="-74.2331550">
        <ele>2552.3</ele>
        <time>2018-08-11T19:29:25Z</time>
      </trkpt>
      <trkpt lat="4.5582670" lon="-74.2331070">
        <ele>2552.3</ele>
        <time>2018-08-11T19:29:26Z</time>
      </trkpt>
      <trkpt lat="4.5583270" lon="-74.2330570">
        <ele>2552.3</ele>
        <time>2018-08-11T19:29:27Z</time>
      </trkpt>
      <trkpt lat="4.5583870" lon="-74.2330070">
        <ele>2552.3</ele>
        <time>2018-08-11T19:29:28Z</time>
      </trkpt>
      <trkpt lat="4.5584500" lon="-74.2329530">
        <ele>2552.3</ele>
        <time>2018-08-11T19:29:29Z</time>
      </trkpt>
      <trkpt lat="4.5585120" lon="-74.2329000">
        <ele>2552.2</ele>
        <time>2018-08-11T19:29:30Z</time>
      </trkpt>
      <trkpt lat="4.5585750" lon="-74.2328480">
        <ele>2552.2</ele>
        <time>2018-08-11T19:29:31Z</time>
      </trkpt>
      <trkpt lat="4.5586370" lon="-74.2327950">
        <ele>2552.2</ele>
        <time>2018-08-11T19:29:32Z</time>
      </trkpt>
      <trkpt lat="4.5586970" lon="-74.2327450">
        <ele>2552.2</ele>
        <time>2018-08-11T19:29:33Z</time>
      </trkpt>
      <trkpt lat="4.5587550" lon="-74.2326950">
        <ele>2552.2</ele>
        <time>2018-08-11T19:29:34Z</time>
      </trkpt>
      <trkpt lat="4.5588130" lon="-74.2326470">
        <ele>2552.2</ele>
        <time>2018-08-11T19:29:35Z</time>
      </trkpt>
      <trkpt lat="4.5588730" lon="-74.2325970">
        <ele>2552.2</ele>
        <time>2018-08-11T19:29:36Z</time>
      </trkpt>
      <trkpt lat="4.5589280" lon="-74.2325470">
        <ele>2552.2</ele>
        <time>2018-08-11T19:29:37Z</time>
      </trkpt>
      <trkpt lat="4.5589870" lon="-74.2324970">
        <ele>2552.2</ele>
        <time>2018-08-11T19:29:38Z</time>
      </trkpt>
      <trkpt lat="4.5590430" lon="-74.2324500">
        <ele>2552.2</ele>
        <time>2018-08-11T19:29:39Z</time>
      </trkpt>
      <trkpt lat="4.5591000" lon="-74.2324020">
        <ele>2552.2</ele>
        <time>2018-08-11T19:29:40Z</time>
      </trkpt>
      <trkpt lat="4.5591570" lon="-74.2323530">
        <ele>2552.2</ele>
        <time>2018-08-11T19:29:41Z</time>
      </trkpt>
      <trkpt lat="4.5592130" lon="-74.2323050">
        <ele>2552.2</ele>
        <time>2018-08-11T19:29:42Z</time>
      </trkpt>
      <trkpt lat="4.5592680" lon="-74.2322600">
        <ele>2552.2</ele>
        <time>2018-08-11T19:29:43Z</time>
      </trkpt>
      <trkpt lat="4.5593230" lon="-74.2322100">
        <ele>2552.2</ele>
        <time>2018-08-11T19:29:44Z</time>
      </trkpt>
      <trkpt lat="4.5593770" lon="-74.2321630">
        <ele>2552.2</ele>
        <time>2018-08-11T19:29:45Z</time>
      </trkpt>
      <trkpt lat="4.5594330" lon="-74.2321150">
        <ele>2552.1</ele>
        <time>2018-08-11T19:29:46Z</time>
      </trkpt>
      <trkpt lat="4.5594930" lon="-74.2320680">
        <ele>2552.1</ele>
        <time>2018-08-11T19:29:47Z</time>
      </trkpt>
      <trkpt lat="4.5595500" lon="-74.2320200">
        <ele>2552.1</ele>
        <time>2018-08-11T19:29:48Z</time>
      </trkpt>
      <trkpt lat="4.5596070" lon="-74.2319720">
        <ele>2552.1</ele>
        <time>2018-08-11T19:29:49Z</time>
      </trkpt>
      <trkpt lat="4.5596630" lon="-74.2319230">
        <ele>2552.1</ele>
        <time>2018-08-11T19:29:50Z</time>
      </trkpt>
      <trkpt lat="4.5597180" lon="-74.2318780">
        <ele>2552.1</ele>
        <time>2018-08-11T19:29:51Z</time>
      </trkpt>
      <trkpt lat="4.5597730" lon="-74.2318330">
        <ele>2552.1</ele>
        <time>2018-08-11T19:29:52Z</time>
      </trkpt>
      <trkpt lat="4.5598250" lon="-74.2317880">
        <ele>2552.1</ele>
        <time>2018-08-11T19:29:53Z</time>
      </trkpt>
      <trkpt lat="4.5598770" lon="-74.2317430">
        <ele>2552.1</ele>
        <time>2018-08-11T19:29:54Z</time>
      </trkpt>
      <trkpt lat="4.5599270" lon="-74.2317030">
        <ele>2552.1</ele>
        <time>2018-08-11T19:29:55Z</time>
      </trkpt>
      <trkpt lat="4.5599720" lon="-74.2316630">
        <ele>2552.1</ele>
        <time>2018-08-11T19:29:56Z</time>
      </trkpt>
      <trkpt lat="4.5600150" lon="-74.2316280">
        <ele>2552.1</ele>
        <time>2018-08-11T19:29:57Z</time>
      </trkpt>
      <trkpt lat="4.5600570" lon="-74.2315950">
        <ele>2552.1</ele>
        <time>2018-08-11T19:29:58Z</time>
      </trkpt>
      <trkpt lat="4.5600950" lon="-74.2315650">
        <ele>2552.0</ele>
        <time>2018-08-11T19:29:59Z</time>
      </trkpt>
      <trkpt lat="4.5601300" lon="-74.2315350">
        <ele>2552.0</ele>
        <time>2018-08-11T19:30:00Z</time>
      </trkpt>
      <trkpt lat="4.5601580" lon="-74.2315120">
        <ele>2552.0</ele>
        <time>2018-08-11T19:30:01Z</time>
      </trkpt>
      <trkpt lat="4.5601820" lon="-74.2314920">
        <ele>2552.0</ele>
        <time>2018-08-11T19:30:02Z</time>
      </trkpt>
      <trkpt lat="4.5602230" lon="-74.2314580">
        <ele>2552.0</ele>
        <time>2018-08-11T19:30:04Z</time>
      </trkpt>
      <trkpt lat="4.5602470" lon="-74.2314400">
        <ele>2552.0</ele>
        <time>2018-08-11T19:30:05Z</time>
      </trkpt>
      <trkpt lat="4.5602750" lon="-74.2314180">
        <ele>2552.0</ele>
        <time>2018-08-11T19:30:06Z</time>
      </trkpt>
      <trkpt lat="4.5603030" lon="-74.2313980">
        <ele>2552.0</ele>
        <time>2018-08-11T19:30:07Z</time>
      </trkpt>
      <trkpt lat="4.5603300" lon="-74.2313780">
        <ele>2552.0</ele>
        <time>2018-08-11T19:30:08Z</time>
      </trkpt>
      <trkpt lat="4.5603600" lon="-74.2313550">
        <ele>2552.0</ele>
        <time>2018-08-11T19:30:09Z</time>
      </trkpt>
      <trkpt lat="4.5603930" lon="-74.2313330">
        <ele>2552.0</ele>
        <time>2018-08-11T19:30:10Z</time>
      </trkpt>
      <trkpt lat="4.5604320" lon="-74.2313170">
        <ele>2552.0</ele>
        <time>2018-08-11T19:30:11Z</time>
      </trkpt>
      <trkpt lat="4.5604600" lon="-74.2313000">
        <ele>2552.0</ele>
        <time>2018-08-11T19:30:12Z</time>
      </trkpt>
      <trkpt lat="4.5604820" lon="-74.2312820">
        <ele>2552.0</ele>
        <time>2018-08-11T19:30:13Z</time>
      </trkpt>
      <trkpt lat="4.5605120" lon="-74.2312680">
        <ele>2552.0</ele>
        <time>2018-08-11T19:30:14Z</time>
      </trkpt>
      <trkpt lat="4.5605330" lon="-74.2312450">
        <ele>2552.0</ele>
        <time>2018-08-11T19:30:15Z</time>
      </trkpt>
      <trkpt lat="4.5605550" lon="-74.2312220">
        <ele>2552.0</ele>
        <time>2018-08-11T19:30:16Z</time>
      </trkpt>
      <trkpt lat="4.5605820" lon="-74.2312000">
        <ele>2552.0</ele>
        <time>2018-08-11T19:30:17Z</time>
      </trkpt>
      <trkpt lat="4.5606150" lon="-74.2311700">
        <ele>2552.0</ele>
        <time>2018-08-11T19:30:18Z</time>
      </trkpt>
      <trkpt lat="4.5606500" lon="-74.2311380">
        <ele>2552.0</ele>
        <time>2018-08-11T19:30:19Z</time>
      </trkpt>
      <trkpt lat="4.5606870" lon="-74.2311000">
        <ele>2552.0</ele>
        <time>2018-08-11T19:30:20Z</time>
      </trkpt>
      <trkpt lat="4.5607200" lon="-74.2310600">
        <ele>2552.1</ele>
        <time>2018-08-11T19:30:21Z</time>
      </trkpt>
      <trkpt lat="4.5607600" lon="-74.2310220">
        <ele>2552.1</ele>
        <time>2018-08-11T19:30:22Z</time>
      </trkpt>
      <trkpt lat="4.5608030" lon="-74.2309830">
        <ele>2552.1</ele>
        <time>2018-08-11T19:30:23Z</time>
      </trkpt>
      <trkpt lat="4.5608480" lon="-74.2309470">
        <ele>2552.1</ele>
        <time>2018-08-11T19:30:24Z</time>
      </trkpt>
      <trkpt lat="4.5608950" lon="-74.2309050">
        <ele>2552.1</ele>
        <time>2018-08-11T19:30:25Z</time>
      </trkpt>
      <trkpt lat="4.5609430" lon="-74.2308620">
        <ele>2552.1</ele>
        <time>2018-08-11T19:30:26Z</time>
      </trkpt>
      <trkpt lat="4.5609900" lon="-74.2308180">
        <ele>2552.1</ele>
        <time>2018-08-11T19:30:27Z</time>
      </trkpt>
      <trkpt lat="4.5610380" lon="-74.2307770">
        <ele>2552.1</ele>
        <time>2018-08-11T19:30:28Z</time>
      </trkpt>
      <trkpt lat="4.5610870" lon="-74.2307350">
        <ele>2552.2</ele>
        <time>2018-08-11T19:30:29Z</time>
      </trkpt>
      <trkpt lat="4.5611330" lon="-74.2306950">
        <ele>2552.2</ele>
        <time>2018-08-11T19:30:30Z</time>
      </trkpt>
      <trkpt lat="4.5611820" lon="-74.2306550">
        <ele>2552.2</ele>
        <time>2018-08-11T19:30:31Z</time>
      </trkpt>
      <trkpt lat="4.5612300" lon="-74.2306150">
        <ele>2552.2</ele>
        <time>2018-08-11T19:30:32Z</time>
      </trkpt>
      <trkpt lat="4.5612780" lon="-74.2305750">
        <ele>2552.2</ele>
        <time>2018-08-11T19:30:33Z</time>
      </trkpt>
      <trkpt lat="4.5613230" lon="-74.2305370">
        <ele>2552.2</ele>
        <time>2018-08-11T19:30:34Z</time>
      </trkpt>
      <trkpt lat="4.5613680" lon="-74.2305000">
        <ele>2552.2</ele>
        <time>2018-08-11T19:30:35Z</time>
      </trkpt>
      <trkpt lat="4.5614120" lon="-74.2304630">
        <ele>2552.2</ele>
        <time>2018-08-11T19:30:36Z</time>
      </trkpt>
      <trkpt lat="4.5614550" lon="-74.2304270">
        <ele>2552.2</ele>
        <time>2018-08-11T19:30:37Z</time>
      </trkpt>
      <trkpt lat="4.5614980" lon="-74.2303900">
        <ele>2552.2</ele>
        <time>2018-08-11T19:30:38Z</time>
      </trkpt>
      <trkpt lat="4.5615450" lon="-74.2303520">
        <ele>2552.2</ele>
        <time>2018-08-11T19:30:39Z</time>
      </trkpt>
      <trkpt lat="4.5615880" lon="-74.2303150">
        <ele>2552.3</ele>
        <time>2018-08-11T19:30:40Z</time>
      </trkpt>
      <trkpt lat="4.5616320" lon="-74.2302770">
        <ele>2552.3</ele>
        <time>2018-08-11T19:30:41Z</time>
      </trkpt>
      <trkpt lat="4.5616750" lon="-74.2302370">
        <ele>2552.3</ele>
        <time>2018-08-11T19:30:42Z</time>
      </trkpt>
      <trkpt lat="4.5617220" lon="-74.2301970">
        <ele>2552.3</ele>
        <time>2018-08-11T19:30:43Z</time>
      </trkpt>
      <trkpt lat="4.5617700" lon="-74.2301580">
        <ele>2552.3</ele>
        <time>2018-08-11T19:30:44Z</time>
      </trkpt>
      <trkpt lat="4.5618180" lon="-74.2301200">
        <ele>2552.3</ele>
        <time>2018-08-11T19:30:45Z</time>
      </trkpt>
      <trkpt lat="4.5618650" lon="-74.2300830">
        <ele>2552.3</ele>
        <time>2018-08-11T19:30:46Z</time>
      </trkpt>
      <trkpt lat="4.5619130" lon="-74.2300470">
        <ele>2552.3</ele>
        <time>2018-08-11T19:30:47Z</time>
      </trkpt>
      <trkpt lat="4.5619620" lon="-74.2300080">
        <ele>2552.3</ele>
        <time>2018-08-11T19:30:48Z</time>
      </trkpt>
      <trkpt lat="4.5620100" lon="-74.2299700">
        <ele>2552.3</ele>
        <time>2018-08-11T19:30:49Z</time>
      </trkpt>
      <trkpt lat="4.5620530" lon="-74.2299320">
        <ele>2552.3</ele>
        <time>2018-08-11T19:30:50Z</time>
      </trkpt>
      <trkpt lat="4.5621020" lon="-74.2298930">
        <ele>2552.4</ele>
        <time>2018-08-11T19:30:51Z</time>
      </trkpt>
      <trkpt lat="4.5621470" lon="-74.2298550">
        <ele>2552.4</ele>
        <time>2018-08-11T19:30:52Z</time>
      </trkpt>
      <trkpt lat="4.5621900" lon="-74.2298170">
        <ele>2552.4</ele>
        <time>2018-08-11T19:30:53Z</time>
      </trkpt>
      <trkpt lat="4.5622330" lon="-74.2297800">
        <ele>2552.4</ele>
        <time>2018-08-11T19:30:54Z</time>
      </trkpt>
      <trkpt lat="4.5622770" lon="-74.2297430">
        <ele>2552.4</ele>
        <time>2018-08-11T19:30:55Z</time>
      </trkpt>
      <trkpt lat="4.5623200" lon="-74.2297070">
        <ele>2552.4</ele>
        <time>2018-08-11T19:30:56Z</time>
      </trkpt>
      <trkpt lat="4.5623620" lon="-74.2296730">
        <ele>2552.4</ele>
        <time>2018-08-11T19:30:57Z</time>
      </trkpt>
      <trkpt lat="4.5624050" lon="-74.2296380">
        <ele>2552.4</ele>
        <time>2018-08-11T19:30:58Z</time>
      </trkpt>
      <trkpt lat="4.5624480" lon="-74.2296030">
        <ele>2552.4</ele>
        <time>2018-08-11T19:30:59Z</time>
      </trkpt>
      <trkpt lat="4.5624930" lon="-74.2295670">
        <ele>2552.4</ele>
        <time>2018-08-11T19:31:00Z</time>
      </trkpt>
      <trkpt lat="4.5625350" lon="-74.2295320">
        <ele>2552.4</ele>
        <time>2018-08-11T19:31:01Z</time>
      </trkpt>
      <trkpt lat="4.5625770" lon="-74.2294950">
        <ele>2552.5</ele>
        <time>2018-08-11T19:31:02Z</time>
      </trkpt>
      <trkpt lat="4.5626150" lon="-74.2294600">
        <ele>2552.5</ele>
        <time>2018-08-11T19:31:03Z</time>
      </trkpt>
      <trkpt lat="4.5626550" lon="-74.2294250">
        <ele>2552.5</ele>
        <time>2018-08-11T19:31:04Z</time>
      </trkpt>
      <trkpt lat="4.5626970" lon="-74.2293880">
        <ele>2552.5</ele>
        <time>2018-08-11T19:31:05Z</time>
      </trkpt>
      <trkpt lat="4.5627380" lon="-74.2293520">
        <ele>2552.5</ele>
        <time>2018-08-11T19:31:06Z</time>
      </trkpt>
      <trkpt lat="4.5627820" lon="-74.2293170">
        <ele>2552.6</ele>
        <time>2018-08-11T19:31:07Z</time>
      </trkpt>
      <trkpt lat="4.5628220" lon="-74.2292800">
        <ele>2552.6</ele>
        <time>2018-08-11T19:31:08Z</time>
      </trkpt>
      <trkpt lat="4.5628630" lon="-74.2292470">
        <ele>2552.6</ele>
        <time>2018-08-11T19:31:09Z</time>
      </trkpt>
      <trkpt lat="4.5629050" lon="-74.2292120">
        <ele>2552.6</ele>
        <time>2018-08-11T19:31:10Z</time>
      </trkpt>
      <trkpt lat="4.5629480" lon="-74.2291770">
        <ele>2552.6</ele>
        <time>2018-08-11T19:31:11Z</time>
      </trkpt>
      <trkpt lat="4.5629930" lon="-74.2291430">
        <ele>2552.6</ele>
        <time>2018-08-11T19:31:12Z</time>
      </trkpt>
      <trkpt lat="4.5630370" lon="-74.2291080">
        <ele>2552.6</ele>
        <time>2018-08-11T19:31:13Z</time>
      </trkpt>
      <trkpt lat="4.5630800" lon="-74.2290750">
        <ele>2552.6</ele>
        <time>2018-08-11T19:31:14Z</time>
      </trkpt>
      <trkpt lat="4.5631220" lon="-74.2290450">
        <ele>2552.6</ele>
        <time>2018-08-11T19:31:15Z</time>
      </trkpt>
      <trkpt lat="4.5631620" lon="-74.2290270">
        <ele>2552.6</ele>
        <time>2018-08-11T19:31:16Z</time>
      </trkpt>
      <trkpt lat="4.5632080" lon="-74.2290030">
        <ele>2552.6</ele>
        <time>2018-08-11T19:31:17Z</time>
      </trkpt>
      <trkpt lat="4.5632480" lon="-74.2289800">
        <ele>2552.6</ele>
        <time>2018-08-11T19:31:18Z</time>
      </trkpt>
      <trkpt lat="4.5632920" lon="-74.2289600">
        <ele>2552.7</ele>
        <time>2018-08-11T19:31:19Z</time>
      </trkpt>
      <trkpt lat="4.5633420" lon="-74.2289350">
        <ele>2552.7</ele>
        <time>2018-08-11T19:31:20Z</time>
      </trkpt>
      <trkpt lat="4.5633920" lon="-74.2289100">
        <ele>2552.7</ele>
        <time>2018-08-11T19:31:21Z</time>
      </trkpt>
      <trkpt lat="4.5634400" lon="-74.2288820">
        <ele>2552.7</ele>
        <time>2018-08-11T19:31:22Z</time>
      </trkpt>
      <trkpt lat="4.5634880" lon="-74.2288480">
        <ele>2552.7</ele>
        <time>2018-08-11T19:31:23Z</time>
      </trkpt>
      <trkpt lat="4.5635370" lon="-74.2288150">
        <ele>2552.7</ele>
        <time>2018-08-11T19:31:24Z</time>
      </trkpt>
      <trkpt lat="4.5635850" lon="-74.2287770">
        <ele>2552.7</ele>
        <time>2018-08-11T19:31:25Z</time>
      </trkpt>
      <trkpt lat="4.5636420" lon="-74.2287380">
        <ele>2552.7</ele>
        <time>2018-08-11T19:31:26Z</time>
      </trkpt>
      <trkpt lat="4.5636970" lon="-74.2287030">
        <ele>2552.7</ele>
        <time>2018-08-11T19:31:27Z</time>
      </trkpt>
      <trkpt lat="4.5637520" lon="-74.2286700">
        <ele>2552.7</ele>
        <time>2018-08-11T19:31:28Z</time>
      </trkpt>
      <trkpt lat="4.5638050" lon="-74.2286420">
        <ele>2552.8</ele>
        <time>2018-08-11T19:31:29Z</time>
      </trkpt>
      <trkpt lat="4.5638580" lon="-74.2286130">
        <ele>2552.8</ele>
        <time>2018-08-11T19:31:30Z</time>
      </trkpt>
      <trkpt lat="4.5639130" lon="-74.2285850">
        <ele>2552.8</ele>
        <time>2018-08-11T19:31:31Z</time>
      </trkpt>
      <trkpt lat="4.5639700" lon="-74.2285580">
        <ele>2552.8</ele>
        <time>2018-08-11T19:31:32Z</time>
      </trkpt>
      <trkpt lat="4.5640280" lon="-74.2285330">
        <ele>2552.8</ele>
        <time>2018-08-11T19:31:33Z</time>
      </trkpt>
      <trkpt lat="4.5640850" lon="-74.2285080">
        <ele>2552.8</ele>
        <time>2018-08-11T19:31:34Z</time>
      </trkpt>
      <trkpt lat="4.5641430" lon="-74.2284850">
        <ele>2552.8</ele>
        <time>2018-08-11T19:31:35Z</time>
      </trkpt>
      <trkpt lat="4.5642020" lon="-74.2284600">
        <ele>2552.8</ele>
        <time>2018-08-11T19:31:36Z</time>
      </trkpt>
      <trkpt lat="4.5642600" lon="-74.2284380">
        <ele>2552.8</ele>
        <time>2018-08-11T19:31:37Z</time>
      </trkpt>
      <trkpt lat="4.5643220" lon="-74.2284130">
        <ele>2552.8</ele>
        <time>2018-08-11T19:31:38Z</time>
      </trkpt>
      <trkpt lat="4.5643870" lon="-74.2283900">
        <ele>2552.9</ele>
        <time>2018-08-11T19:31:39Z</time>
      </trkpt>
      <trkpt lat="4.5644500" lon="-74.2283680">
        <ele>2552.9</ele>
        <time>2018-08-11T19:31:40Z</time>
      </trkpt>
      <trkpt lat="4.5645120" lon="-74.2283500">
        <ele>2552.9</ele>
        <time>2018-08-11T19:31:41Z</time>
      </trkpt>
      <trkpt lat="4.5645730" lon="-74.2283320">
        <ele>2552.9</ele>
        <time>2018-08-11T19:31:42Z</time>
      </trkpt>
      <trkpt lat="4.5646330" lon="-74.2283120">
        <ele>2552.9</ele>
        <time>2018-08-11T19:31:43Z</time>
      </trkpt>
      <trkpt lat="4.5646930" lon="-74.2282920">
        <ele>2552.9</ele>
        <time>2018-08-11T19:31:44Z</time>
      </trkpt>
      <trkpt lat="4.5647550" lon="-74.2282730">
        <ele>2552.9</ele>
        <time>2018-08-11T19:31:45Z</time>
      </trkpt>
      <trkpt lat="4.5648170" lon="-74.2282550">
        <ele>2552.9</ele>
        <time>2018-08-11T19:31:46Z</time>
      </trkpt>
      <trkpt lat="4.5648820" lon="-74.2282350">
        <ele>2553.0</ele>
        <time>2018-08-11T19:31:47Z</time>
      </trkpt>
      <trkpt lat="4.5649450" lon="-74.2282150">
        <ele>2553.0</ele>
        <time>2018-08-11T19:31:48Z</time>
      </trkpt>
      <trkpt lat="4.5650100" lon="-74.2281950">
        <ele>2553.0</ele>
        <time>2018-08-11T19:31:49Z</time>
      </trkpt>
      <trkpt lat="4.5650720" lon="-74.2281770">
        <ele>2553.0</ele>
        <time>2018-08-11T19:31:50Z</time>
      </trkpt>
      <trkpt lat="4.5651300" lon="-74.2281550">
        <ele>2553.0</ele>
        <time>2018-08-11T19:31:51Z</time>
      </trkpt>
      <trkpt lat="4.5651870" lon="-74.2281350">
        <ele>2553.0</ele>
        <time>2018-08-11T19:31:52Z</time>
      </trkpt>
      <trkpt lat="4.5652400" lon="-74.2281150">
        <ele>2553.1</ele>
        <time>2018-08-11T19:31:53Z</time>
      </trkpt>
      <trkpt lat="4.5652980" lon="-74.2280950">
        <ele>2553.1</ele>
        <time>2018-08-11T19:31:54Z</time>
      </trkpt>
      <trkpt lat="4.5653580" lon="-74.2280770">
        <ele>2553.1</ele>
        <time>2018-08-11T19:31:55Z</time>
      </trkpt>
      <trkpt lat="4.5654180" lon="-74.2280620">
        <ele>2553.1</ele>
        <time>2018-08-11T19:31:56Z</time>
      </trkpt>
      <trkpt lat="4.5654770" lon="-74.2280470">
        <ele>2553.2</ele>
        <time>2018-08-11T19:31:57Z</time>
      </trkpt>
      <trkpt lat="4.5655350" lon="-74.2280300">
        <ele>2553.2</ele>
        <time>2018-08-11T19:31:58Z</time>
      </trkpt>
      <trkpt lat="4.5655970" lon="-74.2280120">
        <ele>2553.2</ele>
        <time>2018-08-11T19:31:59Z</time>
      </trkpt>
      <trkpt lat="4.5656580" lon="-74.2279920">
        <ele>2553.2</ele>
        <time>2018-08-11T19:32:00Z</time>
      </trkpt>
      <trkpt lat="4.5657220" lon="-74.2279770">
        <ele>2553.2</ele>
        <time>2018-08-11T19:32:01Z</time>
      </trkpt>
      <trkpt lat="4.5657830" lon="-74.2279600">
        <ele>2553.3</ele>
        <time>2018-08-11T19:32:02Z</time>
      </trkpt>
      <trkpt lat="4.5658430" lon="-74.2279430">
        <ele>2553.3</ele>
        <time>2018-08-11T19:32:03Z</time>
      </trkpt>
      <trkpt lat="4.5659050" lon="-74.2279280">
        <ele>2553.4</ele>
        <time>2018-08-11T19:32:04Z</time>
      </trkpt>
      <trkpt lat="4.5659650" lon="-74.2279150">
        <ele>2553.4</ele>
        <time>2018-08-11T19:32:05Z</time>
      </trkpt>
      <trkpt lat="4.5660270" lon="-74.2278970">
        <ele>2553.5</ele>
        <time>2018-08-11T19:32:06Z</time>
      </trkpt>
      <trkpt lat="4.5660870" lon="-74.2278800">
        <ele>2553.5</ele>
        <time>2018-08-11T19:32:07Z</time>
      </trkpt>
      <trkpt lat="4.5661480" lon="-74.2278680">
        <ele>2553.5</ele>
        <time>2018-08-11T19:32:08Z</time>
      </trkpt>
      <trkpt lat="4.5662070" lon="-74.2278520">
        <ele>2553.6</ele>
        <time>2018-08-11T19:32:09Z</time>
      </trkpt>
      <trkpt lat="4.5662630" lon="-74.2278300">
        <ele>2553.7</ele>
        <time>2018-08-11T19:32:10Z</time>
      </trkpt>
      <trkpt lat="4.5663200" lon="-74.2278080">
        <ele>2553.9</ele>
        <time>2018-08-11T19:32:11Z</time>
      </trkpt>
      <trkpt lat="4.5663730" lon="-74.2277870">
        <ele>2554.1</ele>
        <time>2018-08-11T19:32:12Z</time>
      </trkpt>
      <trkpt lat="4.5664280" lon="-74.2277670">
        <ele>2554.3</ele>
        <time>2018-08-11T19:32:13Z</time>
      </trkpt>
      <trkpt lat="4.5664870" lon="-74.2277450">
        <ele>2554.5</ele>
        <time>2018-08-11T19:32:14Z</time>
      </trkpt>
      <trkpt lat="4.5665450" lon="-74.2277230">
        <ele>2554.7</ele>
        <time>2018-08-11T19:32:15Z</time>
      </trkpt>
      <trkpt lat="4.5665980" lon="-74.2277000">
        <ele>2554.9</ele>
        <time>2018-08-11T19:32:16Z</time>
      </trkpt>
      <trkpt lat="4.5666520" lon="-74.2276770">
        <ele>2555.1</ele>
        <time>2018-08-11T19:32:17Z</time>
      </trkpt>
      <trkpt lat="4.5667070" lon="-74.2276570">
        <ele>2555.2</ele>
        <time>2018-08-11T19:32:18Z</time>
      </trkpt>
      <trkpt lat="4.5667570" lon="-74.2276400">
        <ele>2555.3</ele>
        <time>2018-08-11T19:32:19Z</time>
      </trkpt>
      <trkpt lat="4.5668050" lon="-74.2276250">
        <ele>2555.4</ele>
        <time>2018-08-11T19:32:20Z</time>
      </trkpt>
      <trkpt lat="4.5668550" lon="-74.2276100">
        <ele>2555.5</ele>
        <time>2018-08-11T19:32:21Z</time>
      </trkpt>
      <trkpt lat="4.5669030" lon="-74.2275930">
        <ele>2555.6</ele>
        <time>2018-08-11T19:32:22Z</time>
      </trkpt>
      <trkpt lat="4.5669500" lon="-74.2275780">
        <ele>2555.6</ele>
        <time>2018-08-11T19:32:23Z</time>
      </trkpt>
      <trkpt lat="4.5669980" lon="-74.2275630">
        <ele>2555.7</ele>
        <time>2018-08-11T19:32:24Z</time>
      </trkpt>
      <trkpt lat="4.5670400" lon="-74.2275480">
        <ele>2555.7</ele>
        <time>2018-08-11T19:32:25Z</time>
      </trkpt>
      <trkpt lat="4.5670750" lon="-74.2275370">
        <ele>2555.7</ele>
        <time>2018-08-11T19:32:26Z</time>
      </trkpt>
      <trkpt lat="4.5671050" lon="-74.2275280">
        <ele>2555.7</ele>
        <time>2018-08-11T19:32:27Z</time>
      </trkpt>
      <trkpt lat="4.5671370" lon="-74.2275220">
        <ele>2555.8</ele>
        <time>2018-08-11T19:32:28Z</time>
      </trkpt>
      <trkpt lat="4.5671650" lon="-74.2275150">
        <ele>2555.8</ele>
        <time>2018-08-11T19:32:29Z</time>
      </trkpt>
      <trkpt lat="4.5671930" lon="-74.2275070">
        <ele>2555.8</ele>
        <time>2018-08-11T19:32:30Z</time>
      </trkpt>
      <trkpt lat="4.5672200" lon="-74.2274970">
        <ele>2555.8</ele>
        <time>2018-08-11T19:32:31Z</time>
      </trkpt>
      <trkpt lat="4.5672520" lon="-74.2274830">
        <ele>2555.9</ele>
        <time>2018-08-11T19:32:32Z</time>
      </trkpt>
      <trkpt lat="4.5672870" lon="-74.2274730">
        <ele>2555.9</ele>
        <time>2018-08-11T19:32:33Z</time>
      </trkpt>
      <trkpt lat="4.5673220" lon="-74.2274650">
        <ele>2555.9</ele>
        <time>2018-08-11T19:32:34Z</time>
      </trkpt>
      <trkpt lat="4.5673580" lon="-74.2274520">
        <ele>2556.0</ele>
        <time>2018-08-11T19:32:35Z</time>
      </trkpt>
      <trkpt lat="4.5673950" lon="-74.2274420">
        <ele>2556.0</ele>
        <time>2018-08-11T19:32:36Z</time>
      </trkpt>
      <trkpt lat="4.5674330" lon="-74.2274300">
        <ele>2556.0</ele>
        <time>2018-08-11T19:32:37Z</time>
      </trkpt>
      <trkpt lat="4.5674720" lon="-74.2274180">
        <ele>2556.0</ele>
        <time>2018-08-11T19:32:38Z</time>
      </trkpt>
      <trkpt lat="4.5675100" lon="-74.2274050">
        <ele>2555.9</ele>
        <time>2018-08-11T19:32:39Z</time>
      </trkpt>
      <trkpt lat="4.5675470" lon="-74.2273950">
        <ele>2555.9</ele>
        <time>2018-08-11T19:32:40Z</time>
      </trkpt>
      <trkpt lat="4.5675800" lon="-74.2273830">
        <ele>2555.9</ele>
        <time>2018-08-11T19:32:41Z</time>
      </trkpt>
      <trkpt lat="4.5676120" lon="-74.2273730">
        <ele>2555.9</ele>
        <time>2018-08-11T19:32:42Z</time>
      </trkpt>
      <trkpt lat="4.5676450" lon="-74.2273620">
        <ele>2555.9</ele>
        <time>2018-08-11T19:32:43Z</time>
      </trkpt>
      <trkpt lat="4.5676770" lon="-74.2273480">
        <ele>2555.9</ele>
        <time>2018-08-11T19:32:44Z</time>
      </trkpt>
      <trkpt lat="4.5677130" lon="-74.2273400">
        <ele>2555.9</ele>
        <time>2018-08-11T19:32:45Z</time>
      </trkpt>
      <trkpt lat="4.5677480" lon="-74.2273350">
        <ele>2555.9</ele>
        <time>2018-08-11T19:32:46Z</time>
      </trkpt>
      <trkpt lat="4.5677850" lon="-74.2273300">
        <ele>2555.8</ele>
        <time>2018-08-11T19:32:47Z</time>
      </trkpt>
      <trkpt lat="4.5678230" lon="-74.2273200">
        <ele>2555.8</ele>
        <time>2018-08-11T19:32:48Z</time>
      </trkpt>
      <trkpt lat="4.5678650" lon="-74.2273020">
        <ele>2555.8</ele>
        <time>2018-08-11T19:32:49Z</time>
      </trkpt>
      <trkpt lat="4.5679170" lon="-74.2272820">
        <ele>2555.8</ele>
        <time>2018-08-11T19:32:50Z</time>
      </trkpt>
      <trkpt lat="4.5679630" lon="-74.2272670">
        <ele>2555.8</ele>
        <time>2018-08-11T19:32:51Z</time>
      </trkpt>
      <trkpt lat="4.5680130" lon="-74.2272500">
        <ele>2555.8</ele>
        <time>2018-08-11T19:32:52Z</time>
      </trkpt>
      <trkpt lat="4.5680650" lon="-74.2272330">
        <ele>2555.8</ele>
        <time>2018-08-11T19:32:53Z</time>
      </trkpt>
      <trkpt lat="4.5681170" lon="-74.2272200">
        <ele>2555.8</ele>
        <time>2018-08-11T19:32:54Z</time>
      </trkpt>
      <trkpt lat="4.5681720" lon="-74.2272080">
        <ele>2555.8</ele>
        <time>2018-08-11T19:32:55Z</time>
      </trkpt>
      <trkpt lat="4.5682300" lon="-74.2271920">
        <ele>2555.7</ele>
        <time>2018-08-11T19:32:56Z</time>
      </trkpt>
      <trkpt lat="4.5682880" lon="-74.2271730">
        <ele>2555.7</ele>
        <time>2018-08-11T19:32:57Z</time>
      </trkpt>
      <trkpt lat="4.5683450" lon="-74.2271550">
        <ele>2555.7</ele>
        <time>2018-08-11T19:32:58Z</time>
      </trkpt>
      <trkpt lat="4.5684020" lon="-74.2271370">
        <ele>2555.7</ele>
        <time>2018-08-11T19:32:59Z</time>
      </trkpt>
      <trkpt lat="4.5684600" lon="-74.2271200">
        <ele>2555.7</ele>
        <time>2018-08-11T19:33:00Z</time>
      </trkpt>
      <trkpt lat="4.5685170" lon="-74.2271050">
        <ele>2555.7</ele>
        <time>2018-08-11T19:33:01Z</time>
      </trkpt>
      <trkpt lat="4.5685720" lon="-74.2270900">
        <ele>2555.7</ele>
        <time>2018-08-11T19:33:02Z</time>
      </trkpt>
      <trkpt lat="4.5686280" lon="-74.2270730">
        <ele>2555.7</ele>
        <time>2018-08-11T19:33:03Z</time>
      </trkpt>
      <trkpt lat="4.5686850" lon="-74.2270550">
        <ele>2555.7</ele>
        <time>2018-08-11T19:33:04Z</time>
      </trkpt>
      <trkpt lat="4.5687430" lon="-74.2270370">
        <ele>2555.7</ele>
        <time>2018-08-11T19:33:05Z</time>
      </trkpt>
      <trkpt lat="4.5687980" lon="-74.2270180">
        <ele>2555.8</ele>
        <time>2018-08-11T19:33:06Z</time>
      </trkpt>
      <trkpt lat="4.5688550" lon="-74.2270000">
        <ele>2555.8</ele>
        <time>2018-08-11T19:33:07Z</time>
      </trkpt>
      <trkpt lat="4.5689120" lon="-74.2269820">
        <ele>2555.8</ele>
        <time>2018-08-11T19:33:08Z</time>
      </trkpt>
      <trkpt lat="4.5689650" lon="-74.2269650">
        <ele>2555.9</ele>
        <time>2018-08-11T19:33:09Z</time>
      </trkpt>
      <trkpt lat="4.5690150" lon="-74.2269470">
        <ele>2556.0</ele>
        <time>2018-08-11T19:33:10Z</time>
      </trkpt>
      <trkpt lat="4.5690720" lon="-74.2269200">
        <ele>2556.1</ele>
        <time>2018-08-11T19:33:11Z</time>
      </trkpt>
      <trkpt lat="4.5691250" lon="-74.2268950">
        <ele>2556.2</ele>
        <time>2018-08-11T19:33:12Z</time>
      </trkpt>
      <trkpt lat="4.5691820" lon="-74.2268700">
        <ele>2556.4</ele>
        <time>2018-08-11T19:33:13Z</time>
      </trkpt>
      <trkpt lat="4.5692400" lon="-74.2268500">
        <ele>2556.5</ele>
        <time>2018-08-11T19:33:14Z</time>
      </trkpt>
      <trkpt lat="4.5693000" lon="-74.2268330">
        <ele>2556.6</ele>
        <time>2018-08-11T19:33:15Z</time>
      </trkpt>
      <trkpt lat="4.5693550" lon="-74.2268130">
        <ele>2556.7</ele>
        <time>2018-08-11T19:33:16Z</time>
      </trkpt>
      <trkpt lat="4.5694130" lon="-74.2267930">
        <ele>2556.7</ele>
        <time>2018-08-11T19:33:17Z</time>
      </trkpt>
      <trkpt lat="4.5694720" lon="-74.2267730">
        <ele>2556.7</ele>
        <time>2018-08-11T19:33:18Z</time>
      </trkpt>
      <trkpt lat="4.5695280" lon="-74.2267570">
        <ele>2556.7</ele>
        <time>2018-08-11T19:33:19Z</time>
      </trkpt>
      <trkpt lat="4.5695820" lon="-74.2267420">
        <ele>2556.7</ele>
        <time>2018-08-11T19:33:20Z</time>
      </trkpt>
      <trkpt lat="4.5696330" lon="-74.2267250">
        <ele>2556.7</ele>
        <time>2018-08-11T19:33:21Z</time>
      </trkpt>
      <trkpt lat="4.5696900" lon="-74.2267080">
        <ele>2556.8</ele>
        <time>2018-08-11T19:33:22Z</time>
      </trkpt>
      <trkpt lat="4.5697470" lon="-74.2266930">
        <ele>2556.8</ele>
        <time>2018-08-11T19:33:23Z</time>
      </trkpt>
      <trkpt lat="4.5698070" lon="-74.2266750">
        <ele>2556.8</ele>
        <time>2018-08-11T19:33:24Z</time>
      </trkpt>
      <trkpt lat="4.5698620" lon="-74.2266570">
        <ele>2556.8</ele>
        <time>2018-08-11T19:33:25Z</time>
      </trkpt>
      <trkpt lat="4.5699170" lon="-74.2266400">
        <ele>2556.8</ele>
        <time>2018-08-11T19:33:26Z</time>
      </trkpt>
      <trkpt lat="4.5699750" lon="-74.2266230">
        <ele>2556.8</ele>
        <time>2018-08-11T19:33:27Z</time>
      </trkpt>
      <trkpt lat="4.5700330" lon="-74.2266080">
        <ele>2556.9</ele>
        <time>2018-08-11T19:33:28Z</time>
      </trkpt>
      <trkpt lat="4.5700920" lon="-74.2265920">
        <ele>2556.9</ele>
        <time>2018-08-11T19:33:29Z</time>
      </trkpt>
      <trkpt lat="4.5701480" lon="-74.2265750">
        <ele>2556.9</ele>
        <time>2018-08-11T19:33:30Z</time>
      </trkpt>
      <trkpt lat="4.5702030" lon="-74.2265530">
        <ele>2556.9</ele>
        <time>2018-08-11T19:33:31Z</time>
      </trkpt>
      <trkpt lat="4.5702620" lon="-74.2265300">
        <ele>2557.0</ele>
        <time>2018-08-11T19:33:32Z</time>
      </trkpt>
      <trkpt lat="4.5703200" lon="-74.2265070">
        <ele>2557.2</ele>
        <time>2018-08-11T19:33:33Z</time>
      </trkpt>
      <trkpt lat="4.5703800" lon="-74.2264850">
        <ele>2557.3</ele>
        <time>2018-08-11T19:33:34Z</time>
      </trkpt>
      <trkpt lat="4.5704370" lon="-74.2264670">
        <ele>2557.5</ele>
        <time>2018-08-11T19:33:35Z</time>
      </trkpt>
      <trkpt lat="4.5704950" lon="-74.2264500">
        <ele>2557.6</ele>
        <time>2018-08-11T19:33:36Z</time>
      </trkpt>
      <trkpt lat="4.5705500" lon="-74.2264300">
        <ele>2557.6</ele>
        <time>2018-08-11T19:33:37Z</time>
      </trkpt>
      <trkpt lat="4.5706050" lon="-74.2264080">
        <ele>2557.7</ele>
        <time>2018-08-11T19:33:38Z</time>
      </trkpt>
      <trkpt lat="4.5706570" lon="-74.2263850">
        <ele>2557.7</ele>
        <time>2018-08-11T19:33:39Z</time>
      </trkpt>
      <trkpt lat="4.5707100" lon="-74.2263630">
        <ele>2557.7</ele>
        <time>2018-08-11T19:33:40Z</time>
      </trkpt>
      <trkpt lat="4.5707630" lon="-74.2263420">
        <ele>2557.8</ele>
        <time>2018-08-11T19:33:41Z</time>
      </trkpt>
      <trkpt lat="4.5708150" lon="-74.2263180">
        <ele>2557.8</ele>
        <time>2018-08-11T19:33:42Z</time>
      </trkpt>
      <trkpt lat="4.5708650" lon="-74.2262950">
        <ele>2557.8</ele>
        <time>2018-08-11T19:33:43Z</time>
      </trkpt>
      <trkpt lat="4.5709150" lon="-74.2262700">
        <ele>2557.8</ele>
        <time>2018-08-11T19:33:44Z</time>
      </trkpt>
      <trkpt lat="4.5709630" lon="-74.2262500">
        <ele>2557.9</ele>
        <time>2018-08-11T19:33:45Z</time>
      </trkpt>
      <trkpt lat="4.5710100" lon="-74.2262300">
        <ele>2557.9</ele>
        <time>2018-08-11T19:33:46Z</time>
      </trkpt>
      <trkpt lat="4.5710580" lon="-74.2262100">
        <ele>2557.9</ele>
        <time>2018-08-11T19:33:47Z</time>
      </trkpt>
      <trkpt lat="4.5711080" lon="-74.2261900">
        <ele>2557.9</ele>
        <time>2018-08-11T19:33:48Z</time>
      </trkpt>
      <trkpt lat="4.5711570" lon="-74.2261700">
        <ele>2558.0</ele>
        <time>2018-08-11T19:33:49Z</time>
      </trkpt>
      <trkpt lat="4.5712070" lon="-74.2261480">
        <ele>2558.0</ele>
        <time>2018-08-11T19:33:50Z</time>
      </trkpt>
      <trkpt lat="4.5712570" lon="-74.2261370">
        <ele>2558.0</ele>
        <time>2018-08-11T19:33:51Z</time>
      </trkpt>
      <trkpt lat="4.5713050" lon="-74.2261170">
        <ele>2558.0</ele>
        <time>2018-08-11T19:33:52Z</time>
      </trkpt>
      <trkpt lat="4.5713550" lon="-74.2260970">
        <ele>2558.0</ele>
        <time>2018-08-11T19:33:53Z</time>
      </trkpt>
      <trkpt lat="4.5714070" lon="-74.2260750">
        <ele>2558.1</ele>
        <time>2018-08-11T19:33:54Z</time>
      </trkpt>
      <trkpt lat="4.5714550" lon="-74.2260530">
        <ele>2558.1</ele>
        <time>2018-08-11T19:33:55Z</time>
      </trkpt>
      <trkpt lat="4.5715030" lon="-74.2260280">
        <ele>2558.2</ele>
        <time>2018-08-11T19:33:56Z</time>
      </trkpt>
      <trkpt lat="4.5715530" lon="-74.2260050">
        <ele>2558.3</ele>
        <time>2018-08-11T19:33:57Z</time>
      </trkpt>
      <trkpt lat="4.5716070" lon="-74.2259770">
        <ele>2558.4</ele>
        <time>2018-08-11T19:33:58Z</time>
      </trkpt>
      <trkpt lat="4.5716600" lon="-74.2259450">
        <ele>2558.5</ele>
        <time>2018-08-11T19:33:59Z</time>
      </trkpt>
      <trkpt lat="4.5717100" lon="-74.2259200">
        <ele>2558.6</ele>
        <time>2018-08-11T19:34:00Z</time>
      </trkpt>
      <trkpt lat="4.5717620" lon="-74.2258930">
        <ele>2558.7</ele>
        <time>2018-08-11T19:34:01Z</time>
      </trkpt>
      <trkpt lat="4.5718150" lon="-74.2258650">
        <ele>2558.8</ele>
        <time>2018-08-11T19:34:02Z</time>
      </trkpt>
      <trkpt lat="4.5718670" lon="-74.2258380">
        <ele>2558.8</ele>
        <time>2018-08-11T19:34:03Z</time>
      </trkpt>
      <trkpt lat="4.5719180" lon="-74.2258080">
        <ele>2558.8</ele>
        <time>2018-08-11T19:34:04Z</time>
      </trkpt>
      <trkpt lat="4.5719720" lon="-74.2257820">
        <ele>2558.9</ele>
        <time>2018-08-11T19:34:05Z</time>
      </trkpt>
      <trkpt lat="4.5720230" lon="-74.2257580">
        <ele>2558.9</ele>
        <time>2018-08-11T19:34:06Z</time>
      </trkpt>
      <trkpt lat="4.5720750" lon="-74.2257320">
        <ele>2558.9</ele>
        <time>2018-08-11T19:34:07Z</time>
      </trkpt>
      <trkpt lat="4.5721200" lon="-74.2257080">
        <ele>2559.0</ele>
        <time>2018-08-11T19:34:08Z</time>
      </trkpt>
      <trkpt lat="4.5721630" lon="-74.2256850">
        <ele>2559.0</ele>
        <time>2018-08-11T19:34:09Z</time>
      </trkpt>
      <trkpt lat="4.5722050" lon="-74.2256600">
        <ele>2559.3</ele>
        <time>2018-08-11T19:34:10Z</time>
      </trkpt>
      <trkpt lat="4.5722450" lon="-74.2256370">
        <ele>2559.6</ele>
        <time>2018-08-11T19:34:11Z</time>
      </trkpt>
      <trkpt lat="4.5722800" lon="-74.2256180">
        <ele>2559.9</ele>
        <time>2018-08-11T19:34:12Z</time>
      </trkpt>
      <trkpt lat="4.5723150" lon="-74.2255980">
        <ele>2560.2</ele>
        <time>2018-08-11T19:34:13Z</time>
      </trkpt>
      <trkpt lat="4.5723520" lon="-74.2255820">
        <ele>2560.3</ele>
        <time>2018-08-11T19:34:14Z</time>
      </trkpt>
      <trkpt lat="4.5723950" lon="-74.2255680">
        <ele>2560.5</ele>
        <time>2018-08-11T19:34:16Z</time>
      </trkpt>
      <trkpt lat="4.5724270" lon="-74.2255620">
        <ele>2560.6</ele>
        <time>2018-08-11T19:34:18Z</time>
      </trkpt>
      <trkpt lat="4.5724650" lon="-74.2255380">
        <ele>2560.8</ele>
        <time>2018-08-11T19:34:20Z</time>
      </trkpt>
      <trkpt lat="4.5725230" lon="-74.2255250">
        <ele>2560.9</ele>
        <time>2018-08-11T19:34:22Z</time>
      </trkpt>
      <trkpt lat="4.5725500" lon="-74.2255050">
        <ele>2561.0</ele>
        <time>2018-08-11T19:34:23Z</time>
      </trkpt>
      <trkpt lat="4.5725780" lon="-74.2254850">
        <ele>2561.0</ele>
        <time>2018-08-11T19:34:24Z</time>
      </trkpt>
      <trkpt lat="4.5726080" lon="-74.2254620">
        <ele>2561.1</ele>
        <time>2018-08-11T19:34:25Z</time>
      </trkpt>
      <trkpt lat="4.5726380" lon="-74.2254400">
        <ele>2561.1</ele>
        <time>2018-08-11T19:34:26Z</time>
      </trkpt>
      <trkpt lat="4.5726720" lon="-74.2254200">
        <ele>2561.2</ele>
        <time>2018-08-11T19:34:27Z</time>
      </trkpt>
      <trkpt lat="4.5727050" lon="-74.2254020">
        <ele>2561.3</ele>
        <time>2018-08-11T19:34:28Z</time>
      </trkpt>
      <trkpt lat="4.5727420" lon="-74.2253850">
        <ele>2561.3</ele>
        <time>2018-08-11T19:34:29Z</time>
      </trkpt>
      <trkpt lat="4.5727820" lon="-74.2253670">
        <ele>2561.4</ele>
        <time>2018-08-11T19:34:30Z</time>
      </trkpt>
      <trkpt lat="4.5728220" lon="-74.2253430">
        <ele>2561.5</ele>
        <time>2018-08-11T19:34:31Z</time>
      </trkpt>
      <trkpt lat="4.5728620" lon="-74.2253200">
        <ele>2561.6</ele>
        <time>2018-08-11T19:34:32Z</time>
      </trkpt>
      <trkpt lat="4.5729050" lon="-74.2253000">
        <ele>2561.6</ele>
        <time>2018-08-11T19:34:33Z</time>
      </trkpt>
      <trkpt lat="4.5729450" lon="-74.2252800">
        <ele>2561.7</ele>
        <time>2018-08-11T19:34:34Z</time>
      </trkpt>
      <trkpt lat="4.5729850" lon="-74.2252600">
        <ele>2561.7</ele>
        <time>2018-08-11T19:34:35Z</time>
      </trkpt>
      <trkpt lat="4.5730300" lon="-74.2252400">
        <ele>2561.7</ele>
        <time>2018-08-11T19:34:36Z</time>
      </trkpt>
      <trkpt lat="4.5730750" lon="-74.2252180">
        <ele>2561.8</ele>
        <time>2018-08-11T19:34:37Z</time>
      </trkpt>
      <trkpt lat="4.5731230" lon="-74.2251980">
        <ele>2561.9</ele>
        <time>2018-08-11T19:34:38Z</time>
      </trkpt>
      <trkpt lat="4.5731650" lon="-74.2251820">
        <ele>2561.9</ele>
        <time>2018-08-11T19:34:39Z</time>
      </trkpt>
      <trkpt lat="4.5732080" lon="-74.2251600">
        <ele>2561.9</ele>
        <time>2018-08-11T19:34:40Z</time>
      </trkpt>
      <trkpt lat="4.5732500" lon="-74.2251380">
        <ele>2562.0</ele>
        <time>2018-08-11T19:34:41Z</time>
      </trkpt>
      <trkpt lat="4.5732900" lon="-74.2251150">
        <ele>2562.0</ele>
        <time>2018-08-11T19:34:42Z</time>
      </trkpt>
      <trkpt lat="4.5733280" lon="-74.2250930">
        <ele>2562.1</ele>
        <time>2018-08-11T19:34:43Z</time>
      </trkpt>
      <trkpt lat="4.5733670" lon="-74.2250680">
        <ele>2562.1</ele>
        <time>2018-08-11T19:34:44Z</time>
      </trkpt>
      <trkpt lat="4.5734030" lon="-74.2250380">
        <ele>2562.2</ele>
        <time>2018-08-11T19:34:45Z</time>
      </trkpt>
      <trkpt lat="4.5734430" lon="-74.2250100">
        <ele>2562.3</ele>
        <time>2018-08-11T19:34:46Z</time>
      </trkpt>
      <trkpt lat="4.5734850" lon="-74.2249850">
        <ele>2562.4</ele>
        <time>2018-08-11T19:34:47Z</time>
      </trkpt>
      <trkpt lat="4.5735280" lon="-74.2249600">
        <ele>2562.4</ele>
        <time>2018-08-11T19:34:48Z</time>
      </trkpt>
      <trkpt lat="4.5735750" lon="-74.2249350">
        <ele>2562.5</ele>
        <time>2018-08-11T19:34:49Z</time>
      </trkpt>
      <trkpt lat="4.5736220" lon="-74.2249120">
        <ele>2562.5</ele>
        <time>2018-08-11T19:34:50Z</time>
      </trkpt>
      <trkpt lat="4.5736650" lon="-74.2248870">
        <ele>2562.6</ele>
        <time>2018-08-11T19:34:51Z</time>
      </trkpt>
      <trkpt lat="4.5737080" lon="-74.2248600">
        <ele>2562.6</ele>
        <time>2018-08-11T19:34:52Z</time>
      </trkpt>
      <trkpt lat="4.5737580" lon="-74.2248330">
        <ele>2562.7</ele>
        <time>2018-08-11T19:34:53Z</time>
      </trkpt>
      <trkpt lat="4.5738070" lon="-74.2248070">
        <ele>2562.7</ele>
        <time>2018-08-11T19:34:54Z</time>
      </trkpt>
      <trkpt lat="4.5738520" lon="-74.2247850">
        <ele>2562.8</ele>
        <time>2018-08-11T19:34:55Z</time>
      </trkpt>
      <trkpt lat="4.5738970" lon="-74.2247650">
        <ele>2562.8</ele>
        <time>2018-08-11T19:34:56Z</time>
      </trkpt>
      <trkpt lat="4.5739400" lon="-74.2247400">
        <ele>2562.9</ele>
        <time>2018-08-11T19:34:57Z</time>
      </trkpt>
      <trkpt lat="4.5739830" lon="-74.2247130">
        <ele>2562.9</ele>
        <time>2018-08-11T19:34:58Z</time>
      </trkpt>
      <trkpt lat="4.5740270" lon="-74.2246880">
        <ele>2563.0</ele>
        <time>2018-08-11T19:34:59Z</time>
      </trkpt>
      <trkpt lat="4.5740720" lon="-74.2246630">
        <ele>2563.1</ele>
        <time>2018-08-11T19:35:00Z</time>
      </trkpt>
      <trkpt lat="4.5741170" lon="-74.2246370">
        <ele>2563.2</ele>
        <time>2018-08-11T19:35:01Z</time>
      </trkpt>
      <trkpt lat="4.5741620" lon="-74.2246120">
        <ele>2563.3</ele>
        <time>2018-08-11T19:35:02Z</time>
      </trkpt>
      <trkpt lat="4.5742050" lon="-74.2245870">
        <ele>2563.4</ele>
        <time>2018-08-11T19:35:03Z</time>
      </trkpt>
      <trkpt lat="4.5742480" lon="-74.2245620">
        <ele>2563.4</ele>
        <time>2018-08-11T19:35:04Z</time>
      </trkpt>
      <trkpt lat="4.5742930" lon="-74.2245370">
        <ele>2563.5</ele>
        <time>2018-08-11T19:35:05Z</time>
      </trkpt>
      <trkpt lat="4.5743400" lon="-74.2245100">
        <ele>2563.5</ele>
        <time>2018-08-11T19:35:06Z</time>
      </trkpt>
      <trkpt lat="4.5743850" lon="-74.2244800">
        <ele>2563.6</ele>
        <time>2018-08-11T19:35:07Z</time>
      </trkpt>
      <trkpt lat="4.5744300" lon="-74.2244530">
        <ele>2563.7</ele>
        <time>2018-08-11T19:35:08Z</time>
      </trkpt>
      <trkpt lat="4.5744770" lon="-74.2244270">
        <ele>2563.7</ele>
        <time>2018-08-11T19:35:09Z</time>
      </trkpt>
      <trkpt lat="4.5745170" lon="-74.2243980">
        <ele>2563.8</ele>
        <time>2018-08-11T19:35:10Z</time>
      </trkpt>
      <trkpt lat="4.5745620" lon="-74.2243720">
        <ele>2563.8</ele>
        <time>2018-08-11T19:35:11Z</time>
      </trkpt>
      <trkpt lat="4.5746080" lon="-74.2243430">
        <ele>2563.9</ele>
        <time>2018-08-11T19:35:12Z</time>
      </trkpt>
      <trkpt lat="4.5746570" lon="-74.2243170">
        <ele>2564.0</ele>
        <time>2018-08-11T19:35:13Z</time>
      </trkpt>
      <trkpt lat="4.5747020" lon="-74.2242920">
        <ele>2564.3</ele>
        <time>2018-08-11T19:35:14Z</time>
      </trkpt>
      <trkpt lat="4.5747430" lon="-74.2242650">
        <ele>2564.7</ele>
        <time>2018-08-11T19:35:15Z</time>
      </trkpt>
      <trkpt lat="4.5747870" lon="-74.2242380">
        <ele>2565.2</ele>
        <time>2018-08-11T19:35:16Z</time>
      </trkpt>
      <trkpt lat="4.5748330" lon="-74.2242100">
        <ele>2565.7</ele>
        <time>2018-08-11T19:35:17Z</time>
      </trkpt>
      <trkpt lat="4.5748820" lon="-74.2241780">
        <ele>2566.3</ele>
        <time>2018-08-11T19:35:18Z</time>
      </trkpt>
      <trkpt lat="4.5749280" lon="-74.2241480">
        <ele>2566.8</ele>
        <time>2018-08-11T19:35:19Z</time>
      </trkpt>
      <trkpt lat="4.5749750" lon="-74.2241220">
        <ele>2567.3</ele>
        <time>2018-08-11T19:35:20Z</time>
      </trkpt>
      <trkpt lat="4.5750220" lon="-74.2240930">
        <ele>2567.8</ele>
        <time>2018-08-11T19:35:21Z</time>
      </trkpt>
      <trkpt lat="4.5750650" lon="-74.2240650">
        <ele>2567.7</ele>
        <time>2018-08-11T19:35:22Z</time>
      </trkpt>
      <trkpt lat="4.5751100" lon="-74.2240370">
        <ele>2567.1</ele>
        <time>2018-08-11T19:35:23Z</time>
      </trkpt>
      <trkpt lat="4.5751620" lon="-74.2240000">
        <ele>2566.5</ele>
        <time>2018-08-11T19:35:24Z</time>
      </trkpt>
      <trkpt lat="4.5752120" lon="-74.2239680">
        <ele>2566.4</ele>
        <time>2018-08-11T19:35:25Z</time>
      </trkpt>
      <trkpt lat="4.5752600" lon="-74.2239350">
        <ele>2566.4</ele>
        <time>2018-08-11T19:35:26Z</time>
      </trkpt>
      <trkpt lat="4.5753050" lon="-74.2239020">
        <ele>2566.4</ele>
        <time>2018-08-11T19:35:27Z</time>
      </trkpt>
      <trkpt lat="4.5753520" lon="-74.2238730">
        <ele>2566.6</ele>
        <time>2018-08-11T19:35:28Z</time>
      </trkpt>
      <trkpt lat="4.5754030" lon="-74.2238430">
        <ele>2566.8</ele>
        <time>2018-08-11T19:35:29Z</time>
      </trkpt>
      <trkpt lat="4.5754530" lon="-74.2238130">
        <ele>2567.2</ele>
        <time>2018-08-11T19:35:30Z</time>
      </trkpt>
      <trkpt lat="4.5755020" lon="-74.2237800">
        <ele>2567.6</ele>
        <time>2018-08-11T19:35:31Z</time>
      </trkpt>
      <trkpt lat="4.5755530" lon="-74.2237500">
        <ele>2567.8</ele>
        <time>2018-08-11T19:35:32Z</time>
      </trkpt>
      <trkpt lat="4.5756030" lon="-74.2237220">
        <ele>2568.0</ele>
        <time>2018-08-11T19:35:33Z</time>
      </trkpt>
      <trkpt lat="4.5756550" lon="-74.2236930">
        <ele>2568.0</ele>
        <time>2018-08-11T19:35:34Z</time>
      </trkpt>
      <trkpt lat="4.5757070" lon="-74.2236650">
        <ele>2567.8</ele>
        <time>2018-08-11T19:35:35Z</time>
      </trkpt>
      <trkpt lat="4.5757570" lon="-74.2236330">
        <ele>2566.9</ele>
        <time>2018-08-11T19:35:36Z</time>
      </trkpt>
      <trkpt lat="4.5758080" lon="-74.2235970">
        <ele>2566.0</ele>
        <time>2018-08-11T19:35:37Z</time>
      </trkpt>
      <trkpt lat="4.5758550" lon="-74.2235550">
        <ele>2565.5</ele>
        <time>2018-08-11T19:35:38Z</time>
      </trkpt>
      <trkpt lat="4.5759030" lon="-74.2235120">
        <ele>2565.1</ele>
        <time>2018-08-11T19:35:39Z</time>
      </trkpt>
      <trkpt lat="4.5759500" lon="-74.2234700">
        <ele>2564.8</ele>
        <time>2018-08-11T19:35:40Z</time>
      </trkpt>
      <trkpt lat="4.5760000" lon="-74.2234300">
        <ele>2564.4</ele>
        <time>2018-08-11T19:35:41Z</time>
      </trkpt>
      <trkpt lat="4.5760520" lon="-74.2233880">
        <ele>2564.0</ele>
        <time>2018-08-11T19:35:42Z</time>
      </trkpt>
      <trkpt lat="4.5761000" lon="-74.2233430">
        <ele>2564.0</ele>
        <time>2018-08-11T19:35:43Z</time>
      </trkpt>
      <trkpt lat="4.5761450" lon="-74.2232930">
        <ele>2564.0</ele>
        <time>2018-08-11T19:35:44Z</time>
      </trkpt>
      <trkpt lat="4.5761880" lon="-74.2232400">
        <ele>2564.0</ele>
        <time>2018-08-11T19:35:45Z</time>
      </trkpt>
      <trkpt lat="4.5762280" lon="-74.2231820">
        <ele>2564.0</ele>
        <time>2018-08-11T19:35:46Z</time>
      </trkpt>
      <trkpt lat="4.5762670" lon="-74.2231180">
        <ele>2564.0</ele>
        <time>2018-08-11T19:35:47Z</time>
      </trkpt>
      <trkpt lat="4.5763070" lon="-74.2230550">
        <ele>2563.9</ele>
        <time>2018-08-11T19:35:48Z</time>
      </trkpt>
      <trkpt lat="4.5763450" lon="-74.2229880">
        <ele>2563.8</ele>
        <time>2018-08-11T19:35:49Z</time>
      </trkpt>
      <trkpt lat="4.5763820" lon="-74.2229220">
        <ele>2563.7</ele>
        <time>2018-08-11T19:35:50Z</time>
      </trkpt>
      <trkpt lat="4.5764220" lon="-74.2228550">
        <ele>2563.6</ele>
        <time>2018-08-11T19:35:51Z</time>
      </trkpt>
      <trkpt lat="4.5764620" lon="-74.2227880">
        <ele>2563.5</ele>
        <time>2018-08-11T19:35:52Z</time>
      </trkpt>
      <trkpt lat="4.5765020" lon="-74.2227200">
        <ele>2563.4</ele>
        <time>2018-08-11T19:35:53Z</time>
      </trkpt>
      <trkpt lat="4.5765400" lon="-74.2226520">
        <ele>2563.3</ele>
        <time>2018-08-11T19:35:54Z</time>
      </trkpt>
      <trkpt lat="4.5765820" lon="-74.2225870">
        <ele>2563.2</ele>
        <time>2018-08-11T19:35:55Z</time>
      </trkpt>
      <trkpt lat="4.5766180" lon="-74.2225180">
        <ele>2563.1</ele>
        <time>2018-08-11T19:35:56Z</time>
      </trkpt>
      <trkpt lat="4.5766550" lon="-74.2224500">
        <ele>2563.0</ele>
        <time>2018-08-11T19:35:57Z</time>
      </trkpt>
      <trkpt lat="4.5766900" lon="-74.2223820">
        <ele>2562.8</ele>
        <time>2018-08-11T19:35:58Z</time>
      </trkpt>
      <trkpt lat="4.5767250" lon="-74.2223150">
        <ele>2562.6</ele>
        <time>2018-08-11T19:35:59Z</time>
      </trkpt>
      <trkpt lat="4.5767570" lon="-74.2222500">
        <ele>2562.5</ele>
        <time>2018-08-11T19:36:00Z</time>
      </trkpt>
      <trkpt lat="4.5767880" lon="-74.2221850">
        <ele>2562.4</ele>
        <time>2018-08-11T19:36:01Z</time>
      </trkpt>
      <trkpt lat="4.5768220" lon="-74.2221230">
        <ele>2562.3</ele>
        <time>2018-08-11T19:36:02Z</time>
      </trkpt>
      <trkpt lat="4.5768530" lon="-74.2220620">
        <ele>2562.2</ele>
        <time>2018-08-11T19:36:03Z</time>
      </trkpt>
      <trkpt lat="4.5768850" lon="-74.2219980">
        <ele>2562.1</ele>
        <time>2018-08-11T19:36:04Z</time>
      </trkpt>
      <trkpt lat="4.5769180" lon="-74.2219350">
        <ele>2562.0</ele>
        <time>2018-08-11T19:36:05Z</time>
      </trkpt>
      <trkpt lat="4.5769500" lon="-74.2218750">
        <ele>2562.0</ele>
        <time>2018-08-11T19:36:06Z</time>
      </trkpt>
      <trkpt lat="4.5769800" lon="-74.2218180">
        <ele>2561.9</ele>
        <time>2018-08-11T19:36:07Z</time>
      </trkpt>
      <trkpt lat="4.5770080" lon="-74.2217620">
        <ele>2561.8</ele>
        <time>2018-08-11T19:36:08Z</time>
      </trkpt>
      <trkpt lat="4.5770400" lon="-74.2217070">
        <ele>2561.7</ele>
        <time>2018-08-11T19:36:09Z</time>
      </trkpt>
      <trkpt lat="4.5770730" lon="-74.2216520">
        <ele>2561.6</ele>
        <time>2018-08-11T19:36:10Z</time>
      </trkpt>
      <trkpt lat="4.5771030" lon="-74.2215970">
        <ele>2561.5</ele>
        <time>2018-08-11T19:36:11Z</time>
      </trkpt>
      <trkpt lat="4.5771350" lon="-74.2215400">
        <ele>2561.4</ele>
        <time>2018-08-11T19:36:12Z</time>
      </trkpt>
      <trkpt lat="4.5771650" lon="-74.2214870">
        <ele>2561.3</ele>
        <time>2018-08-11T19:36:13Z</time>
      </trkpt>
      <trkpt lat="4.5771950" lon="-74.2214350">
        <ele>2561.1</ele>
        <time>2018-08-11T19:36:14Z</time>
      </trkpt>
      <trkpt lat="4.5772250" lon="-74.2213850">
        <ele>2561.0</ele>
        <time>2018-08-11T19:36:15Z</time>
      </trkpt>
      <trkpt lat="4.5772500" lon="-74.2213350">
        <ele>2561.0</ele>
        <time>2018-08-11T19:36:16Z</time>
      </trkpt>
      <trkpt lat="4.5772720" lon="-74.2212880">
        <ele>2561.0</ele>
        <time>2018-08-11T19:36:17Z</time>
      </trkpt>
      <trkpt lat="4.5772930" lon="-74.2212450">
        <ele>2561.0</ele>
        <time>2018-08-11T19:36:18Z</time>
      </trkpt>
      <trkpt lat="4.5773130" lon="-74.2212070">
        <ele>2561.0</ele>
        <time>2018-08-11T19:36:19Z</time>
      </trkpt>
      <trkpt lat="4.5773300" lon="-74.2211780">
        <ele>2561.0</ele>
        <time>2018-08-11T19:36:20Z</time>
      </trkpt>
      <trkpt lat="4.5773250" lon="-74.2211350">
        <ele>2561.0</ele>
        <time>2018-08-11T19:36:22Z</time>
      </trkpt>
      <trkpt lat="4.5772720" lon="-74.2211100">
        <ele>2560.9</ele>
        <time>2018-08-11T19:36:24Z</time>
      </trkpt>
      <trkpt lat="4.5772320" lon="-74.2211000">
        <ele>2560.9</ele>
        <time>2018-08-11T19:36:25Z</time>
      </trkpt>
      <trkpt lat="4.5771900" lon="-74.2210950">
        <ele>2560.9</ele>
        <time>2018-08-11T19:36:26Z</time>
      </trkpt>
      <trkpt lat="4.5771420" lon="-74.2210880">
        <ele>2560.9</ele>
        <time>2018-08-11T19:36:27Z</time>
      </trkpt>
      <trkpt lat="4.5770950" lon="-74.2210730">
        <ele>2560.9</ele>
        <time>2018-08-11T19:36:28Z</time>
      </trkpt>
      <trkpt lat="4.5770470" lon="-74.2210500">
        <ele>2560.8</ele>
        <time>2018-08-11T19:36:29Z</time>
      </trkpt>
      <trkpt lat="4.5769970" lon="-74.2210230">
        <ele>2560.8</ele>
        <time>2018-08-11T19:36:30Z</time>
      </trkpt>
      <trkpt lat="4.5769430" lon="-74.2209980">
        <ele>2560.8</ele>
        <time>2018-08-11T19:36:31Z</time>
      </trkpt>
      <trkpt lat="4.5768900" lon="-74.2209720">
        <ele>2560.8</ele>
        <time>2018-08-11T19:36:32Z</time>
      </trkpt>
      <trkpt lat="4.5768400" lon="-74.2209500">
        <ele>2560.8</ele>
        <time>2018-08-11T19:36:33Z</time>
      </trkpt>
      <trkpt lat="4.5767870" lon="-74.2209250">
        <ele>2560.8</ele>
        <time>2018-08-11T19:36:34Z</time>
      </trkpt>
      <trkpt lat="4.5767370" lon="-74.2208980">
        <ele>2560.7</ele>
        <time>2018-08-11T19:36:35Z</time>
      </trkpt>
      <trkpt lat="4.5766880" lon="-74.2208720">
        <ele>2560.7</ele>
        <time>2018-08-11T19:36:36Z</time>
      </trkpt>
      <trkpt lat="4.5766420" lon="-74.2208450">
        <ele>2560.7</ele>
        <time>2018-08-11T19:36:37Z</time>
      </trkpt>
      <trkpt lat="4.5765950" lon="-74.2208150">
        <ele>2560.7</ele>
        <time>2018-08-11T19:36:38Z</time>
      </trkpt>
      <trkpt lat="4.5765500" lon="-74.2207820">
        <ele>2560.7</ele>
        <time>2018-08-11T19:36:39Z</time>
      </trkpt>
      <trkpt lat="4.5765080" lon="-74.2207500">
        <ele>2560.6</ele>
        <time>2018-08-11T19:36:40Z</time>
      </trkpt>
      <trkpt lat="4.5764730" lon="-74.2207150">
        <ele>2560.6</ele>
        <time>2018-08-11T19:36:41Z</time>
      </trkpt>
      <trkpt lat="4.5764400" lon="-74.2206780">
        <ele>2560.6</ele>
        <time>2018-08-11T19:36:42Z</time>
      </trkpt>
      <trkpt lat="4.5764120" lon="-74.2206370">
        <ele>2560.6</ele>
        <time>2018-08-11T19:36:43Z</time>
      </trkpt>
      <trkpt lat="4.5763820" lon="-74.2205950">
        <ele>2560.6</ele>
        <time>2018-08-11T19:36:44Z</time>
      </trkpt>
      <trkpt lat="4.5763470" lon="-74.2205550">
        <ele>2560.5</ele>
        <time>2018-08-11T19:36:45Z</time>
      </trkpt>
      <trkpt lat="4.5763130" lon="-74.2205120">
        <ele>2560.5</ele>
        <time>2018-08-11T19:36:46Z</time>
      </trkpt>
      <trkpt lat="4.5762820" lon="-74.2204680">
        <ele>2560.4</ele>
        <time>2018-08-11T19:36:47Z</time>
      </trkpt>
      <trkpt lat="4.5762530" lon="-74.2204270">
        <ele>2560.3</ele>
        <time>2018-08-11T19:36:48Z</time>
      </trkpt>
      <trkpt lat="4.5762230" lon="-74.2203870">
        <ele>2560.2</ele>
        <time>2018-08-11T19:36:49Z</time>
      </trkpt>
      <trkpt lat="4.5761880" lon="-74.2203450">
        <ele>2560.0</ele>
        <time>2018-08-11T19:36:50Z</time>
      </trkpt>
      <trkpt lat="4.5761570" lon="-74.2203030">
        <ele>2559.8</ele>
        <time>2018-08-11T19:36:51Z</time>
      </trkpt>
      <trkpt lat="4.5761270" lon="-74.2202620">
        <ele>2559.5</ele>
        <time>2018-08-11T19:36:52Z</time>
      </trkpt>
      <trkpt lat="4.5760970" lon="-74.2202200">
        <ele>2559.3</ele>
        <time>2018-08-11T19:36:53Z</time>
      </trkpt>
      <trkpt lat="4.5760680" lon="-74.2201780">
        <ele>2559.1</ele>
        <time>2018-08-11T19:36:54Z</time>
      </trkpt>
      <trkpt lat="4.5760430" lon="-74.2201350">
        <ele>2558.9</ele>
        <time>2018-08-11T19:36:55Z</time>
      </trkpt>
      <trkpt lat="4.5760230" lon="-74.2200900">
        <ele>2558.7</ele>
        <time>2018-08-11T19:36:56Z</time>
      </trkpt>
      <trkpt lat="4.5760080" lon="-74.2200400">
        <ele>2558.5</ele>
        <time>2018-08-11T19:36:57Z</time>
      </trkpt>
      <trkpt lat="4.5759880" lon="-74.2199970">
        <ele>2558.5</ele>
        <time>2018-08-11T19:36:58Z</time>
      </trkpt>
      <trkpt lat="4.5759630" lon="-74.2199520">
        <ele>2558.4</ele>
        <time>2018-08-11T19:36:59Z</time>
      </trkpt>
      <trkpt lat="4.5759450" lon="-74.2199100">
        <ele>2558.4</ele>
        <time>2018-08-11T19:37:00Z</time>
      </trkpt>
      <trkpt lat="4.5759230" lon="-74.2198670">
        <ele>2558.3</ele>
        <time>2018-08-11T19:37:01Z</time>
      </trkpt>
      <trkpt lat="4.5759020" lon="-74.2198230">
        <ele>2558.3</ele>
        <time>2018-08-11T19:37:02Z</time>
      </trkpt>
      <trkpt lat="4.5758800" lon="-74.2197820">
        <ele>2558.3</ele>
        <time>2018-08-11T19:37:03Z</time>
      </trkpt>
      <trkpt lat="4.5758620" lon="-74.2197400">
        <ele>2558.3</ele>
        <time>2018-08-11T19:37:04Z</time>
      </trkpt>
      <trkpt lat="4.5758380" lon="-74.2196980">
        <ele>2558.3</ele>
        <time>2018-08-11T19:37:05Z</time>
      </trkpt>
      <trkpt lat="4.5758150" lon="-74.2196570">
        <ele>2558.2</ele>
        <time>2018-08-11T19:37:06Z</time>
      </trkpt>
      <trkpt lat="4.5757900" lon="-74.2196180">
        <ele>2558.2</ele>
        <time>2018-08-11T19:37:07Z</time>
      </trkpt>
      <trkpt lat="4.5757620" lon="-74.2195780">
        <ele>2558.2</ele>
        <time>2018-08-11T19:37:08Z</time>
      </trkpt>
      <trkpt lat="4.5757350" lon="-74.2195400">
        <ele>2558.2</ele>
        <time>2018-08-11T19:37:09Z</time>
      </trkpt>
      <trkpt lat="4.5757130" lon="-74.2194980">
        <ele>2558.2</ele>
        <time>2018-08-11T19:37:10Z</time>
      </trkpt>
      <trkpt lat="4.5756880" lon="-74.2194600">
        <ele>2558.2</ele>
        <time>2018-08-11T19:37:11Z</time>
      </trkpt>
      <trkpt lat="4.5756630" lon="-74.2194270">
        <ele>2558.2</ele>
        <time>2018-08-11T19:37:12Z</time>
      </trkpt>
      <trkpt lat="4.5756380" lon="-74.2193920">
        <ele>2558.1</ele>
        <time>2018-08-11T19:37:13Z</time>
      </trkpt>
      <trkpt lat="4.5756180" lon="-74.2193570">
        <ele>2558.1</ele>
        <time>2018-08-11T19:37:14Z</time>
      </trkpt>
      <trkpt lat="4.5755970" lon="-74.2193230">
        <ele>2558.1</ele>
        <time>2018-08-11T19:37:15Z</time>
      </trkpt>
      <trkpt lat="4.5755720" lon="-74.2192950">
        <ele>2558.1</ele>
        <time>2018-08-11T19:37:16Z</time>
      </trkpt>
      <trkpt lat="4.5755470" lon="-74.2192720">
        <ele>2558.1</ele>
        <time>2018-08-11T19:37:17Z</time>
      </trkpt>
      <trkpt lat="4.5755270" lon="-74.2192470">
        <ele>2558.1</ele>
        <time>2018-08-11T19:37:18Z</time>
      </trkpt>
      <trkpt lat="4.5755080" lon="-74.2192180">
        <ele>2558.1</ele>
        <time>2018-08-11T19:37:19Z</time>
      </trkpt>
      <trkpt lat="4.5754870" lon="-74.2191950">
        <ele>2558.1</ele>
        <time>2018-08-11T19:37:20Z</time>
      </trkpt>
      <trkpt lat="4.5754670" lon="-74.2191730">
        <ele>2558.0</ele>
        <time>2018-08-11T19:37:21Z</time>
      </trkpt>
      <trkpt lat="4.5754430" lon="-74.2191530">
        <ele>2558.0</ele>
        <time>2018-08-11T19:37:22Z</time>
      </trkpt>
      <trkpt lat="4.5754220" lon="-74.2191270">
        <ele>2558.0</ele>
        <time>2018-08-11T19:37:23Z</time>
      </trkpt>
      <trkpt lat="4.5754030" lon="-74.2191000">
        <ele>2558.0</ele>
        <time>2018-08-11T19:37:24Z</time>
      </trkpt>
      <trkpt lat="4.5753870" lon="-74.2190720">
        <ele>2558.0</ele>
        <time>2018-08-11T19:37:25Z</time>
      </trkpt>
      <trkpt lat="4.5753670" lon="-74.2190500">
        <ele>2558.0</ele>
        <time>2018-08-11T19:37:26Z</time>
      </trkpt>
      <trkpt lat="4.5753400" lon="-74.2190320">
        <ele>2558.0</ele>
        <time>2018-08-11T19:37:27Z</time>
      </trkpt>
      <trkpt lat="4.5753170" lon="-74.2190080">
        <ele>2558.0</ele>
        <time>2018-08-11T19:37:28Z</time>
      </trkpt>
      <trkpt lat="4.5752920" lon="-74.2189880">
        <ele>2558.0</ele>
        <time>2018-08-11T19:37:29Z</time>
      </trkpt>
      <trkpt lat="4.5752580" lon="-74.2189680">
        <ele>2558.0</ele>
        <time>2018-08-11T19:37:30Z</time>
      </trkpt>
      <trkpt lat="4.5752350" lon="-74.2189430">
        <ele>2558.0</ele>
        <time>2018-08-11T19:37:31Z</time>
      </trkpt>
      <trkpt lat="4.5752130" lon="-74.2189200">
        <ele>2558.0</ele>
        <time>2018-08-11T19:37:32Z</time>
      </trkpt>
      <trkpt lat="4.5751920" lon="-74.2188970">
        <ele>2558.0</ele>
        <time>2018-08-11T19:37:33Z</time>
      </trkpt>
      <trkpt lat="4.5751720" lon="-74.2188730">
        <ele>2558.0</ele>
        <time>2018-08-11T19:37:34Z</time>
      </trkpt>
      <trkpt lat="4.5751520" lon="-74.2188480">
        <ele>2558.0</ele>
        <time>2018-08-11T19:37:35Z</time>
      </trkpt>
      <trkpt lat="4.5751320" lon="-74.2188300">
        <ele>2558.0</ele>
        <time>2018-08-11T19:37:36Z</time>
      </trkpt>
      <trkpt lat="4.5751020" lon="-74.2187930">
        <ele>2558.0</ele>
        <time>2018-08-11T19:37:38Z</time>
      </trkpt>
      <trkpt lat="4.5750870" lon="-74.2187550">
        <ele>2558.0</ele>
        <time>2018-08-11T19:37:40Z</time>
      </trkpt>
      <trkpt lat="4.5751150" lon="-74.2187220">
        <ele>2558.0</ele>
        <time>2018-08-11T19:37:42Z</time>
      </trkpt>
      <trkpt lat="4.5751420" lon="-74.2186870">
        <ele>2558.0</ele>
        <time>2018-08-11T19:37:44Z</time>
      </trkpt>
      <trkpt lat="4.5751630" lon="-74.2186470">
        <ele>2558.0</ele>
        <time>2018-08-11T19:37:46Z</time>
      </trkpt>
      <trkpt lat="4.5751770" lon="-74.2186070">
        <ele>2558.0</ele>
        <time>2018-08-11T19:37:48Z</time>
      </trkpt>
      <trkpt lat="4.5751670" lon="-74.2185630">
        <ele>2558.0</ele>
        <time>2018-08-11T19:37:50Z</time>
      </trkpt>
      <trkpt lat="4.5751400" lon="-74.2185250">
        <ele>2558.0</ele>
        <time>2018-08-11T19:37:52Z</time>
      </trkpt>
      <trkpt lat="4.5751200" lon="-74.2185070">
        <ele>2558.0</ele>
        <time>2018-08-11T19:37:53Z</time>
      </trkpt>
      <trkpt lat="4.5750780" lon="-74.2184800">
        <ele>2558.0</ele>
        <time>2018-08-11T19:37:55Z</time>
      </trkpt>
      <trkpt lat="4.5750470" lon="-74.2184550">
        <ele>2558.0</ele>
        <time>2018-08-11T19:37:57Z</time>
      </trkpt>
      <trkpt lat="4.5750220" lon="-74.2184350">
        <ele>2558.0</ele>
        <time>2018-08-11T19:37:59Z</time>
      </trkpt>
      <trkpt lat="4.5749970" lon="-74.2184050">
        <ele>2558.0</ele>
        <time>2018-08-11T19:38:01Z</time>
      </trkpt>
      <trkpt lat="4.5749700" lon="-74.2183780">
        <ele>2558.2</ele>
        <time>2018-08-11T19:38:03Z</time>
      </trkpt>
      <trkpt lat="4.5749430" lon="-74.2183480">
        <ele>2558.3</ele>
        <time>2018-08-11T19:38:05Z</time>
      </trkpt>
      <trkpt lat="4.5749200" lon="-74.2183200">
        <ele>2558.4</ele>
        <time>2018-08-11T19:38:07Z</time>
      </trkpt>
      <trkpt lat="4.5749050" lon="-74.2182870">
        <ele>2558.5</ele>
        <time>2018-08-11T19:38:09Z</time>
      </trkpt>
      <trkpt lat="4.5747780" lon="-74.2184100">
        <ele>2559.1</ele>
        <time>2018-08-11T19:38:54Z</time>
      </trkpt>
    </trkseg>
  </trk>
</gpx>
